<?xml version='1.0' encoding='UTF-8'?><gpx version="1.1" creator="JPX - https://github.com/jenetics/jpx" xmlns="http://www.topografix.com/GPX/1/1"><trk><trkseg><trkpt lat="44.3849279" lon="7.5396418"><ele>555.0</ele><time>2026-04-26T09:17:49.165Z</time></trkpt><trkpt lat="44.3849267" lon="7.5395531"><ele>555.0</ele><time>2026-04-26T09:18:13.949Z</time></trkpt><trkpt lat="44.3849911" lon="7.5396746"><ele>555.0</ele><time>2026-04-26T09:19:30.946Z</time></trkpt><trkpt lat="44.3850977" lon="7.5397989"><ele>555.0</ele><time>2026-04-26T09:19:32.946Z</time></trkpt><trkpt lat="44.3851628" lon="7.539869"><ele>555.0</ele><time>2026-04-26T09:19:33.946Z</time></trkpt><trkpt lat="44.3852273" lon="7.5399408"><ele>555.0</ele><time>2026-04-26T09:19:34.946Z</time></trkpt><trkpt lat="44.385293" lon="7.5400137"><ele>555.0</ele><time>2026-04-26T09:19:35.946Z</time></trkpt><trkpt lat="44.3853599" lon="7.5400768"><ele>555.0</ele><time>2026-04-26T09:19:36.945Z</time></trkpt><trkpt lat="44.3854185" lon="7.5401281"><ele>555.0</ele><time>2026-04-26T09:19:37.946Z</time></trkpt><trkpt lat="44.3855035" lon="7.5402142"><ele>555.0</ele><time>2026-04-26T09:19:39.946Z</time></trkpt><trkpt lat="44.3855539" lon="7.5403054"><ele>555.0</ele><time>2026-04-26T09:19:41.946Z</time></trkpt><trkpt lat="44.3855486" lon="7.5404051"><ele>555.0</ele><time>2026-04-26T09:19:45.946Z</time></trkpt><trkpt lat="44.3854829" lon="7.5405326"><ele>555.0</ele><time>2026-04-26T09:19:47.946Z</time></trkpt><trkpt lat="44.3854352" lon="7.5406049"><ele>555.0</ele><time>2026-04-26T09:19:48.946Z</time></trkpt><trkpt lat="44.3853492" lon="7.5407476"><ele>555.0</ele><time>2026-04-26T09:19:50.946Z</time></trkpt><trkpt lat="44.3853032" lon="7.5408304"><ele>555.0</ele><time>2026-04-26T09:19:51.946Z</time></trkpt><trkpt lat="44.3852577" lon="7.5409162"><ele>555.0</ele><time>2026-04-26T09:19:52.946Z</time></trkpt><trkpt lat="44.3852084" lon="7.5409967"><ele>555.0</ele><time>2026-04-26T09:19:53.945Z</time></trkpt><trkpt lat="44.3851596" lon="7.5410812"><ele>555.0</ele><time>2026-04-26T09:19:54.945Z</time></trkpt><trkpt lat="44.3851173" lon="7.5411747"><ele>555.0</ele><time>2026-04-26T09:19:55.946Z</time></trkpt><trkpt lat="44.3850692" lon="7.5412527"><ele>555.0</ele><time>2026-04-26T09:19:56.946Z</time></trkpt><trkpt lat="44.38502" lon="7.5413315"><ele>555.0</ele><time>2026-04-26T09:19:57.945Z</time></trkpt><trkpt lat="44.384968" lon="7.5414078"><ele>555.1428571428572</ele><time>2026-04-26T09:19:58.946Z</time></trkpt><trkpt lat="44.3849152" lon="7.541478"><ele>555.2857142857143</ele><time>2026-04-26T09:19:59.946Z</time></trkpt><trkpt lat="44.3848679" lon="7.5415494"><ele>555.4285714285714</ele><time>2026-04-26T09:20:00.946Z</time></trkpt><trkpt lat="44.3848251" lon="7.5416277"><ele>555.5714285714287</ele><time>2026-04-26T09:20:01.946Z</time></trkpt><trkpt lat="44.3847771" lon="7.5417058"><ele>555.7142857142858</ele><time>2026-04-26T09:20:02.946Z</time></trkpt><trkpt lat="44.3847336" lon="7.5417857"><ele>555.8571428571429</ele><time>2026-04-26T09:20:03.946Z</time></trkpt><trkpt lat="44.3846894" lon="7.5418621"><ele>556.0</ele><time>2026-04-26T09:20:04.946Z</time></trkpt><trkpt lat="44.3846257" lon="7.541989"><ele>555.6</ele><time>2026-04-26T09:20:06.946Z</time></trkpt><trkpt lat="44.3845556" lon="7.5420672"><ele>555.2</ele><time>2026-04-26T09:20:30.946Z</time></trkpt><trkpt lat="44.3845094" lon="7.5421619"><ele>554.8</ele><time>2026-04-26T09:20:32.946Z</time></trkpt><trkpt lat="44.3844517" lon="7.542302"><ele>554.4</ele><time>2026-04-26T09:20:34.946Z</time></trkpt><trkpt lat="44.3843909" lon="7.5424445"><ele>554.0</ele><time>2026-04-26T09:20:36.946Z</time></trkpt><trkpt lat="44.384328" lon="7.542581"><ele>554.0</ele><time>2026-04-26T09:20:38.946Z</time></trkpt><trkpt lat="44.3843013" lon="7.5426631"><ele>554.0</ele><time>2026-04-26T09:20:39.946Z</time></trkpt><trkpt lat="44.3842776" lon="7.5427481"><ele>554.0</ele><time>2026-04-26T09:20:40.946Z</time></trkpt><trkpt lat="44.3842102" lon="7.542869"><ele>554.0</ele><time>2026-04-26T09:20:42.946Z</time></trkpt><trkpt lat="44.3841414" lon="7.5429771"><ele>554.0</ele><time>2026-04-26T09:20:44.946Z</time></trkpt><trkpt lat="44.3841003" lon="7.5430586"><ele>554.0</ele><time>2026-04-26T09:20:45.946Z</time></trkpt><trkpt lat="44.3840514" lon="7.543148"><ele>553.8</ele><time>2026-04-26T09:20:46.946Z</time></trkpt><trkpt lat="44.3839899" lon="7.5432443"><ele>553.5999999999999</ele><time>2026-04-26T09:20:47.946Z</time></trkpt><trkpt lat="44.3839295" lon="7.5433519"><ele>553.4</ele><time>2026-04-26T09:20:48.946Z</time></trkpt><trkpt lat="44.3838743" lon="7.5434625"><ele>553.1999999999999</ele><time>2026-04-26T09:20:49.946Z</time></trkpt><trkpt lat="44.3838122" lon="7.5435724"><ele>553.0</ele><time>2026-04-26T09:20:50.946Z</time></trkpt><trkpt lat="44.3837534" lon="7.5436772"><ele>552.8</ele><time>2026-04-26T09:20:51.946Z</time></trkpt><trkpt lat="44.3836981" lon="7.5437874"><ele>552.5999999999999</ele><time>2026-04-26T09:20:52.946Z</time></trkpt><trkpt lat="44.383645" lon="7.5439002"><ele>552.4000000000001</ele><time>2026-04-26T09:20:53.945Z</time></trkpt><trkpt lat="44.383585" lon="7.5440108"><ele>552.2</ele><time>2026-04-26T09:20:54.946Z</time></trkpt><trkpt lat="44.3835263" lon="7.544123"><ele>552.0</ele><time>2026-04-26T09:20:55.946Z</time></trkpt><trkpt lat="44.3834637" lon="7.5442284"><ele>552.0</ele><time>2026-04-26T09:20:56.946Z</time></trkpt><trkpt lat="44.3834014" lon="7.5443369"><ele>552.0</ele><time>2026-04-26T09:20:57.946Z</time></trkpt><trkpt lat="44.3833412" lon="7.5444478"><ele>552.0</ele><time>2026-04-26T09:20:58.946Z</time></trkpt><trkpt lat="44.3832851" lon="7.5445567"><ele>552.0</ele><time>2026-04-26T09:20:59.945Z</time></trkpt><trkpt lat="44.3832232" lon="7.5446619"><ele>552.0</ele><time>2026-04-26T09:21:00.946Z</time></trkpt><trkpt lat="44.3831673" lon="7.5447616"><ele>552.0</ele><time>2026-04-26T09:21:01.946Z</time></trkpt><trkpt lat="44.3831149" lon="7.5448665"><ele>552.0</ele><time>2026-04-26T09:21:02.946Z</time></trkpt><trkpt lat="44.3830559" lon="7.5449638"><ele>552.0</ele><time>2026-04-26T09:21:03.946Z</time></trkpt><trkpt lat="44.3829981" lon="7.5450693"><ele>552.0</ele><time>2026-04-26T09:21:04.945Z</time></trkpt><trkpt lat="44.3829436" lon="7.5451814"><ele>552.0</ele><time>2026-04-26T09:21:05.946Z</time></trkpt><trkpt lat="44.3828835" lon="7.5452897"><ele>552.6</ele><time>2026-04-26T09:21:06.945Z</time></trkpt><trkpt lat="44.3828208" lon="7.5453825"><ele>553.2</ele><time>2026-04-26T09:21:07.946Z</time></trkpt><trkpt lat="44.3827635" lon="7.5454942"><ele>553.8</ele><time>2026-04-26T09:21:08.946Z</time></trkpt><trkpt lat="44.3827013" lon="7.5456018"><ele>554.4</ele><time>2026-04-26T09:21:09.945Z</time></trkpt><trkpt lat="44.3826403" lon="7.5457026"><ele>555.0</ele><time>2026-04-26T09:21:10.946Z</time></trkpt><trkpt lat="44.3825864" lon="7.5458155"><ele>555.0</ele><time>2026-04-26T09:21:11.946Z</time></trkpt><trkpt lat="44.3825389" lon="7.5459262"><ele>555.0</ele><time>2026-04-26T09:21:12.946Z</time></trkpt><trkpt lat="44.3824915" lon="7.5460358"><ele>555.0</ele><time>2026-04-26T09:21:13.945Z</time></trkpt><trkpt lat="44.3824426" lon="7.5461415"><ele>555.0</ele><time>2026-04-26T09:21:14.946Z</time></trkpt><trkpt lat="44.3823827" lon="7.5462425"><ele>555.0</ele><time>2026-04-26T09:21:15.946Z</time></trkpt><trkpt lat="44.3823269" lon="7.5463343"><ele>555.1666666666666</ele><time>2026-04-26T09:21:16.946Z</time></trkpt><trkpt lat="44.3822737" lon="7.5464216"><ele>555.3333333333334</ele><time>2026-04-26T09:21:17.946Z</time></trkpt><trkpt lat="44.382225" lon="7.5464971"><ele>555.5</ele><time>2026-04-26T09:21:18.946Z</time></trkpt><trkpt lat="44.3821864" lon="7.5465741"><ele>555.6666666666667</ele><time>2026-04-26T09:21:19.946Z</time></trkpt><trkpt lat="44.3821304" lon="7.5466817"><ele>555.8333333333334</ele><time>2026-04-26T09:21:21.946Z</time></trkpt><trkpt lat="44.3821111" lon="7.5467811"><ele>556.0</ele><time>2026-04-26T09:21:23.946Z</time></trkpt><trkpt lat="44.3820935" lon="7.5469264"><ele>552.2</ele><time>2026-04-26T09:21:25.946Z</time></trkpt><trkpt lat="44.3820476" lon="7.5470856"><ele>548.4000000000001</ele><time>2026-04-26T09:21:27.946Z</time></trkpt><trkpt lat="44.3820114" lon="7.5471588"><ele>544.6</ele><time>2026-04-26T09:21:28.946Z</time></trkpt><trkpt lat="44.3819696" lon="7.5472271"><ele>540.8000000000001</ele><time>2026-04-26T09:21:29.945Z</time></trkpt><trkpt lat="44.3818522" lon="7.5472625"><ele>537.0</ele><time>2026-04-26T09:21:31.946Z</time></trkpt><trkpt lat="44.3817741" lon="7.5472429"><ele>537.0</ele><time>2026-04-26T09:21:32.946Z</time></trkpt><trkpt lat="44.3816794" lon="7.5472142"><ele>537.0</ele><time>2026-04-26T09:21:33.946Z</time></trkpt><trkpt lat="44.3815746" lon="7.5471893"><ele>537.0</ele><time>2026-04-26T09:21:34.946Z</time></trkpt><trkpt lat="44.3814681" lon="7.5471566"><ele>537.0</ele><time>2026-04-26T09:21:35.946Z</time></trkpt><trkpt lat="44.3813606" lon="7.5471144"><ele>537.0</ele><time>2026-04-26T09:21:36.946Z</time></trkpt><trkpt lat="44.3812529" lon="7.5470643"><ele>538.5</ele><time>2026-04-26T09:21:37.946Z</time></trkpt><trkpt lat="44.3811399" lon="7.5470089"><ele>540.0</ele><time>2026-04-26T09:21:38.946Z</time></trkpt><trkpt lat="44.3810191" lon="7.5469616"><ele>541.5</ele><time>2026-04-26T09:21:39.946Z</time></trkpt><trkpt lat="44.3808948" lon="7.5469189"><ele>543.0</ele><time>2026-04-26T09:21:40.946Z</time></trkpt><trkpt lat="44.3807633" lon="7.5468868"><ele>543.0</ele><time>2026-04-26T09:21:41.946Z</time></trkpt><trkpt lat="44.3806378" lon="7.546856"><ele>543.0</ele><time>2026-04-26T09:21:42.946Z</time></trkpt><trkpt lat="44.380513" lon="7.5468297"><ele>543.0</ele><time>2026-04-26T09:21:43.946Z</time></trkpt><trkpt lat="44.38039" lon="7.5468071"><ele>543.0</ele><time>2026-04-26T09:21:44.945Z</time></trkpt><trkpt lat="44.3802824" lon="7.5468035"><ele>542.0</ele><time>2026-04-26T09:21:45.946Z</time></trkpt><trkpt lat="44.3801838" lon="7.5468144"><ele>541.0</ele><time>2026-04-26T09:21:46.945Z</time></trkpt><trkpt lat="44.3801148" lon="7.5468257"><ele>540.0</ele><time>2026-04-26T09:21:47.946Z</time></trkpt><trkpt lat="44.3800445" lon="7.546876"><ele>539.0</ele><time>2026-04-26T09:21:48.946Z</time></trkpt><trkpt lat="44.3800054" lon="7.5469938"><ele>538.0</ele><time>2026-04-26T09:21:49.946Z</time></trkpt><trkpt lat="44.3799928" lon="7.5471239"><ele>537.0</ele><time>2026-04-26T09:21:50.945Z</time></trkpt><trkpt lat="44.3800074" lon="7.5472351"><ele>534.2</ele><time>2026-04-26T09:21:51.946Z</time></trkpt><trkpt lat="44.3800581" lon="7.5473331"><ele>531.4000000000001</ele><time>2026-04-26T09:21:52.946Z</time></trkpt><trkpt lat="44.380136" lon="7.547412"><ele>528.5999999999999</ele><time>2026-04-26T09:21:53.946Z</time></trkpt><trkpt lat="44.3802293" lon="7.5474873"><ele>525.8</ele><time>2026-04-26T09:21:54.945Z</time></trkpt><trkpt lat="44.3803217" lon="7.5475698"><ele>523.0</ele><time>2026-04-26T09:21:55.946Z</time></trkpt><trkpt lat="44.3804266" lon="7.5476375"><ele>523.75</ele><time>2026-04-26T09:21:56.946Z</time></trkpt><trkpt lat="44.3805405" lon="7.5477166"><ele>524.5</ele><time>2026-04-26T09:21:57.946Z</time></trkpt><trkpt lat="44.3806536" lon="7.5477788"><ele>525.25</ele><time>2026-04-26T09:21:58.946Z</time></trkpt><trkpt lat="44.3807729" lon="7.5478524"><ele>526.0</ele><time>2026-04-26T09:21:59.945Z</time></trkpt><trkpt lat="44.3808982" lon="7.5479234"><ele>525.0</ele><time>2026-04-26T09:22:00.946Z</time></trkpt><trkpt lat="44.3810239" lon="7.5479961"><ele>524.0</ele><time>2026-04-26T09:22:01.945Z</time></trkpt><trkpt lat="44.3811577" lon="7.5480761"><ele>523.0</ele><time>2026-04-26T09:22:02.946Z</time></trkpt><trkpt lat="44.3812943" lon="7.5481564"><ele>522.0</ele><time>2026-04-26T09:22:03.946Z</time></trkpt><trkpt lat="44.3814325" lon="7.5482297"><ele>522.0</ele><time>2026-04-26T09:22:04.946Z</time></trkpt><trkpt lat="44.3815705" lon="7.5483073"><ele>522.0</ele><time>2026-04-26T09:22:05.945Z</time></trkpt><trkpt lat="44.3817052" lon="7.5483901"><ele>522.0</ele><time>2026-04-26T09:22:06.946Z</time></trkpt><trkpt lat="44.3818366" lon="7.5484722"><ele>522.0</ele><time>2026-04-26T09:22:07.946Z</time></trkpt><trkpt lat="44.3819681" lon="7.5485521"><ele>522.0</ele><time>2026-04-26T09:22:08.946Z</time></trkpt><trkpt lat="44.3820915" lon="7.5486244"><ele>522.0</ele><time>2026-04-26T09:22:09.946Z</time></trkpt><trkpt lat="44.3822024" lon="7.5486978"><ele>522.0</ele><time>2026-04-26T09:22:10.946Z</time></trkpt><trkpt lat="44.3822977" lon="7.5487974"><ele>522.0</ele><time>2026-04-26T09:22:11.946Z</time></trkpt><trkpt lat="44.3823782" lon="7.5489287"><ele>522.5</ele><time>2026-04-26T09:22:12.946Z</time></trkpt><trkpt lat="44.3824548" lon="7.5490802"><ele>523.0</ele><time>2026-04-26T09:22:13.946Z</time></trkpt><trkpt lat="44.3825386" lon="7.5492359"><ele>523.5</ele><time>2026-04-26T09:22:14.945Z</time></trkpt><trkpt lat="44.3826265" lon="7.5494013"><ele>524.0</ele><time>2026-04-26T09:22:15.946Z</time></trkpt><trkpt lat="44.3827299" lon="7.5495603"><ele>524.5</ele><time>2026-04-26T09:22:16.946Z</time></trkpt><trkpt lat="44.3828492" lon="7.5496765"><ele>525.0</ele><time>2026-04-26T09:22:17.946Z</time></trkpt><trkpt lat="44.3829644" lon="7.5498005"><ele>525.5</ele><time>2026-04-26T09:22:18.946Z</time></trkpt><trkpt lat="44.3830777" lon="7.5499086"><ele>526.0</ele><time>2026-04-26T09:22:19.946Z</time></trkpt><trkpt lat="44.3831886" lon="7.5500252"><ele>526.0</ele><time>2026-04-26T09:22:20.945Z</time></trkpt><trkpt lat="44.3833023" lon="7.5501401"><ele>526.0</ele><time>2026-04-26T09:22:21.946Z</time></trkpt><trkpt lat="44.3834229" lon="7.5502502"><ele>526.0</ele><time>2026-04-26T09:22:22.946Z</time></trkpt><trkpt lat="44.3835544" lon="7.5503358"><ele>526.0</ele><time>2026-04-26T09:22:23.946Z</time></trkpt><trkpt lat="44.3836976" lon="7.5503879"><ele>523.0</ele><time>2026-04-26T09:22:24.946Z</time></trkpt><trkpt lat="44.3838295" lon="7.5504248"><ele>520.0</ele><time>2026-04-26T09:22:25.945Z</time></trkpt><trkpt lat="44.3839617" lon="7.5504439"><ele>517.0</ele><time>2026-04-26T09:22:26.945Z</time></trkpt><trkpt lat="44.3840958" lon="7.5504531"><ele>514.0</ele><time>2026-04-26T09:22:27.946Z</time></trkpt><trkpt lat="44.3842219" lon="7.5504592"><ele>514.0</ele><time>2026-04-26T09:22:28.946Z</time></trkpt><trkpt lat="44.3843511" lon="7.5504596"><ele>514.0</ele><time>2026-04-26T09:22:29.946Z</time></trkpt><trkpt lat="44.3844796" lon="7.5504375"><ele>514.0</ele><time>2026-04-26T09:22:30.946Z</time></trkpt><trkpt lat="44.3846022" lon="7.5503765"><ele>514.0</ele><time>2026-04-26T09:22:31.946Z</time></trkpt><trkpt lat="44.3847186" lon="7.5503016"><ele>517.75</ele><time>2026-04-26T09:22:32.946Z</time></trkpt><trkpt lat="44.3848431" lon="7.5502351"><ele>521.5</ele><time>2026-04-26T09:22:33.946Z</time></trkpt><trkpt lat="44.3849764" lon="7.5502104"><ele>525.25</ele><time>2026-04-26T09:22:34.946Z</time></trkpt><trkpt lat="44.3851112" lon="7.5502023"><ele>529.0</ele><time>2026-04-26T09:22:35.945Z</time></trkpt><trkpt lat="44.3852546" lon="7.5502138"><ele>529.0</ele><time>2026-04-26T09:22:36.946Z</time></trkpt><trkpt lat="44.3853968" lon="7.5502236"><ele>529.0</ele><time>2026-04-26T09:22:37.946Z</time></trkpt><trkpt lat="44.3855347" lon="7.5502422"><ele>529.0</ele><time>2026-04-26T09:22:38.946Z</time></trkpt><trkpt lat="44.3856743" lon="7.550259"><ele>529.0</ele><time>2026-04-26T09:22:39.946Z</time></trkpt><trkpt lat="44.385813" lon="7.5502862"><ele>529.0</ele><time>2026-04-26T09:22:40.946Z</time></trkpt><trkpt lat="44.3859476" lon="7.5503166"><ele>529.0</ele><time>2026-04-26T09:22:41.946Z</time></trkpt><trkpt lat="44.3860825" lon="7.5503541"><ele>529.0</ele><time>2026-04-26T09:22:42.946Z</time></trkpt><trkpt lat="44.3862179" lon="7.5503834"><ele>529.0</ele><time>2026-04-26T09:22:43.946Z</time></trkpt><trkpt lat="44.3863453" lon="7.5504144"><ele>526.0</ele><time>2026-04-26T09:22:44.946Z</time></trkpt><trkpt lat="44.3864656" lon="7.5504584"><ele>523.0</ele><time>2026-04-26T09:22:45.946Z</time></trkpt><trkpt lat="44.3865812" lon="7.5505123"><ele>520.0</ele><time>2026-04-26T09:22:46.946Z</time></trkpt><trkpt lat="44.3866993" lon="7.5505901"><ele>517.0</ele><time>2026-04-26T09:22:47.946Z</time></trkpt><trkpt lat="44.386817" lon="7.5506989"><ele>517.0</ele><time>2026-04-26T09:22:48.946Z</time></trkpt><trkpt lat="44.3869352" lon="7.5508131"><ele>517.0</ele><time>2026-04-26T09:22:49.946Z</time></trkpt><trkpt lat="44.3870484" lon="7.5509127"><ele>517.0</ele><time>2026-04-26T09:22:50.946Z</time></trkpt><trkpt lat="44.3871646" lon="7.5510132"><ele>517.0</ele><time>2026-04-26T09:22:51.946Z</time></trkpt><trkpt lat="44.3872842" lon="7.5510873"><ele>515.5</ele><time>2026-04-26T09:22:52.946Z</time></trkpt><trkpt lat="44.3873952" lon="7.5511574"><ele>514.0</ele><time>2026-04-26T09:22:53.945Z</time></trkpt><trkpt lat="44.3875022" lon="7.5512212"><ele>512.5</ele><time>2026-04-26T09:22:54.946Z</time></trkpt><trkpt lat="44.3876136" lon="7.551288"><ele>511.0</ele><time>2026-04-26T09:22:55.946Z</time></trkpt><trkpt lat="44.387736" lon="7.5513559"><ele>511.0</ele><time>2026-04-26T09:22:56.946Z</time></trkpt><trkpt lat="44.3878658" lon="7.551417"><ele>511.0</ele><time>2026-04-26T09:22:57.946Z</time></trkpt><trkpt lat="44.3879935" lon="7.5514761"><ele>511.0</ele><time>2026-04-26T09:22:58.946Z</time></trkpt><trkpt lat="44.3881263" lon="7.5515463"><ele>511.0</ele><time>2026-04-26T09:22:59.946Z</time></trkpt><trkpt lat="44.3882513" lon="7.5516229"><ele>513.5</ele><time>2026-04-26T09:23:00.946Z</time></trkpt><trkpt lat="44.388378" lon="7.5517053"><ele>516.0</ele><time>2026-04-26T09:23:01.946Z</time></trkpt><trkpt lat="44.3885046" lon="7.5518018"><ele>518.5</ele><time>2026-04-26T09:23:02.946Z</time></trkpt><trkpt lat="44.3886348" lon="7.5519001"><ele>521.0</ele><time>2026-04-26T09:23:03.945Z</time></trkpt><trkpt lat="44.3887644" lon="7.5520023"><ele>519.5</ele><time>2026-04-26T09:23:04.945Z</time></trkpt><trkpt lat="44.3888899" lon="7.552103"><ele>518.0</ele><time>2026-04-26T09:23:05.946Z</time></trkpt><trkpt lat="44.3890199" lon="7.552197"><ele>516.5</ele><time>2026-04-26T09:23:06.946Z</time></trkpt><trkpt lat="44.3891333" lon="7.5522981"><ele>515.0</ele><time>2026-04-26T09:23:07.946Z</time></trkpt><trkpt lat="44.3892533" lon="7.5523865"><ele>515.0</ele><time>2026-04-26T09:23:08.946Z</time></trkpt><trkpt lat="44.3893752" lon="7.5524867"><ele>515.0</ele><time>2026-04-26T09:23:09.946Z</time></trkpt><trkpt lat="44.3894989" lon="7.5525841"><ele>515.0</ele><time>2026-04-26T09:23:10.945Z</time></trkpt><trkpt lat="44.3896167" lon="7.5526667"><ele>515.0</ele><time>2026-04-26T09:23:11.946Z</time></trkpt><trkpt lat="44.3897471" lon="7.5527448"><ele>513.5</ele><time>2026-04-26T09:23:12.946Z</time></trkpt><trkpt lat="44.3898735" lon="7.5528291"><ele>512.0</ele><time>2026-04-26T09:23:13.945Z</time></trkpt><trkpt lat="44.3899945" lon="7.5529244"><ele>510.5</ele><time>2026-04-26T09:23:14.946Z</time></trkpt><trkpt lat="44.3901178" lon="7.553024"><ele>509.0</ele><time>2026-04-26T09:23:15.946Z</time></trkpt><trkpt lat="44.3902487" lon="7.5531341"><ele>509.0</ele><time>2026-04-26T09:23:16.946Z</time></trkpt><trkpt lat="44.3903851" lon="7.5532431"><ele>509.0</ele><time>2026-04-26T09:23:17.946Z</time></trkpt><trkpt lat="44.3905217" lon="7.553365"><ele>509.0</ele><time>2026-04-26T09:23:18.946Z</time></trkpt><trkpt lat="44.3906621" lon="7.5534798"><ele>508.3333333333333</ele><time>2026-04-26T09:23:19.946Z</time></trkpt><trkpt lat="44.3907984" lon="7.5536056"><ele>507.66666666666663</ele><time>2026-04-26T09:23:20.946Z</time></trkpt><trkpt lat="44.390936" lon="7.5537268"><ele>507.0</ele><time>2026-04-26T09:23:21.946Z</time></trkpt><trkpt lat="44.3910697" lon="7.5538425"><ele>507.0</ele><time>2026-04-26T09:23:22.946Z</time></trkpt><trkpt lat="44.3912046" lon="7.5539581"><ele>507.0</ele><time>2026-04-26T09:23:23.946Z</time></trkpt><trkpt lat="44.3913355" lon="7.5540785"><ele>507.0</ele><time>2026-04-26T09:23:24.946Z</time></trkpt><trkpt lat="44.3914629" lon="7.5541757"><ele>506.25</ele><time>2026-04-26T09:23:25.946Z</time></trkpt><trkpt lat="44.3915792" lon="7.5542758"><ele>505.5</ele><time>2026-04-26T09:23:26.946Z</time></trkpt><trkpt lat="44.3916861" lon="7.5543705"><ele>504.75</ele><time>2026-04-26T09:23:27.945Z</time></trkpt><trkpt lat="44.3917879" lon="7.5544578"><ele>504.0</ele><time>2026-04-26T09:23:28.945Z</time></trkpt><trkpt lat="44.3918783" lon="7.5545477"><ele>504.0</ele><time>2026-04-26T09:23:29.946Z</time></trkpt><trkpt lat="44.3919585" lon="7.5546499"><ele>504.0</ele><time>2026-04-26T09:23:30.946Z</time></trkpt><trkpt lat="44.3920299" lon="7.5547398"><ele>504.0</ele><time>2026-04-26T09:23:31.946Z</time></trkpt><trkpt lat="44.3920803" lon="7.5548025"><ele>504.0</ele><time>2026-04-26T09:23:32.946Z</time></trkpt><trkpt lat="44.3921535" lon="7.5548624"><ele>504.0</ele><time>2026-04-26T09:23:34.946Z</time></trkpt><trkpt lat="44.3922214" lon="7.5549588"><ele>503.79999999999995</ele><time>2026-04-26T09:23:36.946Z</time></trkpt><trkpt lat="44.3922474" lon="7.5550492"><ele>503.59999999999997</ele><time>2026-04-26T09:23:37.946Z</time></trkpt><trkpt lat="44.392257" lon="7.5551685"><ele>503.4</ele><time>2026-04-26T09:23:38.946Z</time></trkpt><trkpt lat="44.3922481" lon="7.5553137"><ele>503.2</ele><time>2026-04-26T09:23:39.946Z</time></trkpt><trkpt lat="44.3922118" lon="7.5554612"><ele>503.0</ele><time>2026-04-26T09:23:40.946Z</time></trkpt><trkpt lat="44.3921566" lon="7.5556155"><ele>503.0</ele><time>2026-04-26T09:23:41.945Z</time></trkpt><trkpt lat="44.3920963" lon="7.5557792"><ele>503.0</ele><time>2026-04-26T09:23:42.946Z</time></trkpt><trkpt lat="44.3920328" lon="7.555956"><ele>503.0</ele><time>2026-04-26T09:23:43.945Z</time></trkpt><trkpt lat="44.3919599" lon="7.556142"><ele>503.0</ele><time>2026-04-26T09:23:44.946Z</time></trkpt><trkpt lat="44.3918908" lon="7.5563366"><ele>502.3333333333333</ele><time>2026-04-26T09:23:45.945Z</time></trkpt><trkpt lat="44.3918251" lon="7.5565281"><ele>501.66666666666663</ele><time>2026-04-26T09:23:46.945Z</time></trkpt><trkpt lat="44.391751" lon="7.5567241"><ele>501.0</ele><time>2026-04-26T09:23:47.946Z</time></trkpt><trkpt lat="44.3916865" lon="7.5569181"><ele>501.66666666666663</ele><time>2026-04-26T09:23:48.946Z</time></trkpt><trkpt lat="44.3916135" lon="7.5571203"><ele>502.3333333333333</ele><time>2026-04-26T09:23:49.946Z</time></trkpt><trkpt lat="44.3915409" lon="7.5573117"><ele>503.0</ele><time>2026-04-26T09:23:50.946Z</time></trkpt><trkpt lat="44.3914714" lon="7.5574896"><ele>503.0</ele><time>2026-04-26T09:23:51.946Z</time></trkpt><trkpt lat="44.391407" lon="7.5576533"><ele>503.0</ele><time>2026-04-26T09:23:52.946Z</time></trkpt><trkpt lat="44.3913525" lon="7.5578074"><ele>503.0</ele><time>2026-04-26T09:23:53.946Z</time></trkpt><trkpt lat="44.391291" lon="7.557945"><ele>503.0</ele><time>2026-04-26T09:23:54.946Z</time></trkpt><trkpt lat="44.391218" lon="7.5580679"><ele>502.5</ele><time>2026-04-26T09:23:55.946Z</time></trkpt><trkpt lat="44.3911328" lon="7.5581765"><ele>502.0</ele><time>2026-04-26T09:23:56.946Z</time></trkpt><trkpt lat="44.3910251" lon="7.5582705"><ele>501.5</ele><time>2026-04-26T09:23:57.945Z</time></trkpt><trkpt lat="44.3908983" lon="7.5583445"><ele>501.0</ele><time>2026-04-26T09:23:58.946Z</time></trkpt><trkpt lat="44.3907479" lon="7.5583996"><ele>501.0</ele><time>2026-04-26T09:23:59.946Z</time></trkpt><trkpt lat="44.3905954" lon="7.5584459"><ele>501.0</ele><time>2026-04-26T09:24:00.946Z</time></trkpt><trkpt lat="44.3904321" lon="7.5584749"><ele>501.0</ele><time>2026-04-26T09:24:01.946Z</time></trkpt><trkpt lat="44.3902629" lon="7.5585002"><ele>500.66666666666663</ele><time>2026-04-26T09:24:02.946Z</time></trkpt><trkpt lat="44.3900899" lon="7.5585224"><ele>500.3333333333333</ele><time>2026-04-26T09:24:03.946Z</time></trkpt><trkpt lat="44.3899113" lon="7.5585469"><ele>500.0</ele><time>2026-04-26T09:24:04.946Z</time></trkpt><trkpt lat="44.3897337" lon="7.5585627"><ele>500.66666666666663</ele><time>2026-04-26T09:24:05.946Z</time></trkpt><trkpt lat="44.3895526" lon="7.5585809"><ele>501.33333333333337</ele><time>2026-04-26T09:24:06.945Z</time></trkpt><trkpt lat="44.3893676" lon="7.5585994"><ele>502.0</ele><time>2026-04-26T09:24:07.946Z</time></trkpt><trkpt lat="44.3891805" lon="7.5586237"><ele>502.0</ele><time>2026-04-26T09:24:08.946Z</time></trkpt><trkpt lat="44.3889924" lon="7.5586453"><ele>502.0</ele><time>2026-04-26T09:24:09.946Z</time></trkpt><trkpt lat="44.3888054" lon="7.5586655"><ele>502.0</ele><time>2026-04-26T09:24:10.946Z</time></trkpt><trkpt lat="44.3886193" lon="7.5586877"><ele>503.0</ele><time>2026-04-26T09:24:11.946Z</time></trkpt><trkpt lat="44.3884333" lon="7.5587136"><ele>504.0</ele><time>2026-04-26T09:24:12.946Z</time></trkpt><trkpt lat="44.3882483" lon="7.5587385"><ele>505.0</ele><time>2026-04-26T09:24:13.946Z</time></trkpt><trkpt lat="44.3880614" lon="7.5587608"><ele>505.0</ele><time>2026-04-26T09:24:14.946Z</time></trkpt><trkpt lat="44.387879" lon="7.558783"><ele>505.0</ele><time>2026-04-26T09:24:15.946Z</time></trkpt><trkpt lat="44.387698" lon="7.5588024"><ele>505.0</ele><time>2026-04-26T09:24:16.946Z</time></trkpt><trkpt lat="44.3875226" lon="7.5588229"><ele>505.0</ele><time>2026-04-26T09:24:17.945Z</time></trkpt><trkpt lat="44.38735" lon="7.5588403"><ele>505.0</ele><time>2026-04-26T09:24:18.946Z</time></trkpt><trkpt lat="44.3871801" lon="7.5588593"><ele>505.0</ele><time>2026-04-26T09:24:19.946Z</time></trkpt><trkpt lat="44.3870097" lon="7.5588737"><ele>505.6666666666667</ele><time>2026-04-26T09:24:20.946Z</time></trkpt><trkpt lat="44.386846" lon="7.558894"><ele>506.33333333333337</ele><time>2026-04-26T09:24:21.946Z</time></trkpt><trkpt lat="44.3866855" lon="7.5589101"><ele>507.0</ele><time>2026-04-26T09:24:22.945Z</time></trkpt><trkpt lat="44.3865277" lon="7.5589255"><ele>507.0</ele><time>2026-04-26T09:24:23.946Z</time></trkpt><trkpt lat="44.3863691" lon="7.5589321"><ele>507.0</ele><time>2026-04-26T09:24:24.946Z</time></trkpt><trkpt lat="44.3862054" lon="7.5589349"><ele>507.0</ele><time>2026-04-26T09:24:25.946Z</time></trkpt><trkpt lat="44.3860321" lon="7.5589304"><ele>507.33333333333337</ele><time>2026-04-26T09:24:26.946Z</time></trkpt><trkpt lat="44.3858521" lon="7.5589147"><ele>507.6666666666667</ele><time>2026-04-26T09:24:27.946Z</time></trkpt><trkpt lat="44.3856741" lon="7.5588969"><ele>508.0</ele><time>2026-04-26T09:24:28.945Z</time></trkpt><trkpt lat="44.3854952" lon="7.5588699"><ele>508.0</ele><time>2026-04-26T09:24:29.946Z</time></trkpt><trkpt lat="44.3853132" lon="7.5588356"><ele>508.0</ele><time>2026-04-26T09:24:30.946Z</time></trkpt><trkpt lat="44.3851344" lon="7.5588009"><ele>508.0</ele><time>2026-04-26T09:24:31.946Z</time></trkpt><trkpt lat="44.3849481" lon="7.5587713"><ele>508.0</ele><time>2026-04-26T09:24:32.946Z</time></trkpt><trkpt lat="44.3847601" lon="7.5587394"><ele>508.0</ele><time>2026-04-26T09:24:33.946Z</time></trkpt><trkpt lat="44.384583" lon="7.558715"><ele>508.0</ele><time>2026-04-26T09:24:34.946Z</time></trkpt><trkpt lat="44.3844171" lon="7.5586899"><ele>509.33333333333337</ele><time>2026-04-26T09:24:35.946Z</time></trkpt><trkpt lat="44.3842622" lon="7.5586593"><ele>510.66666666666663</ele><time>2026-04-26T09:24:36.945Z</time></trkpt><trkpt lat="44.3841087" lon="7.5586323"><ele>512.0</ele><time>2026-04-26T09:24:37.945Z</time></trkpt><trkpt lat="44.3839613" lon="7.5585946"><ele>512.4</ele><time>2026-04-26T09:24:38.946Z</time></trkpt><trkpt lat="44.3838293" lon="7.558556"><ele>512.8000000000001</ele><time>2026-04-26T09:24:39.946Z</time></trkpt><trkpt lat="44.3837188" lon="7.5585048"><ele>513.2</ele><time>2026-04-26T09:24:40.946Z</time></trkpt><trkpt lat="44.3836322" lon="7.5584526"><ele>513.6</ele><time>2026-04-26T09:24:41.945Z</time></trkpt><trkpt lat="44.3835553" lon="7.5584146"><ele>514.0</ele><time>2026-04-26T09:24:42.946Z</time></trkpt><trkpt lat="44.3834861" lon="7.5584338"><ele>514.0</ele><time>2026-04-26T09:24:43.946Z</time></trkpt><trkpt lat="44.383436" lon="7.558507"><ele>514.0</ele><time>2026-04-26T09:24:44.945Z</time></trkpt><trkpt lat="44.3833993" lon="7.5586257"><ele>514.0</ele><time>2026-04-26T09:24:45.946Z</time></trkpt><trkpt lat="44.3833494" lon="7.5587722"><ele>514.0</ele><time>2026-04-26T09:24:46.946Z</time></trkpt><trkpt lat="44.3832842" lon="7.5589346"><ele>514.0</ele><time>2026-04-26T09:24:47.946Z</time></trkpt><trkpt lat="44.3832204" lon="7.5591143"><ele>514.0</ele><time>2026-04-26T09:24:48.946Z</time></trkpt><trkpt lat="44.3831552" lon="7.5592983"><ele>514.0</ele><time>2026-04-26T09:24:49.946Z</time></trkpt><trkpt lat="44.3831002" lon="7.559472"><ele>514.0</ele><time>2026-04-26T09:24:50.946Z</time></trkpt><trkpt lat="44.3830503" lon="7.5596312"><ele>514.0</ele><time>2026-04-26T09:24:51.946Z</time></trkpt><trkpt lat="44.3829967" lon="7.559775"><ele>514.2</ele><time>2026-04-26T09:24:52.946Z</time></trkpt><trkpt lat="44.3829488" lon="7.5599093"><ele>514.4</ele><time>2026-04-26T09:24:53.946Z</time></trkpt><trkpt lat="44.3828887" lon="7.560029"><ele>514.6</ele><time>2026-04-26T09:24:54.946Z</time></trkpt><trkpt lat="44.3828138" lon="7.5601278"><ele>514.8</ele><time>2026-04-26T09:24:55.945Z</time></trkpt><trkpt lat="44.3827229" lon="7.5602077"><ele>515.0</ele><time>2026-04-26T09:24:56.945Z</time></trkpt><trkpt lat="44.3826311" lon="7.5602926"><ele>515.2</ele><time>2026-04-26T09:24:57.946Z</time></trkpt><trkpt lat="44.3825601" lon="7.56039"><ele>515.4</ele><time>2026-04-26T09:24:58.946Z</time></trkpt><trkpt lat="44.3825096" lon="7.5605092"><ele>515.6</ele><time>2026-04-26T09:24:59.946Z</time></trkpt><trkpt lat="44.3824876" lon="7.5606514"><ele>515.8</ele><time>2026-04-26T09:25:00.946Z</time></trkpt><trkpt lat="44.3824988" lon="7.5607868"><ele>516.0</ele><time>2026-04-26T09:25:01.946Z</time></trkpt><trkpt lat="44.3825511" lon="7.560916"><ele>516.0</ele><time>2026-04-26T09:25:02.946Z</time></trkpt><trkpt lat="44.3826263" lon="7.5610241"><ele>516.0</ele><time>2026-04-26T09:25:03.946Z</time></trkpt><trkpt lat="44.3827199" lon="7.5611297"><ele>516.0</ele><time>2026-04-26T09:25:04.945Z</time></trkpt><trkpt lat="44.382813" lon="7.5612595"><ele>516.0</ele><time>2026-04-26T09:25:05.946Z</time></trkpt><trkpt lat="44.3828853" lon="7.5614148"><ele>516.25</ele><time>2026-04-26T09:25:06.946Z</time></trkpt><trkpt lat="44.3829403" lon="7.5615879"><ele>516.5</ele><time>2026-04-26T09:25:07.946Z</time></trkpt><trkpt lat="44.382986" lon="7.5617668"><ele>516.75</ele><time>2026-04-26T09:25:08.946Z</time></trkpt><trkpt lat="44.3830305" lon="7.5619525"><ele>517.0</ele><time>2026-04-26T09:25:09.945Z</time></trkpt><trkpt lat="44.3830742" lon="7.5621452"><ele>517.0</ele><time>2026-04-26T09:25:10.945Z</time></trkpt><trkpt lat="44.38312" lon="7.5623491"><ele>517.0</ele><time>2026-04-26T09:25:11.946Z</time></trkpt><trkpt lat="44.3831651" lon="7.5625523"><ele>517.0</ele><time>2026-04-26T09:25:12.946Z</time></trkpt><trkpt lat="44.3832096" lon="7.5627521"><ele>516.0</ele><time>2026-04-26T09:25:13.945Z</time></trkpt><trkpt lat="44.3832533" lon="7.5629527"><ele>515.0</ele><time>2026-04-26T09:25:14.945Z</time></trkpt><trkpt lat="44.3832991" lon="7.5631618"><ele>514.0</ele><time>2026-04-26T09:25:15.946Z</time></trkpt><trkpt lat="44.3833428" lon="7.5633711"><ele>514.0</ele><time>2026-04-26T09:25:16.946Z</time></trkpt><trkpt lat="44.3833867" lon="7.563581"><ele>514.0</ele><time>2026-04-26T09:25:17.946Z</time></trkpt><trkpt lat="44.3834339" lon="7.5637962"><ele>514.0</ele><time>2026-04-26T09:25:18.945Z</time></trkpt><trkpt lat="44.3834771" lon="7.5640122"><ele>514.0</ele><time>2026-04-26T09:25:19.945Z</time></trkpt><trkpt lat="44.3835191" lon="7.564226"><ele>514.0</ele><time>2026-04-26T09:25:20.946Z</time></trkpt><trkpt lat="44.3835567" lon="7.5644197"><ele>514.0</ele><time>2026-04-26T09:25:21.946Z</time></trkpt><trkpt lat="44.383594" lon="7.5646114"><ele>514.0</ele><time>2026-04-26T09:25:22.946Z</time></trkpt><trkpt lat="44.3836361" lon="7.5647844"><ele>514.5</ele><time>2026-04-26T09:25:23.945Z</time></trkpt><trkpt lat="44.3836768" lon="7.5649434"><ele>515.0</ele><time>2026-04-26T09:25:24.946Z</time></trkpt><trkpt lat="44.3837169" lon="7.5650975"><ele>515.5</ele><time>2026-04-26T09:25:25.945Z</time></trkpt><trkpt lat="44.3837653" lon="7.5652384"><ele>516.0</ele><time>2026-04-26T09:25:26.946Z</time></trkpt><trkpt lat="44.3838108" lon="7.5653711"><ele>515.8</ele><time>2026-04-26T09:25:27.946Z</time></trkpt><trkpt lat="44.3838573" lon="7.5654968"><ele>515.6</ele><time>2026-04-26T09:25:28.946Z</time></trkpt><trkpt lat="44.3838953" lon="7.5656104"><ele>515.4</ele><time>2026-04-26T09:25:29.945Z</time></trkpt><trkpt lat="44.383936" lon="7.5657179"><ele>515.2</ele><time>2026-04-26T09:25:30.946Z</time></trkpt><trkpt lat="44.3839703" lon="7.565836"><ele>515.0</ele><time>2026-04-26T09:25:31.945Z</time></trkpt><trkpt lat="44.3839976" lon="7.565967"><ele>515.0</ele><time>2026-04-26T09:25:32.946Z</time></trkpt><trkpt lat="44.3840097" lon="7.5661134"><ele>515.0</ele><time>2026-04-26T09:25:33.946Z</time></trkpt><trkpt lat="44.3839957" lon="7.566269"><ele>515.0</ele><time>2026-04-26T09:25:34.946Z</time></trkpt><trkpt lat="44.383964" lon="7.5664383"><ele>515.0</ele><time>2026-04-26T09:25:35.946Z</time></trkpt><trkpt lat="44.3838974" lon="7.5666021"><ele>515.3333333333333</ele><time>2026-04-26T09:25:36.945Z</time></trkpt><trkpt lat="44.3837991" lon="7.5667482"><ele>515.6666666666666</ele><time>2026-04-26T09:25:37.946Z</time></trkpt><trkpt lat="44.3836763" lon="7.5668854"><ele>516.0</ele><time>2026-04-26T09:25:38.945Z</time></trkpt><trkpt lat="44.3835464" lon="7.5670126"><ele>516.0</ele><time>2026-04-26T09:25:39.945Z</time></trkpt><trkpt lat="44.3834074" lon="7.5671346"><ele>516.0</ele><time>2026-04-26T09:25:40.946Z</time></trkpt><trkpt lat="44.3832616" lon="7.5672577"><ele>516.0</ele><time>2026-04-26T09:25:41.946Z</time></trkpt><trkpt lat="44.3831235" lon="7.567388"><ele>516.0</ele><time>2026-04-26T09:25:42.946Z</time></trkpt><trkpt lat="44.3829791" lon="7.5675194"><ele>516.0</ele><time>2026-04-26T09:25:43.946Z</time></trkpt><trkpt lat="44.3828249" lon="7.5676559"><ele>516.0</ele><time>2026-04-26T09:25:44.946Z</time></trkpt><trkpt lat="44.3826699" lon="7.5677943"><ele>517.0</ele><time>2026-04-26T09:25:45.946Z</time></trkpt><trkpt lat="44.3825139" lon="7.5679273"><ele>518.0</ele><time>2026-04-26T09:25:46.946Z</time></trkpt><trkpt lat="44.3823673" lon="7.5680603"><ele>519.0</ele><time>2026-04-26T09:25:47.946Z</time></trkpt><trkpt lat="44.3822171" lon="7.5681876"><ele>520.0</ele><time>2026-04-26T09:25:48.946Z</time></trkpt><trkpt lat="44.3820633" lon="7.5683097"><ele>521.0</ele><time>2026-04-26T09:25:49.946Z</time></trkpt><trkpt lat="44.3818995" lon="7.5684154"><ele>522.0</ele><time>2026-04-26T09:25:50.946Z</time></trkpt><trkpt lat="44.3817293" lon="7.5685016"><ele>522.0</ele><time>2026-04-26T09:25:51.946Z</time></trkpt><trkpt lat="44.3815527" lon="7.5685728"><ele>522.0</ele><time>2026-04-26T09:25:52.945Z</time></trkpt><trkpt lat="44.3813763" lon="7.5686181"><ele>522.0</ele><time>2026-04-26T09:25:53.946Z</time></trkpt><trkpt lat="44.3811921" lon="7.5686443"><ele>522.0</ele><time>2026-04-26T09:25:54.945Z</time></trkpt><trkpt lat="44.3810143" lon="7.5686683"><ele>522.0</ele><time>2026-04-26T09:25:55.946Z</time></trkpt><trkpt lat="44.3808395" lon="7.5686858"><ele>522.0</ele><time>2026-04-26T09:25:56.945Z</time></trkpt><trkpt lat="44.3806702" lon="7.5686996"><ele>525.3333333333334</ele><time>2026-04-26T09:25:57.946Z</time></trkpt><trkpt lat="44.3805032" lon="7.5687125"><ele>528.6666666666667</ele><time>2026-04-26T09:25:58.946Z</time></trkpt><trkpt lat="44.3803432" lon="7.5687294"><ele>532.0</ele><time>2026-04-26T09:25:59.946Z</time></trkpt><trkpt lat="44.3801924" lon="7.5687596"><ele>532.0</ele><time>2026-04-26T09:26:00.946Z</time></trkpt><trkpt lat="44.3800637" lon="7.5687957"><ele>532.0</ele><time>2026-04-26T09:26:01.946Z</time></trkpt><trkpt lat="44.3799525" lon="7.5688384"><ele>532.0</ele><time>2026-04-26T09:26:02.946Z</time></trkpt><trkpt lat="44.3798478" lon="7.5688694"><ele>532.0</ele><time>2026-04-26T09:26:03.945Z</time></trkpt><trkpt lat="44.3797504" lon="7.5688922"><ele>533.0</ele><time>2026-04-26T09:26:04.946Z</time></trkpt><trkpt lat="44.3796657" lon="7.5689474"><ele>534.0</ele><time>2026-04-26T09:26:05.946Z</time></trkpt><trkpt lat="44.3796028" lon="7.5690494"><ele>535.0</ele><time>2026-04-26T09:26:06.945Z</time></trkpt><trkpt lat="44.3795569" lon="7.5691889"><ele>536.0</ele><time>2026-04-26T09:26:07.946Z</time></trkpt><trkpt lat="44.3794965" lon="7.5693488"><ele>537.0</ele><time>2026-04-26T09:26:08.945Z</time></trkpt><trkpt lat="44.379422" lon="7.5695248"><ele>536.6666666666666</ele><time>2026-04-26T09:26:09.946Z</time></trkpt><trkpt lat="44.3793469" lon="7.569721"><ele>536.3333333333333</ele><time>2026-04-26T09:26:10.945Z</time></trkpt><trkpt lat="44.3792708" lon="7.5699248"><ele>536.0</ele><time>2026-04-26T09:26:11.946Z</time></trkpt><trkpt lat="44.3791933" lon="7.5701356"><ele>536.0</ele><time>2026-04-26T09:26:12.946Z</time></trkpt><trkpt lat="44.3791176" lon="7.5703526"><ele>536.0</ele><time>2026-04-26T09:26:13.946Z</time></trkpt><trkpt lat="44.3790466" lon="7.5705668"><ele>536.0</ele><time>2026-04-26T09:26:14.945Z</time></trkpt><trkpt lat="44.3789764" lon="7.5707761"><ele>535.6666666666666</ele><time>2026-04-26T09:26:15.946Z</time></trkpt><trkpt lat="44.3789032" lon="7.5709781"><ele>535.3333333333334</ele><time>2026-04-26T09:26:16.946Z</time></trkpt><trkpt lat="44.378832" lon="7.5711753"><ele>535.0</ele><time>2026-04-26T09:26:17.946Z</time></trkpt><trkpt lat="44.3787618" lon="7.5713612"><ele>535.0</ele><time>2026-04-26T09:26:18.946Z</time></trkpt><trkpt lat="44.378701" lon="7.5715385"><ele>535.0</ele><time>2026-04-26T09:26:19.946Z</time></trkpt><trkpt lat="44.3786397" lon="7.5716912"><ele>535.0</ele><time>2026-04-26T09:26:20.946Z</time></trkpt><trkpt lat="44.3785905" lon="7.5718123"><ele>535.0</ele><time>2026-04-26T09:26:21.946Z</time></trkpt><trkpt lat="44.3785462" lon="7.5719101"><ele>535.0</ele><time>2026-04-26T09:26:22.946Z</time></trkpt><trkpt lat="44.378497" lon="7.5719829"><ele>535.0</ele><time>2026-04-26T09:26:23.946Z</time></trkpt><trkpt lat="44.3784328" lon="7.5720599"><ele>535.0</ele><time>2026-04-26T09:26:24.946Z</time></trkpt><trkpt lat="44.3783677" lon="7.5721612"><ele>535.0</ele><time>2026-04-26T09:26:25.946Z</time></trkpt><trkpt lat="44.3783015" lon="7.5722773"><ele>535.0</ele><time>2026-04-26T09:26:26.946Z</time></trkpt><trkpt lat="44.3782415" lon="7.572413"><ele>535.0</ele><time>2026-04-26T09:26:27.946Z</time></trkpt><trkpt lat="44.3781661" lon="7.57254"><ele>535.0</ele><time>2026-04-26T09:26:28.946Z</time></trkpt><trkpt lat="44.3780823" lon="7.5726737"><ele>535.0</ele><time>2026-04-26T09:26:29.946Z</time></trkpt><trkpt lat="44.3779926" lon="7.5728219"><ele>535.0</ele><time>2026-04-26T09:26:30.946Z</time></trkpt><trkpt lat="44.3779023" lon="7.5729703"><ele>535.0</ele><time>2026-04-26T09:26:31.945Z</time></trkpt><trkpt lat="44.3778054" lon="7.5731176"><ele>535.6666666666667</ele><time>2026-04-26T09:26:32.946Z</time></trkpt><trkpt lat="44.3777053" lon="7.5732659"><ele>536.3333333333334</ele><time>2026-04-26T09:26:33.946Z</time></trkpt><trkpt lat="44.3775891" lon="7.5734108"><ele>537.0</ele><time>2026-04-26T09:26:34.946Z</time></trkpt><trkpt lat="44.37747" lon="7.5735493"><ele>537.0</ele><time>2026-04-26T09:26:35.946Z</time></trkpt><trkpt lat="44.3773452" lon="7.5736819"><ele>537.0</ele><time>2026-04-26T09:26:36.945Z</time></trkpt><trkpt lat="44.3772158" lon="7.5738071"><ele>537.0</ele><time>2026-04-26T09:26:37.946Z</time></trkpt><trkpt lat="44.3770828" lon="7.5739287"><ele>535.6666666666666</ele><time>2026-04-26T09:26:38.946Z</time></trkpt><trkpt lat="44.3769484" lon="7.5740468"><ele>534.3333333333333</ele><time>2026-04-26T09:26:39.946Z</time></trkpt><trkpt lat="44.3768033" lon="7.5741643"><ele>533.0</ele><time>2026-04-26T09:26:40.946Z</time></trkpt><trkpt lat="44.3766488" lon="7.5742787"><ele>533.0</ele><time>2026-04-26T09:26:41.946Z</time></trkpt><trkpt lat="44.376489" lon="7.5744005"><ele>533.0</ele><time>2026-04-26T09:26:42.946Z</time></trkpt><trkpt lat="44.3763255" lon="7.5745231"><ele>533.0</ele><time>2026-04-26T09:26:43.946Z</time></trkpt><trkpt lat="44.3761624" lon="7.5746483"><ele>532.6666666666666</ele><time>2026-04-26T09:26:44.946Z</time></trkpt><trkpt lat="44.3759977" lon="7.5747739"><ele>532.3333333333334</ele><time>2026-04-26T09:26:45.946Z</time></trkpt><trkpt lat="44.3758343" lon="7.5749017"><ele>532.0</ele><time>2026-04-26T09:26:46.946Z</time></trkpt><trkpt lat="44.375673" lon="7.5750352"><ele>532.6666666666667</ele><time>2026-04-26T09:26:47.945Z</time></trkpt><trkpt lat="44.3755089" lon="7.5751612"><ele>533.3333333333334</ele><time>2026-04-26T09:26:48.946Z</time></trkpt><trkpt lat="44.3753486" lon="7.5752837"><ele>534.0</ele><time>2026-04-26T09:26:49.946Z</time></trkpt><trkpt lat="44.3751856" lon="7.5754044"><ele>534.0</ele><time>2026-04-26T09:26:50.946Z</time></trkpt><trkpt lat="44.3750226" lon="7.5755273"><ele>534.0</ele><time>2026-04-26T09:26:51.946Z</time></trkpt><trkpt lat="44.3748567" lon="7.5756574"><ele>534.0</ele><time>2026-04-26T09:26:52.945Z</time></trkpt><trkpt lat="44.3746863" lon="7.5757846"><ele>534.0</ele><time>2026-04-26T09:26:53.946Z</time></trkpt><trkpt lat="44.3745159" lon="7.5759191"><ele>534.0</ele><time>2026-04-26T09:26:54.946Z</time></trkpt><trkpt lat="44.3743395" lon="7.5760564"><ele>534.0</ele><time>2026-04-26T09:26:55.946Z</time></trkpt><trkpt lat="44.3741528" lon="7.5761943"><ele>533.6666666666666</ele><time>2026-04-26T09:26:56.946Z</time></trkpt><trkpt lat="44.3739705" lon="7.5763373"><ele>533.3333333333333</ele><time>2026-04-26T09:26:57.946Z</time></trkpt><trkpt lat="44.3737846" lon="7.5764773"><ele>533.0</ele><time>2026-04-26T09:26:58.946Z</time></trkpt><trkpt lat="44.3736079" lon="7.5766231"><ele>533.6666666666666</ele><time>2026-04-26T09:26:59.946Z</time></trkpt><trkpt lat="44.3734259" lon="7.5767695"><ele>534.3333333333334</ele><time>2026-04-26T09:27:00.946Z</time></trkpt><trkpt lat="44.3732392" lon="7.5769139"><ele>535.0</ele><time>2026-04-26T09:27:01.946Z</time></trkpt><trkpt lat="44.3730514" lon="7.5770611"><ele>534.0</ele><time>2026-04-26T09:27:02.945Z</time></trkpt><trkpt lat="44.3728659" lon="7.5772063"><ele>533.0</ele><time>2026-04-26T09:27:03.946Z</time></trkpt><trkpt lat="44.3726735" lon="7.5773533"><ele>532.0</ele><time>2026-04-26T09:27:04.945Z</time></trkpt><trkpt lat="44.3724812" lon="7.5774962"><ele>532.0</ele><time>2026-04-26T09:27:05.946Z</time></trkpt><trkpt lat="44.3722865" lon="7.5776306"><ele>532.0</ele><time>2026-04-26T09:27:06.946Z</time></trkpt><trkpt lat="44.3720845" lon="7.5777631"><ele>532.0</ele><time>2026-04-26T09:27:07.946Z</time></trkpt><trkpt lat="44.3718887" lon="7.5778903"><ele>533.0</ele><time>2026-04-26T09:27:08.945Z</time></trkpt><trkpt lat="44.3716971" lon="7.5780039"><ele>534.0</ele><time>2026-04-26T09:27:09.945Z</time></trkpt><trkpt lat="44.3715091" lon="7.5781096"><ele>535.0</ele><time>2026-04-26T09:27:10.946Z</time></trkpt><trkpt lat="44.3713214" lon="7.5782101"><ele>535.3333333333334</ele><time>2026-04-26T09:27:11.946Z</time></trkpt><trkpt lat="44.3711424" lon="7.5782974"><ele>535.6666666666666</ele><time>2026-04-26T09:27:12.946Z</time></trkpt><trkpt lat="44.3709609" lon="7.5783868"><ele>536.0</ele><time>2026-04-26T09:27:13.946Z</time></trkpt><trkpt lat="44.3707794" lon="7.5784741"><ele>536.0</ele><time>2026-04-26T09:27:14.945Z</time></trkpt><trkpt lat="44.3705986" lon="7.5785628"><ele>536.0</ele><time>2026-04-26T09:27:15.946Z</time></trkpt><trkpt lat="44.3704156" lon="7.5786516"><ele>536.0</ele><time>2026-04-26T09:27:16.945Z</time></trkpt><trkpt lat="44.3702337" lon="7.5787388"><ele>536.0</ele><time>2026-04-26T09:27:17.946Z</time></trkpt><trkpt lat="44.3700508" lon="7.5788251"><ele>536.0</ele><time>2026-04-26T09:27:18.946Z</time></trkpt><trkpt lat="44.3698708" lon="7.5789151"><ele>536.0</ele><time>2026-04-26T09:27:19.946Z</time></trkpt><trkpt lat="44.3696951" lon="7.5790007"><ele>536.0</ele><time>2026-04-26T09:27:20.946Z</time></trkpt><trkpt lat="44.369526" lon="7.5790826"><ele>536.0</ele><time>2026-04-26T09:27:21.946Z</time></trkpt><trkpt lat="44.3693653" lon="7.5791639"><ele>536.0</ele><time>2026-04-26T09:27:22.946Z</time></trkpt><trkpt lat="44.3692039" lon="7.5792531"><ele>536.0</ele><time>2026-04-26T09:27:23.946Z</time></trkpt><trkpt lat="44.3690453" lon="7.5793514"><ele>536.0</ele><time>2026-04-26T09:27:24.946Z</time></trkpt><trkpt lat="44.3688944" lon="7.5794745"><ele>536.0</ele><time>2026-04-26T09:27:25.946Z</time></trkpt><trkpt lat="44.3687456" lon="7.5796025"><ele>536.0</ele><time>2026-04-26T09:27:26.946Z</time></trkpt><trkpt lat="44.3686129" lon="7.5797332"><ele>536.0</ele><time>2026-04-26T09:27:27.946Z</time></trkpt><trkpt lat="44.3684812" lon="7.5798565"><ele>536.0</ele><time>2026-04-26T09:27:28.946Z</time></trkpt><trkpt lat="44.3683526" lon="7.5799809"><ele>536.0</ele><time>2026-04-26T09:27:29.945Z</time></trkpt><trkpt lat="44.368222" lon="7.5801066"><ele>536.0</ele><time>2026-04-26T09:27:30.946Z</time></trkpt><trkpt lat="44.3680922" lon="7.5802338"><ele>536.0</ele><time>2026-04-26T09:27:31.945Z</time></trkpt><trkpt lat="44.367959" lon="7.5803657"><ele>535.6666666666666</ele><time>2026-04-26T09:27:32.946Z</time></trkpt><trkpt lat="44.367821" lon="7.5805016"><ele>535.3333333333334</ele><time>2026-04-26T09:27:33.946Z</time></trkpt><trkpt lat="44.3676794" lon="7.5806372"><ele>535.0</ele><time>2026-04-26T09:27:34.946Z</time></trkpt><trkpt lat="44.3675382" lon="7.5807653"><ele>535.0</ele><time>2026-04-26T09:27:35.946Z</time></trkpt><trkpt lat="44.3674003" lon="7.5808889"><ele>535.0</ele><time>2026-04-26T09:27:36.946Z</time></trkpt><trkpt lat="44.3672643" lon="7.5810124"><ele>535.0</ele><time>2026-04-26T09:27:37.945Z</time></trkpt><trkpt lat="44.3671286" lon="7.5811285"><ele>535.0</ele><time>2026-04-26T09:27:38.946Z</time></trkpt><trkpt lat="44.3670035" lon="7.5812381"><ele>535.0</ele><time>2026-04-26T09:27:39.945Z</time></trkpt><trkpt lat="44.3668844" lon="7.5813481"><ele>535.0</ele><time>2026-04-26T09:27:40.946Z</time></trkpt><trkpt lat="44.3667597" lon="7.5814562"><ele>535.0</ele><time>2026-04-26T09:27:41.946Z</time></trkpt><trkpt lat="44.3666412" lon="7.5815739"><ele>535.0</ele><time>2026-04-26T09:27:42.945Z</time></trkpt><trkpt lat="44.3665146" lon="7.5816906"><ele>535.0</ele><time>2026-04-26T09:27:43.946Z</time></trkpt><trkpt lat="44.3663884" lon="7.5818119"><ele>535.0</ele><time>2026-04-26T09:27:44.945Z</time></trkpt><trkpt lat="44.3662621" lon="7.581934"><ele>534.3333333333334</ele><time>2026-04-26T09:27:45.946Z</time></trkpt><trkpt lat="44.3661333" lon="7.5820638"><ele>533.6666666666666</ele><time>2026-04-26T09:27:46.946Z</time></trkpt><trkpt lat="44.3660046" lon="7.5821921"><ele>533.0</ele><time>2026-04-26T09:27:47.946Z</time></trkpt><trkpt lat="44.3658757" lon="7.5823213"><ele>533.0</ele><time>2026-04-26T09:27:48.946Z</time></trkpt><trkpt lat="44.365747" lon="7.5824492"><ele>533.0</ele><time>2026-04-26T09:27:49.946Z</time></trkpt><trkpt lat="44.3656203" lon="7.5825815"><ele>533.0</ele><time>2026-04-26T09:27:50.946Z</time></trkpt><trkpt lat="44.365488" lon="7.5827126"><ele>533.6666666666666</ele><time>2026-04-26T09:27:51.946Z</time></trkpt><trkpt lat="44.3653538" lon="7.5828489"><ele>534.3333333333334</ele><time>2026-04-26T09:27:52.946Z</time></trkpt><trkpt lat="44.3652254" lon="7.5829936"><ele>535.0</ele><time>2026-04-26T09:27:53.946Z</time></trkpt><trkpt lat="44.3650904" lon="7.5831318"><ele>535.0</ele><time>2026-04-26T09:27:54.946Z</time></trkpt><trkpt lat="44.3649494" lon="7.5832698"><ele>535.0</ele><time>2026-04-26T09:27:55.946Z</time></trkpt><trkpt lat="44.3648043" lon="7.5834081"><ele>535.0</ele><time>2026-04-26T09:27:56.946Z</time></trkpt><trkpt lat="44.364656" lon="7.5835456"><ele>534.0</ele><time>2026-04-26T09:27:57.946Z</time></trkpt><trkpt lat="44.3645021" lon="7.5836836"><ele>533.0</ele><time>2026-04-26T09:27:58.946Z</time></trkpt><trkpt lat="44.3643485" lon="7.5838179"><ele>532.0</ele><time>2026-04-26T09:27:59.945Z</time></trkpt><trkpt lat="44.3641921" lon="7.583955"><ele>532.0</ele><time>2026-04-26T09:28:00.946Z</time></trkpt><trkpt lat="44.3640383" lon="7.5840887"><ele>532.0</ele><time>2026-04-26T09:28:01.946Z</time></trkpt><trkpt lat="44.3638828" lon="7.5842252"><ele>532.0</ele><time>2026-04-26T09:28:02.946Z</time></trkpt><trkpt lat="44.3637291" lon="7.5843624"><ele>532.0</ele><time>2026-04-26T09:28:03.946Z</time></trkpt><trkpt lat="44.3635742" lon="7.5844985"><ele>532.0</ele><time>2026-04-26T09:28:04.946Z</time></trkpt><trkpt lat="44.3634172" lon="7.5846336"><ele>532.0</ele><time>2026-04-26T09:28:05.945Z</time></trkpt><trkpt lat="44.3632615" lon="7.5847668"><ele>532.0</ele><time>2026-04-26T09:28:06.946Z</time></trkpt><trkpt lat="44.3631033" lon="7.5849014"><ele>532.0</ele><time>2026-04-26T09:28:07.946Z</time></trkpt><trkpt lat="44.3629445" lon="7.5850377"><ele>532.0</ele><time>2026-04-26T09:28:08.946Z</time></trkpt><trkpt lat="44.3627742" lon="7.5851748"><ele>532.6666666666667</ele><time>2026-04-26T09:28:09.946Z</time></trkpt><trkpt lat="44.3626139" lon="7.5853119"><ele>533.3333333333334</ele><time>2026-04-26T09:28:10.946Z</time></trkpt><trkpt lat="44.3624568" lon="7.5854487"><ele>534.0</ele><time>2026-04-26T09:28:11.946Z</time></trkpt><trkpt lat="44.3623077" lon="7.5855843"><ele>534.6666666666666</ele><time>2026-04-26T09:28:12.946Z</time></trkpt><trkpt lat="44.3621582" lon="7.5857141"><ele>535.3333333333333</ele><time>2026-04-26T09:28:13.945Z</time></trkpt><trkpt lat="44.3620127" lon="7.5858423"><ele>536.0</ele><time>2026-04-26T09:28:14.946Z</time></trkpt><trkpt lat="44.3618654" lon="7.5859695"><ele>536.0</ele><time>2026-04-26T09:28:15.946Z</time></trkpt><trkpt lat="44.3617204" lon="7.5861014"><ele>536.0</ele><time>2026-04-26T09:28:16.946Z</time></trkpt><trkpt lat="44.3615835" lon="7.5862453"><ele>536.0</ele><time>2026-04-26T09:28:17.946Z</time></trkpt><trkpt lat="44.3614536" lon="7.5864016"><ele>535.3333333333333</ele><time>2026-04-26T09:28:18.946Z</time></trkpt><trkpt lat="44.3613261" lon="7.5865632"><ele>534.6666666666666</ele><time>2026-04-26T09:28:19.946Z</time></trkpt><trkpt lat="44.3612056" lon="7.5867319"><ele>534.0</ele><time>2026-04-26T09:28:20.946Z</time></trkpt><trkpt lat="44.3610902" lon="7.5868997"><ele>534.0</ele><time>2026-04-26T09:28:21.946Z</time></trkpt><trkpt lat="44.3609812" lon="7.5870703"><ele>534.0</ele><time>2026-04-26T09:28:22.946Z</time></trkpt><trkpt lat="44.3608674" lon="7.5872425"><ele>534.0</ele><time>2026-04-26T09:28:23.946Z</time></trkpt><trkpt lat="44.3607538" lon="7.5874132"><ele>534.0</ele><time>2026-04-26T09:28:24.946Z</time></trkpt><trkpt lat="44.360639" lon="7.5875799"><ele>534.0</ele><time>2026-04-26T09:28:25.946Z</time></trkpt><trkpt lat="44.3605127" lon="7.5877466"><ele>534.0</ele><time>2026-04-26T09:28:26.945Z</time></trkpt><trkpt lat="44.3603836" lon="7.5879158"><ele>534.0</ele><time>2026-04-26T09:28:27.946Z</time></trkpt><trkpt lat="44.3602538" lon="7.5880914"><ele>534.0</ele><time>2026-04-26T09:28:28.946Z</time></trkpt><trkpt lat="44.3601172" lon="7.5882589"><ele>534.0</ele><time>2026-04-26T09:28:29.946Z</time></trkpt><trkpt lat="44.3599755" lon="7.5884203"><ele>534.0</ele><time>2026-04-26T09:28:30.945Z</time></trkpt><trkpt lat="44.3598259" lon="7.5885725"><ele>534.0</ele><time>2026-04-26T09:28:31.945Z</time></trkpt><trkpt lat="44.3596723" lon="7.5887116"><ele>534.0</ele><time>2026-04-26T09:28:32.945Z</time></trkpt><trkpt lat="44.3595163" lon="7.5888373"><ele>534.3333333333334</ele><time>2026-04-26T09:28:33.946Z</time></trkpt><trkpt lat="44.3593588" lon="7.5889594"><ele>534.6666666666667</ele><time>2026-04-26T09:28:34.946Z</time></trkpt><trkpt lat="44.3592056" lon="7.5890699"><ele>535.0</ele><time>2026-04-26T09:28:35.946Z</time></trkpt><trkpt lat="44.3590497" lon="7.5891752"><ele>535.0</ele><time>2026-04-26T09:28:36.946Z</time></trkpt><trkpt lat="44.3588952" lon="7.5892719"><ele>535.0</ele><time>2026-04-26T09:28:37.946Z</time></trkpt><trkpt lat="44.3587419" lon="7.5893683"><ele>535.0</ele><time>2026-04-26T09:28:38.946Z</time></trkpt><trkpt lat="44.3585943" lon="7.589462"><ele>534.3333333333334</ele><time>2026-04-26T09:28:39.946Z</time></trkpt><trkpt lat="44.3584472" lon="7.5895534"><ele>533.6666666666666</ele><time>2026-04-26T09:28:40.946Z</time></trkpt><trkpt lat="44.3582942" lon="7.589648"><ele>533.0</ele><time>2026-04-26T09:28:41.946Z</time></trkpt><trkpt lat="44.358137" lon="7.5897459"><ele>533.3333333333333</ele><time>2026-04-26T09:28:42.946Z</time></trkpt><trkpt lat="44.3579777" lon="7.5898482"><ele>533.6666666666666</ele><time>2026-04-26T09:28:43.945Z</time></trkpt><trkpt lat="44.3578137" lon="7.5899548"><ele>534.0</ele><time>2026-04-26T09:28:44.945Z</time></trkpt><trkpt lat="44.3576495" lon="7.5900551"><ele>534.0</ele><time>2026-04-26T09:28:45.946Z</time></trkpt><trkpt lat="44.3574873" lon="7.5901576"><ele>534.0</ele><time>2026-04-26T09:28:46.946Z</time></trkpt><trkpt lat="44.3573267" lon="7.5902631"><ele>534.0</ele><time>2026-04-26T09:28:47.946Z</time></trkpt><trkpt lat="44.3571659" lon="7.5903624"><ele>533.3333333333334</ele><time>2026-04-26T09:28:48.946Z</time></trkpt><trkpt lat="44.3570069" lon="7.590457"><ele>532.6666666666667</ele><time>2026-04-26T09:28:49.946Z</time></trkpt><trkpt lat="44.3568458" lon="7.5905487"><ele>532.0</ele><time>2026-04-26T09:28:50.945Z</time></trkpt><trkpt lat="44.3566851" lon="7.5906297"><ele>532.0</ele><time>2026-04-26T09:28:51.946Z</time></trkpt><trkpt lat="44.3565203" lon="7.5907163"><ele>532.0</ele><time>2026-04-26T09:28:52.946Z</time></trkpt><trkpt lat="44.35635" lon="7.5907941"><ele>532.0</ele><time>2026-04-26T09:28:53.946Z</time></trkpt><trkpt lat="44.3561799" lon="7.5908635"><ele>531.6666666666667</ele><time>2026-04-26T09:28:54.946Z</time></trkpt><trkpt lat="44.3560099" lon="7.5909265"><ele>531.3333333333334</ele><time>2026-04-26T09:28:55.945Z</time></trkpt><trkpt lat="44.3558365" lon="7.5909752"><ele>531.0</ele><time>2026-04-26T09:28:56.945Z</time></trkpt><trkpt lat="44.3556627" lon="7.591017"><ele>531.6666666666666</ele><time>2026-04-26T09:28:57.946Z</time></trkpt><trkpt lat="44.355487" lon="7.5910555"><ele>532.3333333333333</ele><time>2026-04-26T09:28:58.946Z</time></trkpt><trkpt lat="44.3553131" lon="7.5910972"><ele>533.0</ele><time>2026-04-26T09:28:59.946Z</time></trkpt><trkpt lat="44.3551407" lon="7.5911349"><ele>533.0</ele><time>2026-04-26T09:29:00.946Z</time></trkpt><trkpt lat="44.3549681" lon="7.5911685"><ele>533.0</ele><time>2026-04-26T09:29:01.945Z</time></trkpt><trkpt lat="44.3547918" lon="7.5912036"><ele>533.0</ele><time>2026-04-26T09:29:02.946Z</time></trkpt><trkpt lat="44.3546172" lon="7.5912426"><ele>533.3333333333333</ele><time>2026-04-26T09:29:03.946Z</time></trkpt><trkpt lat="44.3544432" lon="7.5912793"><ele>533.6666666666666</ele><time>2026-04-26T09:29:04.946Z</time></trkpt><trkpt lat="44.35428" lon="7.5913226"><ele>534.0</ele><time>2026-04-26T09:29:05.946Z</time></trkpt><trkpt lat="44.354118" lon="7.5913668"><ele>534.0</ele><time>2026-04-26T09:29:06.946Z</time></trkpt><trkpt lat="44.3539616" lon="7.5914154"><ele>534.0</ele><time>2026-04-26T09:29:07.945Z</time></trkpt><trkpt lat="44.3538188" lon="7.5914612"><ele>534.0</ele><time>2026-04-26T09:29:08.946Z</time></trkpt><trkpt lat="44.3536772" lon="7.5915124"><ele>534.5</ele><time>2026-04-26T09:29:09.946Z</time></trkpt><trkpt lat="44.353542" lon="7.5915673"><ele>535.0</ele><time>2026-04-26T09:29:10.945Z</time></trkpt><trkpt lat="44.3534102" lon="7.5916251"><ele>535.5</ele><time>2026-04-26T09:29:11.945Z</time></trkpt><trkpt lat="44.3532751" lon="7.5916819"><ele>536.0</ele><time>2026-04-26T09:29:12.945Z</time></trkpt><trkpt lat="44.3531419" lon="7.5917468"><ele>535.75</ele><time>2026-04-26T09:29:13.946Z</time></trkpt><trkpt lat="44.3530116" lon="7.5918002"><ele>535.5</ele><time>2026-04-26T09:29:14.946Z</time></trkpt><trkpt lat="44.3528887" lon="7.5918636"><ele>535.25</ele><time>2026-04-26T09:29:15.945Z</time></trkpt><trkpt lat="44.352766" lon="7.591917"><ele>535.0</ele><time>2026-04-26T09:29:16.946Z</time></trkpt><trkpt lat="44.3526448" lon="7.5919806"><ele>535.0</ele><time>2026-04-26T09:29:17.946Z</time></trkpt><trkpt lat="44.3525223" lon="7.5920348"><ele>535.0</ele><time>2026-04-26T09:29:18.946Z</time></trkpt><trkpt lat="44.3524058" lon="7.5920875"><ele>535.0</ele><time>2026-04-26T09:29:19.946Z</time></trkpt><trkpt lat="44.3522937" lon="7.5921324"><ele>535.0</ele><time>2026-04-26T09:29:20.946Z</time></trkpt><trkpt lat="44.3521879" lon="7.5921814"><ele>534.8</ele><time>2026-04-26T09:29:21.946Z</time></trkpt><trkpt lat="44.3520879" lon="7.5922325"><ele>534.6</ele><time>2026-04-26T09:29:22.946Z</time></trkpt><trkpt lat="44.3519805" lon="7.592285"><ele>534.4</ele><time>2026-04-26T09:29:23.946Z</time></trkpt><trkpt lat="44.3518742" lon="7.5923323"><ele>534.2</ele><time>2026-04-26T09:29:24.946Z</time></trkpt><trkpt lat="44.3517643" lon="7.5923826"><ele>534.0</ele><time>2026-04-26T09:29:25.946Z</time></trkpt><trkpt lat="44.351651" lon="7.592435"><ele>534.0</ele><time>2026-04-26T09:29:26.945Z</time></trkpt><trkpt lat="44.3515397" lon="7.5924883"><ele>534.0</ele><time>2026-04-26T09:29:27.946Z</time></trkpt><trkpt lat="44.3514231" lon="7.5925415"><ele>534.0</ele><time>2026-04-26T09:29:28.946Z</time></trkpt><trkpt lat="44.3513045" lon="7.5925883"><ele>534.0</ele><time>2026-04-26T09:29:29.946Z</time></trkpt><trkpt lat="44.3511842" lon="7.5926435"><ele>534.5</ele><time>2026-04-26T09:29:30.946Z</time></trkpt><trkpt lat="44.351059" lon="7.5926956"><ele>535.0</ele><time>2026-04-26T09:29:31.945Z</time></trkpt><trkpt lat="44.3509375" lon="7.5927381"><ele>535.5</ele><time>2026-04-26T09:29:32.945Z</time></trkpt><trkpt lat="44.3508171" lon="7.5927729"><ele>536.0</ele><time>2026-04-26T09:29:33.945Z</time></trkpt><trkpt lat="44.3506975" lon="7.5928034"><ele>536.0</ele><time>2026-04-26T09:29:34.946Z</time></trkpt><trkpt lat="44.3505772" lon="7.5928315"><ele>536.0</ele><time>2026-04-26T09:29:35.946Z</time></trkpt><trkpt lat="44.3504528" lon="7.5928576"><ele>536.0</ele><time>2026-04-26T09:29:36.945Z</time></trkpt><trkpt lat="44.3503289" lon="7.5928776"><ele>536.0</ele><time>2026-04-26T09:29:37.946Z</time></trkpt><trkpt lat="44.3502172" lon="7.5928898"><ele>536.25</ele><time>2026-04-26T09:29:38.946Z</time></trkpt><trkpt lat="44.3500963" lon="7.5929058"><ele>536.5</ele><time>2026-04-26T09:29:39.946Z</time></trkpt><trkpt lat="44.3499796" lon="7.5929223"><ele>536.75</ele><time>2026-04-26T09:29:40.945Z</time></trkpt><trkpt lat="44.3498587" lon="7.5929409"><ele>537.0</ele><time>2026-04-26T09:29:41.946Z</time></trkpt><trkpt lat="44.3497387" lon="7.592954"><ele>537.0</ele><time>2026-04-26T09:29:42.946Z</time></trkpt><trkpt lat="44.3496195" lon="7.5929634"><ele>537.0</ele><time>2026-04-26T09:29:43.945Z</time></trkpt><trkpt lat="44.3494985" lon="7.5929795"><ele>537.0</ele><time>2026-04-26T09:29:44.946Z</time></trkpt><trkpt lat="44.3493832" lon="7.5930011"><ele>537.0</ele><time>2026-04-26T09:29:45.946Z</time></trkpt><trkpt lat="44.3492637" lon="7.5930203"><ele>537.0</ele><time>2026-04-26T09:29:46.946Z</time></trkpt><trkpt lat="44.3491456" lon="7.5930404"><ele>537.0</ele><time>2026-04-26T09:29:47.945Z</time></trkpt><trkpt lat="44.3490309" lon="7.5930679"><ele>537.0</ele><time>2026-04-26T09:29:48.946Z</time></trkpt><trkpt lat="44.3489195" lon="7.5930914"><ele>537.0</ele><time>2026-04-26T09:29:49.946Z</time></trkpt><trkpt lat="44.3488059" lon="7.5931136"><ele>537.25</ele><time>2026-04-26T09:29:50.946Z</time></trkpt><trkpt lat="44.3486924" lon="7.5931407"><ele>537.5</ele><time>2026-04-26T09:29:51.946Z</time></trkpt><trkpt lat="44.3485764" lon="7.5931692"><ele>537.75</ele><time>2026-04-26T09:29:52.946Z</time></trkpt><trkpt lat="44.3484626" lon="7.5931979"><ele>538.0</ele><time>2026-04-26T09:29:53.945Z</time></trkpt><trkpt lat="44.3483489" lon="7.5932315"><ele>538.0</ele><time>2026-04-26T09:29:54.946Z</time></trkpt><trkpt lat="44.3482308" lon="7.5932611"><ele>538.0</ele><time>2026-04-26T09:29:55.946Z</time></trkpt><trkpt lat="44.3481142" lon="7.5933014"><ele>538.0</ele><time>2026-04-26T09:29:56.945Z</time></trkpt><trkpt lat="44.347995" lon="7.5933427"><ele>538.0</ele><time>2026-04-26T09:29:57.946Z</time></trkpt><trkpt lat="44.3478753" lon="7.5933817"><ele>538.25</ele><time>2026-04-26T09:29:58.946Z</time></trkpt><trkpt lat="44.3477511" lon="7.593419"><ele>538.5</ele><time>2026-04-26T09:29:59.946Z</time></trkpt><trkpt lat="44.3476294" lon="7.5934566"><ele>538.75</ele><time>2026-04-26T09:30:00.946Z</time></trkpt><trkpt lat="44.3475097" lon="7.5935007"><ele>539.0</ele><time>2026-04-26T09:30:01.945Z</time></trkpt><trkpt lat="44.3473944" lon="7.5935459"><ele>539.0</ele><time>2026-04-26T09:30:02.946Z</time></trkpt><trkpt lat="44.3472923" lon="7.5936012"><ele>539.0</ele><time>2026-04-26T09:30:03.946Z</time></trkpt><trkpt lat="44.3471986" lon="7.5936604"><ele>539.0</ele><time>2026-04-26T09:30:04.945Z</time></trkpt><trkpt lat="44.3471136" lon="7.5937246"><ele>539.0</ele><time>2026-04-26T09:30:05.946Z</time></trkpt><trkpt lat="44.3470318" lon="7.5937849"><ele>539.0</ele><time>2026-04-26T09:30:06.946Z</time></trkpt><trkpt lat="44.3469555" lon="7.5938438"><ele>539.5</ele><time>2026-04-26T09:30:07.946Z</time></trkpt><trkpt lat="44.3468809" lon="7.5939172"><ele>540.0</ele><time>2026-04-26T09:30:08.945Z</time></trkpt><trkpt lat="44.3468071" lon="7.5939815"><ele>540.5</ele><time>2026-04-26T09:30:09.946Z</time></trkpt><trkpt lat="44.3467382" lon="7.5940474"><ele>541.0</ele><time>2026-04-26T09:30:10.945Z</time></trkpt><trkpt lat="44.3466755" lon="7.5940937"><ele>541.5</ele><time>2026-04-26T09:30:11.946Z</time></trkpt><trkpt lat="44.3465847" lon="7.5941704"><ele>542.0</ele><time>2026-04-26T09:30:13.946Z</time></trkpt><trkpt lat="44.3465212" lon="7.5942308"><ele>542.0</ele><time>2026-04-26T09:30:15.946Z</time></trkpt><trkpt lat="44.3464314" lon="7.5943076"><ele>542.0</ele><time>2026-04-26T09:30:17.945Z</time></trkpt><trkpt lat="44.3463802" lon="7.5943606"><ele>542.0</ele><time>2026-04-26T09:30:18.946Z</time></trkpt><trkpt lat="44.3463175" lon="7.5944292"><ele>542.0</ele><time>2026-04-26T09:30:19.946Z</time></trkpt><trkpt lat="44.3462329" lon="7.5945126"><ele>542.0</ele><time>2026-04-26T09:30:20.946Z</time></trkpt><trkpt lat="44.3461362" lon="7.5946047"><ele>542.0</ele><time>2026-04-26T09:30:21.946Z</time></trkpt><trkpt lat="44.3460312" lon="7.594697"><ele>542.0</ele><time>2026-04-26T09:30:22.946Z</time></trkpt><trkpt lat="44.3459145" lon="7.5947911"><ele>542.0</ele><time>2026-04-26T09:30:23.946Z</time></trkpt><trkpt lat="44.3457915" lon="7.5949013"><ele>542.0</ele><time>2026-04-26T09:30:24.945Z</time></trkpt><trkpt lat="44.3456608" lon="7.5950126"><ele>542.0</ele><time>2026-04-26T09:30:25.946Z</time></trkpt><trkpt lat="44.3455289" lon="7.5951253"><ele>542.0</ele><time>2026-04-26T09:30:26.946Z</time></trkpt><trkpt lat="44.3453886" lon="7.5952306"><ele>542.0</ele><time>2026-04-26T09:30:27.946Z</time></trkpt><trkpt lat="44.3452417" lon="7.5953435"><ele>542.0</ele><time>2026-04-26T09:30:28.946Z</time></trkpt><trkpt lat="44.3450996" lon="7.5954591"><ele>542.0</ele><time>2026-04-26T09:30:29.946Z</time></trkpt><trkpt lat="44.3449529" lon="7.5955805"><ele>542.0</ele><time>2026-04-26T09:30:30.946Z</time></trkpt><trkpt lat="44.3448038" lon="7.595712"><ele>542.3333333333333</ele><time>2026-04-26T09:30:31.946Z</time></trkpt><trkpt lat="44.3446506" lon="7.5958427"><ele>542.6666666666666</ele><time>2026-04-26T09:30:32.945Z</time></trkpt><trkpt lat="44.3444967" lon="7.5959742"><ele>543.0</ele><time>2026-04-26T09:30:33.946Z</time></trkpt><trkpt lat="44.3443413" lon="7.5961103"><ele>542.6666666666666</ele><time>2026-04-26T09:30:34.946Z</time></trkpt><trkpt lat="44.3441994" lon="7.5962509"><ele>542.3333333333333</ele><time>2026-04-26T09:30:35.946Z</time></trkpt><trkpt lat="44.3440499" lon="7.5963937"><ele>542.0</ele><time>2026-04-26T09:30:36.946Z</time></trkpt><trkpt lat="44.3439022" lon="7.5965364"><ele>542.3333333333333</ele><time>2026-04-26T09:30:37.945Z</time></trkpt><trkpt lat="44.3437528" lon="7.596679"><ele>542.6666666666666</ele><time>2026-04-26T09:30:38.946Z</time></trkpt><trkpt lat="44.3436004" lon="7.5968279"><ele>543.0</ele><time>2026-04-26T09:30:39.946Z</time></trkpt><trkpt lat="44.3434502" lon="7.5969753"><ele>543.0</ele><time>2026-04-26T09:30:40.946Z</time></trkpt><trkpt lat="44.3432969" lon="7.5971247"><ele>543.0</ele><time>2026-04-26T09:30:41.946Z</time></trkpt><trkpt lat="44.3431388" lon="7.5972685"><ele>543.0</ele><time>2026-04-26T09:30:42.946Z</time></trkpt><trkpt lat="44.3429851" lon="7.5974154"><ele>543.0</ele><time>2026-04-26T09:30:43.946Z</time></trkpt><trkpt lat="44.3428309" lon="7.5975613"><ele>543.0</ele><time>2026-04-26T09:30:44.945Z</time></trkpt><trkpt lat="44.3426767" lon="7.5977042"><ele>543.0</ele><time>2026-04-26T09:30:45.946Z</time></trkpt><trkpt lat="44.3425325" lon="7.597851"><ele>543.0</ele><time>2026-04-26T09:30:46.946Z</time></trkpt><trkpt lat="44.3423869" lon="7.5979936"><ele>543.0</ele><time>2026-04-26T09:30:47.946Z</time></trkpt><trkpt lat="44.3422427" lon="7.5981339"><ele>543.0</ele><time>2026-04-26T09:30:48.945Z</time></trkpt><trkpt lat="44.342096" lon="7.5982705"><ele>543.3333333333334</ele><time>2026-04-26T09:30:49.946Z</time></trkpt><trkpt lat="44.341952" lon="7.5984037"><ele>543.6666666666667</ele><time>2026-04-26T09:30:50.946Z</time></trkpt><trkpt lat="44.3418067" lon="7.5985416"><ele>544.0</ele><time>2026-04-26T09:30:51.946Z</time></trkpt><trkpt lat="44.3416663" lon="7.5986799"><ele>544.0</ele><time>2026-04-26T09:30:52.946Z</time></trkpt><trkpt lat="44.3415203" lon="7.5988207"><ele>544.0</ele><time>2026-04-26T09:30:53.946Z</time></trkpt><trkpt lat="44.3413745" lon="7.5989612"><ele>544.0</ele><time>2026-04-26T09:30:54.946Z</time></trkpt><trkpt lat="44.3412261" lon="7.5991027"><ele>544.3333333333334</ele><time>2026-04-26T09:30:55.946Z</time></trkpt><trkpt lat="44.3410751" lon="7.599243"><ele>544.6666666666666</ele><time>2026-04-26T09:30:56.946Z</time></trkpt><trkpt lat="44.3409245" lon="7.5993821"><ele>545.0</ele><time>2026-04-26T09:30:57.946Z</time></trkpt><trkpt lat="44.3407798" lon="7.5995215"><ele>545.0</ele><time>2026-04-26T09:30:58.945Z</time></trkpt><trkpt lat="44.3406373" lon="7.5996644"><ele>545.0</ele><time>2026-04-26T09:30:59.946Z</time></trkpt><trkpt lat="44.3405002" lon="7.5998087"><ele>545.0</ele><time>2026-04-26T09:31:00.946Z</time></trkpt><trkpt lat="44.3403629" lon="7.5999564"><ele>545.0</ele><time>2026-04-26T09:31:01.945Z</time></trkpt><trkpt lat="44.340234" lon="7.600105"><ele>545.0</ele><time>2026-04-26T09:31:02.946Z</time></trkpt><trkpt lat="44.3401077" lon="7.6002509"><ele>545.0</ele><time>2026-04-26T09:31:03.946Z</time></trkpt><trkpt lat="44.3399804" lon="7.6003957"><ele>545.0</ele><time>2026-04-26T09:31:04.946Z</time></trkpt><trkpt lat="44.3398556" lon="7.600545"><ele>545.0</ele><time>2026-04-26T09:31:05.946Z</time></trkpt><trkpt lat="44.3397306" lon="7.6006994"><ele>545.0</ele><time>2026-04-26T09:31:06.945Z</time></trkpt><trkpt lat="44.3396104" lon="7.600851"><ele>545.3333333333333</ele><time>2026-04-26T09:31:07.946Z</time></trkpt><trkpt lat="44.3394862" lon="7.6010069"><ele>545.6666666666666</ele><time>2026-04-26T09:31:08.946Z</time></trkpt><trkpt lat="44.3393643" lon="7.6011609"><ele>546.0</ele><time>2026-04-26T09:31:09.946Z</time></trkpt><trkpt lat="44.3392403" lon="7.6013132"><ele>546.0</ele><time>2026-04-26T09:31:10.946Z</time></trkpt><trkpt lat="44.3391165" lon="7.6014669"><ele>546.0</ele><time>2026-04-26T09:31:11.946Z</time></trkpt><trkpt lat="44.3389978" lon="7.6016194"><ele>546.0</ele><time>2026-04-26T09:31:12.945Z</time></trkpt><trkpt lat="44.3388776" lon="7.6017716"><ele>546.0</ele><time>2026-04-26T09:31:13.946Z</time></trkpt><trkpt lat="44.3387625" lon="7.6019245"><ele>546.0</ele><time>2026-04-26T09:31:14.946Z</time></trkpt><trkpt lat="44.3386588" lon="7.6020718"><ele>546.0</ele><time>2026-04-26T09:31:15.945Z</time></trkpt><trkpt lat="44.338547" lon="7.6022131"><ele>546.0</ele><time>2026-04-26T09:31:16.946Z</time></trkpt><trkpt lat="44.3384384" lon="7.6023551"><ele>546.0</ele><time>2026-04-26T09:31:17.945Z</time></trkpt><trkpt lat="44.3383243" lon="7.6024894"><ele>546.0</ele><time>2026-04-26T09:31:18.946Z</time></trkpt><trkpt lat="44.3382188" lon="7.6026296"><ele>546.0</ele><time>2026-04-26T09:31:19.945Z</time></trkpt><trkpt lat="44.3381068" lon="7.6027667"><ele>546.0</ele><time>2026-04-26T09:31:20.946Z</time></trkpt><trkpt lat="44.3379949" lon="7.6029093"><ele>546.0</ele><time>2026-04-26T09:31:21.946Z</time></trkpt><trkpt lat="44.337883" lon="7.6030522"><ele>546.0</ele><time>2026-04-26T09:31:22.945Z</time></trkpt><trkpt lat="44.3377711" lon="7.6031981"><ele>546.0</ele><time>2026-04-26T09:31:23.946Z</time></trkpt><trkpt lat="44.3376578" lon="7.6033429"><ele>546.0</ele><time>2026-04-26T09:31:24.946Z</time></trkpt><trkpt lat="44.3375445" lon="7.6034851"><ele>546.0</ele><time>2026-04-26T09:31:25.946Z</time></trkpt><trkpt lat="44.3374277" lon="7.603637"><ele>545.6666666666666</ele><time>2026-04-26T09:31:26.946Z</time></trkpt><trkpt lat="44.3373046" lon="7.6037898"><ele>545.3333333333333</ele><time>2026-04-26T09:31:27.946Z</time></trkpt><trkpt lat="44.3371806" lon="7.6039408"><ele>545.0</ele><time>2026-04-26T09:31:28.946Z</time></trkpt><trkpt lat="44.3370553" lon="7.6040865"><ele>545.0</ele><time>2026-04-26T09:31:29.946Z</time></trkpt><trkpt lat="44.336922" lon="7.6042254"><ele>545.0</ele><time>2026-04-26T09:31:30.946Z</time></trkpt><trkpt lat="44.336798" lon="7.6043603"><ele>545.0</ele><time>2026-04-26T09:31:31.946Z</time></trkpt><trkpt lat="44.3366722" lon="7.6044903"><ele>545.0</ele><time>2026-04-26T09:31:32.946Z</time></trkpt><trkpt lat="44.3365499" lon="7.6046208"><ele>545.0</ele><time>2026-04-26T09:31:33.945Z</time></trkpt><trkpt lat="44.3364277" lon="7.6047428"><ele>545.0</ele><time>2026-04-26T09:31:34.946Z</time></trkpt><trkpt lat="44.3363092" lon="7.6048616"><ele>545.25</ele><time>2026-04-26T09:31:35.945Z</time></trkpt><trkpt lat="44.3361923" lon="7.6049748"><ele>545.5</ele><time>2026-04-26T09:31:36.946Z</time></trkpt><trkpt lat="44.3360814" lon="7.6050731"><ele>545.75</ele><time>2026-04-26T09:31:37.945Z</time></trkpt><trkpt lat="44.335976" lon="7.6051589"><ele>546.0</ele><time>2026-04-26T09:31:38.946Z</time></trkpt><trkpt lat="44.3358748" lon="7.605234"><ele>546.0</ele><time>2026-04-26T09:31:39.946Z</time></trkpt><trkpt lat="44.3357794" lon="7.6052941"><ele>546.0</ele><time>2026-04-26T09:31:40.946Z</time></trkpt><trkpt lat="44.3356967" lon="7.605341"><ele>546.0</ele><time>2026-04-26T09:31:41.946Z</time></trkpt><trkpt lat="44.3356318" lon="7.6053796"><ele>546.0</ele><time>2026-04-26T09:31:42.946Z</time></trkpt><trkpt lat="44.3355315" lon="7.60541"><ele>546.0</ele><time>2026-04-26T09:31:44.945Z</time></trkpt><trkpt lat="44.3354466" lon="7.6054218"><ele>546.5</ele><time>2026-04-26T09:31:46.946Z</time></trkpt><trkpt lat="44.3353344" lon="7.6053972"><ele>547.0</ele><time>2026-04-26T09:31:48.946Z</time></trkpt><trkpt lat="44.3352687" lon="7.6053829"><ele>547.5</ele><time>2026-04-26T09:31:49.946Z</time></trkpt><trkpt lat="44.3352069" lon="7.6054011"><ele>548.0</ele><time>2026-04-26T09:31:50.945Z</time></trkpt><trkpt lat="44.3351275" lon="7.6055176"><ele>548.5</ele><time>2026-04-26T09:31:52.946Z</time></trkpt><trkpt lat="44.3351192" lon="7.6056132"><ele>549.0</ele><time>2026-04-26T09:31:53.946Z</time></trkpt><trkpt lat="44.335143" lon="7.605714"><ele>549.0</ele><time>2026-04-26T09:31:54.946Z</time></trkpt><trkpt lat="44.3351927" lon="7.6058227"><ele>549.0</ele><time>2026-04-26T09:31:55.946Z</time></trkpt><trkpt lat="44.3352608" lon="7.6059494"><ele>549.0</ele><time>2026-04-26T09:31:56.946Z</time></trkpt><trkpt lat="44.335316" lon="7.6061012"><ele>549.0</ele><time>2026-04-26T09:31:57.945Z</time></trkpt><trkpt lat="44.3353569" lon="7.6062766"><ele>548.0</ele><time>2026-04-26T09:31:58.946Z</time></trkpt><trkpt lat="44.3353912" lon="7.6064731"><ele>547.0</ele><time>2026-04-26T09:31:59.946Z</time></trkpt><trkpt lat="44.3354257" lon="7.6066857"><ele>546.0</ele><time>2026-04-26T09:32:00.946Z</time></trkpt><trkpt lat="44.3354521" lon="7.6069051"><ele>545.3333333333334</ele><time>2026-04-26T09:32:01.945Z</time></trkpt><trkpt lat="44.3354809" lon="7.6071317"><ele>544.6666666666667</ele><time>2026-04-26T09:32:02.945Z</time></trkpt><trkpt lat="44.3355057" lon="7.607367"><ele>544.0</ele><time>2026-04-26T09:32:03.945Z</time></trkpt><trkpt lat="44.3355338" lon="7.6076144"><ele>542.3333333333334</ele><time>2026-04-26T09:32:04.945Z</time></trkpt><trkpt lat="44.3355605" lon="7.6078638"><ele>540.6666666666666</ele><time>2026-04-26T09:32:05.946Z</time></trkpt><trkpt lat="44.3355876" lon="7.6081233"><ele>539.0</ele><time>2026-04-26T09:32:06.946Z</time></trkpt><trkpt lat="44.3356142" lon="7.6083863"><ele>539.0</ele><time>2026-04-26T09:32:07.946Z</time></trkpt><trkpt lat="44.3356404" lon="7.6086463"><ele>539.0</ele><time>2026-04-26T09:32:08.946Z</time></trkpt><trkpt lat="44.3356695" lon="7.6089045"><ele>539.0</ele><time>2026-04-26T09:32:09.946Z</time></trkpt><trkpt lat="44.3356963" lon="7.6091561"><ele>538.3333333333333</ele><time>2026-04-26T09:32:10.946Z</time></trkpt><trkpt lat="44.335724" lon="7.6094124"><ele>537.6666666666666</ele><time>2026-04-26T09:32:11.946Z</time></trkpt><trkpt lat="44.3357528" lon="7.609659"><ele>537.0</ele><time>2026-04-26T09:32:12.946Z</time></trkpt><trkpt lat="44.3357843" lon="7.6099074"><ele>537.0</ele><time>2026-04-26T09:32:13.945Z</time></trkpt><trkpt lat="44.3358148" lon="7.6101511"><ele>537.0</ele><time>2026-04-26T09:32:14.946Z</time></trkpt><trkpt lat="44.3358448" lon="7.6103975"><ele>537.0</ele><time>2026-04-26T09:32:15.946Z</time></trkpt><trkpt lat="44.3358698" lon="7.6106422"><ele>536.6666666666666</ele><time>2026-04-26T09:32:16.946Z</time></trkpt><trkpt lat="44.3358943" lon="7.6108864"><ele>536.3333333333333</ele><time>2026-04-26T09:32:17.945Z</time></trkpt><trkpt lat="44.3359221" lon="7.6111309"><ele>536.0</ele><time>2026-04-26T09:32:18.946Z</time></trkpt><trkpt lat="44.3359507" lon="7.6113748"><ele>536.0</ele><time>2026-04-26T09:32:19.946Z</time></trkpt><trkpt lat="44.3359763" lon="7.6116103"><ele>536.0</ele><time>2026-04-26T09:32:20.945Z</time></trkpt><trkpt lat="44.3360124" lon="7.6118519"><ele>536.0</ele><time>2026-04-26T09:32:21.945Z</time></trkpt><trkpt lat="44.3360571" lon="7.6120882"><ele>536.6666666666666</ele><time>2026-04-26T09:32:22.946Z</time></trkpt><trkpt lat="44.3361136" lon="7.6123167"><ele>537.3333333333334</ele><time>2026-04-26T09:32:23.946Z</time></trkpt><trkpt lat="44.3361757" lon="7.6125433"><ele>538.0</ele><time>2026-04-26T09:32:24.946Z</time></trkpt><trkpt lat="44.3362451" lon="7.6127654"><ele>536.6666666666667</ele><time>2026-04-26T09:32:25.946Z</time></trkpt><trkpt lat="44.3363198" lon="7.6129809"><ele>535.3333333333334</ele><time>2026-04-26T09:32:26.946Z</time></trkpt><trkpt lat="44.3364067" lon="7.6131962"><ele>534.0</ele><time>2026-04-26T09:32:27.946Z</time></trkpt><trkpt lat="44.3365012" lon="7.613399"><ele>534.0</ele><time>2026-04-26T09:32:28.945Z</time></trkpt><trkpt lat="44.336605" lon="7.6135947"><ele>534.0</ele><time>2026-04-26T09:32:29.946Z</time></trkpt><trkpt lat="44.3367123" lon="7.613789"><ele>534.0</ele><time>2026-04-26T09:32:30.946Z</time></trkpt><trkpt lat="44.3368288" lon="7.6139833"><ele>536.6666666666666</ele><time>2026-04-26T09:32:31.946Z</time></trkpt><trkpt lat="44.3369555" lon="7.6141768"><ele>539.3333333333333</ele><time>2026-04-26T09:32:32.946Z</time></trkpt><trkpt lat="44.3370806" lon="7.6143695"><ele>542.0</ele><time>2026-04-26T09:32:33.946Z</time></trkpt><trkpt lat="44.337211" lon="7.6145617"><ele>539.3333333333333</ele><time>2026-04-26T09:32:34.946Z</time></trkpt><trkpt lat="44.3373446" lon="7.6147582"><ele>536.6666666666666</ele><time>2026-04-26T09:32:35.945Z</time></trkpt><trkpt lat="44.3374786" lon="7.6149597"><ele>534.0</ele><time>2026-04-26T09:32:36.946Z</time></trkpt><trkpt lat="44.3376135" lon="7.6151643"><ele>537.3333333333334</ele><time>2026-04-26T09:32:37.946Z</time></trkpt><trkpt lat="44.3377482" lon="7.6153708"><ele>540.6666666666667</ele><time>2026-04-26T09:32:38.946Z</time></trkpt><trkpt lat="44.3378856" lon="7.6155749"><ele>544.0</ele><time>2026-04-26T09:32:39.946Z</time></trkpt><trkpt lat="44.3380213" lon="7.6157801"><ele>541.3333333333334</ele><time>2026-04-26T09:32:40.945Z</time></trkpt><trkpt lat="44.338162" lon="7.6159925"><ele>538.6666666666666</ele><time>2026-04-26T09:32:41.946Z</time></trkpt><trkpt lat="44.3383028" lon="7.6161999"><ele>536.0</ele><time>2026-04-26T09:32:42.946Z</time></trkpt><trkpt lat="44.3384413" lon="7.6164055"><ele>536.0</ele><time>2026-04-26T09:32:43.946Z</time></trkpt><trkpt lat="44.338574" lon="7.6166108"><ele>536.0</ele><time>2026-04-26T09:32:44.946Z</time></trkpt><trkpt lat="44.33871" lon="7.616814"><ele>536.0</ele><time>2026-04-26T09:32:45.946Z</time></trkpt><trkpt lat="44.338841" lon="7.6170212"><ele>535.6666666666666</ele><time>2026-04-26T09:32:46.946Z</time></trkpt><trkpt lat="44.3389547" lon="7.6172362"><ele>535.3333333333334</ele><time>2026-04-26T09:32:47.946Z</time></trkpt><trkpt lat="44.3390553" lon="7.6174554"><ele>535.0</ele><time>2026-04-26T09:32:48.946Z</time></trkpt><trkpt lat="44.3391425" lon="7.6176838"><ele>538.3333333333334</ele><time>2026-04-26T09:32:49.946Z</time></trkpt><trkpt lat="44.3392212" lon="7.6179182"><ele>541.6666666666666</ele><time>2026-04-26T09:32:50.946Z</time></trkpt><trkpt lat="44.3392871" lon="7.6181583"><ele>545.0</ele><time>2026-04-26T09:32:51.946Z</time></trkpt><trkpt lat="44.3393415" lon="7.6184006"><ele>545.0</ele><time>2026-04-26T09:32:52.946Z</time></trkpt><trkpt lat="44.3393822" lon="7.6186486"><ele>545.0</ele><time>2026-04-26T09:32:53.946Z</time></trkpt><trkpt lat="44.3394174" lon="7.6188943"><ele>545.0</ele><time>2026-04-26T09:32:54.946Z</time></trkpt><trkpt lat="44.3394342" lon="7.6191379"><ele>547.6666666666666</ele><time>2026-04-26T09:32:55.946Z</time></trkpt><trkpt lat="44.3394399" lon="7.6193738"><ele>550.3333333333334</ele><time>2026-04-26T09:32:56.946Z</time></trkpt><trkpt lat="44.3394378" lon="7.6195997"><ele>553.0</ele><time>2026-04-26T09:32:57.946Z</time></trkpt><trkpt lat="44.3394237" lon="7.6198179"><ele>553.3333333333334</ele><time>2026-04-26T09:32:58.946Z</time></trkpt><trkpt lat="44.3393986" lon="7.6200253"><ele>553.6666666666666</ele><time>2026-04-26T09:32:59.946Z</time></trkpt><trkpt lat="44.3393634" lon="7.6202313"><ele>554.0</ele><time>2026-04-26T09:33:00.946Z</time></trkpt><trkpt lat="44.3393274" lon="7.6204366"><ele>554.0</ele><time>2026-04-26T09:33:01.946Z</time></trkpt><trkpt lat="44.3392876" lon="7.6206389"><ele>554.0</ele><time>2026-04-26T09:33:02.946Z</time></trkpt><trkpt lat="44.3392238" lon="7.6208423"><ele>554.0</ele><time>2026-04-26T09:33:03.946Z</time></trkpt><trkpt lat="44.339161" lon="7.6210517"><ele>550.3333333333333</ele><time>2026-04-26T09:33:04.946Z</time></trkpt><trkpt lat="44.3391047" lon="7.6212631"><ele>546.6666666666666</ele><time>2026-04-26T09:33:05.946Z</time></trkpt><trkpt lat="44.3390416" lon="7.6214743"><ele>543.0</ele><time>2026-04-26T09:33:06.946Z</time></trkpt><trkpt lat="44.3389854" lon="7.6216969"><ele>543.0</ele><time>2026-04-26T09:33:07.946Z</time></trkpt><trkpt lat="44.3389375" lon="7.6219206"><ele>543.0</ele><time>2026-04-26T09:33:08.945Z</time></trkpt><trkpt lat="44.3388883" lon="7.622143"><ele>543.0</ele><time>2026-04-26T09:33:09.946Z</time></trkpt><trkpt lat="44.3388273" lon="7.6223538"><ele>545.0</ele><time>2026-04-26T09:33:10.946Z</time></trkpt><trkpt lat="44.3387541" lon="7.622557"><ele>547.0</ele><time>2026-04-26T09:33:11.946Z</time></trkpt><trkpt lat="44.3386695" lon="7.6227483"><ele>549.0</ele><time>2026-04-26T09:33:12.945Z</time></trkpt><trkpt lat="44.3385724" lon="7.6229379"><ele>549.0</ele><time>2026-04-26T09:33:13.946Z</time></trkpt><trkpt lat="44.3384561" lon="7.6231137"><ele>549.0</ele><time>2026-04-26T09:33:14.945Z</time></trkpt><trkpt lat="44.3383365" lon="7.6232826"><ele>549.0</ele><time>2026-04-26T09:33:15.946Z</time></trkpt><trkpt lat="44.3382118" lon="7.6234349"><ele>549.0</ele><time>2026-04-26T09:33:16.946Z</time></trkpt><trkpt lat="44.3380891" lon="7.6235708"><ele>549.0</ele><time>2026-04-26T09:33:17.946Z</time></trkpt><trkpt lat="44.3379775" lon="7.623684"><ele>549.0</ele><time>2026-04-26T09:33:18.946Z</time></trkpt><trkpt lat="44.3378861" lon="7.6237774"><ele>549.0</ele><time>2026-04-26T09:33:19.945Z</time></trkpt><trkpt lat="44.337821" lon="7.6238524"><ele>549.5</ele><time>2026-04-26T09:33:20.946Z</time></trkpt><trkpt lat="44.3377688" lon="7.6239019"><ele>550.0</ele><time>2026-04-26T09:33:21.946Z</time></trkpt><trkpt lat="44.3377113" lon="7.6239639"><ele>550.5</ele><time>2026-04-26T09:33:24.946Z</time></trkpt><trkpt lat="44.3376361" lon="7.6240251"><ele>551.0</ele><time>2026-04-26T09:33:26.946Z</time></trkpt><trkpt lat="44.3375657" lon="7.6240575"><ele>551.5</ele><time>2026-04-26T09:33:27.946Z</time></trkpt><trkpt lat="44.3374769" lon="7.6240911"><ele>552.0</ele><time>2026-04-26T09:33:28.946Z</time></trkpt><trkpt lat="44.3373694" lon="7.6241179"><ele>552.0</ele><time>2026-04-26T09:33:29.946Z</time></trkpt><trkpt lat="44.3372568" lon="7.624135"><ele>552.0</ele><time>2026-04-26T09:33:30.946Z</time></trkpt><trkpt lat="44.3371405" lon="7.6241509"><ele>552.0</ele><time>2026-04-26T09:33:31.946Z</time></trkpt><trkpt lat="44.3370201" lon="7.6241489"><ele>552.0</ele><time>2026-04-26T09:33:32.945Z</time></trkpt><trkpt lat="44.3369054" lon="7.6241413"><ele>553.25</ele><time>2026-04-26T09:33:33.946Z</time></trkpt><trkpt lat="44.3367888" lon="7.6241251"><ele>554.5</ele><time>2026-04-26T09:33:34.945Z</time></trkpt><trkpt lat="44.3366719" lon="7.6241018"><ele>555.75</ele><time>2026-04-26T09:33:35.946Z</time></trkpt><trkpt lat="44.3365557" lon="7.6240699"><ele>557.0</ele><time>2026-04-26T09:33:36.946Z</time></trkpt><trkpt lat="44.3364415" lon="7.6240298"><ele>555.75</ele><time>2026-04-26T09:33:37.946Z</time></trkpt><trkpt lat="44.3363289" lon="7.6239788"><ele>554.5</ele><time>2026-04-26T09:33:38.945Z</time></trkpt><trkpt lat="44.3362227" lon="7.623925"><ele>553.25</ele><time>2026-04-26T09:33:39.946Z</time></trkpt><trkpt lat="44.3361163" lon="7.6238672"><ele>552.0</ele><time>2026-04-26T09:33:40.945Z</time></trkpt><trkpt lat="44.336008" lon="7.6237987"><ele>552.0</ele><time>2026-04-26T09:33:41.946Z</time></trkpt><trkpt lat="44.3359035" lon="7.6237266"><ele>552.0</ele><time>2026-04-26T09:33:42.946Z</time></trkpt><trkpt lat="44.3357984" lon="7.6236502"><ele>552.0</ele><time>2026-04-26T09:33:43.946Z</time></trkpt><trkpt lat="44.3356997" lon="7.6235678"><ele>552.0</ele><time>2026-04-26T09:33:44.945Z</time></trkpt><trkpt lat="44.335603" lon="7.6234776"><ele>552.5</ele><time>2026-04-26T09:33:45.946Z</time></trkpt><trkpt lat="44.3355082" lon="7.6233815"><ele>553.0</ele><time>2026-04-26T09:33:46.946Z</time></trkpt><trkpt lat="44.3354222" lon="7.6232716"><ele>553.5</ele><time>2026-04-26T09:33:47.946Z</time></trkpt><trkpt lat="44.3353388" lon="7.6231523"><ele>554.0</ele><time>2026-04-26T09:33:48.946Z</time></trkpt><trkpt lat="44.3352493" lon="7.6230305"><ele>554.0</ele><time>2026-04-26T09:33:49.946Z</time></trkpt><trkpt lat="44.3351474" lon="7.6229224"><ele>554.0</ele><time>2026-04-26T09:33:50.945Z</time></trkpt><trkpt lat="44.3350358" lon="7.6228135"><ele>554.0</ele><time>2026-04-26T09:33:51.946Z</time></trkpt><trkpt lat="44.3349245" lon="7.6227326"><ele>554.0</ele><time>2026-04-26T09:33:52.946Z</time></trkpt><trkpt lat="44.3348141" lon="7.6226745"><ele>554.8333333333333</ele><time>2026-04-26T09:33:53.945Z</time></trkpt><trkpt lat="44.3347095" lon="7.6226271"><ele>555.6666666666666</ele><time>2026-04-26T09:33:54.946Z</time></trkpt><trkpt lat="44.3346215" lon="7.6225802"><ele>556.5</ele><time>2026-04-26T09:33:55.946Z</time></trkpt><trkpt lat="44.3345409" lon="7.6225302"><ele>557.3333333333334</ele><time>2026-04-26T09:33:56.946Z</time></trkpt><trkpt lat="44.3344668" lon="7.6224823"><ele>558.1666666666667</ele><time>2026-04-26T09:33:57.945Z</time></trkpt><trkpt lat="44.3344045" lon="7.6224369"><ele>559.0</ele><time>2026-04-26T09:33:58.946Z</time></trkpt><trkpt lat="44.3343484" lon="7.6223887"><ele>559.0</ele><time>2026-04-26T09:33:59.946Z</time></trkpt><trkpt lat="44.33426" lon="7.6223295"><ele>559.0</ele><time>2026-04-26T09:34:01.946Z</time></trkpt><trkpt lat="44.3342497" lon="7.6224381"><ele>559.0</ele><time>2026-04-26T09:34:04.946Z</time></trkpt><trkpt lat="44.3343181" lon="7.6225279"><ele>559.0</ele><time>2026-04-26T09:34:06.946Z</time></trkpt><trkpt lat="44.3343808" lon="7.6225849"><ele>559.0</ele><time>2026-04-26T09:34:19.946Z</time></trkpt><trkpt lat="44.3344941" lon="7.6226064"><ele>559.0</ele><time>2026-04-26T09:34:21.945Z</time></trkpt><trkpt lat="44.3345732" lon="7.6226086"><ele>559.0</ele><time>2026-04-26T09:34:22.946Z</time></trkpt><trkpt lat="44.334662" lon="7.6226245"><ele>559.0</ele><time>2026-04-26T09:34:23.946Z</time></trkpt><trkpt lat="44.3347594" lon="7.6226524"><ele>559.0</ele><time>2026-04-26T09:34:24.946Z</time></trkpt><trkpt lat="44.3348632" lon="7.6226917"><ele>559.0</ele><time>2026-04-26T09:34:25.946Z</time></trkpt><trkpt lat="44.3349739" lon="7.6227629"><ele>557.75</ele><time>2026-04-26T09:34:26.945Z</time></trkpt><trkpt lat="44.3350817" lon="7.6228567"><ele>556.5</ele><time>2026-04-26T09:34:27.946Z</time></trkpt><trkpt lat="44.3351864" lon="7.6229731"><ele>555.25</ele><time>2026-04-26T09:34:28.946Z</time></trkpt><trkpt lat="44.3352887" lon="7.623102"><ele>554.0</ele><time>2026-04-26T09:34:29.945Z</time></trkpt><trkpt lat="44.3353894" lon="7.6232388"><ele>554.0</ele><time>2026-04-26T09:34:30.946Z</time></trkpt><trkpt lat="44.3354931" lon="7.6233662"><ele>554.0</ele><time>2026-04-26T09:34:31.946Z</time></trkpt><trkpt lat="44.335602" lon="7.62349"><ele>554.0</ele><time>2026-04-26T09:34:32.946Z</time></trkpt><trkpt lat="44.3357185" lon="7.623607"><ele>554.0</ele><time>2026-04-26T09:34:33.945Z</time></trkpt><trkpt lat="44.3358396" lon="7.6237107"><ele>553.5</ele><time>2026-04-26T09:34:34.946Z</time></trkpt><trkpt lat="44.3359621" lon="7.6238016"><ele>553.0</ele><time>2026-04-26T09:34:35.946Z</time></trkpt><trkpt lat="44.3360904" lon="7.6238826"><ele>552.5</ele><time>2026-04-26T09:34:36.946Z</time></trkpt><trkpt lat="44.3362226" lon="7.6239539"><ele>552.0</ele><time>2026-04-26T09:34:37.946Z</time></trkpt><trkpt lat="44.3363597" lon="7.6240223"><ele>553.25</ele><time>2026-04-26T09:34:38.946Z</time></trkpt><trkpt lat="44.3364955" lon="7.6240855"><ele>554.5</ele><time>2026-04-26T09:34:39.946Z</time></trkpt><trkpt lat="44.3366258" lon="7.6241318"><ele>555.75</ele><time>2026-04-26T09:34:40.946Z</time></trkpt><trkpt lat="44.3367427" lon="7.6241633"><ele>557.0</ele><time>2026-04-26T09:34:41.945Z</time></trkpt><trkpt lat="44.336855" lon="7.6241809"><ele>557.0</ele><time>2026-04-26T09:34:42.945Z</time></trkpt><trkpt lat="44.3369659" lon="7.6242008"><ele>557.0</ele><time>2026-04-26T09:34:43.946Z</time></trkpt><trkpt lat="44.3370628" lon="7.6242184"><ele>557.0</ele><time>2026-04-26T09:34:44.946Z</time></trkpt><trkpt lat="44.337139" lon="7.6242412"><ele>557.0</ele><time>2026-04-26T09:34:45.946Z</time></trkpt><trkpt lat="44.3372059" lon="7.6242841"><ele>557.0</ele><time>2026-04-26T09:34:46.946Z</time></trkpt><trkpt lat="44.3372603" lon="7.6243527"><ele>557.0</ele><time>2026-04-26T09:34:47.946Z</time></trkpt><trkpt lat="44.337308" lon="7.6244534"><ele>554.4</ele><time>2026-04-26T09:34:48.946Z</time></trkpt><trkpt lat="44.3373461" lon="7.6245728"><ele>551.8000000000001</ele><time>2026-04-26T09:34:49.945Z</time></trkpt><trkpt lat="44.337388" lon="7.6246996"><ele>549.2</ele><time>2026-04-26T09:34:50.946Z</time></trkpt><trkpt lat="44.3374387" lon="7.6248248"><ele>546.6</ele><time>2026-04-26T09:34:51.946Z</time></trkpt><trkpt lat="44.337495" lon="7.6249416"><ele>544.0</ele><time>2026-04-26T09:34:52.946Z</time></trkpt><trkpt lat="44.3375539" lon="7.6250462"><ele>544.0</ele><time>2026-04-26T09:34:53.946Z</time></trkpt><trkpt lat="44.3376258" lon="7.6251417"><ele>544.0</ele><time>2026-04-26T09:34:54.946Z</time></trkpt><trkpt lat="44.3376979" lon="7.6252326"><ele>544.0</ele><time>2026-04-26T09:34:55.946Z</time></trkpt><trkpt lat="44.3377556" lon="7.6253284"><ele>544.0</ele><time>2026-04-26T09:34:56.946Z</time></trkpt><trkpt lat="44.3378006" lon="7.6254192"><ele>544.0</ele><time>2026-04-26T09:34:57.946Z</time></trkpt><trkpt lat="44.3378164" lon="7.625528"><ele>544.0</ele><time>2026-04-26T09:34:58.946Z</time></trkpt><trkpt lat="44.3378079" lon="7.6256397"><ele>544.1666666666667</ele><time>2026-04-26T09:34:59.946Z</time></trkpt><trkpt lat="44.3377882" lon="7.6257625"><ele>544.3333333333334</ele><time>2026-04-26T09:35:00.946Z</time></trkpt><trkpt lat="44.3377742" lon="7.6259004"><ele>544.5</ele><time>2026-04-26T09:35:02.945Z</time></trkpt><trkpt lat="44.3378156" lon="7.6259831"><ele>544.6666666666666</ele><time>2026-04-26T09:35:12.946Z</time></trkpt><trkpt lat="44.337738" lon="7.6260953"><ele>544.8333333333333</ele><time>2026-04-26T09:35:15.946Z</time></trkpt><trkpt lat="44.3376895" lon="7.6261692"><ele>545.0</ele><time>2026-04-26T09:35:16.946Z</time></trkpt><trkpt lat="44.3376391" lon="7.6262439"><ele>545.0</ele><time>2026-04-26T09:35:17.946Z</time></trkpt><trkpt lat="44.3375961" lon="7.6263087"><ele>545.0</ele><time>2026-04-26T09:35:18.945Z</time></trkpt><trkpt lat="44.3375785" lon="7.6264643"><ele>545.0</ele><time>2026-04-26T09:35:20.945Z</time></trkpt><trkpt lat="44.3376163" lon="7.6265475"><ele>545.0</ele><time>2026-04-26T09:35:21.946Z</time></trkpt><trkpt lat="44.3376822" lon="7.626641"><ele>545.0</ele><time>2026-04-26T09:35:22.946Z</time></trkpt><trkpt lat="44.3377594" lon="7.6267541"><ele>545.0</ele><time>2026-04-26T09:35:23.946Z</time></trkpt><trkpt lat="44.3378283" lon="7.6268725"><ele>545.0</ele><time>2026-04-26T09:35:24.946Z</time></trkpt><trkpt lat="44.3378977" lon="7.6269888"><ele>545.0</ele><time>2026-04-26T09:35:25.946Z</time></trkpt><trkpt lat="44.3379721" lon="7.627107"><ele>545.0</ele><time>2026-04-26T09:35:26.946Z</time></trkpt><trkpt lat="44.3380358" lon="7.6272313"><ele>545.0</ele><time>2026-04-26T09:35:27.946Z</time></trkpt><trkpt lat="44.3380976" lon="7.6273632"><ele>544.0</ele><time>2026-04-26T09:35:28.946Z</time></trkpt><trkpt lat="44.3381554" lon="7.6275069"><ele>543.0</ele><time>2026-04-26T09:35:29.945Z</time></trkpt><trkpt lat="44.3382114" lon="7.6276482"><ele>542.0</ele><time>2026-04-26T09:35:30.946Z</time></trkpt><trkpt lat="44.3382662" lon="7.6277846"><ele>541.0</ele><time>2026-04-26T09:35:31.945Z</time></trkpt><trkpt lat="44.3383343" lon="7.627904"><ele>541.0</ele><time>2026-04-26T09:35:32.946Z</time></trkpt><trkpt lat="44.3384119" lon="7.6280161"><ele>541.0</ele><time>2026-04-26T09:35:33.946Z</time></trkpt><trkpt lat="44.3385057" lon="7.6281018"><ele>541.0</ele><time>2026-04-26T09:35:34.945Z</time></trkpt><trkpt lat="44.3385974" lon="7.6281705"><ele>541.0</ele><time>2026-04-26T09:35:35.946Z</time></trkpt><trkpt lat="44.3387235" lon="7.6282213"><ele>541.0</ele><time>2026-04-26T09:35:36.945Z</time></trkpt><trkpt lat="44.338841" lon="7.6282751"><ele>541.0</ele><time>2026-04-26T09:35:37.946Z</time></trkpt><trkpt lat="44.3389484" lon="7.6283296"><ele>541.0</ele><time>2026-04-26T09:35:38.946Z</time></trkpt><trkpt lat="44.3390477" lon="7.6283856"><ele>541.0</ele><time>2026-04-26T09:35:39.945Z</time></trkpt><trkpt lat="44.3391424" lon="7.6284605"><ele>540.2</ele><time>2026-04-26T09:35:40.946Z</time></trkpt><trkpt lat="44.3392363" lon="7.6285576"><ele>539.4000000000001</ele><time>2026-04-26T09:35:41.946Z</time></trkpt><trkpt lat="44.3393162" lon="7.6286579"><ele>538.6</ele><time>2026-04-26T09:35:42.946Z</time></trkpt><trkpt lat="44.3393892" lon="7.6287608"><ele>537.8000000000001</ele><time>2026-04-26T09:35:43.945Z</time></trkpt><trkpt lat="44.3394522" lon="7.6288535"><ele>537.0</ele><time>2026-04-26T09:35:44.946Z</time></trkpt><trkpt lat="44.3395079" lon="7.628933"><ele>537.0</ele><time>2026-04-26T09:35:45.945Z</time></trkpt><trkpt lat="44.3395759" lon="7.6290369"><ele>537.0</ele><time>2026-04-26T09:35:47.946Z</time></trkpt><trkpt lat="44.3396535" lon="7.6291217"><ele>537.0</ele><time>2026-04-26T09:35:49.946Z</time></trkpt><trkpt lat="44.3397566" lon="7.629211"><ele>537.0</ele><time>2026-04-26T09:35:51.946Z</time></trkpt><trkpt lat="44.339816" lon="7.6292536"><ele>537.0</ele><time>2026-04-26T09:35:52.946Z</time></trkpt><trkpt lat="44.3398911" lon="7.6293057"><ele>536.6</ele><time>2026-04-26T09:35:53.945Z</time></trkpt><trkpt lat="44.3399861" lon="7.6293694"><ele>536.2</ele><time>2026-04-26T09:35:54.946Z</time></trkpt><trkpt lat="44.340083" lon="7.629436"><ele>535.8</ele><time>2026-04-26T09:35:55.946Z</time></trkpt><trkpt lat="44.340188" lon="7.6295014"><ele>535.4</ele><time>2026-04-26T09:35:56.945Z</time></trkpt><trkpt lat="44.3402936" lon="7.6295652"><ele>535.0</ele><time>2026-04-26T09:35:57.946Z</time></trkpt><trkpt lat="44.3404026" lon="7.6296283"><ele>535.0</ele><time>2026-04-26T09:35:58.946Z</time></trkpt><trkpt lat="44.3405224" lon="7.6296857"><ele>535.0</ele><time>2026-04-26T09:35:59.945Z</time></trkpt><trkpt lat="44.3406521" lon="7.6297423"><ele>535.0</ele><time>2026-04-26T09:36:00.946Z</time></trkpt><trkpt lat="44.3407762" lon="7.6297921"><ele>535.0</ele><time>2026-04-26T09:36:01.946Z</time></trkpt><trkpt lat="44.3408885" lon="7.6298394"><ele>534.6</ele><time>2026-04-26T09:36:02.945Z</time></trkpt><trkpt lat="44.3409948" lon="7.6298755"><ele>534.2</ele><time>2026-04-26T09:36:03.946Z</time></trkpt><trkpt lat="44.3410903" lon="7.6299215"><ele>533.8</ele><time>2026-04-26T09:36:04.945Z</time></trkpt><trkpt lat="44.3411857" lon="7.629995"><ele>533.4</ele><time>2026-04-26T09:36:05.946Z</time></trkpt><trkpt lat="44.3412845" lon="7.6301051"><ele>533.0</ele><time>2026-04-26T09:36:06.945Z</time></trkpt><trkpt lat="44.3413863" lon="7.6302317"><ele>532.5</ele><time>2026-04-26T09:36:07.946Z</time></trkpt><trkpt lat="44.3414957" lon="7.6303576"><ele>532.0</ele><time>2026-04-26T09:36:08.946Z</time></trkpt><trkpt lat="44.3416062" lon="7.6304773"><ele>531.5</ele><time>2026-04-26T09:36:09.946Z</time></trkpt><trkpt lat="44.3417176" lon="7.6305853"><ele>531.0</ele><time>2026-04-26T09:36:10.946Z</time></trkpt><trkpt lat="44.3418298" lon="7.63068"><ele>531.0</ele><time>2026-04-26T09:36:11.946Z</time></trkpt><trkpt lat="44.3419305" lon="7.6307645"><ele>531.0</ele><time>2026-04-26T09:36:12.945Z</time></trkpt><trkpt lat="44.3420302" lon="7.630856"><ele>531.0</ele><time>2026-04-26T09:36:13.946Z</time></trkpt><trkpt lat="44.342124" lon="7.6309559"><ele>531.0</ele><time>2026-04-26T09:36:14.946Z</time></trkpt><trkpt lat="44.3422127" lon="7.6310711"><ele>530.25</ele><time>2026-04-26T09:36:15.946Z</time></trkpt><trkpt lat="44.3423" lon="7.6311819"><ele>529.5</ele><time>2026-04-26T09:36:16.945Z</time></trkpt><trkpt lat="44.3423887" lon="7.6312866"><ele>528.75</ele><time>2026-04-26T09:36:17.946Z</time></trkpt><trkpt lat="44.3424937" lon="7.6313632"><ele>528.0</ele><time>2026-04-26T09:36:18.946Z</time></trkpt><trkpt lat="44.342606" lon="7.6314225"><ele>528.0</ele><time>2026-04-26T09:36:19.946Z</time></trkpt><trkpt lat="44.3427183" lon="7.6314344"><ele>528.0</ele><time>2026-04-26T09:36:20.946Z</time></trkpt><trkpt lat="44.3428492" lon="7.6314471"><ele>528.0</ele><time>2026-04-26T09:36:21.946Z</time></trkpt><trkpt lat="44.3429557" lon="7.6314557"><ele>528.0</ele><time>2026-04-26T09:36:22.946Z</time></trkpt><trkpt lat="44.3430605" lon="7.6314936"><ele>527.5</ele><time>2026-04-26T09:36:23.946Z</time></trkpt><trkpt lat="44.3431767" lon="7.6315665"><ele>527.0</ele><time>2026-04-26T09:36:24.946Z</time></trkpt><trkpt lat="44.3432908" lon="7.6316385"><ele>526.5</ele><time>2026-04-26T09:36:25.946Z</time></trkpt><trkpt lat="44.3433899" lon="7.6317029"><ele>526.0</ele><time>2026-04-26T09:36:26.946Z</time></trkpt><trkpt lat="44.3435097" lon="7.6317509"><ele>526.0</ele><time>2026-04-26T09:36:27.946Z</time></trkpt><trkpt lat="44.3436508" lon="7.6317761"><ele>526.0</ele><time>2026-04-26T09:36:28.945Z</time></trkpt><trkpt lat="44.3437732" lon="7.6317918"><ele>526.0</ele><time>2026-04-26T09:36:29.946Z</time></trkpt><trkpt lat="44.3438856" lon="7.6318196"><ele>526.0</ele><time>2026-04-26T09:36:30.946Z</time></trkpt><trkpt lat="44.3440033" lon="7.6318488"><ele>525.25</ele><time>2026-04-26T09:36:31.946Z</time></trkpt><trkpt lat="44.3441245" lon="7.6318524"><ele>524.5</ele><time>2026-04-26T09:36:32.945Z</time></trkpt><trkpt lat="44.3442455" lon="7.6318482"><ele>523.75</ele><time>2026-04-26T09:36:33.946Z</time></trkpt><trkpt lat="44.3443767" lon="7.6318167"><ele>523.0</ele><time>2026-04-26T09:36:34.946Z</time></trkpt><trkpt lat="44.344494" lon="7.6317808"><ele>523.0</ele><time>2026-04-26T09:36:35.946Z</time></trkpt><trkpt lat="44.3446114" lon="7.6317679"><ele>523.0</ele><time>2026-04-26T09:36:36.946Z</time></trkpt><trkpt lat="44.3447513" lon="7.6317866"><ele>523.0</ele><time>2026-04-26T09:36:37.946Z</time></trkpt><trkpt lat="44.3448895" lon="7.6318074"><ele>523.0</ele><time>2026-04-26T09:36:38.945Z</time></trkpt><trkpt lat="44.3450264" lon="7.6318167"><ele>522.4</ele><time>2026-04-26T09:36:39.945Z</time></trkpt><trkpt lat="44.3451455" lon="7.6318032"><ele>521.8</ele><time>2026-04-26T09:36:40.945Z</time></trkpt><trkpt lat="44.3452477" lon="7.6318027"><ele>521.2</ele><time>2026-04-26T09:36:41.945Z</time></trkpt><trkpt lat="44.3453273" lon="7.6318013"><ele>520.6</ele><time>2026-04-26T09:36:42.946Z</time></trkpt><trkpt lat="44.3454333" lon="7.6319243"><ele>520.0</ele><time>2026-04-26T09:36:44.946Z</time></trkpt><trkpt lat="44.3454924" lon="7.6320557"><ele>519.4</ele><time>2026-04-26T09:36:45.946Z</time></trkpt><trkpt lat="44.3455594" lon="7.6321729"><ele>518.8</ele><time>2026-04-26T09:36:46.946Z</time></trkpt><trkpt lat="44.3456527" lon="7.6322801"><ele>518.2</ele><time>2026-04-26T09:36:47.946Z</time></trkpt><trkpt lat="44.3457337" lon="7.6323556"><ele>517.6</ele><time>2026-04-26T09:36:48.946Z</time></trkpt><trkpt lat="44.3457979" lon="7.6324144"><ele>517.0</ele><time>2026-04-26T09:36:49.946Z</time></trkpt><trkpt lat="44.3457669" lon="7.6325378"><ele>517.0</ele><time>2026-04-26T09:37:29.946Z</time></trkpt><trkpt lat="44.3457344" lon="7.6326188"><ele>517.0</ele><time>2026-04-26T09:37:30.945Z</time></trkpt><trkpt lat="44.3456677" lon="7.6327888"><ele>517.0</ele><time>2026-04-26T09:37:32.945Z</time></trkpt><trkpt lat="44.3456515" lon="7.6328914"><ele>517.0</ele><time>2026-04-26T09:37:33.945Z</time></trkpt><trkpt lat="44.3456196" lon="7.6329728"><ele>517.0</ele><time>2026-04-26T09:37:34.946Z</time></trkpt><trkpt lat="44.3455736" lon="7.633054"><ele>517.0</ele><time>2026-04-26T09:37:35.946Z</time></trkpt><trkpt lat="44.3455165" lon="7.6331409"><ele>517.6</ele><time>2026-04-26T09:37:36.946Z</time></trkpt><trkpt lat="44.3454725" lon="7.6332433"><ele>518.2</ele><time>2026-04-26T09:37:37.946Z</time></trkpt><trkpt lat="44.3454185" lon="7.6333387"><ele>518.8</ele><time>2026-04-26T09:37:38.946Z</time></trkpt><trkpt lat="44.3453395" lon="7.6334243"><ele>519.4</ele><time>2026-04-26T09:37:39.946Z</time></trkpt><trkpt lat="44.3452591" lon="7.6334973"><ele>520.0</ele><time>2026-04-26T09:37:40.946Z</time></trkpt><trkpt lat="44.3451882" lon="7.6335731"><ele>520.1666666666667</ele><time>2026-04-26T09:37:41.946Z</time></trkpt><trkpt lat="44.3451265" lon="7.6336614"><ele>520.3333333333334</ele><time>2026-04-26T09:37:42.945Z</time></trkpt><trkpt lat="44.3450664" lon="7.6337393"><ele>520.5</ele><time>2026-04-26T09:37:43.946Z</time></trkpt><trkpt lat="44.3450143" lon="7.6338062"><ele>520.6666666666666</ele><time>2026-04-26T09:37:44.945Z</time></trkpt><trkpt lat="44.3449575" lon="7.6338735"><ele>520.8333333333333</ele><time>2026-04-26T09:37:45.945Z</time></trkpt><trkpt lat="44.3448531" lon="7.6339214"><ele>521.0</ele><time>2026-04-26T09:37:46.945Z</time></trkpt><trkpt lat="44.3447686" lon="7.6339684"><ele>521.4</ele><time>2026-04-26T09:37:47.946Z</time></trkpt><trkpt lat="44.344685" lon="7.634019"><ele>521.8</ele><time>2026-04-26T09:37:48.946Z</time></trkpt><trkpt lat="44.3446227" lon="7.6340658"><ele>522.1999999999999</ele><time>2026-04-26T09:37:49.946Z</time></trkpt><trkpt lat="44.3445416" lon="7.634212"><ele>522.6</ele><time>2026-04-26T09:37:51.946Z</time></trkpt><trkpt lat="44.3445257" lon="7.6343319"><ele>523.0</ele><time>2026-04-26T09:37:52.945Z</time></trkpt><trkpt lat="44.3445251" lon="7.6344726"><ele>523.6</ele><time>2026-04-26T09:37:53.946Z</time></trkpt><trkpt lat="44.3445336" lon="7.6346029"><ele>524.1999999999999</ele><time>2026-04-26T09:37:54.946Z</time></trkpt><trkpt lat="44.3445416" lon="7.6347348"><ele>524.8</ele><time>2026-04-26T09:37:55.946Z</time></trkpt><trkpt lat="44.3445413" lon="7.6348866"><ele>525.4</ele><time>2026-04-26T09:37:56.945Z</time></trkpt><trkpt lat="44.3445345" lon="7.6350245"><ele>526.0</ele><time>2026-04-26T09:37:57.946Z</time></trkpt><trkpt lat="44.3445302" lon="7.6351412"><ele>526.0</ele><time>2026-04-26T09:37:58.945Z</time></trkpt><trkpt lat="44.3445211" lon="7.6352381"><ele>526.0</ele><time>2026-04-26T09:37:59.946Z</time></trkpt><trkpt lat="44.3444961" lon="7.6353512"><ele>526.0</ele><time>2026-04-26T09:38:00.945Z</time></trkpt><trkpt lat="44.344463" lon="7.6354871"><ele>526.0</ele><time>2026-04-26T09:38:01.946Z</time></trkpt><trkpt lat="44.3444186" lon="7.6356269"><ele>526.0</ele><time>2026-04-26T09:38:02.946Z</time></trkpt><trkpt lat="44.3443817" lon="7.6357375"><ele>526.0</ele><time>2026-04-26T09:38:03.946Z</time></trkpt><trkpt lat="44.3443525" lon="7.635832"><ele>526.0</ele><time>2026-04-26T09:38:04.946Z</time></trkpt><trkpt lat="44.3443237" lon="7.6359228"><ele>526.0</ele><time>2026-04-26T09:38:05.946Z</time></trkpt><trkpt lat="44.3443018" lon="7.6360529"><ele>526.0</ele><time>2026-04-26T09:38:06.946Z</time></trkpt><trkpt lat="44.3442895" lon="7.636169"><ele>526.0</ele><time>2026-04-26T09:38:07.946Z</time></trkpt><trkpt lat="44.3442705" lon="7.6362823"><ele>526.0</ele><time>2026-04-26T09:38:08.946Z</time></trkpt><trkpt lat="44.34426" lon="7.6363747"><ele>525.0</ele><time>2026-04-26T09:38:09.946Z</time></trkpt><trkpt lat="44.344282" lon="7.6364903"><ele>524.0</ele><time>2026-04-26T09:38:10.946Z</time></trkpt><trkpt lat="44.344299" lon="7.6365906"><ele>523.0</ele><time>2026-04-26T09:38:11.946Z</time></trkpt><trkpt lat="44.3443058" lon="7.6366989"><ele>522.0</ele><time>2026-04-26T09:38:12.945Z</time></trkpt><trkpt lat="44.3442908" lon="7.6368369"><ele>521.0</ele><time>2026-04-26T09:38:13.946Z</time></trkpt><trkpt lat="44.3442631" lon="7.6369708"><ele>520.0</ele><time>2026-04-26T09:38:14.946Z</time></trkpt><trkpt lat="44.3442304" lon="7.6371044"><ele>519.8</ele><time>2026-04-26T09:38:15.945Z</time></trkpt><trkpt lat="44.3441838" lon="7.6372143"><ele>519.6</ele><time>2026-04-26T09:38:16.946Z</time></trkpt><trkpt lat="44.3441363" lon="7.6373402"><ele>519.4</ele><time>2026-04-26T09:38:17.946Z</time></trkpt><trkpt lat="44.3440903" lon="7.6374345"><ele>519.2</ele><time>2026-04-26T09:38:18.945Z</time></trkpt><trkpt lat="44.3440285" lon="7.637525"><ele>519.0</ele><time>2026-04-26T09:38:20.946Z</time></trkpt><trkpt lat="44.3439153" lon="7.6374756"><ele>519.5</ele><time>2026-04-26T09:38:22.946Z</time></trkpt><trkpt lat="44.3438398" lon="7.6374156"><ele>520.0</ele><time>2026-04-26T09:38:23.946Z</time></trkpt><trkpt lat="44.3437611" lon="7.637356"><ele>520.5</ele><time>2026-04-26T09:38:24.946Z</time></trkpt><trkpt lat="44.3436984" lon="7.637287"><ele>521.0</ele><time>2026-04-26T09:38:25.945Z</time></trkpt><trkpt lat="44.3436414" lon="7.6372345"><ele>521.5</ele><time>2026-04-26T09:38:26.946Z</time></trkpt><trkpt lat="44.3435257" lon="7.637231"><ele>522.0</ele><time>2026-04-26T09:38:28.946Z</time></trkpt><trkpt lat="44.3434731" lon="7.6372861"><ele>522.0</ele><time>2026-04-26T09:38:29.946Z</time></trkpt><trkpt lat="44.3434177" lon="7.6373805"><ele>522.0</ele><time>2026-04-26T09:38:30.946Z</time></trkpt><trkpt lat="44.3433511" lon="7.6374999"><ele>522.0</ele><time>2026-04-26T09:38:31.945Z</time></trkpt><trkpt lat="44.3432815" lon="7.6376172"><ele>522.0</ele><time>2026-04-26T09:38:32.946Z</time></trkpt><trkpt lat="44.3432156" lon="7.6377113"><ele>522.0</ele><time>2026-04-26T09:38:33.946Z</time></trkpt><trkpt lat="44.3431541" lon="7.6377704"><ele>521.8000000000001</ele><time>2026-04-26T09:38:34.946Z</time></trkpt><trkpt lat="44.3430889" lon="7.6378099"><ele>521.6</ele><time>2026-04-26T09:38:35.945Z</time></trkpt><trkpt lat="44.3430008" lon="7.6378017"><ele>521.4000000000001</ele><time>2026-04-26T09:38:36.946Z</time></trkpt><trkpt lat="44.3428912" lon="7.6377658"><ele>521.2</ele><time>2026-04-26T09:38:37.946Z</time></trkpt><trkpt lat="44.3427959" lon="7.6376919"><ele>521.0</ele><time>2026-04-26T09:38:38.946Z</time></trkpt><trkpt lat="44.3427197" lon="7.637638"><ele>521.6</ele><time>2026-04-26T09:38:39.946Z</time></trkpt><trkpt lat="44.3426523" lon="7.6376084"><ele>522.2</ele><time>2026-04-26T09:38:40.946Z</time></trkpt><trkpt lat="44.3425302" lon="7.63762"><ele>522.8</ele><time>2026-04-26T09:38:42.945Z</time></trkpt><trkpt lat="44.3424427" lon="7.6376811"><ele>523.4</ele><time>2026-04-26T09:38:43.946Z</time></trkpt><trkpt lat="44.3423273" lon="7.6377184"><ele>524.0</ele><time>2026-04-26T09:38:44.946Z</time></trkpt><trkpt lat="44.3422036" lon="7.6377544"><ele>524.0</ele><time>2026-04-26T09:38:45.946Z</time></trkpt><trkpt lat="44.3420733" lon="7.6377804"><ele>524.0</ele><time>2026-04-26T09:38:46.945Z</time></trkpt><trkpt lat="44.3419515" lon="7.6378091"><ele>524.0</ele><time>2026-04-26T09:38:47.946Z</time></trkpt><trkpt lat="44.3418285" lon="7.637844"><ele>524.0</ele><time>2026-04-26T09:38:48.946Z</time></trkpt><trkpt lat="44.3417189" lon="7.6378892"><ele>524.0</ele><time>2026-04-26T09:38:49.945Z</time></trkpt><trkpt lat="44.3416215" lon="7.6379369"><ele>524.0</ele><time>2026-04-26T09:38:50.946Z</time></trkpt><trkpt lat="44.3415441" lon="7.6379845"><ele>524.0</ele><time>2026-04-26T09:38:51.946Z</time></trkpt><trkpt lat="44.3414559" lon="7.6380379"><ele>524.0</ele><time>2026-04-26T09:38:53.946Z</time></trkpt><trkpt lat="44.3413996" lon="7.6380993"><ele>524.0</ele><time>2026-04-26T09:38:56.946Z</time></trkpt><trkpt lat="44.3413075" lon="7.638016"><ele>524.6</ele><time>2026-04-26T09:39:09.946Z</time></trkpt><trkpt lat="44.3412578" lon="7.6379457"><ele>525.2</ele><time>2026-04-26T09:39:10.946Z</time></trkpt><trkpt lat="44.3412027" lon="7.6378597"><ele>525.8000000000001</ele><time>2026-04-26T09:39:11.946Z</time></trkpt><trkpt lat="44.3411453" lon="7.6377578"><ele>526.4</ele><time>2026-04-26T09:39:12.946Z</time></trkpt><trkpt lat="44.3410742" lon="7.6376462"><ele>527.0</ele><time>2026-04-26T09:39:13.946Z</time></trkpt><trkpt lat="44.3410007" lon="7.637531"><ele>527.25</ele><time>2026-04-26T09:39:14.946Z</time></trkpt><trkpt lat="44.3409171" lon="7.6374182"><ele>527.5</ele><time>2026-04-26T09:39:15.945Z</time></trkpt><trkpt lat="44.3408302" lon="7.637308"><ele>527.75</ele><time>2026-04-26T09:39:16.946Z</time></trkpt><trkpt lat="44.3407414" lon="7.6371954"><ele>528.0</ele><time>2026-04-26T09:39:17.945Z</time></trkpt><trkpt lat="44.3406568" lon="7.6370871"><ele>528.0</ele><time>2026-04-26T09:39:18.945Z</time></trkpt><trkpt lat="44.3405605" lon="7.636974"><ele>528.0</ele><time>2026-04-26T09:39:19.946Z</time></trkpt><trkpt lat="44.3404607" lon="7.6368611"><ele>528.0</ele><time>2026-04-26T09:39:20.946Z</time></trkpt><trkpt lat="44.3403603" lon="7.6367468"><ele>528.0</ele><time>2026-04-26T09:39:21.946Z</time></trkpt><trkpt lat="44.3402633" lon="7.6366372"><ele>528.4</ele><time>2026-04-26T09:39:22.946Z</time></trkpt><trkpt lat="44.3401669" lon="7.6365325"><ele>528.8</ele><time>2026-04-26T09:39:23.946Z</time></trkpt><trkpt lat="44.3400795" lon="7.6364261"><ele>529.2</ele><time>2026-04-26T09:39:24.945Z</time></trkpt><trkpt lat="44.3400034" lon="7.636322"><ele>529.6</ele><time>2026-04-26T09:39:25.946Z</time></trkpt><trkpt lat="44.3399328" lon="7.6362197"><ele>530.0</ele><time>2026-04-26T09:39:26.946Z</time></trkpt><trkpt lat="44.3398637" lon="7.6361205"><ele>530.2</ele><time>2026-04-26T09:39:27.946Z</time></trkpt><trkpt lat="44.3397991" lon="7.6360265"><ele>530.4</ele><time>2026-04-26T09:39:28.946Z</time></trkpt><trkpt lat="44.3397366" lon="7.6359234"><ele>530.6</ele><time>2026-04-26T09:39:29.946Z</time></trkpt><trkpt lat="44.3396668" lon="7.6357963"><ele>530.8</ele><time>2026-04-26T09:39:30.946Z</time></trkpt><trkpt lat="44.3395879" lon="7.6356585"><ele>531.0</ele><time>2026-04-26T09:39:31.946Z</time></trkpt><trkpt lat="44.3395045" lon="7.6355193"><ele>531.75</ele><time>2026-04-26T09:39:32.946Z</time></trkpt><trkpt lat="44.3394191" lon="7.6353728"><ele>532.5</ele><time>2026-04-26T09:39:33.946Z</time></trkpt><trkpt lat="44.3393405" lon="7.6352287"><ele>533.25</ele><time>2026-04-26T09:39:34.946Z</time></trkpt><trkpt lat="44.3392519" lon="7.6350842"><ele>534.0</ele><time>2026-04-26T09:39:35.946Z</time></trkpt><trkpt lat="44.3391614" lon="7.6349407"><ele>534.5</ele><time>2026-04-26T09:39:36.945Z</time></trkpt><trkpt lat="44.3390767" lon="7.634793"><ele>535.0</ele><time>2026-04-26T09:39:37.946Z</time></trkpt><trkpt lat="44.3389906" lon="7.6346416"><ele>535.5</ele><time>2026-04-26T09:39:38.946Z</time></trkpt><trkpt lat="44.3389015" lon="7.6344918"><ele>536.0</ele><time>2026-04-26T09:39:39.946Z</time></trkpt><trkpt lat="44.3388152" lon="7.6343428"><ele>536.75</ele><time>2026-04-26T09:39:40.946Z</time></trkpt><trkpt lat="44.3387286" lon="7.634187"><ele>537.5</ele><time>2026-04-26T09:39:41.946Z</time></trkpt><trkpt lat="44.3386419" lon="7.6340287"><ele>538.25</ele><time>2026-04-26T09:39:42.946Z</time></trkpt><trkpt lat="44.3385546" lon="7.6338749"><ele>539.0</ele><time>2026-04-26T09:39:43.945Z</time></trkpt><trkpt lat="44.338462" lon="7.6337294"><ele>539.5</ele><time>2026-04-26T09:39:44.946Z</time></trkpt><trkpt lat="44.3383653" lon="7.6335926"><ele>540.0</ele><time>2026-04-26T09:39:45.946Z</time></trkpt><trkpt lat="44.3382584" lon="7.6334606"><ele>540.5</ele><time>2026-04-26T09:39:46.946Z</time></trkpt><trkpt lat="44.3381412" lon="7.6333381"><ele>541.0</ele><time>2026-04-26T09:39:47.946Z</time></trkpt><trkpt lat="44.3380258" lon="7.6331995"><ele>541.0</ele><time>2026-04-26T09:39:48.946Z</time></trkpt><trkpt lat="44.3379104" lon="7.6330681"><ele>541.0</ele><time>2026-04-26T09:39:49.946Z</time></trkpt><trkpt lat="44.3377929" lon="7.6329413"><ele>541.0</ele><time>2026-04-26T09:39:50.946Z</time></trkpt><trkpt lat="44.3376887" lon="7.6328078"><ele>541.0</ele><time>2026-04-26T09:39:51.946Z</time></trkpt><trkpt lat="44.3375883" lon="7.6326661"><ele>541.0</ele><time>2026-04-26T09:39:52.946Z</time></trkpt><trkpt lat="44.337488" lon="7.6325085"><ele>541.0</ele><time>2026-04-26T09:39:53.945Z</time></trkpt><trkpt lat="44.3373848" lon="7.6323264"><ele>541.0</ele><time>2026-04-26T09:39:54.946Z</time></trkpt><trkpt lat="44.337276" lon="7.6321453"><ele>542.6666666666667</ele><time>2026-04-26T09:39:55.946Z</time></trkpt><trkpt lat="44.3371684" lon="7.6319559"><ele>544.3333333333334</ele><time>2026-04-26T09:39:56.945Z</time></trkpt><trkpt lat="44.3370572" lon="7.631758"><ele>546.0</ele><time>2026-04-26T09:39:57.946Z</time></trkpt><trkpt lat="44.3369386" lon="7.6315663"><ele>546.0</ele><time>2026-04-26T09:39:58.946Z</time></trkpt><trkpt lat="44.3368231" lon="7.6313685"><ele>546.0</ele><time>2026-04-26T09:39:59.945Z</time></trkpt><trkpt lat="44.3367043" lon="7.6311657"><ele>546.0</ele><time>2026-04-26T09:40:00.946Z</time></trkpt><trkpt lat="44.3365877" lon="7.6309654"><ele>546.3333333333334</ele><time>2026-04-26T09:40:01.946Z</time></trkpt><trkpt lat="44.3364724" lon="7.6307637"><ele>546.6666666666667</ele><time>2026-04-26T09:40:02.946Z</time></trkpt><trkpt lat="44.3363606" lon="7.6305673"><ele>547.0</ele><time>2026-04-26T09:40:03.946Z</time></trkpt><trkpt lat="44.3362626" lon="7.6303854"><ele>548.25</ele><time>2026-04-26T09:40:04.946Z</time></trkpt><trkpt lat="44.3361691" lon="7.6302113"><ele>549.5</ele><time>2026-04-26T09:40:05.946Z</time></trkpt><trkpt lat="44.3360843" lon="7.6300532"><ele>550.75</ele><time>2026-04-26T09:40:06.946Z</time></trkpt><trkpt lat="44.3360012" lon="7.6299154"><ele>552.0</ele><time>2026-04-26T09:40:07.946Z</time></trkpt><trkpt lat="44.3359111" lon="7.6297925"><ele>552.0</ele><time>2026-04-26T09:40:08.946Z</time></trkpt><trkpt lat="44.3358103" lon="7.629689"><ele>552.0</ele><time>2026-04-26T09:40:09.946Z</time></trkpt><trkpt lat="44.3357" lon="7.6296033"><ele>552.0</ele><time>2026-04-26T09:40:10.946Z</time></trkpt><trkpt lat="44.3355872" lon="7.6295181"><ele>552.0</ele><time>2026-04-26T09:40:11.946Z</time></trkpt><trkpt lat="44.3354801" lon="7.6294379"><ele>552.4</ele><time>2026-04-26T09:40:12.946Z</time></trkpt><trkpt lat="44.3353832" lon="7.6293656"><ele>552.8000000000001</ele><time>2026-04-26T09:40:13.946Z</time></trkpt><trkpt lat="44.3352933" lon="7.6292922"><ele>553.2</ele><time>2026-04-26T09:40:14.945Z</time></trkpt><trkpt lat="44.3352167" lon="7.6292083"><ele>553.6</ele><time>2026-04-26T09:40:15.946Z</time></trkpt><trkpt lat="44.335147" lon="7.629109"><ele>554.0</ele><time>2026-04-26T09:40:16.946Z</time></trkpt><trkpt lat="44.3350904" lon="7.6290067"><ele>554.0</ele><time>2026-04-26T09:40:17.946Z</time></trkpt><trkpt lat="44.3350559" lon="7.6289157"><ele>554.0</ele><time>2026-04-26T09:40:18.946Z</time></trkpt><trkpt lat="44.3350121" lon="7.6288089"><ele>554.0</ele><time>2026-04-26T09:40:20.946Z</time></trkpt><trkpt lat="44.3349601" lon="7.6289031"><ele>554.0</ele><time>2026-04-26T09:40:45.945Z</time></trkpt><trkpt lat="44.3349426" lon="7.6290342"><ele>554.0</ele><time>2026-04-26T09:40:46.946Z</time></trkpt><trkpt lat="44.3348989" lon="7.6291713"><ele>554.0</ele><time>2026-04-26T09:40:47.946Z</time></trkpt><trkpt lat="44.3348513" lon="7.6292989"><ele>554.0</ele><time>2026-04-26T09:40:48.946Z</time></trkpt><trkpt lat="44.3348" lon="7.6294276"><ele>554.0</ele><time>2026-04-26T09:40:49.946Z</time></trkpt><trkpt lat="44.3347538" lon="7.6295581"><ele>554.0</ele><time>2026-04-26T09:40:50.946Z</time></trkpt><trkpt lat="44.3346957" lon="7.6297098"><ele>554.0</ele><time>2026-04-26T09:40:51.946Z</time></trkpt><trkpt lat="44.3346394" lon="7.629881"><ele>554.0</ele><time>2026-04-26T09:40:52.945Z</time></trkpt><trkpt lat="44.3345794" lon="7.6300437"><ele>554.0</ele><time>2026-04-26T09:40:53.946Z</time></trkpt><trkpt lat="44.3345303" lon="7.6302115"><ele>554.0</ele><time>2026-04-26T09:40:54.946Z</time></trkpt><trkpt lat="44.334482" lon="7.6303636"><ele>554.0</ele><time>2026-04-26T09:40:55.946Z</time></trkpt><trkpt lat="44.3344285" lon="7.630518"><ele>554.0</ele><time>2026-04-26T09:40:56.946Z</time></trkpt><trkpt lat="44.3343589" lon="7.6306712"><ele>554.0</ele><time>2026-04-26T09:40:57.945Z</time></trkpt><trkpt lat="44.3342804" lon="7.6308173"><ele>554.0</ele><time>2026-04-26T09:40:58.946Z</time></trkpt><trkpt lat="44.3342102" lon="7.6309637"><ele>554.0</ele><time>2026-04-26T09:40:59.946Z</time></trkpt><trkpt lat="44.334126" lon="7.6311258"><ele>554.0</ele><time>2026-04-26T09:41:00.946Z</time></trkpt><trkpt lat="44.3340416" lon="7.6312762"><ele>554.0</ele><time>2026-04-26T09:41:01.946Z</time></trkpt><trkpt lat="44.3339516" lon="7.6314355"><ele>554.0</ele><time>2026-04-26T09:41:02.946Z</time></trkpt><trkpt lat="44.3338585" lon="7.6315861"><ele>554.0</ele><time>2026-04-26T09:41:03.946Z</time></trkpt><trkpt lat="44.3337594" lon="7.6317352"><ele>554.25</ele><time>2026-04-26T09:41:04.946Z</time></trkpt><trkpt lat="44.3336696" lon="7.631878"><ele>554.5</ele><time>2026-04-26T09:41:05.946Z</time></trkpt><trkpt lat="44.3335803" lon="7.6320153"><ele>554.75</ele><time>2026-04-26T09:41:06.945Z</time></trkpt><trkpt lat="44.3334985" lon="7.6321451"><ele>555.0</ele><time>2026-04-26T09:41:07.946Z</time></trkpt><trkpt lat="44.333414" lon="7.6322937"><ele>555.0</ele><time>2026-04-26T09:41:08.946Z</time></trkpt><trkpt lat="44.3333215" lon="7.6324249"><ele>555.0</ele><time>2026-04-26T09:41:09.946Z</time></trkpt><trkpt lat="44.3332221" lon="7.6325534"><ele>555.0</ele><time>2026-04-26T09:41:10.946Z</time></trkpt><trkpt lat="44.3331376" lon="7.6326973"><ele>555.0</ele><time>2026-04-26T09:41:11.945Z</time></trkpt><trkpt lat="44.3330613" lon="7.6328501"><ele>555.5</ele><time>2026-04-26T09:41:12.946Z</time></trkpt><trkpt lat="44.3329894" lon="7.6329928"><ele>556.0</ele><time>2026-04-26T09:41:13.945Z</time></trkpt><trkpt lat="44.3329165" lon="7.6331343"><ele>556.5</ele><time>2026-04-26T09:41:14.946Z</time></trkpt><trkpt lat="44.3328469" lon="7.6332814"><ele>557.0</ele><time>2026-04-26T09:41:15.946Z</time></trkpt><trkpt lat="44.3327826" lon="7.633419"><ele>557.0</ele><time>2026-04-26T09:41:16.945Z</time></trkpt><trkpt lat="44.332709" lon="7.6335615"><ele>557.0</ele><time>2026-04-26T09:41:17.946Z</time></trkpt><trkpt lat="44.3326278" lon="7.6336844"><ele>557.0</ele><time>2026-04-26T09:41:18.946Z</time></trkpt><trkpt lat="44.3325389" lon="7.6338105"><ele>557.0</ele><time>2026-04-26T09:41:19.946Z</time></trkpt><trkpt lat="44.3324397" lon="7.6339395"><ele>557.0</ele><time>2026-04-26T09:41:20.945Z</time></trkpt><trkpt lat="44.3323345" lon="7.6340413"><ele>557.0</ele><time>2026-04-26T09:41:21.945Z</time></trkpt><trkpt lat="44.3322205" lon="7.634116"><ele>557.0</ele><time>2026-04-26T09:41:22.945Z</time></trkpt><trkpt lat="44.3320959" lon="7.6341813"><ele>557.0</ele><time>2026-04-26T09:41:23.946Z</time></trkpt><trkpt lat="44.3319692" lon="7.634251"><ele>557.5</ele><time>2026-04-26T09:41:24.946Z</time></trkpt><trkpt lat="44.3318478" lon="7.634345"><ele>558.0</ele><time>2026-04-26T09:41:25.946Z</time></trkpt><trkpt lat="44.3317269" lon="7.6344174"><ele>558.5</ele><time>2026-04-26T09:41:26.946Z</time></trkpt><trkpt lat="44.3316065" lon="7.6344834"><ele>559.0</ele><time>2026-04-26T09:41:27.946Z</time></trkpt><trkpt lat="44.3314905" lon="7.6345438"><ele>559.75</ele><time>2026-04-26T09:41:28.946Z</time></trkpt><trkpt lat="44.3313747" lon="7.6346145"><ele>560.5</ele><time>2026-04-26T09:41:29.945Z</time></trkpt><trkpt lat="44.3312765" lon="7.6347069"><ele>561.25</ele><time>2026-04-26T09:41:30.946Z</time></trkpt><trkpt lat="44.3311827" lon="7.6347817"><ele>562.0</ele><time>2026-04-26T09:41:31.946Z</time></trkpt><trkpt lat="44.3310823" lon="7.6348309"><ele>562.0</ele><time>2026-04-26T09:41:32.946Z</time></trkpt><trkpt lat="44.3309873" lon="7.6348489"><ele>562.0</ele><time>2026-04-26T09:41:33.945Z</time></trkpt><trkpt lat="44.3309111" lon="7.6348699"><ele>562.0</ele><time>2026-04-26T09:41:34.946Z</time></trkpt><trkpt lat="44.3308432" lon="7.6349016"><ele>562.0</ele><time>2026-04-26T09:41:35.946Z</time></trkpt><trkpt lat="44.3307791" lon="7.6349881"><ele>562.0</ele><time>2026-04-26T09:41:36.946Z</time></trkpt><trkpt lat="44.3307206" lon="7.6350923"><ele>562.0</ele><time>2026-04-26T09:41:37.946Z</time></trkpt><trkpt lat="44.3306787" lon="7.6351639"><ele>562.0</ele><time>2026-04-26T09:41:38.946Z</time></trkpt><trkpt lat="44.3306611" lon="7.6352712"><ele>562.0</ele><time>2026-04-26T09:41:51.946Z</time></trkpt><trkpt lat="44.3307232" lon="7.6354545"><ele>562.0</ele><time>2026-04-26T09:41:53.946Z</time></trkpt><trkpt lat="44.3307754" lon="7.6355815"><ele>562.0</ele><time>2026-04-26T09:41:54.946Z</time></trkpt><trkpt lat="44.3308445" lon="7.6357153"><ele>562.0</ele><time>2026-04-26T09:41:55.946Z</time></trkpt><trkpt lat="44.3309333" lon="7.6358483"><ele>561.5</ele><time>2026-04-26T09:41:56.945Z</time></trkpt><trkpt lat="44.3310353" lon="7.6359735"><ele>561.0</ele><time>2026-04-26T09:41:57.946Z</time></trkpt><trkpt lat="44.3311331" lon="7.6360975"><ele>560.5</ele><time>2026-04-26T09:41:58.946Z</time></trkpt><trkpt lat="44.3312292" lon="7.6362434"><ele>560.0</ele><time>2026-04-26T09:41:59.946Z</time></trkpt><trkpt lat="44.3313218" lon="7.6363848"><ele>559.5</ele><time>2026-04-26T09:42:00.945Z</time></trkpt><trkpt lat="44.33141" lon="7.6365169"><ele>559.0</ele><time>2026-04-26T09:42:01.946Z</time></trkpt><trkpt lat="44.3314869" lon="7.6366494"><ele>558.5</ele><time>2026-04-26T09:42:02.946Z</time></trkpt><trkpt lat="44.3315605" lon="7.6367868"><ele>558.0</ele><time>2026-04-26T09:42:03.946Z</time></trkpt><trkpt lat="44.3316207" lon="7.6369331"><ele>558.0</ele><time>2026-04-26T09:42:04.945Z</time></trkpt><trkpt lat="44.331692" lon="7.6370762"><ele>558.0</ele><time>2026-04-26T09:42:05.946Z</time></trkpt><trkpt lat="44.3317659" lon="7.6372203"><ele>558.0</ele><time>2026-04-26T09:42:06.945Z</time></trkpt><trkpt lat="44.3318455" lon="7.6373594"><ele>558.0</ele><time>2026-04-26T09:42:07.946Z</time></trkpt><trkpt lat="44.3319382" lon="7.6374915"><ele>558.0</ele><time>2026-04-26T09:42:08.946Z</time></trkpt><trkpt lat="44.3320346" lon="7.637614"><ele>558.0</ele><time>2026-04-26T09:42:09.945Z</time></trkpt><trkpt lat="44.3321396" lon="7.6377278"><ele>558.0</ele><time>2026-04-26T09:42:10.946Z</time></trkpt><trkpt lat="44.3322538" lon="7.6378363"><ele>558.0</ele><time>2026-04-26T09:42:11.946Z</time></trkpt><trkpt lat="44.3323731" lon="7.6379314"><ele>557.25</ele><time>2026-04-26T09:42:12.946Z</time></trkpt><trkpt lat="44.3324913" lon="7.6380089"><ele>556.5</ele><time>2026-04-26T09:42:13.946Z</time></trkpt><trkpt lat="44.3326021" lon="7.638098"><ele>555.75</ele><time>2026-04-26T09:42:14.946Z</time></trkpt><trkpt lat="44.3327241" lon="7.6382042"><ele>555.0</ele><time>2026-04-26T09:42:15.946Z</time></trkpt><trkpt lat="44.3328505" lon="7.6382995"><ele>555.0</ele><time>2026-04-26T09:42:16.945Z</time></trkpt><trkpt lat="44.3329711" lon="7.638396"><ele>555.0</ele><time>2026-04-26T09:42:17.946Z</time></trkpt><trkpt lat="44.3330981" lon="7.6384877"><ele>555.0</ele><time>2026-04-26T09:42:18.946Z</time></trkpt><trkpt lat="44.3332301" lon="7.6385871"><ele>555.0</ele><time>2026-04-26T09:42:19.945Z</time></trkpt><trkpt lat="44.3333559" lon="7.6386816"><ele>553.5</ele><time>2026-04-26T09:42:20.946Z</time></trkpt><trkpt lat="44.3334883" lon="7.6387707"><ele>552.0</ele><time>2026-04-26T09:42:21.946Z</time></trkpt><trkpt lat="44.3336174" lon="7.6388662"><ele>550.5</ele><time>2026-04-26T09:42:22.946Z</time></trkpt><trkpt lat="44.3337476" lon="7.6389561"><ele>549.0</ele><time>2026-04-26T09:42:23.946Z</time></trkpt><trkpt lat="44.3338639" lon="7.6390413"><ele>549.0</ele><time>2026-04-26T09:42:24.945Z</time></trkpt><trkpt lat="44.3339735" lon="7.6391168"><ele>549.0</ele><time>2026-04-26T09:42:25.945Z</time></trkpt><trkpt lat="44.3340672" lon="7.6391756"><ele>549.0</ele><time>2026-04-26T09:42:26.946Z</time></trkpt><trkpt lat="44.33415" lon="7.6392413"><ele>549.0</ele><time>2026-04-26T09:42:27.946Z</time></trkpt><trkpt lat="44.3342136" lon="7.6392985"><ele>549.0</ele><time>2026-04-26T09:42:28.946Z</time></trkpt><trkpt lat="44.3342678" lon="7.6393545"><ele>549.0</ele><time>2026-04-26T09:42:29.946Z</time></trkpt><trkpt lat="44.3343218" lon="7.6394112"><ele>549.0</ele><time>2026-04-26T09:42:30.945Z</time></trkpt><trkpt lat="44.3343659" lon="7.6394817"><ele>549.0</ele><time>2026-04-26T09:42:31.946Z</time></trkpt><trkpt lat="44.3344004" lon="7.6395566"><ele>549.0</ele><time>2026-04-26T09:42:32.946Z</time></trkpt><trkpt lat="44.3344285" lon="7.6396433"><ele>549.0</ele><time>2026-04-26T09:42:33.946Z</time></trkpt><trkpt lat="44.3344486" lon="7.6397333"><ele>549.0</ele><time>2026-04-26T09:42:34.946Z</time></trkpt><trkpt lat="44.3344661" lon="7.6398278"><ele>549.0</ele><time>2026-04-26T09:42:35.946Z</time></trkpt><trkpt lat="44.3345104" lon="7.6399672"><ele>548.8</ele><time>2026-04-26T09:42:37.945Z</time></trkpt><trkpt lat="44.3345482" lon="7.6401145"><ele>548.5999999999999</ele><time>2026-04-26T09:42:39.946Z</time></trkpt><trkpt lat="44.3345705" lon="7.6402664"><ele>548.4</ele><time>2026-04-26T09:42:41.946Z</time></trkpt><trkpt lat="44.334594" lon="7.6404266"><ele>548.1999999999999</ele><time>2026-04-26T09:42:43.946Z</time></trkpt><trkpt lat="44.3346195" lon="7.6405175"><ele>548.0</ele><time>2026-04-26T09:42:44.946Z</time></trkpt><trkpt lat="44.3346298" lon="7.6406151"><ele>547.4</ele><time>2026-04-26T09:42:45.945Z</time></trkpt><trkpt lat="44.3346592" lon="7.6407296"><ele>546.8</ele><time>2026-04-26T09:42:46.946Z</time></trkpt><trkpt lat="44.3346786" lon="7.6408556"><ele>546.2</ele><time>2026-04-26T09:42:47.946Z</time></trkpt><trkpt lat="44.3346997" lon="7.640996"><ele>545.6</ele><time>2026-04-26T09:42:48.946Z</time></trkpt><trkpt lat="44.3347383" lon="7.6411287"><ele>545.0</ele><time>2026-04-26T09:42:49.945Z</time></trkpt><trkpt lat="44.3347576" lon="7.6412468"><ele>544.3333333333333</ele><time>2026-04-26T09:42:50.946Z</time></trkpt><trkpt lat="44.3347747" lon="7.6413478"><ele>543.6666666666666</ele><time>2026-04-26T09:42:51.946Z</time></trkpt><trkpt lat="44.3347991" lon="7.641447"><ele>543.0</ele><time>2026-04-26T09:42:52.945Z</time></trkpt><trkpt lat="44.3348114" lon="7.641575"><ele>542.3333333333334</ele><time>2026-04-26T09:42:53.945Z</time></trkpt><trkpt lat="44.3348446" lon="7.6416867"><ele>541.6666666666667</ele><time>2026-04-26T09:42:54.946Z</time></trkpt><trkpt lat="44.3348635" lon="7.6418136"><ele>541.0</ele><time>2026-04-26T09:42:55.946Z</time></trkpt><trkpt lat="44.3349073" lon="7.6419403"><ele>540.6</ele><time>2026-04-26T09:42:56.946Z</time></trkpt><trkpt lat="44.3349395" lon="7.6420635"><ele>540.2</ele><time>2026-04-26T09:42:57.946Z</time></trkpt><trkpt lat="44.3349579" lon="7.6421948"><ele>539.8</ele><time>2026-04-26T09:42:58.946Z</time></trkpt><trkpt lat="44.3349802" lon="7.64234"><ele>539.4</ele><time>2026-04-26T09:42:59.945Z</time></trkpt><trkpt lat="44.3350022" lon="7.6424881"><ele>539.0</ele><time>2026-04-26T09:43:00.945Z</time></trkpt><trkpt lat="44.335025" lon="7.6426232"><ele>539.0</ele><time>2026-04-26T09:43:01.946Z</time></trkpt><trkpt lat="44.3350479" lon="7.6427537"><ele>539.0</ele><time>2026-04-26T09:43:02.946Z</time></trkpt><trkpt lat="44.3350773" lon="7.6428944"><ele>539.0</ele><time>2026-04-26T09:43:03.946Z</time></trkpt><trkpt lat="44.3351046" lon="7.6430352"><ele>539.0</ele><time>2026-04-26T09:43:04.946Z</time></trkpt><trkpt lat="44.3351224" lon="7.6431563"><ele>539.0</ele><time>2026-04-26T09:43:05.945Z</time></trkpt><trkpt lat="44.3351417" lon="7.6432568"><ele>539.0</ele><time>2026-04-26T09:43:06.946Z</time></trkpt><trkpt lat="44.3351726" lon="7.6433606"><ele>539.0</ele><time>2026-04-26T09:43:07.946Z</time></trkpt><trkpt lat="44.3352225" lon="7.6434885"><ele>539.0</ele><time>2026-04-26T09:43:08.945Z</time></trkpt><trkpt lat="44.3352748" lon="7.6435964"><ele>539.0</ele><time>2026-04-26T09:43:09.946Z</time></trkpt><trkpt lat="44.3353171" lon="7.643688"><ele>539.0</ele><time>2026-04-26T09:43:10.946Z</time></trkpt><trkpt lat="44.3353566" lon="7.6437698"><ele>539.0</ele><time>2026-04-26T09:43:11.946Z</time></trkpt><trkpt lat="44.3354058" lon="7.6438832"><ele>539.0</ele><time>2026-04-26T09:43:13.946Z</time></trkpt><trkpt lat="44.335356" lon="7.6437825"><ele>539.0</ele><time>2026-04-26T09:44:10.946Z</time></trkpt><trkpt lat="44.3353147" lon="7.6437044"><ele>539.0</ele><time>2026-04-26T09:44:11.945Z</time></trkpt><trkpt lat="44.3352668" lon="7.643607"><ele>539.0</ele><time>2026-04-26T09:44:12.945Z</time></trkpt><trkpt lat="44.3352151" lon="7.6435079"><ele>539.0</ele><time>2026-04-26T09:44:13.946Z</time></trkpt><trkpt lat="44.3351682" lon="7.6434049"><ele>539.0</ele><time>2026-04-26T09:44:14.945Z</time></trkpt><trkpt lat="44.3351346" lon="7.6432939"><ele>539.0</ele><time>2026-04-26T09:44:15.946Z</time></trkpt><trkpt lat="44.3351087" lon="7.6431647"><ele>539.0</ele><time>2026-04-26T09:44:16.946Z</time></trkpt><trkpt lat="44.3350834" lon="7.643029"><ele>539.0</ele><time>2026-04-26T09:44:17.945Z</time></trkpt><trkpt lat="44.3350597" lon="7.6428958"><ele>539.0</ele><time>2026-04-26T09:44:18.946Z</time></trkpt><trkpt lat="44.335035" lon="7.6427587"><ele>539.0</ele><time>2026-04-26T09:44:19.946Z</time></trkpt><trkpt lat="44.3350132" lon="7.6426136"><ele>539.0</ele><time>2026-04-26T09:44:20.946Z</time></trkpt><trkpt lat="44.3349952" lon="7.6424514"><ele>539.0</ele><time>2026-04-26T09:44:21.946Z</time></trkpt><trkpt lat="44.3349745" lon="7.6423058"><ele>539.0</ele><time>2026-04-26T09:44:22.946Z</time></trkpt><trkpt lat="44.3349526" lon="7.6421824"><ele>539.0</ele><time>2026-04-26T09:44:23.946Z</time></trkpt><trkpt lat="44.3349346" lon="7.6420673"><ele>539.0</ele><time>2026-04-26T09:44:24.946Z</time></trkpt><trkpt lat="44.3349083" lon="7.6419592"><ele>539.4</ele><time>2026-04-26T09:44:25.945Z</time></trkpt><trkpt lat="44.3348676" lon="7.6418318"><ele>539.8</ele><time>2026-04-26T09:44:26.946Z</time></trkpt><trkpt lat="44.3348365" lon="7.6417059"><ele>540.2</ele><time>2026-04-26T09:44:27.945Z</time></trkpt><trkpt lat="44.3348208" lon="7.6415687"><ele>540.6</ele><time>2026-04-26T09:44:28.946Z</time></trkpt><trkpt lat="44.3348013" lon="7.6414378"><ele>541.0</ele><time>2026-04-26T09:44:29.946Z</time></trkpt><trkpt lat="44.3347632" lon="7.6413196"><ele>541.0</ele><time>2026-04-26T09:44:30.945Z</time></trkpt><trkpt lat="44.3347351" lon="7.6411993"><ele>541.0</ele><time>2026-04-26T09:44:31.946Z</time></trkpt><trkpt lat="44.3347065" lon="7.6410722"><ele>541.0</ele><time>2026-04-26T09:44:32.946Z</time></trkpt><trkpt lat="44.3346826" lon="7.6409525"><ele>541.0</ele><time>2026-04-26T09:44:33.946Z</time></trkpt><trkpt lat="44.3346653" lon="7.6408401"><ele>541.0</ele><time>2026-04-26T09:44:34.946Z</time></trkpt><trkpt lat="44.3346372" lon="7.6406555"><ele>541.6666666666667</ele><time>2026-04-26T09:44:36.945Z</time></trkpt><trkpt lat="44.3346139" lon="7.6405454"><ele>542.3333333333334</ele><time>2026-04-26T09:44:37.946Z</time></trkpt><trkpt lat="44.3346064" lon="7.6404307"><ele>543.0</ele><time>2026-04-26T09:44:38.945Z</time></trkpt><trkpt lat="44.334593" lon="7.6403415"><ele>543.6666666666666</ele><time>2026-04-26T09:44:39.946Z</time></trkpt><trkpt lat="44.334551" lon="7.6402111"><ele>544.3333333333333</ele><time>2026-04-26T09:44:46.946Z</time></trkpt><trkpt lat="44.3345407" lon="7.6401163"><ele>545.0</ele><time>2026-04-26T09:44:47.946Z</time></trkpt><trkpt lat="44.3345264" lon="7.6400216"><ele>545.5</ele><time>2026-04-26T09:44:48.946Z</time></trkpt><trkpt lat="44.3344711" lon="7.6399301"><ele>546.0</ele><time>2026-04-26T09:44:50.946Z</time></trkpt><trkpt lat="44.3343914" lon="7.6399388"><ele>546.5</ele><time>2026-04-26T09:44:53.946Z</time></trkpt><trkpt lat="44.3343269" lon="7.6399559"><ele>547.0</ele><time>2026-04-26T09:44:54.946Z</time></trkpt><trkpt lat="44.334243" lon="7.6399722"><ele>547.5</ele><time>2026-04-26T09:44:55.945Z</time></trkpt><trkpt lat="44.3341333" lon="7.6399877"><ele>548.0</ele><time>2026-04-26T09:44:56.945Z</time></trkpt><trkpt lat="44.3340158" lon="7.6399986"><ele>548.0</ele><time>2026-04-26T09:44:57.946Z</time></trkpt><trkpt lat="44.333889" lon="7.6400099"><ele>548.0</ele><time>2026-04-26T09:44:58.946Z</time></trkpt><trkpt lat="44.3337614" lon="7.6400344"><ele>548.0</ele><time>2026-04-26T09:44:59.945Z</time></trkpt><trkpt lat="44.333633" lon="7.6400537"><ele>548.0</ele><time>2026-04-26T09:45:00.946Z</time></trkpt><trkpt lat="44.3335028" lon="7.6400742"><ele>548.0</ele><time>2026-04-26T09:45:01.946Z</time></trkpt><trkpt lat="44.3333768" lon="7.6400928"><ele>548.0</ele><time>2026-04-26T09:45:02.946Z</time></trkpt><trkpt lat="44.3332731" lon="7.6401169"><ele>548.0</ele><time>2026-04-26T09:45:03.946Z</time></trkpt><trkpt lat="44.3331581" lon="7.6401364"><ele>548.0</ele><time>2026-04-26T09:45:04.946Z</time></trkpt><trkpt lat="44.3330442" lon="7.6401662"><ele>548.0</ele><time>2026-04-26T09:45:05.946Z</time></trkpt><trkpt lat="44.3329239" lon="7.6402066"><ele>548.0</ele><time>2026-04-26T09:45:06.945Z</time></trkpt><trkpt lat="44.332805" lon="7.6402579"><ele>548.0</ele><time>2026-04-26T09:45:07.946Z</time></trkpt><trkpt lat="44.3326976" lon="7.640309"><ele>548.0</ele><time>2026-04-26T09:45:08.946Z</time></trkpt><trkpt lat="44.3325891" lon="7.6403579"><ele>548.0</ele><time>2026-04-26T09:45:09.946Z</time></trkpt><trkpt lat="44.3324762" lon="7.6404123"><ele>548.0</ele><time>2026-04-26T09:45:10.946Z</time></trkpt><trkpt lat="44.3323611" lon="7.6404555"><ele>548.0</ele><time>2026-04-26T09:45:11.946Z</time></trkpt><trkpt lat="44.3322413" lon="7.6404862"><ele>548.0</ele><time>2026-04-26T09:45:12.946Z</time></trkpt><trkpt lat="44.3321228" lon="7.6405034"><ele>548.75</ele><time>2026-04-26T09:45:13.946Z</time></trkpt><trkpt lat="44.3319968" lon="7.6405042"><ele>549.5</ele><time>2026-04-26T09:45:14.946Z</time></trkpt><trkpt lat="44.3318783" lon="7.6405023"><ele>550.25</ele><time>2026-04-26T09:45:15.946Z</time></trkpt><trkpt lat="44.3317459" lon="7.6405356"><ele>551.0</ele><time>2026-04-26T09:45:16.945Z</time></trkpt><trkpt lat="44.3316138" lon="7.6405764"><ele>551.0</ele><time>2026-04-26T09:45:17.945Z</time></trkpt><trkpt lat="44.3314719" lon="7.6406105"><ele>551.0</ele><time>2026-04-26T09:45:18.945Z</time></trkpt><trkpt lat="44.331329" lon="7.6406514"><ele>551.0</ele><time>2026-04-26T09:45:19.946Z</time></trkpt><trkpt lat="44.331178" lon="7.6406875"><ele>551.0</ele><time>2026-04-26T09:45:20.945Z</time></trkpt><trkpt lat="44.3310293" lon="7.6407148"><ele>551.25</ele><time>2026-04-26T09:45:21.946Z</time></trkpt><trkpt lat="44.3308805" lon="7.6407412"><ele>551.5</ele><time>2026-04-26T09:45:22.946Z</time></trkpt><trkpt lat="44.3307357" lon="7.6407673"><ele>551.75</ele><time>2026-04-26T09:45:23.946Z</time></trkpt><trkpt lat="44.330589" lon="7.6407952"><ele>552.0</ele><time>2026-04-26T09:45:24.946Z</time></trkpt><trkpt lat="44.3304513" lon="7.6408242"><ele>552.4</ele><time>2026-04-26T09:45:25.946Z</time></trkpt><trkpt lat="44.3303244" lon="7.6408426"><ele>552.8000000000001</ele><time>2026-04-26T09:45:26.946Z</time></trkpt><trkpt lat="44.3302133" lon="7.6408538"><ele>553.2</ele><time>2026-04-26T09:45:27.945Z</time></trkpt><trkpt lat="44.3301084" lon="7.6408441"><ele>553.6</ele><time>2026-04-26T09:45:28.945Z</time></trkpt><trkpt lat="44.3300117" lon="7.6407979"><ele>554.0</ele><time>2026-04-26T09:45:29.946Z</time></trkpt><trkpt lat="44.3299008" lon="7.6407267"><ele>554.0</ele><time>2026-04-26T09:45:30.946Z</time></trkpt><trkpt lat="44.3297817" lon="7.640636"><ele>554.0</ele><time>2026-04-26T09:45:31.946Z</time></trkpt><trkpt lat="44.3296552" lon="7.640551"><ele>554.0</ele><time>2026-04-26T09:45:32.946Z</time></trkpt><trkpt lat="44.3295234" lon="7.6404491"><ele>554.0</ele><time>2026-04-26T09:45:33.946Z</time></trkpt><trkpt lat="44.3293827" lon="7.6403528"><ele>555.3333333333333</ele><time>2026-04-26T09:45:34.945Z</time></trkpt><trkpt lat="44.3292462" lon="7.6402541"><ele>556.6666666666666</ele><time>2026-04-26T09:45:35.946Z</time></trkpt><trkpt lat="44.329108" lon="7.6401542"><ele>558.0</ele><time>2026-04-26T09:45:36.945Z</time></trkpt><trkpt lat="44.3289616" lon="7.6400604"><ele>558.6666666666666</ele><time>2026-04-26T09:45:37.946Z</time></trkpt><trkpt lat="44.3288098" lon="7.6399612"><ele>559.3333333333333</ele><time>2026-04-26T09:45:38.946Z</time></trkpt><trkpt lat="44.3286613" lon="7.6398629"><ele>560.0</ele><time>2026-04-26T09:45:39.946Z</time></trkpt><trkpt lat="44.3285118" lon="7.639752"><ele>560.0</ele><time>2026-04-26T09:45:40.946Z</time></trkpt><trkpt lat="44.328372" lon="7.6396357"><ele>560.0</ele><time>2026-04-26T09:45:41.945Z</time></trkpt><trkpt lat="44.3282537" lon="7.6395346"><ele>560.0</ele><time>2026-04-26T09:45:42.946Z</time></trkpt><trkpt lat="44.3281337" lon="7.6394467"><ele>560.0</ele><time>2026-04-26T09:45:43.946Z</time></trkpt><trkpt lat="44.3280083" lon="7.63937"><ele>560.8</ele><time>2026-04-26T09:45:44.945Z</time></trkpt><trkpt lat="44.3279041" lon="7.6392907"><ele>561.6</ele><time>2026-04-26T09:45:45.946Z</time></trkpt><trkpt lat="44.3278168" lon="7.639221"><ele>562.4</ele><time>2026-04-26T09:45:46.946Z</time></trkpt><trkpt lat="44.3277507" lon="7.6391758"><ele>563.2</ele><time>2026-04-26T09:45:47.946Z</time></trkpt><trkpt lat="44.3276563" lon="7.6391179"><ele>564.0</ele><time>2026-04-26T09:45:49.945Z</time></trkpt><trkpt lat="44.327556" lon="7.6391868"><ele>564.0</ele><time>2026-04-26T09:45:56.946Z</time></trkpt><trkpt lat="44.3275241" lon="7.6392687"><ele>564.0</ele><time>2026-04-26T09:45:57.946Z</time></trkpt><trkpt lat="44.3274898" lon="7.6393818"><ele>564.0</ele><time>2026-04-26T09:45:58.946Z</time></trkpt><trkpt lat="44.3274547" lon="7.6395266"><ele>564.0</ele><time>2026-04-26T09:45:59.946Z</time></trkpt><trkpt lat="44.3274227" lon="7.6396941"><ele>564.0</ele><time>2026-04-26T09:46:00.945Z</time></trkpt><trkpt lat="44.3273918" lon="7.6398713"><ele>563.0</ele><time>2026-04-26T09:46:01.946Z</time></trkpt><trkpt lat="44.3273657" lon="7.6400652"><ele>562.0</ele><time>2026-04-26T09:46:02.946Z</time></trkpt><trkpt lat="44.3273459" lon="7.6402766"><ele>561.0</ele><time>2026-04-26T09:46:03.946Z</time></trkpt><trkpt lat="44.3273181" lon="7.6404947"><ele>560.3333333333334</ele><time>2026-04-26T09:46:04.946Z</time></trkpt><trkpt lat="44.3272945" lon="7.6407205"><ele>559.6666666666667</ele><time>2026-04-26T09:46:05.946Z</time></trkpt><trkpt lat="44.327268" lon="7.6409504"><ele>559.0</ele><time>2026-04-26T09:46:06.946Z</time></trkpt><trkpt lat="44.3272366" lon="7.6411793"><ele>560.0</ele><time>2026-04-26T09:46:07.945Z</time></trkpt><trkpt lat="44.3272054" lon="7.6414199"><ele>561.0</ele><time>2026-04-26T09:46:08.945Z</time></trkpt><trkpt lat="44.3271696" lon="7.6416658"><ele>562.0</ele><time>2026-04-26T09:46:09.946Z</time></trkpt><trkpt lat="44.3271399" lon="7.6419216"><ele>561.6666666666667</ele><time>2026-04-26T09:46:10.946Z</time></trkpt><trkpt lat="44.3271071" lon="7.6421836"><ele>561.3333333333334</ele><time>2026-04-26T09:46:11.946Z</time></trkpt><trkpt lat="44.327074" lon="7.642447"><ele>561.0</ele><time>2026-04-26T09:46:12.946Z</time></trkpt><trkpt lat="44.3270361" lon="7.6427168"><ele>562.3333333333334</ele><time>2026-04-26T09:46:13.946Z</time></trkpt><trkpt lat="44.3270016" lon="7.6429816"><ele>563.6666666666667</ele><time>2026-04-26T09:46:14.945Z</time></trkpt><trkpt lat="44.3269649" lon="7.6432443"><ele>565.0</ele><time>2026-04-26T09:46:15.946Z</time></trkpt><trkpt lat="44.3269351" lon="7.6435178"><ele>566.3333333333334</ele><time>2026-04-26T09:46:16.946Z</time></trkpt><trkpt lat="44.3269084" lon="7.6437881"><ele>567.6666666666666</ele><time>2026-04-26T09:46:17.946Z</time></trkpt><trkpt lat="44.3268887" lon="7.6440504"><ele>569.0</ele><time>2026-04-26T09:46:18.946Z</time></trkpt><trkpt lat="44.3268826" lon="7.6443096"><ele>571.0</ele><time>2026-04-26T09:46:19.946Z</time></trkpt><trkpt lat="44.3268886" lon="7.6445657"><ele>573.0</ele><time>2026-04-26T09:46:20.946Z</time></trkpt><trkpt lat="44.3269108" lon="7.6448179"><ele>575.0</ele><time>2026-04-26T09:46:21.945Z</time></trkpt><trkpt lat="44.3269494" lon="7.6450648"><ele>576.6666666666666</ele><time>2026-04-26T09:46:22.946Z</time></trkpt><trkpt lat="44.3270014" lon="7.6453241"><ele>578.3333333333334</ele><time>2026-04-26T09:46:23.945Z</time></trkpt><trkpt lat="44.3270612" lon="7.6455612"><ele>580.0</ele><time>2026-04-26T09:46:24.945Z</time></trkpt><trkpt lat="44.3271198" lon="7.6457957"><ele>580.0</ele><time>2026-04-26T09:46:25.945Z</time></trkpt><trkpt lat="44.3271757" lon="7.6460421"><ele>580.0</ele><time>2026-04-26T09:46:26.946Z</time></trkpt><trkpt lat="44.3272346" lon="7.6462792"><ele>580.0</ele><time>2026-04-26T09:46:27.946Z</time></trkpt><trkpt lat="44.3272942" lon="7.6465051"><ele>577.0</ele><time>2026-04-26T09:46:28.946Z</time></trkpt><trkpt lat="44.3273516" lon="7.6467333"><ele>574.0</ele><time>2026-04-26T09:46:29.946Z</time></trkpt><trkpt lat="44.3274047" lon="7.6469693"><ele>571.0</ele><time>2026-04-26T09:46:30.946Z</time></trkpt><trkpt lat="44.3274595" lon="7.6472066"><ele>571.0</ele><time>2026-04-26T09:46:31.946Z</time></trkpt><trkpt lat="44.3275118" lon="7.6474448"><ele>571.0</ele><time>2026-04-26T09:46:32.946Z</time></trkpt><trkpt lat="44.327562" lon="7.6476833"><ele>571.0</ele><time>2026-04-26T09:46:33.946Z</time></trkpt><trkpt lat="44.3276008" lon="7.6479321"><ele>572.0</ele><time>2026-04-26T09:46:34.946Z</time></trkpt><trkpt lat="44.3276352" lon="7.6481841"><ele>573.0</ele><time>2026-04-26T09:46:35.946Z</time></trkpt><trkpt lat="44.3276684" lon="7.6484326"><ele>574.0</ele><time>2026-04-26T09:46:36.946Z</time></trkpt><trkpt lat="44.3277019" lon="7.6486858"><ele>573.6666666666667</ele><time>2026-04-26T09:46:37.945Z</time></trkpt><trkpt lat="44.3277363" lon="7.6489506"><ele>573.3333333333334</ele><time>2026-04-26T09:46:38.946Z</time></trkpt><trkpt lat="44.3277684" lon="7.6492106"><ele>573.0</ele><time>2026-04-26T09:46:39.946Z</time></trkpt><trkpt lat="44.3278015" lon="7.6494639"><ele>573.0</ele><time>2026-04-26T09:46:40.946Z</time></trkpt><trkpt lat="44.3278336" lon="7.6497196"><ele>573.0</ele><time>2026-04-26T09:46:41.946Z</time></trkpt><trkpt lat="44.3278715" lon="7.6499683"><ele>573.0</ele><time>2026-04-26T09:46:42.946Z</time></trkpt><trkpt lat="44.3278998" lon="7.650222"><ele>572.0</ele><time>2026-04-26T09:46:43.946Z</time></trkpt><trkpt lat="44.3279314" lon="7.6504776"><ele>571.0</ele><time>2026-04-26T09:46:44.946Z</time></trkpt><trkpt lat="44.3279615" lon="7.6507347"><ele>570.0</ele><time>2026-04-26T09:46:45.945Z</time></trkpt><trkpt lat="44.3279929" lon="7.6509942"><ele>570.0</ele><time>2026-04-26T09:46:46.946Z</time></trkpt><trkpt lat="44.328021" lon="7.6512518"><ele>570.0</ele><time>2026-04-26T09:46:47.946Z</time></trkpt><trkpt lat="44.3280508" lon="7.6515104"><ele>570.0</ele><time>2026-04-26T09:46:48.946Z</time></trkpt><trkpt lat="44.3280836" lon="7.6517654"><ele>567.0</ele><time>2026-04-26T09:46:49.946Z</time></trkpt><trkpt lat="44.3281159" lon="7.6520215"><ele>564.0</ele><time>2026-04-26T09:46:50.946Z</time></trkpt><trkpt lat="44.3281505" lon="7.6522857"><ele>561.0</ele><time>2026-04-26T09:46:51.946Z</time></trkpt><trkpt lat="44.3281875" lon="7.6525426"><ele>560.0</ele><time>2026-04-26T09:46:52.946Z</time></trkpt><trkpt lat="44.3282239" lon="7.6527987"><ele>559.0</ele><time>2026-04-26T09:46:53.946Z</time></trkpt><trkpt lat="44.3282603" lon="7.6530595"><ele>558.0</ele><time>2026-04-26T09:46:54.946Z</time></trkpt><trkpt lat="44.3282915" lon="7.6533169"><ele>558.0</ele><time>2026-04-26T09:46:55.946Z</time></trkpt><trkpt lat="44.3283266" lon="7.6535785"><ele>558.0</ele><time>2026-04-26T09:46:56.945Z</time></trkpt><trkpt lat="44.3283622" lon="7.6538381"><ele>558.0</ele><time>2026-04-26T09:46:57.946Z</time></trkpt><trkpt lat="44.3283947" lon="7.6540926"><ele>557.6666666666666</ele><time>2026-04-26T09:46:58.946Z</time></trkpt><trkpt lat="44.3284273" lon="7.6543503"><ele>557.3333333333333</ele><time>2026-04-26T09:46:59.946Z</time></trkpt><trkpt lat="44.3284603" lon="7.6546078"><ele>557.0</ele><time>2026-04-26T09:47:00.946Z</time></trkpt><trkpt lat="44.3285012" lon="7.65486"><ele>557.0</ele><time>2026-04-26T09:47:01.946Z</time></trkpt><trkpt lat="44.3285331" lon="7.6551125"><ele>557.0</ele><time>2026-04-26T09:47:02.946Z</time></trkpt><trkpt lat="44.328566" lon="7.6553646"><ele>557.0</ele><time>2026-04-26T09:47:03.946Z</time></trkpt><trkpt lat="44.328596" lon="7.6556155"><ele>557.0</ele><time>2026-04-26T09:47:04.946Z</time></trkpt><trkpt lat="44.3286289" lon="7.655863"><ele>557.0</ele><time>2026-04-26T09:47:05.946Z</time></trkpt><trkpt lat="44.3286598" lon="7.6561217"><ele>557.0</ele><time>2026-04-26T09:47:06.946Z</time></trkpt><trkpt lat="44.3286896" lon="7.6563824"><ele>557.0</ele><time>2026-04-26T09:47:07.946Z</time></trkpt><trkpt lat="44.3287208" lon="7.6566355"><ele>557.0</ele><time>2026-04-26T09:47:08.946Z</time></trkpt><trkpt lat="44.3287589" lon="7.6569049"><ele>557.0</ele><time>2026-04-26T09:47:09.946Z</time></trkpt><trkpt lat="44.3287917" lon="7.6571605"><ele>557.0</ele><time>2026-04-26T09:47:10.946Z</time></trkpt><trkpt lat="44.3288303" lon="7.6574211"><ele>557.0</ele><time>2026-04-26T09:47:11.946Z</time></trkpt><trkpt lat="44.3288635" lon="7.6576884"><ele>557.0</ele><time>2026-04-26T09:47:12.946Z</time></trkpt><trkpt lat="44.3288931" lon="7.6579444"><ele>557.6666666666666</ele><time>2026-04-26T09:47:13.946Z</time></trkpt><trkpt lat="44.3289277" lon="7.6581986"><ele>558.3333333333334</ele><time>2026-04-26T09:47:14.946Z</time></trkpt><trkpt lat="44.3289602" lon="7.6584584"><ele>559.0</ele><time>2026-04-26T09:47:15.945Z</time></trkpt><trkpt lat="44.3289909" lon="7.658711"><ele>559.6666666666667</ele><time>2026-04-26T09:47:16.946Z</time></trkpt><trkpt lat="44.3290219" lon="7.6589628"><ele>560.3333333333334</ele><time>2026-04-26T09:47:17.946Z</time></trkpt><trkpt lat="44.3290577" lon="7.6592249"><ele>561.0</ele><time>2026-04-26T09:47:18.945Z</time></trkpt><trkpt lat="44.3290948" lon="7.6594781"><ele>561.0</ele><time>2026-04-26T09:47:19.946Z</time></trkpt><trkpt lat="44.3291258" lon="7.6597388"><ele>561.0</ele><time>2026-04-26T09:47:20.945Z</time></trkpt><trkpt lat="44.3291577" lon="7.6600045"><ele>561.0</ele><time>2026-04-26T09:47:21.946Z</time></trkpt><trkpt lat="44.3291922" lon="7.6602765"><ele>561.0</ele><time>2026-04-26T09:47:22.946Z</time></trkpt><trkpt lat="44.3292234" lon="7.6605513"><ele>561.0</ele><time>2026-04-26T09:47:23.946Z</time></trkpt><trkpt lat="44.32926" lon="7.6608254"><ele>561.0</ele><time>2026-04-26T09:47:24.946Z</time></trkpt><trkpt lat="44.3292952" lon="7.6611029"><ele>561.0</ele><time>2026-04-26T09:47:25.946Z</time></trkpt><trkpt lat="44.3293309" lon="7.661371"><ele>561.0</ele><time>2026-04-26T09:47:26.945Z</time></trkpt><trkpt lat="44.3293687" lon="7.6616477"><ele>561.0</ele><time>2026-04-26T09:47:27.946Z</time></trkpt><trkpt lat="44.3294074" lon="7.6619341"><ele>562.3333333333334</ele><time>2026-04-26T09:47:28.946Z</time></trkpt><trkpt lat="44.3294476" lon="7.6622239"><ele>563.6666666666667</ele><time>2026-04-26T09:47:29.946Z</time></trkpt><trkpt lat="44.3294839" lon="7.6625127"><ele>565.0</ele><time>2026-04-26T09:47:30.946Z</time></trkpt><trkpt lat="44.3295183" lon="7.6627805"><ele>565.0</ele><time>2026-04-26T09:47:31.945Z</time></trkpt><trkpt lat="44.3295508" lon="7.6630312"><ele>565.0</ele><time>2026-04-26T09:47:32.946Z</time></trkpt><trkpt lat="44.3295803" lon="7.6632584"><ele>565.0</ele><time>2026-04-26T09:47:33.946Z</time></trkpt><trkpt lat="44.3296091" lon="7.6634745"><ele>565.0</ele><time>2026-04-26T09:47:34.946Z</time></trkpt><trkpt lat="44.3296355" lon="7.6636959"><ele>565.0</ele><time>2026-04-26T09:47:35.946Z</time></trkpt><trkpt lat="44.3296688" lon="7.6639157"><ele>565.0</ele><time>2026-04-26T09:47:36.946Z</time></trkpt><trkpt lat="44.3296977" lon="7.6641373"><ele>565.3333333333334</ele><time>2026-04-26T09:47:37.945Z</time></trkpt><trkpt lat="44.3297259" lon="7.6643524"><ele>565.6666666666666</ele><time>2026-04-26T09:47:38.946Z</time></trkpt><trkpt lat="44.3297505" lon="7.6645734"><ele>566.0</ele><time>2026-04-26T09:47:39.945Z</time></trkpt><trkpt lat="44.3297773" lon="7.6647908"><ele>566.0</ele><time>2026-04-26T09:47:40.946Z</time></trkpt><trkpt lat="44.3298083" lon="7.6650205"><ele>566.0</ele><time>2026-04-26T09:47:41.946Z</time></trkpt><trkpt lat="44.3298355" lon="7.6652341"><ele>566.0</ele><time>2026-04-26T09:47:42.946Z</time></trkpt><trkpt lat="44.3298694" lon="7.6654548"><ele>566.0</ele><time>2026-04-26T09:47:43.945Z</time></trkpt><trkpt lat="44.3298938" lon="7.6656808"><ele>566.0</ele><time>2026-04-26T09:47:44.946Z</time></trkpt><trkpt lat="44.3299113" lon="7.665907"><ele>566.0</ele><time>2026-04-26T09:47:45.945Z</time></trkpt><trkpt lat="44.329928" lon="7.666136"><ele>566.0</ele><time>2026-04-26T09:47:46.946Z</time></trkpt><trkpt lat="44.3299312" lon="7.6663607"><ele>566.0</ele><time>2026-04-26T09:47:47.946Z</time></trkpt><trkpt lat="44.3299244" lon="7.666587"><ele>566.0</ele><time>2026-04-26T09:47:48.945Z</time></trkpt><trkpt lat="44.3299061" lon="7.6668113"><ele>567.0</ele><time>2026-04-26T09:47:49.945Z</time></trkpt><trkpt lat="44.3298816" lon="7.667038"><ele>568.0</ele><time>2026-04-26T09:47:50.946Z</time></trkpt><trkpt lat="44.3298482" lon="7.6672652"><ele>569.0</ele><time>2026-04-26T09:47:51.945Z</time></trkpt><trkpt lat="44.3298029" lon="7.6674887"><ele>569.0</ele><time>2026-04-26T09:47:52.946Z</time></trkpt><trkpt lat="44.3297519" lon="7.6676938"><ele>569.0</ele><time>2026-04-26T09:47:53.946Z</time></trkpt><trkpt lat="44.3296941" lon="7.6678968"><ele>569.0</ele><time>2026-04-26T09:47:54.946Z</time></trkpt><trkpt lat="44.3296316" lon="7.6680949"><ele>570.0</ele><time>2026-04-26T09:47:55.946Z</time></trkpt><trkpt lat="44.3295556" lon="7.6682845"><ele>571.0</ele><time>2026-04-26T09:47:56.946Z</time></trkpt><trkpt lat="44.3294662" lon="7.6684764"><ele>572.0</ele><time>2026-04-26T09:47:57.946Z</time></trkpt><trkpt lat="44.3293741" lon="7.6686622"><ele>572.0</ele><time>2026-04-26T09:47:58.946Z</time></trkpt><trkpt lat="44.3292745" lon="7.6688537"><ele>572.0</ele><time>2026-04-26T09:47:59.946Z</time></trkpt><trkpt lat="44.3291706" lon="7.6690309"><ele>572.0</ele><time>2026-04-26T09:48:00.946Z</time></trkpt><trkpt lat="44.3290583" lon="7.6692001"><ele>572.0</ele><time>2026-04-26T09:48:01.945Z</time></trkpt><trkpt lat="44.3289459" lon="7.6693595"><ele>572.0</ele><time>2026-04-26T09:48:02.946Z</time></trkpt><trkpt lat="44.3288394" lon="7.6695168"><ele>572.0</ele><time>2026-04-26T09:48:03.946Z</time></trkpt><trkpt lat="44.3287353" lon="7.669672"><ele>572.5</ele><time>2026-04-26T09:48:04.945Z</time></trkpt><trkpt lat="44.3286322" lon="7.6698209"><ele>573.0</ele><time>2026-04-26T09:48:05.945Z</time></trkpt><trkpt lat="44.3285374" lon="7.6699608"><ele>573.5</ele><time>2026-04-26T09:48:06.946Z</time></trkpt><trkpt lat="44.3284459" lon="7.6700894"><ele>574.0</ele><time>2026-04-26T09:48:07.946Z</time></trkpt><trkpt lat="44.3283654" lon="7.6702168"><ele>574.5</ele><time>2026-04-26T09:48:08.946Z</time></trkpt><trkpt lat="44.328302" lon="7.6703597"><ele>575.0</ele><time>2026-04-26T09:48:09.946Z</time></trkpt><trkpt lat="44.328252" lon="7.6705185"><ele>575.5</ele><time>2026-04-26T09:48:10.946Z</time></trkpt><trkpt lat="44.328221" lon="7.670706"><ele>576.0</ele><time>2026-04-26T09:48:11.946Z</time></trkpt><trkpt lat="44.3281882" lon="7.6709074"><ele>575.6666666666666</ele><time>2026-04-26T09:48:12.945Z</time></trkpt><trkpt lat="44.3281549" lon="7.6711085"><ele>575.3333333333333</ele><time>2026-04-26T09:48:13.946Z</time></trkpt><trkpt lat="44.3281324" lon="7.6713195"><ele>575.0</ele><time>2026-04-26T09:48:14.946Z</time></trkpt><trkpt lat="44.3280989" lon="7.6715265"><ele>575.0</ele><time>2026-04-26T09:48:15.946Z</time></trkpt><trkpt lat="44.3280667" lon="7.6717367"><ele>575.0</ele><time>2026-04-26T09:48:16.946Z</time></trkpt><trkpt lat="44.3280357" lon="7.6719455"><ele>575.0</ele><time>2026-04-26T09:48:17.946Z</time></trkpt><trkpt lat="44.3280081" lon="7.6721491"><ele>573.5</ele><time>2026-04-26T09:48:18.946Z</time></trkpt><trkpt lat="44.3279725" lon="7.67235"><ele>572.0</ele><time>2026-04-26T09:48:19.945Z</time></trkpt><trkpt lat="44.3279366" lon="7.6725565"><ele>570.5</ele><time>2026-04-26T09:48:20.945Z</time></trkpt><trkpt lat="44.3279061" lon="7.6727585"><ele>569.0</ele><time>2026-04-26T09:48:21.946Z</time></trkpt><trkpt lat="44.3278775" lon="7.672952"><ele>568.5</ele><time>2026-04-26T09:48:22.946Z</time></trkpt><trkpt lat="44.3278486" lon="7.6731459"><ele>568.0</ele><time>2026-04-26T09:48:23.946Z</time></trkpt><trkpt lat="44.3278166" lon="7.6733395"><ele>567.5</ele><time>2026-04-26T09:48:24.945Z</time></trkpt><trkpt lat="44.3277933" lon="7.6735317"><ele>567.0</ele><time>2026-04-26T09:48:25.946Z</time></trkpt><trkpt lat="44.3277629" lon="7.6737217"><ele>567.0</ele><time>2026-04-26T09:48:26.946Z</time></trkpt><trkpt lat="44.3277382" lon="7.6739128"><ele>567.0</ele><time>2026-04-26T09:48:27.946Z</time></trkpt><trkpt lat="44.327713" lon="7.6741029"><ele>567.0</ele><time>2026-04-26T09:48:28.946Z</time></trkpt><trkpt lat="44.3276883" lon="7.6742926"><ele>567.0</ele><time>2026-04-26T09:48:29.946Z</time></trkpt><trkpt lat="44.3276559" lon="7.6744838"><ele>567.0</ele><time>2026-04-26T09:48:30.946Z</time></trkpt><trkpt lat="44.3276245" lon="7.6746862"><ele>567.0</ele><time>2026-04-26T09:48:31.945Z</time></trkpt><trkpt lat="44.3276025" lon="7.6748821"><ele>567.0</ele><time>2026-04-26T09:48:32.946Z</time></trkpt><trkpt lat="44.3275718" lon="7.675076"><ele>567.0</ele><time>2026-04-26T09:48:33.946Z</time></trkpt><trkpt lat="44.3275421" lon="7.6752726"><ele>567.0</ele><time>2026-04-26T09:48:34.946Z</time></trkpt><trkpt lat="44.3275136" lon="7.675468"><ele>567.0</ele><time>2026-04-26T09:48:35.946Z</time></trkpt><trkpt lat="44.3274858" lon="7.6756609"><ele>567.0</ele><time>2026-04-26T09:48:36.946Z</time></trkpt><trkpt lat="44.3274586" lon="7.6758393"><ele>567.0</ele><time>2026-04-26T09:48:37.946Z</time></trkpt><trkpt lat="44.3274334" lon="7.676006"><ele>567.2</ele><time>2026-04-26T09:48:38.946Z</time></trkpt><trkpt lat="44.3274094" lon="7.6761561"><ele>567.4000000000001</ele><time>2026-04-26T09:48:39.946Z</time></trkpt><trkpt lat="44.3273891" lon="7.6762877"><ele>567.5999999999999</ele><time>2026-04-26T09:48:40.946Z</time></trkpt><trkpt lat="44.3273688" lon="7.6764096"><ele>567.8</ele><time>2026-04-26T09:48:41.946Z</time></trkpt><trkpt lat="44.3273506" lon="7.6765254"><ele>568.0</ele><time>2026-04-26T09:48:42.945Z</time></trkpt><trkpt lat="44.3273319" lon="7.6766347"><ele>568.0</ele><time>2026-04-26T09:48:43.946Z</time></trkpt><trkpt lat="44.3273139" lon="7.6767477"><ele>568.0</ele><time>2026-04-26T09:48:44.946Z</time></trkpt><trkpt lat="44.3273001" lon="7.6768633"><ele>568.0</ele><time>2026-04-26T09:48:45.946Z</time></trkpt><trkpt lat="44.3272838" lon="7.6769702"><ele>568.0</ele><time>2026-04-26T09:48:46.946Z</time></trkpt><trkpt lat="44.3272668" lon="7.6770759"><ele>568.0</ele><time>2026-04-26T09:48:47.946Z</time></trkpt><trkpt lat="44.3272488" lon="7.6771887"><ele>568.0</ele><time>2026-04-26T09:48:48.945Z</time></trkpt><trkpt lat="44.3272389" lon="7.677303"><ele>568.1999999999999</ele><time>2026-04-26T09:48:49.946Z</time></trkpt><trkpt lat="44.3272228" lon="7.6774341"><ele>568.4</ele><time>2026-04-26T09:48:50.945Z</time></trkpt><trkpt lat="44.3272" lon="7.6775702"><ele>568.5999999999999</ele><time>2026-04-26T09:48:51.946Z</time></trkpt><trkpt lat="44.3271756" lon="7.6777183"><ele>568.8</ele><time>2026-04-26T09:48:52.946Z</time></trkpt><trkpt lat="44.3271501" lon="7.6778748"><ele>569.0</ele><time>2026-04-26T09:48:53.946Z</time></trkpt><trkpt lat="44.3271182" lon="7.6780403"><ele>569.75</ele><time>2026-04-26T09:48:54.946Z</time></trkpt><trkpt lat="44.3270912" lon="7.6782225"><ele>570.5</ele><time>2026-04-26T09:48:55.945Z</time></trkpt><trkpt lat="44.3270597" lon="7.6784077"><ele>571.25</ele><time>2026-04-26T09:48:56.946Z</time></trkpt><trkpt lat="44.3270256" lon="7.6786001"><ele>572.0</ele><time>2026-04-26T09:48:57.946Z</time></trkpt><trkpt lat="44.3269879" lon="7.6787973"><ele>572.0</ele><time>2026-04-26T09:48:58.946Z</time></trkpt><trkpt lat="44.3269463" lon="7.6789941"><ele>572.0</ele><time>2026-04-26T09:48:59.946Z</time></trkpt><trkpt lat="44.3268974" lon="7.6791893"><ele>572.0</ele><time>2026-04-26T09:49:00.946Z</time></trkpt><trkpt lat="44.3268426" lon="7.679374"><ele>572.0</ele><time>2026-04-26T09:49:01.946Z</time></trkpt><trkpt lat="44.3267876" lon="7.6795431"><ele>571.6</ele><time>2026-04-26T09:49:02.946Z</time></trkpt><trkpt lat="44.3267316" lon="7.6796898"><ele>571.2</ele><time>2026-04-26T09:49:03.945Z</time></trkpt><trkpt lat="44.3266839" lon="7.6798196"><ele>570.8</ele><time>2026-04-26T09:49:04.945Z</time></trkpt><trkpt lat="44.3266404" lon="7.6799221"><ele>570.4</ele><time>2026-04-26T09:49:05.946Z</time></trkpt><trkpt lat="44.3266061" lon="7.6800109"><ele>570.0</ele><time>2026-04-26T09:49:06.946Z</time></trkpt><trkpt lat="44.3265786" lon="7.6801003"><ele>570.0</ele><time>2026-04-26T09:49:07.946Z</time></trkpt><trkpt lat="44.3265636" lon="7.6801896"><ele>570.0</ele><time>2026-04-26T09:49:08.945Z</time></trkpt><trkpt lat="44.3266172" lon="7.6802907"><ele>570.0</ele><time>2026-04-26T09:49:09.946Z</time></trkpt><trkpt lat="44.326684" lon="7.6803914"><ele>570.0</ele><time>2026-04-26T09:49:10.946Z</time></trkpt><trkpt lat="44.326778" lon="7.680474"><ele>570.0</ele><time>2026-04-26T09:49:11.946Z</time></trkpt><trkpt lat="44.3268831" lon="7.6805681"><ele>568.6666666666666</ele><time>2026-04-26T09:49:12.945Z</time></trkpt><trkpt lat="44.3269967" lon="7.6806816"><ele>567.3333333333333</ele><time>2026-04-26T09:49:13.946Z</time></trkpt><trkpt lat="44.3271112" lon="7.6808144"><ele>566.0</ele><time>2026-04-26T09:49:14.946Z</time></trkpt><trkpt lat="44.327231" lon="7.6809688"><ele>571.3333333333333</ele><time>2026-04-26T09:49:15.946Z</time></trkpt><trkpt lat="44.3273473" lon="7.6811396"><ele>576.6666666666666</ele><time>2026-04-26T09:49:16.946Z</time></trkpt><trkpt lat="44.3274666" lon="7.6813192"><ele>582.0</ele><time>2026-04-26T09:49:17.945Z</time></trkpt><trkpt lat="44.3275828" lon="7.6815096"><ele>582.0</ele><time>2026-04-26T09:49:18.946Z</time></trkpt><trkpt lat="44.327707" lon="7.6817081"><ele>582.0</ele><time>2026-04-26T09:49:19.946Z</time></trkpt><trkpt lat="44.327833" lon="7.6819113"><ele>582.0</ele><time>2026-04-26T09:49:20.945Z</time></trkpt><trkpt lat="44.3279568" lon="7.6821187"><ele>576.3333333333334</ele><time>2026-04-26T09:49:21.946Z</time></trkpt><trkpt lat="44.3280777" lon="7.6823292"><ele>570.6666666666667</ele><time>2026-04-26T09:49:22.945Z</time></trkpt><trkpt lat="44.3282024" lon="7.6825434"><ele>565.0</ele><time>2026-04-26T09:49:23.945Z</time></trkpt><trkpt lat="44.3283248" lon="7.6827496"><ele>566.0</ele><time>2026-04-26T09:49:24.946Z</time></trkpt><trkpt lat="44.3284472" lon="7.6829509"><ele>567.0</ele><time>2026-04-26T09:49:25.946Z</time></trkpt><trkpt lat="44.3285645" lon="7.6831656"><ele>568.0</ele><time>2026-04-26T09:49:26.945Z</time></trkpt><trkpt lat="44.328685" lon="7.6833644"><ele>568.0</ele><time>2026-04-26T09:49:27.946Z</time></trkpt><trkpt lat="44.3288075" lon="7.6835701"><ele>568.0</ele><time>2026-04-26T09:49:28.946Z</time></trkpt><trkpt lat="44.3289313" lon="7.683778"><ele>568.0</ele><time>2026-04-26T09:49:29.946Z</time></trkpt><trkpt lat="44.3290616" lon="7.6839929"><ele>565.6666666666667</ele><time>2026-04-26T09:49:30.946Z</time></trkpt><trkpt lat="44.3291969" lon="7.6842116"><ele>563.3333333333334</ele><time>2026-04-26T09:49:31.946Z</time></trkpt><trkpt lat="44.3293324" lon="7.6844292"><ele>561.0</ele><time>2026-04-26T09:49:32.945Z</time></trkpt><trkpt lat="44.3294703" lon="7.6846619"><ele>561.0</ele><time>2026-04-26T09:49:33.945Z</time></trkpt><trkpt lat="44.3296088" lon="7.6848926"><ele>561.0</ele><time>2026-04-26T09:49:34.946Z</time></trkpt><trkpt lat="44.3297462" lon="7.6851196"><ele>561.0</ele><time>2026-04-26T09:49:35.945Z</time></trkpt><trkpt lat="44.3298863" lon="7.6853486"><ele>559.6666666666666</ele><time>2026-04-26T09:49:36.946Z</time></trkpt><trkpt lat="44.3300251" lon="7.6855781"><ele>558.3333333333333</ele><time>2026-04-26T09:49:37.946Z</time></trkpt><trkpt lat="44.3301714" lon="7.6858053"><ele>557.0</ele><time>2026-04-26T09:49:38.946Z</time></trkpt><trkpt lat="44.3303173" lon="7.6860489"><ele>557.0</ele><time>2026-04-26T09:49:39.945Z</time></trkpt><trkpt lat="44.3304648" lon="7.6862868"><ele>557.0</ele><time>2026-04-26T09:49:40.945Z</time></trkpt><trkpt lat="44.3306141" lon="7.6865244"><ele>556.0</ele><time>2026-04-26T09:49:41.946Z</time></trkpt><trkpt lat="44.3307712" lon="7.6867612"><ele>555.0</ele><time>2026-04-26T09:49:42.946Z</time></trkpt><trkpt lat="44.3309292" lon="7.6869838"><ele>554.5</ele><time>2026-04-26T09:49:43.946Z</time></trkpt><trkpt lat="44.3310924" lon="7.6872016"><ele>554.0</ele><time>2026-04-26T09:49:44.946Z</time></trkpt><trkpt lat="44.3312619" lon="7.6874119"><ele>554.0</ele><time>2026-04-26T09:49:45.946Z</time></trkpt><trkpt lat="44.331436" lon="7.6876153"><ele>554.0</ele><time>2026-04-26T09:49:46.945Z</time></trkpt><trkpt lat="44.3316123" lon="7.6878174"><ele>554.0</ele><time>2026-04-26T09:49:47.946Z</time></trkpt><trkpt lat="44.3317904" lon="7.6880153"><ele>554.0</ele><time>2026-04-26T09:49:48.946Z</time></trkpt><trkpt lat="44.3319615" lon="7.6881984"><ele>554.0</ele><time>2026-04-26T09:49:49.946Z</time></trkpt><trkpt lat="44.3321189" lon="7.6883659"><ele>552.75</ele><time>2026-04-26T09:49:50.946Z</time></trkpt><trkpt lat="44.3322569" lon="7.6885145"><ele>551.5</ele><time>2026-04-26T09:49:51.946Z</time></trkpt><trkpt lat="44.3323762" lon="7.6886359"><ele>550.25</ele><time>2026-04-26T09:49:52.946Z</time></trkpt><trkpt lat="44.3324763" lon="7.6887378"><ele>549.0</ele><time>2026-04-26T09:49:53.946Z</time></trkpt><trkpt lat="44.3325616" lon="7.6888266"><ele>552.0</ele><time>2026-04-26T09:49:54.945Z</time></trkpt><trkpt lat="44.3326245" lon="7.6889371"><ele>555.0</ele><time>2026-04-26T09:49:55.946Z</time></trkpt><trkpt lat="44.3326941" lon="7.6890803"><ele>558.0</ele><time>2026-04-26T09:49:56.946Z</time></trkpt><trkpt lat="44.3327661" lon="7.6892428"><ele>561.0</ele><time>2026-04-26T09:49:57.945Z</time></trkpt><trkpt lat="44.3328414" lon="7.6894174"><ele>558.75</ele><time>2026-04-26T09:49:58.946Z</time></trkpt><trkpt lat="44.33291" lon="7.689593"><ele>556.5</ele><time>2026-04-26T09:49:59.945Z</time></trkpt><trkpt lat="44.3329778" lon="7.6897615"><ele>554.25</ele><time>2026-04-26T09:50:00.946Z</time></trkpt><trkpt lat="44.3330598" lon="7.6898996"><ele>552.0</ele><time>2026-04-26T09:50:01.946Z</time></trkpt><trkpt lat="44.3331506" lon="7.6900321"><ele>552.0</ele><time>2026-04-26T09:50:02.945Z</time></trkpt><trkpt lat="44.3332423" lon="7.6901612"><ele>552.0</ele><time>2026-04-26T09:50:03.946Z</time></trkpt><trkpt lat="44.3333358" lon="7.6903154"><ele>552.0</ele><time>2026-04-26T09:50:04.946Z</time></trkpt><trkpt lat="44.333426" lon="7.6904659"><ele>552.0</ele><time>2026-04-26T09:50:05.946Z</time></trkpt><trkpt lat="44.3335058" lon="7.6906266"><ele>554.5</ele><time>2026-04-26T09:50:06.946Z</time></trkpt><trkpt lat="44.3335813" lon="7.6908025"><ele>557.0</ele><time>2026-04-26T09:50:07.945Z</time></trkpt><trkpt lat="44.3336382" lon="7.6909768"><ele>559.5</ele><time>2026-04-26T09:50:08.946Z</time></trkpt><trkpt lat="44.3336906" lon="7.691148"><ele>562.0</ele><time>2026-04-26T09:50:09.946Z</time></trkpt><trkpt lat="44.3337488" lon="7.691305"><ele>562.2</ele><time>2026-04-26T09:50:10.946Z</time></trkpt><trkpt lat="44.3338161" lon="7.6914426"><ele>562.4000000000001</ele><time>2026-04-26T09:50:11.946Z</time></trkpt><trkpt lat="44.333898" lon="7.6915659"><ele>562.5999999999999</ele><time>2026-04-26T09:50:12.946Z</time></trkpt><trkpt lat="44.3339779" lon="7.691674"><ele>562.8</ele><time>2026-04-26T09:50:13.946Z</time></trkpt><trkpt lat="44.334045" lon="7.6917745"><ele>563.0</ele><time>2026-04-26T09:50:14.946Z</time></trkpt><trkpt lat="44.3341018" lon="7.6918384"><ele>564.3333333333333</ele><time>2026-04-26T09:50:15.946Z</time></trkpt><trkpt lat="44.3341576" lon="7.6919091"><ele>565.6666666666666</ele><time>2026-04-26T09:50:16.945Z</time></trkpt><trkpt lat="44.334219" lon="7.6919739"><ele>567.0</ele><time>2026-04-26T09:50:17.945Z</time></trkpt><trkpt lat="44.3342957" lon="7.6920128"><ele>568.3333333333334</ele><time>2026-04-26T09:50:18.946Z</time></trkpt><trkpt lat="44.3343779" lon="7.6920145"><ele>569.6666666666667</ele><time>2026-04-26T09:50:19.945Z</time></trkpt><trkpt lat="44.3344617" lon="7.6920131"><ele>571.0</ele><time>2026-04-26T09:50:20.946Z</time></trkpt><trkpt lat="44.3345439" lon="7.691998"><ele>571.0</ele><time>2026-04-26T09:50:21.946Z</time></trkpt><trkpt lat="44.3346276" lon="7.6919777"><ele>571.0</ele><time>2026-04-26T09:50:22.946Z</time></trkpt><trkpt lat="44.3347095" lon="7.6919551"><ele>571.0</ele><time>2026-04-26T09:50:23.946Z</time></trkpt><trkpt lat="44.3347936" lon="7.6919403"><ele>571.0</ele><time>2026-04-26T09:50:24.946Z</time></trkpt><trkpt lat="44.3348765" lon="7.691914"><ele>571.0</ele><time>2026-04-26T09:50:25.945Z</time></trkpt><trkpt lat="44.3349549" lon="7.6919073"><ele>571.0</ele><time>2026-04-26T09:50:26.946Z</time></trkpt><trkpt lat="44.3350405" lon="7.6919498"><ele>570.0</ele><time>2026-04-26T09:50:27.945Z</time></trkpt><trkpt lat="44.3351214" lon="7.6920339"><ele>569.0</ele><time>2026-04-26T09:50:28.946Z</time></trkpt><trkpt lat="44.3351929" lon="7.692135"><ele>568.0</ele><time>2026-04-26T09:50:29.946Z</time></trkpt><trkpt lat="44.335274" lon="7.6922359"><ele>567.0</ele><time>2026-04-26T09:50:30.946Z</time></trkpt><trkpt lat="44.3353607" lon="7.6923101"><ele>566.0</ele><time>2026-04-26T09:50:31.946Z</time></trkpt><trkpt lat="44.3354744" lon="7.6923351"><ele>564.2</ele><time>2026-04-26T09:50:32.946Z</time></trkpt><trkpt lat="44.3355806" lon="7.6923733"><ele>562.4000000000001</ele><time>2026-04-26T09:50:33.946Z</time></trkpt><trkpt lat="44.3356829" lon="7.6924137"><ele>560.6</ele><time>2026-04-26T09:50:34.946Z</time></trkpt><trkpt lat="44.3357811" lon="7.6924632"><ele>558.8000000000001</ele><time>2026-04-26T09:50:35.945Z</time></trkpt><trkpt lat="44.3358752" lon="7.6925346"><ele>557.0</ele><time>2026-04-26T09:50:36.946Z</time></trkpt><trkpt lat="44.3359694" lon="7.6926197"><ele>557.0</ele><time>2026-04-26T09:50:37.946Z</time></trkpt><trkpt lat="44.3360669" lon="7.6927087"><ele>557.0</ele><time>2026-04-26T09:50:38.946Z</time></trkpt><trkpt lat="44.336164" lon="7.6927899"><ele>557.0</ele><time>2026-04-26T09:50:39.945Z</time></trkpt><trkpt lat="44.3362799" lon="7.6928886"><ele>557.0</ele><time>2026-04-26T09:50:40.946Z</time></trkpt><trkpt lat="44.3363989" lon="7.6929791"><ele>558.5</ele><time>2026-04-26T09:50:41.946Z</time></trkpt><trkpt lat="44.3365129" lon="7.6930648"><ele>560.0</ele><time>2026-04-26T09:50:42.946Z</time></trkpt><trkpt lat="44.3366256" lon="7.6931344"><ele>561.5</ele><time>2026-04-26T09:50:43.945Z</time></trkpt><trkpt lat="44.3367437" lon="7.6931902"><ele>563.0</ele><time>2026-04-26T09:50:44.946Z</time></trkpt><trkpt lat="44.3368686" lon="7.6932325"><ele>563.0</ele><time>2026-04-26T09:50:45.946Z</time></trkpt><trkpt lat="44.3369924" lon="7.6932598"><ele>563.0</ele><time>2026-04-26T09:50:46.946Z</time></trkpt><trkpt lat="44.3371048" lon="7.6932883"><ele>563.0</ele><time>2026-04-26T09:50:47.946Z</time></trkpt><trkpt lat="44.337201" lon="7.6933339"><ele>563.0</ele><time>2026-04-26T09:50:48.946Z</time></trkpt><trkpt lat="44.3372782" lon="7.693395"><ele>563.0</ele><time>2026-04-26T09:50:49.946Z</time></trkpt><trkpt lat="44.3373465" lon="7.6934978"><ele>563.25</ele><time>2026-04-26T09:50:50.946Z</time></trkpt><trkpt lat="44.337412" lon="7.6936118"><ele>563.5</ele><time>2026-04-26T09:50:51.946Z</time></trkpt><trkpt lat="44.3374676" lon="7.693745"><ele>563.75</ele><time>2026-04-26T09:50:52.946Z</time></trkpt><trkpt lat="44.3375139" lon="7.6939016"><ele>564.0</ele><time>2026-04-26T09:50:53.945Z</time></trkpt><trkpt lat="44.3375592" lon="7.6940656"><ele>564.0</ele><time>2026-04-26T09:50:54.945Z</time></trkpt><trkpt lat="44.3375972" lon="7.6942292"><ele>564.0</ele><time>2026-04-26T09:50:55.946Z</time></trkpt><trkpt lat="44.3376241" lon="7.6943919"><ele>564.0</ele><time>2026-04-26T09:50:56.946Z</time></trkpt><trkpt lat="44.3376584" lon="7.6945281"><ele>564.0</ele><time>2026-04-26T09:50:57.946Z</time></trkpt><trkpt lat="44.3376834" lon="7.6946593"><ele>564.0</ele><time>2026-04-26T09:50:58.946Z</time></trkpt><trkpt lat="44.3376921" lon="7.6947836"><ele>562.8</ele><time>2026-04-26T09:50:59.945Z</time></trkpt><trkpt lat="44.3376474" lon="7.6948866"><ele>561.5999999999999</ele><time>2026-04-26T09:51:00.946Z</time></trkpt><trkpt lat="44.3375855" lon="7.694953"><ele>560.4</ele><time>2026-04-26T09:51:01.946Z</time></trkpt><trkpt lat="44.3374981" lon="7.6950049"><ele>559.1999999999999</ele><time>2026-04-26T09:51:02.946Z</time></trkpt><trkpt lat="44.3373876" lon="7.6950491"><ele>558.0</ele><time>2026-04-26T09:51:03.946Z</time></trkpt><trkpt lat="44.3372609" lon="7.6950773"><ele>560.25</ele><time>2026-04-26T09:51:04.946Z</time></trkpt><trkpt lat="44.3371225" lon="7.6951083"><ele>562.5</ele><time>2026-04-26T09:51:05.946Z</time></trkpt><trkpt lat="44.3369762" lon="7.6951456"><ele>564.75</ele><time>2026-04-26T09:51:06.946Z</time></trkpt><trkpt lat="44.3368208" lon="7.695187"><ele>567.0</ele><time>2026-04-26T09:51:07.945Z</time></trkpt><trkpt lat="44.336668" lon="7.6952204"><ele>567.0</ele><time>2026-04-26T09:51:08.946Z</time></trkpt><trkpt lat="44.3365204" lon="7.6952524"><ele>567.0</ele><time>2026-04-26T09:51:09.946Z</time></trkpt><trkpt lat="44.3363684" lon="7.6952773"><ele>567.0</ele><time>2026-04-26T09:51:10.945Z</time></trkpt><trkpt lat="44.3362206" lon="7.6952948"><ele>565.25</ele><time>2026-04-26T09:51:11.946Z</time></trkpt><trkpt lat="44.3360745" lon="7.6953193"><ele>563.5</ele><time>2026-04-26T09:51:12.946Z</time></trkpt><trkpt lat="44.3359314" lon="7.6953666"><ele>561.75</ele><time>2026-04-26T09:51:13.946Z</time></trkpt><trkpt lat="44.3357956" lon="7.6954274"><ele>560.0</ele><time>2026-04-26T09:51:14.946Z</time></trkpt><trkpt lat="44.3356529" lon="7.6954956"><ele>561.6666666666666</ele><time>2026-04-26T09:51:15.946Z</time></trkpt><trkpt lat="44.3355112" lon="7.6955705"><ele>563.3333333333334</ele><time>2026-04-26T09:51:16.946Z</time></trkpt><trkpt lat="44.3353711" lon="7.6956413"><ele>565.0</ele><time>2026-04-26T09:51:17.946Z</time></trkpt><trkpt lat="44.3352348" lon="7.69573"><ele>565.0</ele><time>2026-04-26T09:51:18.945Z</time></trkpt><trkpt lat="44.3351033" lon="7.6958148"><ele>565.0</ele><time>2026-04-26T09:51:19.946Z</time></trkpt><trkpt lat="44.3349659" lon="7.6958878"><ele>565.0</ele><time>2026-04-26T09:51:20.946Z</time></trkpt><trkpt lat="44.3348328" lon="7.6959619"><ele>565.0</ele><time>2026-04-26T09:51:21.946Z</time></trkpt><trkpt lat="44.3347107" lon="7.6960357"><ele>564.5</ele><time>2026-04-26T09:51:22.946Z</time></trkpt><trkpt lat="44.3346075" lon="7.6961211"><ele>564.0</ele><time>2026-04-26T09:51:23.945Z</time></trkpt><trkpt lat="44.3345046" lon="7.6962029"><ele>563.5</ele><time>2026-04-26T09:51:24.945Z</time></trkpt><trkpt lat="44.3343949" lon="7.6962844"><ele>563.0</ele><time>2026-04-26T09:51:25.946Z</time></trkpt><trkpt lat="44.3342773" lon="7.6963472"><ele>563.0</ele><time>2026-04-26T09:51:26.945Z</time></trkpt><trkpt lat="44.3341464" lon="7.6963858"><ele>563.0</ele><time>2026-04-26T09:51:27.946Z</time></trkpt><trkpt lat="44.3340362" lon="7.6964269"><ele>563.0</ele><time>2026-04-26T09:51:28.946Z</time></trkpt><trkpt lat="44.3339308" lon="7.6964425"><ele>563.0</ele><time>2026-04-26T09:51:29.945Z</time></trkpt><trkpt lat="44.3338326" lon="7.6964615"><ele>564.1666666666666</ele><time>2026-04-26T09:51:30.946Z</time></trkpt><trkpt lat="44.3337331" lon="7.696478"><ele>565.3333333333333</ele><time>2026-04-26T09:51:31.946Z</time></trkpt><trkpt lat="44.3336447" lon="7.6965057"><ele>566.5</ele><time>2026-04-26T09:51:32.946Z</time></trkpt><trkpt lat="44.3335689" lon="7.6965598"><ele>567.6666666666666</ele><time>2026-04-26T09:51:33.946Z</time></trkpt><trkpt lat="44.333499" lon="7.6966104"><ele>568.8333333333334</ele><time>2026-04-26T09:51:34.946Z</time></trkpt><trkpt lat="44.3334461" lon="7.6967148"><ele>570.0</ele><time>2026-04-26T09:51:36.945Z</time></trkpt><trkpt lat="44.3334393" lon="7.6968375"><ele>569.3333333333334</ele><time>2026-04-26T09:51:39.945Z</time></trkpt><trkpt lat="44.3334552" lon="7.6969234"><ele>568.6666666666666</ele><time>2026-04-26T09:51:42.946Z</time></trkpt><trkpt lat="44.3334747" lon="7.6970317"><ele>568.0</ele><time>2026-04-26T09:51:44.946Z</time></trkpt><trkpt lat="44.3335172" lon="7.6971429"><ele>567.3333333333333</ele><time>2026-04-26T09:51:45.946Z</time></trkpt><trkpt lat="44.3335524" lon="7.6972693"><ele>566.6666666666666</ele><time>2026-04-26T09:51:46.946Z</time></trkpt><trkpt lat="44.3335892" lon="7.6974166"><ele>566.0</ele><time>2026-04-26T09:51:47.946Z</time></trkpt><trkpt lat="44.3336336" lon="7.6975122"><ele>566.0</ele><time>2026-04-26T09:51:48.946Z</time></trkpt><trkpt lat="44.3336832" lon="7.6975899"><ele>566.0</ele><time>2026-04-26T09:51:49.946Z</time></trkpt><trkpt lat="44.3337615" lon="7.6976207"><ele>566.0</ele><time>2026-04-26T09:51:50.946Z</time></trkpt><trkpt lat="44.333857" lon="7.697656"><ele>566.0</ele><time>2026-04-26T09:51:51.946Z</time></trkpt><trkpt lat="44.3339699" lon="7.6976738"><ele>566.0</ele><time>2026-04-26T09:51:52.945Z</time></trkpt><trkpt lat="44.33407" lon="7.6976935"><ele>571.75</ele><time>2026-04-26T09:51:53.946Z</time></trkpt><trkpt lat="44.3342218" lon="7.6978123"><ele>577.5</ele><time>2026-04-26T09:51:55.946Z</time></trkpt><trkpt lat="44.3343122" lon="7.6979066"><ele>583.25</ele><time>2026-04-26T09:51:56.946Z</time></trkpt><trkpt lat="44.3343988" lon="7.6979937"><ele>589.0</ele><time>2026-04-26T09:51:57.946Z</time></trkpt><trkpt lat="44.3344743" lon="7.6980782"><ele>589.0</ele><time>2026-04-26T09:51:58.946Z</time></trkpt><trkpt lat="44.3345692" lon="7.6981493"><ele>589.0</ele><time>2026-04-26T09:51:59.946Z</time></trkpt><trkpt lat="44.3346533" lon="7.6982278"><ele>589.0</ele><time>2026-04-26T09:52:00.946Z</time></trkpt><trkpt lat="44.334712" lon="7.6982808"><ele>589.0</ele><time>2026-04-26T09:52:01.946Z</time></trkpt><trkpt lat="44.3346812" lon="7.698396"><ele>589.0</ele><time>2026-04-26T09:52:04.945Z</time></trkpt><trkpt lat="44.3345935" lon="7.6983952"><ele>589.0</ele><time>2026-04-26T09:52:05.946Z</time></trkpt><trkpt lat="44.3345298" lon="7.698421"><ele>589.0</ele><time>2026-04-26T09:52:06.946Z</time></trkpt><trkpt lat="44.3344245" lon="7.6984774"><ele>589.0</ele><time>2026-04-26T09:52:07.946Z</time></trkpt><trkpt lat="44.3343218" lon="7.69849"><ele>589.0</ele><time>2026-04-26T09:52:08.946Z</time></trkpt><trkpt lat="44.3342521" lon="7.6985152"><ele>589.0</ele><time>2026-04-26T09:52:09.946Z</time></trkpt><trkpt lat="44.3342044" lon="7.6986297"><ele>589.0</ele><time>2026-04-26T09:52:12.946Z</time></trkpt><trkpt lat="44.3342718" lon="7.698691"><ele>591.6666666666667</ele><time>2026-04-26T09:52:13.946Z</time></trkpt><trkpt lat="44.334331" lon="7.6987333"><ele>594.3333333333334</ele><time>2026-04-26T09:52:14.946Z</time></trkpt><trkpt lat="44.3343916" lon="7.6987805"><ele>597.0</ele><time>2026-04-26T09:52:15.946Z</time></trkpt><trkpt lat="44.3343683" lon="7.6989086"><ele>599.6666666666666</ele><time>2026-04-26T09:52:17.946Z</time></trkpt><trkpt lat="44.3343049" lon="7.6989712"><ele>602.3333333333333</ele><time>2026-04-26T09:52:18.946Z</time></trkpt><trkpt lat="44.3342422" lon="7.6990335"><ele>605.0</ele><time>2026-04-26T09:52:19.946Z</time></trkpt><trkpt lat="44.3341821" lon="7.6991037"><ele>605.0</ele><time>2026-04-26T09:52:20.946Z</time></trkpt><trkpt lat="44.3341116" lon="7.6992009"><ele>605.0</ele><time>2026-04-26T09:52:21.946Z</time></trkpt><trkpt lat="44.3340814" lon="7.6993347"><ele>605.0</ele><time>2026-04-26T09:52:22.946Z</time></trkpt><trkpt lat="44.3340811" lon="7.6994614"><ele>605.0</ele><time>2026-04-26T09:52:23.945Z</time></trkpt><trkpt lat="44.3341054" lon="7.6995978"><ele>605.0</ele><time>2026-04-26T09:52:24.946Z</time></trkpt><trkpt lat="44.3341359" lon="7.699723"><ele>607.0</ele><time>2026-04-26T09:52:25.946Z</time></trkpt><trkpt lat="44.3341855" lon="7.6998659"><ele>609.0</ele><time>2026-04-26T09:52:26.946Z</time></trkpt><trkpt lat="44.3342261" lon="7.700003"><ele>611.0</ele><time>2026-04-26T09:52:27.946Z</time></trkpt><trkpt lat="44.334263" lon="7.7001497"><ele>613.0</ele><time>2026-04-26T09:52:28.945Z</time></trkpt><trkpt lat="44.3342956" lon="7.7003066"><ele>615.0</ele><time>2026-04-26T09:52:29.946Z</time></trkpt><trkpt lat="44.3343343" lon="7.7004667"><ele>617.75</ele><time>2026-04-26T09:52:30.946Z</time></trkpt><trkpt lat="44.3343709" lon="7.7006333"><ele>620.5</ele><time>2026-04-26T09:52:31.946Z</time></trkpt><trkpt lat="44.3343768" lon="7.7007782"><ele>623.25</ele><time>2026-04-26T09:52:32.946Z</time></trkpt><trkpt lat="44.3344077" lon="7.70095"><ele>626.0</ele><time>2026-04-26T09:52:33.946Z</time></trkpt><trkpt lat="44.3344291" lon="7.7011144"><ele>629.2</ele><time>2026-04-26T09:52:34.946Z</time></trkpt><trkpt lat="44.3344227" lon="7.7012142"><ele>632.4000000000001</ele><time>2026-04-26T09:52:35.946Z</time></trkpt><trkpt lat="44.3344195" lon="7.7013236"><ele>635.6</ele><time>2026-04-26T09:52:36.946Z</time></trkpt><trkpt lat="44.334425" lon="7.7014829"><ele>638.8000000000001</ele><time>2026-04-26T09:52:37.946Z</time></trkpt><trkpt lat="44.3343885" lon="7.7016331"><ele>642.0</ele><time>2026-04-26T09:52:38.946Z</time></trkpt><trkpt lat="44.3343629" lon="7.7017948"><ele>644.2</ele><time>2026-04-26T09:52:39.946Z</time></trkpt><trkpt lat="44.3343154" lon="7.7019456"><ele>646.4000000000001</ele><time>2026-04-26T09:52:40.946Z</time></trkpt><trkpt lat="44.3342934" lon="7.7020967"><ele>648.5999999999999</ele><time>2026-04-26T09:52:41.946Z</time></trkpt><trkpt lat="44.3343101" lon="7.702227"><ele>650.8</ele><time>2026-04-26T09:52:42.946Z</time></trkpt><trkpt lat="44.3343501" lon="7.7023493"><ele>653.0</ele><time>2026-04-26T09:52:43.946Z</time></trkpt><trkpt lat="44.3343829" lon="7.7024718"><ele>653.0</ele><time>2026-04-26T09:52:44.946Z</time></trkpt><trkpt lat="44.3344302" lon="7.7026137"><ele>653.0</ele><time>2026-04-26T09:52:45.946Z</time></trkpt><trkpt lat="44.33446" lon="7.702722"><ele>653.0</ele><time>2026-04-26T09:52:46.945Z</time></trkpt><trkpt lat="44.3344973" lon="7.7028271"><ele>653.0</ele><time>2026-04-26T09:52:48.946Z</time></trkpt><trkpt lat="44.3344493" lon="7.7029102"><ele>653.0</ele><time>2026-04-26T09:52:54.946Z</time></trkpt><trkpt lat="44.3343672" lon="7.7030393"><ele>653.0</ele><time>2026-04-26T09:52:56.946Z</time></trkpt><trkpt lat="44.3343218" lon="7.7031288"><ele>653.0</ele><time>2026-04-26T09:52:57.946Z</time></trkpt><trkpt lat="44.3342787" lon="7.7032117"><ele>653.0</ele><time>2026-04-26T09:52:58.945Z</time></trkpt><trkpt lat="44.3341741" lon="7.7033368"><ele>653.0</ele><time>2026-04-26T09:53:00.945Z</time></trkpt><trkpt lat="44.3341078" lon="7.7033933"><ele>653.0</ele><time>2026-04-26T09:53:01.946Z</time></trkpt><trkpt lat="44.3339802" lon="7.7033965"><ele>653.0</ele><time>2026-04-26T09:53:02.945Z</time></trkpt><trkpt lat="44.3338652" lon="7.703415"><ele>653.0</ele><time>2026-04-26T09:53:03.946Z</time></trkpt><trkpt lat="44.3337626" lon="7.7036119"><ele>653.0</ele><time>2026-04-26T09:53:05.946Z</time></trkpt><trkpt lat="44.3336921" lon="7.7036973"><ele>653.0</ele><time>2026-04-26T09:53:06.946Z</time></trkpt><trkpt lat="44.333691" lon="7.7038004"><ele>653.0</ele><time>2026-04-26T09:53:07.942Z</time></trkpt><trkpt lat="44.3336522" lon="7.7039549"><ele>653.0</ele><time>2026-04-26T09:53:09.946Z</time></trkpt><trkpt lat="44.3336548" lon="7.704102"><ele>653.0</ele><time>2026-04-26T09:53:10.946Z</time></trkpt><trkpt lat="44.3336614" lon="7.7042085"><ele>653.0</ele><time>2026-04-26T09:53:11.946Z</time></trkpt><trkpt lat="44.3336042" lon="7.7043065"><ele>653.0</ele><time>2026-04-26T09:53:12.946Z</time></trkpt><trkpt lat="44.3335854" lon="7.7044324"><ele>654.5999999999999</ele><time>2026-04-26T09:53:13.945Z</time></trkpt><trkpt lat="44.3335317" lon="7.7045536"><ele>656.1999999999999</ele><time>2026-04-26T09:53:14.946Z</time></trkpt><trkpt lat="44.3334743" lon="7.7046805"><ele>657.8</ele><time>2026-04-26T09:53:15.946Z</time></trkpt><trkpt lat="44.3334102" lon="7.704817"><ele>659.4</ele><time>2026-04-26T09:53:16.946Z</time></trkpt><trkpt lat="44.3333499" lon="7.7049406"><ele>661.0</ele><time>2026-04-26T09:53:17.946Z</time></trkpt><trkpt lat="44.3332824" lon="7.705068"><ele>661.0</ele><time>2026-04-26T09:53:18.946Z</time></trkpt><trkpt lat="44.3332196" lon="7.705199"><ele>661.0</ele><time>2026-04-26T09:53:19.946Z</time></trkpt><trkpt lat="44.333197" lon="7.7053237"><ele>661.0</ele><time>2026-04-26T09:53:20.946Z</time></trkpt><trkpt lat="44.3331771" lon="7.7054472"><ele>661.0</ele><time>2026-04-26T09:53:21.946Z</time></trkpt><trkpt lat="44.3331614" lon="7.7055816"><ele>661.0</ele><time>2026-04-26T09:53:22.946Z</time></trkpt><trkpt lat="44.3331266" lon="7.7056951"><ele>662.0</ele><time>2026-04-26T09:53:23.945Z</time></trkpt><trkpt lat="44.3331196" lon="7.7057995"><ele>663.0</ele><time>2026-04-26T09:53:24.945Z</time></trkpt><trkpt lat="44.3331105" lon="7.7059316"><ele>664.0</ele><time>2026-04-26T09:53:25.946Z</time></trkpt><trkpt lat="44.3330963" lon="7.7060591"><ele>665.0</ele><time>2026-04-26T09:53:26.946Z</time></trkpt><trkpt lat="44.3330975" lon="7.7062052"><ele>666.0</ele><time>2026-04-26T09:53:27.945Z</time></trkpt><trkpt lat="44.3330957" lon="7.706348"><ele>666.0</ele><time>2026-04-26T09:53:28.945Z</time></trkpt><trkpt lat="44.3330793" lon="7.706476"><ele>666.0</ele><time>2026-04-26T09:53:29.946Z</time></trkpt><trkpt lat="44.3330276" lon="7.7065342"><ele>666.0</ele><time>2026-04-26T09:53:30.946Z</time></trkpt><trkpt lat="44.3329827" lon="7.7067098"><ele>666.0</ele><time>2026-04-26T09:53:32.946Z</time></trkpt><trkpt lat="44.3329168" lon="7.7068051"><ele>666.0</ele><time>2026-04-26T09:53:34.946Z</time></trkpt><trkpt lat="44.3328343" lon="7.7068116"><ele>670.4</ele><time>2026-04-26T09:53:35.946Z</time></trkpt><trkpt lat="44.3327017" lon="7.7068958"><ele>674.8</ele><time>2026-04-26T09:53:37.946Z</time></trkpt><trkpt lat="44.3326257" lon="7.7069196"><ele>679.1999999999999</ele><time>2026-04-26T09:53:38.946Z</time></trkpt><trkpt lat="44.3325315" lon="7.706969"><ele>683.5999999999999</ele><time>2026-04-26T09:53:39.946Z</time></trkpt><trkpt lat="44.3324835" lon="7.7070796"><ele>688.0</ele><time>2026-04-26T09:53:40.946Z</time></trkpt><trkpt lat="44.3323969" lon="7.7071993"><ele>688.0</ele><time>2026-04-26T09:53:41.946Z</time></trkpt><trkpt lat="44.3323397" lon="7.7073056"><ele>688.0</ele><time>2026-04-26T09:53:42.946Z</time></trkpt><trkpt lat="44.3323054" lon="7.7074194"><ele>688.0</ele><time>2026-04-26T09:53:43.946Z</time></trkpt><trkpt lat="44.3323007" lon="7.707514"><ele>688.0</ele><time>2026-04-26T09:53:44.946Z</time></trkpt><trkpt lat="44.3323577" lon="7.7076963"><ele>688.0</ele><time>2026-04-26T09:53:45.946Z</time></trkpt><trkpt lat="44.3323906" lon="7.7077908"><ele>688.0</ele><time>2026-04-26T09:53:46.946Z</time></trkpt><trkpt lat="44.3324277" lon="7.707883"><ele>688.0</ele><time>2026-04-26T09:53:47.946Z</time></trkpt><trkpt lat="44.3323972" lon="7.70796"><ele>688.0</ele><time>2026-04-26T10:00:08.946Z</time></trkpt><trkpt lat="44.3323318" lon="7.7083305"><ele>688.0</ele><time>2026-04-26T10:01:00.946Z</time></trkpt><trkpt lat="44.3323773" lon="7.7084254"><ele>688.8</ele><time>2026-04-26T10:01:01.946Z</time></trkpt><trkpt lat="44.3324053" lon="7.7086151"><ele>689.5999999999999</ele><time>2026-04-26T10:01:03.945Z</time></trkpt><trkpt lat="44.3324106" lon="7.7087251"><ele>690.4000000000001</ele><time>2026-04-26T10:01:04.946Z</time></trkpt><trkpt lat="44.3324593" lon="7.7088433"><ele>691.2</ele><time>2026-04-26T10:01:05.946Z</time></trkpt><trkpt lat="44.3324836" lon="7.7089657"><ele>692.0</ele><time>2026-04-26T10:01:06.946Z</time></trkpt><trkpt lat="44.3324855" lon="7.7090701"><ele>692.0</ele><time>2026-04-26T10:01:07.945Z</time></trkpt><trkpt lat="44.3325035" lon="7.709175"><ele>692.0</ele><time>2026-04-26T10:01:08.946Z</time></trkpt><trkpt lat="44.3325196" lon="7.7093348"><ele>692.0</ele><time>2026-04-26T10:01:09.946Z</time></trkpt><trkpt lat="44.3325361" lon="7.7094673"><ele>692.0</ele><time>2026-04-26T10:01:10.946Z</time></trkpt><trkpt lat="44.3325721" lon="7.7095613"><ele>692.0</ele><time>2026-04-26T10:01:11.946Z</time></trkpt><trkpt lat="44.3326065" lon="7.7096632"><ele>692.0</ele><time>2026-04-26T10:01:12.946Z</time></trkpt><trkpt lat="44.3326265" lon="7.7097889"><ele>693.0</ele><time>2026-04-26T10:01:13.946Z</time></trkpt><trkpt lat="44.3326402" lon="7.7099487"><ele>694.0</ele><time>2026-04-26T10:01:14.946Z</time></trkpt><trkpt lat="44.332633" lon="7.7101119"><ele>695.0</ele><time>2026-04-26T10:01:15.945Z</time></trkpt><trkpt lat="44.3326466" lon="7.7102585"><ele>696.0</ele><time>2026-04-26T10:01:16.946Z</time></trkpt><trkpt lat="44.3326607" lon="7.7103731"><ele>697.0</ele><time>2026-04-26T10:01:17.946Z</time></trkpt><trkpt lat="44.3327071" lon="7.7105356"><ele>699.0</ele><time>2026-04-26T10:01:18.946Z</time></trkpt><trkpt lat="44.3327346" lon="7.7106656"><ele>701.0</ele><time>2026-04-26T10:01:19.946Z</time></trkpt><trkpt lat="44.3328179" lon="7.7107977"><ele>703.0</ele><time>2026-04-26T10:01:20.946Z</time></trkpt><trkpt lat="44.3328789" lon="7.710942"><ele>705.0</ele><time>2026-04-26T10:01:21.946Z</time></trkpt><trkpt lat="44.3329356" lon="7.7111027"><ele>704.6</ele><time>2026-04-26T10:01:22.945Z</time></trkpt><trkpt lat="44.3329915" lon="7.7112437"><ele>704.2</ele><time>2026-04-26T10:01:23.946Z</time></trkpt><trkpt lat="44.3330317" lon="7.7113616"><ele>703.8</ele><time>2026-04-26T10:01:24.946Z</time></trkpt><trkpt lat="44.3330873" lon="7.7114934"><ele>703.4</ele><time>2026-04-26T10:01:25.946Z</time></trkpt><trkpt lat="44.3331261" lon="7.7116402"><ele>703.0</ele><time>2026-04-26T10:01:26.946Z</time></trkpt><trkpt lat="44.3331439" lon="7.711811"><ele>702.8</ele><time>2026-04-26T10:01:27.946Z</time></trkpt><trkpt lat="44.3331415" lon="7.7119484"><ele>702.5999999999999</ele><time>2026-04-26T10:01:28.946Z</time></trkpt><trkpt lat="44.3331527" lon="7.7120614"><ele>702.4000000000001</ele><time>2026-04-26T10:01:30.946Z</time></trkpt><trkpt lat="44.3331438" lon="7.7121524"><ele>702.2</ele><time>2026-04-26T10:01:32.945Z</time></trkpt><trkpt lat="44.3330977" lon="7.7122146"><ele>702.0</ele><time>2026-04-26T10:01:33.946Z</time></trkpt><trkpt lat="44.3330386" lon="7.712392"><ele>702.0</ele><time>2026-04-26T10:01:35.946Z</time></trkpt><trkpt lat="44.332999" lon="7.7124735"><ele>702.0</ele><time>2026-04-26T10:01:36.946Z</time></trkpt><trkpt lat="44.3328492" lon="7.7125317"><ele>702.0</ele><time>2026-04-26T10:01:37.946Z</time></trkpt><trkpt lat="44.3327684" lon="7.7126268"><ele>702.0</ele><time>2026-04-26T10:01:38.946Z</time></trkpt><trkpt lat="44.3327001" lon="7.7126996"><ele>702.0</ele><time>2026-04-26T10:01:39.945Z</time></trkpt><trkpt lat="44.3326029" lon="7.7127428"><ele>699.8</ele><time>2026-04-26T10:01:40.946Z</time></trkpt><trkpt lat="44.3324935" lon="7.7127621"><ele>697.6</ele><time>2026-04-26T10:01:41.946Z</time></trkpt><trkpt lat="44.3324027" lon="7.7127978"><ele>695.4</ele><time>2026-04-26T10:01:42.946Z</time></trkpt><trkpt lat="44.3322713" lon="7.7128537"><ele>693.1999999999999</ele><time>2026-04-26T10:01:43.946Z</time></trkpt><trkpt lat="44.3321682" lon="7.7128677"><ele>691.0</ele><time>2026-04-26T10:01:44.946Z</time></trkpt><trkpt lat="44.3320271" lon="7.7129154"><ele>691.0</ele><time>2026-04-26T10:01:45.946Z</time></trkpt><trkpt lat="44.3319245" lon="7.7129397"><ele>691.0</ele><time>2026-04-26T10:01:46.946Z</time></trkpt><trkpt lat="44.3318344" lon="7.7129594"><ele>691.0</ele><time>2026-04-26T10:01:47.946Z</time></trkpt><trkpt lat="44.3317513" lon="7.712987"><ele>691.0</ele><time>2026-04-26T10:01:48.945Z</time></trkpt><trkpt lat="44.3316875" lon="7.713081"><ele>691.0</ele><time>2026-04-26T10:01:50.946Z</time></trkpt><trkpt lat="44.3315921" lon="7.7132746"><ele>691.0</ele><time>2026-04-26T10:01:52.946Z</time></trkpt><trkpt lat="44.3315346" lon="7.7133764"><ele>691.0</ele><time>2026-04-26T10:01:53.946Z</time></trkpt><trkpt lat="44.3314673" lon="7.7134379"><ele>691.0</ele><time>2026-04-26T10:01:54.945Z</time></trkpt><trkpt lat="44.3314009" lon="7.7135288"><ele>691.0</ele><time>2026-04-26T10:01:55.946Z</time></trkpt><trkpt lat="44.3313417" lon="7.7136125"><ele>691.0</ele><time>2026-04-26T10:01:56.946Z</time></trkpt><trkpt lat="44.3312217" lon="7.7135986"><ele>694.1666666666667</ele><time>2026-04-26T10:01:57.946Z</time></trkpt><trkpt lat="44.3311229" lon="7.7136384"><ele>697.3333333333334</ele><time>2026-04-26T10:01:58.946Z</time></trkpt><trkpt lat="44.3310347" lon="7.7136736"><ele>700.5</ele><time>2026-04-26T10:01:59.946Z</time></trkpt><trkpt lat="44.330983" lon="7.7137352"><ele>703.6666666666666</ele><time>2026-04-26T10:02:00.946Z</time></trkpt><trkpt lat="44.3309266" lon="7.7137863"><ele>706.8333333333333</ele><time>2026-04-26T10:02:01.945Z</time></trkpt><trkpt lat="44.3309873" lon="7.7138308"><ele>710.0</ele><time>2026-04-26T10:02:04.946Z</time></trkpt><trkpt lat="44.3310734" lon="7.7138479"><ele>710.0</ele><time>2026-04-26T10:02:06.946Z</time></trkpt><trkpt lat="44.3311459" lon="7.7138303"><ele>710.0</ele><time>2026-04-26T10:02:08.945Z</time></trkpt><trkpt lat="44.3312562" lon="7.7138409"><ele>710.0</ele><time>2026-04-26T10:02:10.946Z</time></trkpt><trkpt lat="44.331357" lon="7.7139046"><ele>710.0</ele><time>2026-04-26T10:02:11.946Z</time></trkpt><trkpt lat="44.331522" lon="7.7140273"><ele>708.6</ele><time>2026-04-26T10:02:12.946Z</time></trkpt><trkpt lat="44.3316134" lon="7.7140979"><ele>707.2</ele><time>2026-04-26T10:02:13.946Z</time></trkpt><trkpt lat="44.3316601" lon="7.7141641"><ele>705.8</ele><time>2026-04-26T10:02:14.946Z</time></trkpt><trkpt lat="44.3317132" lon="7.714221"><ele>704.4</ele><time>2026-04-26T10:02:15.946Z</time></trkpt><trkpt lat="44.3316947" lon="7.7143937"><ele>703.0</ele><time>2026-04-26T10:02:17.946Z</time></trkpt><trkpt lat="44.3316743" lon="7.7145137"><ele>703.0</ele><time>2026-04-26T10:02:18.946Z</time></trkpt><trkpt lat="44.3316736" lon="7.714616"><ele>703.0</ele><time>2026-04-26T10:02:19.946Z</time></trkpt><trkpt lat="44.3316928" lon="7.7147866"><ele>703.0</ele><time>2026-04-26T10:02:21.946Z</time></trkpt><trkpt lat="44.3318087" lon="7.7148371"><ele>703.0</ele><time>2026-04-26T10:02:22.946Z</time></trkpt><trkpt lat="44.3318956" lon="7.7148987"><ele>703.0</ele><time>2026-04-26T10:02:23.946Z</time></trkpt><trkpt lat="44.3319462" lon="7.7150068"><ele>703.0</ele><time>2026-04-26T10:02:24.946Z</time></trkpt><trkpt lat="44.3320336" lon="7.7151003"><ele>703.0</ele><time>2026-04-26T10:02:25.946Z</time></trkpt><trkpt lat="44.3321547" lon="7.7152582"><ele>703.0</ele><time>2026-04-26T10:02:26.945Z</time></trkpt><trkpt lat="44.3322347" lon="7.7153905"><ele>703.0</ele><time>2026-04-26T10:02:27.946Z</time></trkpt><trkpt lat="44.3323174" lon="7.715545"><ele>704.0</ele><time>2026-04-26T10:02:28.945Z</time></trkpt><trkpt lat="44.3323834" lon="7.715675"><ele>705.0</ele><time>2026-04-26T10:02:29.946Z</time></trkpt><trkpt lat="44.3324431" lon="7.7158638"><ele>706.0</ele><time>2026-04-26T10:02:30.946Z</time></trkpt><trkpt lat="44.3324916" lon="7.7159955"><ele>707.0</ele><time>2026-04-26T10:02:31.945Z</time></trkpt><trkpt lat="44.3324744" lon="7.7161371"><ele>707.0</ele><time>2026-04-26T10:02:32.946Z</time></trkpt><trkpt lat="44.3324924" lon="7.7162406"><ele>707.0</ele><time>2026-04-26T10:02:33.946Z</time></trkpt><trkpt lat="44.3325276" lon="7.7163411"><ele>707.0</ele><time>2026-04-26T10:02:34.946Z</time></trkpt><trkpt lat="44.3326035" lon="7.716422"><ele>707.0</ele><time>2026-04-26T10:02:35.946Z</time></trkpt><trkpt lat="44.3326787" lon="7.7165464"><ele>707.0</ele><time>2026-04-26T10:02:36.946Z</time></trkpt><trkpt lat="44.3327527" lon="7.71667"><ele>707.0</ele><time>2026-04-26T10:02:37.946Z</time></trkpt><trkpt lat="44.3328285" lon="7.7168269"><ele>707.0</ele><time>2026-04-26T10:02:38.945Z</time></trkpt><trkpt lat="44.3328948" lon="7.7169801"><ele>707.0</ele><time>2026-04-26T10:02:39.945Z</time></trkpt><trkpt lat="44.3329644" lon="7.717106"><ele>707.0</ele><time>2026-04-26T10:02:40.946Z</time></trkpt><trkpt lat="44.3330113" lon="7.7171966"><ele>708.6</ele><time>2026-04-26T10:02:41.946Z</time></trkpt><trkpt lat="44.3330439" lon="7.7173746"><ele>710.2</ele><time>2026-04-26T10:02:43.946Z</time></trkpt><trkpt lat="44.3330281" lon="7.7175024"><ele>711.8</ele><time>2026-04-26T10:02:44.946Z</time></trkpt><trkpt lat="44.3330142" lon="7.7176401"><ele>713.4</ele><time>2026-04-26T10:02:45.946Z</time></trkpt><trkpt lat="44.3330163" lon="7.7177719"><ele>715.0</ele><time>2026-04-26T10:02:46.946Z</time></trkpt><trkpt lat="44.3330406" lon="7.7179069"><ele>713.0</ele><time>2026-04-26T10:02:47.946Z</time></trkpt><trkpt lat="44.3330732" lon="7.7180302"><ele>711.0</ele><time>2026-04-26T10:02:48.946Z</time></trkpt><trkpt lat="44.3331148" lon="7.7181274"><ele>709.0</ele><time>2026-04-26T10:02:49.946Z</time></trkpt><trkpt lat="44.3331808" lon="7.7181826"><ele>707.0</ele><time>2026-04-26T10:02:50.946Z</time></trkpt><trkpt lat="44.3332754" lon="7.7182098"><ele>705.0</ele><time>2026-04-26T10:02:51.946Z</time></trkpt><trkpt lat="44.3333532" lon="7.7181893"><ele>703.0</ele><time>2026-04-26T10:02:52.945Z</time></trkpt><trkpt lat="44.3334483" lon="7.7181797"><ele>703.0</ele><time>2026-04-26T10:02:53.946Z</time></trkpt><trkpt lat="44.3335353" lon="7.7181755"><ele>703.0</ele><time>2026-04-26T10:02:54.946Z</time></trkpt><trkpt lat="44.3336049" lon="7.7181711"><ele>703.0</ele><time>2026-04-26T10:02:55.946Z</time></trkpt><trkpt lat="44.3337005" lon="7.7182648"><ele>703.0</ele><time>2026-04-26T10:02:56.946Z</time></trkpt><trkpt lat="44.3337925" lon="7.7183229"><ele>703.0</ele><time>2026-04-26T10:02:57.946Z</time></trkpt><trkpt lat="44.3338664" lon="7.7183876"><ele>701.2</ele><time>2026-04-26T10:02:58.946Z</time></trkpt><trkpt lat="44.3339869" lon="7.7183759"><ele>699.4</ele><time>2026-04-26T10:02:59.946Z</time></trkpt><trkpt lat="44.3340653" lon="7.7184082"><ele>697.6</ele><time>2026-04-26T10:03:00.946Z</time></trkpt><trkpt lat="44.3341429" lon="7.7184604"><ele>695.8000000000001</ele><time>2026-04-26T10:03:01.945Z</time></trkpt><trkpt lat="44.3342093" lon="7.7185907"><ele>694.0</ele><time>2026-04-26T10:03:02.946Z</time></trkpt><trkpt lat="44.3342642" lon="7.718716"><ele>694.0</ele><time>2026-04-26T10:03:03.945Z</time></trkpt><trkpt lat="44.3342871" lon="7.7188277"><ele>694.0</ele><time>2026-04-26T10:03:04.946Z</time></trkpt><trkpt lat="44.3342942" lon="7.7189332"><ele>694.0</ele><time>2026-04-26T10:03:05.946Z</time></trkpt><trkpt lat="44.3342954" lon="7.7190715"><ele>694.0</ele><time>2026-04-26T10:03:06.946Z</time></trkpt><trkpt lat="44.3342969" lon="7.7192057"><ele>694.0</ele><time>2026-04-26T10:03:07.946Z</time></trkpt><trkpt lat="44.3343472" lon="7.7193826"><ele>693.6666666666667</ele><time>2026-04-26T10:03:08.946Z</time></trkpt><trkpt lat="44.3343811" lon="7.7195004"><ele>693.3333333333334</ele><time>2026-04-26T10:03:09.946Z</time></trkpt><trkpt lat="44.3344077" lon="7.7196225"><ele>693.0</ele><time>2026-04-26T10:03:10.946Z</time></trkpt><trkpt lat="44.3344175" lon="7.7197136"><ele>692.6666666666666</ele><time>2026-04-26T10:03:11.946Z</time></trkpt><trkpt lat="44.3344272" lon="7.7198865"><ele>692.3333333333333</ele><time>2026-04-26T10:03:13.946Z</time></trkpt><trkpt lat="44.3344124" lon="7.7199816"><ele>692.0</ele><time>2026-04-26T10:03:14.946Z</time></trkpt><trkpt lat="44.3343835" lon="7.7200807"><ele>692.0</ele><time>2026-04-26T10:03:15.946Z</time></trkpt><trkpt lat="44.3343688" lon="7.7201758"><ele>692.0</ele><time>2026-04-26T10:03:16.945Z</time></trkpt><trkpt lat="44.3343478" lon="7.7202819"><ele>692.0</ele><time>2026-04-26T10:03:17.946Z</time></trkpt><trkpt lat="44.3342589" lon="7.7203623"><ele>692.0</ele><time>2026-04-26T10:03:18.946Z</time></trkpt><trkpt lat="44.3341872" lon="7.7204832"><ele>692.0</ele><time>2026-04-26T10:03:20.945Z</time></trkpt><trkpt lat="44.3342045" lon="7.7205888"><ele>692.0</ele><time>2026-04-26T10:03:21.946Z</time></trkpt><trkpt lat="44.3342395" lon="7.7207928"><ele>690.6</ele><time>2026-04-26T10:03:23.945Z</time></trkpt><trkpt lat="44.3342343" lon="7.7209084"><ele>689.2</ele><time>2026-04-26T10:03:24.946Z</time></trkpt><trkpt lat="44.334236" lon="7.7210153"><ele>687.8</ele><time>2026-04-26T10:03:25.946Z</time></trkpt><trkpt lat="44.3342089" lon="7.7211214"><ele>686.4</ele><time>2026-04-26T10:03:26.946Z</time></trkpt><trkpt lat="44.3341405" lon="7.7212398"><ele>685.0</ele><time>2026-04-26T10:03:27.946Z</time></trkpt><trkpt lat="44.3340807" lon="7.7213733"><ele>685.0</ele><time>2026-04-26T10:03:28.946Z</time></trkpt><trkpt lat="44.3340254" lon="7.7215171"><ele>685.0</ele><time>2026-04-26T10:03:29.946Z</time></trkpt><trkpt lat="44.3339591" lon="7.7216625"><ele>685.0</ele><time>2026-04-26T10:03:30.946Z</time></trkpt><trkpt lat="44.3339179" lon="7.7217894"><ele>685.0</ele><time>2026-04-26T10:03:31.946Z</time></trkpt><trkpt lat="44.3338668" lon="7.7219162"><ele>685.0</ele><time>2026-04-26T10:03:32.946Z</time></trkpt><trkpt lat="44.3337811" lon="7.7219849"><ele>685.0</ele><time>2026-04-26T10:03:33.946Z</time></trkpt><trkpt lat="44.3336881" lon="7.7220676"><ele>685.0</ele><time>2026-04-26T10:03:34.946Z</time></trkpt><trkpt lat="44.3336011" lon="7.7221183"><ele>685.0</ele><time>2026-04-26T10:03:35.946Z</time></trkpt><trkpt lat="44.3334924" lon="7.7221525"><ele>685.0</ele><time>2026-04-26T10:03:36.946Z</time></trkpt><trkpt lat="44.3333817" lon="7.7221644"><ele>685.0</ele><time>2026-04-26T10:03:37.946Z</time></trkpt><trkpt lat="44.3332823" lon="7.722179"><ele>685.0</ele><time>2026-04-26T10:03:38.946Z</time></trkpt><trkpt lat="44.3331816" lon="7.7221901"><ele>685.0</ele><time>2026-04-26T10:03:39.946Z</time></trkpt><trkpt lat="44.3330637" lon="7.7222159"><ele>685.0</ele><time>2026-04-26T10:03:40.946Z</time></trkpt><trkpt lat="44.3329581" lon="7.7222718"><ele>685.0</ele><time>2026-04-26T10:03:41.946Z</time></trkpt><trkpt lat="44.3328651" lon="7.7223029"><ele>685.0</ele><time>2026-04-26T10:03:42.946Z</time></trkpt><trkpt lat="44.3327714" lon="7.7223815"><ele>686.6666666666667</ele><time>2026-04-26T10:03:44.946Z</time></trkpt><trkpt lat="44.3327236" lon="7.7224685"><ele>688.3333333333334</ele><time>2026-04-26T10:03:46.945Z</time></trkpt><trkpt lat="44.3327037" lon="7.7225524"><ele>690.0</ele><time>2026-04-26T10:03:47.946Z</time></trkpt><trkpt lat="44.3327032" lon="7.72266"><ele>691.6666666666666</ele><time>2026-04-26T10:03:48.945Z</time></trkpt><trkpt lat="44.3327073" lon="7.7227636"><ele>693.3333333333333</ele><time>2026-04-26T10:03:49.946Z</time></trkpt><trkpt lat="44.3327149" lon="7.7228814"><ele>695.0</ele><time>2026-04-26T10:03:50.945Z</time></trkpt><trkpt lat="44.3327119" lon="7.7230111"><ele>695.0</ele><time>2026-04-26T10:03:51.946Z</time></trkpt><trkpt lat="44.3327234" lon="7.7231394"><ele>695.0</ele><time>2026-04-26T10:03:52.946Z</time></trkpt><trkpt lat="44.3327464" lon="7.7232731"><ele>695.0</ele><time>2026-04-26T10:03:53.946Z</time></trkpt><trkpt lat="44.3327643" lon="7.723403"><ele>695.0</ele><time>2026-04-26T10:03:54.946Z</time></trkpt><trkpt lat="44.3327544" lon="7.7235288"><ele>695.0</ele><time>2026-04-26T10:03:55.946Z</time></trkpt><trkpt lat="44.33272" lon="7.7236356"><ele>694.0</ele><time>2026-04-26T10:03:56.945Z</time></trkpt><trkpt lat="44.3326544" lon="7.7237302"><ele>693.0</ele><time>2026-04-26T10:03:57.946Z</time></trkpt><trkpt lat="44.3325697" lon="7.7238134"><ele>692.0</ele><time>2026-04-26T10:03:58.946Z</time></trkpt><trkpt lat="44.3324633" lon="7.7238836"><ele>691.0</ele><time>2026-04-26T10:03:59.946Z</time></trkpt><trkpt lat="44.3323665" lon="7.7239415"><ele>690.0</ele><time>2026-04-26T10:04:00.945Z</time></trkpt><trkpt lat="44.3322662" lon="7.723998"><ele>694.0</ele><time>2026-04-26T10:04:01.946Z</time></trkpt><trkpt lat="44.3322043" lon="7.7240962"><ele>698.0</ele><time>2026-04-26T10:04:02.946Z</time></trkpt><trkpt lat="44.3321394" lon="7.7242406"><ele>702.0</ele><time>2026-04-26T10:04:03.945Z</time></trkpt><trkpt lat="44.3320777" lon="7.7243375"><ele>706.0</ele><time>2026-04-26T10:04:04.946Z</time></trkpt><trkpt lat="44.3320044" lon="7.7244411"><ele>710.0</ele><time>2026-04-26T10:04:05.945Z</time></trkpt><trkpt lat="44.3319342" lon="7.7245512"><ele>710.0</ele><time>2026-04-26T10:04:06.946Z</time></trkpt><trkpt lat="44.3318545" lon="7.7246409"><ele>710.0</ele><time>2026-04-26T10:04:07.945Z</time></trkpt><trkpt lat="44.3317562" lon="7.7247621"><ele>710.0</ele><time>2026-04-26T10:04:09.945Z</time></trkpt><trkpt lat="44.3317121" lon="7.7248532"><ele>710.0</ele><time>2026-04-26T10:04:10.946Z</time></trkpt><trkpt lat="44.3318511" lon="7.7248699"><ele>710.0</ele><time>2026-04-26T10:04:11.946Z</time></trkpt><trkpt lat="44.3319661" lon="7.7248724"><ele>710.0</ele><time>2026-04-26T10:04:13.946Z</time></trkpt><trkpt lat="44.3320834" lon="7.724845"><ele>710.0</ele><time>2026-04-26T10:04:14.945Z</time></trkpt><trkpt lat="44.332181" lon="7.7248678"><ele>710.0</ele><time>2026-04-26T10:04:15.946Z</time></trkpt><trkpt lat="44.3322983" lon="7.7248772"><ele>706.8</ele><time>2026-04-26T10:04:16.946Z</time></trkpt><trkpt lat="44.3323899" lon="7.7249036"><ele>703.6</ele><time>2026-04-26T10:04:17.946Z</time></trkpt><trkpt lat="44.3324895" lon="7.7249475"><ele>700.4000000000001</ele><time>2026-04-26T10:04:18.946Z</time></trkpt><trkpt lat="44.3326018" lon="7.725013"><ele>697.2</ele><time>2026-04-26T10:04:19.946Z</time></trkpt><trkpt lat="44.3326915" lon="7.725069"><ele>694.0</ele><time>2026-04-26T10:04:20.946Z</time></trkpt><trkpt lat="44.3327968" lon="7.7251293"><ele>694.0</ele><time>2026-04-26T10:04:21.946Z</time></trkpt><trkpt lat="44.3328936" lon="7.7251769"><ele>694.0</ele><time>2026-04-26T10:04:22.946Z</time></trkpt><trkpt lat="44.3329902" lon="7.725218"><ele>694.0</ele><time>2026-04-26T10:04:23.945Z</time></trkpt><trkpt lat="44.3330801" lon="7.7252654"><ele>694.0</ele><time>2026-04-26T10:04:24.946Z</time></trkpt><trkpt lat="44.3331719" lon="7.7253123"><ele>694.0</ele><time>2026-04-26T10:04:25.946Z</time></trkpt><trkpt lat="44.3332458" lon="7.725336"><ele>695.0</ele><time>2026-04-26T10:04:26.946Z</time></trkpt><trkpt lat="44.3333093" lon="7.7254498"><ele>696.0</ele><time>2026-04-26T10:04:28.945Z</time></trkpt><trkpt lat="44.333328" lon="7.7255383"><ele>697.0</ele><time>2026-04-26T10:04:30.946Z</time></trkpt><trkpt lat="44.3332646" lon="7.7256259"><ele>698.0</ele><time>2026-04-26T10:04:32.946Z</time></trkpt><trkpt lat="44.3331839" lon="7.7256467"><ele>699.0</ele><time>2026-04-26T10:04:33.946Z</time></trkpt><trkpt lat="44.3331109" lon="7.725658"><ele>700.0</ele><time>2026-04-26T10:04:34.946Z</time></trkpt><trkpt lat="44.3330135" lon="7.7256542"><ele>702.0</ele><time>2026-04-26T10:04:35.946Z</time></trkpt><trkpt lat="44.3329079" lon="7.7256766"><ele>704.0</ele><time>2026-04-26T10:04:36.946Z</time></trkpt><trkpt lat="44.3328019" lon="7.7257174"><ele>706.0</ele><time>2026-04-26T10:04:37.946Z</time></trkpt><trkpt lat="44.3326907" lon="7.7257528"><ele>708.0</ele><time>2026-04-26T10:04:38.946Z</time></trkpt><trkpt lat="44.3325976" lon="7.7257749"><ele>710.0</ele><time>2026-04-26T10:04:39.946Z</time></trkpt><trkpt lat="44.3325158" lon="7.7257979"><ele>710.0</ele><time>2026-04-26T10:04:40.945Z</time></trkpt><trkpt lat="44.3324618" lon="7.725908"><ele>710.0</ele><time>2026-04-26T10:04:42.946Z</time></trkpt><trkpt lat="44.3324607" lon="7.7260206"><ele>710.0</ele><time>2026-04-26T10:04:43.946Z</time></trkpt><trkpt lat="44.3324788" lon="7.7261468"><ele>710.0</ele><time>2026-04-26T10:04:44.946Z</time></trkpt><trkpt lat="44.3325098" lon="7.7262891"><ele>710.0</ele><time>2026-04-26T10:04:45.946Z</time></trkpt><trkpt lat="44.3325502" lon="7.726436"><ele>714.5</ele><time>2026-04-26T10:04:46.945Z</time></trkpt><trkpt lat="44.3325985" lon="7.7265925"><ele>719.0</ele><time>2026-04-26T10:04:47.946Z</time></trkpt><trkpt lat="44.3326347" lon="7.7267372"><ele>723.5</ele><time>2026-04-26T10:04:48.946Z</time></trkpt><trkpt lat="44.3326797" lon="7.7268832"><ele>728.0</ele><time>2026-04-26T10:04:49.945Z</time></trkpt><trkpt lat="44.3327214" lon="7.7270299"><ele>728.0</ele><time>2026-04-26T10:04:50.945Z</time></trkpt><trkpt lat="44.3327635" lon="7.7271782"><ele>728.0</ele><time>2026-04-26T10:04:51.946Z</time></trkpt><trkpt lat="44.3327866" lon="7.727333"><ele>728.0</ele><time>2026-04-26T10:04:52.946Z</time></trkpt><trkpt lat="44.3328066" lon="7.7274839"><ele>728.0</ele><time>2026-04-26T10:04:53.945Z</time></trkpt><trkpt lat="44.332816" lon="7.7276215"><ele>728.0</ele><time>2026-04-26T10:04:54.946Z</time></trkpt><trkpt lat="44.3328289" lon="7.7277369"><ele>728.0</ele><time>2026-04-26T10:04:55.946Z</time></trkpt><trkpt lat="44.3328306" lon="7.7278402"><ele>728.0</ele><time>2026-04-26T10:04:56.946Z</time></trkpt><trkpt lat="44.3327643" lon="7.7279081"><ele>728.0</ele><time>2026-04-26T10:04:58.946Z</time></trkpt><trkpt lat="44.3326986" lon="7.7278858"><ele>728.0</ele><time>2026-04-26T10:04:59.946Z</time></trkpt><trkpt lat="44.3325907" lon="7.7277879"><ele>728.0</ele><time>2026-04-26T10:05:01.946Z</time></trkpt><trkpt lat="44.3325107" lon="7.7277145"><ele>728.0</ele><time>2026-04-26T10:05:02.946Z</time></trkpt><trkpt lat="44.3324299" lon="7.7276481"><ele>728.0</ele><time>2026-04-26T10:05:03.945Z</time></trkpt><trkpt lat="44.3323369" lon="7.7275908"><ele>728.0</ele><time>2026-04-26T10:05:04.946Z</time></trkpt><trkpt lat="44.332243" lon="7.7275424"><ele>728.0</ele><time>2026-04-26T10:05:05.946Z</time></trkpt><trkpt lat="44.3321494" lon="7.7275043"><ele>728.0</ele><time>2026-04-26T10:05:06.946Z</time></trkpt><trkpt lat="44.3320415" lon="7.7274548"><ele>728.0</ele><time>2026-04-26T10:05:07.945Z</time></trkpt><trkpt lat="44.3319373" lon="7.7274163"><ele>728.5</ele><time>2026-04-26T10:05:08.946Z</time></trkpt><trkpt lat="44.3318224" lon="7.7273785"><ele>729.0</ele><time>2026-04-26T10:05:09.946Z</time></trkpt><trkpt lat="44.3317115" lon="7.7273407"><ele>729.5</ele><time>2026-04-26T10:05:10.946Z</time></trkpt><trkpt lat="44.3315996" lon="7.727295"><ele>730.0</ele><time>2026-04-26T10:05:11.945Z</time></trkpt><trkpt lat="44.3314937" lon="7.7272535"><ele>730.0</ele><time>2026-04-26T10:05:12.946Z</time></trkpt><trkpt lat="44.3314039" lon="7.7272077"><ele>730.0</ele><time>2026-04-26T10:05:13.946Z</time></trkpt><trkpt lat="44.3313294" lon="7.7271557"><ele>730.0</ele><time>2026-04-26T10:05:14.946Z</time></trkpt><trkpt lat="44.3312663" lon="7.727075"><ele>730.0</ele><time>2026-04-26T10:05:15.946Z</time></trkpt><trkpt lat="44.3312048" lon="7.726964"><ele>730.0</ele><time>2026-04-26T10:05:16.946Z</time></trkpt><trkpt lat="44.3311563" lon="7.7268572"><ele>730.6666666666667</ele><time>2026-04-26T10:05:17.946Z</time></trkpt><trkpt lat="44.3311132" lon="7.7267556"><ele>731.3333333333334</ele><time>2026-04-26T10:05:18.945Z</time></trkpt><trkpt lat="44.3310685" lon="7.7266674"><ele>732.0</ele><time>2026-04-26T10:05:19.946Z</time></trkpt><trkpt lat="44.3310231" lon="7.726601"><ele>732.6666666666666</ele><time>2026-04-26T10:05:20.946Z</time></trkpt><trkpt lat="44.3309709" lon="7.7265257"><ele>733.3333333333333</ele><time>2026-04-26T10:05:21.946Z</time></trkpt><trkpt lat="44.330903" lon="7.7264414"><ele>734.0</ele><time>2026-04-26T10:05:22.945Z</time></trkpt><trkpt lat="44.3308106" lon="7.7263549"><ele>734.0</ele><time>2026-04-26T10:05:23.946Z</time></trkpt><trkpt lat="44.3307199" lon="7.7262832"><ele>734.0</ele><time>2026-04-26T10:05:24.945Z</time></trkpt><trkpt lat="44.3306029" lon="7.726241"><ele>734.0</ele><time>2026-04-26T10:05:25.945Z</time></trkpt><trkpt lat="44.3305135" lon="7.7262177"><ele>734.0</ele><time>2026-04-26T10:05:26.946Z</time></trkpt><trkpt lat="44.3304174" lon="7.7261654"><ele>734.0</ele><time>2026-04-26T10:05:27.946Z</time></trkpt><trkpt lat="44.3303261" lon="7.7261018"><ele>737.5</ele><time>2026-04-26T10:05:28.946Z</time></trkpt><trkpt lat="44.3302279" lon="7.7260209"><ele>741.0</ele><time>2026-04-26T10:05:29.946Z</time></trkpt><trkpt lat="44.3301196" lon="7.7259261"><ele>744.5</ele><time>2026-04-26T10:05:30.946Z</time></trkpt><trkpt lat="44.3300161" lon="7.7258143"><ele>748.0</ele><time>2026-04-26T10:05:31.946Z</time></trkpt><trkpt lat="44.3299211" lon="7.7257258"><ele>748.0</ele><time>2026-04-26T10:05:32.945Z</time></trkpt><trkpt lat="44.3298337" lon="7.7256625"><ele>748.0</ele><time>2026-04-26T10:05:33.946Z</time></trkpt><trkpt lat="44.3297153" lon="7.7255587"><ele>748.0</ele><time>2026-04-26T10:05:34.945Z</time></trkpt><trkpt lat="44.3296186" lon="7.7254749"><ele>748.0</ele><time>2026-04-26T10:05:35.945Z</time></trkpt><trkpt lat="44.3295113" lon="7.7254173"><ele>748.0</ele><time>2026-04-26T10:05:36.946Z</time></trkpt><trkpt lat="44.3294054" lon="7.7253491"><ele>748.0</ele><time>2026-04-26T10:05:37.946Z</time></trkpt><trkpt lat="44.3293177" lon="7.7253275"><ele>748.0</ele><time>2026-04-26T10:05:38.946Z</time></trkpt><trkpt lat="44.3292136" lon="7.7253771"><ele>748.0</ele><time>2026-04-26T10:05:39.945Z</time></trkpt><trkpt lat="44.3291275" lon="7.7253791"><ele>748.0</ele><time>2026-04-26T10:05:40.946Z</time></trkpt><trkpt lat="44.3290577" lon="7.7253771"><ele>748.0</ele><time>2026-04-26T10:05:41.946Z</time></trkpt><trkpt lat="44.3289802" lon="7.7253591"><ele>748.0</ele><time>2026-04-26T10:05:42.946Z</time></trkpt><trkpt lat="44.3288811" lon="7.7253298"><ele>748.0</ele><time>2026-04-26T10:05:43.946Z</time></trkpt><trkpt lat="44.3287613" lon="7.725279"><ele>748.0</ele><time>2026-04-26T10:05:44.945Z</time></trkpt><trkpt lat="44.3286559" lon="7.7252511"><ele>748.0</ele><time>2026-04-26T10:05:45.946Z</time></trkpt><trkpt lat="44.3285304" lon="7.7252284"><ele>751.5</ele><time>2026-04-26T10:05:46.946Z</time></trkpt><trkpt lat="44.3284043" lon="7.7252074"><ele>755.0</ele><time>2026-04-26T10:05:47.946Z</time></trkpt><trkpt lat="44.3282571" lon="7.7252201"><ele>758.5</ele><time>2026-04-26T10:05:48.945Z</time></trkpt><trkpt lat="44.3281391" lon="7.7252986"><ele>762.0</ele><time>2026-04-26T10:05:49.946Z</time></trkpt><trkpt lat="44.3280433" lon="7.7253255"><ele>764.0</ele><time>2026-04-26T10:05:50.945Z</time></trkpt><trkpt lat="44.3279664" lon="7.7253281"><ele>766.0</ele><time>2026-04-26T10:05:51.946Z</time></trkpt><trkpt lat="44.3278765" lon="7.7253335"><ele>768.0</ele><time>2026-04-26T10:05:52.946Z</time></trkpt><trkpt lat="44.3277904" lon="7.7253304"><ele>770.0</ele><time>2026-04-26T10:05:53.946Z</time></trkpt><trkpt lat="44.3277252" lon="7.7253088"><ele>772.0</ele><time>2026-04-26T10:05:54.946Z</time></trkpt><trkpt lat="44.3276631" lon="7.7252756"><ele>774.0</ele><time>2026-04-26T10:05:55.946Z</time></trkpt><trkpt lat="44.3275961" lon="7.7252602"><ele>774.0</ele><time>2026-04-26T10:05:58.945Z</time></trkpt><trkpt lat="44.3275145" lon="7.7253888"><ele>774.0</ele><time>2026-04-26T10:06:01.946Z</time></trkpt><trkpt lat="44.3274094" lon="7.7254719"><ele>774.0</ele><time>2026-04-26T10:06:02.945Z</time></trkpt><trkpt lat="44.3273056" lon="7.7255299"><ele>774.0</ele><time>2026-04-26T10:06:03.945Z</time></trkpt><trkpt lat="44.3272391" lon="7.7256141"><ele>774.0</ele><time>2026-04-26T10:06:04.946Z</time></trkpt><trkpt lat="44.3271417" lon="7.7256729"><ele>770.8333333333334</ele><time>2026-04-26T10:06:05.946Z</time></trkpt><trkpt lat="44.3270591" lon="7.7257354"><ele>767.6666666666666</ele><time>2026-04-26T10:06:06.946Z</time></trkpt><trkpt lat="44.3269902" lon="7.7257915"><ele>764.5</ele><time>2026-04-26T10:06:07.946Z</time></trkpt><trkpt lat="44.3269229" lon="7.7258595"><ele>761.3333333333333</ele><time>2026-04-26T10:06:08.945Z</time></trkpt><trkpt lat="44.3268453" lon="7.7259248"><ele>758.1666666666666</ele><time>2026-04-26T10:06:09.946Z</time></trkpt><trkpt lat="44.3267719" lon="7.7259841"><ele>755.0</ele><time>2026-04-26T10:06:10.946Z</time></trkpt><trkpt lat="44.326714" lon="7.7260365"><ele>755.8</ele><time>2026-04-26T10:06:11.945Z</time></trkpt><trkpt lat="44.326641" lon="7.7260658"><ele>756.6</ele><time>2026-04-26T10:06:12.946Z</time></trkpt><trkpt lat="44.3265061" lon="7.7261476"><ele>757.4000000000001</ele><time>2026-04-26T10:06:14.946Z</time></trkpt><trkpt lat="44.3264525" lon="7.7261951"><ele>758.2</ele><time>2026-04-26T10:06:15.946Z</time></trkpt><trkpt lat="44.3263989" lon="7.7262448"><ele>759.0</ele><time>2026-04-26T10:06:16.946Z</time></trkpt><trkpt lat="44.3263186" lon="7.726385"><ele>755.5</ele><time>2026-04-26T10:06:18.946Z</time></trkpt><trkpt lat="44.3263003" lon="7.7264818"><ele>752.0</ele><time>2026-04-26T10:06:19.946Z</time></trkpt><trkpt lat="44.3262758" lon="7.7265849"><ele>748.5</ele><time>2026-04-26T10:06:21.946Z</time></trkpt><trkpt lat="44.3262271" lon="7.7266741"><ele>745.0</ele><time>2026-04-26T10:06:24.946Z</time></trkpt><trkpt lat="44.3261797" lon="7.7267534"><ele>741.5</ele><time>2026-04-26T10:06:27.946Z</time></trkpt><trkpt lat="44.3261418" lon="7.7268516"><ele>738.0</ele><time>2026-04-26T10:06:29.945Z</time></trkpt><trkpt lat="44.3260728" lon="7.7269556"><ele>738.0</ele><time>2026-04-26T10:06:31.946Z</time></trkpt><trkpt lat="44.3259999" lon="7.7270798"><ele>738.0</ele><time>2026-04-26T10:06:34.946Z</time></trkpt><trkpt lat="44.3259693" lon="7.7272031"><ele>738.0</ele><time>2026-04-26T10:06:36.946Z</time></trkpt><trkpt lat="44.3258911" lon="7.7272267"><ele>738.0</ele><time>2026-04-26T10:06:38.946Z</time></trkpt><trkpt lat="44.3258488" lon="7.7271077"><ele>738.0</ele><time>2026-04-26T10:06:41.945Z</time></trkpt><trkpt lat="44.3258453" lon="7.7269931"><ele>737.5999999999999</ele><time>2026-04-26T10:06:42.946Z</time></trkpt><trkpt lat="44.3258179" lon="7.7267936"><ele>737.1999999999999</ele><time>2026-04-26T10:06:44.946Z</time></trkpt><trkpt lat="44.3257989" lon="7.7266829"><ele>736.8</ele><time>2026-04-26T10:06:45.946Z</time></trkpt><trkpt lat="44.3258038" lon="7.7265947"><ele>736.4</ele><time>2026-04-26T10:06:46.946Z</time></trkpt><trkpt lat="44.325795" lon="7.7264895"><ele>736.0</ele><time>2026-04-26T10:06:47.946Z</time></trkpt><trkpt lat="44.3258101" lon="7.7263394"><ele>736.0</ele><time>2026-04-26T10:06:49.945Z</time></trkpt><trkpt lat="44.3258466" lon="7.7262366"><ele>736.0</ele><time>2026-04-26T10:06:50.946Z</time></trkpt><trkpt lat="44.3259071" lon="7.7261871"><ele>736.0</ele><time>2026-04-26T10:06:51.946Z</time></trkpt><trkpt lat="44.3259437" lon="7.7260966"><ele>736.0</ele><time>2026-04-26T10:06:52.946Z</time></trkpt><trkpt lat="44.3259831" lon="7.72601"><ele>736.0</ele><time>2026-04-26T10:06:53.946Z</time></trkpt><trkpt lat="44.3260415" lon="7.7259137"><ele>736.0</ele><time>2026-04-26T10:06:54.946Z</time></trkpt><trkpt lat="44.3260881" lon="7.7258319"><ele>734.6666666666667</ele><time>2026-04-26T10:06:55.946Z</time></trkpt><trkpt lat="44.3261659" lon="7.7257307"><ele>733.3333333333334</ele><time>2026-04-26T10:06:57.946Z</time></trkpt><trkpt lat="44.3262204" lon="7.7256763"><ele>732.0</ele><time>2026-04-26T10:06:58.946Z</time></trkpt><trkpt lat="44.3262726" lon="7.7256119"><ele>730.6666666666666</ele><time>2026-04-26T10:06:59.945Z</time></trkpt><trkpt lat="44.326312" lon="7.7255397"><ele>729.3333333333333</ele><time>2026-04-26T10:07:02.945Z</time></trkpt><trkpt lat="44.3262399" lon="7.7255515"><ele>728.0</ele><time>2026-04-26T10:07:05.946Z</time></trkpt><trkpt lat="44.3261303" lon="7.7255784"><ele>728.0</ele><time>2026-04-26T10:07:08.946Z</time></trkpt><trkpt lat="44.3260491" lon="7.7256147"><ele>728.0</ele><time>2026-04-26T10:07:10.946Z</time></trkpt><trkpt lat="44.3259671" lon="7.7256547"><ele>728.0</ele><time>2026-04-26T10:07:14.946Z</time></trkpt><trkpt lat="44.3258752" lon="7.7257154"><ele>728.0</ele><time>2026-04-26T10:07:16.946Z</time></trkpt><trkpt lat="44.3257884" lon="7.7257833"><ele>728.0</ele><time>2026-04-26T10:07:18.946Z</time></trkpt><trkpt lat="44.3257066" lon="7.7258123"><ele>728.0</ele><time>2026-04-26T10:07:20.946Z</time></trkpt><trkpt lat="44.3256254" lon="7.7258526"><ele>728.0</ele><time>2026-04-26T10:07:22.946Z</time></trkpt><trkpt lat="44.3255433" lon="7.7259159"><ele>728.0</ele><time>2026-04-26T10:07:24.946Z</time></trkpt><trkpt lat="44.3254611" lon="7.7259649"><ele>728.0</ele><time>2026-04-26T10:07:26.946Z</time></trkpt><trkpt lat="44.3253727" lon="7.7260199"><ele>728.0</ele><time>2026-04-26T10:07:28.946Z</time></trkpt><trkpt lat="44.3253025" lon="7.7260962"><ele>724.1666666666666</ele><time>2026-04-26T10:07:30.946Z</time></trkpt><trkpt lat="44.3252548" lon="7.7261583"><ele>720.3333333333333</ele><time>2026-04-26T10:07:31.946Z</time></trkpt><trkpt lat="44.3252012" lon="7.7262795"><ele>716.5</ele><time>2026-04-26T10:07:33.946Z</time></trkpt><trkpt lat="44.3251527" lon="7.7264003"><ele>712.6666666666666</ele><time>2026-04-26T10:07:36.946Z</time></trkpt><trkpt lat="44.3251215" lon="7.7264925"><ele>708.8333333333334</ele><time>2026-04-26T10:07:38.945Z</time></trkpt><trkpt lat="44.325099" lon="7.7266036"><ele>705.0</ele><time>2026-04-26T10:07:40.946Z</time></trkpt><trkpt lat="44.3250543" lon="7.7267158"><ele>705.0</ele><time>2026-04-26T10:07:42.946Z</time></trkpt><trkpt lat="44.325006" lon="7.7267761"><ele>705.0</ele><time>2026-04-26T10:07:44.945Z</time></trkpt><trkpt lat="44.3249527" lon="7.7268624"><ele>705.0</ele><time>2026-04-26T10:07:46.945Z</time></trkpt><trkpt lat="44.3248907" lon="7.7270231"><ele>705.0</ele><time>2026-04-26T10:07:48.946Z</time></trkpt><trkpt lat="44.3248312" lon="7.7271461"><ele>705.0</ele><time>2026-04-26T10:07:50.945Z</time></trkpt><trkpt lat="44.3248218" lon="7.7272827"><ele>705.8333333333334</ele><time>2026-04-26T10:07:52.946Z</time></trkpt><trkpt lat="44.3248357" lon="7.7274403"><ele>706.6666666666666</ele><time>2026-04-26T10:07:54.946Z</time></trkpt><trkpt lat="44.3248267" lon="7.7275275"><ele>707.5</ele><time>2026-04-26T10:07:57.946Z</time></trkpt><trkpt lat="44.3247278" lon="7.7274922"><ele>708.3333333333333</ele><time>2026-04-26T10:08:00.946Z</time></trkpt><trkpt lat="44.3246655" lon="7.7274561"><ele>709.1666666666666</ele><time>2026-04-26T10:08:02.946Z</time></trkpt><trkpt lat="44.3246179" lon="7.727333"><ele>710.0</ele><time>2026-04-26T10:08:05.946Z</time></trkpt><trkpt lat="44.3245942" lon="7.7272258"><ele>706.1666666666666</ele><time>2026-04-26T10:08:09.946Z</time></trkpt><trkpt lat="44.3246066" lon="7.7271332"><ele>702.3333333333333</ele><time>2026-04-26T10:08:11.946Z</time></trkpt><trkpt lat="44.3246303" lon="7.7270222"><ele>698.5</ele><time>2026-04-26T10:08:13.945Z</time></trkpt><trkpt lat="44.3246618" lon="7.7269237"><ele>694.6666666666666</ele><time>2026-04-26T10:08:15.945Z</time></trkpt><trkpt lat="44.3246797" lon="7.7268097"><ele>690.8333333333334</ele><time>2026-04-26T10:08:18.946Z</time></trkpt><trkpt lat="44.3246791" lon="7.7267192"><ele>687.0</ele><time>2026-04-26T10:08:23.946Z</time></trkpt><trkpt lat="44.3247153" lon="7.7265977"><ele>687.0</ele><time>2026-04-26T10:08:52.945Z</time></trkpt><trkpt lat="44.3247307" lon="7.7264913"><ele>687.0</ele><time>2026-04-26T10:08:55.945Z</time></trkpt><trkpt lat="44.3247287" lon="7.7263952"><ele>687.0</ele><time>2026-04-26T10:08:57.946Z</time></trkpt><trkpt lat="44.3246954" lon="7.7263118"><ele>687.0</ele><time>2026-04-26T10:08:59.946Z</time></trkpt><trkpt lat="44.3245672" lon="7.726414"><ele>687.0</ele><time>2026-04-26T10:09:02.946Z</time></trkpt><trkpt lat="44.3244342" lon="7.7264549"><ele>687.0</ele><time>2026-04-26T10:09:04.946Z</time></trkpt><trkpt lat="44.324349" lon="7.7264637"><ele>687.0</ele><time>2026-04-26T10:09:05.946Z</time></trkpt><trkpt lat="44.32427" lon="7.7264777"><ele>687.0</ele><time>2026-04-26T10:09:06.945Z</time></trkpt><trkpt lat="44.3241659" lon="7.7265084"><ele>687.0</ele><time>2026-04-26T10:09:08.946Z</time></trkpt><trkpt lat="44.3240913" lon="7.7264629"><ele>687.0</ele><time>2026-04-26T10:09:09.945Z</time></trkpt><trkpt lat="44.3240066" lon="7.7264418"><ele>687.0</ele><time>2026-04-26T10:09:10.946Z</time></trkpt><trkpt lat="44.3239226" lon="7.7263959"><ele>684.6</ele><time>2026-04-26T10:09:11.946Z</time></trkpt><trkpt lat="44.3238603" lon="7.7263223"><ele>682.2</ele><time>2026-04-26T10:09:12.946Z</time></trkpt><trkpt lat="44.323789" lon="7.7262267"><ele>679.8</ele><time>2026-04-26T10:09:14.946Z</time></trkpt><trkpt lat="44.323763" lon="7.7260367"><ele>677.4</ele><time>2026-04-26T10:09:16.946Z</time></trkpt><trkpt lat="44.3237331" lon="7.7259348"><ele>675.0</ele><time>2026-04-26T10:09:17.946Z</time></trkpt><trkpt lat="44.3236708" lon="7.7258337"><ele>675.0</ele><time>2026-04-26T10:09:19.946Z</time></trkpt><trkpt lat="44.3236985" lon="7.7257481"><ele>675.0</ele><time>2026-04-26T10:09:21.946Z</time></trkpt><trkpt lat="44.3237787" lon="7.7255997"><ele>675.0</ele><time>2026-04-26T10:09:23.946Z</time></trkpt><trkpt lat="44.3238452" lon="7.7254558"><ele>675.0</ele><time>2026-04-26T10:09:25.946Z</time></trkpt><trkpt lat="44.3239085" lon="7.7254076"><ele>675.0</ele><time>2026-04-26T10:09:26.945Z</time></trkpt><trkpt lat="44.323956" lon="7.7253198"><ele>677.5</ele><time>2026-04-26T10:09:28.945Z</time></trkpt><trkpt lat="44.3239864" lon="7.7252249"><ele>680.0</ele><time>2026-04-26T10:09:30.946Z</time></trkpt><trkpt lat="44.3239147" lon="7.7251676"><ele>682.5</ele><time>2026-04-26T10:09:33.946Z</time></trkpt><trkpt lat="44.3238317" lon="7.7251932"><ele>685.0</ele><time>2026-04-26T10:09:35.946Z</time></trkpt><trkpt lat="44.3237691" lon="7.7252095"><ele>687.5</ele><time>2026-04-26T10:09:36.946Z</time></trkpt><trkpt lat="44.3236763" lon="7.7252161"><ele>690.0</ele><time>2026-04-26T10:09:37.946Z</time></trkpt><trkpt lat="44.3235773" lon="7.7251976"><ele>690.0</ele><time>2026-04-26T10:09:38.946Z</time></trkpt><trkpt lat="44.323486" lon="7.7251668"><ele>690.0</ele><time>2026-04-26T10:09:39.946Z</time></trkpt><trkpt lat="44.3233939" lon="7.7251341"><ele>690.0</ele><time>2026-04-26T10:09:40.946Z</time></trkpt><trkpt lat="44.3233074" lon="7.7251105"><ele>690.0</ele><time>2026-04-26T10:09:41.946Z</time></trkpt><trkpt lat="44.3232412" lon="7.7251312"><ele>690.0</ele><time>2026-04-26T10:09:42.945Z</time></trkpt><trkpt lat="44.3231739" lon="7.7251235"><ele>690.0</ele><time>2026-04-26T10:09:43.946Z</time></trkpt><trkpt lat="44.3230932" lon="7.7250747"><ele>687.3333333333334</ele><time>2026-04-26T10:09:44.946Z</time></trkpt><trkpt lat="44.3230324" lon="7.7250445"><ele>684.6666666666666</ele><time>2026-04-26T10:09:45.946Z</time></trkpt><trkpt lat="44.3229733" lon="7.7250047"><ele>682.0</ele><time>2026-04-26T10:09:46.946Z</time></trkpt><trkpt lat="44.3228981" lon="7.7249586"><ele>679.3333333333333</ele><time>2026-04-26T10:09:47.946Z</time></trkpt><trkpt lat="44.3228332" lon="7.7249113"><ele>676.6666666666666</ele><time>2026-04-26T10:09:48.946Z</time></trkpt><trkpt lat="44.3227716" lon="7.7248493"><ele>674.0</ele><time>2026-04-26T10:09:49.946Z</time></trkpt><trkpt lat="44.3226678" lon="7.724756"><ele>674.0</ele><time>2026-04-26T10:09:51.946Z</time></trkpt><trkpt lat="44.3225579" lon="7.7247174"><ele>674.0</ele><time>2026-04-26T10:09:53.946Z</time></trkpt><trkpt lat="44.3224294" lon="7.7246392"><ele>674.0</ele><time>2026-04-26T10:09:55.946Z</time></trkpt><trkpt lat="44.322377" lon="7.7245812"><ele>674.0</ele><time>2026-04-26T10:09:56.946Z</time></trkpt><trkpt lat="44.3222844" lon="7.7244638"><ele>674.0</ele><time>2026-04-26T10:09:57.945Z</time></trkpt><trkpt lat="44.3221876" lon="7.7243701"><ele>672.4000000000001</ele><time>2026-04-26T10:09:58.946Z</time></trkpt><trkpt lat="44.3221031" lon="7.7242893"><ele>670.8</ele><time>2026-04-26T10:09:59.946Z</time></trkpt><trkpt lat="44.3220039" lon="7.7242219"><ele>669.2</ele><time>2026-04-26T10:10:00.946Z</time></trkpt><trkpt lat="44.3219153" lon="7.724154"><ele>667.5999999999999</ele><time>2026-04-26T10:10:01.946Z</time></trkpt><trkpt lat="44.3218324" lon="7.7241176"><ele>666.0</ele><time>2026-04-26T10:10:02.946Z</time></trkpt><trkpt lat="44.3217633" lon="7.7240801"><ele>666.0</ele><time>2026-04-26T10:10:03.946Z</time></trkpt><trkpt lat="44.3216983" lon="7.7240596"><ele>666.0</ele><time>2026-04-26T10:10:04.946Z</time></trkpt><trkpt lat="44.3216075" lon="7.7239826"><ele>666.0</ele><time>2026-04-26T10:10:06.946Z</time></trkpt><trkpt lat="44.321512" lon="7.7238666"><ele>666.0</ele><time>2026-04-26T10:10:08.946Z</time></trkpt><trkpt lat="44.3214387" lon="7.723769"><ele>666.0</ele><time>2026-04-26T10:10:10.946Z</time></trkpt><trkpt lat="44.321362" lon="7.7238959"><ele>664.0</ele><time>2026-04-26T10:10:17.945Z</time></trkpt><trkpt lat="44.321339" lon="7.723981"><ele>662.0</ele><time>2026-04-26T10:10:18.945Z</time></trkpt><trkpt lat="44.3213318" lon="7.7241256"><ele>660.0</ele><time>2026-04-26T10:10:20.945Z</time></trkpt><trkpt lat="44.3213338" lon="7.7242214"><ele>658.0</ele><time>2026-04-26T10:10:21.946Z</time></trkpt><trkpt lat="44.3213734" lon="7.7243379"><ele>656.0</ele><time>2026-04-26T10:10:22.945Z</time></trkpt><trkpt lat="44.3214129" lon="7.7244508"><ele>654.0</ele><time>2026-04-26T10:10:23.946Z</time></trkpt><trkpt lat="44.3214546" lon="7.724545"><ele>654.0</ele><time>2026-04-26T10:10:24.946Z</time></trkpt><trkpt lat="44.3214961" lon="7.7246592"><ele>654.0</ele><time>2026-04-26T10:10:25.945Z</time></trkpt><trkpt lat="44.3215404" lon="7.7247688"><ele>654.0</ele><time>2026-04-26T10:10:26.946Z</time></trkpt><trkpt lat="44.3215738" lon="7.7248938"><ele>654.0</ele><time>2026-04-26T10:10:27.946Z</time></trkpt><trkpt lat="44.3216185" lon="7.7250137"><ele>654.0</ele><time>2026-04-26T10:10:28.946Z</time></trkpt><trkpt lat="44.3216579" lon="7.7251469"><ele>655.4000000000001</ele><time>2026-04-26T10:10:29.946Z</time></trkpt><trkpt lat="44.3216913" lon="7.7252388"><ele>656.8</ele><time>2026-04-26T10:10:30.945Z</time></trkpt><trkpt lat="44.3217489" lon="7.7253695"><ele>658.2</ele><time>2026-04-26T10:10:32.946Z</time></trkpt><trkpt lat="44.321644" lon="7.7253993"><ele>659.5999999999999</ele><time>2026-04-26T10:10:36.946Z</time></trkpt><trkpt lat="44.3215675" lon="7.7253354"><ele>661.0</ele><time>2026-04-26T10:10:37.946Z</time></trkpt><trkpt lat="44.3214962" lon="7.7252713"><ele>659.5999999999999</ele><time>2026-04-26T10:10:38.946Z</time></trkpt><trkpt lat="44.321429" lon="7.7252091"><ele>658.2</ele><time>2026-04-26T10:10:39.946Z</time></trkpt><trkpt lat="44.3213697" lon="7.7251494"><ele>656.8</ele><time>2026-04-26T10:10:40.946Z</time></trkpt><trkpt lat="44.3213069" lon="7.7251002"><ele>655.4000000000001</ele><time>2026-04-26T10:10:41.946Z</time></trkpt><trkpt lat="44.3212059" lon="7.7250167"><ele>654.0</ele><time>2026-04-26T10:10:43.945Z</time></trkpt><trkpt lat="44.3211545" lon="7.7248836"><ele>652.0</ele><time>2026-04-26T10:10:45.945Z</time></trkpt><trkpt lat="44.3210771" lon="7.7247331"><ele>650.0</ele><time>2026-04-26T10:10:47.946Z</time></trkpt><trkpt lat="44.3210077" lon="7.7246804"><ele>648.0</ele><time>2026-04-26T10:10:48.946Z</time></trkpt><trkpt lat="44.3208886" lon="7.7245992"><ele>646.0</ele><time>2026-04-26T10:10:49.946Z</time></trkpt><trkpt lat="44.3207994" lon="7.7245574"><ele>644.0</ele><time>2026-04-26T10:10:50.946Z</time></trkpt><trkpt lat="44.3206856" lon="7.7244757"><ele>644.0</ele><time>2026-04-26T10:10:51.945Z</time></trkpt><trkpt lat="44.3205861" lon="7.724408"><ele>644.0</ele><time>2026-04-26T10:10:52.946Z</time></trkpt><trkpt lat="44.320513" lon="7.7243364"><ele>644.0</ele><time>2026-04-26T10:10:53.946Z</time></trkpt><trkpt lat="44.3204543" lon="7.7242756"><ele>644.0</ele><time>2026-04-26T10:10:54.946Z</time></trkpt><trkpt lat="44.3204052" lon="7.7242018"><ele>644.0</ele><time>2026-04-26T10:10:55.946Z</time></trkpt><trkpt lat="44.3203342" lon="7.7241631"><ele>644.0</ele><time>2026-04-26T10:10:56.945Z</time></trkpt><trkpt lat="44.3202713" lon="7.7241053"><ele>642.8000000000001</ele><time>2026-04-26T10:10:57.946Z</time></trkpt><trkpt lat="44.3202037" lon="7.7240868"><ele>641.6</ele><time>2026-04-26T10:10:58.946Z</time></trkpt><trkpt lat="44.3200499" lon="7.7241108"><ele>640.4</ele><time>2026-04-26T10:10:59.946Z</time></trkpt><trkpt lat="44.3199317" lon="7.7240779"><ele>639.2</ele><time>2026-04-26T10:11:00.946Z</time></trkpt><trkpt lat="44.3198349" lon="7.7240771"><ele>638.0</ele><time>2026-04-26T10:11:01.946Z</time></trkpt><trkpt lat="44.3197194" lon="7.7240525"><ele>638.0</ele><time>2026-04-26T10:11:02.946Z</time></trkpt><trkpt lat="44.3195879" lon="7.7240497"><ele>638.0</ele><time>2026-04-26T10:11:03.946Z</time></trkpt><trkpt lat="44.3194646" lon="7.7240192"><ele>638.0</ele><time>2026-04-26T10:11:04.946Z</time></trkpt><trkpt lat="44.3193666" lon="7.7239982"><ele>638.0</ele><time>2026-04-26T10:11:05.945Z</time></trkpt><trkpt lat="44.3192273" lon="7.7239554"><ele>638.0</ele><time>2026-04-26T10:11:06.946Z</time></trkpt><trkpt lat="44.3191602" lon="7.7239669"><ele>638.0</ele><time>2026-04-26T10:11:07.946Z</time></trkpt><trkpt lat="44.3190758" lon="7.7239328"><ele>638.0</ele><time>2026-04-26T10:11:08.945Z</time></trkpt><trkpt lat="44.3189811" lon="7.7238563"><ele>638.0</ele><time>2026-04-26T10:11:09.946Z</time></trkpt><trkpt lat="44.3188921" lon="7.7237903"><ele>638.0</ele><time>2026-04-26T10:11:10.946Z</time></trkpt><trkpt lat="44.3187742" lon="7.7237514"><ele>639.25</ele><time>2026-04-26T10:11:11.945Z</time></trkpt><trkpt lat="44.3186668" lon="7.7236853"><ele>640.5</ele><time>2026-04-26T10:11:12.946Z</time></trkpt><trkpt lat="44.3185521" lon="7.7236395"><ele>641.75</ele><time>2026-04-26T10:11:13.946Z</time></trkpt><trkpt lat="44.3184454" lon="7.7235902"><ele>643.0</ele><time>2026-04-26T10:11:14.946Z</time></trkpt><trkpt lat="44.3183352" lon="7.723561"><ele>638.6</ele><time>2026-04-26T10:11:15.946Z</time></trkpt><trkpt lat="44.318243" lon="7.7235349"><ele>634.1999999999999</ele><time>2026-04-26T10:11:16.946Z</time></trkpt><trkpt lat="44.3181458" lon="7.7235157"><ele>629.8</ele><time>2026-04-26T10:11:17.946Z</time></trkpt><trkpt lat="44.3180609" lon="7.7234758"><ele>625.4</ele><time>2026-04-26T10:11:18.945Z</time></trkpt><trkpt lat="44.3179668" lon="7.7234262"><ele>621.0</ele><time>2026-04-26T10:11:19.946Z</time></trkpt><trkpt lat="44.3178991" lon="7.7233664"><ele>619.8333333333334</ele><time>2026-04-26T10:11:20.946Z</time></trkpt><trkpt lat="44.3178268" lon="7.7233307"><ele>618.6666666666666</ele><time>2026-04-26T10:11:21.946Z</time></trkpt><trkpt lat="44.3177598" lon="7.7233185"><ele>617.5</ele><time>2026-04-26T10:11:22.945Z</time></trkpt><trkpt lat="44.3176908" lon="7.7233216"><ele>616.3333333333333</ele><time>2026-04-26T10:11:23.946Z</time></trkpt><trkpt lat="44.3176086" lon="7.7233279"><ele>615.1666666666666</ele><time>2026-04-26T10:11:24.946Z</time></trkpt><trkpt lat="44.3175027" lon="7.7233797"><ele>614.0</ele><time>2026-04-26T10:11:25.945Z</time></trkpt><trkpt lat="44.3173946" lon="7.7234404"><ele>614.0</ele><time>2026-04-26T10:11:26.946Z</time></trkpt><trkpt lat="44.3173056" lon="7.7234917"><ele>614.0</ele><time>2026-04-26T10:11:27.945Z</time></trkpt><trkpt lat="44.3172226" lon="7.7235391"><ele>614.0</ele><time>2026-04-26T10:11:28.945Z</time></trkpt><trkpt lat="44.317136" lon="7.7235767"><ele>614.0</ele><time>2026-04-26T10:11:29.946Z</time></trkpt><trkpt lat="44.3170282" lon="7.7235968"><ele>614.0</ele><time>2026-04-26T10:11:30.945Z</time></trkpt><trkpt lat="44.3169182" lon="7.7236296"><ele>612.5</ele><time>2026-04-26T10:11:31.946Z</time></trkpt><trkpt lat="44.3168236" lon="7.7236837"><ele>611.0</ele><time>2026-04-26T10:11:32.946Z</time></trkpt><trkpt lat="44.3167415" lon="7.7237484"><ele>609.5</ele><time>2026-04-26T10:11:33.946Z</time></trkpt><trkpt lat="44.3166515" lon="7.7238056"><ele>608.0</ele><time>2026-04-26T10:11:34.945Z</time></trkpt><trkpt lat="44.3165859" lon="7.7238444"><ele>606.5</ele><time>2026-04-26T10:11:35.946Z</time></trkpt><trkpt lat="44.3165191" lon="7.7239007"><ele>605.0</ele><time>2026-04-26T10:11:36.945Z</time></trkpt><trkpt lat="44.3164543" lon="7.7239448"><ele>604.0</ele><time>2026-04-26T10:11:37.946Z</time></trkpt><trkpt lat="44.316368" lon="7.7239933"><ele>603.0</ele><time>2026-04-26T10:11:38.946Z</time></trkpt><trkpt lat="44.316291" lon="7.7240323"><ele>602.0</ele><time>2026-04-26T10:11:39.946Z</time></trkpt><trkpt lat="44.3162197" lon="7.7240718"><ele>601.0</ele><time>2026-04-26T10:11:40.946Z</time></trkpt><trkpt lat="44.3161557" lon="7.7241419"><ele>600.0</ele><time>2026-04-26T10:11:41.946Z</time></trkpt><trkpt lat="44.3161033" lon="7.7242253"><ele>599.0</ele><time>2026-04-26T10:11:42.946Z</time></trkpt><trkpt lat="44.3160443" lon="7.7243403"><ele>598.8333333333333</ele><time>2026-04-26T10:11:43.945Z</time></trkpt><trkpt lat="44.3159904" lon="7.724446"><ele>598.6666666666666</ele><time>2026-04-26T10:11:44.946Z</time></trkpt><trkpt lat="44.3159404" lon="7.7245351"><ele>598.5</ele><time>2026-04-26T10:11:45.946Z</time></trkpt><trkpt lat="44.3158939" lon="7.724604"><ele>598.3333333333334</ele><time>2026-04-26T10:11:46.946Z</time></trkpt><trkpt lat="44.3158427" lon="7.7246644"><ele>598.1666666666667</ele><time>2026-04-26T10:11:47.946Z</time></trkpt><trkpt lat="44.3157856" lon="7.724731"><ele>598.0</ele><time>2026-04-26T10:11:48.946Z</time></trkpt><trkpt lat="44.3157175" lon="7.7248016"><ele>598.0</ele><time>2026-04-26T10:11:49.945Z</time></trkpt><trkpt lat="44.3156431" lon="7.7248745"><ele>598.0</ele><time>2026-04-26T10:11:50.946Z</time></trkpt><trkpt lat="44.3155622" lon="7.7249633"><ele>598.0</ele><time>2026-04-26T10:11:51.946Z</time></trkpt><trkpt lat="44.3154846" lon="7.7250588"><ele>598.0</ele><time>2026-04-26T10:11:52.946Z</time></trkpt><trkpt lat="44.3154193" lon="7.7251543"><ele>598.0</ele><time>2026-04-26T10:11:53.946Z</time></trkpt><trkpt lat="44.3153645" lon="7.7252717"><ele>596.25</ele><time>2026-04-26T10:11:54.946Z</time></trkpt><trkpt lat="44.3153345" lon="7.7254076"><ele>594.5</ele><time>2026-04-26T10:11:55.945Z</time></trkpt><trkpt lat="44.3153207" lon="7.7255603"><ele>592.75</ele><time>2026-04-26T10:11:56.946Z</time></trkpt><trkpt lat="44.3153141" lon="7.7257286"><ele>591.0</ele><time>2026-04-26T10:11:57.946Z</time></trkpt><trkpt lat="44.3153081" lon="7.7259077"><ele>590.75</ele><time>2026-04-26T10:11:58.946Z</time></trkpt><trkpt lat="44.3153012" lon="7.726092"><ele>590.5</ele><time>2026-04-26T10:11:59.946Z</time></trkpt><trkpt lat="44.3152905" lon="7.7262778"><ele>590.25</ele><time>2026-04-26T10:12:00.946Z</time></trkpt><trkpt lat="44.315279" lon="7.7264662"><ele>590.0</ele><time>2026-04-26T10:12:01.946Z</time></trkpt><trkpt lat="44.3152606" lon="7.7266633"><ele>590.0</ele><time>2026-04-26T10:12:02.945Z</time></trkpt><trkpt lat="44.3152465" lon="7.726855"><ele>590.0</ele><time>2026-04-26T10:12:03.946Z</time></trkpt><trkpt lat="44.3152321" lon="7.7270454"><ele>590.0</ele><time>2026-04-26T10:12:04.945Z</time></trkpt><trkpt lat="44.3152259" lon="7.7272273"><ele>590.0</ele><time>2026-04-26T10:12:05.946Z</time></trkpt><trkpt lat="44.3152189" lon="7.7273758"><ele>590.0</ele><time>2026-04-26T10:12:06.946Z</time></trkpt><trkpt lat="44.3152041" lon="7.7275054"><ele>590.0</ele><time>2026-04-26T10:12:07.946Z</time></trkpt><trkpt lat="44.3151692" lon="7.7276151"><ele>590.0</ele><time>2026-04-26T10:12:08.946Z</time></trkpt><trkpt lat="44.3151298" lon="7.7276857"><ele>590.0</ele><time>2026-04-26T10:12:09.946Z</time></trkpt><trkpt lat="44.3150698" lon="7.7277587"><ele>590.0</ele><time>2026-04-26T10:12:10.946Z</time></trkpt><trkpt lat="44.3149884" lon="7.7278188"><ele>590.0</ele><time>2026-04-26T10:12:11.946Z</time></trkpt><trkpt lat="44.3148848" lon="7.7278579"><ele>589.8</ele><time>2026-04-26T10:12:12.946Z</time></trkpt><trkpt lat="44.3147613" lon="7.7279012"><ele>589.6</ele><time>2026-04-26T10:12:13.946Z</time></trkpt><trkpt lat="44.3146474" lon="7.727949"><ele>589.4</ele><time>2026-04-26T10:12:14.946Z</time></trkpt><trkpt lat="44.3145481" lon="7.7280002"><ele>589.2</ele><time>2026-04-26T10:12:15.946Z</time></trkpt><trkpt lat="44.3144623" lon="7.7280483"><ele>589.0</ele><time>2026-04-26T10:12:16.946Z</time></trkpt><trkpt lat="44.314385" lon="7.7280892"><ele>589.0</ele><time>2026-04-26T10:12:17.945Z</time></trkpt><trkpt lat="44.3143174" lon="7.728124"><ele>589.0</ele><time>2026-04-26T10:12:18.946Z</time></trkpt><trkpt lat="44.3142343" lon="7.7281771"><ele>589.0</ele><time>2026-04-26T10:12:20.946Z</time></trkpt><trkpt lat="44.3141988" lon="7.7282751"><ele>589.0</ele><time>2026-04-26T10:12:22.946Z</time></trkpt><trkpt lat="44.3142113" lon="7.7283628"><ele>589.0</ele><time>2026-04-26T10:12:23.946Z</time></trkpt><trkpt lat="44.3142476" lon="7.7284637"><ele>589.0</ele><time>2026-04-26T10:12:24.946Z</time></trkpt><trkpt lat="44.3142999" lon="7.7285952"><ele>588.75</ele><time>2026-04-26T10:12:25.946Z</time></trkpt><trkpt lat="44.3143612" lon="7.7287389"><ele>588.5</ele><time>2026-04-26T10:12:26.946Z</time></trkpt><trkpt lat="44.3144273" lon="7.728894"><ele>588.25</ele><time>2026-04-26T10:12:27.946Z</time></trkpt><trkpt lat="44.3144977" lon="7.7290499"><ele>588.0</ele><time>2026-04-26T10:12:28.946Z</time></trkpt><trkpt lat="44.3145677" lon="7.7292159"><ele>588.3333333333334</ele><time>2026-04-26T10:12:29.946Z</time></trkpt><trkpt lat="44.3146417" lon="7.7293952"><ele>588.6666666666667</ele><time>2026-04-26T10:12:30.946Z</time></trkpt><trkpt lat="44.3147207" lon="7.7295711"><ele>589.0</ele><time>2026-04-26T10:12:31.946Z</time></trkpt><trkpt lat="44.3147963" lon="7.7297571"><ele>588.0</ele><time>2026-04-26T10:12:32.946Z</time></trkpt><trkpt lat="44.3148792" lon="7.7299492"><ele>587.0</ele><time>2026-04-26T10:12:33.946Z</time></trkpt><trkpt lat="44.3149638" lon="7.7301525"><ele>586.0</ele><time>2026-04-26T10:12:34.946Z</time></trkpt><trkpt lat="44.3150466" lon="7.7303522"><ele>585.6666666666667</ele><time>2026-04-26T10:12:35.946Z</time></trkpt><trkpt lat="44.3151284" lon="7.7305543"><ele>585.3333333333334</ele><time>2026-04-26T10:12:36.946Z</time></trkpt><trkpt lat="44.3152063" lon="7.7307652"><ele>585.0</ele><time>2026-04-26T10:12:37.946Z</time></trkpt><trkpt lat="44.3152768" lon="7.7309897"><ele>584.3333333333334</ele><time>2026-04-26T10:12:38.946Z</time></trkpt><trkpt lat="44.3153423" lon="7.731228"><ele>583.6666666666667</ele><time>2026-04-26T10:12:39.945Z</time></trkpt><trkpt lat="44.315395" lon="7.7314705"><ele>583.0</ele><time>2026-04-26T10:12:40.946Z</time></trkpt><trkpt lat="44.3154385" lon="7.7317246"><ele>583.3333333333334</ele><time>2026-04-26T10:12:41.946Z</time></trkpt><trkpt lat="44.3154769" lon="7.7319788"><ele>583.6666666666666</ele><time>2026-04-26T10:12:42.946Z</time></trkpt><trkpt lat="44.3155131" lon="7.7322409"><ele>584.0</ele><time>2026-04-26T10:12:43.946Z</time></trkpt><trkpt lat="44.3155497" lon="7.7324985"><ele>582.3333333333333</ele><time>2026-04-26T10:12:44.946Z</time></trkpt><trkpt lat="44.3155856" lon="7.7327578"><ele>580.6666666666666</ele><time>2026-04-26T10:12:45.946Z</time></trkpt><trkpt lat="44.3156234" lon="7.7330181"><ele>579.0</ele><time>2026-04-26T10:12:46.946Z</time></trkpt><trkpt lat="44.3156587" lon="7.7332771"><ele>579.0</ele><time>2026-04-26T10:12:47.946Z</time></trkpt><trkpt lat="44.3156973" lon="7.7335468"><ele>579.0</ele><time>2026-04-26T10:12:48.945Z</time></trkpt><trkpt lat="44.3157371" lon="7.7338247"><ele>579.0</ele><time>2026-04-26T10:12:49.946Z</time></trkpt><trkpt lat="44.3157808" lon="7.7341086"><ele>578.6666666666666</ele><time>2026-04-26T10:12:50.945Z</time></trkpt><trkpt lat="44.3158313" lon="7.7343993"><ele>578.3333333333333</ele><time>2026-04-26T10:12:51.945Z</time></trkpt><trkpt lat="44.3158863" lon="7.7346964"><ele>578.0</ele><time>2026-04-26T10:12:52.946Z</time></trkpt><trkpt lat="44.3159489" lon="7.7349992"><ele>577.6666666666666</ele><time>2026-04-26T10:12:53.946Z</time></trkpt><trkpt lat="44.3160083" lon="7.7352861"><ele>577.3333333333334</ele><time>2026-04-26T10:12:54.946Z</time></trkpt><trkpt lat="44.3160717" lon="7.7355758"><ele>577.0</ele><time>2026-04-26T10:12:55.946Z</time></trkpt><trkpt lat="44.3161335" lon="7.7358659"><ele>577.6666666666667</ele><time>2026-04-26T10:12:56.946Z</time></trkpt><trkpt lat="44.3162032" lon="7.7361534"><ele>578.3333333333334</ele><time>2026-04-26T10:12:57.946Z</time></trkpt><trkpt lat="44.3162765" lon="7.7364448"><ele>579.0</ele><time>2026-04-26T10:12:58.946Z</time></trkpt><trkpt lat="44.3163539" lon="7.7367339"><ele>578.6666666666666</ele><time>2026-04-26T10:12:59.946Z</time></trkpt><trkpt lat="44.3164301" lon="7.7370218"><ele>578.3333333333333</ele><time>2026-04-26T10:13:00.946Z</time></trkpt><trkpt lat="44.316506" lon="7.7373098"><ele>578.0</ele><time>2026-04-26T10:13:01.945Z</time></trkpt><trkpt lat="44.3165762" lon="7.7375752"><ele>578.6666666666666</ele><time>2026-04-26T10:13:02.946Z</time></trkpt><trkpt lat="44.3166407" lon="7.7378196"><ele>579.3333333333334</ele><time>2026-04-26T10:13:03.946Z</time></trkpt><trkpt lat="44.3167039" lon="7.7380538"><ele>580.0</ele><time>2026-04-26T10:13:04.946Z</time></trkpt><trkpt lat="44.3167629" lon="7.7382789"><ele>580.0</ele><time>2026-04-26T10:13:05.946Z</time></trkpt><trkpt lat="44.3168206" lon="7.738502"><ele>580.0</ele><time>2026-04-26T10:13:06.946Z</time></trkpt><trkpt lat="44.3168764" lon="7.738721"><ele>580.0</ele><time>2026-04-26T10:13:07.946Z</time></trkpt><trkpt lat="44.3169331" lon="7.7389365"><ele>579.6666666666667</ele><time>2026-04-26T10:13:08.946Z</time></trkpt><trkpt lat="44.3169879" lon="7.7391499"><ele>579.3333333333334</ele><time>2026-04-26T10:13:09.945Z</time></trkpt><trkpt lat="44.3170438" lon="7.739362"><ele>579.0</ele><time>2026-04-26T10:13:10.946Z</time></trkpt><trkpt lat="44.3171016" lon="7.7395731"><ele>579.0</ele><time>2026-04-26T10:13:11.946Z</time></trkpt><trkpt lat="44.3171587" lon="7.7397792"><ele>579.0</ele><time>2026-04-26T10:13:12.946Z</time></trkpt><trkpt lat="44.3172139" lon="7.7399886"><ele>579.0</ele><time>2026-04-26T10:13:13.946Z</time></trkpt><trkpt lat="44.3172729" lon="7.7401932"><ele>578.6666666666666</ele><time>2026-04-26T10:13:14.946Z</time></trkpt><trkpt lat="44.3173291" lon="7.7404004"><ele>578.3333333333333</ele><time>2026-04-26T10:13:15.946Z</time></trkpt><trkpt lat="44.3173859" lon="7.7406177"><ele>578.0</ele><time>2026-04-26T10:13:16.946Z</time></trkpt><trkpt lat="44.3174418" lon="7.7408339"><ele>578.3333333333333</ele><time>2026-04-26T10:13:17.945Z</time></trkpt><trkpt lat="44.3174961" lon="7.7410506"><ele>578.6666666666666</ele><time>2026-04-26T10:13:18.946Z</time></trkpt><trkpt lat="44.3175498" lon="7.7412631"><ele>579.0</ele><time>2026-04-26T10:13:19.946Z</time></trkpt><trkpt lat="44.3176032" lon="7.7414633"><ele>579.0</ele><time>2026-04-26T10:13:20.946Z</time></trkpt><trkpt lat="44.3176482" lon="7.7416447"><ele>579.0</ele><time>2026-04-26T10:13:21.945Z</time></trkpt><trkpt lat="44.3176983" lon="7.7418101"><ele>579.0</ele><time>2026-04-26T10:13:22.946Z</time></trkpt><trkpt lat="44.3177474" lon="7.7419679"><ele>579.0</ele><time>2026-04-26T10:13:23.945Z</time></trkpt><trkpt lat="44.3177953" lon="7.7421167"><ele>578.6</ele><time>2026-04-26T10:13:24.946Z</time></trkpt><trkpt lat="44.3178363" lon="7.7422489"><ele>578.2</ele><time>2026-04-26T10:13:25.946Z</time></trkpt><trkpt lat="44.3178641" lon="7.7423883"><ele>577.8000000000001</ele><time>2026-04-26T10:13:26.946Z</time></trkpt><trkpt lat="44.3178866" lon="7.7425055"><ele>577.4</ele><time>2026-04-26T10:13:27.946Z</time></trkpt><trkpt lat="44.3179362" lon="7.7426127"><ele>577.0</ele><time>2026-04-26T10:13:28.945Z</time></trkpt><trkpt lat="44.3180087" lon="7.7427016"><ele>576.75</ele><time>2026-04-26T10:13:29.946Z</time></trkpt><trkpt lat="44.3181062" lon="7.7427917"><ele>576.5</ele><time>2026-04-26T10:13:30.946Z</time></trkpt><trkpt lat="44.318213" lon="7.7428757"><ele>576.25</ele><time>2026-04-26T10:13:31.946Z</time></trkpt><trkpt lat="44.318327" lon="7.7429623"><ele>576.0</ele><time>2026-04-26T10:13:32.945Z</time></trkpt><trkpt lat="44.318445" lon="7.7430501"><ele>576.0</ele><time>2026-04-26T10:13:33.946Z</time></trkpt><trkpt lat="44.3185712" lon="7.7431446"><ele>576.0</ele><time>2026-04-26T10:13:34.946Z</time></trkpt><trkpt lat="44.318704" lon="7.7432532"><ele>576.0</ele><time>2026-04-26T10:13:35.946Z</time></trkpt><trkpt lat="44.318839" lon="7.7433519"><ele>576.0</ele><time>2026-04-26T10:13:36.946Z</time></trkpt><trkpt lat="44.3189685" lon="7.7434501"><ele>575.25</ele><time>2026-04-26T10:13:37.945Z</time></trkpt><trkpt lat="44.3190905" lon="7.7435374"><ele>574.5</ele><time>2026-04-26T10:13:38.945Z</time></trkpt><trkpt lat="44.3192047" lon="7.7436198"><ele>573.75</ele><time>2026-04-26T10:13:39.946Z</time></trkpt><trkpt lat="44.3193191" lon="7.7437011"><ele>573.0</ele><time>2026-04-26T10:13:40.946Z</time></trkpt><trkpt lat="44.3194345" lon="7.7437815"><ele>572.75</ele><time>2026-04-26T10:13:41.946Z</time></trkpt><trkpt lat="44.3195501" lon="7.7438661"><ele>572.5</ele><time>2026-04-26T10:13:42.946Z</time></trkpt><trkpt lat="44.3196735" lon="7.7439606"><ele>572.25</ele><time>2026-04-26T10:13:43.946Z</time></trkpt><trkpt lat="44.3198059" lon="7.7440554"><ele>572.0</ele><time>2026-04-26T10:13:44.946Z</time></trkpt><trkpt lat="44.319942" lon="7.7441486"><ele>571.0</ele><time>2026-04-26T10:13:45.945Z</time></trkpt><trkpt lat="44.3200903" lon="7.7442505"><ele>570.0</ele><time>2026-04-26T10:13:46.945Z</time></trkpt><trkpt lat="44.3202406" lon="7.7443601"><ele>569.0</ele><time>2026-04-26T10:13:47.946Z</time></trkpt><trkpt lat="44.3203988" lon="7.7444685"><ele>569.0</ele><time>2026-04-26T10:13:48.946Z</time></trkpt><trkpt lat="44.320561" lon="7.744594"><ele>569.0</ele><time>2026-04-26T10:13:49.946Z</time></trkpt><trkpt lat="44.3207225" lon="7.7447149"><ele>569.0</ele><time>2026-04-26T10:13:50.946Z</time></trkpt><trkpt lat="44.3208935" lon="7.7448359"><ele>568.3333333333333</ele><time>2026-04-26T10:13:51.946Z</time></trkpt><trkpt lat="44.3210554" lon="7.7449615"><ele>567.6666666666666</ele><time>2026-04-26T10:13:52.946Z</time></trkpt><trkpt lat="44.321212" lon="7.7450744"><ele>567.0</ele><time>2026-04-26T10:13:53.946Z</time></trkpt><trkpt lat="44.3213657" lon="7.7451921"><ele>566.3333333333334</ele><time>2026-04-26T10:13:54.946Z</time></trkpt><trkpt lat="44.3215067" lon="7.7452993"><ele>565.6666666666667</ele><time>2026-04-26T10:13:55.946Z</time></trkpt><trkpt lat="44.3216439" lon="7.7454073"><ele>565.0</ele><time>2026-04-26T10:13:56.946Z</time></trkpt><trkpt lat="44.3217721" lon="7.7455086"><ele>565.0</ele><time>2026-04-26T10:13:57.946Z</time></trkpt><trkpt lat="44.3218879" lon="7.7455942"><ele>565.0</ele><time>2026-04-26T10:13:58.946Z</time></trkpt><trkpt lat="44.3220046" lon="7.7456711"><ele>565.0</ele><time>2026-04-26T10:13:59.946Z</time></trkpt><trkpt lat="44.3221172" lon="7.7457259"><ele>565.0</ele><time>2026-04-26T10:14:00.946Z</time></trkpt><trkpt lat="44.3222212" lon="7.7457632"><ele>564.8333333333334</ele><time>2026-04-26T10:14:01.946Z</time></trkpt><trkpt lat="44.322308" lon="7.745794"><ele>564.6666666666667</ele><time>2026-04-26T10:14:02.946Z</time></trkpt><trkpt lat="44.3223795" lon="7.7458112"><ele>564.5</ele><time>2026-04-26T10:14:03.945Z</time></trkpt><trkpt lat="44.3224864" lon="7.7458422"><ele>564.3333333333334</ele><time>2026-04-26T10:14:05.946Z</time></trkpt><trkpt lat="44.3225713" lon="7.7458583"><ele>564.1666666666666</ele><time>2026-04-26T10:17:47.945Z</time></trkpt><trkpt lat="44.3226369" lon="7.7459215"><ele>564.0</ele><time>2026-04-26T10:17:51.945Z</time></trkpt><trkpt lat="44.322719" lon="7.7459774"><ele>563.6666666666666</ele><time>2026-04-26T10:17:54.946Z</time></trkpt><trkpt lat="44.3227955" lon="7.7460451"><ele>563.3333333333334</ele><time>2026-04-26T10:17:57.946Z</time></trkpt><trkpt lat="44.3228606" lon="7.7461392"><ele>563.0</ele><time>2026-04-26T10:18:00.946Z</time></trkpt><trkpt lat="44.3229109" lon="7.7462444"><ele>562.6666666666667</ele><time>2026-04-26T10:18:02.946Z</time></trkpt><trkpt lat="44.3229562" lon="7.7463134"><ele>562.3333333333334</ele><time>2026-04-26T10:18:03.946Z</time></trkpt><trkpt lat="44.3230142" lon="7.7463965"><ele>562.0</ele><time>2026-04-26T10:18:04.946Z</time></trkpt><trkpt lat="44.3230896" lon="7.7464724"><ele>561.75</ele><time>2026-04-26T10:18:05.946Z</time></trkpt><trkpt lat="44.3231881" lon="7.7465477"><ele>561.5</ele><time>2026-04-26T10:18:06.946Z</time></trkpt><trkpt lat="44.3233003" lon="7.7466328"><ele>561.25</ele><time>2026-04-26T10:18:07.946Z</time></trkpt><trkpt lat="44.323417" lon="7.7467246"><ele>561.0</ele><time>2026-04-26T10:18:08.946Z</time></trkpt><trkpt lat="44.3235282" lon="7.7468052"><ele>560.75</ele><time>2026-04-26T10:18:09.946Z</time></trkpt><trkpt lat="44.3236415" lon="7.7468926"><ele>560.5</ele><time>2026-04-26T10:18:10.946Z</time></trkpt><trkpt lat="44.3237549" lon="7.746974"><ele>560.25</ele><time>2026-04-26T10:18:11.945Z</time></trkpt><trkpt lat="44.3238673" lon="7.7470589"><ele>560.0</ele><time>2026-04-26T10:18:12.946Z</time></trkpt><trkpt lat="44.323982" lon="7.7471477"><ele>559.0</ele><time>2026-04-26T10:18:13.945Z</time></trkpt><trkpt lat="44.3240972" lon="7.7472335"><ele>558.0</ele><time>2026-04-26T10:18:14.946Z</time></trkpt><trkpt lat="44.3242118" lon="7.7473185"><ele>557.0</ele><time>2026-04-26T10:18:15.945Z</time></trkpt><trkpt lat="44.324328" lon="7.7474044"><ele>556.0</ele><time>2026-04-26T10:18:16.946Z</time></trkpt><trkpt lat="44.3244428" lon="7.7474952"><ele>556.0</ele><time>2026-04-26T10:18:17.946Z</time></trkpt><trkpt lat="44.3245643" lon="7.7475856"><ele>556.0</ele><time>2026-04-26T10:18:18.945Z</time></trkpt><trkpt lat="44.324678" lon="7.7476703"><ele>556.0</ele><time>2026-04-26T10:18:19.946Z</time></trkpt><trkpt lat="44.3247969" lon="7.747768"><ele>556.0</ele><time>2026-04-26T10:18:20.945Z</time></trkpt><trkpt lat="44.32492" lon="7.7478608"><ele>555.75</ele><time>2026-04-26T10:18:21.946Z</time></trkpt><trkpt lat="44.3250417" lon="7.7479441"><ele>555.5</ele><time>2026-04-26T10:18:22.946Z</time></trkpt><trkpt lat="44.3251679" lon="7.7480432"><ele>555.25</ele><time>2026-04-26T10:18:23.946Z</time></trkpt><trkpt lat="44.3252927" lon="7.7481335"><ele>555.0</ele><time>2026-04-26T10:18:24.946Z</time></trkpt><trkpt lat="44.3254205" lon="7.7482277"><ele>555.0</ele><time>2026-04-26T10:18:25.945Z</time></trkpt><trkpt lat="44.325551" lon="7.7483266"><ele>555.0</ele><time>2026-04-26T10:18:26.946Z</time></trkpt><trkpt lat="44.3256866" lon="7.748422"><ele>555.0</ele><time>2026-04-26T10:18:27.945Z</time></trkpt><trkpt lat="44.3258273" lon="7.7485294"><ele>554.0</ele><time>2026-04-26T10:18:28.946Z</time></trkpt><trkpt lat="44.3259671" lon="7.7486435"><ele>553.0</ele><time>2026-04-26T10:18:29.946Z</time></trkpt><trkpt lat="44.3261163" lon="7.7487542"><ele>552.0</ele><time>2026-04-26T10:18:30.946Z</time></trkpt><trkpt lat="44.3262728" lon="7.7488709"><ele>551.0</ele><time>2026-04-26T10:18:31.946Z</time></trkpt><trkpt lat="44.326431" lon="7.7489966"><ele>550.0</ele><time>2026-04-26T10:18:32.945Z</time></trkpt><trkpt lat="44.3265905" lon="7.7491267"><ele>549.0</ele><time>2026-04-26T10:18:33.946Z</time></trkpt><trkpt lat="44.3267471" lon="7.7492627"><ele>549.0</ele><time>2026-04-26T10:18:34.946Z</time></trkpt><trkpt lat="44.3269076" lon="7.7493977"><ele>549.0</ele><time>2026-04-26T10:18:35.946Z</time></trkpt><trkpt lat="44.3270704" lon="7.7495372"><ele>549.0</ele><time>2026-04-26T10:18:36.946Z</time></trkpt><trkpt lat="44.3272299" lon="7.7496801"><ele>548.6666666666666</ele><time>2026-04-26T10:18:37.946Z</time></trkpt><trkpt lat="44.3273949" lon="7.7498338"><ele>548.3333333333333</ele><time>2026-04-26T10:18:38.946Z</time></trkpt><trkpt lat="44.3275556" lon="7.7499934"><ele>548.0</ele><time>2026-04-26T10:18:39.946Z</time></trkpt><trkpt lat="44.3277113" lon="7.7501532"><ele>547.3333333333333</ele><time>2026-04-26T10:18:40.946Z</time></trkpt><trkpt lat="44.3278732" lon="7.7503109"><ele>546.6666666666666</ele><time>2026-04-26T10:18:41.946Z</time></trkpt><trkpt lat="44.3280375" lon="7.7504827"><ele>546.0</ele><time>2026-04-26T10:18:42.946Z</time></trkpt><trkpt lat="44.3281986" lon="7.7506583"><ele>545.0</ele><time>2026-04-26T10:18:43.946Z</time></trkpt><trkpt lat="44.3283574" lon="7.7508295"><ele>544.0</ele><time>2026-04-26T10:18:44.946Z</time></trkpt><trkpt lat="44.3285109" lon="7.7510014"><ele>543.0</ele><time>2026-04-26T10:18:45.946Z</time></trkpt><trkpt lat="44.3286739" lon="7.7511692"><ele>542.3333333333334</ele><time>2026-04-26T10:18:46.946Z</time></trkpt><trkpt lat="44.3288426" lon="7.751349"><ele>541.6666666666667</ele><time>2026-04-26T10:18:47.945Z</time></trkpt><trkpt lat="44.329012" lon="7.751534"><ele>541.0</ele><time>2026-04-26T10:18:48.946Z</time></trkpt><trkpt lat="44.3291776" lon="7.7517187"><ele>540.0</ele><time>2026-04-26T10:18:49.945Z</time></trkpt><trkpt lat="44.3293477" lon="7.7519066"><ele>539.0</ele><time>2026-04-26T10:18:50.945Z</time></trkpt><trkpt lat="44.3295201" lon="7.7520922"><ele>538.0</ele><time>2026-04-26T10:18:51.946Z</time></trkpt><trkpt lat="44.3296812" lon="7.7522727"><ele>537.6666666666667</ele><time>2026-04-26T10:18:52.945Z</time></trkpt><trkpt lat="44.3298399" lon="7.7524461"><ele>537.3333333333334</ele><time>2026-04-26T10:18:53.946Z</time></trkpt><trkpt lat="44.3299981" lon="7.7526175"><ele>537.0</ele><time>2026-04-26T10:18:54.945Z</time></trkpt><trkpt lat="44.3301573" lon="7.7527866"><ele>535.3333333333334</ele><time>2026-04-26T10:18:55.945Z</time></trkpt><trkpt lat="44.3303145" lon="7.7529531"><ele>533.6666666666667</ele><time>2026-04-26T10:18:56.946Z</time></trkpt><trkpt lat="44.3304706" lon="7.7531229"><ele>532.0</ele><time>2026-04-26T10:18:57.946Z</time></trkpt><trkpt lat="44.3306312" lon="7.7532891"><ele>532.0</ele><time>2026-04-26T10:18:58.946Z</time></trkpt><trkpt lat="44.3307903" lon="7.7534596"><ele>532.0</ele><time>2026-04-26T10:18:59.945Z</time></trkpt><trkpt lat="44.3309497" lon="7.7536314"><ele>532.0</ele><time>2026-04-26T10:19:00.945Z</time></trkpt><trkpt lat="44.3311094" lon="7.7538045"><ele>531.6666666666667</ele><time>2026-04-26T10:19:01.946Z</time></trkpt><trkpt lat="44.3312727" lon="7.7539831"><ele>531.3333333333334</ele><time>2026-04-26T10:19:02.946Z</time></trkpt><trkpt lat="44.3314346" lon="7.7541594"><ele>531.0</ele><time>2026-04-26T10:19:03.946Z</time></trkpt><trkpt lat="44.3315958" lon="7.7543267"><ele>530.3333333333334</ele><time>2026-04-26T10:19:04.946Z</time></trkpt><trkpt lat="44.3317456" lon="7.7544843"><ele>529.6666666666667</ele><time>2026-04-26T10:19:05.946Z</time></trkpt><trkpt lat="44.3318825" lon="7.7546263"><ele>529.0</ele><time>2026-04-26T10:19:06.945Z</time></trkpt><trkpt lat="44.3320152" lon="7.7547711"><ele>529.0</ele><time>2026-04-26T10:19:07.946Z</time></trkpt><trkpt lat="44.3321378" lon="7.7549179"><ele>529.0</ele><time>2026-04-26T10:19:08.946Z</time></trkpt><trkpt lat="44.3322548" lon="7.7550534"><ele>529.0</ele><time>2026-04-26T10:19:09.946Z</time></trkpt><trkpt lat="44.3323645" lon="7.7551855"><ele>529.25</ele><time>2026-04-26T10:19:10.945Z</time></trkpt><trkpt lat="44.3324687" lon="7.7553091"><ele>529.5</ele><time>2026-04-26T10:19:11.946Z</time></trkpt><trkpt lat="44.332566" lon="7.7554291"><ele>529.75</ele><time>2026-04-26T10:19:12.946Z</time></trkpt><trkpt lat="44.3326707" lon="7.7555572"><ele>530.0</ele><time>2026-04-26T10:19:13.946Z</time></trkpt><trkpt lat="44.3327834" lon="7.7556914"><ele>530.0</ele><time>2026-04-26T10:19:14.946Z</time></trkpt><trkpt lat="44.3329025" lon="7.7558253"><ele>530.0</ele><time>2026-04-26T10:19:15.946Z</time></trkpt><trkpt lat="44.3330231" lon="7.7559665"><ele>530.0</ele><time>2026-04-26T10:19:16.946Z</time></trkpt><trkpt lat="44.3331493" lon="7.756126"><ele>529.6666666666666</ele><time>2026-04-26T10:19:17.946Z</time></trkpt><trkpt lat="44.3332767" lon="7.7562858"><ele>529.3333333333334</ele><time>2026-04-26T10:19:18.946Z</time></trkpt><trkpt lat="44.333404" lon="7.7564454"><ele>529.0</ele><time>2026-04-26T10:19:19.946Z</time></trkpt><trkpt lat="44.3335313" lon="7.7565882"><ele>529.0</ele><time>2026-04-26T10:19:20.945Z</time></trkpt><trkpt lat="44.3336506" lon="7.7567303"><ele>529.0</ele><time>2026-04-26T10:19:21.946Z</time></trkpt><trkpt lat="44.3337647" lon="7.7568594"><ele>529.0</ele><time>2026-04-26T10:19:22.946Z</time></trkpt><trkpt lat="44.3338525" lon="7.7569543"><ele>529.0</ele><time>2026-04-26T10:19:23.945Z</time></trkpt><trkpt lat="44.3339267" lon="7.7570271"><ele>528.6</ele><time>2026-04-26T10:19:24.945Z</time></trkpt><trkpt lat="44.3339732" lon="7.7571016"><ele>528.2</ele><time>2026-04-26T10:19:25.946Z</time></trkpt><trkpt lat="44.3339833" lon="7.757244"><ele>527.8000000000001</ele><time>2026-04-26T10:19:27.946Z</time></trkpt><trkpt lat="44.3338773" lon="7.7573617"><ele>527.4</ele><time>2026-04-26T10:19:29.945Z</time></trkpt><trkpt lat="44.3337921" lon="7.7574396"><ele>527.0</ele><time>2026-04-26T10:19:30.946Z</time></trkpt><trkpt lat="44.3336939" lon="7.7575067"><ele>526.5</ele><time>2026-04-26T10:19:31.946Z</time></trkpt><trkpt lat="44.3335656" lon="7.7575365"><ele>526.0</ele><time>2026-04-26T10:19:32.946Z</time></trkpt><trkpt lat="44.3334322" lon="7.7575304"><ele>525.5</ele><time>2026-04-26T10:19:33.946Z</time></trkpt><trkpt lat="44.3332916" lon="7.7574869"><ele>525.0</ele><time>2026-04-26T10:19:34.946Z</time></trkpt><trkpt lat="44.3331428" lon="7.757421"><ele>524.6666666666666</ele><time>2026-04-26T10:19:35.946Z</time></trkpt><trkpt lat="44.3329849" lon="7.7573455"><ele>524.3333333333333</ele><time>2026-04-26T10:19:36.945Z</time></trkpt><trkpt lat="44.3328253" lon="7.7572741"><ele>524.0</ele><time>2026-04-26T10:19:37.946Z</time></trkpt><trkpt lat="44.332666" lon="7.7572089"><ele>524.0</ele><time>2026-04-26T10:19:38.946Z</time></trkpt><trkpt lat="44.33251" lon="7.7571458"><ele>524.0</ele><time>2026-04-26T10:19:39.946Z</time></trkpt><trkpt lat="44.3323567" lon="7.757078"><ele>524.0</ele><time>2026-04-26T10:19:40.946Z</time></trkpt><trkpt lat="44.3322133" lon="7.7570154"><ele>524.75</ele><time>2026-04-26T10:19:41.946Z</time></trkpt><trkpt lat="44.3320806" lon="7.7569612"><ele>525.5</ele><time>2026-04-26T10:19:42.946Z</time></trkpt><trkpt lat="44.3319435" lon="7.7569191"><ele>526.25</ele><time>2026-04-26T10:19:43.945Z</time></trkpt><trkpt lat="44.3318002" lon="7.7569044"><ele>527.0</ele><time>2026-04-26T10:19:44.946Z</time></trkpt><trkpt lat="44.3316543" lon="7.7569156"><ele>527.0</ele><time>2026-04-26T10:19:45.946Z</time></trkpt><trkpt lat="44.3315055" lon="7.756938"><ele>527.0</ele><time>2026-04-26T10:19:46.946Z</time></trkpt><trkpt lat="44.3313614" lon="7.7569869"><ele>527.0</ele><time>2026-04-26T10:19:47.946Z</time></trkpt><trkpt lat="44.331217" lon="7.7570759"><ele>528.0</ele><time>2026-04-26T10:19:48.945Z</time></trkpt><trkpt lat="44.3310748" lon="7.7571739"><ele>529.0</ele><time>2026-04-26T10:19:49.946Z</time></trkpt><trkpt lat="44.3309181" lon="7.7572701"><ele>530.0</ele><time>2026-04-26T10:19:50.946Z</time></trkpt><trkpt lat="44.330771" lon="7.7573634"><ele>530.0</ele><time>2026-04-26T10:19:51.946Z</time></trkpt><trkpt lat="44.3306373" lon="7.7574659"><ele>530.0</ele><time>2026-04-26T10:19:52.946Z</time></trkpt><trkpt lat="44.3305125" lon="7.7575967"><ele>530.0</ele><time>2026-04-26T10:19:53.946Z</time></trkpt><trkpt lat="44.3303945" lon="7.7577586"><ele>530.6666666666666</ele><time>2026-04-26T10:19:54.946Z</time></trkpt><trkpt lat="44.3302792" lon="7.7579269"><ele>531.3333333333334</ele><time>2026-04-26T10:19:55.946Z</time></trkpt><trkpt lat="44.3301681" lon="7.7581055"><ele>532.0</ele><time>2026-04-26T10:19:56.946Z</time></trkpt><trkpt lat="44.3300542" lon="7.7582855"><ele>532.0</ele><time>2026-04-26T10:19:57.946Z</time></trkpt><trkpt lat="44.3299406" lon="7.7584617"><ele>532.0</ele><time>2026-04-26T10:19:58.946Z</time></trkpt><trkpt lat="44.3298294" lon="7.7586409"><ele>532.0</ele><time>2026-04-26T10:19:59.946Z</time></trkpt><trkpt lat="44.3297167" lon="7.7588218"><ele>533.0</ele><time>2026-04-26T10:20:00.946Z</time></trkpt><trkpt lat="44.3296054" lon="7.7590014"><ele>534.0</ele><time>2026-04-26T10:20:01.946Z</time></trkpt><trkpt lat="44.3294995" lon="7.7591803"><ele>535.0</ele><time>2026-04-26T10:20:02.946Z</time></trkpt><trkpt lat="44.3294023" lon="7.7593458"><ele>538.6</ele><time>2026-04-26T10:20:03.946Z</time></trkpt><trkpt lat="44.3293166" lon="7.7594921"><ele>542.2</ele><time>2026-04-26T10:20:04.946Z</time></trkpt><trkpt lat="44.3292482" lon="7.7596145"><ele>545.8</ele><time>2026-04-26T10:20:05.946Z</time></trkpt><trkpt lat="44.3291938" lon="7.7597074"><ele>549.4</ele><time>2026-04-26T10:20:06.946Z</time></trkpt><trkpt lat="44.3291379" lon="7.7598229"><ele>553.0</ele><time>2026-04-26T10:20:08.946Z</time></trkpt><trkpt lat="44.3291509" lon="7.7599431"><ele>553.0</ele><time>2026-04-26T10:20:10.946Z</time></trkpt><trkpt lat="44.3291847" lon="7.7600273"><ele>553.0</ele><time>2026-04-26T10:20:11.946Z</time></trkpt><trkpt lat="44.3292352" lon="7.7601229"><ele>553.0</ele><time>2026-04-26T10:20:12.945Z</time></trkpt><trkpt lat="44.3293122" lon="7.7602344"><ele>553.0</ele><time>2026-04-26T10:20:13.946Z</time></trkpt><trkpt lat="44.3293961" lon="7.7603553"><ele>553.0</ele><time>2026-04-26T10:20:14.946Z</time></trkpt><trkpt lat="44.3294916" lon="7.7604855"><ele>549.0</ele><time>2026-04-26T10:20:15.946Z</time></trkpt><trkpt lat="44.3295936" lon="7.7606243"><ele>545.0</ele><time>2026-04-26T10:20:16.946Z</time></trkpt><trkpt lat="44.3297031" lon="7.7607774"><ele>541.0</ele><time>2026-04-26T10:20:17.946Z</time></trkpt><trkpt lat="44.3298086" lon="7.7609371"><ele>546.6666666666667</ele><time>2026-04-26T10:20:18.946Z</time></trkpt><trkpt lat="44.3299155" lon="7.7611036"><ele>552.3333333333334</ele><time>2026-04-26T10:20:19.946Z</time></trkpt><trkpt lat="44.3300262" lon="7.7612806"><ele>558.0</ele><time>2026-04-26T10:20:20.946Z</time></trkpt><trkpt lat="44.3301423" lon="7.7614533"><ele>558.0</ele><time>2026-04-26T10:20:21.946Z</time></trkpt><trkpt lat="44.3302696" lon="7.7616268"><ele>558.0</ele><time>2026-04-26T10:20:22.946Z</time></trkpt><trkpt lat="44.3303953" lon="7.7618002"><ele>558.0</ele><time>2026-04-26T10:20:23.946Z</time></trkpt><trkpt lat="44.3305286" lon="7.76196"><ele>556.3333333333334</ele><time>2026-04-26T10:20:24.946Z</time></trkpt><trkpt lat="44.330675" lon="7.7621124"><ele>554.6666666666667</ele><time>2026-04-26T10:20:25.946Z</time></trkpt><trkpt lat="44.3308251" lon="7.7622468"><ele>553.0</ele><time>2026-04-26T10:20:26.946Z</time></trkpt><trkpt lat="44.3309738" lon="7.7623758"><ele>553.0</ele><time>2026-04-26T10:20:27.946Z</time></trkpt><trkpt lat="44.3311371" lon="7.76252"><ele>553.0</ele><time>2026-04-26T10:20:28.945Z</time></trkpt><trkpt lat="44.331292" lon="7.7626532"><ele>553.0</ele><time>2026-04-26T10:20:29.945Z</time></trkpt><trkpt lat="44.3314415" lon="7.7627908"><ele>551.6666666666667</ele><time>2026-04-26T10:20:30.946Z</time></trkpt><trkpt lat="44.3315842" lon="7.7629225"><ele>550.3333333333334</ele><time>2026-04-26T10:20:31.945Z</time></trkpt><trkpt lat="44.3317326" lon="7.7630507"><ele>549.0</ele><time>2026-04-26T10:20:32.946Z</time></trkpt><trkpt lat="44.3318832" lon="7.7631779"><ele>549.0</ele><time>2026-04-26T10:20:33.946Z</time></trkpt><trkpt lat="44.3320318" lon="7.7633166"><ele>549.0</ele><time>2026-04-26T10:20:34.945Z</time></trkpt><trkpt lat="44.332163" lon="7.7634727"><ele>549.0</ele><time>2026-04-26T10:20:35.946Z</time></trkpt><trkpt lat="44.3322878" lon="7.763639"><ele>546.0</ele><time>2026-04-26T10:20:36.946Z</time></trkpt><trkpt lat="44.3324138" lon="7.7638065"><ele>543.0</ele><time>2026-04-26T10:20:37.946Z</time></trkpt><trkpt lat="44.3325376" lon="7.7639849"><ele>540.0</ele><time>2026-04-26T10:20:38.945Z</time></trkpt><trkpt lat="44.3326559" lon="7.7641664"><ele>540.0</ele><time>2026-04-26T10:20:39.945Z</time></trkpt><trkpt lat="44.3327739" lon="7.7643577"><ele>540.0</ele><time>2026-04-26T10:20:40.945Z</time></trkpt><trkpt lat="44.332898" lon="7.7645441"><ele>540.0</ele><time>2026-04-26T10:20:41.946Z</time></trkpt><trkpt lat="44.3330182" lon="7.764719"><ele>536.3333333333334</ele><time>2026-04-26T10:20:42.945Z</time></trkpt><trkpt lat="44.3331505" lon="7.7648914"><ele>532.6666666666667</ele><time>2026-04-26T10:20:43.946Z</time></trkpt><trkpt lat="44.3332735" lon="7.7650556"><ele>529.0</ele><time>2026-04-26T10:20:44.946Z</time></trkpt><trkpt lat="44.3333959" lon="7.7652313"><ele>536.3333333333334</ele><time>2026-04-26T10:20:45.946Z</time></trkpt><trkpt lat="44.3335046" lon="7.7654195"><ele>543.6666666666666</ele><time>2026-04-26T10:20:46.946Z</time></trkpt><trkpt lat="44.3335974" lon="7.7656168"><ele>551.0</ele><time>2026-04-26T10:20:47.946Z</time></trkpt><trkpt lat="44.3336702" lon="7.7658127"><ele>551.0</ele><time>2026-04-26T10:20:48.946Z</time></trkpt><trkpt lat="44.3337191" lon="7.7660115"><ele>551.0</ele><time>2026-04-26T10:20:49.946Z</time></trkpt><trkpt lat="44.3337486" lon="7.7662126"><ele>551.0</ele><time>2026-04-26T10:20:50.946Z</time></trkpt><trkpt lat="44.3337322" lon="7.7664251"><ele>550.6666666666666</ele><time>2026-04-26T10:20:51.945Z</time></trkpt><trkpt lat="44.3336992" lon="7.7666346"><ele>550.3333333333334</ele><time>2026-04-26T10:20:52.946Z</time></trkpt><trkpt lat="44.3336464" lon="7.7668403"><ele>550.0</ele><time>2026-04-26T10:20:53.946Z</time></trkpt><trkpt lat="44.3335823" lon="7.7670527"><ele>543.6666666666667</ele><time>2026-04-26T10:20:54.946Z</time></trkpt><trkpt lat="44.3335099" lon="7.7672573"><ele>537.3333333333334</ele><time>2026-04-26T10:20:55.945Z</time></trkpt><trkpt lat="44.3334321" lon="7.7674549"><ele>531.0</ele><time>2026-04-26T10:20:56.946Z</time></trkpt><trkpt lat="44.3333567" lon="7.7676401"><ele>531.75</ele><time>2026-04-26T10:20:57.946Z</time></trkpt><trkpt lat="44.3332923" lon="7.7678085"><ele>532.5</ele><time>2026-04-26T10:20:58.946Z</time></trkpt><trkpt lat="44.3332267" lon="7.7679745"><ele>533.25</ele><time>2026-04-26T10:20:59.946Z</time></trkpt><trkpt lat="44.3331447" lon="7.7681222"><ele>534.0</ele><time>2026-04-26T10:21:00.945Z</time></trkpt><trkpt lat="44.3330466" lon="7.7682624"><ele>534.0</ele><time>2026-04-26T10:21:01.946Z</time></trkpt><trkpt lat="44.3329358" lon="7.7683856"><ele>534.0</ele><time>2026-04-26T10:21:02.946Z</time></trkpt><trkpt lat="44.3328235" lon="7.7684841"><ele>534.0</ele><time>2026-04-26T10:21:03.945Z</time></trkpt><trkpt lat="44.3327084" lon="7.7685743"><ele>534.0</ele><time>2026-04-26T10:21:04.946Z</time></trkpt><trkpt lat="44.3326041" lon="7.7686781"><ele>533.0</ele><time>2026-04-26T10:21:05.946Z</time></trkpt><trkpt lat="44.3325242" lon="7.7688006"><ele>532.0</ele><time>2026-04-26T10:21:06.946Z</time></trkpt><trkpt lat="44.3324695" lon="7.7689428"><ele>531.0</ele><time>2026-04-26T10:21:07.945Z</time></trkpt><trkpt lat="44.3324479" lon="7.769085"><ele>530.0</ele><time>2026-04-26T10:21:08.946Z</time></trkpt><trkpt lat="44.3324548" lon="7.7692365"><ele>529.0</ele><time>2026-04-26T10:21:09.946Z</time></trkpt><trkpt lat="44.3324974" lon="7.7693639"><ele>529.0</ele><time>2026-04-26T10:21:10.946Z</time></trkpt><trkpt lat="44.3325654" lon="7.7694587"><ele>529.0</ele><time>2026-04-26T10:21:11.945Z</time></trkpt><trkpt lat="44.3326665" lon="7.7695224"><ele>529.0</ele><time>2026-04-26T10:21:12.945Z</time></trkpt><trkpt lat="44.3327905" lon="7.7695448"><ele>529.0</ele><time>2026-04-26T10:21:13.945Z</time></trkpt><trkpt lat="44.3329307" lon="7.7695737"><ele>529.0</ele><time>2026-04-26T10:21:14.946Z</time></trkpt><trkpt lat="44.3330798" lon="7.7696191"><ele>529.0</ele><time>2026-04-26T10:21:15.946Z</time></trkpt><trkpt lat="44.3332339" lon="7.7696677"><ele>529.0</ele><time>2026-04-26T10:21:16.946Z</time></trkpt><trkpt lat="44.3333827" lon="7.7697111"><ele>529.0</ele><time>2026-04-26T10:21:17.945Z</time></trkpt><trkpt lat="44.3335248" lon="7.7697532"><ele>529.0</ele><time>2026-04-26T10:21:18.946Z</time></trkpt><trkpt lat="44.3336557" lon="7.769806"><ele>529.0</ele><time>2026-04-26T10:21:19.946Z</time></trkpt><trkpt lat="44.3337711" lon="7.7698801"><ele>529.0</ele><time>2026-04-26T10:21:20.946Z</time></trkpt><trkpt lat="44.333866" lon="7.7699984"><ele>526.5</ele><time>2026-04-26T10:21:21.946Z</time></trkpt><trkpt lat="44.3339244" lon="7.7701565"><ele>524.0</ele><time>2026-04-26T10:21:22.946Z</time></trkpt><trkpt lat="44.3339769" lon="7.7703498"><ele>521.5</ele><time>2026-04-26T10:21:23.945Z</time></trkpt><trkpt lat="44.3340341" lon="7.7705643"><ele>519.0</ele><time>2026-04-26T10:21:24.946Z</time></trkpt><trkpt lat="44.3341057" lon="7.7707792"><ele>519.0</ele><time>2026-04-26T10:21:25.945Z</time></trkpt><trkpt lat="44.3341907" lon="7.7710014"><ele>519.0</ele><time>2026-04-26T10:21:26.946Z</time></trkpt><trkpt lat="44.3342817" lon="7.7712137"><ele>519.0</ele><time>2026-04-26T10:21:27.945Z</time></trkpt><trkpt lat="44.3343759" lon="7.7714419"><ele>522.3333333333334</ele><time>2026-04-26T10:21:28.945Z</time></trkpt><trkpt lat="44.3344707" lon="7.7716612"><ele>525.6666666666667</ele><time>2026-04-26T10:21:29.946Z</time></trkpt><trkpt lat="44.3345672" lon="7.7718842"><ele>529.0</ele><time>2026-04-26T10:21:30.946Z</time></trkpt><trkpt lat="44.3346544" lon="7.7721115"><ele>527.6666666666667</ele><time>2026-04-26T10:21:31.946Z</time></trkpt><trkpt lat="44.3347328" lon="7.7723409"><ele>526.3333333333334</ele><time>2026-04-26T10:21:32.946Z</time></trkpt><trkpt lat="44.3348164" lon="7.7725607"><ele>525.0</ele><time>2026-04-26T10:21:33.946Z</time></trkpt><trkpt lat="44.3349069" lon="7.7727877"><ele>525.0</ele><time>2026-04-26T10:21:34.946Z</time></trkpt><trkpt lat="44.3349798" lon="7.7730016"><ele>525.0</ele><time>2026-04-26T10:21:35.946Z</time></trkpt><trkpt lat="44.3350656" lon="7.7732133"><ele>525.0</ele><time>2026-04-26T10:21:36.946Z</time></trkpt><trkpt lat="44.3351468" lon="7.7734211"><ele>526.0</ele><time>2026-04-26T10:21:37.946Z</time></trkpt><trkpt lat="44.3352532" lon="7.7736112"><ele>527.0</ele><time>2026-04-26T10:21:38.946Z</time></trkpt><trkpt lat="44.3353773" lon="7.7737814"><ele>528.0</ele><time>2026-04-26T10:21:39.946Z</time></trkpt><trkpt lat="44.3355047" lon="7.773939"><ele>523.3333333333334</ele><time>2026-04-26T10:21:40.946Z</time></trkpt><trkpt lat="44.3356337" lon="7.7740855"><ele>518.6666666666667</ele><time>2026-04-26T10:21:41.946Z</time></trkpt><trkpt lat="44.3357742" lon="7.7742094"><ele>514.0</ele><time>2026-04-26T10:21:42.946Z</time></trkpt><trkpt lat="44.3359091" lon="7.774311"><ele>516.0</ele><time>2026-04-26T10:21:43.946Z</time></trkpt><trkpt lat="44.3360397" lon="7.7743917"><ele>518.0</ele><time>2026-04-26T10:21:44.946Z</time></trkpt><trkpt lat="44.336168" lon="7.7744568"><ele>520.0</ele><time>2026-04-26T10:21:45.946Z</time></trkpt><trkpt lat="44.3362806" lon="7.7745081"><ele>522.0</ele><time>2026-04-26T10:21:46.946Z</time></trkpt><trkpt lat="44.336377" lon="7.7745783"><ele>519.8333333333334</ele><time>2026-04-26T10:21:47.946Z</time></trkpt><trkpt lat="44.3364547" lon="7.7746442"><ele>517.6666666666666</ele><time>2026-04-26T10:21:48.946Z</time></trkpt><trkpt lat="44.3365057" lon="7.7747081"><ele>515.5</ele><time>2026-04-26T10:21:49.945Z</time></trkpt><trkpt lat="44.3365628" lon="7.7747705"><ele>513.3333333333333</ele><time>2026-04-26T10:21:50.946Z</time></trkpt><trkpt lat="44.3366282" lon="7.7747951"><ele>511.16666666666663</ele><time>2026-04-26T10:21:51.945Z</time></trkpt><trkpt lat="44.3367058" lon="7.7747781"><ele>509.0</ele><time>2026-04-26T10:21:52.946Z</time></trkpt><trkpt lat="44.3367649" lon="7.7747107"><ele>508.99999999999994</ele><time>2026-04-26T10:21:53.946Z</time></trkpt><trkpt lat="44.3368096" lon="7.7746315"><ele>509.0</ele><time>2026-04-26T10:21:54.946Z</time></trkpt><trkpt lat="44.3368732" lon="7.7745953"><ele>509.0</ele><time>2026-04-26T10:21:55.946Z</time></trkpt><trkpt lat="44.3369408" lon="7.7745941"><ele>509.0</ele><time>2026-04-26T10:21:56.946Z</time></trkpt><trkpt lat="44.3370346" lon="7.7746322"><ele>508.99999999999994</ele><time>2026-04-26T10:21:57.946Z</time></trkpt><trkpt lat="44.3371413" lon="7.7746743"><ele>509.0</ele><time>2026-04-26T10:21:58.946Z</time></trkpt><trkpt lat="44.3372552" lon="7.7747254"><ele>507.25</ele><time>2026-04-26T10:21:59.945Z</time></trkpt><trkpt lat="44.3373822" lon="7.774791"><ele>505.5</ele><time>2026-04-26T10:22:00.945Z</time></trkpt><trkpt lat="44.3375102" lon="7.7748561"><ele>503.75</ele><time>2026-04-26T10:22:01.945Z</time></trkpt><trkpt lat="44.3376448" lon="7.7749264"><ele>502.0</ele><time>2026-04-26T10:22:02.945Z</time></trkpt><trkpt lat="44.3377783" lon="7.7749996"><ele>502.0</ele><time>2026-04-26T10:22:03.946Z</time></trkpt><trkpt lat="44.337925" lon="7.7750833"><ele>502.0</ele><time>2026-04-26T10:22:04.946Z</time></trkpt><trkpt lat="44.3380732" lon="7.7751706"><ele>502.0</ele><time>2026-04-26T10:22:05.946Z</time></trkpt><trkpt lat="44.3382194" lon="7.7752656"><ele>500.0</ele><time>2026-04-26T10:22:06.946Z</time></trkpt><trkpt lat="44.3383727" lon="7.7753547"><ele>498.0</ele><time>2026-04-26T10:22:07.946Z</time></trkpt><trkpt lat="44.3385225" lon="7.7754514"><ele>496.0</ele><time>2026-04-26T10:22:08.946Z</time></trkpt><trkpt lat="44.3386659" lon="7.7755504"><ele>496.0</ele><time>2026-04-26T10:22:09.946Z</time></trkpt><trkpt lat="44.3387838" lon="7.7756775"><ele>496.0</ele><time>2026-04-26T10:22:10.946Z</time></trkpt><trkpt lat="44.3388802" lon="7.7758409"><ele>496.0</ele><time>2026-04-26T10:22:11.945Z</time></trkpt><trkpt lat="44.3389641" lon="7.7760404"><ele>495.33333333333337</ele><time>2026-04-26T10:22:12.946Z</time></trkpt><trkpt lat="44.3390403" lon="7.7762556"><ele>494.66666666666663</ele><time>2026-04-26T10:22:13.945Z</time></trkpt><trkpt lat="44.3391209" lon="7.7764849"><ele>494.0</ele><time>2026-04-26T10:22:14.946Z</time></trkpt><trkpt lat="44.3391929" lon="7.7767188"><ele>493.66666666666663</ele><time>2026-04-26T10:22:15.946Z</time></trkpt><trkpt lat="44.3392646" lon="7.7769456"><ele>493.33333333333337</ele><time>2026-04-26T10:22:16.946Z</time></trkpt><trkpt lat="44.3393283" lon="7.7771544"><ele>493.0</ele><time>2026-04-26T10:22:17.946Z</time></trkpt><trkpt lat="44.3393914" lon="7.7773449"><ele>493.0</ele><time>2026-04-26T10:22:18.945Z</time></trkpt><trkpt lat="44.3394593" lon="7.7775173"><ele>492.99999999999994</ele><time>2026-04-26T10:22:19.946Z</time></trkpt><trkpt lat="44.3395319" lon="7.7776531"><ele>492.99999999999994</ele><time>2026-04-26T10:22:20.946Z</time></trkpt><trkpt lat="44.339594" lon="7.7777514"><ele>493.0</ele><time>2026-04-26T10:22:21.946Z</time></trkpt><trkpt lat="44.3396354" lon="7.777818"><ele>493.0</ele><time>2026-04-26T10:22:22.946Z</time></trkpt><trkpt lat="44.339686" lon="7.7778953"><ele>493.00000000000006</ele><time>2026-04-26T10:22:24.945Z</time></trkpt><trkpt lat="44.3396978" lon="7.7779822"><ele>493.0</ele><time>2026-04-26T10:22:35.946Z</time></trkpt><trkpt lat="44.3397078" lon="7.7780701"><ele>493.0</ele><time>2026-04-26T10:22:36.945Z</time></trkpt><trkpt lat="44.3397188" lon="7.7781579"><ele>493.0</ele><time>2026-04-26T10:22:37.946Z</time></trkpt><trkpt lat="44.339759" lon="7.7782624"><ele>493.00000000000006</ele><time>2026-04-26T10:22:38.946Z</time></trkpt><trkpt lat="44.3398173" lon="7.7783506"><ele>493.0</ele><time>2026-04-26T10:22:39.946Z</time></trkpt><trkpt lat="44.3398854" lon="7.7784464"><ele>492.75</ele><time>2026-04-26T10:22:40.946Z</time></trkpt><trkpt lat="44.3399526" lon="7.7785641"><ele>492.5</ele><time>2026-04-26T10:22:41.946Z</time></trkpt><trkpt lat="44.3400212" lon="7.7786935"><ele>492.25</ele><time>2026-04-26T10:22:42.946Z</time></trkpt><trkpt lat="44.3400921" lon="7.7788259"><ele>492.0</ele><time>2026-04-26T10:22:43.946Z</time></trkpt><trkpt lat="44.3401675" lon="7.7789627"><ele>492.0</ele><time>2026-04-26T10:22:44.945Z</time></trkpt><trkpt lat="44.3402461" lon="7.7791039"><ele>492.0</ele><time>2026-04-26T10:22:45.945Z</time></trkpt><trkpt lat="44.3403328" lon="7.7792666"><ele>492.0</ele><time>2026-04-26T10:22:46.946Z</time></trkpt><trkpt lat="44.3404183" lon="7.7794286"><ele>492.0</ele><time>2026-04-26T10:22:47.945Z</time></trkpt><trkpt lat="44.3404958" lon="7.7795887"><ele>491.5</ele><time>2026-04-26T10:22:48.946Z</time></trkpt><trkpt lat="44.3405791" lon="7.7797453"><ele>491.0</ele><time>2026-04-26T10:22:49.946Z</time></trkpt><trkpt lat="44.3406623" lon="7.7799004"><ele>490.5</ele><time>2026-04-26T10:22:50.946Z</time></trkpt><trkpt lat="44.3407422" lon="7.7800612"><ele>490.0</ele><time>2026-04-26T10:22:51.946Z</time></trkpt><trkpt lat="44.3408248" lon="7.7802192"><ele>490.0</ele><time>2026-04-26T10:22:52.946Z</time></trkpt><trkpt lat="44.3409061" lon="7.7803721"><ele>490.0</ele><time>2026-04-26T10:22:53.946Z</time></trkpt><trkpt lat="44.3409935" lon="7.7805396"><ele>490.0</ele><time>2026-04-26T10:22:54.945Z</time></trkpt><trkpt lat="44.3410795" lon="7.7807044"><ele>490.0</ele><time>2026-04-26T10:22:55.946Z</time></trkpt><trkpt lat="44.3411727" lon="7.7808705"><ele>490.25</ele><time>2026-04-26T10:22:56.945Z</time></trkpt><trkpt lat="44.3412634" lon="7.7810405"><ele>490.5</ele><time>2026-04-26T10:22:57.946Z</time></trkpt><trkpt lat="44.3413545" lon="7.781207"><ele>490.75</ele><time>2026-04-26T10:22:58.946Z</time></trkpt><trkpt lat="44.3414388" lon="7.781373"><ele>491.0</ele><time>2026-04-26T10:22:59.946Z</time></trkpt><trkpt lat="44.341524" lon="7.7815351"><ele>491.0</ele><time>2026-04-26T10:23:00.946Z</time></trkpt><trkpt lat="44.3416123" lon="7.7817042"><ele>491.0</ele><time>2026-04-26T10:23:01.946Z</time></trkpt><trkpt lat="44.3416935" lon="7.781876"><ele>491.0</ele><time>2026-04-26T10:23:02.946Z</time></trkpt><trkpt lat="44.341777" lon="7.7820472"><ele>491.0</ele><time>2026-04-26T10:23:03.945Z</time></trkpt><trkpt lat="44.341856" lon="7.782201"><ele>491.0</ele><time>2026-04-26T10:23:04.945Z</time></trkpt><trkpt lat="44.3419293" lon="7.7823362"><ele>491.0</ele><time>2026-04-26T10:23:05.946Z</time></trkpt><trkpt lat="44.341987" lon="7.7824482"><ele>491.0</ele><time>2026-04-26T10:23:06.946Z</time></trkpt><trkpt lat="44.3420385" lon="7.7825432"><ele>491.0</ele><time>2026-04-26T10:23:07.945Z</time></trkpt><trkpt lat="44.3420822" lon="7.782618"><ele>491.0</ele><time>2026-04-26T10:23:08.945Z</time></trkpt><trkpt lat="44.3421255" lon="7.7827406"><ele>491.0</ele><time>2026-04-26T10:23:10.946Z</time></trkpt><trkpt lat="44.3420548" lon="7.7828089"><ele>491.0</ele><time>2026-04-26T10:23:12.946Z</time></trkpt><trkpt lat="44.3419986" lon="7.7827679"><ele>491.0</ele><time>2026-04-26T10:23:13.945Z</time></trkpt><trkpt lat="44.3419287" lon="7.7826933"><ele>491.0</ele><time>2026-04-26T10:23:14.946Z</time></trkpt><trkpt lat="44.341846" lon="7.782606"><ele>491.0</ele><time>2026-04-26T10:23:15.946Z</time></trkpt><trkpt lat="44.3417564" lon="7.7825134"><ele>491.0</ele><time>2026-04-26T10:23:16.946Z</time></trkpt><trkpt lat="44.3416605" lon="7.7824214"><ele>491.0</ele><time>2026-04-26T10:23:17.946Z</time></trkpt><trkpt lat="44.3415635" lon="7.7823251"><ele>491.0</ele><time>2026-04-26T10:23:18.946Z</time></trkpt><trkpt lat="44.3414757" lon="7.7822269"><ele>491.0</ele><time>2026-04-26T10:23:19.946Z</time></trkpt><trkpt lat="44.341396" lon="7.7821363"><ele>492.0</ele><time>2026-04-26T10:23:20.946Z</time></trkpt><trkpt lat="44.3413051" lon="7.7820572"><ele>493.0</ele><time>2026-04-26T10:23:21.946Z</time></trkpt><trkpt lat="44.3412093" lon="7.7819945"><ele>494.0</ele><time>2026-04-26T10:23:22.946Z</time></trkpt><trkpt lat="44.3411071" lon="7.7819643"><ele>495.0</ele><time>2026-04-26T10:23:23.944Z</time></trkpt><trkpt lat="44.3410022" lon="7.7819672"><ele>496.0</ele><time>2026-04-26T10:23:24.946Z</time></trkpt><trkpt lat="44.3408869" lon="7.7819906"><ele>496.0</ele><time>2026-04-26T10:23:25.946Z</time></trkpt><trkpt lat="44.3407764" lon="7.781993"><ele>496.0</ele><time>2026-04-26T10:23:26.945Z</time></trkpt><trkpt lat="44.3406615" lon="7.7820023"><ele>496.0</ele><time>2026-04-26T10:23:27.946Z</time></trkpt><trkpt lat="44.3405463" lon="7.7820245"><ele>496.0</ele><time>2026-04-26T10:23:28.945Z</time></trkpt><trkpt lat="44.3404302" lon="7.7820421"><ele>498.1666666666667</ele><time>2026-04-26T10:23:29.946Z</time></trkpt><trkpt lat="44.3403267" lon="7.7820292"><ele>500.33333333333337</ele><time>2026-04-26T10:23:30.946Z</time></trkpt><trkpt lat="44.340234" lon="7.7820187"><ele>502.5</ele><time>2026-04-26T10:23:31.946Z</time></trkpt><trkpt lat="44.3401586" lon="7.7820014"><ele>504.66666666666663</ele><time>2026-04-26T10:23:32.946Z</time></trkpt><trkpt lat="44.3400716" lon="7.7819903"><ele>506.8333333333333</ele><time>2026-04-26T10:23:34.946Z</time></trkpt><trkpt lat="44.3400587" lon="7.782106"><ele>509.0</ele><time>2026-04-26T10:23:37.945Z</time></trkpt><trkpt lat="44.3400919" lon="7.7821869"><ele>509.0</ele><time>2026-04-26T10:23:38.946Z</time></trkpt><trkpt lat="44.3401261" lon="7.7822746"><ele>509.0</ele><time>2026-04-26T10:23:39.946Z</time></trkpt><trkpt lat="44.340168" lon="7.7823801"><ele>509.0</ele><time>2026-04-26T10:23:40.946Z</time></trkpt><trkpt lat="44.3402089" lon="7.7824922"><ele>509.0</ele><time>2026-04-26T10:23:41.945Z</time></trkpt><trkpt lat="44.3402572" lon="7.7826112"><ele>509.0</ele><time>2026-04-26T10:23:42.946Z</time></trkpt><trkpt lat="44.3403073" lon="7.7827452"><ele>513.0</ele><time>2026-04-26T10:23:43.945Z</time></trkpt><trkpt lat="44.3403399" lon="7.7828922"><ele>517.0</ele><time>2026-04-26T10:23:44.946Z</time></trkpt><trkpt lat="44.3403727" lon="7.7830434"><ele>521.0</ele><time>2026-04-26T10:23:45.946Z</time></trkpt><trkpt lat="44.3403966" lon="7.7831864"><ele>525.0</ele><time>2026-04-26T10:23:46.945Z</time></trkpt><trkpt lat="44.3404439" lon="7.7833187"><ele>529.0</ele><time>2026-04-26T10:23:47.946Z</time></trkpt><trkpt lat="44.3405145" lon="7.7834276"><ele>528.8</ele><time>2026-04-26T10:23:48.946Z</time></trkpt><trkpt lat="44.3405762" lon="7.7835361"><ele>528.5999999999999</ele><time>2026-04-26T10:23:49.946Z</time></trkpt><trkpt lat="44.3406216" lon="7.7836442"><ele>528.4</ele><time>2026-04-26T10:23:50.946Z</time></trkpt><trkpt lat="44.3406376" lon="7.783746"><ele>528.1999999999999</ele><time>2026-04-26T10:23:51.946Z</time></trkpt><trkpt lat="44.3406117" lon="7.7838635"><ele>528.0</ele><time>2026-04-26T10:23:52.945Z</time></trkpt><trkpt lat="44.3405738" lon="7.7840034"><ele>531.5</ele><time>2026-04-26T10:23:53.946Z</time></trkpt><trkpt lat="44.3405266" lon="7.7841541"><ele>535.0</ele><time>2026-04-26T10:23:54.946Z</time></trkpt><trkpt lat="44.3404814" lon="7.7843189"><ele>538.5</ele><time>2026-04-26T10:23:55.946Z</time></trkpt><trkpt lat="44.3404604" lon="7.784482"><ele>542.0</ele><time>2026-04-26T10:23:56.946Z</time></trkpt><trkpt lat="44.3404552" lon="7.784658"><ele>543.4</ele><time>2026-04-26T10:23:57.945Z</time></trkpt><trkpt lat="44.340434" lon="7.7848184"><ele>544.8000000000001</ele><time>2026-04-26T10:23:58.946Z</time></trkpt><trkpt lat="44.3404198" lon="7.7849604"><ele>546.2</ele><time>2026-04-26T10:23:59.946Z</time></trkpt><trkpt lat="44.3404006" lon="7.7850734"><ele>547.6</ele><time>2026-04-26T10:24:00.946Z</time></trkpt><trkpt lat="44.3403854" lon="7.7851752"><ele>549.0</ele><time>2026-04-26T10:24:01.946Z</time></trkpt><trkpt lat="44.3403467" lon="7.7853037"><ele>550.2</ele><time>2026-04-26T10:24:03.946Z</time></trkpt><trkpt lat="44.3402325" lon="7.785323"><ele>551.4</ele><time>2026-04-26T10:24:05.946Z</time></trkpt><trkpt lat="44.3401547" lon="7.78531"><ele>552.6</ele><time>2026-04-26T10:24:06.946Z</time></trkpt><trkpt lat="44.3400582" lon="7.7852855"><ele>553.8</ele><time>2026-04-26T10:24:07.946Z</time></trkpt><trkpt lat="44.3399534" lon="7.7852403"><ele>555.0</ele><time>2026-04-26T10:24:08.946Z</time></trkpt><trkpt lat="44.339855" lon="7.7851833"><ele>553.8</ele><time>2026-04-26T10:24:09.945Z</time></trkpt><trkpt lat="44.3397686" lon="7.7851234"><ele>552.6</ele><time>2026-04-26T10:24:10.946Z</time></trkpt><trkpt lat="44.3397031" lon="7.7850749"><ele>551.4</ele><time>2026-04-26T10:24:11.946Z</time></trkpt><trkpt lat="44.3395947" lon="7.7850404"><ele>550.2</ele><time>2026-04-26T10:24:13.945Z</time></trkpt><trkpt lat="44.3394927" lon="7.7851639"><ele>549.0</ele><time>2026-04-26T10:24:15.946Z</time></trkpt><trkpt lat="44.3394619" lon="7.7852725"><ele>552.6</ele><time>2026-04-26T10:24:16.946Z</time></trkpt><trkpt lat="44.3394542" lon="7.7853966"><ele>556.2</ele><time>2026-04-26T10:24:17.945Z</time></trkpt><trkpt lat="44.3394433" lon="7.7855286"><ele>559.8000000000001</ele><time>2026-04-26T10:24:18.946Z</time></trkpt><trkpt lat="44.3394126" lon="7.7856399"><ele>563.4</ele><time>2026-04-26T10:24:19.945Z</time></trkpt><trkpt lat="44.3393497" lon="7.7857492"><ele>567.0</ele><time>2026-04-26T10:24:20.946Z</time></trkpt><trkpt lat="44.3392772" lon="7.7858519"><ele>567.0</ele><time>2026-04-26T10:24:21.946Z</time></trkpt><trkpt lat="44.3392035" lon="7.7859569"><ele>567.0</ele><time>2026-04-26T10:24:22.946Z</time></trkpt><trkpt lat="44.3391223" lon="7.7860693"><ele>567.0</ele><time>2026-04-26T10:24:23.946Z</time></trkpt><trkpt lat="44.3390354" lon="7.7861799"><ele>567.0</ele><time>2026-04-26T10:24:24.946Z</time></trkpt><trkpt lat="44.3389532" lon="7.7862764"><ele>567.0</ele><time>2026-04-26T10:24:25.946Z</time></trkpt><trkpt lat="44.3388651" lon="7.7863606"><ele>571.75</ele><time>2026-04-26T10:24:26.945Z</time></trkpt><trkpt lat="44.3387664" lon="7.7864292"><ele>576.5</ele><time>2026-04-26T10:24:27.945Z</time></trkpt><trkpt lat="44.3386523" lon="7.7864838"><ele>581.25</ele><time>2026-04-26T10:24:28.946Z</time></trkpt><trkpt lat="44.3385439" lon="7.7865496"><ele>586.0</ele><time>2026-04-26T10:24:29.945Z</time></trkpt><trkpt lat="44.3384287" lon="7.7866036"><ele>586.0</ele><time>2026-04-26T10:24:30.946Z</time></trkpt><trkpt lat="44.3383212" lon="7.7866271"><ele>586.0</ele><time>2026-04-26T10:24:31.946Z</time></trkpt><trkpt lat="44.3382103" lon="7.7866424"><ele>586.0</ele><time>2026-04-26T10:24:32.946Z</time></trkpt><trkpt lat="44.3381012" lon="7.7866583"><ele>586.0</ele><time>2026-04-26T10:24:33.946Z</time></trkpt><trkpt lat="44.3380062" lon="7.7866796"><ele>586.0</ele><time>2026-04-26T10:24:34.946Z</time></trkpt><trkpt lat="44.3379323" lon="7.7866968"><ele>585.4</ele><time>2026-04-26T10:24:35.946Z</time></trkpt><trkpt lat="44.3378605" lon="7.7867367"><ele>584.8</ele><time>2026-04-26T10:24:36.945Z</time></trkpt><trkpt lat="44.3377935" lon="7.7868146"><ele>584.1999999999999</ele><time>2026-04-26T10:24:37.946Z</time></trkpt><trkpt lat="44.3377358" lon="7.7869266"><ele>583.6</ele><time>2026-04-26T10:24:38.946Z</time></trkpt><trkpt lat="44.3376719" lon="7.787041"><ele>583.0</ele><time>2026-04-26T10:24:39.946Z</time></trkpt><trkpt lat="44.3376097" lon="7.787152"><ele>585.6</ele><time>2026-04-26T10:24:40.946Z</time></trkpt><trkpt lat="44.3375544" lon="7.7872658"><ele>588.1999999999999</ele><time>2026-04-26T10:24:41.946Z</time></trkpt><trkpt lat="44.3375086" lon="7.7874017"><ele>590.8</ele><time>2026-04-26T10:24:42.946Z</time></trkpt><trkpt lat="44.3374672" lon="7.7875401"><ele>593.4</ele><time>2026-04-26T10:24:43.946Z</time></trkpt><trkpt lat="44.3374195" lon="7.7876903"><ele>596.0</ele><time>2026-04-26T10:24:44.946Z</time></trkpt><trkpt lat="44.3373733" lon="7.7878446"><ele>598.5</ele><time>2026-04-26T10:24:45.945Z</time></trkpt><trkpt lat="44.3373188" lon="7.787999"><ele>601.0</ele><time>2026-04-26T10:24:46.946Z</time></trkpt><trkpt lat="44.3372559" lon="7.7881545"><ele>603.5</ele><time>2026-04-26T10:24:47.946Z</time></trkpt><trkpt lat="44.3371903" lon="7.7882985"><ele>606.0</ele><time>2026-04-26T10:24:48.946Z</time></trkpt><trkpt lat="44.3371266" lon="7.7884362"><ele>608.1666666666666</ele><time>2026-04-26T10:24:49.946Z</time></trkpt><trkpt lat="44.3370664" lon="7.7885553"><ele>610.3333333333334</ele><time>2026-04-26T10:24:50.945Z</time></trkpt><trkpt lat="44.3370084" lon="7.7886595"><ele>612.5</ele><time>2026-04-26T10:24:51.946Z</time></trkpt><trkpt lat="44.336963" lon="7.7887265"><ele>614.6666666666667</ele><time>2026-04-26T10:24:52.946Z</time></trkpt><trkpt lat="44.3369042" lon="7.7887734"><ele>616.8333333333334</ele><time>2026-04-26T10:24:53.946Z</time></trkpt><trkpt lat="44.3368311" lon="7.7887861"><ele>619.0</ele><time>2026-04-26T10:24:54.945Z</time></trkpt><trkpt lat="44.3367471" lon="7.7887745"><ele>619.0</ele><time>2026-04-26T10:24:55.946Z</time></trkpt><trkpt lat="44.3366509" lon="7.7887468"><ele>619.0</ele><time>2026-04-26T10:24:56.946Z</time></trkpt><trkpt lat="44.3365621" lon="7.7887243"><ele>619.0</ele><time>2026-04-26T10:24:57.946Z</time></trkpt><trkpt lat="44.3364735" lon="7.7887284"><ele>619.0</ele><time>2026-04-26T10:24:58.946Z</time></trkpt><trkpt lat="44.3363848" lon="7.7887839"><ele>619.0</ele><time>2026-04-26T10:24:59.946Z</time></trkpt><trkpt lat="44.3362904" lon="7.7888533"><ele>617.2</ele><time>2026-04-26T10:25:00.946Z</time></trkpt><trkpt lat="44.3361874" lon="7.7889288"><ele>615.4</ele><time>2026-04-26T10:25:01.946Z</time></trkpt><trkpt lat="44.3360834" lon="7.7890048"><ele>613.6</ele><time>2026-04-26T10:25:02.945Z</time></trkpt><trkpt lat="44.3359943" lon="7.7890705"><ele>611.8</ele><time>2026-04-26T10:25:03.946Z</time></trkpt><trkpt lat="44.3359256" lon="7.7891154"><ele>610.0</ele><time>2026-04-26T10:25:04.946Z</time></trkpt><trkpt lat="44.3358822" lon="7.78918"><ele>610.0</ele><time>2026-04-26T10:25:05.945Z</time></trkpt><trkpt lat="44.3358653" lon="7.7892843"><ele>610.0</ele><time>2026-04-26T10:25:06.946Z</time></trkpt><trkpt lat="44.3358711" lon="7.7894179"><ele>610.0</ele><time>2026-04-26T10:25:07.946Z</time></trkpt><trkpt lat="44.335909" lon="7.789568"><ele>610.0</ele><time>2026-04-26T10:25:08.946Z</time></trkpt><trkpt lat="44.3359597" lon="7.7897333"><ele>610.0</ele><time>2026-04-26T10:25:09.946Z</time></trkpt><trkpt lat="44.3360111" lon="7.7898951"><ele>612.0</ele><time>2026-04-26T10:25:10.945Z</time></trkpt><trkpt lat="44.3360585" lon="7.7900684"><ele>614.0</ele><time>2026-04-26T10:25:11.945Z</time></trkpt><trkpt lat="44.3361111" lon="7.7902426"><ele>616.0</ele><time>2026-04-26T10:25:12.946Z</time></trkpt><trkpt lat="44.3361763" lon="7.7904078"><ele>618.0</ele><time>2026-04-26T10:25:13.946Z</time></trkpt><trkpt lat="44.3362527" lon="7.7905757"><ele>618.0</ele><time>2026-04-26T10:25:14.946Z</time></trkpt><trkpt lat="44.3363225" lon="7.7907555"><ele>618.0</ele><time>2026-04-26T10:25:15.946Z</time></trkpt><trkpt lat="44.3363904" lon="7.790944"><ele>618.0</ele><time>2026-04-26T10:25:16.946Z</time></trkpt><trkpt lat="44.3364486" lon="7.7911305"><ele>618.0</ele><time>2026-04-26T10:25:17.945Z</time></trkpt><trkpt lat="44.3365022" lon="7.7913046"><ele>621.8</ele><time>2026-04-26T10:25:18.946Z</time></trkpt><trkpt lat="44.3365417" lon="7.791449"><ele>625.5999999999999</ele><time>2026-04-26T10:25:19.945Z</time></trkpt><trkpt lat="44.3365835" lon="7.7915763"><ele>629.4000000000001</ele><time>2026-04-26T10:25:20.946Z</time></trkpt><trkpt lat="44.3366037" lon="7.7916826"><ele>633.2</ele><time>2026-04-26T10:25:21.945Z</time></trkpt><trkpt lat="44.3366101" lon="7.791775"><ele>637.0</ele><time>2026-04-26T10:25:22.946Z</time></trkpt><trkpt lat="44.3365604" lon="7.7919048"><ele>636.0</ele><time>2026-04-26T10:25:24.946Z</time></trkpt><trkpt lat="44.3364982" lon="7.7919536"><ele>635.0</ele><time>2026-04-26T10:25:25.946Z</time></trkpt><trkpt lat="44.3364181" lon="7.7919907"><ele>634.0</ele><time>2026-04-26T10:25:26.946Z</time></trkpt><trkpt lat="44.3363318" lon="7.7920492"><ele>633.0</ele><time>2026-04-26T10:25:27.945Z</time></trkpt><trkpt lat="44.3362546" lon="7.7921254"><ele>632.0</ele><time>2026-04-26T10:25:28.946Z</time></trkpt><trkpt lat="44.3361698" lon="7.7922258"><ele>632.0</ele><time>2026-04-26T10:25:29.946Z</time></trkpt><trkpt lat="44.3360828" lon="7.7923391"><ele>632.0</ele><time>2026-04-26T10:25:30.946Z</time></trkpt><trkpt lat="44.3360047" lon="7.7924485"><ele>632.0</ele><time>2026-04-26T10:25:31.945Z</time></trkpt><trkpt lat="44.3359307" lon="7.7925362"><ele>632.0</ele><time>2026-04-26T10:25:32.945Z</time></trkpt><trkpt lat="44.3358332" lon="7.7926078"><ele>632.0</ele><time>2026-04-26T10:25:33.946Z</time></trkpt><trkpt lat="44.3357276" lon="7.7926641"><ele>633.2</ele><time>2026-04-26T10:25:34.946Z</time></trkpt><trkpt lat="44.3356132" lon="7.7927089"><ele>634.4000000000001</ele><time>2026-04-26T10:25:35.946Z</time></trkpt><trkpt lat="44.3355152" lon="7.792752"><ele>635.5999999999999</ele><time>2026-04-26T10:25:36.946Z</time></trkpt><trkpt lat="44.335424" lon="7.7927807"><ele>636.8</ele><time>2026-04-26T10:25:37.946Z</time></trkpt><trkpt lat="44.3353428" lon="7.7928102"><ele>638.0</ele><time>2026-04-26T10:25:38.946Z</time></trkpt><trkpt lat="44.335311" lon="7.7929204"><ele>638.0</ele><time>2026-04-26T10:25:39.946Z</time></trkpt><trkpt lat="44.3352683" lon="7.7930044"><ele>638.0</ele><time>2026-04-26T10:25:40.946Z</time></trkpt><trkpt lat="44.33522" lon="7.7930667"><ele>638.0</ele><time>2026-04-26T10:25:41.946Z</time></trkpt><trkpt lat="44.3351599" lon="7.7931067"><ele>638.0</ele><time>2026-04-26T10:25:42.946Z</time></trkpt><trkpt lat="44.3350949" lon="7.7931357"><ele>638.0</ele><time>2026-04-26T10:25:43.946Z</time></trkpt><trkpt lat="44.335013" lon="7.7931515"><ele>638.0</ele><time>2026-04-26T10:25:44.945Z</time></trkpt><trkpt lat="44.3349114" lon="7.7931736"><ele>638.0</ele><time>2026-04-26T10:25:45.946Z</time></trkpt><trkpt lat="44.3348121" lon="7.793183"><ele>638.0</ele><time>2026-04-26T10:25:46.946Z</time></trkpt><trkpt lat="44.3347107" lon="7.7931984"><ele>638.0</ele><time>2026-04-26T10:25:47.946Z</time></trkpt><trkpt lat="44.3346266" lon="7.7932472"><ele>638.0</ele><time>2026-04-26T10:25:48.946Z</time></trkpt><trkpt lat="44.3345304" lon="7.7933228"><ele>638.0</ele><time>2026-04-26T10:25:49.946Z</time></trkpt><trkpt lat="44.3344577" lon="7.793386"><ele>637.0</ele><time>2026-04-26T10:25:50.946Z</time></trkpt><trkpt lat="44.3343823" lon="7.7934433"><ele>636.0</ele><time>2026-04-26T10:25:51.945Z</time></trkpt><trkpt lat="44.3343056" lon="7.7934577"><ele>635.0</ele><time>2026-04-26T10:25:52.946Z</time></trkpt><trkpt lat="44.3342144" lon="7.793449"><ele>634.0</ele><time>2026-04-26T10:25:53.946Z</time></trkpt><trkpt lat="44.3341148" lon="7.793446"><ele>633.0</ele><time>2026-04-26T10:25:54.945Z</time></trkpt><trkpt lat="44.3340103" lon="7.7934148"><ele>633.0</ele><time>2026-04-26T10:25:55.946Z</time></trkpt><trkpt lat="44.3339031" lon="7.7934143"><ele>633.0</ele><time>2026-04-26T10:25:56.946Z</time></trkpt><trkpt lat="44.3338007" lon="7.793432"><ele>633.0</ele><time>2026-04-26T10:25:57.946Z</time></trkpt><trkpt lat="44.3336725" lon="7.7934498"><ele>633.0</ele><time>2026-04-26T10:25:58.945Z</time></trkpt><trkpt lat="44.333531" lon="7.7935315"><ele>632.8</ele><time>2026-04-26T10:25:59.946Z</time></trkpt><trkpt lat="44.3334448" lon="7.7935831"><ele>632.5999999999999</ele><time>2026-04-26T10:26:00.946Z</time></trkpt><trkpt lat="44.3333443" lon="7.7936147"><ele>632.4000000000001</ele><time>2026-04-26T10:26:01.946Z</time></trkpt><trkpt lat="44.3332373" lon="7.7936041"><ele>632.2</ele><time>2026-04-26T10:26:02.946Z</time></trkpt><trkpt lat="44.3331223" lon="7.793569"><ele>632.0</ele><time>2026-04-26T10:26:03.946Z</time></trkpt><trkpt lat="44.3330253" lon="7.7934934"><ele>632.0</ele><time>2026-04-26T10:26:04.946Z</time></trkpt><trkpt lat="44.3329112" lon="7.793443"><ele>632.0</ele><time>2026-04-26T10:26:05.945Z</time></trkpt><trkpt lat="44.3328114" lon="7.7934384"><ele>632.0</ele><time>2026-04-26T10:26:06.946Z</time></trkpt><trkpt lat="44.3327197" lon="7.7934668"><ele>632.0</ele><time>2026-04-26T10:26:07.946Z</time></trkpt><trkpt lat="44.3326157" lon="7.7934805"><ele>632.0</ele><time>2026-04-26T10:26:08.946Z</time></trkpt><trkpt lat="44.3325312" lon="7.7934579"><ele>632.0</ele><time>2026-04-26T10:26:09.946Z</time></trkpt><trkpt lat="44.3324663" lon="7.7934761"><ele>632.0</ele><time>2026-04-26T10:26:10.945Z</time></trkpt><trkpt lat="44.3323774" lon="7.7935921"><ele>632.0</ele><time>2026-04-26T10:26:12.946Z</time></trkpt><trkpt lat="44.3323837" lon="7.793733"><ele>632.0</ele><time>2026-04-26T10:26:13.946Z</time></trkpt><trkpt lat="44.3323766" lon="7.7938554"><ele>632.0</ele><time>2026-04-26T10:26:14.946Z</time></trkpt><trkpt lat="44.3323542" lon="7.7940242"><ele>633.75</ele><time>2026-04-26T10:26:15.946Z</time></trkpt><trkpt lat="44.3323499" lon="7.7942088"><ele>635.5</ele><time>2026-04-26T10:26:16.946Z</time></trkpt><trkpt lat="44.3323196" lon="7.7943817"><ele>637.25</ele><time>2026-04-26T10:26:17.945Z</time></trkpt><trkpt lat="44.3322716" lon="7.7945668"><ele>639.0</ele><time>2026-04-26T10:26:18.946Z</time></trkpt><trkpt lat="44.3322082" lon="7.7947401"><ele>635.75</ele><time>2026-04-26T10:26:19.945Z</time></trkpt><trkpt lat="44.3321415" lon="7.7949077"><ele>632.5</ele><time>2026-04-26T10:26:20.946Z</time></trkpt><trkpt lat="44.3320773" lon="7.7950848"><ele>629.25</ele><time>2026-04-26T10:26:21.946Z</time></trkpt><trkpt lat="44.3320228" lon="7.7952522"><ele>626.0</ele><time>2026-04-26T10:26:22.946Z</time></trkpt><trkpt lat="44.331988" lon="7.7954268"><ele>626.0</ele><time>2026-04-26T10:26:23.945Z</time></trkpt><trkpt lat="44.331929" lon="7.7955913"><ele>626.0</ele><time>2026-04-26T10:26:24.946Z</time></trkpt><trkpt lat="44.3318845" lon="7.7957657"><ele>626.0</ele><time>2026-04-26T10:26:25.945Z</time></trkpt><trkpt lat="44.3318353" lon="7.7959258"><ele>626.0</ele><time>2026-04-26T10:26:26.946Z</time></trkpt><trkpt lat="44.3317879" lon="7.7960829"><ele>627.75</ele><time>2026-04-26T10:26:27.946Z</time></trkpt><trkpt lat="44.3317292" lon="7.7962248"><ele>629.5</ele><time>2026-04-26T10:26:28.946Z</time></trkpt><trkpt lat="44.331653" lon="7.7963483"><ele>631.25</ele><time>2026-04-26T10:26:29.946Z</time></trkpt><trkpt lat="44.3315701" lon="7.7964636"><ele>633.0</ele><time>2026-04-26T10:26:30.946Z</time></trkpt><trkpt lat="44.3314899" lon="7.7965729"><ele>633.0</ele><time>2026-04-26T10:26:31.945Z</time></trkpt><trkpt lat="44.3314169" lon="7.7966909"><ele>633.0</ele><time>2026-04-26T10:26:32.946Z</time></trkpt><trkpt lat="44.3313569" lon="7.7968079"><ele>633.0</ele><time>2026-04-26T10:26:33.946Z</time></trkpt><trkpt lat="44.3313016" lon="7.7969246"><ele>633.0</ele><time>2026-04-26T10:26:34.945Z</time></trkpt><trkpt lat="44.3312388" lon="7.7970356"><ele>633.0</ele><time>2026-04-26T10:26:35.946Z</time></trkpt><trkpt lat="44.331155" lon="7.7971232"><ele>631.0</ele><time>2026-04-26T10:26:36.945Z</time></trkpt><trkpt lat="44.331068" lon="7.7972017"><ele>629.0</ele><time>2026-04-26T10:26:37.946Z</time></trkpt><trkpt lat="44.3309853" lon="7.7973033"><ele>627.0</ele><time>2026-04-26T10:26:38.946Z</time></trkpt><trkpt lat="44.3309217" lon="7.7974183"><ele>625.0</ele><time>2026-04-26T10:26:39.946Z</time></trkpt><trkpt lat="44.3308572" lon="7.7975358"><ele>623.0</ele><time>2026-04-26T10:26:40.946Z</time></trkpt><trkpt lat="44.3308053" lon="7.7976447"><ele>625.0</ele><time>2026-04-26T10:26:41.946Z</time></trkpt><trkpt lat="44.3307611" lon="7.7977169"><ele>627.0</ele><time>2026-04-26T10:26:42.945Z</time></trkpt><trkpt lat="44.3307164" lon="7.7977991"><ele>629.0</ele><time>2026-04-26T10:26:44.946Z</time></trkpt><trkpt lat="44.3307504" lon="7.7978822"><ele>631.0</ele><time>2026-04-26T10:26:47.946Z</time></trkpt><trkpt lat="44.3307498" lon="7.7980329"><ele>633.0</ele><time>2026-04-26T10:26:49.946Z</time></trkpt><trkpt lat="44.3307427" lon="7.7981307"><ele>635.0</ele><time>2026-04-26T10:26:50.946Z</time></trkpt><trkpt lat="44.3307394" lon="7.7982489"><ele>635.0</ele><time>2026-04-26T10:26:51.945Z</time></trkpt><trkpt lat="44.3307362" lon="7.7983923"><ele>635.0</ele><time>2026-04-26T10:26:52.946Z</time></trkpt><trkpt lat="44.3307368" lon="7.7985502"><ele>635.0</ele><time>2026-04-26T10:26:53.946Z</time></trkpt><trkpt lat="44.3307416" lon="7.7987072"><ele>635.0</ele><time>2026-04-26T10:26:54.946Z</time></trkpt><trkpt lat="44.3307453" lon="7.7988535"><ele>635.0</ele><time>2026-04-26T10:26:55.945Z</time></trkpt><trkpt lat="44.3307298" lon="7.7990077"><ele>637.0</ele><time>2026-04-26T10:26:56.946Z</time></trkpt><trkpt lat="44.3306971" lon="7.7991656"><ele>639.0</ele><time>2026-04-26T10:26:57.946Z</time></trkpt><trkpt lat="44.3306563" lon="7.7993309"><ele>641.0</ele><time>2026-04-26T10:26:58.946Z</time></trkpt><trkpt lat="44.3306153" lon="7.7994794"><ele>643.0</ele><time>2026-04-26T10:26:59.946Z</time></trkpt><trkpt lat="44.3305863" lon="7.7996257"><ele>643.3333333333334</ele><time>2026-04-26T10:27:00.945Z</time></trkpt><trkpt lat="44.3305654" lon="7.7997638"><ele>643.6666666666667</ele><time>2026-04-26T10:27:01.945Z</time></trkpt><trkpt lat="44.330556" lon="7.7998862"><ele>644.0</ele><time>2026-04-26T10:27:02.946Z</time></trkpt><trkpt lat="44.330544" lon="7.8000103"><ele>644.3333333333334</ele><time>2026-04-26T10:27:03.946Z</time></trkpt><trkpt lat="44.3305263" lon="7.8001218"><ele>644.6666666666666</ele><time>2026-04-26T10:27:04.946Z</time></trkpt><trkpt lat="44.3305115" lon="7.8002276"><ele>645.0</ele><time>2026-04-26T10:27:05.946Z</time></trkpt><trkpt lat="44.330483" lon="7.8003212"><ele>644.2</ele><time>2026-04-26T10:27:06.946Z</time></trkpt><trkpt lat="44.3304468" lon="7.8004211"><ele>643.4</ele><time>2026-04-26T10:27:07.946Z</time></trkpt><trkpt lat="44.3304042" lon="7.8005268"><ele>642.5999999999999</ele><time>2026-04-26T10:27:08.945Z</time></trkpt><trkpt lat="44.3303654" lon="7.8006436"><ele>641.8</ele><time>2026-04-26T10:27:09.945Z</time></trkpt><trkpt lat="44.3303186" lon="7.8007621"><ele>641.0</ele><time>2026-04-26T10:27:10.945Z</time></trkpt><trkpt lat="44.3302667" lon="7.8008858"><ele>640.1999999999999</ele><time>2026-04-26T10:27:11.946Z</time></trkpt><trkpt lat="44.3302158" lon="7.8010058"><ele>639.4</ele><time>2026-04-26T10:27:12.946Z</time></trkpt><trkpt lat="44.3301571" lon="7.8011184"><ele>638.6</ele><time>2026-04-26T10:27:13.946Z</time></trkpt><trkpt lat="44.3301155" lon="7.8012409"><ele>637.8</ele><time>2026-04-26T10:27:14.946Z</time></trkpt><trkpt lat="44.3300793" lon="7.8013676"><ele>637.0</ele><time>2026-04-26T10:27:15.946Z</time></trkpt><trkpt lat="44.3300501" lon="7.8015089"><ele>637.0</ele><time>2026-04-26T10:27:16.945Z</time></trkpt><trkpt lat="44.3300256" lon="7.8016454"><ele>637.0</ele><time>2026-04-26T10:27:17.946Z</time></trkpt><trkpt lat="44.3300282" lon="7.8017589"><ele>637.0</ele><time>2026-04-26T10:27:18.946Z</time></trkpt><trkpt lat="44.3300465" lon="7.8018717"><ele>637.0</ele><time>2026-04-26T10:27:19.945Z</time></trkpt><trkpt lat="44.3300761" lon="7.8020062"><ele>637.0</ele><time>2026-04-26T10:27:20.946Z</time></trkpt><trkpt lat="44.33012" lon="7.8021244"><ele>637.0</ele><time>2026-04-26T10:27:21.946Z</time></trkpt><trkpt lat="44.3301888" lon="7.8022531"><ele>637.0</ele><time>2026-04-26T10:27:22.946Z</time></trkpt><trkpt lat="44.3302466" lon="7.8023786"><ele>637.0</ele><time>2026-04-26T10:27:23.946Z</time></trkpt><trkpt lat="44.3302914" lon="7.8025281"><ele>637.0</ele><time>2026-04-26T10:27:24.945Z</time></trkpt><trkpt lat="44.3303689" lon="7.8026719"><ele>637.0</ele><time>2026-04-26T10:27:25.946Z</time></trkpt><trkpt lat="44.3304373" lon="7.8028318"><ele>637.0</ele><time>2026-04-26T10:27:26.946Z</time></trkpt><trkpt lat="44.330506" lon="7.8029954"><ele>637.0</ele><time>2026-04-26T10:27:27.946Z</time></trkpt><trkpt lat="44.3305531" lon="7.8031712"><ele>637.0</ele><time>2026-04-26T10:27:28.946Z</time></trkpt><trkpt lat="44.3306057" lon="7.8033394"><ele>631.75</ele><time>2026-04-26T10:27:29.946Z</time></trkpt><trkpt lat="44.330653" lon="7.803502"><ele>626.5</ele><time>2026-04-26T10:27:30.945Z</time></trkpt><trkpt lat="44.3307023" lon="7.8036546"><ele>621.25</ele><time>2026-04-26T10:27:31.945Z</time></trkpt><trkpt lat="44.3307559" lon="7.8038071"><ele>616.0</ele><time>2026-04-26T10:27:32.946Z</time></trkpt><trkpt lat="44.3307999" lon="7.8039604"><ele>616.0</ele><time>2026-04-26T10:27:33.946Z</time></trkpt><trkpt lat="44.3308332" lon="7.8041019"><ele>616.0</ele><time>2026-04-26T10:27:34.946Z</time></trkpt><trkpt lat="44.3308668" lon="7.8042372"><ele>616.0</ele><time>2026-04-26T10:27:35.946Z</time></trkpt><trkpt lat="44.3309037" lon="7.8043703"><ele>616.0</ele><time>2026-04-26T10:27:36.945Z</time></trkpt><trkpt lat="44.3309501" lon="7.8045001"><ele>616.0</ele><time>2026-04-26T10:27:37.946Z</time></trkpt><trkpt lat="44.331007" lon="7.8046154"><ele>618.1666666666667</ele><time>2026-04-26T10:27:38.946Z</time></trkpt><trkpt lat="44.3310448" lon="7.8046901"><ele>620.3333333333334</ele><time>2026-04-26T10:27:39.946Z</time></trkpt><trkpt lat="44.3310768" lon="7.8047703"><ele>622.5</ele><time>2026-04-26T10:27:41.946Z</time></trkpt><trkpt lat="44.3311345" lon="7.8048347"><ele>624.6666666666666</ele><time>2026-04-26T10:27:46.946Z</time></trkpt><trkpt lat="44.3312296" lon="7.8049472"><ele>626.8333333333333</ele><time>2026-04-26T10:27:48.945Z</time></trkpt><trkpt lat="44.331291" lon="7.8050089"><ele>629.0</ele><time>2026-04-26T10:27:49.946Z</time></trkpt><trkpt lat="44.3313637" lon="7.80506"><ele>628.0</ele><time>2026-04-26T10:27:50.946Z</time></trkpt><trkpt lat="44.331448" lon="7.805098"><ele>627.0</ele><time>2026-04-26T10:27:51.946Z</time></trkpt><trkpt lat="44.331539" lon="7.8051366"><ele>626.0</ele><time>2026-04-26T10:27:52.946Z</time></trkpt><trkpt lat="44.3316311" lon="7.8051675"><ele>625.0</ele><time>2026-04-26T10:27:53.946Z</time></trkpt><trkpt lat="44.3317194" lon="7.8051992"><ele>624.0</ele><time>2026-04-26T10:27:54.946Z</time></trkpt><trkpt lat="44.3317999" lon="7.8052251"><ele>624.0</ele><time>2026-04-26T10:27:55.946Z</time></trkpt><trkpt lat="44.3318804" lon="7.8052495"><ele>624.0</ele><time>2026-04-26T10:27:56.946Z</time></trkpt><trkpt lat="44.3319485" lon="7.8052712"><ele>624.0</ele><time>2026-04-26T10:27:57.946Z</time></trkpt><trkpt lat="44.3320396" lon="7.8053111"><ele>624.0</ele><time>2026-04-26T10:27:59.946Z</time></trkpt><trkpt lat="44.3319739" lon="7.8052707"><ele>624.0</ele><time>2026-04-26T10:28:06.946Z</time></trkpt><trkpt lat="44.3319019" lon="7.8052573"><ele>624.0</ele><time>2026-04-26T10:28:07.946Z</time></trkpt><trkpt lat="44.3318205" lon="7.8052406"><ele>624.0</ele><time>2026-04-26T10:28:08.946Z</time></trkpt><trkpt lat="44.331728" lon="7.8052143"><ele>624.0</ele><time>2026-04-26T10:28:09.946Z</time></trkpt><trkpt lat="44.3316289" lon="7.8051743"><ele>624.0</ele><time>2026-04-26T10:28:10.946Z</time></trkpt><trkpt lat="44.331528" lon="7.8051338"><ele>624.0</ele><time>2026-04-26T10:28:11.946Z</time></trkpt><trkpt lat="44.3314262" lon="7.8050999"><ele>624.0</ele><time>2026-04-26T10:28:12.946Z</time></trkpt><trkpt lat="44.3313305" lon="7.805045"><ele>625.0</ele><time>2026-04-26T10:28:13.946Z</time></trkpt><trkpt lat="44.3312402" lon="7.8049775"><ele>626.0</ele><time>2026-04-26T10:28:14.946Z</time></trkpt><trkpt lat="44.3311548" lon="7.8048847"><ele>627.0</ele><time>2026-04-26T10:28:15.945Z</time></trkpt><trkpt lat="44.3310751" lon="7.8047779"><ele>628.0</ele><time>2026-04-26T10:28:16.946Z</time></trkpt><trkpt lat="44.3310105" lon="7.8046687"><ele>629.0</ele><time>2026-04-26T10:28:17.946Z</time></trkpt><trkpt lat="44.3309617" lon="7.8045602"><ele>629.0</ele><time>2026-04-26T10:28:18.946Z</time></trkpt><trkpt lat="44.3309234" lon="7.8044678"><ele>629.0</ele><time>2026-04-26T10:28:19.946Z</time></trkpt><trkpt lat="44.3308918" lon="7.8043752"><ele>629.0</ele><time>2026-04-26T10:28:21.945Z</time></trkpt><trkpt lat="44.3308391" lon="7.8044456"><ele>629.0</ele><time>2026-04-26T10:28:25.946Z</time></trkpt><trkpt lat="44.3308588" lon="7.8045373"><ele>629.0</ele><time>2026-04-26T10:28:38.946Z</time></trkpt><trkpt lat="44.3308792" lon="7.8046312"><ele>629.0</ele><time>2026-04-26T10:28:40.946Z</time></trkpt><trkpt lat="44.3308988" lon="7.8047194"><ele>629.0</ele><time>2026-04-26T10:28:42.946Z</time></trkpt><trkpt lat="44.3309198" lon="7.8048336"><ele>629.0</ele><time>2026-04-26T10:28:45.946Z</time></trkpt><trkpt lat="44.3309356" lon="7.8049274"><ele>629.0</ele><time>2026-04-26T10:28:47.946Z</time></trkpt><trkpt lat="44.3309697" lon="7.805063"><ele>629.0</ele><time>2026-04-26T10:28:49.946Z</time></trkpt><trkpt lat="44.3309955" lon="7.8051567"><ele>629.0</ele><time>2026-04-26T10:28:50.946Z</time></trkpt><trkpt lat="44.3309946" lon="7.8052871"><ele>629.0</ele><time>2026-04-26T10:28:52.946Z</time></trkpt><trkpt lat="44.3310103" lon="7.8054125"><ele>629.0</ele><time>2026-04-26T10:28:54.945Z</time></trkpt><trkpt lat="44.3310625" lon="7.8054863"><ele>628.1666666666666</ele><time>2026-04-26T10:28:56.946Z</time></trkpt><trkpt lat="44.3311356" lon="7.8055403"><ele>627.3333333333333</ele><time>2026-04-26T10:28:58.946Z</time></trkpt><trkpt lat="44.3311949" lon="7.8056047"><ele>626.5</ele><time>2026-04-26T10:29:00.945Z</time></trkpt><trkpt lat="44.3312254" lon="7.8056857"><ele>625.6666666666666</ele><time>2026-04-26T10:29:01.945Z</time></trkpt><trkpt lat="44.3312922" lon="7.805774"><ele>624.8333333333334</ele><time>2026-04-26T10:29:02.946Z</time></trkpt><trkpt lat="44.3313229" lon="7.805855"><ele>624.0</ele><time>2026-04-26T10:29:03.946Z</time></trkpt><trkpt lat="44.3314373" lon="7.8059697"><ele>628.5</ele><time>2026-04-26T10:29:05.946Z</time></trkpt><trkpt lat="44.3315391" lon="7.8060712"><ele>633.0</ele><time>2026-04-26T10:29:07.946Z</time></trkpt><trkpt lat="44.3315834" lon="7.8062334"><ele>637.5</ele><time>2026-04-26T10:29:09.945Z</time></trkpt><trkpt lat="44.3316397" lon="7.8062968"><ele>642.0</ele><time>2026-04-26T10:29:10.946Z</time></trkpt><trkpt lat="44.3317394" lon="7.806421"><ele>642.0</ele><time>2026-04-26T10:29:12.946Z</time></trkpt><trkpt lat="44.3317823" lon="7.8065498"><ele>642.0</ele><time>2026-04-26T10:29:14.945Z</time></trkpt><trkpt lat="44.3318352" lon="7.8066669"><ele>642.0</ele><time>2026-04-26T10:29:16.946Z</time></trkpt><trkpt lat="44.331901" lon="7.8068197"><ele>642.0</ele><time>2026-04-26T10:29:18.946Z</time></trkpt><trkpt lat="44.3319449" lon="7.8069261"><ele>642.0</ele><time>2026-04-26T10:29:19.946Z</time></trkpt><trkpt lat="44.3319495" lon="7.8070923"><ele>643.5</ele><time>2026-04-26T10:29:21.946Z</time></trkpt><trkpt lat="44.3319633" lon="7.8071843"><ele>645.0</ele><time>2026-04-26T10:29:22.946Z</time></trkpt><trkpt lat="44.3319774" lon="7.8073346"><ele>646.5</ele><time>2026-04-26T10:29:24.946Z</time></trkpt><trkpt lat="44.3319971" lon="7.8074222"><ele>648.0</ele><time>2026-04-26T10:29:25.946Z</time></trkpt><trkpt lat="44.3320306" lon="7.8075412"><ele>649.5</ele><time>2026-04-26T10:29:27.946Z</time></trkpt><trkpt lat="44.3321225" lon="7.8075655"><ele>651.0</ele><time>2026-04-26T10:29:30.946Z</time></trkpt><trkpt lat="44.3322325" lon="7.8075537"><ele>651.0</ele><time>2026-04-26T10:29:32.946Z</time></trkpt><trkpt lat="44.332331" lon="7.8075278"><ele>651.0</ele><time>2026-04-26T10:29:34.946Z</time></trkpt><trkpt lat="44.3324378" lon="7.8076052"><ele>651.0</ele><time>2026-04-26T10:29:36.945Z</time></trkpt><trkpt lat="44.332478" lon="7.8076814"><ele>651.0</ele><time>2026-04-26T10:29:37.945Z</time></trkpt><trkpt lat="44.3325212" lon="7.8077526"><ele>651.0</ele><time>2026-04-26T10:29:38.946Z</time></trkpt><trkpt lat="44.3325196" lon="7.8078557"><ele>651.0</ele><time>2026-04-26T10:29:39.946Z</time></trkpt><trkpt lat="44.3325214" lon="7.8079596"><ele>653.8</ele><time>2026-04-26T10:29:40.946Z</time></trkpt><trkpt lat="44.3325257" lon="7.8080614"><ele>656.5999999999999</ele><time>2026-04-26T10:29:41.945Z</time></trkpt><trkpt lat="44.3325365" lon="7.8082015"><ele>659.4</ele><time>2026-04-26T10:29:42.946Z</time></trkpt><trkpt lat="44.332537" lon="7.8083335"><ele>662.2</ele><time>2026-04-26T10:29:43.946Z</time></trkpt><trkpt lat="44.3325367" lon="7.8084544"><ele>665.0</ele><time>2026-04-26T10:29:44.945Z</time></trkpt><trkpt lat="44.3325424" lon="7.8085885"><ele>665.4</ele><time>2026-04-26T10:29:45.945Z</time></trkpt><trkpt lat="44.332538" lon="7.8087143"><ele>665.8</ele><time>2026-04-26T10:29:46.946Z</time></trkpt><trkpt lat="44.3325188" lon="7.8088442"><ele>666.2</ele><time>2026-04-26T10:29:47.946Z</time></trkpt><trkpt lat="44.3324884" lon="7.8089872"><ele>666.6</ele><time>2026-04-26T10:29:48.946Z</time></trkpt><trkpt lat="44.3324596" lon="7.8090971"><ele>667.0</ele><time>2026-04-26T10:29:49.946Z</time></trkpt><trkpt lat="44.3324349" lon="7.8092271"><ele>666.0</ele><time>2026-04-26T10:29:51.946Z</time></trkpt><trkpt lat="44.3324419" lon="7.8093524"><ele>665.0</ele><time>2026-04-26T10:29:53.946Z</time></trkpt><trkpt lat="44.3324441" lon="7.8094885"><ele>664.0</ele><time>2026-04-26T10:29:55.946Z</time></trkpt><trkpt lat="44.3324222" lon="7.809576"><ele>663.0</ele><time>2026-04-26T10:29:59.946Z</time></trkpt><trkpt lat="44.3324941" lon="7.8096592"><ele>662.0</ele><time>2026-04-26T10:30:02.946Z</time></trkpt><trkpt lat="44.3325558" lon="7.8097255"><ele>661.0</ele><time>2026-04-26T10:30:03.945Z</time></trkpt><trkpt lat="44.3325939" lon="7.8098008"><ele>661.0</ele><time>2026-04-26T10:30:04.946Z</time></trkpt><trkpt lat="44.3326436" lon="7.8098785"><ele>661.0</ele><time>2026-04-26T10:30:05.946Z</time></trkpt><trkpt lat="44.3327046" lon="7.8099509"><ele>661.0</ele><time>2026-04-26T10:30:06.946Z</time></trkpt><trkpt lat="44.3327804" lon="7.8100021"><ele>661.0</ele><time>2026-04-26T10:30:07.946Z</time></trkpt><trkpt lat="44.332879" lon="7.810093"><ele>661.0</ele><time>2026-04-26T10:30:08.946Z</time></trkpt><trkpt lat="44.332981" lon="7.8101833"><ele>662.4</ele><time>2026-04-26T10:30:09.946Z</time></trkpt><trkpt lat="44.3330775" lon="7.8102455"><ele>663.8</ele><time>2026-04-26T10:30:10.945Z</time></trkpt><trkpt lat="44.3331764" lon="7.8102854"><ele>665.1999999999999</ele><time>2026-04-26T10:30:11.946Z</time></trkpt><trkpt lat="44.3332736" lon="7.8103283"><ele>666.5999999999999</ele><time>2026-04-26T10:30:12.945Z</time></trkpt><trkpt lat="44.3333727" lon="7.8103632"><ele>668.0</ele><time>2026-04-26T10:30:13.946Z</time></trkpt><trkpt lat="44.3334537" lon="7.8104258"><ele>668.0</ele><time>2026-04-26T10:30:14.946Z</time></trkpt><trkpt lat="44.3335138" lon="7.8104866"><ele>668.0</ele><time>2026-04-26T10:30:15.946Z</time></trkpt><trkpt lat="44.333558" lon="7.8105621"><ele>668.0</ele><time>2026-04-26T10:30:16.946Z</time></trkpt><trkpt lat="44.3336071" lon="7.8106471"><ele>668.0</ele><time>2026-04-26T10:30:18.945Z</time></trkpt><trkpt lat="44.3336426" lon="7.8107494"><ele>668.0</ele><time>2026-04-26T10:32:11.946Z</time></trkpt><trkpt lat="44.3337141" lon="7.8108337"><ele>668.0</ele><time>2026-04-26T10:32:14.945Z</time></trkpt><trkpt lat="44.3337964" lon="7.8109352"><ele>667.1666666666666</ele><time>2026-04-26T10:32:16.946Z</time></trkpt><trkpt lat="44.3338618" lon="7.8110157"><ele>666.3333333333333</ele><time>2026-04-26T10:32:17.946Z</time></trkpt><trkpt lat="44.3339254" lon="7.8110837"><ele>665.5</ele><time>2026-04-26T10:32:18.946Z</time></trkpt><trkpt lat="44.3339777" lon="7.8111355"><ele>664.6666666666666</ele><time>2026-04-26T10:32:19.946Z</time></trkpt><trkpt lat="44.3340939" lon="7.811213"><ele>663.8333333333334</ele><time>2026-04-26T10:32:21.946Z</time></trkpt><trkpt lat="44.3341482" lon="7.8112583"><ele>663.0</ele><time>2026-04-26T10:32:22.946Z</time></trkpt><trkpt lat="44.3342122" lon="7.8113225"><ele>663.0</ele><time>2026-04-26T10:32:23.945Z</time></trkpt><trkpt lat="44.3342667" lon="7.8113749"><ele>663.0</ele><time>2026-04-26T10:32:24.945Z</time></trkpt><trkpt lat="44.3343218" lon="7.8114258"><ele>663.0</ele><time>2026-04-26T10:32:25.946Z</time></trkpt><trkpt lat="44.3343914" lon="7.8114883"><ele>663.0</ele><time>2026-04-26T10:32:26.945Z</time></trkpt><trkpt lat="44.3344723" lon="7.8115899"><ele>663.0</ele><time>2026-04-26T10:32:27.945Z</time></trkpt><trkpt lat="44.3345547" lon="7.8116472"><ele>663.0</ele><time>2026-04-26T10:32:28.946Z</time></trkpt><trkpt lat="44.3346345" lon="7.8117205"><ele>663.0</ele><time>2026-04-26T10:32:29.946Z</time></trkpt><trkpt lat="44.3347196" lon="7.8117912"><ele>663.0</ele><time>2026-04-26T10:32:30.946Z</time></trkpt><trkpt lat="44.3348066" lon="7.8118704"><ele>663.0</ele><time>2026-04-26T10:32:31.945Z</time></trkpt><trkpt lat="44.3349028" lon="7.8119353"><ele>663.0</ele><time>2026-04-26T10:32:32.946Z</time></trkpt><trkpt lat="44.3350004" lon="7.8119899"><ele>663.0</ele><time>2026-04-26T10:32:33.946Z</time></trkpt><trkpt lat="44.3350907" lon="7.8120391"><ele>660.0</ele><time>2026-04-26T10:32:34.946Z</time></trkpt><trkpt lat="44.3351804" lon="7.8120875"><ele>657.0</ele><time>2026-04-26T10:32:35.946Z</time></trkpt><trkpt lat="44.335249" lon="7.8121257"><ele>654.0</ele><time>2026-04-26T10:32:36.946Z</time></trkpt><trkpt lat="44.3353195" lon="7.812172"><ele>651.0</ele><time>2026-04-26T10:32:37.946Z</time></trkpt><trkpt lat="44.3353966" lon="7.8122"><ele>648.0</ele><time>2026-04-26T10:32:38.946Z</time></trkpt><trkpt lat="44.3354663" lon="7.8122172"><ele>645.0</ele><time>2026-04-26T10:32:39.946Z</time></trkpt><trkpt lat="44.3355729" lon="7.8122591"><ele>644.2</ele><time>2026-04-26T10:32:41.946Z</time></trkpt><trkpt lat="44.3356795" lon="7.8122725"><ele>643.4</ele><time>2026-04-26T10:32:43.946Z</time></trkpt><trkpt lat="44.3357435" lon="7.8122888"><ele>642.5999999999999</ele><time>2026-04-26T10:32:45.946Z</time></trkpt><trkpt lat="44.3358432" lon="7.8123175"><ele>641.8</ele><time>2026-04-26T10:32:47.946Z</time></trkpt><trkpt lat="44.3359874" lon="7.8123017"><ele>641.0</ele><time>2026-04-26T10:32:49.946Z</time></trkpt><trkpt lat="44.3360497" lon="7.8122801"><ele>641.0</ele><time>2026-04-26T10:32:50.946Z</time></trkpt><trkpt lat="44.3361268" lon="7.8122444"><ele>641.0</ele><time>2026-04-26T10:32:52.945Z</time></trkpt><trkpt lat="44.3361992" lon="7.8122209"><ele>641.0</ele><time>2026-04-26T10:33:04.946Z</time></trkpt><trkpt lat="44.3362934" lon="7.8122221"><ele>641.0</ele><time>2026-04-26T10:33:07.946Z</time></trkpt><trkpt lat="44.3363647" lon="7.8122124"><ele>641.0</ele><time>2026-04-26T10:33:09.945Z</time></trkpt><trkpt lat="44.3362529" lon="7.8122346"><ele>641.0</ele><time>2026-04-26T10:33:14.946Z</time></trkpt><trkpt lat="44.3361446" lon="7.8122337"><ele>641.0</ele><time>2026-04-26T10:33:16.946Z</time></trkpt><trkpt lat="44.3362064" lon="7.8123086"><ele>641.0</ele><time>2026-04-26T10:33:25.946Z</time></trkpt><trkpt lat="44.3362996" lon="7.8123496"><ele>641.0</ele><time>2026-04-26T10:33:27.946Z</time></trkpt><trkpt lat="44.3364129" lon="7.8123892"><ele>641.0</ele><time>2026-04-26T10:33:29.946Z</time></trkpt><trkpt lat="44.3365128" lon="7.8124275"><ele>641.0</ele><time>2026-04-26T10:33:31.946Z</time></trkpt><trkpt lat="44.3365874" lon="7.8124393"><ele>640.6666666666666</ele><time>2026-04-26T10:33:32.946Z</time></trkpt><trkpt lat="44.3366532" lon="7.8124765"><ele>640.3333333333333</ele><time>2026-04-26T10:33:33.946Z</time></trkpt><trkpt lat="44.3367204" lon="7.812522"><ele>640.0</ele><time>2026-04-26T10:33:34.945Z</time></trkpt><trkpt lat="44.336832" lon="7.8125334"><ele>639.6666666666666</ele><time>2026-04-26T10:33:36.946Z</time></trkpt><trkpt lat="44.3369069" lon="7.812562"><ele>639.3333333333334</ele><time>2026-04-26T10:33:37.946Z</time></trkpt><trkpt lat="44.3369713" lon="7.8125543"><ele>639.0</ele><time>2026-04-26T10:33:38.946Z</time></trkpt><trkpt lat="44.3370497" lon="7.8125256"><ele>639.0</ele><time>2026-04-26T10:33:39.946Z</time></trkpt><trkpt lat="44.3371305" lon="7.8125041"><ele>639.0</ele><time>2026-04-26T10:33:40.946Z</time></trkpt><trkpt lat="44.3372121" lon="7.8125166"><ele>639.0</ele><time>2026-04-26T10:33:41.946Z</time></trkpt><trkpt lat="44.3373346" lon="7.8125028"><ele>639.0</ele><time>2026-04-26T10:33:43.945Z</time></trkpt><trkpt lat="44.3374158" lon="7.8125586"><ele>639.0</ele><time>2026-04-26T10:33:44.946Z</time></trkpt><trkpt lat="44.3374821" lon="7.8125648"><ele>639.0</ele><time>2026-04-26T10:33:45.946Z</time></trkpt><trkpt lat="44.3375455" lon="7.8126095"><ele>635.5</ele><time>2026-04-26T10:33:46.946Z</time></trkpt><trkpt lat="44.3376085" lon="7.8126658"><ele>632.0</ele><time>2026-04-26T10:33:47.946Z</time></trkpt><trkpt lat="44.3376721" lon="7.8127123"><ele>628.5</ele><time>2026-04-26T10:33:48.946Z</time></trkpt><trkpt lat="44.337726" lon="7.8127581"><ele>625.0</ele><time>2026-04-26T10:33:49.946Z</time></trkpt><trkpt lat="44.3377874" lon="7.8128113"><ele>621.5</ele><time>2026-04-26T10:33:50.946Z</time></trkpt><trkpt lat="44.3378791" lon="7.812879"><ele>618.0</ele><time>2026-04-26T10:33:52.946Z</time></trkpt><trkpt lat="44.3379652" lon="7.8129218"><ele>619.0</ele><time>2026-04-26T10:33:54.946Z</time></trkpt><trkpt lat="44.3381033" lon="7.8129974"><ele>620.0</ele><time>2026-04-26T10:33:56.946Z</time></trkpt><trkpt lat="44.3381828" lon="7.8130375"><ele>621.0</ele><time>2026-04-26T10:33:57.946Z</time></trkpt><trkpt lat="44.3382496" lon="7.813057"><ele>622.0</ele><time>2026-04-26T10:33:58.946Z</time></trkpt><trkpt lat="44.3383872" lon="7.8130733"><ele>623.0</ele><time>2026-04-26T10:34:00.946Z</time></trkpt><trkpt lat="44.3384511" lon="7.8130872"><ele>623.0</ele><time>2026-04-26T10:34:01.945Z</time></trkpt><trkpt lat="44.3385259" lon="7.8130979"><ele>623.0</ele><time>2026-04-26T10:34:02.946Z</time></trkpt><trkpt lat="44.3385988" lon="7.8130714"><ele>623.0</ele><time>2026-04-26T10:34:03.946Z</time></trkpt><trkpt lat="44.3386641" lon="7.8130469"><ele>623.0</ele><time>2026-04-26T10:34:04.946Z</time></trkpt><trkpt lat="44.3387379" lon="7.8130223"><ele>623.0</ele><time>2026-04-26T10:34:05.946Z</time></trkpt><trkpt lat="44.3388977" lon="7.8129438"><ele>621.8</ele><time>2026-04-26T10:34:07.945Z</time></trkpt><trkpt lat="44.3389846" lon="7.8129079"><ele>620.5999999999999</ele><time>2026-04-26T10:34:08.946Z</time></trkpt><trkpt lat="44.3390445" lon="7.8128472"><ele>619.4000000000001</ele><time>2026-04-26T10:34:09.945Z</time></trkpt><trkpt lat="44.3391455" lon="7.8127749"><ele>618.2</ele><time>2026-04-26T10:34:11.945Z</time></trkpt><trkpt lat="44.3392628" lon="7.81274"><ele>617.0</ele><time>2026-04-26T10:34:13.946Z</time></trkpt><trkpt lat="44.3393164" lon="7.8126807"><ele>617.1666666666666</ele><time>2026-04-26T10:34:14.945Z</time></trkpt><trkpt lat="44.3393799" lon="7.8126436"><ele>617.3333333333333</ele><time>2026-04-26T10:34:15.945Z</time></trkpt><trkpt lat="44.3394801" lon="7.8125852"><ele>617.5</ele><time>2026-04-26T10:34:17.946Z</time></trkpt><trkpt lat="44.3395783" lon="7.812548"><ele>617.6666666666666</ele><time>2026-04-26T10:34:19.946Z</time></trkpt><trkpt lat="44.3396373" lon="7.8124783"><ele>617.8333333333334</ele><time>2026-04-26T10:34:21.946Z</time></trkpt><trkpt lat="44.3396927" lon="7.8124023"><ele>618.0</ele><time>2026-04-26T10:34:23.946Z</time></trkpt><trkpt lat="44.3397554" lon="7.8123368"><ele>618.0</ele><time>2026-04-26T10:34:25.946Z</time></trkpt><trkpt lat="44.3398186" lon="7.8123253"><ele>618.0</ele><time>2026-04-26T10:34:28.946Z</time></trkpt><trkpt lat="44.3398312" lon="7.8124699"><ele>618.0</ele><time>2026-04-26T10:34:31.946Z</time></trkpt><trkpt lat="44.3398015" lon="7.8126014"><ele>618.0</ele><time>2026-04-26T10:34:33.945Z</time></trkpt><trkpt lat="44.3397312" lon="7.8126985"><ele>618.0</ele><time>2026-04-26T10:34:35.946Z</time></trkpt><trkpt lat="44.3396916" lon="7.8128292"><ele>617.8</ele><time>2026-04-26T10:34:37.946Z</time></trkpt><trkpt lat="44.3396572" lon="7.8129208"><ele>617.5999999999999</ele><time>2026-04-26T10:34:38.945Z</time></trkpt><trkpt lat="44.3396436" lon="7.8130213"><ele>617.4000000000001</ele><time>2026-04-26T10:34:39.946Z</time></trkpt><trkpt lat="44.3396251" lon="7.813123"><ele>617.2</ele><time>2026-04-26T10:34:40.946Z</time></trkpt><trkpt lat="44.3395921" lon="7.8132696"><ele>617.0</ele><time>2026-04-26T10:34:42.945Z</time></trkpt><trkpt lat="44.3395137" lon="7.8134448"><ele>613.3333333333333</ele><time>2026-04-26T10:34:44.946Z</time></trkpt><trkpt lat="44.3394643" lon="7.813548"><ele>609.6666666666666</ele><time>2026-04-26T10:34:45.946Z</time></trkpt><trkpt lat="44.3394148" lon="7.8136326"><ele>606.0</ele><time>2026-04-26T10:34:46.946Z</time></trkpt><trkpt lat="44.3393714" lon="7.8137049"><ele>602.3333333333334</ele><time>2026-04-26T10:34:47.946Z</time></trkpt><trkpt lat="44.3393159" lon="7.8138388"><ele>598.6666666666667</ele><time>2026-04-26T10:34:49.946Z</time></trkpt><trkpt lat="44.3392809" lon="7.8139338"><ele>595.0</ele><time>2026-04-26T10:35:07.945Z</time></trkpt><trkpt lat="44.3392435" lon="7.8140261"><ele>595.0</ele><time>2026-04-26T10:35:09.946Z</time></trkpt><trkpt lat="44.3391676" lon="7.8141307"><ele>595.0</ele><time>2026-04-26T10:35:11.945Z</time></trkpt><trkpt lat="44.3391223" lon="7.8142046"><ele>595.0</ele><time>2026-04-26T10:35:12.946Z</time></trkpt><trkpt lat="44.3390901" lon="7.814299"><ele>595.0</ele><time>2026-04-26T10:35:14.946Z</time></trkpt><trkpt lat="44.3392136" lon="7.8143142"><ele>595.0</ele><time>2026-04-26T10:35:17.946Z</time></trkpt><trkpt lat="44.3392982" lon="7.8142985"><ele>595.0</ele><time>2026-04-26T10:35:18.946Z</time></trkpt><trkpt lat="44.3393894" lon="7.8143001"><ele>595.0</ele><time>2026-04-26T10:35:19.946Z</time></trkpt><trkpt lat="44.3394761" lon="7.8143024"><ele>595.0</ele><time>2026-04-26T10:35:20.946Z</time></trkpt><trkpt lat="44.3395599" lon="7.8143"><ele>595.0</ele><time>2026-04-26T10:35:21.946Z</time></trkpt><trkpt lat="44.3396426" lon="7.8142911"><ele>595.0</ele><time>2026-04-26T10:35:22.946Z</time></trkpt><trkpt lat="44.3397796" lon="7.8142521"><ele>593.0</ele><time>2026-04-26T10:35:24.946Z</time></trkpt><trkpt lat="44.3398743" lon="7.8142197"><ele>591.0</ele><time>2026-04-26T10:35:25.946Z</time></trkpt><trkpt lat="44.3399558" lon="7.8141992"><ele>589.0</ele><time>2026-04-26T10:35:26.946Z</time></trkpt><trkpt lat="44.3400452" lon="7.8141749"><ele>587.0</ele><time>2026-04-26T10:35:28.946Z</time></trkpt><trkpt lat="44.3401494" lon="7.8142261"><ele>585.0</ele><time>2026-04-26T10:35:30.946Z</time></trkpt><trkpt lat="44.3401979" lon="7.8142878"><ele>583.0</ele><time>2026-04-26T10:35:32.946Z</time></trkpt><trkpt lat="44.3402049" lon="7.8141253"><ele>583.0</ele><time>2026-04-26T10:35:36.946Z</time></trkpt><trkpt lat="44.34025" lon="7.8139812"><ele>583.0</ele><time>2026-04-26T10:35:38.946Z</time></trkpt><trkpt lat="44.3402956" lon="7.8139177"><ele>583.0</ele><time>2026-04-26T10:35:39.946Z</time></trkpt><trkpt lat="44.3404073" lon="7.8138273"><ele>583.0</ele><time>2026-04-26T10:35:41.946Z</time></trkpt><trkpt lat="44.3405227" lon="7.8137886"><ele>583.0</ele><time>2026-04-26T10:35:43.945Z</time></trkpt><trkpt lat="44.3405852" lon="7.8137707"><ele>583.0</ele><time>2026-04-26T10:35:44.946Z</time></trkpt><trkpt lat="44.3405371" lon="7.8138359"><ele>583.0</ele><time>2026-04-26T10:35:53.946Z</time></trkpt><trkpt lat="44.3404247" lon="7.8138462"><ele>583.0</ele><time>2026-04-26T10:35:55.946Z</time></trkpt><trkpt lat="44.3403357" lon="7.8139185"><ele>583.0</ele><time>2026-04-26T10:35:57.946Z</time></trkpt><trkpt lat="44.3402551" lon="7.8140113"><ele>583.0</ele><time>2026-04-26T10:35:59.946Z</time></trkpt><trkpt lat="44.3401928" lon="7.8141357"><ele>583.0</ele><time>2026-04-26T10:36:01.945Z</time></trkpt><trkpt lat="44.3401971" lon="7.8143107"><ele>583.0</ele><time>2026-04-26T10:36:03.946Z</time></trkpt><trkpt lat="44.3402045" lon="7.8144069"><ele>583.0</ele><time>2026-04-26T10:36:04.946Z</time></trkpt><trkpt lat="44.3402216" lon="7.8145175"><ele>583.0</ele><time>2026-04-26T10:36:05.945Z</time></trkpt><trkpt lat="44.340242" lon="7.8146319"><ele>583.0</ele><time>2026-04-26T10:36:06.946Z</time></trkpt><trkpt lat="44.3402578" lon="7.8147434"><ele>583.0</ele><time>2026-04-26T10:36:07.946Z</time></trkpt><trkpt lat="44.3402771" lon="7.8148563"><ele>580.1999999999999</ele><time>2026-04-26T10:36:08.946Z</time></trkpt><trkpt lat="44.3402792" lon="7.8149628"><ele>577.4</ele><time>2026-04-26T10:36:09.946Z</time></trkpt><trkpt lat="44.3402731" lon="7.8150763"><ele>574.5999999999999</ele><time>2026-04-26T10:36:10.946Z</time></trkpt><trkpt lat="44.3402525" lon="7.8152081"><ele>571.8</ele><time>2026-04-26T10:36:11.946Z</time></trkpt><trkpt lat="44.3402216" lon="7.8153378"><ele>569.0</ele><time>2026-04-26T10:36:12.946Z</time></trkpt><trkpt lat="44.3401947" lon="7.8154754"><ele>567.8</ele><time>2026-04-26T10:36:13.945Z</time></trkpt><trkpt lat="44.340173" lon="7.8156135"><ele>566.5999999999999</ele><time>2026-04-26T10:36:14.946Z</time></trkpt><trkpt lat="44.3401741" lon="7.8157525"><ele>565.4</ele><time>2026-04-26T10:36:15.945Z</time></trkpt><trkpt lat="44.340195" lon="7.8158798"><ele>564.1999999999999</ele><time>2026-04-26T10:36:16.946Z</time></trkpt><trkpt lat="44.3402284" lon="7.8159988"><ele>563.0</ele><time>2026-04-26T10:36:17.946Z</time></trkpt><trkpt lat="44.3402612" lon="7.8161282"><ele>561.3333333333333</ele><time>2026-04-26T10:36:18.945Z</time></trkpt><trkpt lat="44.3402871" lon="7.8162525"><ele>559.6666666666666</ele><time>2026-04-26T10:36:19.946Z</time></trkpt><trkpt lat="44.3403102" lon="7.8163787"><ele>558.0</ele><time>2026-04-26T10:36:20.945Z</time></trkpt><trkpt lat="44.3403328" lon="7.8164928"><ele>556.3333333333334</ele><time>2026-04-26T10:36:21.946Z</time></trkpt><trkpt lat="44.3403641" lon="7.816593"><ele>554.6666666666667</ele><time>2026-04-26T10:36:22.946Z</time></trkpt><trkpt lat="44.3404139" lon="7.8166618"><ele>553.0</ele><time>2026-04-26T10:36:23.946Z</time></trkpt><trkpt lat="44.3404821" lon="7.8166816"><ele>552.1666666666667</ele><time>2026-04-26T10:36:24.946Z</time></trkpt><trkpt lat="44.3405553" lon="7.8166572"><ele>551.3333333333334</ele><time>2026-04-26T10:36:25.946Z</time></trkpt><trkpt lat="44.3406177" lon="7.8165745"><ele>550.5</ele><time>2026-04-26T10:36:26.946Z</time></trkpt><trkpt lat="44.3406637" lon="7.8164592"><ele>549.6666666666666</ele><time>2026-04-26T10:36:27.946Z</time></trkpt><trkpt lat="44.3406906" lon="7.8163377"><ele>548.8333333333333</ele><time>2026-04-26T10:36:28.945Z</time></trkpt><trkpt lat="44.3406904" lon="7.8162074"><ele>548.0</ele><time>2026-04-26T10:36:29.945Z</time></trkpt><trkpt lat="44.3406793" lon="7.8160587"><ele>548.6</ele><time>2026-04-26T10:36:30.946Z</time></trkpt><trkpt lat="44.3406688" lon="7.8159067"><ele>549.1999999999999</ele><time>2026-04-26T10:36:31.946Z</time></trkpt><trkpt lat="44.3406777" lon="7.8157662"><ele>549.8</ele><time>2026-04-26T10:36:32.946Z</time></trkpt><trkpt lat="44.3406875" lon="7.8156389"><ele>550.4</ele><time>2026-04-26T10:36:33.946Z</time></trkpt><trkpt lat="44.3407225" lon="7.815535"><ele>551.0</ele><time>2026-04-26T10:36:34.946Z</time></trkpt><trkpt lat="44.340803" lon="7.8154256"><ele>551.0</ele><time>2026-04-26T10:36:36.946Z</time></trkpt><trkpt lat="44.3408885" lon="7.8155498"><ele>551.0</ele><time>2026-04-26T10:36:38.946Z</time></trkpt><trkpt lat="44.3409151" lon="7.8156607"><ele>551.0</ele><time>2026-04-26T10:36:39.946Z</time></trkpt><trkpt lat="44.3409368" lon="7.8157902"><ele>551.0</ele><time>2026-04-26T10:36:40.946Z</time></trkpt><trkpt lat="44.3409704" lon="7.8159124"><ele>551.0</ele><time>2026-04-26T10:36:41.945Z</time></trkpt><trkpt lat="44.3410132" lon="7.8160297"><ele>550.4</ele><time>2026-04-26T10:36:42.945Z</time></trkpt><trkpt lat="44.3410532" lon="7.8161496"><ele>549.8</ele><time>2026-04-26T10:36:43.945Z</time></trkpt><trkpt lat="44.3410986" lon="7.8162898"><ele>549.1999999999999</ele><time>2026-04-26T10:36:44.946Z</time></trkpt><trkpt lat="44.3411355" lon="7.8164307"><ele>548.6</ele><time>2026-04-26T10:36:45.946Z</time></trkpt><trkpt lat="44.3411744" lon="7.8165916"><ele>548.0</ele><time>2026-04-26T10:36:46.946Z</time></trkpt><trkpt lat="44.3412271" lon="7.8167507"><ele>546.75</ele><time>2026-04-26T10:36:47.946Z</time></trkpt><trkpt lat="44.3412908" lon="7.8168983"><ele>545.5</ele><time>2026-04-26T10:36:48.946Z</time></trkpt><trkpt lat="44.3413713" lon="7.8170342"><ele>544.25</ele><time>2026-04-26T10:36:49.945Z</time></trkpt><trkpt lat="44.3414545" lon="7.8171596"><ele>543.0</ele><time>2026-04-26T10:36:50.946Z</time></trkpt><trkpt lat="44.3415366" lon="7.8172892"><ele>540.5</ele><time>2026-04-26T10:36:51.946Z</time></trkpt><trkpt lat="44.3415985" lon="7.8174153"><ele>538.0</ele><time>2026-04-26T10:36:52.946Z</time></trkpt><trkpt lat="44.3416534" lon="7.8175438"><ele>535.5</ele><time>2026-04-26T10:36:53.946Z</time></trkpt><trkpt lat="44.3416833" lon="7.8176961"><ele>533.0</ele><time>2026-04-26T10:36:54.946Z</time></trkpt><trkpt lat="44.3417081" lon="7.8178623"><ele>531.1666666666666</ele><time>2026-04-26T10:36:55.946Z</time></trkpt><trkpt lat="44.3417349" lon="7.8180005"><ele>529.3333333333333</ele><time>2026-04-26T10:36:56.945Z</time></trkpt><trkpt lat="44.3417512" lon="7.8181199"><ele>527.5</ele><time>2026-04-26T10:36:57.946Z</time></trkpt><trkpt lat="44.3417557" lon="7.8182298"><ele>525.6666666666666</ele><time>2026-04-26T10:36:58.946Z</time></trkpt><trkpt lat="44.341748" lon="7.8183496"><ele>523.8333333333334</ele><time>2026-04-26T10:36:59.945Z</time></trkpt><trkpt lat="44.3417118" lon="7.8184508"><ele>522.0</ele><time>2026-04-26T10:37:00.946Z</time></trkpt><trkpt lat="44.3416605" lon="7.8185383"><ele>520.4</ele><time>2026-04-26T10:37:01.946Z</time></trkpt><trkpt lat="44.3416058" lon="7.8186195"><ele>518.8000000000001</ele><time>2026-04-26T10:37:02.946Z</time></trkpt><trkpt lat="44.3415443" lon="7.8186986"><ele>517.2</ele><time>2026-04-26T10:37:03.946Z</time></trkpt><trkpt lat="44.3414727" lon="7.8187785"><ele>515.6</ele><time>2026-04-26T10:37:04.946Z</time></trkpt><trkpt lat="44.3413901" lon="7.818854"><ele>514.0</ele><time>2026-04-26T10:37:05.946Z</time></trkpt><trkpt lat="44.3412977" lon="7.8189308"><ele>514.0</ele><time>2026-04-26T10:37:06.946Z</time></trkpt><trkpt lat="44.3411984" lon="7.8190053"><ele>514.0</ele><time>2026-04-26T10:37:07.945Z</time></trkpt><trkpt lat="44.3411141" lon="7.8190812"><ele>514.0</ele><time>2026-04-26T10:37:08.946Z</time></trkpt><trkpt lat="44.3410355" lon="7.8191657"><ele>514.0</ele><time>2026-04-26T10:37:09.946Z</time></trkpt><trkpt lat="44.3409597" lon="7.8192483"><ele>514.0</ele><time>2026-04-26T10:37:10.946Z</time></trkpt><trkpt lat="44.3408921" lon="7.8193269"><ele>513.2</ele><time>2026-04-26T10:37:11.946Z</time></trkpt><trkpt lat="44.3408376" lon="7.819402"><ele>512.4</ele><time>2026-04-26T10:37:12.946Z</time></trkpt><trkpt lat="44.3407641" lon="7.8194901"><ele>511.6</ele><time>2026-04-26T10:37:13.946Z</time></trkpt><trkpt lat="44.3407065" lon="7.8195908"><ele>510.8</ele><time>2026-04-26T10:37:14.946Z</time></trkpt><trkpt lat="44.3406419" lon="7.8197024"><ele>510.0</ele><time>2026-04-26T10:37:15.946Z</time></trkpt><trkpt lat="44.3405862" lon="7.8198165"><ele>510.2</ele><time>2026-04-26T10:37:16.946Z</time></trkpt><trkpt lat="44.3405244" lon="7.819953"><ele>510.4</ele><time>2026-04-26T10:37:17.946Z</time></trkpt><trkpt lat="44.340464" lon="7.8200768"><ele>510.6</ele><time>2026-04-26T10:37:18.946Z</time></trkpt><trkpt lat="44.3404094" lon="7.82018"><ele>510.8</ele><time>2026-04-26T10:37:19.946Z</time></trkpt><trkpt lat="44.3403546" lon="7.8202735"><ele>511.0</ele><time>2026-04-26T10:37:20.945Z</time></trkpt><trkpt lat="44.3402945" lon="7.8203552"><ele>511.0</ele><time>2026-04-26T10:37:21.946Z</time></trkpt><trkpt lat="44.3402287" lon="7.8204254"><ele>511.0</ele><time>2026-04-26T10:37:22.945Z</time></trkpt><trkpt lat="44.3401551" lon="7.8204879"><ele>511.0</ele><time>2026-04-26T10:37:23.945Z</time></trkpt><trkpt lat="44.340073" lon="7.8205541"><ele>511.0</ele><time>2026-04-26T10:37:24.946Z</time></trkpt><trkpt lat="44.3400071" lon="7.8206369"><ele>511.0</ele><time>2026-04-26T10:37:25.946Z</time></trkpt><trkpt lat="44.339951" lon="7.8207519"><ele>511.0</ele><time>2026-04-26T10:37:26.945Z</time></trkpt><trkpt lat="44.3399211" lon="7.8208886"><ele>511.0</ele><time>2026-04-26T10:37:27.946Z</time></trkpt><trkpt lat="44.3398808" lon="7.8210423"><ele>511.0</ele><time>2026-04-26T10:37:28.946Z</time></trkpt><trkpt lat="44.3398471" lon="7.8211962"><ele>511.0</ele><time>2026-04-26T10:37:29.946Z</time></trkpt><trkpt lat="44.3398127" lon="7.8213684"><ele>511.5</ele><time>2026-04-26T10:37:30.946Z</time></trkpt><trkpt lat="44.3397843" lon="7.8215467"><ele>512.0</ele><time>2026-04-26T10:37:31.946Z</time></trkpt><trkpt lat="44.3397601" lon="7.8217249"><ele>512.5</ele><time>2026-04-26T10:37:32.946Z</time></trkpt><trkpt lat="44.3397395" lon="7.821895"><ele>513.0</ele><time>2026-04-26T10:37:33.946Z</time></trkpt><trkpt lat="44.3397149" lon="7.8220507"><ele>513.4</ele><time>2026-04-26T10:37:34.946Z</time></trkpt><trkpt lat="44.3396918" lon="7.8221888"><ele>513.8</ele><time>2026-04-26T10:37:35.946Z</time></trkpt><trkpt lat="44.3396686" lon="7.8223148"><ele>514.2</ele><time>2026-04-26T10:37:36.946Z</time></trkpt><trkpt lat="44.3396462" lon="7.8224235"><ele>514.6</ele><time>2026-04-26T10:37:37.946Z</time></trkpt><trkpt lat="44.3396289" lon="7.8225204"><ele>515.0</ele><time>2026-04-26T10:37:38.946Z</time></trkpt><trkpt lat="44.3395912" lon="7.8226869"><ele>515.8333333333333</ele><time>2026-04-26T10:37:40.946Z</time></trkpt><trkpt lat="44.3395663" lon="7.8227761"><ele>516.6666666666666</ele><time>2026-04-26T10:37:41.946Z</time></trkpt><trkpt lat="44.3395397" lon="7.8228715"><ele>517.5</ele><time>2026-04-26T10:37:42.946Z</time></trkpt><trkpt lat="44.3395049" lon="7.8229678"><ele>518.3333333333334</ele><time>2026-04-26T10:37:43.946Z</time></trkpt><trkpt lat="44.3394481" lon="7.8230581"><ele>519.1666666666667</ele><time>2026-04-26T10:37:44.946Z</time></trkpt><trkpt lat="44.3393761" lon="7.8231359"><ele>520.0</ele><time>2026-04-26T10:37:45.946Z</time></trkpt><trkpt lat="44.339288" lon="7.823196"><ele>520.0</ele><time>2026-04-26T10:37:46.946Z</time></trkpt><trkpt lat="44.3392027" lon="7.8232355"><ele>520.0</ele><time>2026-04-26T10:37:47.946Z</time></trkpt><trkpt lat="44.3391233" lon="7.8232534"><ele>520.0</ele><time>2026-04-26T10:37:48.946Z</time></trkpt><trkpt lat="44.339045" lon="7.8232703"><ele>520.0</ele><time>2026-04-26T10:37:49.946Z</time></trkpt><trkpt lat="44.3389762" lon="7.8233136"><ele>520.0</ele><time>2026-04-26T10:37:50.946Z</time></trkpt><trkpt lat="44.3389041" lon="7.823373"><ele>520.0</ele><time>2026-04-26T10:37:51.945Z</time></trkpt><trkpt lat="44.3388259" lon="7.8234331"><ele>524.4</ele><time>2026-04-26T10:37:52.946Z</time></trkpt><trkpt lat="44.3387371" lon="7.8235054"><ele>528.8</ele><time>2026-04-26T10:37:53.946Z</time></trkpt><trkpt lat="44.3386478" lon="7.8235652"><ele>533.2</ele><time>2026-04-26T10:37:54.946Z</time></trkpt><trkpt lat="44.3385588" lon="7.8236193"><ele>537.6</ele><time>2026-04-26T10:37:55.945Z</time></trkpt><trkpt lat="44.338464" lon="7.8236527"><ele>542.0</ele><time>2026-04-26T10:37:56.946Z</time></trkpt><trkpt lat="44.3383623" lon="7.8236763"><ele>542.0</ele><time>2026-04-26T10:37:57.946Z</time></trkpt><trkpt lat="44.3382623" lon="7.8236825"><ele>542.0</ele><time>2026-04-26T10:37:58.946Z</time></trkpt><trkpt lat="44.3381643" lon="7.8236897"><ele>542.0</ele><time>2026-04-26T10:37:59.946Z</time></trkpt><trkpt lat="44.3380608" lon="7.8236972"><ele>542.0</ele><time>2026-04-26T10:38:00.946Z</time></trkpt><trkpt lat="44.337957" lon="7.8237163"><ele>542.0</ele><time>2026-04-26T10:38:01.946Z</time></trkpt><trkpt lat="44.3378565" lon="7.8237295"><ele>541.4</ele><time>2026-04-26T10:38:02.946Z</time></trkpt><trkpt lat="44.3377512" lon="7.8237481"><ele>540.8000000000001</ele><time>2026-04-26T10:38:03.945Z</time></trkpt><trkpt lat="44.3376495" lon="7.8237646"><ele>540.2</ele><time>2026-04-26T10:38:04.946Z</time></trkpt><trkpt lat="44.3375501" lon="7.8237857"><ele>539.6</ele><time>2026-04-26T10:38:05.946Z</time></trkpt><trkpt lat="44.3374544" lon="7.8238032"><ele>539.0</ele><time>2026-04-26T10:38:06.946Z</time></trkpt><trkpt lat="44.3373705" lon="7.823829"><ele>539.0</ele><time>2026-04-26T10:38:07.946Z</time></trkpt><trkpt lat="44.3373061" lon="7.8238816"><ele>539.0</ele><time>2026-04-26T10:38:08.945Z</time></trkpt><trkpt lat="44.3372693" lon="7.8239594"><ele>539.0</ele><time>2026-04-26T10:38:09.946Z</time></trkpt><trkpt lat="44.3372497" lon="7.8240528"><ele>539.0</ele><time>2026-04-26T10:38:10.946Z</time></trkpt><trkpt lat="44.3372293" lon="7.8241452"><ele>539.0</ele><time>2026-04-26T10:38:11.945Z</time></trkpt><trkpt lat="44.3371994" lon="7.8242268"><ele>539.0</ele><time>2026-04-26T10:38:12.946Z</time></trkpt><trkpt lat="44.3371353" lon="7.8243179"><ele>539.0</ele><time>2026-04-26T10:38:14.946Z</time></trkpt><trkpt lat="44.3370273" lon="7.8243301"><ele>541.8333333333333</ele><time>2026-04-26T10:38:16.946Z</time></trkpt><trkpt lat="44.3369621" lon="7.8243354"><ele>544.6666666666666</ele><time>2026-04-26T10:38:17.946Z</time></trkpt><trkpt lat="44.3368806" lon="7.8243497"><ele>547.5</ele><time>2026-04-26T10:38:18.946Z</time></trkpt><trkpt lat="44.3367849" lon="7.8243744"><ele>550.3333333333334</ele><time>2026-04-26T10:38:19.946Z</time></trkpt><trkpt lat="44.3366832" lon="7.8244072"><ele>553.1666666666667</ele><time>2026-04-26T10:38:20.946Z</time></trkpt><trkpt lat="44.3365904" lon="7.8244478"><ele>556.0</ele><time>2026-04-26T10:38:21.946Z</time></trkpt><trkpt lat="44.3364936" lon="7.8244935"><ele>556.0</ele><time>2026-04-26T10:38:22.946Z</time></trkpt><trkpt lat="44.336391" lon="7.8245177"><ele>556.0</ele><time>2026-04-26T10:38:23.945Z</time></trkpt><trkpt lat="44.3362995" lon="7.8245851"><ele>556.0</ele><time>2026-04-26T10:38:24.946Z</time></trkpt><trkpt lat="44.3362075" lon="7.8246477"><ele>556.0</ele><time>2026-04-26T10:38:25.946Z</time></trkpt><trkpt lat="44.3361165" lon="7.8247236"><ele>556.0</ele><time>2026-04-26T10:38:26.946Z</time></trkpt><trkpt lat="44.3360487" lon="7.8248233"><ele>554.6</ele><time>2026-04-26T10:38:27.946Z</time></trkpt><trkpt lat="44.3360285" lon="7.8249536"><ele>553.2</ele><time>2026-04-26T10:38:28.946Z</time></trkpt><trkpt lat="44.3359831" lon="7.8250744"><ele>551.8</ele><time>2026-04-26T10:38:29.945Z</time></trkpt><trkpt lat="44.3359502" lon="7.8252124"><ele>550.4</ele><time>2026-04-26T10:38:30.946Z</time></trkpt><trkpt lat="44.3359257" lon="7.8253681"><ele>549.0</ele><time>2026-04-26T10:38:31.946Z</time></trkpt><trkpt lat="44.3359117" lon="7.8255239"><ele>549.0</ele><time>2026-04-26T10:38:32.946Z</time></trkpt><trkpt lat="44.3359018" lon="7.825643"><ele>549.0</ele><time>2026-04-26T10:38:33.946Z</time></trkpt><trkpt lat="44.335894" lon="7.825738"><ele>549.0</ele><time>2026-04-26T10:38:34.945Z</time></trkpt><trkpt lat="44.3358838" lon="7.8258277"><ele>549.0</ele><time>2026-04-26T10:38:35.946Z</time></trkpt><trkpt lat="44.3358605" lon="7.8259178"><ele>549.0</ele><time>2026-04-26T10:38:36.946Z</time></trkpt><trkpt lat="44.3358295" lon="7.8260339"><ele>549.0</ele><time>2026-04-26T10:38:37.946Z</time></trkpt><trkpt lat="44.335815" lon="7.8261344"><ele>549.5714285714286</ele><time>2026-04-26T10:38:38.946Z</time></trkpt><trkpt lat="44.3358026" lon="7.8262334"><ele>550.1428571428571</ele><time>2026-04-26T10:38:39.945Z</time></trkpt><trkpt lat="44.3357995" lon="7.8263408"><ele>550.7142857142858</ele><time>2026-04-26T10:38:40.946Z</time></trkpt><trkpt lat="44.3357786" lon="7.8264392"><ele>551.2857142857142</ele><time>2026-04-26T10:38:42.945Z</time></trkpt><trkpt lat="44.3357412" lon="7.8265164"><ele>551.8571428571429</ele><time>2026-04-26T10:38:47.946Z</time></trkpt><trkpt lat="44.3357061" lon="7.8265927"><ele>552.4285714285714</ele><time>2026-04-26T10:38:53.945Z</time></trkpt><trkpt lat="44.335702" lon="7.8266866"><ele>553.0</ele><time>2026-04-26T10:38:58.945Z</time></trkpt><trkpt lat="44.3357013" lon="7.8267769"><ele>554.4285714285714</ele><time>2026-04-26T10:39:03.946Z</time></trkpt><trkpt lat="44.335686" lon="7.8268722"><ele>555.8571428571429</ele><time>2026-04-26T10:39:08.946Z</time></trkpt><trkpt lat="44.3356549" lon="7.8269561"><ele>557.2857142857142</ele><time>2026-04-26T10:39:13.946Z</time></trkpt><trkpt lat="44.3356141" lon="7.8270265"><ele>558.7142857142858</ele><time>2026-04-26T10:39:18.946Z</time></trkpt><trkpt lat="44.3355991" lon="7.8271207"><ele>560.1428571428571</ele><time>2026-04-26T10:39:24.946Z</time></trkpt><trkpt lat="44.3356093" lon="7.8272293"><ele>561.5714285714286</ele><time>2026-04-26T10:39:29.946Z</time></trkpt><trkpt lat="44.3356178" lon="7.8273237"><ele>563.0</ele><time>2026-04-26T10:39:35.945Z</time></trkpt><trkpt lat="44.3355899" lon="7.827424"><ele>563.0</ele><time>2026-04-26T10:39:40.946Z</time></trkpt><trkpt lat="44.3355664" lon="7.8275063"><ele>563.0</ele><time>2026-04-26T10:39:46.946Z</time></trkpt><trkpt lat="44.3355762" lon="7.8276317"><ele>563.0</ele><time>2026-04-26T10:39:51.946Z</time></trkpt><trkpt lat="44.3355997" lon="7.8277272"><ele>563.0</ele><time>2026-04-26T10:39:52.946Z</time></trkpt><trkpt lat="44.3356035" lon="7.8278659"><ele>563.0</ele><time>2026-04-26T10:39:54.945Z</time></trkpt><trkpt lat="44.3355487" lon="7.8280046"><ele>563.0</ele><time>2026-04-26T10:39:56.946Z</time></trkpt><trkpt lat="44.3355056" lon="7.8280933"><ele>563.6666666666666</ele><time>2026-04-26T10:39:57.946Z</time></trkpt><trkpt lat="44.3354662" lon="7.8281757"><ele>564.3333333333333</ele><time>2026-04-26T10:39:58.946Z</time></trkpt><trkpt lat="44.3354276" lon="7.8282906"><ele>565.0</ele><time>2026-04-26T10:39:59.946Z</time></trkpt><trkpt lat="44.3353749" lon="7.8284302"><ele>565.6666666666666</ele><time>2026-04-26T10:40:01.946Z</time></trkpt><trkpt lat="44.3353432" lon="7.8285385"><ele>566.3333333333334</ele><time>2026-04-26T10:40:02.946Z</time></trkpt><trkpt lat="44.335312" lon="7.8286289"><ele>567.0</ele><time>2026-04-26T10:40:03.946Z</time></trkpt><trkpt lat="44.3352409" lon="7.8287356"><ele>567.0</ele><time>2026-04-26T10:40:04.946Z</time></trkpt><trkpt lat="44.3351726" lon="7.8289132"><ele>567.0</ele><time>2026-04-26T10:40:05.946Z</time></trkpt><trkpt lat="44.3351065" lon="7.8290007"><ele>567.0</ele><time>2026-04-26T10:40:06.946Z</time></trkpt><trkpt lat="44.3350557" lon="7.8291022"><ele>567.0</ele><time>2026-04-26T10:40:07.946Z</time></trkpt><trkpt lat="44.33502" lon="7.8292062"><ele>567.0</ele><time>2026-04-26T10:40:08.945Z</time></trkpt><trkpt lat="44.3349753" lon="7.8293084"><ele>568.3333333333334</ele><time>2026-04-26T10:40:09.946Z</time></trkpt><trkpt lat="44.3349269" lon="7.8294152"><ele>569.6666666666666</ele><time>2026-04-26T10:40:10.945Z</time></trkpt><trkpt lat="44.3348836" lon="7.8295116"><ele>571.0</ele><time>2026-04-26T10:40:11.946Z</time></trkpt><trkpt lat="44.3348513" lon="7.8296097"><ele>572.3333333333333</ele><time>2026-04-26T10:40:12.946Z</time></trkpt><trkpt lat="44.3348221" lon="7.8297135"><ele>573.6666666666666</ele><time>2026-04-26T10:40:13.946Z</time></trkpt><trkpt lat="44.3348205" lon="7.8298508"><ele>575.0</ele><time>2026-04-26T10:40:14.946Z</time></trkpt><trkpt lat="44.3348031" lon="7.8299676"><ele>575.0</ele><time>2026-04-26T10:40:15.946Z</time></trkpt><trkpt lat="44.3347939" lon="7.8300818"><ele>575.0</ele><time>2026-04-26T10:40:16.946Z</time></trkpt><trkpt lat="44.3348012" lon="7.8302002"><ele>575.0</ele><time>2026-04-26T10:40:17.946Z</time></trkpt><trkpt lat="44.3348098" lon="7.8302964"><ele>575.0</ele><time>2026-04-26T10:40:18.946Z</time></trkpt><trkpt lat="44.3348163" lon="7.8304166"><ele>575.0</ele><time>2026-04-26T10:40:19.945Z</time></trkpt><trkpt lat="44.3348201" lon="7.8305551"><ele>575.0</ele><time>2026-04-26T10:40:20.946Z</time></trkpt><trkpt lat="44.3348287" lon="7.8306739"><ele>576.2</ele><time>2026-04-26T10:40:21.946Z</time></trkpt><trkpt lat="44.3348564" lon="7.8307872"><ele>577.4</ele><time>2026-04-26T10:40:22.946Z</time></trkpt><trkpt lat="44.3348812" lon="7.8309072"><ele>578.6</ele><time>2026-04-26T10:40:23.946Z</time></trkpt><trkpt lat="44.3349384" lon="7.8310174"><ele>579.8</ele><time>2026-04-26T10:40:24.946Z</time></trkpt><trkpt lat="44.3349907" lon="7.831128"><ele>581.0</ele><time>2026-04-26T10:40:25.945Z</time></trkpt><trkpt lat="44.3350443" lon="7.8312154"><ele>581.4</ele><time>2026-04-26T10:40:26.946Z</time></trkpt><trkpt lat="44.3350537" lon="7.8313241"><ele>581.8</ele><time>2026-04-26T10:40:27.945Z</time></trkpt><trkpt lat="44.3350743" lon="7.8314242"><ele>582.1999999999999</ele><time>2026-04-26T10:40:28.946Z</time></trkpt><trkpt lat="44.3351519" lon="7.831533"><ele>582.6</ele><time>2026-04-26T10:40:30.945Z</time></trkpt><trkpt lat="44.3352271" lon="7.8316455"><ele>583.0</ele><time>2026-04-26T10:40:32.946Z</time></trkpt><trkpt lat="44.3352793" lon="7.8317266"><ele>584.4</ele><time>2026-04-26T10:40:33.946Z</time></trkpt><trkpt lat="44.3353276" lon="7.8318516"><ele>585.8</ele><time>2026-04-26T10:40:35.946Z</time></trkpt><trkpt lat="44.3353805" lon="7.831958"><ele>587.2</ele><time>2026-04-26T10:40:36.946Z</time></trkpt><trkpt lat="44.3354205" lon="7.8320497"><ele>588.6</ele><time>2026-04-26T10:40:37.945Z</time></trkpt><trkpt lat="44.3354751" lon="7.8321783"><ele>590.0</ele><time>2026-04-26T10:40:38.945Z</time></trkpt><trkpt lat="44.3355151" lon="7.8322708"><ele>592.6</ele><time>2026-04-26T10:40:39.946Z</time></trkpt><trkpt lat="44.3355659" lon="7.8323721"><ele>595.2</ele><time>2026-04-26T10:40:40.946Z</time></trkpt><trkpt lat="44.3356108" lon="7.8324636"><ele>597.8</ele><time>2026-04-26T10:40:41.946Z</time></trkpt><trkpt lat="44.3356568" lon="7.8325942"><ele>600.4</ele><time>2026-04-26T10:40:42.945Z</time></trkpt><trkpt lat="44.3356578" lon="7.8327232"><ele>603.0</ele><time>2026-04-26T10:40:43.946Z</time></trkpt><trkpt lat="44.3356499" lon="7.8328471"><ele>603.0</ele><time>2026-04-26T10:40:44.945Z</time></trkpt><trkpt lat="44.3356465" lon="7.8329528"><ele>603.0</ele><time>2026-04-26T10:40:45.945Z</time></trkpt><trkpt lat="44.3356079" lon="7.8330991"><ele>603.0</ele><time>2026-04-26T10:40:46.946Z</time></trkpt><trkpt lat="44.3356062" lon="7.8332138"><ele>603.0</ele><time>2026-04-26T10:40:47.946Z</time></trkpt><trkpt lat="44.3356275" lon="7.8333686"><ele>603.0</ele><time>2026-04-26T10:40:49.946Z</time></trkpt><trkpt lat="44.3356416" lon="7.8334605"><ele>603.0</ele><time>2026-04-26T10:40:50.946Z</time></trkpt><trkpt lat="44.3356484" lon="7.8336148"><ele>603.75</ele><time>2026-04-26T10:40:52.946Z</time></trkpt><trkpt lat="44.3356288" lon="7.8337491"><ele>604.5</ele><time>2026-04-26T10:40:54.945Z</time></trkpt><trkpt lat="44.3355736" lon="7.8340175"><ele>605.25</ele><time>2026-04-26T10:40:56.946Z</time></trkpt><trkpt lat="44.3355283" lon="7.834126"><ele>606.0</ele><time>2026-04-26T10:40:57.946Z</time></trkpt><trkpt lat="44.335487" lon="7.8342512"><ele>605.8333333333334</ele><time>2026-04-26T10:40:58.946Z</time></trkpt><trkpt lat="44.3354759" lon="7.8343442"><ele>605.6666666666666</ele><time>2026-04-26T10:40:59.946Z</time></trkpt><trkpt lat="44.3354547" lon="7.834445"><ele>605.5</ele><time>2026-04-26T10:41:00.946Z</time></trkpt><trkpt lat="44.3354201" lon="7.8345291"><ele>605.3333333333333</ele><time>2026-04-26T10:41:06.946Z</time></trkpt><trkpt lat="44.3353894" lon="7.8346277"><ele>605.1666666666666</ele><time>2026-04-26T10:41:08.945Z</time></trkpt><trkpt lat="44.3353235" lon="7.8346524"><ele>605.0</ele><time>2026-04-26T10:41:09.946Z</time></trkpt><trkpt lat="44.3352297" lon="7.8347599"><ele>605.0</ele><time>2026-04-26T10:41:11.946Z</time></trkpt><trkpt lat="44.3351932" lon="7.8348451"><ele>605.0</ele><time>2026-04-26T10:41:12.946Z</time></trkpt><trkpt lat="44.3351368" lon="7.8349858"><ele>605.0</ele><time>2026-04-26T10:41:13.945Z</time></trkpt><trkpt lat="44.3350863" lon="7.8351039"><ele>605.0</ele><time>2026-04-26T10:41:14.945Z</time></trkpt><trkpt lat="44.335043" lon="7.8352154"><ele>605.0</ele><time>2026-04-26T10:41:15.946Z</time></trkpt><trkpt lat="44.3350008" lon="7.835309"><ele>607.0</ele><time>2026-04-26T10:41:16.946Z</time></trkpt><trkpt lat="44.3349459" lon="7.835427"><ele>609.0</ele><time>2026-04-26T10:41:17.946Z</time></trkpt><trkpt lat="44.3348994" lon="7.8355547"><ele>611.0</ele><time>2026-04-26T10:41:18.946Z</time></trkpt><trkpt lat="44.3348491" lon="7.8356771"><ele>613.0</ele><time>2026-04-26T10:41:19.946Z</time></trkpt><trkpt lat="44.3348033" lon="7.8358276"><ele>615.0</ele><time>2026-04-26T10:41:20.946Z</time></trkpt><trkpt lat="44.3347537" lon="7.8359248"><ele>616.3333333333334</ele><time>2026-04-26T10:41:21.946Z</time></trkpt><trkpt lat="44.3347031" lon="7.8360161"><ele>617.6666666666666</ele><time>2026-04-26T10:41:22.945Z</time></trkpt><trkpt lat="44.3346549" lon="7.8360962"><ele>619.0</ele><time>2026-04-26T10:41:23.946Z</time></trkpt><trkpt lat="44.3347088" lon="7.8361621"><ele>620.3333333333333</ele><time>2026-04-26T10:41:28.946Z</time></trkpt><trkpt lat="44.3346049" lon="7.8361605"><ele>621.6666666666666</ele><time>2026-04-26T10:41:59.946Z</time></trkpt><trkpt lat="44.3346495" lon="7.8360756"><ele>623.0</ele><time>2026-04-26T10:42:14.945Z</time></trkpt><trkpt lat="44.3347115" lon="7.835998"><ele>623.0</ele><time>2026-04-26T10:42:16.946Z</time></trkpt><trkpt lat="44.3347648" lon="7.8359074"><ele>623.0</ele><time>2026-04-26T10:42:18.945Z</time></trkpt><trkpt lat="44.3348034" lon="7.8358271"><ele>623.0</ele><time>2026-04-26T10:42:21.946Z</time></trkpt><trkpt lat="44.3346955" lon="7.836017"><ele>623.0</ele><time>2026-04-26T10:42:46.946Z</time></trkpt><trkpt lat="44.3346494" lon="7.8360908"><ele>623.0</ele><time>2026-04-26T10:42:47.946Z</time></trkpt><trkpt lat="44.3346549" lon="7.8361881"><ele>623.0</ele><time>2026-04-26T10:42:51.945Z</time></trkpt><trkpt lat="44.3347003" lon="7.8360796"><ele>623.0</ele><time>2026-04-26T10:43:04.946Z</time></trkpt><trkpt lat="44.3347505" lon="7.8359923"><ele>623.0</ele><time>2026-04-26T10:43:07.946Z</time></trkpt><trkpt lat="44.3347702" lon="7.8358959"><ele>623.0</ele><time>2026-04-26T10:43:11.946Z</time></trkpt><trkpt lat="44.3348162" lon="7.8358311"><ele>623.0</ele><time>2026-04-26T10:43:14.946Z</time></trkpt><trkpt lat="44.3348759" lon="7.8357201"><ele>623.0</ele><time>2026-04-26T10:43:17.844Z</time></trkpt><trkpt lat="44.3349224" lon="7.8356085"><ele>621.6666666666666</ele><time>2026-04-26T10:43:19.946Z</time></trkpt><trkpt lat="44.3349603" lon="7.8355162"><ele>620.3333333333333</ele><time>2026-04-26T10:43:21.946Z</time></trkpt><trkpt lat="44.3350158" lon="7.8354432"><ele>619.0</ele><time>2026-04-26T10:43:24.945Z</time></trkpt><trkpt lat="44.3350763" lon="7.835344"><ele>617.6666666666666</ele><time>2026-04-26T10:43:27.946Z</time></trkpt><trkpt lat="44.3351145" lon="7.835239"><ele>616.3333333333334</ele><time>2026-04-26T10:43:29.946Z</time></trkpt><trkpt lat="44.3351506" lon="7.8351505"><ele>615.0</ele><time>2026-04-26T10:43:32.946Z</time></trkpt><trkpt lat="44.335056" lon="7.8352815"><ele>615.0</ele><time>2026-04-26T10:43:46.946Z</time></trkpt><trkpt lat="44.3349683" lon="7.8354234"><ele>615.0</ele><time>2026-04-26T10:43:47.946Z</time></trkpt><trkpt lat="44.3348907" lon="7.8355442"><ele>615.0</ele><time>2026-04-26T10:43:48.946Z</time></trkpt><trkpt lat="44.3348176" lon="7.8356683"><ele>615.0</ele><time>2026-04-26T10:43:49.945Z</time></trkpt><trkpt lat="44.3347692" lon="7.835794"><ele>615.3333333333334</ele><time>2026-04-26T10:43:50.945Z</time></trkpt><trkpt lat="44.3347173" lon="7.8359153"><ele>615.6666666666666</ele><time>2026-04-26T10:43:51.946Z</time></trkpt><trkpt lat="44.3346686" lon="7.8360149"><ele>616.0</ele><time>2026-04-26T10:43:52.945Z</time></trkpt><trkpt lat="44.3346284" lon="7.8360958"><ele>616.3333333333333</ele><time>2026-04-26T10:43:53.946Z</time></trkpt><trkpt lat="44.3346756" lon="7.8361619"><ele>616.6666666666666</ele><time>2026-04-26T10:43:57.946Z</time></trkpt><trkpt lat="44.3347479" lon="7.83615"><ele>617.0</ele><time>2026-04-26T10:43:58.946Z</time></trkpt><trkpt lat="44.3348284" lon="7.8361234"><ele>616.6666666666666</ele><time>2026-04-26T10:43:59.946Z</time></trkpt><trkpt lat="44.3349172" lon="7.8360842"><ele>616.3333333333333</ele><time>2026-04-26T10:44:00.945Z</time></trkpt><trkpt lat="44.3349902" lon="7.8360242"><ele>616.0</ele><time>2026-04-26T10:44:01.946Z</time></trkpt><trkpt lat="44.3350472" lon="7.8359273"><ele>615.6666666666666</ele><time>2026-04-26T10:44:02.946Z</time></trkpt><trkpt lat="44.3351037" lon="7.8358401"><ele>615.3333333333334</ele><time>2026-04-26T10:44:03.946Z</time></trkpt><trkpt lat="44.3351626" lon="7.8357513"><ele>615.0</ele><time>2026-04-26T10:44:04.945Z</time></trkpt><trkpt lat="44.3352274" lon="7.8356501"><ele>615.0</ele><time>2026-04-26T10:44:05.946Z</time></trkpt><trkpt lat="44.3352885" lon="7.8355702"><ele>615.0</ele><time>2026-04-26T10:44:06.946Z</time></trkpt><trkpt lat="44.3353579" lon="7.8355649"><ele>615.0</ele><time>2026-04-26T10:44:08.945Z</time></trkpt><trkpt lat="44.3353212" lon="7.8356587"><ele>615.0</ele><time>2026-04-26T10:44:11.946Z</time></trkpt><trkpt lat="44.33524" lon="7.8357717"><ele>615.0</ele><time>2026-04-26T10:44:12.946Z</time></trkpt><trkpt lat="44.3351957" lon="7.8358654"><ele>615.0</ele><time>2026-04-26T10:44:13.946Z</time></trkpt><trkpt lat="44.3352028" lon="7.8360618"><ele>616.6666666666666</ele><time>2026-04-26T10:44:15.946Z</time></trkpt><trkpt lat="44.3352395" lon="7.8361918"><ele>618.3333333333334</ele><time>2026-04-26T10:44:16.946Z</time></trkpt><trkpt lat="44.3352567" lon="7.8362858"><ele>620.0</ele><time>2026-04-26T10:44:17.946Z</time></trkpt><trkpt lat="44.3352482" lon="7.836384"><ele>621.6666666666667</ele><time>2026-04-26T10:44:22.945Z</time></trkpt><trkpt lat="44.3352037" lon="7.8364737"><ele>623.3333333333334</ele><time>2026-04-26T10:44:25.946Z</time></trkpt><trkpt lat="44.3351761" lon="7.8365871"><ele>625.0</ele><time>2026-04-26T10:44:27.946Z</time></trkpt><trkpt lat="44.3351512" lon="7.8367212"><ele>627.4</ele><time>2026-04-26T10:44:29.946Z</time></trkpt><trkpt lat="44.3351166" lon="7.8369184"><ele>629.8</ele><time>2026-04-26T10:44:31.946Z</time></trkpt><trkpt lat="44.3350864" lon="7.8370503"><ele>632.2</ele><time>2026-04-26T10:44:32.946Z</time></trkpt><trkpt lat="44.3350565" lon="7.8371523"><ele>634.6</ele><time>2026-04-26T10:44:33.945Z</time></trkpt><trkpt lat="44.3350316" lon="7.8372648"><ele>637.0</ele><time>2026-04-26T10:44:34.946Z</time></trkpt><trkpt lat="44.3350505" lon="7.8374291"><ele>637.0</ele><time>2026-04-26T10:44:36.946Z</time></trkpt><trkpt lat="44.3350949" lon="7.8375171"><ele>637.0</ele><time>2026-04-26T10:44:38.946Z</time></trkpt><trkpt lat="44.3351328" lon="7.8375962"><ele>637.0</ele><time>2026-04-26T10:44:54.946Z</time></trkpt><trkpt lat="44.3350832" lon="7.8376559"><ele>637.0</ele><time>2026-04-26T10:45:09.946Z</time></trkpt><trkpt lat="44.3350179" lon="7.837672"><ele>637.0</ele><time>2026-04-26T10:45:13.946Z</time></trkpt><trkpt lat="44.3349443" lon="7.8376846"><ele>637.0</ele><time>2026-04-26T10:45:14.946Z</time></trkpt><trkpt lat="44.3348804" lon="7.8377068"><ele>637.0</ele><time>2026-04-26T10:45:15.945Z</time></trkpt><trkpt lat="44.3348187" lon="7.8377265"><ele>637.8333333333334</ele><time>2026-04-26T10:45:16.946Z</time></trkpt><trkpt lat="44.3346868" lon="7.83774"><ele>638.6666666666667</ele><time>2026-04-26T10:45:18.946Z</time></trkpt><trkpt lat="44.3346055" lon="7.8377555"><ele>639.5</ele><time>2026-04-26T10:45:19.946Z</time></trkpt><trkpt lat="44.3345281" lon="7.8377877"><ele>640.3333333333334</ele><time>2026-04-26T10:45:20.945Z</time></trkpt><trkpt lat="44.3344659" lon="7.837827"><ele>641.1666666666666</ele><time>2026-04-26T10:45:21.946Z</time></trkpt><trkpt lat="44.3344148" lon="7.837883"><ele>642.0</ele><time>2026-04-26T10:45:22.946Z</time></trkpt><trkpt lat="44.3343078" lon="7.8380149"><ele>642.0</ele><time>2026-04-26T10:45:24.946Z</time></trkpt><trkpt lat="44.3342336" lon="7.8380849"><ele>642.0</ele><time>2026-04-26T10:45:25.946Z</time></trkpt><trkpt lat="44.3341504" lon="7.8381317"><ele>642.0</ele><time>2026-04-26T10:45:26.946Z</time></trkpt><trkpt lat="44.3340564" lon="7.8381735"><ele>642.0</ele><time>2026-04-26T10:45:27.945Z</time></trkpt><trkpt lat="44.3339654" lon="7.8382351"><ele>642.0</ele><time>2026-04-26T10:45:28.946Z</time></trkpt><trkpt lat="44.3338873" lon="7.8382939"><ele>644.0</ele><time>2026-04-26T10:45:29.946Z</time></trkpt><trkpt lat="44.3338385" lon="7.8383502"><ele>646.0</ele><time>2026-04-26T10:45:30.946Z</time></trkpt><trkpt lat="44.3337921" lon="7.8384101"><ele>648.0</ele><time>2026-04-26T10:45:31.945Z</time></trkpt><trkpt lat="44.3337447" lon="7.8384784"><ele>650.0</ele><time>2026-04-26T10:45:32.945Z</time></trkpt><trkpt lat="44.3336897" lon="7.838559"><ele>652.0</ele><time>2026-04-26T10:45:33.946Z</time></trkpt><trkpt lat="44.3336297" lon="7.8387239"><ele>654.0</ele><time>2026-04-26T10:45:35.946Z</time></trkpt><trkpt lat="44.3336081" lon="7.8388391"><ele>654.2</ele><time>2026-04-26T10:45:36.946Z</time></trkpt><trkpt lat="44.3335861" lon="7.8389537"><ele>654.4000000000001</ele><time>2026-04-26T10:45:37.946Z</time></trkpt><trkpt lat="44.3335745" lon="7.8391055"><ele>654.6</ele><time>2026-04-26T10:45:38.946Z</time></trkpt><trkpt lat="44.3335897" lon="7.8392365"><ele>654.8</ele><time>2026-04-26T10:45:39.946Z</time></trkpt><trkpt lat="44.3335966" lon="7.8393531"><ele>655.0</ele><time>2026-04-26T10:45:40.946Z</time></trkpt><trkpt lat="44.333646" lon="7.8394623"><ele>655.0</ele><time>2026-04-26T10:45:41.946Z</time></trkpt><trkpt lat="44.3337109" lon="7.8395893"><ele>655.0</ele><time>2026-04-26T10:45:42.946Z</time></trkpt><trkpt lat="44.3337753" lon="7.8397018"><ele>655.0</ele><time>2026-04-26T10:45:43.946Z</time></trkpt><trkpt lat="44.3338266" lon="7.8398039"><ele>655.0</ele><time>2026-04-26T10:45:44.946Z</time></trkpt><trkpt lat="44.3338816" lon="7.8398959"><ele>655.0</ele><time>2026-04-26T10:45:45.945Z</time></trkpt><trkpt lat="44.3339434" lon="7.8399819"><ele>653.4</ele><time>2026-04-26T10:45:46.946Z</time></trkpt><trkpt lat="44.3340291" lon="7.8400433"><ele>651.8</ele><time>2026-04-26T10:45:47.946Z</time></trkpt><trkpt lat="44.3341441" lon="7.8400782"><ele>650.2</ele><time>2026-04-26T10:45:48.946Z</time></trkpt><trkpt lat="44.3342542" lon="7.8401179"><ele>648.6</ele><time>2026-04-26T10:45:49.946Z</time></trkpt><trkpt lat="44.3343568" lon="7.84014"><ele>647.0</ele><time>2026-04-26T10:45:50.946Z</time></trkpt><trkpt lat="44.3344508" lon="7.840143"><ele>646.5</ele><time>2026-04-26T10:45:51.946Z</time></trkpt><trkpt lat="44.3345366" lon="7.840142"><ele>646.0</ele><time>2026-04-26T10:45:52.946Z</time></trkpt><trkpt lat="44.3345993" lon="7.840155"><ele>645.5</ele><time>2026-04-26T10:45:53.946Z</time></trkpt><trkpt lat="44.3346626" lon="7.8401623"><ele>645.0</ele><time>2026-04-26T10:45:56.945Z</time></trkpt><trkpt lat="44.3347438" lon="7.8402151"><ele>644.5</ele><time>2026-04-26T10:46:00.946Z</time></trkpt><trkpt lat="44.3346555" lon="7.8401922"><ele>644.0</ele><time>2026-04-26T10:46:09.946Z</time></trkpt><trkpt lat="44.3345389" lon="7.8401893"><ele>643.8000000000001</ele><time>2026-04-26T10:46:11.946Z</time></trkpt><trkpt lat="44.3344621" lon="7.8401813"><ele>643.6</ele><time>2026-04-26T10:46:12.946Z</time></trkpt><trkpt lat="44.3343754" lon="7.8401713"><ele>643.4</ele><time>2026-04-26T10:46:13.946Z</time></trkpt><trkpt lat="44.3342795" lon="7.8401575"><ele>643.2</ele><time>2026-04-26T10:46:14.945Z</time></trkpt><trkpt lat="44.3341772" lon="7.8401273"><ele>643.0</ele><time>2026-04-26T10:46:15.946Z</time></trkpt><trkpt lat="44.3340683" lon="7.8400914"><ele>643.8</ele><time>2026-04-26T10:46:16.946Z</time></trkpt><trkpt lat="44.3339756" lon="7.8400622"><ele>644.5999999999999</ele><time>2026-04-26T10:46:17.946Z</time></trkpt><trkpt lat="44.3339122" lon="7.8400188"><ele>645.4000000000001</ele><time>2026-04-26T10:46:18.946Z</time></trkpt><trkpt lat="44.33383" lon="7.8398629"><ele>646.2</ele><time>2026-04-26T10:46:20.946Z</time></trkpt><trkpt lat="44.3337821" lon="7.8397575"><ele>647.0</ele><time>2026-04-26T10:46:21.946Z</time></trkpt><trkpt lat="44.3337245" lon="7.8396561"><ele>648.6</ele><time>2026-04-26T10:46:22.946Z</time></trkpt><trkpt lat="44.3336554" lon="7.8395493"><ele>650.2</ele><time>2026-04-26T10:46:23.946Z</time></trkpt><trkpt lat="44.3335861" lon="7.8394682"><ele>651.8</ele><time>2026-04-26T10:46:24.946Z</time></trkpt><trkpt lat="44.333529" lon="7.8393493"><ele>653.4</ele><time>2026-04-26T10:46:26.946Z</time></trkpt><trkpt lat="44.3335109" lon="7.83924"><ele>655.0</ele><time>2026-04-26T10:46:27.946Z</time></trkpt><trkpt lat="44.3335089" lon="7.8391265"><ele>654.8</ele><time>2026-04-26T10:46:28.946Z</time></trkpt><trkpt lat="44.3335154" lon="7.8389737"><ele>654.6</ele><time>2026-04-26T10:46:29.945Z</time></trkpt><trkpt lat="44.3335324" lon="7.8388514"><ele>654.4000000000001</ele><time>2026-04-26T10:46:30.946Z</time></trkpt><trkpt lat="44.3335456" lon="7.8387161"><ele>654.2</ele><time>2026-04-26T10:46:31.946Z</time></trkpt><trkpt lat="44.3335679" lon="7.8386078"><ele>654.0</ele><time>2026-04-26T10:46:32.946Z</time></trkpt><trkpt lat="44.3335636" lon="7.8384672"><ele>654.0</ele><time>2026-04-26T10:46:34.946Z</time></trkpt><trkpt lat="44.333524" lon="7.8383929"><ele>654.0</ele><time>2026-04-26T10:46:36.946Z</time></trkpt><trkpt lat="44.3334535" lon="7.8383413"><ele>654.0</ele><time>2026-04-26T10:46:38.945Z</time></trkpt><trkpt lat="44.3333596" lon="7.8382761"><ele>654.0</ele><time>2026-04-26T10:46:40.946Z</time></trkpt><trkpt lat="44.3333008" lon="7.8382436"><ele>654.0</ele><time>2026-04-26T10:46:41.946Z</time></trkpt><trkpt lat="44.3331892" lon="7.8381586"><ele>654.0</ele><time>2026-04-26T10:46:43.946Z</time></trkpt><trkpt lat="44.3331026" lon="7.8381327"><ele>658.2</ele><time>2026-04-26T10:46:45.946Z</time></trkpt><trkpt lat="44.3330288" lon="7.8381277"><ele>662.4000000000001</ele><time>2026-04-26T10:46:46.946Z</time></trkpt><trkpt lat="44.3329337" lon="7.8381297"><ele>666.6</ele><time>2026-04-26T10:46:48.945Z</time></trkpt><trkpt lat="44.3328289" lon="7.8380573"><ele>670.8</ele><time>2026-04-26T10:46:50.946Z</time></trkpt><trkpt lat="44.3327779" lon="7.838004"><ele>675.0</ele><time>2026-04-26T10:46:51.946Z</time></trkpt><trkpt lat="44.3326836" lon="7.8379016"><ele>675.0</ele><time>2026-04-26T10:46:53.946Z</time></trkpt><trkpt lat="44.3326005" lon="7.8378238"><ele>675.0</ele><time>2026-04-26T10:46:55.946Z</time></trkpt><trkpt lat="44.3325395" lon="7.8377656"><ele>675.0</ele><time>2026-04-26T10:46:57.946Z</time></trkpt><trkpt lat="44.332511" lon="7.8376265"><ele>675.0</ele><time>2026-04-26T10:46:59.946Z</time></trkpt><trkpt lat="44.3325131" lon="7.8374714"><ele>675.0</ele><time>2026-04-26T10:47:01.946Z</time></trkpt><trkpt lat="44.3325108" lon="7.8373395"><ele>674.0</ele><time>2026-04-26T10:47:03.945Z</time></trkpt><trkpt lat="44.3324484" lon="7.8372162"><ele>673.0</ele><time>2026-04-26T10:47:05.946Z</time></trkpt><trkpt lat="44.332422" lon="7.8370624"><ele>672.0</ele><time>2026-04-26T10:47:07.946Z</time></trkpt><trkpt lat="44.3323996" lon="7.8369439"><ele>671.0</ele><time>2026-04-26T10:47:08.945Z</time></trkpt><trkpt lat="44.3324113" lon="7.8368058"><ele>670.0</ele><time>2026-04-26T10:47:09.946Z</time></trkpt><trkpt lat="44.3324581" lon="7.8367107"><ele>670.0</ele><time>2026-04-26T10:47:10.946Z</time></trkpt><trkpt lat="44.3325042" lon="7.8366137"><ele>670.0</ele><time>2026-04-26T10:47:11.945Z</time></trkpt><trkpt lat="44.332546" lon="7.836505"><ele>670.0</ele><time>2026-04-26T10:47:12.946Z</time></trkpt><trkpt lat="44.332594" lon="7.836408"><ele>670.0</ele><time>2026-04-26T10:47:13.945Z</time></trkpt><trkpt lat="44.332641" lon="7.8363283"><ele>670.0</ele><time>2026-04-26T10:47:14.946Z</time></trkpt><trkpt lat="44.3326467" lon="7.8361807"><ele>670.0</ele><time>2026-04-26T10:47:16.946Z</time></trkpt><trkpt lat="44.3325452" lon="7.8360578"><ele>670.0</ele><time>2026-04-26T10:47:18.946Z</time></trkpt><trkpt lat="44.3324763" lon="7.8359859"><ele>670.0</ele><time>2026-04-26T10:47:19.946Z</time></trkpt><trkpt lat="44.3324097" lon="7.8359355"><ele>670.0</ele><time>2026-04-26T10:47:20.945Z</time></trkpt><trkpt lat="44.332337" lon="7.8358851"><ele>670.0</ele><time>2026-04-26T10:47:21.946Z</time></trkpt><trkpt lat="44.3322599" lon="7.8358129"><ele>670.0</ele><time>2026-04-26T10:47:22.946Z</time></trkpt><trkpt lat="44.3322151" lon="7.8357139"><ele>670.0</ele><time>2026-04-26T10:47:23.946Z</time></trkpt><trkpt lat="44.3321779" lon="7.8356148"><ele>668.1666666666667</ele><time>2026-04-26T10:47:24.946Z</time></trkpt><trkpt lat="44.3321462" lon="7.8354924"><ele>666.3333333333334</ele><time>2026-04-26T10:47:26.946Z</time></trkpt><trkpt lat="44.3321733" lon="7.8354073"><ele>664.5</ele><time>2026-04-26T10:47:29.945Z</time></trkpt><trkpt lat="44.3321737" lon="7.8352971"><ele>662.6666666666666</ele><time>2026-04-26T10:47:46.946Z</time></trkpt><trkpt lat="44.3321501" lon="7.8351498"><ele>660.8333333333333</ele><time>2026-04-26T10:47:48.946Z</time></trkpt><trkpt lat="44.3321377" lon="7.8350382"><ele>659.0</ele><time>2026-04-26T10:47:49.946Z</time></trkpt><trkpt lat="44.3321235" lon="7.834929"><ele>658.6666666666666</ele><time>2026-04-26T10:47:50.946Z</time></trkpt><trkpt lat="44.3321231" lon="7.8348097"><ele>658.3333333333333</ele><time>2026-04-26T10:47:51.945Z</time></trkpt><trkpt lat="44.3321132" lon="7.8347056"><ele>658.0</ele><time>2026-04-26T10:47:52.946Z</time></trkpt><trkpt lat="44.3321077" lon="7.8346067"><ele>657.6666666666666</ele><time>2026-04-26T10:47:53.946Z</time></trkpt><trkpt lat="44.3320873" lon="7.8344705"><ele>657.3333333333334</ele><time>2026-04-26T10:47:55.946Z</time></trkpt><trkpt lat="44.3320609" lon="7.8343578"><ele>657.0</ele><time>2026-04-26T10:48:07.946Z</time></trkpt><trkpt lat="44.3320589" lon="7.8342543"><ele>657.0</ele><time>2026-04-26T10:48:10.945Z</time></trkpt><trkpt lat="44.3320746" lon="7.834169"><ele>657.0</ele><time>2026-04-26T10:48:14.945Z</time></trkpt><trkpt lat="44.332098" lon="7.8340684"><ele>657.0</ele><time>2026-04-26T10:48:19.946Z</time></trkpt><trkpt lat="44.3321584" lon="7.8340077"><ele>657.0</ele><time>2026-04-26T10:48:22.946Z</time></trkpt><trkpt lat="44.3322079" lon="7.8339363"><ele>657.0</ele><time>2026-04-26T10:48:25.946Z</time></trkpt><trkpt lat="44.3322488" lon="7.8338349"><ele>657.0</ele><time>2026-04-26T10:48:33.946Z</time></trkpt><trkpt lat="44.3323015" lon="7.8337861"><ele>657.0</ele><time>2026-04-26T10:48:35.946Z</time></trkpt><trkpt lat="44.3322243" lon="7.8338463"><ele>657.0</ele><time>2026-04-26T10:48:44.945Z</time></trkpt><trkpt lat="44.3322018" lon="7.8339339"><ele>657.0</ele><time>2026-04-26T10:48:45.946Z</time></trkpt><trkpt lat="44.3321602" lon="7.8340723"><ele>657.0</ele><time>2026-04-26T10:48:47.946Z</time></trkpt><trkpt lat="44.3321074" lon="7.8341308"><ele>657.0</ele><time>2026-04-26T10:48:48.946Z</time></trkpt><trkpt lat="44.3320607" lon="7.834208"><ele>657.0</ele><time>2026-04-26T10:48:49.946Z</time></trkpt><trkpt lat="44.3320581" lon="7.8343291"><ele>657.0</ele><time>2026-04-26T10:48:51.946Z</time></trkpt><trkpt lat="44.3320643" lon="7.8344517"><ele>656.6</ele><time>2026-04-26T10:48:53.945Z</time></trkpt><trkpt lat="44.332074" lon="7.8346058"><ele>656.2</ele><time>2026-04-26T10:48:55.946Z</time></trkpt><trkpt lat="44.3320798" lon="7.8347024"><ele>655.8</ele><time>2026-04-26T10:48:56.946Z</time></trkpt><trkpt lat="44.3320867" lon="7.8348886"><ele>655.4</ele><time>2026-04-26T10:48:58.946Z</time></trkpt><trkpt lat="44.3321166" lon="7.8349993"><ele>655.0</ele><time>2026-04-26T10:48:59.946Z</time></trkpt><trkpt lat="44.3321385" lon="7.8350974"><ele>655.8</ele><time>2026-04-26T10:49:00.946Z</time></trkpt><trkpt lat="44.3321507" lon="7.8351967"><ele>656.6</ele><time>2026-04-26T10:49:01.946Z</time></trkpt><trkpt lat="44.3321941" lon="7.8352835"><ele>657.4000000000001</ele><time>2026-04-26T10:49:03.946Z</time></trkpt><trkpt lat="44.3322342" lon="7.8351718"><ele>658.2</ele><time>2026-04-26T10:49:14.946Z</time></trkpt><trkpt lat="44.3322773" lon="7.8350214"><ele>659.0</ele><time>2026-04-26T10:49:16.946Z</time></trkpt><trkpt lat="44.3323577" lon="7.834905"><ele>660.8333333333333</ele><time>2026-04-26T10:49:18.945Z</time></trkpt><trkpt lat="44.3324234" lon="7.8347658"><ele>662.6666666666666</ele><time>2026-04-26T10:49:20.946Z</time></trkpt><trkpt lat="44.3324842" lon="7.8346373"><ele>664.5</ele><time>2026-04-26T10:49:22.946Z</time></trkpt><trkpt lat="44.3325319" lon="7.8345702"><ele>666.3333333333334</ele><time>2026-04-26T10:49:24.945Z</time></trkpt><trkpt lat="44.3325559" lon="7.8344774"><ele>668.1666666666667</ele><time>2026-04-26T10:49:27.946Z</time></trkpt><trkpt lat="44.3325268" lon="7.8345679"><ele>670.0</ele><time>2026-04-26T10:49:37.946Z</time></trkpt><trkpt lat="44.3324712" lon="7.8346486"><ele>669.9999999999999</ele><time>2026-04-26T10:49:40.946Z</time></trkpt><trkpt lat="44.332432" lon="7.8347332"><ele>670.0</ele><time>2026-04-26T10:49:43.945Z</time></trkpt><trkpt lat="44.3323999" lon="7.8348375"><ele>670.0</ele><time>2026-04-26T10:49:46.946Z</time></trkpt><trkpt lat="44.3323621" lon="7.8349092"><ele>670.0</ele><time>2026-04-26T10:49:48.945Z</time></trkpt><trkpt lat="44.3323135" lon="7.8349778"><ele>670.0</ele><time>2026-04-26T10:49:50.946Z</time></trkpt><trkpt lat="44.3322654" lon="7.8350717"><ele>669.9999999999999</ele><time>2026-04-26T10:49:52.945Z</time></trkpt><trkpt lat="44.3322262" lon="7.8351637"><ele>670.0</ele><time>2026-04-26T10:49:55.946Z</time></trkpt><trkpt lat="44.3321664" lon="7.8350827"><ele>667.5</ele><time>2026-04-26T10:49:59.945Z</time></trkpt><trkpt lat="44.3321288" lon="7.8349413"><ele>665.0</ele><time>2026-04-26T10:50:02.946Z</time></trkpt><trkpt lat="44.3321096" lon="7.8348141"><ele>662.5</ele><time>2026-04-26T10:50:04.946Z</time></trkpt><trkpt lat="44.3321004" lon="7.8346867"><ele>660.0</ele><time>2026-04-26T10:50:06.946Z</time></trkpt><trkpt lat="44.3321015" lon="7.8345962"><ele>657.5</ele><time>2026-04-26T10:50:08.946Z</time></trkpt><trkpt lat="44.3320765" lon="7.8344933"><ele>655.0</ele><time>2026-04-26T10:50:11.946Z</time></trkpt><trkpt lat="44.3320096" lon="7.8344955"><ele>655.0</ele><time>2026-04-26T10:50:27.946Z</time></trkpt><trkpt lat="44.3319489" lon="7.8345491"><ele>655.0</ele><time>2026-04-26T10:50:41.945Z</time></trkpt><trkpt lat="44.3319144" lon="7.8346371"><ele>655.0</ele><time>2026-04-26T10:50:46.946Z</time></trkpt><trkpt lat="44.3318907" lon="7.8347434"><ele>655.0</ele><time>2026-04-26T10:50:50.946Z</time></trkpt><trkpt lat="44.3318514" lon="7.834823"><ele>655.0</ele><time>2026-04-26T10:50:54.946Z</time></trkpt><trkpt lat="44.3317965" lon="7.8348785"><ele>655.0</ele><time>2026-04-26T10:51:05.945Z</time></trkpt><trkpt lat="44.331729" lon="7.8349438"><ele>655.0</ele><time>2026-04-26T10:51:08.945Z</time></trkpt><trkpt lat="44.3316723" lon="7.8349846"><ele>655.0</ele><time>2026-04-26T10:51:10.946Z</time></trkpt><trkpt lat="44.3316042" lon="7.8350322"><ele>655.0</ele><time>2026-04-26T10:51:12.945Z</time></trkpt><trkpt lat="44.3315398" lon="7.835084"><ele>655.0</ele><time>2026-04-26T10:51:14.946Z</time></trkpt><trkpt lat="44.3314855" lon="7.8351464"><ele>655.0</ele><time>2026-04-26T10:52:02.946Z</time></trkpt><trkpt lat="44.3315811" lon="7.8350466"><ele>655.0</ele><time>2026-04-26T10:52:35.946Z</time></trkpt><trkpt lat="44.3316614" lon="7.8349869"><ele>655.0</ele><time>2026-04-26T10:52:37.946Z</time></trkpt><trkpt lat="44.3317269" lon="7.8349462"><ele>655.0</ele><time>2026-04-26T10:52:39.946Z</time></trkpt><trkpt lat="44.3317853" lon="7.8348889"><ele>655.0</ele><time>2026-04-26T10:52:41.945Z</time></trkpt><trkpt lat="44.3318365" lon="7.8348219"><ele>655.0</ele><time>2026-04-26T10:52:43.946Z</time></trkpt><trkpt lat="44.3318724" lon="7.8347388"><ele>655.0</ele><time>2026-04-26T10:52:45.946Z</time></trkpt><trkpt lat="44.3318998" lon="7.8346245"><ele>655.0</ele><time>2026-04-26T10:52:47.946Z</time></trkpt><trkpt lat="44.3319481" lon="7.8345421"><ele>655.0</ele><time>2026-04-26T10:52:49.946Z</time></trkpt><trkpt lat="44.332015" lon="7.8345221"><ele>655.0</ele><time>2026-04-26T10:52:51.946Z</time></trkpt><trkpt lat="44.3320676" lon="7.8346515"><ele>655.0</ele><time>2026-04-26T10:52:54.946Z</time></trkpt><trkpt lat="44.3320712" lon="7.8347422"><ele>655.0</ele><time>2026-04-26T10:52:55.946Z</time></trkpt><trkpt lat="44.332079" lon="7.8348386"><ele>655.0</ele><time>2026-04-26T10:52:56.946Z</time></trkpt><trkpt lat="44.3320814" lon="7.8349468"><ele>655.0</ele><time>2026-04-26T10:52:57.946Z</time></trkpt><trkpt lat="44.3321063" lon="7.8350606"><ele>655.0</ele><time>2026-04-26T10:52:58.945Z</time></trkpt><trkpt lat="44.3321273" lon="7.8351768"><ele>655.0</ele><time>2026-04-26T10:52:59.946Z</time></trkpt><trkpt lat="44.332148" lon="7.8352707"><ele>655.8</ele><time>2026-04-26T10:53:00.946Z</time></trkpt><trkpt lat="44.3321755" lon="7.8353567"><ele>656.6</ele><time>2026-04-26T10:53:01.945Z</time></trkpt><trkpt lat="44.3322011" lon="7.8354761"><ele>657.4000000000001</ele><time>2026-04-26T10:53:03.945Z</time></trkpt><trkpt lat="44.3322326" lon="7.8356219"><ele>658.2</ele><time>2026-04-26T10:53:06.946Z</time></trkpt><trkpt lat="44.332319" lon="7.8357455"><ele>659.0</ele><time>2026-04-26T10:53:08.946Z</time></trkpt><trkpt lat="44.3323596" lon="7.8358147"><ele>661.0</ele><time>2026-04-26T10:53:09.946Z</time></trkpt><trkpt lat="44.3324233" lon="7.8358698"><ele>663.0</ele><time>2026-04-26T10:53:10.946Z</time></trkpt><trkpt lat="44.3325063" lon="7.835997"><ele>665.0</ele><time>2026-04-26T10:53:12.945Z</time></trkpt><trkpt lat="44.3325549" lon="7.8360533"><ele>667.0</ele><time>2026-04-26T10:53:13.946Z</time></trkpt><trkpt lat="44.3326298" lon="7.8361575"><ele>669.0</ele><time>2026-04-26T10:53:15.946Z</time></trkpt><trkpt lat="44.3326772" lon="7.836288"><ele>669.2</ele><time>2026-04-26T10:53:17.946Z</time></trkpt><trkpt lat="44.3326873" lon="7.8364006"><ele>669.4000000000001</ele><time>2026-04-26T10:53:19.946Z</time></trkpt><trkpt lat="44.3325887" lon="7.8365402"><ele>669.6</ele><time>2026-04-26T10:53:21.945Z</time></trkpt><trkpt lat="44.3325358" lon="7.8366517"><ele>669.8</ele><time>2026-04-26T10:53:23.946Z</time></trkpt><trkpt lat="44.3324756" lon="7.8367259"><ele>670.0</ele><time>2026-04-26T10:53:24.946Z</time></trkpt><trkpt lat="44.3324299" lon="7.8368335"><ele>669.6</ele><time>2026-04-26T10:53:25.946Z</time></trkpt><trkpt lat="44.3324346" lon="7.8369304"><ele>669.2</ele><time>2026-04-26T10:53:26.946Z</time></trkpt><trkpt lat="44.3324656" lon="7.8370898"><ele>668.8</ele><time>2026-04-26T10:53:28.946Z</time></trkpt><trkpt lat="44.3324899" lon="7.8371819"><ele>668.4</ele><time>2026-04-26T10:53:29.946Z</time></trkpt><trkpt lat="44.3324799" lon="7.837324"><ele>668.0</ele><time>2026-04-26T10:53:31.946Z</time></trkpt><trkpt lat="44.3324693" lon="7.8374732"><ele>668.0</ele><time>2026-04-26T10:53:33.946Z</time></trkpt><trkpt lat="44.3324931" lon="7.8375759"><ele>668.0</ele><time>2026-04-26T10:53:35.946Z</time></trkpt><trkpt lat="44.3325374" lon="7.8376962"><ele>668.0</ele><time>2026-04-26T10:53:37.945Z</time></trkpt><trkpt lat="44.3326472" lon="7.8377944"><ele>668.0</ele><time>2026-04-26T10:53:40.946Z</time></trkpt><trkpt lat="44.3326859" lon="7.8378922"><ele>668.0</ele><time>2026-04-26T10:53:41.946Z</time></trkpt><trkpt lat="44.3327564" lon="7.8379723"><ele>669.1666666666666</ele><time>2026-04-26T10:53:43.946Z</time></trkpt><trkpt lat="44.3328425" lon="7.8380477"><ele>670.3333333333333</ele><time>2026-04-26T10:53:45.945Z</time></trkpt><trkpt lat="44.3328945" lon="7.8380982"><ele>671.5</ele><time>2026-04-26T10:53:46.946Z</time></trkpt><trkpt lat="44.33302" lon="7.8381215"><ele>672.6666666666666</ele><time>2026-04-26T10:53:48.946Z</time></trkpt><trkpt lat="44.3330916" lon="7.8381356"><ele>673.8333333333334</ele><time>2026-04-26T10:53:49.946Z</time></trkpt><trkpt lat="44.3331569" lon="7.8381543"><ele>675.0</ele><time>2026-04-26T10:53:50.946Z</time></trkpt><trkpt lat="44.333221" lon="7.838214"><ele>671.8</ele><time>2026-04-26T10:53:51.945Z</time></trkpt><trkpt lat="44.3332935" lon="7.838273"><ele>668.6</ele><time>2026-04-26T10:53:52.945Z</time></trkpt><trkpt lat="44.3333831" lon="7.8383735"><ele>665.4000000000001</ele><time>2026-04-26T10:53:53.946Z</time></trkpt><trkpt lat="44.333491" lon="7.8384493"><ele>662.2</ele><time>2026-04-26T10:53:55.946Z</time></trkpt><trkpt lat="44.3335339" lon="7.8385502"><ele>659.0</ele><time>2026-04-26T10:53:57.946Z</time></trkpt><trkpt lat="44.333567" lon="7.8386312"><ele>659.0</ele><time>2026-04-26T10:54:00.945Z</time></trkpt><trkpt lat="44.333566" lon="7.8387293"><ele>659.0</ele><time>2026-04-26T10:54:03.946Z</time></trkpt><trkpt lat="44.3335712" lon="7.8388279"><ele>659.0</ele><time>2026-04-26T10:54:05.945Z</time></trkpt><trkpt lat="44.3335508" lon="7.8389583"><ele>659.0</ele><time>2026-04-26T10:54:06.946Z</time></trkpt><trkpt lat="44.3335515" lon="7.8390883"><ele>659.0</ele><time>2026-04-26T10:54:07.946Z</time></trkpt><trkpt lat="44.3335282" lon="7.839213"><ele>659.0</ele><time>2026-04-26T10:54:08.946Z</time></trkpt><trkpt lat="44.3335974" lon="7.8393897"><ele>658.2</ele><time>2026-04-26T10:54:10.946Z</time></trkpt><trkpt lat="44.3336489" lon="7.8394758"><ele>657.4000000000001</ele><time>2026-04-26T10:54:11.945Z</time></trkpt><trkpt lat="44.3337048" lon="7.8395895"><ele>656.6</ele><time>2026-04-26T10:54:12.946Z</time></trkpt><trkpt lat="44.3337711" lon="7.8396782"><ele>655.8</ele><time>2026-04-26T10:54:13.946Z</time></trkpt><trkpt lat="44.3338073" lon="7.8398193"><ele>655.0</ele><time>2026-04-26T10:54:14.946Z</time></trkpt><trkpt lat="44.3338751" lon="7.8399197"><ele>653.4</ele><time>2026-04-26T10:54:15.945Z</time></trkpt><trkpt lat="44.3339414" lon="7.8400017"><ele>651.8</ele><time>2026-04-26T10:54:16.946Z</time></trkpt><trkpt lat="44.3340184" lon="7.8400429"><ele>650.2</ele><time>2026-04-26T10:54:17.946Z</time></trkpt><trkpt lat="44.3341234" lon="7.8400971"><ele>648.6</ele><time>2026-04-26T10:54:18.946Z</time></trkpt><trkpt lat="44.3342142" lon="7.840127"><ele>647.0</ele><time>2026-04-26T10:54:19.946Z</time></trkpt><trkpt lat="44.3343062" lon="7.8401468"><ele>646.4000000000001</ele><time>2026-04-26T10:54:20.946Z</time></trkpt><trkpt lat="44.3344116" lon="7.8401614"><ele>645.8000000000001</ele><time>2026-04-26T10:54:21.945Z</time></trkpt><trkpt lat="44.3345205" lon="7.8401796"><ele>645.2</ele><time>2026-04-26T10:54:22.945Z</time></trkpt><trkpt lat="44.3346148" lon="7.8401975"><ele>644.6</ele><time>2026-04-26T10:54:23.946Z</time></trkpt><trkpt lat="44.3346871" lon="7.840197"><ele>644.0</ele><time>2026-04-26T10:54:24.945Z</time></trkpt><trkpt lat="44.3347661" lon="7.8402311"><ele>644.0</ele><time>2026-04-26T10:54:26.946Z</time></trkpt><trkpt lat="44.3348416" lon="7.8402718"><ele>644.0</ele><time>2026-04-26T10:54:34.945Z</time></trkpt><trkpt lat="44.3349076" lon="7.8403055"><ele>644.0</ele><time>2026-04-26T10:54:35.946Z</time></trkpt><trkpt lat="44.3349844" lon="7.8403329"><ele>644.0</ele><time>2026-04-26T10:54:36.946Z</time></trkpt><trkpt lat="44.3350609" lon="7.8403707"><ele>644.0</ele><time>2026-04-26T10:54:37.946Z</time></trkpt><trkpt lat="44.3351372" lon="7.8404193"><ele>644.0</ele><time>2026-04-26T10:54:38.945Z</time></trkpt><trkpt lat="44.3352203" lon="7.8404922"><ele>644.0</ele><time>2026-04-26T10:54:39.946Z</time></trkpt><trkpt lat="44.3352962" lon="7.8405625"><ele>644.0</ele><time>2026-04-26T10:54:40.945Z</time></trkpt><trkpt lat="44.3353803" lon="7.8406363"><ele>644.0</ele><time>2026-04-26T10:54:41.946Z</time></trkpt><trkpt lat="44.3354535" lon="7.8406958"><ele>644.0</ele><time>2026-04-26T10:54:42.946Z</time></trkpt><trkpt lat="44.3355107" lon="7.8407587"><ele>644.0</ele><time>2026-04-26T10:54:43.945Z</time></trkpt><trkpt lat="44.335548" lon="7.8408303"><ele>644.0</ele><time>2026-04-26T10:54:45.946Z</time></trkpt><trkpt lat="44.3354795" lon="7.8409058"><ele>644.0</ele><time>2026-04-26T10:54:50.946Z</time></trkpt><trkpt lat="44.3354111" lon="7.840967"><ele>644.0</ele><time>2026-04-26T10:54:54.946Z</time></trkpt><trkpt lat="44.3354786" lon="7.8409546"><ele>644.0</ele><time>2026-04-26T10:55:03.946Z</time></trkpt><trkpt lat="44.3355197" lon="7.8408702"><ele>644.0</ele><time>2026-04-26T10:55:05.946Z</time></trkpt><trkpt lat="44.335475" lon="7.8407239"><ele>644.0</ele><time>2026-04-26T10:55:16.945Z</time></trkpt><trkpt lat="44.335418" lon="7.8406648"><ele>644.0</ele><time>2026-04-26T10:55:17.945Z</time></trkpt><trkpt lat="44.3353487" lon="7.8406026"><ele>644.0</ele><time>2026-04-26T10:55:18.946Z</time></trkpt><trkpt lat="44.3352732" lon="7.8405291"><ele>644.0</ele><time>2026-04-26T10:55:19.946Z</time></trkpt><trkpt lat="44.3351808" lon="7.8404608"><ele>644.0</ele><time>2026-04-26T10:55:20.946Z</time></trkpt><trkpt lat="44.3350809" lon="7.8403959"><ele>644.0</ele><time>2026-04-26T10:55:21.946Z</time></trkpt><trkpt lat="44.3349837" lon="7.8403453"><ele>644.0</ele><time>2026-04-26T10:55:22.946Z</time></trkpt><trkpt lat="44.3348917" lon="7.8402977"><ele>644.0</ele><time>2026-04-26T10:55:23.946Z</time></trkpt><trkpt lat="44.3347911" lon="7.8402691"><ele>644.0</ele><time>2026-04-26T10:55:24.946Z</time></trkpt><trkpt lat="44.334693" lon="7.8402473"><ele>644.0</ele><time>2026-04-26T10:55:25.946Z</time></trkpt><trkpt lat="44.3345925" lon="7.8402492"><ele>644.0</ele><time>2026-04-26T10:55:26.946Z</time></trkpt><trkpt lat="44.3344807" lon="7.8402404"><ele>644.0</ele><time>2026-04-26T10:55:27.946Z</time></trkpt><trkpt lat="44.3343729" lon="7.840234"><ele>643.75</ele><time>2026-04-26T10:55:28.946Z</time></trkpt><trkpt lat="44.334258" lon="7.8402201"><ele>643.5</ele><time>2026-04-26T10:55:29.946Z</time></trkpt><trkpt lat="44.3341361" lon="7.8401931"><ele>643.25</ele><time>2026-04-26T10:55:30.946Z</time></trkpt><trkpt lat="44.3340114" lon="7.8401581"><ele>643.0</ele><time>2026-04-26T10:55:31.946Z</time></trkpt><trkpt lat="44.3338936" lon="7.8401216"><ele>646.0</ele><time>2026-04-26T10:55:32.945Z</time></trkpt><trkpt lat="44.3337691" lon="7.8400636"><ele>649.0</ele><time>2026-04-26T10:55:33.946Z</time></trkpt><trkpt lat="44.3336486" lon="7.8399822"><ele>652.0</ele><time>2026-04-26T10:55:34.946Z</time></trkpt><trkpt lat="44.333533" lon="7.8398896"><ele>655.0</ele><time>2026-04-26T10:55:35.946Z</time></trkpt><trkpt lat="44.3334244" lon="7.8397766"><ele>655.0</ele><time>2026-04-26T10:55:36.946Z</time></trkpt><trkpt lat="44.333303" lon="7.8396729"><ele>655.0</ele><time>2026-04-26T10:55:37.946Z</time></trkpt><trkpt lat="44.3331918" lon="7.8395668"><ele>655.0</ele><time>2026-04-26T10:55:38.946Z</time></trkpt><trkpt lat="44.3330902" lon="7.8394679"><ele>655.0</ele><time>2026-04-26T10:55:39.945Z</time></trkpt><trkpt lat="44.3329676" lon="7.8393848"><ele>658.5</ele><time>2026-04-26T10:55:40.946Z</time></trkpt><trkpt lat="44.3328504" lon="7.8392995"><ele>662.0</ele><time>2026-04-26T10:55:41.946Z</time></trkpt><trkpt lat="44.3327225" lon="7.8392365"><ele>665.5</ele><time>2026-04-26T10:55:42.945Z</time></trkpt><trkpt lat="44.3326033" lon="7.839184"><ele>669.0</ele><time>2026-04-26T10:55:43.946Z</time></trkpt><trkpt lat="44.3324668" lon="7.8391563"><ele>669.0</ele><time>2026-04-26T10:55:44.946Z</time></trkpt><trkpt lat="44.332332" lon="7.8391449"><ele>669.0</ele><time>2026-04-26T10:55:45.946Z</time></trkpt><trkpt lat="44.3321899" lon="7.8391977"><ele>669.0</ele><time>2026-04-26T10:55:46.946Z</time></trkpt><trkpt lat="44.332062" lon="7.8392272"><ele>669.0</ele><time>2026-04-26T10:55:47.946Z</time></trkpt><trkpt lat="44.3319324" lon="7.8392597"><ele>669.2</ele><time>2026-04-26T10:55:48.945Z</time></trkpt><trkpt lat="44.3318145" lon="7.8393011"><ele>669.4000000000001</ele><time>2026-04-26T10:55:49.946Z</time></trkpt><trkpt lat="44.3317042" lon="7.8393357"><ele>669.6</ele><time>2026-04-26T10:55:50.946Z</time></trkpt><trkpt lat="44.3316033" lon="7.8393534"><ele>669.8</ele><time>2026-04-26T10:55:51.945Z</time></trkpt><trkpt lat="44.3315337" lon="7.8393781"><ele>670.0</ele><time>2026-04-26T10:55:52.945Z</time></trkpt><trkpt lat="44.3314498" lon="7.8394161"><ele>670.0</ele><time>2026-04-26T10:55:54.946Z</time></trkpt><trkpt lat="44.3314245" lon="7.8395164"><ele>670.0</ele><time>2026-04-26T10:55:56.946Z</time></trkpt><trkpt lat="44.3314032" lon="7.8396425"><ele>670.0</ele><time>2026-04-26T10:55:59.946Z</time></trkpt><trkpt lat="44.3313683" lon="7.8397984"><ele>670.0</ele><time>2026-04-26T10:56:01.945Z</time></trkpt><trkpt lat="44.3313827" lon="7.8399122"><ele>670.0</ele><time>2026-04-26T10:56:02.946Z</time></trkpt><trkpt lat="44.3313991" lon="7.8400312"><ele>670.0</ele><time>2026-04-26T10:56:03.946Z</time></trkpt><trkpt lat="44.3313948" lon="7.8401228"><ele>670.0</ele><time>2026-04-26T10:56:04.946Z</time></trkpt><trkpt lat="44.331401" lon="7.8402434"><ele>670.0</ele><time>2026-04-26T10:56:05.946Z</time></trkpt><trkpt lat="44.3314171" lon="7.8403597"><ele>670.0</ele><time>2026-04-26T10:56:06.945Z</time></trkpt><trkpt lat="44.3313901" lon="7.8404813"><ele>670.0</ele><time>2026-04-26T10:56:07.946Z</time></trkpt><trkpt lat="44.3313634" lon="7.8406035"><ele>670.0</ele><time>2026-04-26T10:56:08.946Z</time></trkpt><trkpt lat="44.3313435" lon="7.8407083"><ele>673.5</ele><time>2026-04-26T10:56:09.946Z</time></trkpt><trkpt lat="44.3313265" lon="7.8408264"><ele>677.0</ele><time>2026-04-26T10:56:10.946Z</time></trkpt><trkpt lat="44.331304" lon="7.8409272"><ele>680.5</ele><time>2026-04-26T10:56:11.946Z</time></trkpt><trkpt lat="44.3312793" lon="7.8410192"><ele>684.0</ele><time>2026-04-26T10:56:12.946Z</time></trkpt><trkpt lat="44.3312196" lon="7.8410903"><ele>687.5</ele><time>2026-04-26T10:56:13.946Z</time></trkpt><trkpt lat="44.3311671" lon="7.8411612"><ele>691.0</ele><time>2026-04-26T10:56:14.946Z</time></trkpt><trkpt lat="44.3311359" lon="7.841256"><ele>691.0</ele><time>2026-04-26T10:56:16.946Z</time></trkpt><trkpt lat="44.3311107" lon="7.8413412"><ele>691.0</ele><time>2026-04-26T10:56:34.946Z</time></trkpt><trkpt lat="44.3310614" lon="7.8414407"><ele>691.0</ele><time>2026-04-26T10:56:36.946Z</time></trkpt><trkpt lat="44.330957" lon="7.8415094"><ele>691.0</ele><time>2026-04-26T10:56:38.946Z</time></trkpt><trkpt lat="44.3308833" lon="7.8416117"><ele>691.0</ele><time>2026-04-26T10:56:40.946Z</time></trkpt><trkpt lat="44.330892" lon="7.8417964"><ele>690.3333333333334</ele><time>2026-04-26T10:56:42.946Z</time></trkpt><trkpt lat="44.3309212" lon="7.8419417"><ele>689.6666666666667</ele><time>2026-04-26T10:56:44.946Z</time></trkpt><trkpt lat="44.3309105" lon="7.8420403"><ele>689.0</ele><time>2026-04-26T10:56:46.945Z</time></trkpt><trkpt lat="44.3309096" lon="7.8421388"><ele>688.3333333333334</ele><time>2026-04-26T10:56:47.946Z</time></trkpt><trkpt lat="44.3309175" lon="7.8422685"><ele>687.6666666666666</ele><time>2026-04-26T10:56:49.946Z</time></trkpt><trkpt lat="44.3309844" lon="7.8423511"><ele>687.0</ele><time>2026-04-26T10:56:52.946Z</time></trkpt><trkpt lat="44.331064" lon="7.8424357"><ele>687.0</ele><time>2026-04-26T10:56:55.945Z</time></trkpt><trkpt lat="44.3311097" lon="7.8425441"><ele>687.0</ele><time>2026-04-26T10:56:58.946Z</time></trkpt><trkpt lat="44.3311441" lon="7.8426524"><ele>687.0</ele><time>2026-04-26T10:57:00.946Z</time></trkpt><trkpt lat="44.3311916" lon="7.8428196"><ele>687.0</ele><time>2026-04-26T10:57:02.945Z</time></trkpt><trkpt lat="44.3312394" lon="7.8429619"><ele>687.0</ele><time>2026-04-26T10:57:03.946Z</time></trkpt><trkpt lat="44.3312778" lon="7.8430896"><ele>687.0</ele><time>2026-04-26T10:57:04.946Z</time></trkpt><trkpt lat="44.3312755" lon="7.8432074"><ele>687.0</ele><time>2026-04-26T10:57:05.946Z</time></trkpt><trkpt lat="44.3312783" lon="7.8433053"><ele>687.0</ele><time>2026-04-26T10:57:06.946Z</time></trkpt><trkpt lat="44.3312815" lon="7.8434129"><ele>687.0</ele><time>2026-04-26T10:57:08.946Z</time></trkpt><trkpt lat="44.331332" lon="7.8434914"><ele>687.0</ele><time>2026-04-26T10:57:09.946Z</time></trkpt><trkpt lat="44.3314079" lon="7.8435262"><ele>687.0</ele><time>2026-04-26T10:57:10.945Z</time></trkpt><trkpt lat="44.3314702" lon="7.8435534"><ele>687.0</ele><time>2026-04-26T10:57:11.946Z</time></trkpt><trkpt lat="44.3316" lon="7.8436278"><ele>687.0</ele><time>2026-04-26T10:57:13.946Z</time></trkpt><trkpt lat="44.3316441" lon="7.8437001"><ele>687.0</ele><time>2026-04-26T10:57:17.945Z</time></trkpt><trkpt lat="44.331551" lon="7.8437726"><ele>687.0</ele><time>2026-04-26T10:57:19.946Z</time></trkpt><trkpt lat="44.3314754" lon="7.8437797"><ele>687.0</ele><time>2026-04-26T10:57:20.945Z</time></trkpt><trkpt lat="44.3313766" lon="7.8438116"><ele>687.0</ele><time>2026-04-26T10:57:22.946Z</time></trkpt><trkpt lat="44.3313542" lon="7.8439298"><ele>687.0</ele><time>2026-04-26T10:57:24.946Z</time></trkpt><trkpt lat="44.3312542" lon="7.8440173"><ele>687.0</ele><time>2026-04-26T10:57:26.946Z</time></trkpt><trkpt lat="44.3311963" lon="7.8440613"><ele>687.0</ele><time>2026-04-26T10:57:27.946Z</time></trkpt><trkpt lat="44.3311065" lon="7.8441105"><ele>687.0</ele><time>2026-04-26T10:57:28.946Z</time></trkpt><trkpt lat="44.3310542" lon="7.8441709"><ele>687.0</ele><time>2026-04-26T10:57:29.946Z</time></trkpt><trkpt lat="44.3309849" lon="7.8442488"><ele>687.0</ele><time>2026-04-26T10:57:30.946Z</time></trkpt><trkpt lat="44.3309216" lon="7.8442924"><ele>687.0</ele><time>2026-04-26T10:57:33.946Z</time></trkpt><trkpt lat="44.3309865" lon="7.8443118"><ele>687.0</ele><time>2026-04-26T10:57:37.946Z</time></trkpt><trkpt lat="44.3310573" lon="7.8443144"><ele>687.0</ele><time>2026-04-26T10:57:39.945Z</time></trkpt><trkpt lat="44.3311259" lon="7.8443689"><ele>687.0</ele><time>2026-04-26T10:57:42.944Z</time></trkpt><trkpt lat="44.3312042" lon="7.8443689"><ele>687.0</ele><time>2026-04-26T10:57:44.943Z</time></trkpt><trkpt lat="44.3312732" lon="7.8444236"><ele>687.0</ele><time>2026-04-26T10:57:45.946Z</time></trkpt><trkpt lat="44.3314075" lon="7.8444447"><ele>683.1666666666666</ele><time>2026-04-26T10:57:47.946Z</time></trkpt><trkpt lat="44.3314754" lon="7.8444396"><ele>679.3333333333334</ele><time>2026-04-26T10:57:48.946Z</time></trkpt><trkpt lat="44.331561" lon="7.8444571"><ele>675.5</ele><time>2026-04-26T10:57:50.946Z</time></trkpt><trkpt lat="44.3316272" lon="7.8444434"><ele>671.6666666666667</ele><time>2026-04-26T10:57:51.946Z</time></trkpt><trkpt lat="44.3317132" lon="7.8444702"><ele>667.8333333333334</ele><time>2026-04-26T10:57:53.946Z</time></trkpt><trkpt lat="44.3318074" lon="7.8445425"><ele>664.0</ele><time>2026-04-26T10:57:55.946Z</time></trkpt><trkpt lat="44.3318723" lon="7.8445762"><ele>664.0</ele><time>2026-04-26T10:57:56.946Z</time></trkpt><trkpt lat="44.3319341" lon="7.8446716"><ele>664.0</ele><time>2026-04-26T10:57:57.945Z</time></trkpt><trkpt lat="44.33197" lon="7.8447497"><ele>664.0</ele><time>2026-04-26T10:57:58.946Z</time></trkpt><trkpt lat="44.332063" lon="7.8448478"><ele>664.0</ele><time>2026-04-26T10:57:59.946Z</time></trkpt><trkpt lat="44.3321459" lon="7.8449247"><ele>664.0</ele><time>2026-04-26T10:58:00.946Z</time></trkpt><trkpt lat="44.3322072" lon="7.8450284"><ele>662.1666666666667</ele><time>2026-04-26T10:58:01.946Z</time></trkpt><trkpt lat="44.3322948" lon="7.8451296"><ele>660.3333333333334</ele><time>2026-04-26T10:58:03.946Z</time></trkpt><trkpt lat="44.3323396" lon="7.8452267"><ele>658.5</ele><time>2026-04-26T10:58:10.946Z</time></trkpt><trkpt lat="44.3324169" lon="7.8452733"><ele>656.6666666666666</ele><time>2026-04-26T10:58:14.946Z</time></trkpt><trkpt lat="44.3324832" lon="7.8453138"><ele>654.8333333333333</ele><time>2026-04-26T10:58:18.946Z</time></trkpt><trkpt lat="44.332544" lon="7.8453371"><ele>653.0</ele><time>2026-04-26T10:58:20.945Z</time></trkpt><trkpt lat="44.3326308" lon="7.8453928"><ele>653.0</ele><time>2026-04-26T10:58:22.946Z</time></trkpt><trkpt lat="44.3327139" lon="7.8454968"><ele>653.0</ele><time>2026-04-26T10:58:23.946Z</time></trkpt><trkpt lat="44.3327825" lon="7.8456151"><ele>653.0</ele><time>2026-04-26T10:58:25.946Z</time></trkpt><trkpt lat="44.3328595" lon="7.8456479"><ele>653.0</ele><time>2026-04-26T10:58:27.946Z</time></trkpt><trkpt lat="44.3329468" lon="7.8456761"><ele>653.0</ele><time>2026-04-26T10:58:29.946Z</time></trkpt><trkpt lat="44.3330062" lon="7.845707"><ele>652.0000000000001</ele><time>2026-04-26T10:58:30.946Z</time></trkpt><trkpt lat="44.333084" lon="7.8457424"><ele>651.0</ele><time>2026-04-26T10:58:31.946Z</time></trkpt><trkpt lat="44.3331494" lon="7.845775"><ele>650.0</ele><time>2026-04-26T10:58:32.946Z</time></trkpt><trkpt lat="44.3331927" lon="7.8458445"><ele>649.0</ele><time>2026-04-26T10:58:33.946Z</time></trkpt><trkpt lat="44.3332669" lon="7.845839"><ele>648.0</ele><time>2026-04-26T10:58:34.946Z</time></trkpt><trkpt lat="44.3333319" lon="7.8458595"><ele>647.0000000000001</ele><time>2026-04-26T10:58:35.946Z</time></trkpt><trkpt lat="44.3334022" lon="7.8459046"><ele>646.0</ele><time>2026-04-26T10:58:36.946Z</time></trkpt><trkpt lat="44.3335249" lon="7.8459515"><ele>645.5999999999999</ele><time>2026-04-26T10:58:38.945Z</time></trkpt><trkpt lat="44.3336581" lon="7.8459794"><ele>645.2</ele><time>2026-04-26T10:58:40.946Z</time></trkpt><trkpt lat="44.3337581" lon="7.8460669"><ele>644.8</ele><time>2026-04-26T10:58:42.945Z</time></trkpt><trkpt lat="44.333852" lon="7.8460896"><ele>644.4000000000001</ele><time>2026-04-26T10:58:43.945Z</time></trkpt><trkpt lat="44.3339305" lon="7.8461328"><ele>644.0</ele><time>2026-04-26T10:58:44.946Z</time></trkpt><trkpt lat="44.3340583" lon="7.846174"><ele>642.0</ele><time>2026-04-26T10:58:46.946Z</time></trkpt><trkpt lat="44.3341719" lon="7.8461848"><ele>640.0</ele><time>2026-04-26T10:58:48.946Z</time></trkpt><trkpt lat="44.3342803" lon="7.8462252"><ele>638.0</ele><time>2026-04-26T10:58:50.946Z</time></trkpt><trkpt lat="44.3343817" lon="7.8462646"><ele>636.0</ele><time>2026-04-26T10:58:52.946Z</time></trkpt><trkpt lat="44.3344442" lon="7.8462996"><ele>634.0</ele><time>2026-04-26T10:58:53.945Z</time></trkpt><trkpt lat="44.3345143" lon="7.8463057"><ele>634.0</ele><time>2026-04-26T10:58:54.946Z</time></trkpt><trkpt lat="44.3346174" lon="7.8463239"><ele>634.0</ele><time>2026-04-26T10:58:56.946Z</time></trkpt><trkpt lat="44.3346821" lon="7.8463228"><ele>634.0</ele><time>2026-04-26T10:58:57.946Z</time></trkpt><trkpt lat="44.3348182" lon="7.8463508"><ele>634.0</ele><time>2026-04-26T10:58:59.945Z</time></trkpt><trkpt lat="44.3348994" lon="7.8463348"><ele>634.0</ele><time>2026-04-26T10:59:00.946Z</time></trkpt><trkpt lat="44.3349856" lon="7.8463945"><ele>632.3333333333334</ele><time>2026-04-26T10:59:01.945Z</time></trkpt><trkpt lat="44.3350693" lon="7.8464335"><ele>630.6666666666667</ele><time>2026-04-26T10:59:02.946Z</time></trkpt><trkpt lat="44.3351542" lon="7.8464594"><ele>629.0</ele><time>2026-04-26T10:59:03.946Z</time></trkpt><trkpt lat="44.3352383" lon="7.8464718"><ele>627.3333333333334</ele><time>2026-04-26T10:59:04.946Z</time></trkpt><trkpt lat="44.3352998" lon="7.8465086"><ele>625.6666666666666</ele><time>2026-04-26T10:59:05.946Z</time></trkpt><trkpt lat="44.3354175" lon="7.8465331"><ele>624.0</ele><time>2026-04-26T10:59:07.946Z</time></trkpt><trkpt lat="44.3355026" lon="7.8465683"><ele>623.5</ele><time>2026-04-26T10:59:08.946Z</time></trkpt><trkpt lat="44.3355799" lon="7.8466017"><ele>623.0</ele><time>2026-04-26T10:59:09.946Z</time></trkpt><trkpt lat="44.3356638" lon="7.8466431"><ele>622.5</ele><time>2026-04-26T10:59:10.946Z</time></trkpt><trkpt lat="44.3357372" lon="7.8467075"><ele>622.0</ele><time>2026-04-26T10:59:11.946Z</time></trkpt><trkpt lat="44.335811" lon="7.8467581"><ele>621.5</ele><time>2026-04-26T10:59:12.945Z</time></trkpt><trkpt lat="44.3358804" lon="7.8468072"><ele>621.0</ele><time>2026-04-26T10:59:13.946Z</time></trkpt><trkpt lat="44.3359513" lon="7.8468703"><ele>618.6</ele><time>2026-04-26T10:59:14.946Z</time></trkpt><trkpt lat="44.3360512" lon="7.8469171"><ele>616.2</ele><time>2026-04-26T10:59:16.946Z</time></trkpt><trkpt lat="44.3361376" lon="7.8469469"><ele>613.8</ele><time>2026-04-26T10:59:18.946Z</time></trkpt><trkpt lat="44.3362663" lon="7.846994"><ele>611.4</ele><time>2026-04-26T10:59:20.946Z</time></trkpt><trkpt lat="44.336348" lon="7.8470192"><ele>609.0</ele><time>2026-04-26T10:59:21.946Z</time></trkpt><trkpt lat="44.3364369" lon="7.8470278"><ele>607.2</ele><time>2026-04-26T10:59:22.946Z</time></trkpt><trkpt lat="44.3365142" lon="7.8470479"><ele>605.4</ele><time>2026-04-26T10:59:23.945Z</time></trkpt><trkpt lat="44.3365967" lon="7.8470575"><ele>603.6</ele><time>2026-04-26T10:59:24.946Z</time></trkpt><trkpt lat="44.3366884" lon="7.8470672"><ele>601.8</ele><time>2026-04-26T10:59:25.946Z</time></trkpt><trkpt lat="44.336795" lon="7.847083"><ele>600.0</ele><time>2026-04-26T10:59:26.946Z</time></trkpt><trkpt lat="44.3368955" lon="7.8470591"><ele>600.0</ele><time>2026-04-26T10:59:27.946Z</time></trkpt><trkpt lat="44.3369918" lon="7.847048"><ele>600.0</ele><time>2026-04-26T10:59:28.946Z</time></trkpt><trkpt lat="44.3370736" lon="7.8470218"><ele>600.0</ele><time>2026-04-26T10:59:29.946Z</time></trkpt><trkpt lat="44.3371389" lon="7.8469689"><ele>600.0</ele><time>2026-04-26T10:59:30.946Z</time></trkpt><trkpt lat="44.3372347" lon="7.8468818"><ele>600.0</ele><time>2026-04-26T10:59:31.946Z</time></trkpt><trkpt lat="44.337319" lon="7.8468005"><ele>599.0</ele><time>2026-04-26T10:59:32.946Z</time></trkpt><trkpt lat="44.3374024" lon="7.8467173"><ele>598.0</ele><time>2026-04-26T10:59:33.946Z</time></trkpt><trkpt lat="44.3374847" lon="7.8466215"><ele>597.0</ele><time>2026-04-26T10:59:34.946Z</time></trkpt><trkpt lat="44.337583" lon="7.8465606"><ele>596.0</ele><time>2026-04-26T10:59:35.946Z</time></trkpt><trkpt lat="44.3376603" lon="7.8464623"><ele>595.0</ele><time>2026-04-26T10:59:36.945Z</time></trkpt><trkpt lat="44.3377475" lon="7.846367"><ele>595.0</ele><time>2026-04-26T10:59:37.946Z</time></trkpt><trkpt lat="44.3378078" lon="7.8462905"><ele>595.0</ele><time>2026-04-26T10:59:38.945Z</time></trkpt><trkpt lat="44.3378703" lon="7.8461994"><ele>595.0</ele><time>2026-04-26T10:59:39.946Z</time></trkpt><trkpt lat="44.3379262" lon="7.8460915"><ele>595.0</ele><time>2026-04-26T10:59:41.946Z</time></trkpt><trkpt lat="44.3379088" lon="7.8462346"><ele>595.0</ele><time>2026-04-26T10:59:45.946Z</time></trkpt><trkpt lat="44.3378797" lon="7.8463167"><ele>595.0</ele><time>2026-04-26T10:59:46.946Z</time></trkpt><trkpt lat="44.3378476" lon="7.8464276"><ele>595.0</ele><time>2026-04-26T10:59:47.946Z</time></trkpt><trkpt lat="44.3378168" lon="7.8465518"><ele>595.0</ele><time>2026-04-26T10:59:48.946Z</time></trkpt><trkpt lat="44.3377587" lon="7.8466569"><ele>595.0</ele><time>2026-04-26T10:59:49.946Z</time></trkpt><trkpt lat="44.3377615" lon="7.8467849"><ele>595.0</ele><time>2026-04-26T10:59:50.946Z</time></trkpt><trkpt lat="44.3376935" lon="7.8468974"><ele>595.0</ele><time>2026-04-26T10:59:51.945Z</time></trkpt><trkpt lat="44.337655" lon="7.8470179"><ele>594.2</ele><time>2026-04-26T10:59:52.946Z</time></trkpt><trkpt lat="44.3376439" lon="7.8471621"><ele>593.4</ele><time>2026-04-26T10:59:53.946Z</time></trkpt><trkpt lat="44.3375963" lon="7.847321"><ele>592.6</ele><time>2026-04-26T10:59:54.946Z</time></trkpt><trkpt lat="44.337576" lon="7.8474499"><ele>591.8</ele><time>2026-04-26T10:59:55.946Z</time></trkpt><trkpt lat="44.3375545" lon="7.8475737"><ele>591.0</ele><time>2026-04-26T10:59:56.945Z</time></trkpt><trkpt lat="44.3375447" lon="7.8477109"><ele>591.0</ele><time>2026-04-26T10:59:58.946Z</time></trkpt><trkpt lat="44.3376509" lon="7.8477359"><ele>591.0</ele><time>2026-04-26T11:00:00.946Z</time></trkpt><trkpt lat="44.3377641" lon="7.8476865"><ele>591.0</ele><time>2026-04-26T11:00:01.946Z</time></trkpt><trkpt lat="44.3378644" lon="7.8476458"><ele>591.0</ele><time>2026-04-26T11:00:02.946Z</time></trkpt><trkpt lat="44.3379431" lon="7.8476215"><ele>591.0</ele><time>2026-04-26T11:00:03.946Z</time></trkpt><trkpt lat="44.3380275" lon="7.8475859"><ele>591.0</ele><time>2026-04-26T11:00:05.946Z</time></trkpt><trkpt lat="44.3380064" lon="7.847691"><ele>591.0</ele><time>2026-04-26T11:00:08.945Z</time></trkpt><trkpt lat="44.3379509" lon="7.8477544"><ele>591.0</ele><time>2026-04-26T11:00:10.946Z</time></trkpt><trkpt lat="44.3378898" lon="7.8478216"><ele>591.0</ele><time>2026-04-26T11:00:12.946Z</time></trkpt><trkpt lat="44.3378546" lon="7.8479625"><ele>591.0</ele><time>2026-04-26T11:00:14.946Z</time></trkpt><trkpt lat="44.3378558" lon="7.8480581"><ele>591.0</ele><time>2026-04-26T11:00:15.946Z</time></trkpt><trkpt lat="44.3378611" lon="7.8481875"><ele>591.0</ele><time>2026-04-26T11:00:16.946Z</time></trkpt><trkpt lat="44.3378661" lon="7.8483156"><ele>591.0</ele><time>2026-04-26T11:00:17.946Z</time></trkpt><trkpt lat="44.3378626" lon="7.8484658"><ele>591.0</ele><time>2026-04-26T11:00:18.945Z</time></trkpt><trkpt lat="44.3378879" lon="7.848613"><ele>591.0</ele><time>2026-04-26T11:00:19.945Z</time></trkpt><trkpt lat="44.3379073" lon="7.8487338"><ele>591.0</ele><time>2026-04-26T11:00:20.946Z</time></trkpt><trkpt lat="44.3379265" lon="7.8488568"><ele>591.8</ele><time>2026-04-26T11:00:21.942Z</time></trkpt><trkpt lat="44.3379694" lon="7.8489257"><ele>592.6</ele><time>2026-04-26T11:00:22.946Z</time></trkpt><trkpt lat="44.3379951" lon="7.8490846"><ele>593.4</ele><time>2026-04-26T11:00:24.944Z</time></trkpt><trkpt lat="44.3379884" lon="7.849176"><ele>594.2</ele><time>2026-04-26T11:00:25.946Z</time></trkpt><trkpt lat="44.3380008" lon="7.8493787"><ele>595.0</ele><time>2026-04-26T11:00:27.945Z</time></trkpt><trkpt lat="44.3379899" lon="7.8496479"><ele>596.0</ele><time>2026-04-26T11:00:29.946Z</time></trkpt><trkpt lat="44.3380028" lon="7.849832"><ele>597.0</ele><time>2026-04-26T11:00:30.946Z</time></trkpt><trkpt lat="44.3380121" lon="7.849927"><ele>598.0</ele><time>2026-04-26T11:00:31.946Z</time></trkpt><trkpt lat="44.3380229" lon="7.8500434"><ele>599.0</ele><time>2026-04-26T11:00:32.943Z</time></trkpt><trkpt lat="44.3380928" lon="7.8502792"><ele>602.6</ele><time>2026-04-26T11:00:34.945Z</time></trkpt><trkpt lat="44.3381509" lon="7.8503763"><ele>606.2</ele><time>2026-04-26T11:00:35.946Z</time></trkpt><trkpt lat="44.3381934" lon="7.8504799"><ele>609.8000000000001</ele><time>2026-04-26T11:00:36.946Z</time></trkpt><trkpt lat="44.3382548" lon="7.8505897"><ele>613.4</ele><time>2026-04-26T11:00:37.945Z</time></trkpt><trkpt lat="44.3382952" lon="7.8507696"><ele>617.0</ele><time>2026-04-26T11:00:39.946Z</time></trkpt><trkpt lat="44.338324" lon="7.850892"><ele>617.4</ele><time>2026-04-26T11:00:40.946Z</time></trkpt><trkpt lat="44.3383488" lon="7.85107"><ele>617.8000000000001</ele><time>2026-04-26T11:00:41.945Z</time></trkpt><trkpt lat="44.3384102" lon="7.8512496"><ele>618.2</ele><time>2026-04-26T11:00:43.946Z</time></trkpt><trkpt lat="44.3384296" lon="7.8513383"><ele>618.6</ele><time>2026-04-26T11:00:44.946Z</time></trkpt><trkpt lat="44.3384853" lon="7.8514727"><ele>619.0</ele><time>2026-04-26T11:00:46.946Z</time></trkpt><trkpt lat="44.3384978" lon="7.8515925"><ele>619.0</ele><time>2026-04-26T11:00:47.946Z</time></trkpt><trkpt lat="44.3384738" lon="7.8517095"><ele>619.0</ele><time>2026-04-26T11:00:48.946Z</time></trkpt><trkpt lat="44.3384473" lon="7.8518091"><ele>619.0</ele><time>2026-04-26T11:00:49.945Z</time></trkpt><trkpt lat="44.3384337" lon="7.8519276"><ele>619.0</ele><time>2026-04-26T11:00:50.946Z</time></trkpt><trkpt lat="44.3384171" lon="7.8520719"><ele>619.0</ele><time>2026-04-26T11:00:51.945Z</time></trkpt><trkpt lat="44.338404" lon="7.8522218"><ele>619.75</ele><time>2026-04-26T11:00:52.945Z</time></trkpt><trkpt lat="44.3384133" lon="7.8524024"><ele>620.5</ele><time>2026-04-26T11:00:53.945Z</time></trkpt><trkpt lat="44.3383961" lon="7.852547"><ele>621.25</ele><time>2026-04-26T11:00:54.946Z</time></trkpt><trkpt lat="44.3383798" lon="7.8526409"><ele>622.0</ele><time>2026-04-26T11:00:55.946Z</time></trkpt><trkpt lat="44.3384034" lon="7.852879"><ele>622.3333333333334</ele><time>2026-04-26T11:00:57.945Z</time></trkpt><trkpt lat="44.3383983" lon="7.8530058"><ele>622.6666666666667</ele><time>2026-04-26T11:00:58.945Z</time></trkpt><trkpt lat="44.3384213" lon="7.8531084"><ele>623.0</ele><time>2026-04-26T11:00:59.946Z</time></trkpt><trkpt lat="44.3384563" lon="7.8532051"><ele>623.3333333333334</ele><time>2026-04-26T11:01:00.945Z</time></trkpt><trkpt lat="44.3384901" lon="7.8532942"><ele>623.6666666666666</ele><time>2026-04-26T11:01:01.944Z</time></trkpt><trkpt lat="44.3385895" lon="7.8532902"><ele>624.0</ele><time>2026-04-26T11:01:02.946Z</time></trkpt><trkpt lat="44.338657" lon="7.8533558"><ele>625.2</ele><time>2026-04-26T11:01:03.946Z</time></trkpt><trkpt lat="44.3387386" lon="7.8535235"><ele>626.4</ele><time>2026-04-26T11:01:05.946Z</time></trkpt><trkpt lat="44.3387775" lon="7.8536206"><ele>627.6</ele><time>2026-04-26T11:01:06.946Z</time></trkpt><trkpt lat="44.3388607" lon="7.853692"><ele>628.8</ele><time>2026-04-26T11:01:08.946Z</time></trkpt><trkpt lat="44.3389352" lon="7.8536964"><ele>630.0</ele><time>2026-04-26T11:01:57.946Z</time></trkpt><trkpt lat="44.338966" lon="7.8536002"><ele>633.0</ele><time>2026-04-26T11:01:58.946Z</time></trkpt><trkpt lat="44.3390242" lon="7.8534973"><ele>636.0</ele><time>2026-04-26T11:02:00.946Z</time></trkpt><trkpt lat="44.3390538" lon="7.8533561"><ele>639.0</ele><time>2026-04-26T11:02:02.946Z</time></trkpt><trkpt lat="44.3390791" lon="7.853247"><ele>642.0</ele><time>2026-04-26T11:02:03.946Z</time></trkpt><trkpt lat="44.3390423" lon="7.8531297"><ele>645.0</ele><time>2026-04-26T11:02:04.946Z</time></trkpt><trkpt lat="44.3390313" lon="7.8529845"><ele>645.3333333333334</ele><time>2026-04-26T11:02:05.945Z</time></trkpt><trkpt lat="44.3390155" lon="7.8528844"><ele>645.6666666666666</ele><time>2026-04-26T11:02:06.946Z</time></trkpt><trkpt lat="44.3390312" lon="7.852798"><ele>646.0</ele><time>2026-04-26T11:02:07.946Z</time></trkpt><trkpt lat="44.3390988" lon="7.8527732"><ele>646.3333333333333</ele><time>2026-04-26T11:02:09.946Z</time></trkpt><trkpt lat="44.3391624" lon="7.8528512"><ele>646.6666666666666</ele><time>2026-04-26T11:02:11.945Z</time></trkpt><trkpt lat="44.3392536" lon="7.8529455"><ele>647.0</ele><time>2026-04-26T11:02:13.946Z</time></trkpt><trkpt lat="44.3393238" lon="7.8529512"><ele>647.0</ele><time>2026-04-26T11:02:14.946Z</time></trkpt><trkpt lat="44.3394089" lon="7.853062"><ele>647.0</ele><time>2026-04-26T11:02:15.946Z</time></trkpt><trkpt lat="44.3395052" lon="7.8531451"><ele>647.0</ele><time>2026-04-26T11:02:16.946Z</time></trkpt><trkpt lat="44.3395736" lon="7.853212"><ele>647.0</ele><time>2026-04-26T11:02:17.945Z</time></trkpt><trkpt lat="44.3396578" lon="7.8533145"><ele>647.0</ele><time>2026-04-26T11:02:19.946Z</time></trkpt><trkpt lat="44.3396822" lon="7.8534365"><ele>646.6</ele><time>2026-04-26T11:02:21.945Z</time></trkpt><trkpt lat="44.3396854" lon="7.8535248"><ele>646.2</ele><time>2026-04-26T11:02:22.946Z</time></trkpt><trkpt lat="44.3397064" lon="7.8537215"><ele>645.8</ele><time>2026-04-26T11:02:24.946Z</time></trkpt><trkpt lat="44.3397313" lon="7.8538349"><ele>645.4</ele><time>2026-04-26T11:02:25.946Z</time></trkpt><trkpt lat="44.3397182" lon="7.8540129"><ele>645.0</ele><time>2026-04-26T11:02:27.946Z</time></trkpt><trkpt lat="44.3397366" lon="7.8541242"><ele>649.25</ele><time>2026-04-26T11:02:28.945Z</time></trkpt><trkpt lat="44.3397929" lon="7.8542765"><ele>653.5</ele><time>2026-04-26T11:02:29.946Z</time></trkpt><trkpt lat="44.3398397" lon="7.854446"><ele>657.75</ele><time>2026-04-26T11:02:30.946Z</time></trkpt><trkpt lat="44.3398921" lon="7.8546069"><ele>662.0</ele><time>2026-04-26T11:02:31.946Z</time></trkpt><trkpt lat="44.3399231" lon="7.8547288"><ele>663.0</ele><time>2026-04-26T11:02:32.946Z</time></trkpt><trkpt lat="44.339969" lon="7.8548422"><ele>664.0</ele><time>2026-04-26T11:02:33.946Z</time></trkpt><trkpt lat="44.3400398" lon="7.8549361"><ele>665.0</ele><time>2026-04-26T11:02:34.946Z</time></trkpt><trkpt lat="44.3401025" lon="7.855008"><ele>666.0</ele><time>2026-04-26T11:02:35.945Z</time></trkpt><trkpt lat="44.3401833" lon="7.8551149"><ele>667.0</ele><time>2026-04-26T11:02:36.946Z</time></trkpt><trkpt lat="44.340273" lon="7.8552093"><ele>669.6</ele><time>2026-04-26T11:02:37.945Z</time></trkpt><trkpt lat="44.3403658" lon="7.8552903"><ele>672.2</ele><time>2026-04-26T11:02:38.946Z</time></trkpt><trkpt lat="44.3404444" lon="7.8554007"><ele>674.8</ele><time>2026-04-26T11:02:39.946Z</time></trkpt><trkpt lat="44.3405031" lon="7.8554607"><ele>677.4</ele><time>2026-04-26T11:02:40.946Z</time></trkpt><trkpt lat="44.3406067" lon="7.8555036"><ele>680.0</ele><time>2026-04-26T11:02:41.946Z</time></trkpt><trkpt lat="44.3407115" lon="7.8554893"><ele>682.4</ele><time>2026-04-26T11:02:42.946Z</time></trkpt><trkpt lat="44.3408207" lon="7.8554873"><ele>684.8</ele><time>2026-04-26T11:02:43.946Z</time></trkpt><trkpt lat="44.3409374" lon="7.8554686"><ele>687.2</ele><time>2026-04-26T11:02:44.946Z</time></trkpt><trkpt lat="44.3410287" lon="7.8554616"><ele>689.6</ele><time>2026-04-26T11:02:45.945Z</time></trkpt><trkpt lat="44.3411442" lon="7.8554546"><ele>692.0</ele><time>2026-04-26T11:02:46.946Z</time></trkpt><trkpt lat="44.3412493" lon="7.8554805"><ele>692.0</ele><time>2026-04-26T11:02:47.946Z</time></trkpt><trkpt lat="44.3413122" lon="7.8554841"><ele>692.0</ele><time>2026-04-26T11:02:48.945Z</time></trkpt><trkpt lat="44.3413689" lon="7.8555704"><ele>692.0</ele><time>2026-04-26T11:02:50.946Z</time></trkpt><trkpt lat="44.3413307" lon="7.8556586"><ele>692.0</ele><time>2026-04-26T11:02:51.946Z</time></trkpt><trkpt lat="44.341282" lon="7.8557423"><ele>692.0</ele><time>2026-04-26T11:02:52.946Z</time></trkpt><trkpt lat="44.3412714" lon="7.8558872"><ele>692.0</ele><time>2026-04-26T11:02:53.946Z</time></trkpt><trkpt lat="44.3412239" lon="7.856053"><ele>693.1666666666666</ele><time>2026-04-26T11:02:54.946Z</time></trkpt><trkpt lat="44.3411969" lon="7.8561935"><ele>694.3333333333333</ele><time>2026-04-26T11:02:55.946Z</time></trkpt><trkpt lat="44.3411558" lon="7.856329"><ele>695.5</ele><time>2026-04-26T11:02:56.946Z</time></trkpt><trkpt lat="44.3411404" lon="7.8564469"><ele>696.6666666666666</ele><time>2026-04-26T11:02:57.946Z</time></trkpt><trkpt lat="44.3411137" lon="7.8565434"><ele>697.8333333333334</ele><time>2026-04-26T11:02:58.946Z</time></trkpt><trkpt lat="44.3411121" lon="7.8566455"><ele>699.0</ele><time>2026-04-26T11:02:59.946Z</time></trkpt><trkpt lat="44.3411213" lon="7.8567432"><ele>699.0</ele><time>2026-04-26T11:03:00.946Z</time></trkpt><trkpt lat="44.3411235" lon="7.8568861"><ele>699.0</ele><time>2026-04-26T11:03:02.946Z</time></trkpt><trkpt lat="44.3411138" lon="7.8569743"><ele>699.0</ele><time>2026-04-26T11:03:03.946Z</time></trkpt><trkpt lat="44.3410975" lon="7.857101"><ele>699.0</ele><time>2026-04-26T11:03:04.945Z</time></trkpt><trkpt lat="44.3410449" lon="7.8572019"><ele>699.0</ele><time>2026-04-26T11:03:05.946Z</time></trkpt><trkpt lat="44.3410603" lon="7.8573047"><ele>699.0</ele><time>2026-04-26T11:03:06.946Z</time></trkpt><trkpt lat="44.3410835" lon="7.8574193"><ele>699.0</ele><time>2026-04-26T11:03:07.946Z</time></trkpt><trkpt lat="44.3411404" lon="7.8574887"><ele>699.0</ele><time>2026-04-26T11:03:08.946Z</time></trkpt><trkpt lat="44.3412469" lon="7.8575912"><ele>699.0</ele><time>2026-04-26T11:03:10.945Z</time></trkpt><trkpt lat="44.3413268" lon="7.8576394"><ele>699.0</ele><time>2026-04-26T11:03:11.946Z</time></trkpt><trkpt lat="44.3414069" lon="7.857685"><ele>699.0</ele><time>2026-04-26T11:03:12.946Z</time></trkpt><trkpt lat="44.3415356" lon="7.8576653"><ele>697.4000000000001</ele><time>2026-04-26T11:03:14.946Z</time></trkpt><trkpt lat="44.341628" lon="7.8575657"><ele>695.8</ele><time>2026-04-26T11:03:15.946Z</time></trkpt><trkpt lat="44.3417344" lon="7.8574931"><ele>694.2</ele><time>2026-04-26T11:03:16.946Z</time></trkpt><trkpt lat="44.3417763" lon="7.8573849"><ele>692.5999999999999</ele><time>2026-04-26T11:03:17.946Z</time></trkpt><trkpt lat="44.3418297" lon="7.8572782"><ele>691.0</ele><time>2026-04-26T11:03:18.946Z</time></trkpt><trkpt lat="44.3419026" lon="7.857187"><ele>691.0</ele><time>2026-04-26T11:03:19.945Z</time></trkpt><trkpt lat="44.3419836" lon="7.8571092"><ele>691.0</ele><time>2026-04-26T11:03:20.945Z</time></trkpt><trkpt lat="44.342039" lon="7.8570442"><ele>691.0</ele><time>2026-04-26T11:03:21.946Z</time></trkpt><trkpt lat="44.3421036" lon="7.8569802"><ele>691.0</ele><time>2026-04-26T11:03:22.946Z</time></trkpt><trkpt lat="44.3422484" lon="7.8569778"><ele>691.0</ele><time>2026-04-26T11:03:24.946Z</time></trkpt><trkpt lat="44.3423149" lon="7.8570049"><ele>690.1666666666667</ele><time>2026-04-26T11:03:25.946Z</time></trkpt><trkpt lat="44.3423652" lon="7.8570833"><ele>689.3333333333334</ele><time>2026-04-26T11:03:27.946Z</time></trkpt><trkpt lat="44.3423605" lon="7.8572115"><ele>688.5</ele><time>2026-04-26T11:03:29.945Z</time></trkpt><trkpt lat="44.3423478" lon="7.8572988"><ele>687.6666666666666</ele><time>2026-04-26T11:03:30.946Z</time></trkpt><trkpt lat="44.3423866" lon="7.8574491"><ele>686.8333333333333</ele><time>2026-04-26T11:03:31.946Z</time></trkpt><trkpt lat="44.3424217" lon="7.8575473"><ele>686.0</ele><time>2026-04-26T11:03:32.946Z</time></trkpt><trkpt lat="44.3424998" lon="7.8576568"><ele>688.1999999999999</ele><time>2026-04-26T11:03:33.946Z</time></trkpt><trkpt lat="44.3425491" lon="7.8577793"><ele>690.4</ele><time>2026-04-26T11:03:34.945Z</time></trkpt><trkpt lat="44.3426017" lon="7.8579548"><ele>692.6</ele><time>2026-04-26T11:03:36.946Z</time></trkpt><trkpt lat="44.342636" lon="7.8581179"><ele>694.8</ele><time>2026-04-26T11:03:38.946Z</time></trkpt><trkpt lat="44.342636" lon="7.8582098"><ele>697.0</ele><time>2026-04-26T11:03:39.946Z</time></trkpt><trkpt lat="44.3426371" lon="7.8583087"><ele>697.0</ele><time>2026-04-26T11:03:40.946Z</time></trkpt><trkpt lat="44.3426772" lon="7.8583994"><ele>697.0</ele><time>2026-04-26T11:03:41.946Z</time></trkpt><trkpt lat="44.3426979" lon="7.8584949"><ele>697.0</ele><time>2026-04-26T11:03:42.941Z</time></trkpt><trkpt lat="44.3427336" lon="7.8585997"><ele>697.0</ele><time>2026-04-26T11:03:43.946Z</time></trkpt><trkpt lat="44.3427845" lon="7.8586915"><ele>697.0</ele><time>2026-04-26T11:03:44.946Z</time></trkpt><trkpt lat="44.3428694" lon="7.8587268"><ele>697.0</ele><time>2026-04-26T11:03:45.946Z</time></trkpt><trkpt lat="44.3429731" lon="7.858753"><ele>694.8</ele><time>2026-04-26T11:03:46.946Z</time></trkpt><trkpt lat="44.3430514" lon="7.8587712"><ele>692.6</ele><time>2026-04-26T11:03:47.946Z</time></trkpt><trkpt lat="44.3431452" lon="7.858812"><ele>690.4</ele><time>2026-04-26T11:03:49.946Z</time></trkpt><trkpt lat="44.3431938" lon="7.8589238"><ele>688.1999999999999</ele><time>2026-04-26T11:03:51.946Z</time></trkpt><trkpt lat="44.3432167" lon="7.8590539"><ele>686.0</ele><time>2026-04-26T11:03:52.945Z</time></trkpt><trkpt lat="44.3432573" lon="7.859176"><ele>685.5999999999999</ele><time>2026-04-26T11:03:53.946Z</time></trkpt><trkpt lat="44.3433155" lon="7.8592962"><ele>685.2</ele><time>2026-04-26T11:03:55.946Z</time></trkpt><trkpt lat="44.3434183" lon="7.8593842"><ele>684.8</ele><time>2026-04-26T11:03:57.945Z</time></trkpt><trkpt lat="44.3434973" lon="7.8594139"><ele>684.4000000000001</ele><time>2026-04-26T11:03:58.946Z</time></trkpt><trkpt lat="44.3436151" lon="7.8594561"><ele>684.0</ele><time>2026-04-26T11:03:59.946Z</time></trkpt><trkpt lat="44.3437122" lon="7.8594784"><ele>684.0</ele><time>2026-04-26T11:04:00.942Z</time></trkpt><trkpt lat="44.343797" lon="7.8595066"><ele>684.0</ele><time>2026-04-26T11:04:01.946Z</time></trkpt><trkpt lat="44.3438752" lon="7.8595495"><ele>684.0</ele><time>2026-04-26T11:04:02.946Z</time></trkpt><trkpt lat="44.3439682" lon="7.8595842"><ele>684.0</ele><time>2026-04-26T11:04:03.946Z</time></trkpt><trkpt lat="44.3440546" lon="7.8596109"><ele>684.0</ele><time>2026-04-26T11:04:04.941Z</time></trkpt><trkpt lat="44.3441547" lon="7.8596387"><ele>682.0</ele><time>2026-04-26T11:04:05.945Z</time></trkpt><trkpt lat="44.344254" lon="7.8597606"><ele>680.0</ele><time>2026-04-26T11:04:06.946Z</time></trkpt><trkpt lat="44.3443427" lon="7.8599038"><ele>678.0</ele><time>2026-04-26T11:04:07.946Z</time></trkpt><trkpt lat="44.3444223" lon="7.8600263"><ele>676.0</ele><time>2026-04-26T11:04:08.942Z</time></trkpt><trkpt lat="44.3444808" lon="7.8601302"><ele>673.8333333333334</ele><time>2026-04-26T11:04:09.946Z</time></trkpt><trkpt lat="44.3445489" lon="7.8602193"><ele>671.6666666666667</ele><time>2026-04-26T11:04:10.946Z</time></trkpt><trkpt lat="44.3445977" lon="7.8602922"><ele>669.5</ele><time>2026-04-26T11:04:11.945Z</time></trkpt><trkpt lat="44.3446917" lon="7.8603526"><ele>667.3333333333334</ele><time>2026-04-26T11:04:13.945Z</time></trkpt><trkpt lat="44.3447554" lon="7.8603775"><ele>665.1666666666666</ele><time>2026-04-26T11:04:14.946Z</time></trkpt><trkpt lat="44.3448395" lon="7.8603605"><ele>663.0</ele><time>2026-04-26T11:04:15.945Z</time></trkpt><trkpt lat="44.3449107" lon="7.8603974"><ele>663.0</ele><time>2026-04-26T11:04:16.946Z</time></trkpt><trkpt lat="44.3449848" lon="7.8604067"><ele>663.0</ele><time>2026-04-26T11:04:17.946Z</time></trkpt><trkpt lat="44.3450431" lon="7.8604566"><ele>663.0</ele><time>2026-04-26T11:04:18.946Z</time></trkpt><trkpt lat="44.3451435" lon="7.860457"><ele>663.0</ele><time>2026-04-26T11:04:19.946Z</time></trkpt><trkpt lat="44.3452844" lon="7.8604767"><ele>663.0</ele><time>2026-04-26T11:04:21.946Z</time></trkpt><trkpt lat="44.3453511" lon="7.8605016"><ele>663.0</ele><time>2026-04-26T11:04:22.943Z</time></trkpt><trkpt lat="44.3454055" lon="7.8605591"><ele>663.0</ele><time>2026-04-26T11:04:23.946Z</time></trkpt><trkpt lat="44.345492" lon="7.8606624"><ele>663.0</ele><time>2026-04-26T11:04:25.946Z</time></trkpt><trkpt lat="44.3456055" lon="7.8607026"><ele>663.0</ele><time>2026-04-26T11:04:27.946Z</time></trkpt><trkpt lat="44.3457063" lon="7.8607421"><ele>663.0</ele><time>2026-04-26T11:04:28.946Z</time></trkpt><trkpt lat="44.3457823" lon="7.860712"><ele>662.25</ele><time>2026-04-26T11:04:29.946Z</time></trkpt><trkpt lat="44.3458904" lon="7.8607537"><ele>661.5</ele><time>2026-04-26T11:04:30.946Z</time></trkpt><trkpt lat="44.3459817" lon="7.8607536"><ele>660.75</ele><time>2026-04-26T11:04:31.946Z</time></trkpt><trkpt lat="44.3460988" lon="7.8608051"><ele>660.0</ele><time>2026-04-26T11:04:32.946Z</time></trkpt><trkpt lat="44.3462194" lon="7.8608669"><ele>660.0</ele><time>2026-04-26T11:04:33.946Z</time></trkpt><trkpt lat="44.3463222" lon="7.8609148"><ele>660.0</ele><time>2026-04-26T11:04:34.946Z</time></trkpt><trkpt lat="44.3464314" lon="7.8609727"><ele>660.0</ele><time>2026-04-26T11:04:35.946Z</time></trkpt><trkpt lat="44.3465109" lon="7.8609782"><ele>660.0</ele><time>2026-04-26T11:04:36.945Z</time></trkpt><trkpt lat="44.3465723" lon="7.8610007"><ele>660.0</ele><time>2026-04-26T11:04:37.946Z</time></trkpt><trkpt lat="44.3466462" lon="7.8610747"><ele>659.0</ele><time>2026-04-26T11:04:39.946Z</time></trkpt><trkpt lat="44.3467038" lon="7.861235"><ele>658.0</ele><time>2026-04-26T11:04:41.945Z</time></trkpt><trkpt lat="44.3467187" lon="7.8613795"><ele>657.0</ele><time>2026-04-26T11:04:42.946Z</time></trkpt><trkpt lat="44.3467359" lon="7.8615054"><ele>656.0</ele><time>2026-04-26T11:04:43.941Z</time></trkpt><trkpt lat="44.3467543" lon="7.861636"><ele>655.0</ele><time>2026-04-26T11:04:44.946Z</time></trkpt><trkpt lat="44.3468334" lon="7.8617979"><ele>654.5</ele><time>2026-04-26T11:04:46.946Z</time></trkpt><trkpt lat="44.3469354" lon="7.8619172"><ele>654.0</ele><time>2026-04-26T11:04:48.946Z</time></trkpt><trkpt lat="44.347064" lon="7.8619974"><ele>653.5</ele><time>2026-04-26T11:04:49.946Z</time></trkpt><trkpt lat="44.3471721" lon="7.8620574"><ele>653.0</ele><time>2026-04-26T11:04:50.945Z</time></trkpt><trkpt lat="44.3472731" lon="7.8621071"><ele>650.8</ele><time>2026-04-26T11:04:51.946Z</time></trkpt><trkpt lat="44.3473557" lon="7.8621689"><ele>648.5999999999999</ele><time>2026-04-26T11:04:52.946Z</time></trkpt><trkpt lat="44.3474364" lon="7.8622383"><ele>646.4000000000001</ele><time>2026-04-26T11:04:53.946Z</time></trkpt><trkpt lat="44.3475228" lon="7.8623112"><ele>644.2</ele><time>2026-04-26T11:04:54.946Z</time></trkpt><trkpt lat="44.3475747" lon="7.8624662"><ele>642.0</ele><time>2026-04-26T11:04:56.946Z</time></trkpt><trkpt lat="44.3475973" lon="7.8625844"><ele>641.3333333333334</ele><time>2026-04-26T11:04:57.946Z</time></trkpt><trkpt lat="44.3476408" lon="7.862714"><ele>640.6666666666666</ele><time>2026-04-26T11:04:58.946Z</time></trkpt><trkpt lat="44.347666" lon="7.8628189"><ele>640.0</ele><time>2026-04-26T11:04:59.945Z</time></trkpt><trkpt lat="44.3476799" lon="7.8629056"><ele>639.3333333333333</ele><time>2026-04-26T11:05:00.946Z</time></trkpt><trkpt lat="44.3477039" lon="7.8630026"><ele>638.6666666666666</ele><time>2026-04-26T11:05:01.946Z</time></trkpt><trkpt lat="44.3477129" lon="7.8631116"><ele>638.0</ele><time>2026-04-26T11:05:03.946Z</time></trkpt><trkpt lat="44.3477942" lon="7.8631749"><ele>638.0</ele><time>2026-04-26T11:05:11.945Z</time></trkpt><trkpt lat="44.3479228" lon="7.8631682"><ele>638.0</ele><time>2026-04-26T11:05:13.946Z</time></trkpt><trkpt lat="44.3480131" lon="7.8631604"><ele>638.0</ele><time>2026-04-26T11:05:14.946Z</time></trkpt><trkpt lat="44.3481194" lon="7.8631804"><ele>638.0</ele><time>2026-04-26T11:05:15.945Z</time></trkpt><trkpt lat="44.3482175" lon="7.8631762"><ele>638.0</ele><time>2026-04-26T11:05:16.946Z</time></trkpt><trkpt lat="44.3483026" lon="7.8631746"><ele>637.4285714285714</ele><time>2026-04-26T11:05:17.946Z</time></trkpt><trkpt lat="44.3483731" lon="7.8631732"><ele>636.8571428571428</ele><time>2026-04-26T11:05:18.946Z</time></trkpt><trkpt lat="44.3484486" lon="7.8631763"><ele>636.2857142857142</ele><time>2026-04-26T11:05:19.946Z</time></trkpt><trkpt lat="44.3485233" lon="7.8631731"><ele>635.7142857142858</ele><time>2026-04-26T11:05:20.946Z</time></trkpt><trkpt lat="44.3485897" lon="7.8631894"><ele>635.1428571428571</ele><time>2026-04-26T11:05:21.945Z</time></trkpt><trkpt lat="44.3486561" lon="7.8631912"><ele>634.5714285714286</ele><time>2026-04-26T11:05:22.945Z</time></trkpt><trkpt lat="44.3487255" lon="7.8631952"><ele>634.0</ele><time>2026-04-26T11:05:23.946Z</time></trkpt><trkpt lat="44.3487926" lon="7.8632144"><ele>634.0</ele><time>2026-04-26T11:05:24.946Z</time></trkpt><trkpt lat="44.348871" lon="7.8632757"><ele>634.0</ele><time>2026-04-26T11:05:25.946Z</time></trkpt><trkpt lat="44.3489391" lon="7.863305"><ele>634.0</ele><time>2026-04-26T11:05:26.946Z</time></trkpt><trkpt lat="44.3490671" lon="7.8633187"><ele>634.0</ele><time>2026-04-26T11:05:28.945Z</time></trkpt><trkpt lat="44.3491384" lon="7.8632785"><ele>634.0</ele><time>2026-04-26T11:05:29.946Z</time></trkpt><trkpt lat="44.3492167" lon="7.8632072"><ele>632.5</ele><time>2026-04-26T11:05:30.945Z</time></trkpt><trkpt lat="44.3492953" lon="7.8631368"><ele>631.0</ele><time>2026-04-26T11:05:31.946Z</time></trkpt><trkpt lat="44.3493751" lon="7.8630715"><ele>629.5</ele><time>2026-04-26T11:05:32.946Z</time></trkpt><trkpt lat="44.3494504" lon="7.8629902"><ele>628.0</ele><time>2026-04-26T11:05:33.945Z</time></trkpt><trkpt lat="44.3494964" lon="7.8629175"><ele>626.5</ele><time>2026-04-26T11:05:34.945Z</time></trkpt><trkpt lat="44.3495541" lon="7.8628447"><ele>625.0</ele><time>2026-04-26T11:05:36.946Z</time></trkpt><trkpt lat="44.3494873" lon="7.8629598"><ele>625.0</ele><time>2026-04-26T11:05:40.946Z</time></trkpt><trkpt lat="44.3494307" lon="7.8630019"><ele>625.0</ele><time>2026-04-26T11:05:41.946Z</time></trkpt><trkpt lat="44.3493547" lon="7.8630552"><ele>625.0</ele><time>2026-04-26T11:05:42.946Z</time></trkpt><trkpt lat="44.3492664" lon="7.8631153"><ele>625.0</ele><time>2026-04-26T11:05:43.946Z</time></trkpt><trkpt lat="44.3491888" lon="7.863184"><ele>625.0</ele><time>2026-04-26T11:05:44.946Z</time></trkpt><trkpt lat="44.3491115" lon="7.8632356"><ele>625.0</ele><time>2026-04-26T11:05:45.946Z</time></trkpt><trkpt lat="44.349018" lon="7.8632506"><ele>625.0</ele><time>2026-04-26T11:05:46.945Z</time></trkpt><trkpt lat="44.3489307" lon="7.8632518"><ele>625.0</ele><time>2026-04-26T11:05:47.945Z</time></trkpt><trkpt lat="44.3488306" lon="7.8632327"><ele>625.0</ele><time>2026-04-26T11:05:48.946Z</time></trkpt><trkpt lat="44.3487306" lon="7.8632053"><ele>625.0</ele><time>2026-04-26T11:05:49.946Z</time></trkpt><trkpt lat="44.348629" lon="7.8631807"><ele>625.0</ele><time>2026-04-26T11:05:50.946Z</time></trkpt><trkpt lat="44.3485262" lon="7.8631517"><ele>626.8</ele><time>2026-04-26T11:05:51.946Z</time></trkpt><trkpt lat="44.3484265" lon="7.863154"><ele>628.6</ele><time>2026-04-26T11:05:52.945Z</time></trkpt><trkpt lat="44.3483241" lon="7.8631508"><ele>630.4</ele><time>2026-04-26T11:05:53.946Z</time></trkpt><trkpt lat="44.3482243" lon="7.8631635"><ele>632.2</ele><time>2026-04-26T11:05:54.946Z</time></trkpt><trkpt lat="44.3481244" lon="7.863176"><ele>634.0</ele><time>2026-04-26T11:05:55.946Z</time></trkpt><trkpt lat="44.3480287" lon="7.8631778"><ele>634.6666666666667</ele><time>2026-04-26T11:05:56.946Z</time></trkpt><trkpt lat="44.3479308" lon="7.8631744"><ele>635.3333333333334</ele><time>2026-04-26T11:05:57.946Z</time></trkpt><trkpt lat="44.3478363" lon="7.8631489"><ele>636.0</ele><time>2026-04-26T11:05:58.946Z</time></trkpt><trkpt lat="44.3477647" lon="7.8631765"><ele>636.6666666666666</ele><time>2026-04-26T11:05:59.946Z</time></trkpt><trkpt lat="44.3476547" lon="7.8631885"><ele>637.3333333333333</ele><time>2026-04-26T11:06:01.946Z</time></trkpt><trkpt lat="44.3476311" lon="7.8632771"><ele>638.0</ele><time>2026-04-26T11:06:03.945Z</time></trkpt><trkpt lat="44.347682" lon="7.863384"><ele>637.1999999999999</ele><time>2026-04-26T11:06:05.946Z</time></trkpt><trkpt lat="44.3477733" lon="7.8635173"><ele>636.4</ele><time>2026-04-26T11:06:07.946Z</time></trkpt><trkpt lat="44.3478473" lon="7.8636195"><ele>635.5999999999999</ele><time>2026-04-26T11:06:08.945Z</time></trkpt><trkpt lat="44.3479115" lon="7.8637221"><ele>634.8</ele><time>2026-04-26T11:06:09.945Z</time></trkpt><trkpt lat="44.3479754" lon="7.863839"><ele>634.0</ele><time>2026-04-26T11:06:10.946Z</time></trkpt><trkpt lat="44.3480469" lon="7.8639738"><ele>634.0</ele><time>2026-04-26T11:06:11.945Z</time></trkpt><trkpt lat="44.3481125" lon="7.864117"><ele>634.0</ele><time>2026-04-26T11:06:12.946Z</time></trkpt><trkpt lat="44.3481843" lon="7.8642801"><ele>634.0</ele><time>2026-04-26T11:06:13.945Z</time></trkpt><trkpt lat="44.3482514" lon="7.8644484"><ele>634.0</ele><time>2026-04-26T11:06:14.945Z</time></trkpt><trkpt lat="44.3483087" lon="7.8646109"><ele>631.25</ele><time>2026-04-26T11:06:15.946Z</time></trkpt><trkpt lat="44.3483682" lon="7.8647747"><ele>628.5</ele><time>2026-04-26T11:06:16.945Z</time></trkpt><trkpt lat="44.3484191" lon="7.8649378"><ele>625.75</ele><time>2026-04-26T11:06:17.946Z</time></trkpt><trkpt lat="44.348482" lon="7.865088"><ele>623.0</ele><time>2026-04-26T11:06:18.946Z</time></trkpt><trkpt lat="44.3485617" lon="7.8652241"><ele>623.0</ele><time>2026-04-26T11:06:19.946Z</time></trkpt><trkpt lat="44.3486534" lon="7.865349"><ele>623.0</ele><time>2026-04-26T11:06:20.946Z</time></trkpt><trkpt lat="44.3487442" lon="7.8654776"><ele>623.0</ele><time>2026-04-26T11:06:21.946Z</time></trkpt><trkpt lat="44.3488263" lon="7.8656097"><ele>623.0</ele><time>2026-04-26T11:06:22.946Z</time></trkpt><trkpt lat="44.3489129" lon="7.8657361"><ele>623.0</ele><time>2026-04-26T11:06:23.946Z</time></trkpt><trkpt lat="44.3489898" lon="7.8658618"><ele>623.0</ele><time>2026-04-26T11:06:24.945Z</time></trkpt><trkpt lat="44.3490726" lon="7.8659841"><ele>623.0</ele><time>2026-04-26T11:06:25.946Z</time></trkpt><trkpt lat="44.3491565" lon="7.8661172"><ele>623.0</ele><time>2026-04-26T11:06:26.946Z</time></trkpt><trkpt lat="44.3492275" lon="7.8662589"><ele>624.0</ele><time>2026-04-26T11:06:27.946Z</time></trkpt><trkpt lat="44.3492857" lon="7.8664155"><ele>625.0</ele><time>2026-04-26T11:06:28.946Z</time></trkpt><trkpt lat="44.3493431" lon="7.8665775"><ele>626.0</ele><time>2026-04-26T11:06:29.946Z</time></trkpt><trkpt lat="44.3494019" lon="7.8667264"><ele>627.0</ele><time>2026-04-26T11:06:30.946Z</time></trkpt><trkpt lat="44.3494679" lon="7.8668766"><ele>624.75</ele><time>2026-04-26T11:06:31.946Z</time></trkpt><trkpt lat="44.3495446" lon="7.8670238"><ele>622.5</ele><time>2026-04-26T11:06:32.946Z</time></trkpt><trkpt lat="44.349628" lon="7.8671665"><ele>620.25</ele><time>2026-04-26T11:06:33.946Z</time></trkpt><trkpt lat="44.3497144" lon="7.8672922"><ele>618.0</ele><time>2026-04-26T11:06:34.945Z</time></trkpt><trkpt lat="44.349803" lon="7.8674312"><ele>618.0</ele><time>2026-04-26T11:06:35.946Z</time></trkpt><trkpt lat="44.3498956" lon="7.8675596"><ele>618.0</ele><time>2026-04-26T11:06:36.946Z</time></trkpt><trkpt lat="44.3499886" lon="7.8676978"><ele>618.0</ele><time>2026-04-26T11:06:37.946Z</time></trkpt><trkpt lat="44.3500805" lon="7.8678408"><ele>618.0</ele><time>2026-04-26T11:06:38.946Z</time></trkpt><trkpt lat="44.3501573" lon="7.8679879"><ele>618.5</ele><time>2026-04-26T11:06:39.946Z</time></trkpt><trkpt lat="44.3502283" lon="7.8681469"><ele>619.0</ele><time>2026-04-26T11:06:40.946Z</time></trkpt><trkpt lat="44.3502919" lon="7.8682973"><ele>619.5</ele><time>2026-04-26T11:06:41.945Z</time></trkpt><trkpt lat="44.3503613" lon="7.8684499"><ele>620.0</ele><time>2026-04-26T11:06:42.946Z</time></trkpt><trkpt lat="44.3504174" lon="7.8686097"><ele>620.75</ele><time>2026-04-26T11:06:43.945Z</time></trkpt><trkpt lat="44.3504581" lon="7.8687713"><ele>621.5</ele><time>2026-04-26T11:06:44.946Z</time></trkpt><trkpt lat="44.3504782" lon="7.8689361"><ele>622.25</ele><time>2026-04-26T11:06:45.946Z</time></trkpt><trkpt lat="44.3504931" lon="7.8690888"><ele>623.0</ele><time>2026-04-26T11:06:46.946Z</time></trkpt><trkpt lat="44.3505077" lon="7.8692365"><ele>623.0</ele><time>2026-04-26T11:06:47.946Z</time></trkpt><trkpt lat="44.3505252" lon="7.8693784"><ele>623.0</ele><time>2026-04-26T11:06:48.946Z</time></trkpt><trkpt lat="44.3505533" lon="7.8695179"><ele>623.0</ele><time>2026-04-26T11:06:49.946Z</time></trkpt><trkpt lat="44.350604" lon="7.8696441"><ele>623.0</ele><time>2026-04-26T11:06:50.946Z</time></trkpt><trkpt lat="44.3506721" lon="7.8697672"><ele>623.0</ele><time>2026-04-26T11:06:51.945Z</time></trkpt><trkpt lat="44.3507477" lon="7.8698816"><ele>623.0</ele><time>2026-04-26T11:06:52.946Z</time></trkpt><trkpt lat="44.3508183" lon="7.8700086"><ele>623.0</ele><time>2026-04-26T11:06:53.945Z</time></trkpt><trkpt lat="44.3508799" lon="7.8701572"><ele>623.0</ele><time>2026-04-26T11:06:54.946Z</time></trkpt><trkpt lat="44.3509341" lon="7.8703251"><ele>623.0</ele><time>2026-04-26T11:06:55.946Z</time></trkpt><trkpt lat="44.3509832" lon="7.8704914"><ele>623.0</ele><time>2026-04-26T11:06:56.946Z</time></trkpt><trkpt lat="44.3510364" lon="7.8706678"><ele>623.0</ele><time>2026-04-26T11:06:57.946Z</time></trkpt><trkpt lat="44.3510881" lon="7.8708342"><ele>623.0</ele><time>2026-04-26T11:06:58.946Z</time></trkpt><trkpt lat="44.3511491" lon="7.8709885"><ele>623.0</ele><time>2026-04-26T11:06:59.946Z</time></trkpt><trkpt lat="44.3512411" lon="7.8710894"><ele>624.25</ele><time>2026-04-26T11:07:00.946Z</time></trkpt><trkpt lat="44.3513507" lon="7.8711726"><ele>625.5</ele><time>2026-04-26T11:07:01.946Z</time></trkpt><trkpt lat="44.3514575" lon="7.8712418"><ele>626.75</ele><time>2026-04-26T11:07:02.946Z</time></trkpt><trkpt lat="44.3515502" lon="7.8712976"><ele>628.0</ele><time>2026-04-26T11:07:03.946Z</time></trkpt><trkpt lat="44.3516501" lon="7.8713564"><ele>629.0</ele><time>2026-04-26T11:07:04.946Z</time></trkpt><trkpt lat="44.3517608" lon="7.871416"><ele>630.0</ele><time>2026-04-26T11:07:05.945Z</time></trkpt><trkpt lat="44.3518821" lon="7.8714752"><ele>631.0</ele><time>2026-04-26T11:07:06.945Z</time></trkpt><trkpt lat="44.3520156" lon="7.8715419"><ele>632.0</ele><time>2026-04-26T11:07:07.946Z</time></trkpt><trkpt lat="44.3521553" lon="7.8716091"><ele>628.3333333333333</ele><time>2026-04-26T11:07:08.945Z</time></trkpt><trkpt lat="44.3522962" lon="7.8716749"><ele>624.6666666666666</ele><time>2026-04-26T11:07:09.946Z</time></trkpt><trkpt lat="44.3524445" lon="7.8717269"><ele>621.0</ele><time>2026-04-26T11:07:10.945Z</time></trkpt><trkpt lat="44.3525893" lon="7.8717864"><ele>620.0</ele><time>2026-04-26T11:07:11.946Z</time></trkpt><trkpt lat="44.3527311" lon="7.8718432"><ele>619.0</ele><time>2026-04-26T11:07:12.946Z</time></trkpt><trkpt lat="44.3528632" lon="7.8719068"><ele>618.0</ele><time>2026-04-26T11:07:13.946Z</time></trkpt><trkpt lat="44.3529942" lon="7.8719834"><ele>617.0</ele><time>2026-04-26T11:07:14.946Z</time></trkpt><trkpt lat="44.3531224" lon="7.8720697"><ele>617.0</ele><time>2026-04-26T11:07:15.945Z</time></trkpt><trkpt lat="44.3532391" lon="7.8721652"><ele>617.0</ele><time>2026-04-26T11:07:16.946Z</time></trkpt><trkpt lat="44.3533404" lon="7.8722719"><ele>617.0</ele><time>2026-04-26T11:07:17.946Z</time></trkpt><trkpt lat="44.3534209" lon="7.8723956"><ele>617.0</ele><time>2026-04-26T11:07:18.946Z</time></trkpt><trkpt lat="44.3534763" lon="7.8725439"><ele>614.75</ele><time>2026-04-26T11:07:19.945Z</time></trkpt><trkpt lat="44.353504" lon="7.8727254"><ele>612.5</ele><time>2026-04-26T11:07:20.946Z</time></trkpt><trkpt lat="44.3535102" lon="7.8729193"><ele>610.25</ele><time>2026-04-26T11:07:21.946Z</time></trkpt><trkpt lat="44.3535013" lon="7.8731195"><ele>608.0</ele><time>2026-04-26T11:07:22.946Z</time></trkpt><trkpt lat="44.3534896" lon="7.8733007"><ele>605.75</ele><time>2026-04-26T11:07:23.946Z</time></trkpt><trkpt lat="44.3534733" lon="7.8734716"><ele>603.5</ele><time>2026-04-26T11:07:24.946Z</time></trkpt><trkpt lat="44.3534619" lon="7.8736328"><ele>601.25</ele><time>2026-04-26T11:07:25.946Z</time></trkpt><trkpt lat="44.3534604" lon="7.8737846"><ele>599.0</ele><time>2026-04-26T11:07:26.946Z</time></trkpt><trkpt lat="44.3535263" lon="7.8739088"><ele>599.0</ele><time>2026-04-26T11:07:27.946Z</time></trkpt><trkpt lat="44.3536242" lon="7.8740043"><ele>599.0</ele><time>2026-04-26T11:07:28.946Z</time></trkpt><trkpt lat="44.3537275" lon="7.8740897"><ele>599.0</ele><time>2026-04-26T11:07:29.946Z</time></trkpt><trkpt lat="44.3538378" lon="7.8741752"><ele>599.0</ele><time>2026-04-26T11:07:30.945Z</time></trkpt><trkpt lat="44.3539515" lon="7.8742612"><ele>603.0</ele><time>2026-04-26T11:07:31.946Z</time></trkpt><trkpt lat="44.3540672" lon="7.8743337"><ele>607.0</ele><time>2026-04-26T11:07:32.946Z</time></trkpt><trkpt lat="44.3541908" lon="7.8743821"><ele>611.0</ele><time>2026-04-26T11:07:33.945Z</time></trkpt><trkpt lat="44.3543201" lon="7.8743886"><ele>615.0</ele><time>2026-04-26T11:07:34.946Z</time></trkpt><trkpt lat="44.354453" lon="7.8743664"><ele>615.0</ele><time>2026-04-26T11:07:35.946Z</time></trkpt><trkpt lat="44.3545881" lon="7.8743183"><ele>615.0</ele><time>2026-04-26T11:07:36.946Z</time></trkpt><trkpt lat="44.354724" lon="7.8742649"><ele>615.0</ele><time>2026-04-26T11:07:37.946Z</time></trkpt><trkpt lat="44.3548676" lon="7.8742198"><ele>615.0</ele><time>2026-04-26T11:07:38.946Z</time></trkpt><trkpt lat="44.3550088" lon="7.8741823"><ele>615.0</ele><time>2026-04-26T11:07:39.945Z</time></trkpt><trkpt lat="44.3551488" lon="7.8741641"><ele>615.0</ele><time>2026-04-26T11:07:40.946Z</time></trkpt><trkpt lat="44.3552758" lon="7.8741931"><ele>615.0</ele><time>2026-04-26T11:07:41.946Z</time></trkpt><trkpt lat="44.3553984" lon="7.8742493"><ele>615.0</ele><time>2026-04-26T11:07:42.946Z</time></trkpt><trkpt lat="44.3555045" lon="7.8743436"><ele>613.75</ele><time>2026-04-26T11:07:43.946Z</time></trkpt><trkpt lat="44.3556084" lon="7.8744472"><ele>612.5</ele><time>2026-04-26T11:07:44.946Z</time></trkpt><trkpt lat="44.3557124" lon="7.8745486"><ele>611.25</ele><time>2026-04-26T11:07:45.946Z</time></trkpt><trkpt lat="44.3558272" lon="7.8746467"><ele>610.0</ele><time>2026-04-26T11:07:46.946Z</time></trkpt><trkpt lat="44.3559573" lon="7.8747156"><ele>610.0</ele><time>2026-04-26T11:07:47.946Z</time></trkpt><trkpt lat="44.3560839" lon="7.8747769"><ele>610.0</ele><time>2026-04-26T11:07:48.946Z</time></trkpt><trkpt lat="44.3562121" lon="7.8748434"><ele>610.0</ele><time>2026-04-26T11:07:49.946Z</time></trkpt><trkpt lat="44.356331" lon="7.8749131"><ele>610.0</ele><time>2026-04-26T11:07:50.946Z</time></trkpt><trkpt lat="44.3564329" lon="7.8749932"><ele>610.2</ele><time>2026-04-26T11:07:51.946Z</time></trkpt><trkpt lat="44.3565267" lon="7.8750784"><ele>610.4</ele><time>2026-04-26T11:07:52.945Z</time></trkpt><trkpt lat="44.3566101" lon="7.8751939"><ele>610.6</ele><time>2026-04-26T11:07:53.946Z</time></trkpt><trkpt lat="44.3566733" lon="7.8753267"><ele>610.8</ele><time>2026-04-26T11:07:54.945Z</time></trkpt><trkpt lat="44.3567131" lon="7.8754385"><ele>611.0</ele><time>2026-04-26T11:07:55.946Z</time></trkpt><trkpt lat="44.3567368" lon="7.8755392"><ele>610.6</ele><time>2026-04-26T11:07:57.946Z</time></trkpt><trkpt lat="44.3567978" lon="7.8756858"><ele>610.2</ele><time>2026-04-26T11:08:01.945Z</time></trkpt><trkpt lat="44.3568519" lon="7.8757442"><ele>609.8</ele><time>2026-04-26T11:08:02.946Z</time></trkpt><trkpt lat="44.3569172" lon="7.8758112"><ele>609.4</ele><time>2026-04-26T11:08:03.946Z</time></trkpt><trkpt lat="44.3569986" lon="7.8758908"><ele>609.0</ele><time>2026-04-26T11:08:04.946Z</time></trkpt><trkpt lat="44.3570952" lon="7.8759705"><ele>609.0</ele><time>2026-04-26T11:08:05.946Z</time></trkpt><trkpt lat="44.3572014" lon="7.8760467"><ele>609.0</ele><time>2026-04-26T11:08:06.946Z</time></trkpt><trkpt lat="44.3573103" lon="7.8761193"><ele>609.0</ele><time>2026-04-26T11:08:07.946Z</time></trkpt><trkpt lat="44.3574181" lon="7.8761998"><ele>609.0</ele><time>2026-04-26T11:08:08.946Z</time></trkpt><trkpt lat="44.3575219" lon="7.8762934"><ele>610.5</ele><time>2026-04-26T11:08:09.946Z</time></trkpt><trkpt lat="44.3576216" lon="7.8763903"><ele>612.0</ele><time>2026-04-26T11:08:10.946Z</time></trkpt><trkpt lat="44.3577226" lon="7.8764943"><ele>613.5</ele><time>2026-04-26T11:08:11.946Z</time></trkpt><trkpt lat="44.3578273" lon="7.8765886"><ele>615.0</ele><time>2026-04-26T11:08:12.946Z</time></trkpt><trkpt lat="44.3579372" lon="7.876661"><ele>614.0</ele><time>2026-04-26T11:08:13.946Z</time></trkpt><trkpt lat="44.3580502" lon="7.8767305"><ele>613.0</ele><time>2026-04-26T11:08:14.946Z</time></trkpt><trkpt lat="44.3581599" lon="7.8768127"><ele>612.0</ele><time>2026-04-26T11:08:15.946Z</time></trkpt><trkpt lat="44.358271" lon="7.8769009"><ele>611.0</ele><time>2026-04-26T11:08:16.946Z</time></trkpt><trkpt lat="44.3583816" lon="7.8769914"><ele>614.25</ele><time>2026-04-26T11:08:17.946Z</time></trkpt><trkpt lat="44.3584945" lon="7.8770842"><ele>617.5</ele><time>2026-04-26T11:08:18.946Z</time></trkpt><trkpt lat="44.358612" lon="7.8771817"><ele>620.75</ele><time>2026-04-26T11:08:19.946Z</time></trkpt><trkpt lat="44.3587262" lon="7.8772747"><ele>624.0</ele><time>2026-04-26T11:08:20.945Z</time></trkpt><trkpt lat="44.358835" lon="7.8773535"><ele>623.4</ele><time>2026-04-26T11:08:21.946Z</time></trkpt><trkpt lat="44.358942" lon="7.8774118"><ele>622.8</ele><time>2026-04-26T11:08:22.946Z</time></trkpt><trkpt lat="44.3590359" lon="7.8774573"><ele>622.2</ele><time>2026-04-26T11:08:23.946Z</time></trkpt><trkpt lat="44.35911" lon="7.8774878"><ele>621.6</ele><time>2026-04-26T11:08:24.945Z</time></trkpt><trkpt lat="44.3591938" lon="7.8775409"><ele>621.0</ele><time>2026-04-26T11:08:26.946Z</time></trkpt><trkpt lat="44.3592105" lon="7.8777121"><ele>621.0</ele><time>2026-04-26T11:08:28.946Z</time></trkpt><trkpt lat="44.3591923" lon="7.8778067"><ele>621.0</ele><time>2026-04-26T11:08:29.945Z</time></trkpt><trkpt lat="44.3591583" lon="7.8778973"><ele>621.0</ele><time>2026-04-26T11:08:30.946Z</time></trkpt><trkpt lat="44.3591112" lon="7.8780021"><ele>621.0</ele><time>2026-04-26T11:08:31.946Z</time></trkpt><trkpt lat="44.3590589" lon="7.8781067"><ele>621.0</ele><time>2026-04-26T11:08:32.946Z</time></trkpt><trkpt lat="44.3590031" lon="7.8781937"><ele>621.0</ele><time>2026-04-26T11:08:33.946Z</time></trkpt><trkpt lat="44.3589427" lon="7.8782716"><ele>622.2</ele><time>2026-04-26T11:08:34.946Z</time></trkpt><trkpt lat="44.3588658" lon="7.87833"><ele>623.4000000000001</ele><time>2026-04-26T11:08:35.946Z</time></trkpt><trkpt lat="44.358763" lon="7.8783863"><ele>624.6</ele><time>2026-04-26T11:08:36.946Z</time></trkpt><trkpt lat="44.3586679" lon="7.8784331"><ele>625.8000000000001</ele><time>2026-04-26T11:08:37.946Z</time></trkpt><trkpt lat="44.3585691" lon="7.8784655"><ele>627.0</ele><time>2026-04-26T11:08:38.945Z</time></trkpt><trkpt lat="44.3584738" lon="7.8785105"><ele>629.2</ele><time>2026-04-26T11:08:39.946Z</time></trkpt><trkpt lat="44.3584022" lon="7.8785849"><ele>631.4000000000001</ele><time>2026-04-26T11:08:40.946Z</time></trkpt><trkpt lat="44.3583371" lon="7.8786692"><ele>633.5999999999999</ele><time>2026-04-26T11:08:41.946Z</time></trkpt><trkpt lat="44.3582756" lon="7.878774"><ele>635.8</ele><time>2026-04-26T11:08:42.946Z</time></trkpt><trkpt lat="44.3582232" lon="7.8788861"><ele>638.0</ele><time>2026-04-26T11:08:43.945Z</time></trkpt><trkpt lat="44.3581725" lon="7.8789717"><ele>638.0</ele><time>2026-04-26T11:08:44.946Z</time></trkpt><trkpt lat="44.3581099" lon="7.8790453"><ele>638.0</ele><time>2026-04-26T11:08:45.946Z</time></trkpt><trkpt lat="44.3580315" lon="7.8790777"><ele>638.0</ele><time>2026-04-26T11:08:46.946Z</time></trkpt><trkpt lat="44.3579175" lon="7.8791074"><ele>638.0</ele><time>2026-04-26T11:08:47.946Z</time></trkpt><trkpt lat="44.3578073" lon="7.8791384"><ele>638.0</ele><time>2026-04-26T11:08:48.94Z</time></trkpt><trkpt lat="44.3577157" lon="7.8791594"><ele>637.1999999999999</ele><time>2026-04-26T11:08:49.946Z</time></trkpt><trkpt lat="44.3576332" lon="7.8791755"><ele>636.4</ele><time>2026-04-26T11:08:50.942Z</time></trkpt><trkpt lat="44.3576201" lon="7.8792655"><ele>635.5999999999999</ele><time>2026-04-26T11:08:51.945Z</time></trkpt><trkpt lat="44.3575913" lon="7.8794048"><ele>634.8</ele><time>2026-04-26T11:08:52.946Z</time></trkpt><trkpt lat="44.3575612" lon="7.879548"><ele>634.0</ele><time>2026-04-26T11:08:53.946Z</time></trkpt><trkpt lat="44.3575212" lon="7.8796787"><ele>636.6</ele><time>2026-04-26T11:08:54.941Z</time></trkpt><trkpt lat="44.3574814" lon="7.8797984"><ele>639.2</ele><time>2026-04-26T11:08:55.946Z</time></trkpt><trkpt lat="44.3574383" lon="7.8798988"><ele>641.8000000000001</ele><time>2026-04-26T11:08:56.94Z</time></trkpt><trkpt lat="44.3573909" lon="7.8800255"><ele>644.4</ele><time>2026-04-26T11:08:57.946Z</time></trkpt><trkpt lat="44.3573354" lon="7.8801227"><ele>647.0</ele><time>2026-04-26T11:08:58.946Z</time></trkpt><trkpt lat="44.357262" lon="7.8803165"><ele>646.25</ele><time>2026-04-26T11:09:00.946Z</time></trkpt><trkpt lat="44.3572458" lon="7.8804376"><ele>645.5</ele><time>2026-04-26T11:09:01.946Z</time></trkpt><trkpt lat="44.3572265" lon="7.8805255"><ele>644.75</ele><time>2026-04-26T11:09:02.946Z</time></trkpt><trkpt lat="44.3571804" lon="7.8806903"><ele>644.0</ele><time>2026-04-26T11:09:04.945Z</time></trkpt><trkpt lat="44.357084" lon="7.8809033"><ele>647.4000000000001</ele><time>2026-04-26T11:09:06.946Z</time></trkpt><trkpt lat="44.3570797" lon="7.8810986"><ele>650.8</ele><time>2026-04-26T11:09:08.946Z</time></trkpt><trkpt lat="44.3570328" lon="7.8812129"><ele>654.2</ele><time>2026-04-26T11:09:09.946Z</time></trkpt><trkpt lat="44.3569829" lon="7.8813413"><ele>657.5999999999999</ele><time>2026-04-26T11:09:10.946Z</time></trkpt><trkpt lat="44.3569175" lon="7.8814544"><ele>661.0</ele><time>2026-04-26T11:09:11.946Z</time></trkpt><trkpt lat="44.3568579" lon="7.8815456"><ele>661.0</ele><time>2026-04-26T11:09:12.946Z</time></trkpt><trkpt lat="44.3567814" lon="7.8816821"><ele>661.0</ele><time>2026-04-26T11:09:13.946Z</time></trkpt><trkpt lat="44.3567114" lon="7.8817553"><ele>661.0</ele><time>2026-04-26T11:09:14.946Z</time></trkpt><trkpt lat="44.3566245" lon="7.8818069"><ele>661.0</ele><time>2026-04-26T11:09:15.946Z</time></trkpt><trkpt lat="44.3565421" lon="7.8818759"><ele>661.0</ele><time>2026-04-26T11:09:16.946Z</time></trkpt><trkpt lat="44.3564583" lon="7.8818998"><ele>665.1999999999999</ele><time>2026-04-26T11:09:17.945Z</time></trkpt><trkpt lat="44.3563458" lon="7.8819368"><ele>669.4</ele><time>2026-04-26T11:09:18.946Z</time></trkpt><trkpt lat="44.3562492" lon="7.8819552"><ele>673.6</ele><time>2026-04-26T11:09:19.94Z</time></trkpt><trkpt lat="44.3561607" lon="7.8819868"><ele>677.8</ele><time>2026-04-26T11:09:20.946Z</time></trkpt><trkpt lat="44.3560693" lon="7.881988"><ele>682.0</ele><time>2026-04-26T11:09:21.946Z</time></trkpt><trkpt lat="44.3559651" lon="7.8819455"><ele>682.0</ele><time>2026-04-26T11:09:22.945Z</time></trkpt><trkpt lat="44.3558618" lon="7.8819146"><ele>682.0</ele><time>2026-04-26T11:09:23.946Z</time></trkpt><trkpt lat="44.35576" lon="7.8818402"><ele>682.0</ele><time>2026-04-26T11:09:24.946Z</time></trkpt><trkpt lat="44.3556656" lon="7.8817827"><ele>682.0</ele><time>2026-04-26T11:09:25.946Z</time></trkpt><trkpt lat="44.355581" lon="7.8816996"><ele>682.0</ele><time>2026-04-26T11:09:26.946Z</time></trkpt><trkpt lat="44.3555058" lon="7.8816855"><ele>681.6</ele><time>2026-04-26T11:09:27.946Z</time></trkpt><trkpt lat="44.3554332" lon="7.8816465"><ele>681.2</ele><time>2026-04-26T11:09:28.941Z</time></trkpt><trkpt lat="44.3553592" lon="7.8816754"><ele>680.8</ele><time>2026-04-26T11:09:29.946Z</time></trkpt><trkpt lat="44.3552873" lon="7.8817069"><ele>680.4</ele><time>2026-04-26T11:09:30.94Z</time></trkpt><trkpt lat="44.3552374" lon="7.8817998"><ele>680.0</ele><time>2026-04-26T11:09:31.946Z</time></trkpt><trkpt lat="44.3551994" lon="7.8820064"><ele>680.0</ele><time>2026-04-26T11:09:33.946Z</time></trkpt><trkpt lat="44.3551478" lon="7.8821683"><ele>680.0</ele><time>2026-04-26T11:09:34.946Z</time></trkpt><trkpt lat="44.355092" lon="7.8822848"><ele>680.0</ele><time>2026-04-26T11:09:35.941Z</time></trkpt><trkpt lat="44.3550347" lon="7.882381"><ele>680.0</ele><time>2026-04-26T11:09:36.946Z</time></trkpt><trkpt lat="44.3549751" lon="7.8824671"><ele>680.0</ele><time>2026-04-26T11:09:37.94Z</time></trkpt><trkpt lat="44.3549174" lon="7.8825634"><ele>678.8333333333333</ele><time>2026-04-26T11:09:38.946Z</time></trkpt><trkpt lat="44.3548642" lon="7.8826556"><ele>677.6666666666666</ele><time>2026-04-26T11:09:39.94Z</time></trkpt><trkpt lat="44.3548008" lon="7.8827567"><ele>676.5</ele><time>2026-04-26T11:09:40.946Z</time></trkpt><trkpt lat="44.3547842" lon="7.8828947"><ele>675.3333333333334</ele><time>2026-04-26T11:09:41.946Z</time></trkpt><trkpt lat="44.3547449" lon="7.8829854"><ele>674.1666666666667</ele><time>2026-04-26T11:09:42.94Z</time></trkpt><trkpt lat="44.3547272" lon="7.8830848"><ele>673.0</ele><time>2026-04-26T11:09:43.946Z</time></trkpt><trkpt lat="44.3546395" lon="7.8831253"><ele>673.0</ele><time>2026-04-26T11:09:44.945Z</time></trkpt><trkpt lat="44.3545901" lon="7.8831981"><ele>673.0</ele><time>2026-04-26T11:09:45.946Z</time></trkpt><trkpt lat="44.3544805" lon="7.8832392"><ele>673.0</ele><time>2026-04-26T11:09:46.946Z</time></trkpt><trkpt lat="44.3543715" lon="7.8833141"><ele>673.0</ele><time>2026-04-26T11:09:47.946Z</time></trkpt><trkpt lat="44.3542853" lon="7.8833911"><ele>673.0</ele><time>2026-04-26T11:09:48.946Z</time></trkpt><trkpt lat="44.3542163" lon="7.8834483"><ele>673.2</ele><time>2026-04-26T11:09:49.946Z</time></trkpt><trkpt lat="44.3541391" lon="7.8835378"><ele>673.4</ele><time>2026-04-26T11:09:50.946Z</time></trkpt><trkpt lat="44.3540689" lon="7.8836576"><ele>673.6</ele><time>2026-04-26T11:09:51.946Z</time></trkpt><trkpt lat="44.3539739" lon="7.8837846"><ele>673.8000000000001</ele><time>2026-04-26T11:09:53.945Z</time></trkpt><trkpt lat="44.3540651" lon="7.8837393"><ele>674.0</ele><time>2026-04-26T11:16:00.946Z</time></trkpt><trkpt lat="44.3541215" lon="7.8836809"><ele>674.0</ele><time>2026-04-26T11:16:01.946Z</time></trkpt><trkpt lat="44.3541712" lon="7.8836067"><ele>674.0</ele><time>2026-04-26T11:16:02.946Z</time></trkpt><trkpt lat="44.3542332" lon="7.8835267"><ele>674.0</ele><time>2026-04-26T11:16:03.946Z</time></trkpt><trkpt lat="44.3543028" lon="7.8834346"><ele>674.0</ele><time>2026-04-26T11:16:04.946Z</time></trkpt><trkpt lat="44.3543587" lon="7.8833424"><ele>674.0</ele><time>2026-04-26T11:16:05.946Z</time></trkpt><trkpt lat="44.3544199" lon="7.8832723"><ele>674.0</ele><time>2026-04-26T11:16:06.946Z</time></trkpt><trkpt lat="44.3545065" lon="7.8832687"><ele>673.8000000000001</ele><time>2026-04-26T11:16:07.945Z</time></trkpt><trkpt lat="44.3545874" lon="7.8832181"><ele>673.6</ele><time>2026-04-26T11:16:09.946Z</time></trkpt><trkpt lat="44.3546488" lon="7.883095"><ele>673.4</ele><time>2026-04-26T11:16:11.946Z</time></trkpt><trkpt lat="44.3546954" lon="7.8830151"><ele>673.2</ele><time>2026-04-26T11:16:12.946Z</time></trkpt><trkpt lat="44.3547603" lon="7.8828926"><ele>673.0</ele><time>2026-04-26T11:16:13.946Z</time></trkpt><trkpt lat="44.354813" lon="7.8827954"><ele>674.4</ele><time>2026-04-26T11:16:14.938Z</time></trkpt><trkpt lat="44.3548899" lon="7.8826617"><ele>675.8</ele><time>2026-04-26T11:16:15.946Z</time></trkpt><trkpt lat="44.354953" lon="7.8825589"><ele>677.2</ele><time>2026-04-26T11:16:16.946Z</time></trkpt><trkpt lat="44.3549883" lon="7.882464"><ele>678.6</ele><time>2026-04-26T11:16:17.946Z</time></trkpt><trkpt lat="44.3550414" lon="7.8823779"><ele>680.0</ele><time>2026-04-26T11:16:18.946Z</time></trkpt><trkpt lat="44.3551087" lon="7.8822741"><ele>680.0</ele><time>2026-04-26T11:16:19.946Z</time></trkpt><trkpt lat="44.3551572" lon="7.8821618"><ele>680.0</ele><time>2026-04-26T11:16:20.945Z</time></trkpt><trkpt lat="44.3551926" lon="7.8820308"><ele>680.0</ele><time>2026-04-26T11:16:21.946Z</time></trkpt><trkpt lat="44.3552278" lon="7.8819204"><ele>680.0</ele><time>2026-04-26T11:16:22.945Z</time></trkpt><trkpt lat="44.3552648" lon="7.8818215"><ele>680.0</ele><time>2026-04-26T11:16:23.946Z</time></trkpt><trkpt lat="44.3552932" lon="7.8817315"><ele>680.0</ele><time>2026-04-26T11:16:24.946Z</time></trkpt><trkpt lat="44.3553918" lon="7.881719"><ele>680.3333333333333</ele><time>2026-04-26T11:16:26.946Z</time></trkpt><trkpt lat="44.3554629" lon="7.8816928"><ele>680.6666666666666</ele><time>2026-04-26T11:16:27.946Z</time></trkpt><trkpt lat="44.3555312" lon="7.8816668"><ele>681.0</ele><time>2026-04-26T11:16:28.946Z</time></trkpt><trkpt lat="44.3556184" lon="7.8817504"><ele>681.3333333333334</ele><time>2026-04-26T11:16:30.946Z</time></trkpt><trkpt lat="44.3556748" lon="7.8817918"><ele>681.6666666666667</ele><time>2026-04-26T11:16:31.946Z</time></trkpt><trkpt lat="44.3557566" lon="7.8818604"><ele>682.0</ele><time>2026-04-26T11:16:32.946Z</time></trkpt><trkpt lat="44.3558972" lon="7.8819338"><ele>682.0</ele><time>2026-04-26T11:16:34.945Z</time></trkpt><trkpt lat="44.3559834" lon="7.8819676"><ele>682.0</ele><time>2026-04-26T11:16:35.946Z</time></trkpt><trkpt lat="44.3560716" lon="7.8820037"><ele>682.0</ele><time>2026-04-26T11:16:36.945Z</time></trkpt><trkpt lat="44.3561478" lon="7.8820007"><ele>682.0</ele><time>2026-04-26T11:16:37.945Z</time></trkpt><trkpt lat="44.3562118" lon="7.8820134"><ele>682.0</ele><time>2026-04-26T11:16:38.946Z</time></trkpt><trkpt lat="44.3563189" lon="7.8820184"><ele>682.0</ele><time>2026-04-26T11:16:39.945Z</time></trkpt><trkpt lat="44.3564086" lon="7.8819893"><ele>681.0</ele><time>2026-04-26T11:16:40.945Z</time></trkpt><trkpt lat="44.3564947" lon="7.8819353"><ele>680.0</ele><time>2026-04-26T11:16:41.945Z</time></trkpt><trkpt lat="44.3565816" lon="7.8818769"><ele>679.0</ele><time>2026-04-26T11:16:42.945Z</time></trkpt><trkpt lat="44.3566435" lon="7.8817923"><ele>678.0</ele><time>2026-04-26T11:16:43.945Z</time></trkpt><trkpt lat="44.3567158" lon="7.8817507"><ele>677.0</ele><time>2026-04-26T11:16:44.945Z</time></trkpt><trkpt lat="44.3567996" lon="7.8816589"><ele>674.3333333333333</ele><time>2026-04-26T11:16:45.946Z</time></trkpt><trkpt lat="44.3568514" lon="7.8815798"><ele>671.6666666666666</ele><time>2026-04-26T11:16:46.946Z</time></trkpt><trkpt lat="44.3569078" lon="7.8814762"><ele>669.0</ele><time>2026-04-26T11:16:47.946Z</time></trkpt><trkpt lat="44.3569479" lon="7.8813864"><ele>666.3333333333334</ele><time>2026-04-26T11:16:49.946Z</time></trkpt><trkpt lat="44.356978" lon="7.8812949"><ele>663.6666666666667</ele><time>2026-04-26T11:16:52.946Z</time></trkpt><trkpt lat="44.3570413" lon="7.8812091"><ele>661.0</ele><time>2026-04-26T11:16:55.946Z</time></trkpt><trkpt lat="44.3570682" lon="7.8811292"><ele>661.0</ele><time>2026-04-26T11:16:57.944Z</time></trkpt><trkpt lat="44.3570787" lon="7.8810048"><ele>661.0</ele><time>2026-04-26T11:16:58.946Z</time></trkpt><trkpt lat="44.3571051" lon="7.88091"><ele>661.0</ele><time>2026-04-26T11:16:59.946Z</time></trkpt><trkpt lat="44.3571284" lon="7.8808266"><ele>661.0</ele><time>2026-04-26T11:17:00.946Z</time></trkpt><trkpt lat="44.3571759" lon="7.8807345"><ele>661.0</ele><time>2026-04-26T11:17:01.945Z</time></trkpt><trkpt lat="44.3572282" lon="7.8806374"><ele>661.0</ele><time>2026-04-26T11:17:02.946Z</time></trkpt><trkpt lat="44.35727" lon="7.8805336"><ele>660.0</ele><time>2026-04-26T11:17:03.946Z</time></trkpt><trkpt lat="44.3573043" lon="7.880421"><ele>659.0</ele><time>2026-04-26T11:17:04.946Z</time></trkpt><trkpt lat="44.357331" lon="7.8803159"><ele>658.0</ele><time>2026-04-26T11:17:05.946Z</time></trkpt><trkpt lat="44.3573709" lon="7.880178"><ele>657.0</ele><time>2026-04-26T11:17:07.946Z</time></trkpt><trkpt lat="44.3573965" lon="7.8800968"><ele>656.0</ele><time>2026-04-26T11:17:08.945Z</time></trkpt><trkpt lat="44.3574502" lon="7.8800132"><ele>655.0</ele><time>2026-04-26T11:17:09.945Z</time></trkpt><trkpt lat="44.3575026" lon="7.8799218"><ele>653.8571428571429</ele><time>2026-04-26T11:17:10.946Z</time></trkpt><trkpt lat="44.3575529" lon="7.8798461"><ele>652.7142857142857</ele><time>2026-04-26T11:17:11.945Z</time></trkpt><trkpt lat="44.3575876" lon="7.8797698"><ele>651.5714285714286</ele><time>2026-04-26T11:17:12.945Z</time></trkpt><trkpt lat="44.3576278" lon="7.8796619"><ele>650.4285714285714</ele><time>2026-04-26T11:17:13.946Z</time></trkpt><trkpt lat="44.3576817" lon="7.8795799"><ele>649.2857142857143</ele><time>2026-04-26T11:17:14.946Z</time></trkpt><trkpt lat="44.3577235" lon="7.8795098"><ele>648.1428571428571</ele><time>2026-04-26T11:17:15.945Z</time></trkpt><trkpt lat="44.3577382" lon="7.8794234"><ele>647.0</ele><time>2026-04-26T11:17:16.946Z</time></trkpt><trkpt lat="44.3577896" lon="7.8793538"><ele>647.0</ele><time>2026-04-26T11:17:17.946Z</time></trkpt><trkpt lat="44.3578441" lon="7.8792843"><ele>647.0</ele><time>2026-04-26T11:17:18.946Z</time></trkpt><trkpt lat="44.3578865" lon="7.8792116"><ele>647.0</ele><time>2026-04-26T11:17:19.946Z</time></trkpt><trkpt lat="44.3579421" lon="7.8791485"><ele>647.0</ele><time>2026-04-26T11:17:20.946Z</time></trkpt><trkpt lat="44.3580185" lon="7.8791637"><ele>647.0</ele><time>2026-04-26T11:17:21.946Z</time></trkpt><trkpt lat="44.3581342" lon="7.8791068"><ele>647.0</ele><time>2026-04-26T11:17:23.946Z</time></trkpt><trkpt lat="44.3582177" lon="7.8790214"><ele>645.2</ele><time>2026-04-26T11:17:25.946Z</time></trkpt><trkpt lat="44.3583074" lon="7.8787917"><ele>643.4000000000001</ele><time>2026-04-26T11:17:27.946Z</time></trkpt><trkpt lat="44.3583579" lon="7.8787049"><ele>641.5999999999999</ele><time>2026-04-26T11:17:28.946Z</time></trkpt><trkpt lat="44.3584333" lon="7.8786194"><ele>639.8</ele><time>2026-04-26T11:17:29.946Z</time></trkpt><trkpt lat="44.3584874" lon="7.8785319"><ele>638.0</ele><time>2026-04-26T11:17:30.946Z</time></trkpt><trkpt lat="44.3585941" lon="7.8784659"><ele>638.0</ele><time>2026-04-26T11:17:31.946Z</time></trkpt><trkpt lat="44.3586809" lon="7.8784405"><ele>638.0</ele><time>2026-04-26T11:17:32.946Z</time></trkpt><trkpt lat="44.3587416" lon="7.8783817"><ele>638.0</ele><time>2026-04-26T11:17:33.945Z</time></trkpt><trkpt lat="44.3588401" lon="7.8783268"><ele>638.0</ele><time>2026-04-26T11:17:34.946Z</time></trkpt><trkpt lat="44.3589095" lon="7.8782771"><ele>638.0</ele><time>2026-04-26T11:17:35.946Z</time></trkpt><trkpt lat="44.3589613" lon="7.8781892"><ele>638.0</ele><time>2026-04-26T11:17:36.946Z</time></trkpt><trkpt lat="44.3590231" lon="7.8781187"><ele>635.1666666666666</ele><time>2026-04-26T11:17:37.946Z</time></trkpt><trkpt lat="44.3590769" lon="7.8780241"><ele>632.3333333333333</ele><time>2026-04-26T11:17:38.946Z</time></trkpt><trkpt lat="44.3591366" lon="7.8779283"><ele>629.5</ele><time>2026-04-26T11:17:39.946Z</time></trkpt><trkpt lat="44.3591845" lon="7.8778378"><ele>626.6666666666666</ele><time>2026-04-26T11:17:40.945Z</time></trkpt><trkpt lat="44.3592273" lon="7.877739"><ele>623.8333333333334</ele><time>2026-04-26T11:17:41.945Z</time></trkpt><trkpt lat="44.3592636" lon="7.8776498"><ele>621.0</ele><time>2026-04-26T11:17:42.946Z</time></trkpt><trkpt lat="44.3592884" lon="7.8775394"><ele>619.4</ele><time>2026-04-26T11:17:44.945Z</time></trkpt><trkpt lat="44.3593107" lon="7.8774519"><ele>617.8</ele><time>2026-04-26T11:17:58.946Z</time></trkpt><trkpt lat="44.3593672" lon="7.8772666"><ele>616.1999999999999</ele><time>2026-04-26T11:18:00.946Z</time></trkpt><trkpt lat="44.3594066" lon="7.8771564"><ele>614.6</ele><time>2026-04-26T11:18:01.946Z</time></trkpt><trkpt lat="44.3594454" lon="7.8770457"><ele>613.0</ele><time>2026-04-26T11:18:02.946Z</time></trkpt><trkpt lat="44.3594621" lon="7.8769378"><ele>613.0</ele><time>2026-04-26T11:18:03.946Z</time></trkpt><trkpt lat="44.3594914" lon="7.876837"><ele>613.0</ele><time>2026-04-26T11:18:04.946Z</time></trkpt><trkpt lat="44.3595147" lon="7.8767069"><ele>613.0</ele><time>2026-04-26T11:18:05.946Z</time></trkpt><trkpt lat="44.3595407" lon="7.8765968"><ele>613.0</ele><time>2026-04-26T11:18:06.946Z</time></trkpt><trkpt lat="44.3595512" lon="7.8764546"><ele>613.0</ele><time>2026-04-26T11:18:07.946Z</time></trkpt><trkpt lat="44.3595614" lon="7.8763367"><ele>613.0</ele><time>2026-04-26T11:18:08.946Z</time></trkpt><trkpt lat="44.3595619" lon="7.876245"><ele>611.3333333333334</ele><time>2026-04-26T11:18:09.945Z</time></trkpt><trkpt lat="44.3595757" lon="7.8761523"><ele>609.6666666666667</ele><time>2026-04-26T11:18:10.946Z</time></trkpt><trkpt lat="44.359597" lon="7.8760587"><ele>608.0</ele><time>2026-04-26T11:18:11.945Z</time></trkpt><trkpt lat="44.3596513" lon="7.8759914"><ele>606.3333333333334</ele><time>2026-04-26T11:18:14.946Z</time></trkpt><trkpt lat="44.3597875" lon="7.8759251"><ele>604.6666666666666</ele><time>2026-04-26T11:18:16.946Z</time></trkpt><trkpt lat="44.3598594" lon="7.8758738"><ele>603.0</ele><time>2026-04-26T11:18:17.946Z</time></trkpt><trkpt lat="44.3599167" lon="7.8758169"><ele>600.4</ele><time>2026-04-26T11:18:18.946Z</time></trkpt><trkpt lat="44.3599948" lon="7.8757619"><ele>597.8</ele><time>2026-04-26T11:18:19.946Z</time></trkpt><trkpt lat="44.3600635" lon="7.8757252"><ele>595.2</ele><time>2026-04-26T11:18:20.946Z</time></trkpt><trkpt lat="44.3601292" lon="7.8756989"><ele>592.6</ele><time>2026-04-26T11:18:21.946Z</time></trkpt><trkpt lat="44.360217" lon="7.875554"><ele>590.0</ele><time>2026-04-26T11:18:23.946Z</time></trkpt><trkpt lat="44.360268" lon="7.8754188"><ele>590.0</ele><time>2026-04-26T11:18:24.945Z</time></trkpt><trkpt lat="44.360319" lon="7.8752905"><ele>590.0</ele><time>2026-04-26T11:18:25.946Z</time></trkpt><trkpt lat="44.3603735" lon="7.8751778"><ele>590.0</ele><time>2026-04-26T11:18:26.946Z</time></trkpt><trkpt lat="44.36044" lon="7.8750704"><ele>590.0</ele><time>2026-04-26T11:18:27.946Z</time></trkpt><trkpt lat="44.3605307" lon="7.8749568"><ele>590.0</ele><time>2026-04-26T11:18:28.946Z</time></trkpt><trkpt lat="44.3606224" lon="7.8748484"><ele>586.6</ele><time>2026-04-26T11:18:29.945Z</time></trkpt><trkpt lat="44.3607036" lon="7.874752"><ele>583.2</ele><time>2026-04-26T11:18:30.946Z</time></trkpt><trkpt lat="44.3607691" lon="7.8746525"><ele>579.8</ele><time>2026-04-26T11:18:31.946Z</time></trkpt><trkpt lat="44.3608329" lon="7.8745655"><ele>576.4</ele><time>2026-04-26T11:18:32.945Z</time></trkpt><trkpt lat="44.360902" lon="7.8744899"><ele>573.0</ele><time>2026-04-26T11:18:33.946Z</time></trkpt><trkpt lat="44.3609528" lon="7.8744028"><ele>573.0</ele><time>2026-04-26T11:18:34.946Z</time></trkpt><trkpt lat="44.3609841" lon="7.8743044"><ele>573.0</ele><time>2026-04-26T11:18:35.946Z</time></trkpt><trkpt lat="44.3609916" lon="7.8741629"><ele>573.0</ele><time>2026-04-26T11:18:36.946Z</time></trkpt><trkpt lat="44.3609883" lon="7.8740096"><ele>573.0</ele><time>2026-04-26T11:18:37.946Z</time></trkpt><trkpt lat="44.3609752" lon="7.8738797"><ele>573.0</ele><time>2026-04-26T11:18:38.946Z</time></trkpt><trkpt lat="44.3609595" lon="7.8737619"><ele>572.8333333333334</ele><time>2026-04-26T11:18:39.946Z</time></trkpt><trkpt lat="44.3609427" lon="7.8736722"><ele>572.6666666666666</ele><time>2026-04-26T11:18:40.946Z</time></trkpt><trkpt lat="44.3609068" lon="7.873579"><ele>572.5</ele><time>2026-04-26T11:18:41.945Z</time></trkpt><trkpt lat="44.3608457" lon="7.8734708"><ele>572.3333333333333</ele><time>2026-04-26T11:18:43.946Z</time></trkpt><trkpt lat="44.360792" lon="7.8733933"><ele>572.1666666666666</ele><time>2026-04-26T11:18:53.946Z</time></trkpt><trkpt lat="44.3607532" lon="7.8733085"><ele>572.0</ele><time>2026-04-26T11:19:00.946Z</time></trkpt><trkpt lat="44.3606886" lon="7.8732477"><ele>572.0</ele><time>2026-04-26T11:19:09.946Z</time></trkpt><trkpt lat="44.3606416" lon="7.8731717"><ele>572.0</ele><time>2026-04-26T11:19:13.946Z</time></trkpt><trkpt lat="44.3607065" lon="7.8732391"><ele>572.0</ele><time>2026-04-26T11:19:23.946Z</time></trkpt><trkpt lat="44.3608043" lon="7.8733727"><ele>572.0</ele><time>2026-04-26T11:19:25.946Z</time></trkpt><trkpt lat="44.3608607" lon="7.8734492"><ele>572.0</ele><time>2026-04-26T11:19:26.946Z</time></trkpt><trkpt lat="44.3609067" lon="7.8735156"><ele>572.0</ele><time>2026-04-26T11:19:27.946Z</time></trkpt><trkpt lat="44.3609585" lon="7.8736167"><ele>572.0</ele><time>2026-04-26T11:19:29.946Z</time></trkpt><trkpt lat="44.360992" lon="7.873711"><ele>572.0</ele><time>2026-04-26T11:19:31.946Z</time></trkpt><trkpt lat="44.361075" lon="7.8737345"><ele>572.0</ele><time>2026-04-26T11:19:33.945Z</time></trkpt><trkpt lat="44.3611489" lon="7.8737464"><ele>572.0</ele><time>2026-04-26T11:19:34.946Z</time></trkpt><trkpt lat="44.3612276" lon="7.8737681"><ele>572.0</ele><time>2026-04-26T11:19:35.945Z</time></trkpt><trkpt lat="44.3612949" lon="7.8737835"><ele>572.0</ele><time>2026-04-26T11:19:36.946Z</time></trkpt><trkpt lat="44.3613671" lon="7.8737972"><ele>569.4</ele><time>2026-04-26T11:19:37.946Z</time></trkpt><trkpt lat="44.3614419" lon="7.8738054"><ele>566.8000000000001</ele><time>2026-04-26T11:19:38.945Z</time></trkpt><trkpt lat="44.3615536" lon="7.8737693"><ele>564.2</ele><time>2026-04-26T11:19:40.946Z</time></trkpt><trkpt lat="44.3616363" lon="7.8737336"><ele>561.6</ele><time>2026-04-26T11:19:41.946Z</time></trkpt><trkpt lat="44.3617012" lon="7.8737054"><ele>559.0</ele><time>2026-04-26T11:19:42.946Z</time></trkpt><trkpt lat="44.361823" lon="7.8736404"><ele>559.0</ele><time>2026-04-26T11:19:44.946Z</time></trkpt><trkpt lat="44.3619296" lon="7.8735694"><ele>559.0</ele><time>2026-04-26T11:19:46.946Z</time></trkpt><trkpt lat="44.3620343" lon="7.8734781"><ele>559.0</ele><time>2026-04-26T11:19:48.945Z</time></trkpt><trkpt lat="44.3620878" lon="7.8734069"><ele>559.0</ele><time>2026-04-26T11:19:49.946Z</time></trkpt><trkpt lat="44.3621439" lon="7.8733489"><ele>559.0</ele><time>2026-04-26T11:19:50.946Z</time></trkpt><trkpt lat="44.3622107" lon="7.8732884"><ele>556.4</ele><time>2026-04-26T11:19:51.946Z</time></trkpt><trkpt lat="44.3622868" lon="7.8732272"><ele>553.8</ele><time>2026-04-26T11:19:52.946Z</time></trkpt><trkpt lat="44.3623705" lon="7.8731614"><ele>551.2</ele><time>2026-04-26T11:19:53.945Z</time></trkpt><trkpt lat="44.3624524" lon="7.873092"><ele>548.6</ele><time>2026-04-26T11:19:54.945Z</time></trkpt><trkpt lat="44.3625349" lon="7.8730275"><ele>546.0</ele><time>2026-04-26T11:19:55.946Z</time></trkpt><trkpt lat="44.3626069" lon="7.8729633"><ele>546.0</ele><time>2026-04-26T11:19:56.946Z</time></trkpt><trkpt lat="44.3626839" lon="7.8729151"><ele>546.0</ele><time>2026-04-26T11:19:57.946Z</time></trkpt><trkpt lat="44.3627633" lon="7.8728616"><ele>546.0</ele><time>2026-04-26T11:19:58.946Z</time></trkpt><trkpt lat="44.3628442" lon="7.8728004"><ele>546.0</ele><time>2026-04-26T11:19:59.945Z</time></trkpt><trkpt lat="44.362908" lon="7.8727406"><ele>546.0</ele><time>2026-04-26T11:20:00.946Z</time></trkpt><trkpt lat="44.3629905" lon="7.8726822"><ele>546.0</ele><time>2026-04-26T11:20:01.946Z</time></trkpt><trkpt lat="44.3630638" lon="7.8726284"><ele>545.8333333333334</ele><time>2026-04-26T11:20:02.945Z</time></trkpt><trkpt lat="44.3631371" lon="7.8725868"><ele>545.6666666666666</ele><time>2026-04-26T11:20:03.946Z</time></trkpt><trkpt lat="44.3632197" lon="7.8725515"><ele>545.5</ele><time>2026-04-26T11:20:04.946Z</time></trkpt><trkpt lat="44.3632891" lon="7.8725163"><ele>545.3333333333333</ele><time>2026-04-26T11:20:05.946Z</time></trkpt><trkpt lat="44.3633903" lon="7.8724826"><ele>545.1666666666666</ele><time>2026-04-26T11:20:07.945Z</time></trkpt><trkpt lat="44.3634658" lon="7.8724925"><ele>545.0</ele><time>2026-04-26T11:20:08.946Z</time></trkpt><trkpt lat="44.3635393" lon="7.8724959"><ele>545.0</ele><time>2026-04-26T11:20:09.946Z</time></trkpt><trkpt lat="44.3636253" lon="7.8724777"><ele>545.0</ele><time>2026-04-26T11:20:10.946Z</time></trkpt><trkpt lat="44.3637045" lon="7.8724578"><ele>545.0</ele><time>2026-04-26T11:20:11.945Z</time></trkpt><trkpt lat="44.3637864" lon="7.8724364"><ele>545.0</ele><time>2026-04-26T11:20:12.946Z</time></trkpt><trkpt lat="44.3638628" lon="7.8723951"><ele>545.0</ele><time>2026-04-26T11:20:13.946Z</time></trkpt><trkpt lat="44.3639392" lon="7.8723428"><ele>545.0</ele><time>2026-04-26T11:20:14.946Z</time></trkpt><trkpt lat="44.3640102" lon="7.8723036"><ele>542.6</ele><time>2026-04-26T11:20:15.945Z</time></trkpt><trkpt lat="44.364073" lon="7.8722498"><ele>540.2</ele><time>2026-04-26T11:20:16.946Z</time></trkpt><trkpt lat="44.3641367" lon="7.8721734"><ele>537.8</ele><time>2026-04-26T11:20:17.945Z</time></trkpt><trkpt lat="44.3642133" lon="7.8720661"><ele>535.4</ele><time>2026-04-26T11:20:18.946Z</time></trkpt><trkpt lat="44.3642826" lon="7.8719817"><ele>533.0</ele><time>2026-04-26T11:20:19.946Z</time></trkpt><trkpt lat="44.3643641" lon="7.8718942"><ele>533.0</ele><time>2026-04-26T11:20:20.946Z</time></trkpt><trkpt lat="44.3644525" lon="7.8718227"><ele>533.0</ele><time>2026-04-26T11:20:21.946Z</time></trkpt><trkpt lat="44.3645526" lon="7.8717408"><ele>533.0</ele><time>2026-04-26T11:20:22.945Z</time></trkpt><trkpt lat="44.364642" lon="7.8716787"><ele>533.0</ele><time>2026-04-26T11:20:23.945Z</time></trkpt><trkpt lat="44.3647275" lon="7.8716189"><ele>533.0</ele><time>2026-04-26T11:20:24.946Z</time></trkpt><trkpt lat="44.3648152" lon="7.87156"><ele>531.4</ele><time>2026-04-26T11:20:25.945Z</time></trkpt><trkpt lat="44.3649359" lon="7.8715285"><ele>529.8</ele><time>2026-04-26T11:20:26.946Z</time></trkpt><trkpt lat="44.3650503" lon="7.8715063"><ele>528.2</ele><time>2026-04-26T11:20:27.946Z</time></trkpt><trkpt lat="44.3651438" lon="7.8714852"><ele>526.6</ele><time>2026-04-26T11:20:28.945Z</time></trkpt><trkpt lat="44.3652161" lon="7.8714722"><ele>525.0</ele><time>2026-04-26T11:20:29.945Z</time></trkpt><trkpt lat="44.3653594" lon="7.8714702"><ele>525.0</ele><time>2026-04-26T11:20:31.946Z</time></trkpt><trkpt lat="44.3654598" lon="7.8714788"><ele>525.0</ele><time>2026-04-26T11:20:32.946Z</time></trkpt><trkpt lat="44.3655725" lon="7.8714841"><ele>525.0</ele><time>2026-04-26T11:20:33.946Z</time></trkpt><trkpt lat="44.3656863" lon="7.8714855"><ele>525.0</ele><time>2026-04-26T11:20:34.946Z</time></trkpt><trkpt lat="44.3657924" lon="7.8714974"><ele>525.0</ele><time>2026-04-26T11:20:35.946Z</time></trkpt><trkpt lat="44.3658897" lon="7.8714999"><ele>525.2</ele><time>2026-04-26T11:20:36.945Z</time></trkpt><trkpt lat="44.3659889" lon="7.8714815"><ele>525.4</ele><time>2026-04-26T11:20:37.946Z</time></trkpt><trkpt lat="44.3660897" lon="7.8714302"><ele>525.6</ele><time>2026-04-26T11:20:38.946Z</time></trkpt><trkpt lat="44.3661756" lon="7.8713556"><ele>525.8</ele><time>2026-04-26T11:20:39.946Z</time></trkpt><trkpt lat="44.366243" lon="7.8712666"><ele>526.0</ele><time>2026-04-26T11:20:40.946Z</time></trkpt><trkpt lat="44.3662904" lon="7.8711884"><ele>526.0</ele><time>2026-04-26T11:20:41.946Z</time></trkpt><trkpt lat="44.3663324" lon="7.8711211"><ele>526.0</ele><time>2026-04-26T11:20:42.946Z</time></trkpt><trkpt lat="44.3663612" lon="7.8710198"><ele>526.0</ele><time>2026-04-26T11:22:04.945Z</time></trkpt><trkpt lat="44.366362" lon="7.8709009"><ele>526.0</ele><time>2026-04-26T11:22:06.946Z</time></trkpt><trkpt lat="44.3663415" lon="7.8708078"><ele>526.0</ele><time>2026-04-26T11:22:07.946Z</time></trkpt><trkpt lat="44.3663125" lon="7.8706948"><ele>526.0</ele><time>2026-04-26T11:22:08.946Z</time></trkpt><trkpt lat="44.3662741" lon="7.8705689"><ele>525.0</ele><time>2026-04-26T11:22:09.946Z</time></trkpt><trkpt lat="44.3662269" lon="7.8704328"><ele>524.0</ele><time>2026-04-26T11:22:10.946Z</time></trkpt><trkpt lat="44.3661729" lon="7.8702873"><ele>523.0</ele><time>2026-04-26T11:22:11.946Z</time></trkpt><trkpt lat="44.3661209" lon="7.8701478"><ele>522.0</ele><time>2026-04-26T11:22:12.946Z</time></trkpt><trkpt lat="44.3660678" lon="7.8700144"><ele>521.0</ele><time>2026-04-26T11:22:13.946Z</time></trkpt><trkpt lat="44.3660044" lon="7.8698809"><ele>520.6</ele><time>2026-04-26T11:22:14.946Z</time></trkpt><trkpt lat="44.3659493" lon="7.8697612"><ele>520.2</ele><time>2026-04-26T11:22:15.946Z</time></trkpt><trkpt lat="44.3659109" lon="7.869641"><ele>519.8</ele><time>2026-04-26T11:22:16.946Z</time></trkpt><trkpt lat="44.3658849" lon="7.8695122"><ele>519.4</ele><time>2026-04-26T11:22:17.946Z</time></trkpt><trkpt lat="44.3658517" lon="7.8693951"><ele>519.0</ele><time>2026-04-26T11:22:18.945Z</time></trkpt><trkpt lat="44.3657902" lon="7.8693103"><ele>519.0</ele><time>2026-04-26T11:22:19.946Z</time></trkpt><trkpt lat="44.3657142" lon="7.869258"><ele>519.0</ele><time>2026-04-26T11:22:20.946Z</time></trkpt><trkpt lat="44.3656201" lon="7.8692529"><ele>519.0</ele><time>2026-04-26T11:22:21.945Z</time></trkpt><trkpt lat="44.3655128" lon="7.8692848"><ele>519.0</ele><time>2026-04-26T11:22:22.946Z</time></trkpt><trkpt lat="44.3654007" lon="7.8692861"><ele>519.0</ele><time>2026-04-26T11:22:23.946Z</time></trkpt><trkpt lat="44.3652858" lon="7.8692464"><ele>520.0</ele><time>2026-04-26T11:22:24.946Z</time></trkpt><trkpt lat="44.3651506" lon="7.8691701"><ele>521.0</ele><time>2026-04-26T11:22:25.946Z</time></trkpt><trkpt lat="44.3650023" lon="7.8690592"><ele>522.0</ele><time>2026-04-26T11:22:26.946Z</time></trkpt><trkpt lat="44.3648593" lon="7.8689373"><ele>522.0</ele><time>2026-04-26T11:22:27.946Z</time></trkpt><trkpt lat="44.3647161" lon="7.8687983"><ele>522.0</ele><time>2026-04-26T11:22:28.946Z</time></trkpt><trkpt lat="44.3645721" lon="7.8686467"><ele>522.0</ele><time>2026-04-26T11:22:29.945Z</time></trkpt><trkpt lat="44.3644264" lon="7.8685026"><ele>521.6666666666666</ele><time>2026-04-26T11:22:30.946Z</time></trkpt><trkpt lat="44.3642835" lon="7.8683618"><ele>521.3333333333333</ele><time>2026-04-26T11:22:31.946Z</time></trkpt><trkpt lat="44.3641418" lon="7.868213"><ele>521.0</ele><time>2026-04-26T11:22:32.946Z</time></trkpt><trkpt lat="44.3640051" lon="7.8680704"><ele>521.0</ele><time>2026-04-26T11:22:33.946Z</time></trkpt><trkpt lat="44.3638713" lon="7.8679301"><ele>521.0</ele><time>2026-04-26T11:22:34.945Z</time></trkpt><trkpt lat="44.3637434" lon="7.8677904"><ele>521.0</ele><time>2026-04-26T11:22:35.945Z</time></trkpt><trkpt lat="44.3636117" lon="7.8676595"><ele>520.0</ele><time>2026-04-26T11:22:36.946Z</time></trkpt><trkpt lat="44.363484" lon="7.8675192"><ele>519.0</ele><time>2026-04-26T11:22:37.945Z</time></trkpt><trkpt lat="44.363351" lon="7.8673757"><ele>518.0</ele><time>2026-04-26T11:22:38.946Z</time></trkpt><trkpt lat="44.3632217" lon="7.8672134"><ele>518.0</ele><time>2026-04-26T11:22:39.946Z</time></trkpt><trkpt lat="44.3630959" lon="7.8670331"><ele>518.0</ele><time>2026-04-26T11:22:40.946Z</time></trkpt><trkpt lat="44.3629869" lon="7.8668496"><ele>518.0</ele><time>2026-04-26T11:22:41.946Z</time></trkpt><trkpt lat="44.3628924" lon="7.866649"><ele>518.0</ele><time>2026-04-26T11:22:42.946Z</time></trkpt><trkpt lat="44.3628106" lon="7.8664414"><ele>518.0</ele><time>2026-04-26T11:22:43.946Z</time></trkpt><trkpt lat="44.3627348" lon="7.8662319"><ele>518.0</ele><time>2026-04-26T11:22:44.946Z</time></trkpt><trkpt lat="44.3626682" lon="7.8660276"><ele>518.6666666666666</ele><time>2026-04-26T11:22:45.946Z</time></trkpt><trkpt lat="44.3626034" lon="7.8658226"><ele>519.3333333333334</ele><time>2026-04-26T11:22:46.946Z</time></trkpt><trkpt lat="44.3625487" lon="7.8656174"><ele>520.0</ele><time>2026-04-26T11:22:47.946Z</time></trkpt><trkpt lat="44.362494" lon="7.8654179"><ele>520.0</ele><time>2026-04-26T11:22:48.946Z</time></trkpt><trkpt lat="44.3624414" lon="7.8652324"><ele>520.0</ele><time>2026-04-26T11:22:49.946Z</time></trkpt><trkpt lat="44.3623924" lon="7.865035"><ele>520.0</ele><time>2026-04-26T11:22:50.946Z</time></trkpt><trkpt lat="44.3623425" lon="7.8648348"><ele>520.0</ele><time>2026-04-26T11:22:51.946Z</time></trkpt><trkpt lat="44.3622902" lon="7.8646336"><ele>520.25</ele><time>2026-04-26T11:22:52.946Z</time></trkpt><trkpt lat="44.362237" lon="7.8644429"><ele>520.5</ele><time>2026-04-26T11:22:53.946Z</time></trkpt><trkpt lat="44.3621809" lon="7.8642646"><ele>520.75</ele><time>2026-04-26T11:22:54.946Z</time></trkpt><trkpt lat="44.3621375" lon="7.8640844"><ele>521.0</ele><time>2026-04-26T11:22:55.946Z</time></trkpt><trkpt lat="44.3620972" lon="7.8639233"><ele>522.0</ele><time>2026-04-26T11:22:56.946Z</time></trkpt><trkpt lat="44.3620622" lon="7.8637603"><ele>523.0</ele><time>2026-04-26T11:22:57.946Z</time></trkpt><trkpt lat="44.3620373" lon="7.8636"><ele>524.0</ele><time>2026-04-26T11:22:58.946Z</time></trkpt><trkpt lat="44.3620178" lon="7.8634446"><ele>525.0</ele><time>2026-04-26T11:22:59.945Z</time></trkpt><trkpt lat="44.3619935" lon="7.8632909"><ele>525.0</ele><time>2026-04-26T11:23:00.946Z</time></trkpt><trkpt lat="44.361976" lon="7.8631456"><ele>525.0</ele><time>2026-04-26T11:23:01.946Z</time></trkpt><trkpt lat="44.3619576" lon="7.863002"><ele>525.0</ele><time>2026-04-26T11:23:02.946Z</time></trkpt><trkpt lat="44.3619365" lon="7.8628577"><ele>525.0</ele><time>2026-04-26T11:23:03.945Z</time></trkpt><trkpt lat="44.3619164" lon="7.8627247"><ele>525.0</ele><time>2026-04-26T11:23:04.946Z</time></trkpt><trkpt lat="44.3619005" lon="7.8625902"><ele>522.8</ele><time>2026-04-26T11:23:05.945Z</time></trkpt><trkpt lat="44.3618859" lon="7.8624612"><ele>520.6</ele><time>2026-04-26T11:23:06.946Z</time></trkpt><trkpt lat="44.3618697" lon="7.8623242"><ele>518.4</ele><time>2026-04-26T11:23:07.946Z</time></trkpt><trkpt lat="44.3618568" lon="7.8621965"><ele>516.2</ele><time>2026-04-26T11:23:08.945Z</time></trkpt><trkpt lat="44.3618339" lon="7.8620856"><ele>514.0</ele><time>2026-04-26T11:23:09.946Z</time></trkpt><trkpt lat="44.3618009" lon="7.8619761"><ele>514.0</ele><time>2026-04-26T11:23:10.946Z</time></trkpt><trkpt lat="44.3617646" lon="7.8618668"><ele>514.0</ele><time>2026-04-26T11:23:11.946Z</time></trkpt><trkpt lat="44.3617242" lon="7.8617673"><ele>514.0</ele><time>2026-04-26T11:23:12.945Z</time></trkpt><trkpt lat="44.3616848" lon="7.8616663"><ele>514.0</ele><time>2026-04-26T11:23:13.946Z</time></trkpt><trkpt lat="44.3616598" lon="7.861555"><ele>514.0</ele><time>2026-04-26T11:23:14.946Z</time></trkpt><trkpt lat="44.3616548" lon="7.8614364"><ele>514.0</ele><time>2026-04-26T11:23:15.945Z</time></trkpt><trkpt lat="44.3616772" lon="7.8613021"><ele>513.2</ele><time>2026-04-26T11:23:16.946Z</time></trkpt><trkpt lat="44.3617099" lon="7.8611659"><ele>512.4</ele><time>2026-04-26T11:23:17.945Z</time></trkpt><trkpt lat="44.3617117" lon="7.8610268"><ele>511.6</ele><time>2026-04-26T11:23:18.946Z</time></trkpt><trkpt lat="44.3616696" lon="7.8608961"><ele>510.8</ele><time>2026-04-26T11:23:19.946Z</time></trkpt><trkpt lat="44.3615926" lon="7.8607626"><ele>510.0</ele><time>2026-04-26T11:23:20.946Z</time></trkpt><trkpt lat="44.3615061" lon="7.8606233"><ele>510.0</ele><time>2026-04-26T11:23:21.946Z</time></trkpt><trkpt lat="44.3614353" lon="7.8604473"><ele>510.0</ele><time>2026-04-26T11:23:22.945Z</time></trkpt><trkpt lat="44.3613728" lon="7.860246"><ele>510.0</ele><time>2026-04-26T11:23:23.945Z</time></trkpt><trkpt lat="44.3613091" lon="7.8600397"><ele>508.66666666666663</ele><time>2026-04-26T11:23:24.946Z</time></trkpt><trkpt lat="44.3612444" lon="7.8598339"><ele>507.3333333333333</ele><time>2026-04-26T11:23:25.946Z</time></trkpt><trkpt lat="44.3611796" lon="7.8596314"><ele>506.0</ele><time>2026-04-26T11:23:26.945Z</time></trkpt><trkpt lat="44.3611183" lon="7.8594278"><ele>506.0</ele><time>2026-04-26T11:23:27.945Z</time></trkpt><trkpt lat="44.361056" lon="7.8592319"><ele>506.0</ele><time>2026-04-26T11:23:28.946Z</time></trkpt><trkpt lat="44.3609946" lon="7.8590297"><ele>506.0</ele><time>2026-04-26T11:23:29.946Z</time></trkpt><trkpt lat="44.3609364" lon="7.8588372"><ele>506.0</ele><time>2026-04-26T11:23:30.946Z</time></trkpt><trkpt lat="44.360876" lon="7.858643"><ele>506.0</ele><time>2026-04-26T11:23:31.946Z</time></trkpt><trkpt lat="44.3608198" lon="7.858455"><ele>506.0</ele><time>2026-04-26T11:23:32.946Z</time></trkpt><trkpt lat="44.3607699" lon="7.858265"><ele>506.0</ele><time>2026-04-26T11:23:33.946Z</time></trkpt><trkpt lat="44.3607242" lon="7.858073"><ele>506.0</ele><time>2026-04-26T11:23:34.946Z</time></trkpt><trkpt lat="44.3606755" lon="7.8578909"><ele>506.0</ele><time>2026-04-26T11:23:35.946Z</time></trkpt><trkpt lat="44.3606224" lon="7.8577006"><ele>506.0</ele><time>2026-04-26T11:23:36.946Z</time></trkpt><trkpt lat="44.3605666" lon="7.8574952"><ele>506.0</ele><time>2026-04-26T11:23:37.946Z</time></trkpt><trkpt lat="44.3605094" lon="7.8572969"><ele>505.3333333333333</ele><time>2026-04-26T11:23:38.946Z</time></trkpt><trkpt lat="44.3604558" lon="7.8571025"><ele>504.66666666666663</ele><time>2026-04-26T11:23:39.946Z</time></trkpt><trkpt lat="44.3604001" lon="7.8569054"><ele>504.0</ele><time>2026-04-26T11:23:40.946Z</time></trkpt><trkpt lat="44.3603427" lon="7.8566965"><ele>503.75</ele><time>2026-04-26T11:23:41.946Z</time></trkpt><trkpt lat="44.3602895" lon="7.8565167"><ele>503.5</ele><time>2026-04-26T11:23:42.945Z</time></trkpt><trkpt lat="44.3602335" lon="7.8563365"><ele>503.25</ele><time>2026-04-26T11:23:43.945Z</time></trkpt><trkpt lat="44.3601775" lon="7.8561409"><ele>503.0</ele><time>2026-04-26T11:23:44.946Z</time></trkpt><trkpt lat="44.3601215" lon="7.8559455"><ele>502.3333333333333</ele><time>2026-04-26T11:23:45.946Z</time></trkpt><trkpt lat="44.3600655" lon="7.8557415"><ele>501.66666666666663</ele><time>2026-04-26T11:23:46.946Z</time></trkpt><trkpt lat="44.3600064" lon="7.8555398"><ele>501.0</ele><time>2026-04-26T11:23:47.946Z</time></trkpt><trkpt lat="44.3599519" lon="7.8553314"><ele>501.0</ele><time>2026-04-26T11:23:48.946Z</time></trkpt><trkpt lat="44.3598955" lon="7.8551323"><ele>501.0</ele><time>2026-04-26T11:23:49.946Z</time></trkpt><trkpt lat="44.3598395" lon="7.8549296"><ele>501.0</ele><time>2026-04-26T11:23:50.946Z</time></trkpt><trkpt lat="44.3597802" lon="7.8547361"><ele>501.25</ele><time>2026-04-26T11:23:51.946Z</time></trkpt><trkpt lat="44.359724" lon="7.8545444"><ele>501.5</ele><time>2026-04-26T11:23:52.946Z</time></trkpt><trkpt lat="44.3596658" lon="7.8543476"><ele>501.75</ele><time>2026-04-26T11:23:53.946Z</time></trkpt><trkpt lat="44.359612" lon="7.8541556"><ele>502.0</ele><time>2026-04-26T11:23:54.946Z</time></trkpt><trkpt lat="44.3595601" lon="7.8539695"><ele>501.0</ele><time>2026-04-26T11:23:55.946Z</time></trkpt><trkpt lat="44.3595058" lon="7.8537741"><ele>500.0</ele><time>2026-04-26T11:23:56.945Z</time></trkpt><trkpt lat="44.3594506" lon="7.8535833"><ele>499.0</ele><time>2026-04-26T11:23:57.945Z</time></trkpt><trkpt lat="44.359396" lon="7.8533776"><ele>498.6666666666667</ele><time>2026-04-26T11:23:58.946Z</time></trkpt><trkpt lat="44.3593399" lon="7.8531757"><ele>498.33333333333337</ele><time>2026-04-26T11:23:59.946Z</time></trkpt><trkpt lat="44.3592797" lon="7.852976"><ele>498.0</ele><time>2026-04-26T11:24:00.946Z</time></trkpt><trkpt lat="44.359226" lon="7.8527797"><ele>499.0</ele><time>2026-04-26T11:24:01.943Z</time></trkpt><trkpt lat="44.3591675" lon="7.8525831"><ele>500.0</ele><time>2026-04-26T11:24:02.946Z</time></trkpt><trkpt lat="44.3591135" lon="7.8523869"><ele>501.0</ele><time>2026-04-26T11:24:03.946Z</time></trkpt><trkpt lat="44.3590541" lon="7.8521935"><ele>501.0</ele><time>2026-04-26T11:24:04.945Z</time></trkpt><trkpt lat="44.3589964" lon="7.8519968"><ele>501.0</ele><time>2026-04-26T11:24:05.946Z</time></trkpt><trkpt lat="44.3589387" lon="7.851801"><ele>501.0</ele><time>2026-04-26T11:24:06.946Z</time></trkpt><trkpt lat="44.3588854" lon="7.8516019"><ele>498.66666666666663</ele><time>2026-04-26T11:24:07.946Z</time></trkpt><trkpt lat="44.3588301" lon="7.8514057"><ele>496.3333333333333</ele><time>2026-04-26T11:24:08.946Z</time></trkpt><trkpt lat="44.35877" lon="7.8512157"><ele>494.0</ele><time>2026-04-26T11:24:09.946Z</time></trkpt><trkpt lat="44.3587131" lon="7.8510205"><ele>494.0</ele><time>2026-04-26T11:24:10.945Z</time></trkpt><trkpt lat="44.3586522" lon="7.8508112"><ele>494.0</ele><time>2026-04-26T11:24:11.945Z</time></trkpt><trkpt lat="44.3585963" lon="7.8506044"><ele>494.0</ele><time>2026-04-26T11:24:12.945Z</time></trkpt><trkpt lat="44.3585366" lon="7.8503966"><ele>494.0</ele><time>2026-04-26T11:24:13.946Z</time></trkpt><trkpt lat="44.3584748" lon="7.850194"><ele>494.0</ele><time>2026-04-26T11:24:14.946Z</time></trkpt><trkpt lat="44.3584142" lon="7.8499859"><ele>494.0</ele><time>2026-04-26T11:24:15.946Z</time></trkpt><trkpt lat="44.3583475" lon="7.8497704"><ele>494.0</ele><time>2026-04-26T11:24:16.946Z</time></trkpt><trkpt lat="44.3582771" lon="7.8495513"><ele>494.0</ele><time>2026-04-26T11:24:17.945Z</time></trkpt><trkpt lat="44.3582154" lon="7.8493383"><ele>494.0</ele><time>2026-04-26T11:24:18.946Z</time></trkpt><trkpt lat="44.3581565" lon="7.8491193"><ele>494.0</ele><time>2026-04-26T11:24:19.945Z</time></trkpt><trkpt lat="44.3580938" lon="7.8488888"><ele>494.0</ele><time>2026-04-26T11:24:20.946Z</time></trkpt><trkpt lat="44.358028" lon="7.8486569"><ele>494.0</ele><time>2026-04-26T11:24:21.946Z</time></trkpt><trkpt lat="44.3579571" lon="7.8484163"><ele>492.3333333333333</ele><time>2026-04-26T11:24:22.945Z</time></trkpt><trkpt lat="44.3578868" lon="7.8481691"><ele>490.66666666666663</ele><time>2026-04-26T11:24:23.946Z</time></trkpt><trkpt lat="44.3578164" lon="7.8479268"><ele>489.0</ele><time>2026-04-26T11:24:24.946Z</time></trkpt><trkpt lat="44.3577432" lon="7.847676"><ele>489.33333333333337</ele><time>2026-04-26T11:24:25.945Z</time></trkpt><trkpt lat="44.3576709" lon="7.8474374"><ele>489.6666666666667</ele><time>2026-04-26T11:24:26.946Z</time></trkpt><trkpt lat="44.3576032" lon="7.8471986"><ele>490.0</ele><time>2026-04-26T11:24:27.945Z</time></trkpt><trkpt lat="44.3575376" lon="7.8469595"><ele>490.33333333333337</ele><time>2026-04-26T11:24:28.946Z</time></trkpt><trkpt lat="44.3574735" lon="7.846728"><ele>490.66666666666663</ele><time>2026-04-26T11:24:29.946Z</time></trkpt><trkpt lat="44.3574076" lon="7.8464916"><ele>491.0</ele><time>2026-04-26T11:24:30.945Z</time></trkpt><trkpt lat="44.3573368" lon="7.8462506"><ele>491.0</ele><time>2026-04-26T11:24:31.945Z</time></trkpt><trkpt lat="44.3572709" lon="7.846018"><ele>491.0</ele><time>2026-04-26T11:24:32.945Z</time></trkpt><trkpt lat="44.3572037" lon="7.8457769"><ele>491.0</ele><time>2026-04-26T11:24:33.946Z</time></trkpt><trkpt lat="44.3571349" lon="7.8455362"><ele>490.3333333333333</ele><time>2026-04-26T11:24:34.946Z</time></trkpt><trkpt lat="44.3570718" lon="7.8452964"><ele>489.66666666666663</ele><time>2026-04-26T11:24:35.946Z</time></trkpt><trkpt lat="44.3570035" lon="7.8450681"><ele>489.0</ele><time>2026-04-26T11:24:36.946Z</time></trkpt><trkpt lat="44.3569362" lon="7.8448402"><ele>489.0</ele><time>2026-04-26T11:24:37.946Z</time></trkpt><trkpt lat="44.3568722" lon="7.8446117"><ele>489.0</ele><time>2026-04-26T11:24:38.946Z</time></trkpt><trkpt lat="44.3568108" lon="7.8443843"><ele>489.0</ele><time>2026-04-26T11:24:39.946Z</time></trkpt><trkpt lat="44.3567467" lon="7.844166"><ele>489.66666666666663</ele><time>2026-04-26T11:24:40.945Z</time></trkpt><trkpt lat="44.3566848" lon="7.8439439"><ele>490.3333333333333</ele><time>2026-04-26T11:24:41.946Z</time></trkpt><trkpt lat="44.3566223" lon="7.8437287"><ele>491.0</ele><time>2026-04-26T11:24:42.946Z</time></trkpt><trkpt lat="44.3565598" lon="7.8435099"><ele>491.0</ele><time>2026-04-26T11:24:43.946Z</time></trkpt><trkpt lat="44.3564933" lon="7.843287"><ele>491.0</ele><time>2026-04-26T11:24:44.945Z</time></trkpt><trkpt lat="44.3564332" lon="7.8430596"><ele>491.0</ele><time>2026-04-26T11:24:45.946Z</time></trkpt><trkpt lat="44.3563934" lon="7.8428246"><ele>490.66666666666663</ele><time>2026-04-26T11:24:46.946Z</time></trkpt><trkpt lat="44.3563676" lon="7.8425847"><ele>490.33333333333337</ele><time>2026-04-26T11:24:47.946Z</time></trkpt><trkpt lat="44.3563665" lon="7.8423343"><ele>490.0</ele><time>2026-04-26T11:24:48.946Z</time></trkpt><trkpt lat="44.3563911" lon="7.8420857"><ele>490.0</ele><time>2026-04-26T11:24:49.946Z</time></trkpt><trkpt lat="44.3564353" lon="7.8418424"><ele>490.0</ele><time>2026-04-26T11:24:50.946Z</time></trkpt><trkpt lat="44.3564983" lon="7.8416037"><ele>490.0</ele><time>2026-04-26T11:24:51.945Z</time></trkpt><trkpt lat="44.3565615" lon="7.8413743"><ele>489.0</ele><time>2026-04-26T11:24:52.945Z</time></trkpt><trkpt lat="44.3566408" lon="7.8411424"><ele>488.0</ele><time>2026-04-26T11:24:53.946Z</time></trkpt><trkpt lat="44.3567154" lon="7.8409188"><ele>487.0</ele><time>2026-04-26T11:24:54.945Z</time></trkpt><trkpt lat="44.3567921" lon="7.8406981"><ele>484.6666666666667</ele><time>2026-04-26T11:24:55.946Z</time></trkpt><trkpt lat="44.3568712" lon="7.8404688"><ele>482.33333333333337</ele><time>2026-04-26T11:24:56.942Z</time></trkpt><trkpt lat="44.3569496" lon="7.8402371"><ele>480.0</ele><time>2026-04-26T11:24:57.945Z</time></trkpt><trkpt lat="44.357027" lon="7.8400137"><ele>479.0</ele><time>2026-04-26T11:24:58.946Z</time></trkpt><trkpt lat="44.3571011" lon="7.8397852"><ele>478.0</ele><time>2026-04-26T11:24:59.946Z</time></trkpt><trkpt lat="44.3571805" lon="7.8395558"><ele>477.0</ele><time>2026-04-26T11:25:00.946Z</time></trkpt><trkpt lat="44.3572558" lon="7.8393276"><ele>477.66666666666663</ele><time>2026-04-26T11:25:01.946Z</time></trkpt><trkpt lat="44.3573291" lon="7.8390964"><ele>478.3333333333333</ele><time>2026-04-26T11:25:02.946Z</time></trkpt><trkpt lat="44.357409" lon="7.8388624"><ele>479.0</ele><time>2026-04-26T11:25:03.945Z</time></trkpt><trkpt lat="44.3574867" lon="7.8386349"><ele>478.3333333333333</ele><time>2026-04-26T11:25:04.946Z</time></trkpt><trkpt lat="44.3575644" lon="7.8384071"><ele>477.66666666666663</ele><time>2026-04-26T11:25:05.945Z</time></trkpt><trkpt lat="44.3576405" lon="7.8381693"><ele>477.0</ele><time>2026-04-26T11:25:06.945Z</time></trkpt><trkpt lat="44.3577164" lon="7.8379362"><ele>477.0</ele><time>2026-04-26T11:25:07.946Z</time></trkpt><trkpt lat="44.3577957" lon="7.837701"><ele>477.0</ele><time>2026-04-26T11:25:08.946Z</time></trkpt><trkpt lat="44.3578746" lon="7.8374614"><ele>477.0</ele><time>2026-04-26T11:25:09.946Z</time></trkpt><trkpt lat="44.3579505" lon="7.8372308"><ele>475.33333333333337</ele><time>2026-04-26T11:25:10.946Z</time></trkpt><trkpt lat="44.3580255" lon="7.8369998"><ele>473.6666666666667</ele><time>2026-04-26T11:25:11.945Z</time></trkpt><trkpt lat="44.3581024" lon="7.8367681"><ele>472.0</ele><time>2026-04-26T11:25:12.946Z</time></trkpt><trkpt lat="44.3581779" lon="7.8365404"><ele>471.33333333333337</ele><time>2026-04-26T11:25:13.945Z</time></trkpt><trkpt lat="44.35825" lon="7.8363176"><ele>470.66666666666663</ele><time>2026-04-26T11:25:14.946Z</time></trkpt><trkpt lat="44.3583208" lon="7.8361026"><ele>470.0</ele><time>2026-04-26T11:25:15.945Z</time></trkpt><trkpt lat="44.3583876" lon="7.8358962"><ele>470.0</ele><time>2026-04-26T11:25:16.945Z</time></trkpt><trkpt lat="44.358454" lon="7.8356943"><ele>470.0</ele><time>2026-04-26T11:25:17.946Z</time></trkpt><trkpt lat="44.3585174" lon="7.8354962"><ele>470.0</ele><time>2026-04-26T11:25:18.946Z</time></trkpt><trkpt lat="44.3585871" lon="7.8353136"><ele>470.0</ele><time>2026-04-26T11:25:19.946Z</time></trkpt><trkpt lat="44.3586779" lon="7.8351496"><ele>470.0</ele><time>2026-04-26T11:25:20.946Z</time></trkpt><trkpt lat="44.3587799" lon="7.8350085"><ele>470.0</ele><time>2026-04-26T11:25:21.946Z</time></trkpt><trkpt lat="44.3589072" lon="7.8348966"><ele>470.0</ele><time>2026-04-26T11:25:22.946Z</time></trkpt><trkpt lat="44.3590533" lon="7.8348162"><ele>471.3333333333333</ele><time>2026-04-26T11:25:23.946Z</time></trkpt><trkpt lat="44.3592076" lon="7.8347518"><ele>472.66666666666663</ele><time>2026-04-26T11:25:24.945Z</time></trkpt><trkpt lat="44.3593517" lon="7.8346886"><ele>474.0</ele><time>2026-04-26T11:25:25.946Z</time></trkpt><trkpt lat="44.3594858" lon="7.8346281"><ele>474.0</ele><time>2026-04-26T11:25:26.945Z</time></trkpt><trkpt lat="44.3596062" lon="7.8345774"><ele>474.0</ele><time>2026-04-26T11:25:27.946Z</time></trkpt><trkpt lat="44.35971" lon="7.8345265"><ele>474.0</ele><time>2026-04-26T11:25:28.946Z</time></trkpt><trkpt lat="44.3597974" lon="7.8344872"><ele>474.0</ele><time>2026-04-26T11:25:29.946Z</time></trkpt><trkpt lat="44.3598662" lon="7.8344512"><ele>474.0</ele><time>2026-04-26T11:25:30.945Z</time></trkpt><trkpt lat="44.3599271" lon="7.8344185"><ele>474.2</ele><time>2026-04-26T11:25:31.946Z</time></trkpt><trkpt lat="44.3599845" lon="7.8343817"><ele>474.4</ele><time>2026-04-26T11:25:32.946Z</time></trkpt><trkpt lat="44.3600351" lon="7.8342418"><ele>474.6</ele><time>2026-04-26T11:25:34.946Z</time></trkpt><trkpt lat="44.3599734" lon="7.8340878"><ele>474.8</ele><time>2026-04-26T11:25:36.944Z</time></trkpt><trkpt lat="44.3598986" lon="7.8340139"><ele>475.0</ele><time>2026-04-26T11:25:37.946Z</time></trkpt><trkpt lat="44.3598125" lon="7.833921"><ele>475.0</ele><time>2026-04-26T11:25:38.946Z</time></trkpt><trkpt lat="44.3597324" lon="7.8337945"><ele>475.0</ele><time>2026-04-26T11:25:39.946Z</time></trkpt><trkpt lat="44.3596475" lon="7.833649"><ele>475.0</ele><time>2026-04-26T11:25:40.946Z</time></trkpt><trkpt lat="44.3595642" lon="7.8335056"><ele>475.0</ele><time>2026-04-26T11:25:41.946Z</time></trkpt><trkpt lat="44.3594733" lon="7.833345"><ele>476.6666666666667</ele><time>2026-04-26T11:25:42.946Z</time></trkpt><trkpt lat="44.3593847" lon="7.8331786"><ele>478.33333333333337</ele><time>2026-04-26T11:25:43.946Z</time></trkpt><trkpt lat="44.3592943" lon="7.8330092"><ele>480.0</ele><time>2026-04-26T11:25:44.946Z</time></trkpt><trkpt lat="44.3592092" lon="7.8328347"><ele>480.0</ele><time>2026-04-26T11:25:45.946Z</time></trkpt><trkpt lat="44.359122" lon="7.8326646"><ele>480.0</ele><time>2026-04-26T11:25:46.946Z</time></trkpt><trkpt lat="44.3590344" lon="7.8325067"><ele>480.0</ele><time>2026-04-26T11:25:47.946Z</time></trkpt><trkpt lat="44.3589431" lon="7.8323483"><ele>480.0</ele><time>2026-04-26T11:25:48.944Z</time></trkpt><trkpt lat="44.3588539" lon="7.8321789"><ele>482.0</ele><time>2026-04-26T11:25:49.946Z</time></trkpt><trkpt lat="44.3587558" lon="7.8320102"><ele>484.0</ele><time>2026-04-26T11:25:50.946Z</time></trkpt><trkpt lat="44.3586632" lon="7.8318328"><ele>486.0</ele><time>2026-04-26T11:25:51.946Z</time></trkpt><trkpt lat="44.3585682" lon="7.831663"><ele>486.66666666666663</ele><time>2026-04-26T11:25:52.946Z</time></trkpt><trkpt lat="44.3584718" lon="7.8314991"><ele>487.3333333333333</ele><time>2026-04-26T11:25:53.946Z</time></trkpt><trkpt lat="44.3583728" lon="7.8313421"><ele>488.0</ele><time>2026-04-26T11:25:54.946Z</time></trkpt><trkpt lat="44.358265" lon="7.8311791"><ele>488.0</ele><time>2026-04-26T11:25:55.945Z</time></trkpt><trkpt lat="44.3581548" lon="7.831021"><ele>488.0</ele><time>2026-04-26T11:25:56.945Z</time></trkpt><trkpt lat="44.3580428" lon="7.830862"><ele>488.0</ele><time>2026-04-26T11:25:57.946Z</time></trkpt><trkpt lat="44.3579431" lon="7.8306903"><ele>489.66666666666663</ele><time>2026-04-26T11:25:58.946Z</time></trkpt><trkpt lat="44.3578541" lon="7.8305045"><ele>491.33333333333337</ele><time>2026-04-26T11:25:59.946Z</time></trkpt><trkpt lat="44.3577746" lon="7.8302954"><ele>493.0</ele><time>2026-04-26T11:26:00.945Z</time></trkpt><trkpt lat="44.3577067" lon="7.8300804"><ele>494.6666666666667</ele><time>2026-04-26T11:26:01.945Z</time></trkpt><trkpt lat="44.357649" lon="7.8298589"><ele>496.33333333333337</ele><time>2026-04-26T11:26:02.946Z</time></trkpt><trkpt lat="44.357603" lon="7.8296249"><ele>498.0</ele><time>2026-04-26T11:26:03.946Z</time></trkpt><trkpt lat="44.357563" lon="7.8293789"><ele>500.66666666666663</ele><time>2026-04-26T11:26:04.946Z</time></trkpt><trkpt lat="44.3575306" lon="7.8291313"><ele>503.3333333333333</ele><time>2026-04-26T11:26:05.945Z</time></trkpt><trkpt lat="44.3575107" lon="7.8288826"><ele>506.0</ele><time>2026-04-26T11:26:06.946Z</time></trkpt><trkpt lat="44.3575005" lon="7.8286459"><ele>508.0</ele><time>2026-04-26T11:26:07.945Z</time></trkpt><trkpt lat="44.3574998" lon="7.8284148"><ele>510.0</ele><time>2026-04-26T11:26:08.946Z</time></trkpt><trkpt lat="44.3575037" lon="7.8281911"><ele>512.0</ele><time>2026-04-26T11:26:09.946Z</time></trkpt><trkpt lat="44.3575094" lon="7.8279717"><ele>512.0</ele><time>2026-04-26T11:26:10.946Z</time></trkpt><trkpt lat="44.3575248" lon="7.8277667"><ele>512.0</ele><time>2026-04-26T11:26:11.946Z</time></trkpt><trkpt lat="44.3575413" lon="7.827573"><ele>512.0</ele><time>2026-04-26T11:26:12.945Z</time></trkpt><trkpt lat="44.3575626" lon="7.8274019"><ele>512.0</ele><time>2026-04-26T11:26:13.946Z</time></trkpt><trkpt lat="44.3575805" lon="7.8272425"><ele>513.0</ele><time>2026-04-26T11:26:14.946Z</time></trkpt><trkpt lat="44.3575772" lon="7.827097"><ele>514.0</ele><time>2026-04-26T11:26:15.946Z</time></trkpt><trkpt lat="44.3575486" lon="7.8269647"><ele>515.0</ele><time>2026-04-26T11:26:16.944Z</time></trkpt><trkpt lat="44.3574864" lon="7.8268702"><ele>516.0</ele><time>2026-04-26T11:26:17.945Z</time></trkpt><trkpt lat="44.3574065" lon="7.8268081"><ele>517.0</ele><time>2026-04-26T11:26:18.946Z</time></trkpt><trkpt lat="44.357318" lon="7.826782"><ele>517.0</ele><time>2026-04-26T11:26:19.945Z</time></trkpt><trkpt lat="44.3572202" lon="7.8268237"><ele>517.0</ele><time>2026-04-26T11:26:20.946Z</time></trkpt><trkpt lat="44.3571307" lon="7.8269034"><ele>517.0</ele><time>2026-04-26T11:26:21.946Z</time></trkpt><trkpt lat="44.357048" lon="7.8269998"><ele>517.0</ele><time>2026-04-26T11:26:22.946Z</time></trkpt><trkpt lat="44.3569584" lon="7.8271036"><ele>517.0</ele><time>2026-04-26T11:26:23.945Z</time></trkpt><trkpt lat="44.3568659" lon="7.827208"><ele>519.0</ele><time>2026-04-26T11:26:24.946Z</time></trkpt><trkpt lat="44.3567721" lon="7.8273092"><ele>521.0</ele><time>2026-04-26T11:26:25.946Z</time></trkpt><trkpt lat="44.3566799" lon="7.8274146"><ele>523.0</ele><time>2026-04-26T11:26:26.946Z</time></trkpt><trkpt lat="44.3565942" lon="7.8275165"><ele>525.0</ele><time>2026-04-26T11:26:27.946Z</time></trkpt><trkpt lat="44.3565139" lon="7.8276236"><ele>524.0</ele><time>2026-04-26T11:26:28.946Z</time></trkpt><trkpt lat="44.3564604" lon="7.8277432"><ele>523.0</ele><time>2026-04-26T11:26:29.946Z</time></trkpt><trkpt lat="44.3564323" lon="7.8278637"><ele>522.0</ele><time>2026-04-26T11:26:30.946Z</time></trkpt><trkpt lat="44.3564225" lon="7.8279879"><ele>521.0</ele><time>2026-04-26T11:26:31.946Z</time></trkpt><trkpt lat="44.3564175" lon="7.8280928"><ele>520.0</ele><time>2026-04-26T11:26:32.946Z</time></trkpt><trkpt lat="44.356407" lon="7.8281971"><ele>519.0</ele><time>2026-04-26T11:26:33.946Z</time></trkpt><trkpt lat="44.3563783" lon="7.8282887"><ele>520.3333333333334</ele><time>2026-04-26T11:26:34.945Z</time></trkpt><trkpt lat="44.3563298" lon="7.8283589"><ele>521.6666666666666</ele><time>2026-04-26T11:26:35.945Z</time></trkpt><trkpt lat="44.356261" lon="7.8283929"><ele>523.0</ele><time>2026-04-26T11:26:36.945Z</time></trkpt><trkpt lat="44.3561859" lon="7.8283894"><ele>524.3333333333333</ele><time>2026-04-26T11:26:37.946Z</time></trkpt><trkpt lat="44.3561253" lon="7.8283368"><ele>525.6666666666666</ele><time>2026-04-26T11:26:38.945Z</time></trkpt><trkpt lat="44.3560775" lon="7.8282435"><ele>527.0</ele><time>2026-04-26T11:26:39.945Z</time></trkpt><trkpt lat="44.3560375" lon="7.8281349"><ele>527.0</ele><time>2026-04-26T11:26:40.946Z</time></trkpt><trkpt lat="44.3559962" lon="7.8280113"><ele>527.0</ele><time>2026-04-26T11:26:41.946Z</time></trkpt><trkpt lat="44.3559518" lon="7.827887"><ele>527.0</ele><time>2026-04-26T11:26:42.945Z</time></trkpt><trkpt lat="44.3559116" lon="7.8277619"><ele>527.0</ele><time>2026-04-26T11:26:43.946Z</time></trkpt><trkpt lat="44.3558694" lon="7.8276415"><ele>527.0</ele><time>2026-04-26T11:26:44.946Z</time></trkpt><trkpt lat="44.3558228" lon="7.8275157"><ele>528.2</ele><time>2026-04-26T11:26:45.946Z</time></trkpt><trkpt lat="44.3557749" lon="7.8273799"><ele>529.4000000000001</ele><time>2026-04-26T11:26:46.946Z</time></trkpt><trkpt lat="44.3557286" lon="7.8272415"><ele>530.5999999999999</ele><time>2026-04-26T11:26:47.946Z</time></trkpt><trkpt lat="44.3556836" lon="7.8270992"><ele>531.8</ele><time>2026-04-26T11:26:48.946Z</time></trkpt><trkpt lat="44.3556353" lon="7.8269642"><ele>533.0</ele><time>2026-04-26T11:26:49.946Z</time></trkpt><trkpt lat="44.3555831" lon="7.8268281"><ele>532.6</ele><time>2026-04-26T11:26:50.944Z</time></trkpt><trkpt lat="44.3555345" lon="7.8266963"><ele>532.1999999999999</ele><time>2026-04-26T11:26:51.946Z</time></trkpt><trkpt lat="44.3554867" lon="7.8265553"><ele>531.8</ele><time>2026-04-26T11:26:52.945Z</time></trkpt><trkpt lat="44.3554403" lon="7.8264124"><ele>531.4</ele><time>2026-04-26T11:26:53.944Z</time></trkpt><trkpt lat="44.3553923" lon="7.8262599"><ele>531.0</ele><time>2026-04-26T11:26:54.946Z</time></trkpt><trkpt lat="44.355356" lon="7.8260937"><ele>532.4</ele><time>2026-04-26T11:26:55.946Z</time></trkpt><trkpt lat="44.355337" lon="7.8259257"><ele>533.8</ele><time>2026-04-26T11:26:56.946Z</time></trkpt><trkpt lat="44.3553276" lon="7.8257606"><ele>535.1999999999999</ele><time>2026-04-26T11:26:57.946Z</time></trkpt><trkpt lat="44.3553312" lon="7.8256068"><ele>536.6</ele><time>2026-04-26T11:26:58.946Z</time></trkpt><trkpt lat="44.3553291" lon="7.8254711"><ele>538.0</ele><time>2026-04-26T11:26:59.945Z</time></trkpt><trkpt lat="44.3553261" lon="7.8253553"><ele>538.0</ele><time>2026-04-26T11:27:00.946Z</time></trkpt><trkpt lat="44.3553195" lon="7.8252427"><ele>538.0</ele><time>2026-04-26T11:27:01.946Z</time></trkpt><trkpt lat="44.3553185" lon="7.8251259"><ele>538.0</ele><time>2026-04-26T11:27:02.946Z</time></trkpt><trkpt lat="44.3553217" lon="7.8250152"><ele>538.0</ele><time>2026-04-26T11:27:03.946Z</time></trkpt><trkpt lat="44.3553371" lon="7.8248954"><ele>538.0</ele><time>2026-04-26T11:27:04.945Z</time></trkpt><trkpt lat="44.3553374" lon="7.8247687"><ele>538.0</ele><time>2026-04-26T11:27:05.946Z</time></trkpt><trkpt lat="44.3553107" lon="7.8246335"><ele>539.6</ele><time>2026-04-26T11:27:06.946Z</time></trkpt><trkpt lat="44.3552574" lon="7.8245116"><ele>541.1999999999999</ele><time>2026-04-26T11:27:07.944Z</time></trkpt><trkpt lat="44.355174" lon="7.8244353"><ele>542.8</ele><time>2026-04-26T11:27:08.946Z</time></trkpt><trkpt lat="44.355086" lon="7.8243691"><ele>544.4</ele><time>2026-04-26T11:27:09.946Z</time></trkpt><trkpt lat="44.3549985" lon="7.824324"><ele>546.0</ele><time>2026-04-26T11:27:10.946Z</time></trkpt><trkpt lat="44.3549251" lon="7.8242958"><ele>547.5</ele><time>2026-04-26T11:27:11.946Z</time></trkpt><trkpt lat="44.3548643" lon="7.8242563"><ele>549.0</ele><time>2026-04-26T11:27:12.945Z</time></trkpt><trkpt lat="44.3548405" lon="7.8240912"><ele>550.5</ele><time>2026-04-26T11:27:14.946Z</time></trkpt><trkpt lat="44.3548506" lon="7.8239998"><ele>552.0</ele><time>2026-04-26T11:27:15.945Z</time></trkpt><trkpt lat="44.354876" lon="7.8239035"><ele>553.5</ele><time>2026-04-26T11:27:16.946Z</time></trkpt><trkpt lat="44.3549112" lon="7.8237989"><ele>555.0</ele><time>2026-04-26T11:27:17.946Z</time></trkpt><trkpt lat="44.3549579" lon="7.8236916"><ele>555.0</ele><time>2026-04-26T11:27:18.945Z</time></trkpt><trkpt lat="44.3550116" lon="7.8235702"><ele>555.0</ele><time>2026-04-26T11:27:19.946Z</time></trkpt><trkpt lat="44.3550639" lon="7.8234345"><ele>555.0</ele><time>2026-04-26T11:27:20.945Z</time></trkpt><trkpt lat="44.3551189" lon="7.8232847"><ele>555.0</ele><time>2026-04-26T11:27:21.946Z</time></trkpt><trkpt lat="44.3551692" lon="7.8231345"><ele>554.5</ele><time>2026-04-26T11:27:22.944Z</time></trkpt><trkpt lat="44.3551974" lon="7.8229765"><ele>554.0</ele><time>2026-04-26T11:27:23.946Z</time></trkpt><trkpt lat="44.3551926" lon="7.8228039"><ele>553.5</ele><time>2026-04-26T11:27:24.945Z</time></trkpt><trkpt lat="44.3551634" lon="7.8226148"><ele>553.0</ele><time>2026-04-26T11:27:25.946Z</time></trkpt><trkpt lat="44.355119" lon="7.822432"><ele>552.0</ele><time>2026-04-26T11:27:26.946Z</time></trkpt><trkpt lat="44.3550706" lon="7.8222493"><ele>551.0</ele><time>2026-04-26T11:27:27.946Z</time></trkpt><trkpt lat="44.3550051" lon="7.822064"><ele>550.0</ele><time>2026-04-26T11:27:28.946Z</time></trkpt><trkpt lat="44.3549328" lon="7.8218823"><ele>549.0</ele><time>2026-04-26T11:27:29.946Z</time></trkpt><trkpt lat="44.3548554" lon="7.8217095"><ele>549.0</ele><time>2026-04-26T11:27:30.943Z</time></trkpt><trkpt lat="44.3547955" lon="7.8215635"><ele>549.0</ele><time>2026-04-26T11:27:31.946Z</time></trkpt><trkpt lat="44.3547415" lon="7.8214234"><ele>549.0</ele><time>2026-04-26T11:27:32.945Z</time></trkpt><trkpt lat="44.3546941" lon="7.821279"><ele>549.0</ele><time>2026-04-26T11:27:33.946Z</time></trkpt><trkpt lat="44.3546717" lon="7.8211201"><ele>547.8</ele><time>2026-04-26T11:27:34.946Z</time></trkpt><trkpt lat="44.3546571" lon="7.8209691"><ele>546.5999999999999</ele><time>2026-04-26T11:27:35.946Z</time></trkpt><trkpt lat="44.3546509" lon="7.8208235"><ele>545.4</ele><time>2026-04-26T11:27:36.945Z</time></trkpt><trkpt lat="44.354647" lon="7.8206919"><ele>544.1999999999999</ele><time>2026-04-26T11:27:37.945Z</time></trkpt><trkpt lat="44.354644" lon="7.8205509"><ele>543.0</ele><time>2026-04-26T11:27:38.946Z</time></trkpt><trkpt lat="44.3546364" lon="7.8203908"><ele>543.0</ele><time>2026-04-26T11:27:39.946Z</time></trkpt><trkpt lat="44.3546378" lon="7.8202122"><ele>543.0</ele><time>2026-04-26T11:27:40.946Z</time></trkpt><trkpt lat="44.3546302" lon="7.8200413"><ele>543.0</ele><time>2026-04-26T11:27:41.946Z</time></trkpt><trkpt lat="44.3546422" lon="7.8198663"><ele>543.0</ele><time>2026-04-26T11:27:42.945Z</time></trkpt><trkpt lat="44.3546484" lon="7.8197008"><ele>542.5</ele><time>2026-04-26T11:27:43.946Z</time></trkpt><trkpt lat="44.3546454" lon="7.8195284"><ele>542.0</ele><time>2026-04-26T11:27:44.946Z</time></trkpt><trkpt lat="44.3546171" lon="7.8193493"><ele>541.5</ele><time>2026-04-26T11:27:45.941Z</time></trkpt><trkpt lat="44.3545642" lon="7.8191835"><ele>541.0</ele><time>2026-04-26T11:27:46.945Z</time></trkpt><trkpt lat="44.3544911" lon="7.8190253"><ele>538.5</ele><time>2026-04-26T11:27:47.946Z</time></trkpt><trkpt lat="44.3544165" lon="7.8188671"><ele>536.0</ele><time>2026-04-26T11:27:48.946Z</time></trkpt><trkpt lat="44.3543475" lon="7.8187182"><ele>533.5</ele><time>2026-04-26T11:27:49.946Z</time></trkpt><trkpt lat="44.3542863" lon="7.8185709"><ele>531.0</ele><time>2026-04-26T11:27:50.946Z</time></trkpt><trkpt lat="44.3542383" lon="7.8184145"><ele>530.75</ele><time>2026-04-26T11:27:51.946Z</time></trkpt><trkpt lat="44.3542035" lon="7.8182311"><ele>530.5</ele><time>2026-04-26T11:27:52.946Z</time></trkpt><trkpt lat="44.3541711" lon="7.8180559"><ele>530.25</ele><time>2026-04-26T11:27:53.945Z</time></trkpt><trkpt lat="44.3541374" lon="7.8178876"><ele>530.0</ele><time>2026-04-26T11:27:54.946Z</time></trkpt><trkpt lat="44.354086" lon="7.8177239"><ele>530.5</ele><time>2026-04-26T11:27:55.945Z</time></trkpt><trkpt lat="44.3540308" lon="7.8175656"><ele>531.0</ele><time>2026-04-26T11:27:56.946Z</time></trkpt><trkpt lat="44.3539795" lon="7.8174048"><ele>531.5</ele><time>2026-04-26T11:27:57.944Z</time></trkpt><trkpt lat="44.353942" lon="7.8172301"><ele>532.0</ele><time>2026-04-26T11:27:58.946Z</time></trkpt><trkpt lat="44.3539069" lon="7.8170405"><ele>526.0</ele><time>2026-04-26T11:27:59.946Z</time></trkpt><trkpt lat="44.3538715" lon="7.8168444"><ele>520.0</ele><time>2026-04-26T11:28:00.946Z</time></trkpt><trkpt lat="44.3538262" lon="7.8166519"><ele>514.0</ele><time>2026-04-26T11:28:01.944Z</time></trkpt><trkpt lat="44.3537936" lon="7.8164522"><ele>508.0</ele><time>2026-04-26T11:28:02.946Z</time></trkpt><trkpt lat="44.3537628" lon="7.8162473"><ele>508.0</ele><time>2026-04-26T11:28:03.945Z</time></trkpt><trkpt lat="44.3537376" lon="7.81605"><ele>508.0</ele><time>2026-04-26T11:28:04.946Z</time></trkpt><trkpt lat="44.3537258" lon="7.8158612"><ele>508.0</ele><time>2026-04-26T11:28:05.946Z</time></trkpt><trkpt lat="44.3537237" lon="7.8156716"><ele>508.0</ele><time>2026-04-26T11:28:06.944Z</time></trkpt><trkpt lat="44.3537361" lon="7.8154823"><ele>507.5</ele><time>2026-04-26T11:28:07.946Z</time></trkpt><trkpt lat="44.3537524" lon="7.815294"><ele>507.0</ele><time>2026-04-26T11:28:08.946Z</time></trkpt><trkpt lat="44.3537633" lon="7.8151062"><ele>506.5</ele><time>2026-04-26T11:28:09.946Z</time></trkpt><trkpt lat="44.3537731" lon="7.8149098"><ele>506.0</ele><time>2026-04-26T11:28:10.946Z</time></trkpt><trkpt lat="44.3537865" lon="7.8147155"><ele>505.0</ele><time>2026-04-26T11:28:11.946Z</time></trkpt><trkpt lat="44.3538207" lon="7.8145208"><ele>504.0</ele><time>2026-04-26T11:28:12.946Z</time></trkpt><trkpt lat="44.35386" lon="7.814329"><ele>503.0</ele><time>2026-04-26T11:28:13.945Z</time></trkpt><trkpt lat="44.3538946" lon="7.8141473"><ele>502.0</ele><time>2026-04-26T11:28:14.946Z</time></trkpt><trkpt lat="44.3539215" lon="7.8139693"><ele>504.75</ele><time>2026-04-26T11:28:15.946Z</time></trkpt><trkpt lat="44.353948" lon="7.8137941"><ele>507.5</ele><time>2026-04-26T11:28:16.944Z</time></trkpt><trkpt lat="44.3539861" lon="7.8136282"><ele>510.25</ele><time>2026-04-26T11:28:17.946Z</time></trkpt><trkpt lat="44.3540339" lon="7.8134627"><ele>513.0</ele><time>2026-04-26T11:28:18.946Z</time></trkpt><trkpt lat="44.3540844" lon="7.8133202"><ele>513.0</ele><time>2026-04-26T11:28:19.946Z</time></trkpt><trkpt lat="44.3541231" lon="7.8131869"><ele>513.0</ele><time>2026-04-26T11:28:20.946Z</time></trkpt><trkpt lat="44.3542024" lon="7.8130765"><ele>513.0</ele><time>2026-04-26T11:28:21.946Z</time></trkpt><trkpt lat="44.3542777" lon="7.8129961"><ele>513.0</ele><time>2026-04-26T11:28:22.946Z</time></trkpt><trkpt lat="44.354353" lon="7.8129103"><ele>513.0</ele><time>2026-04-26T11:28:23.946Z</time></trkpt><trkpt lat="44.3544022" lon="7.8128091"><ele>513.0</ele><time>2026-04-26T11:28:24.945Z</time></trkpt><trkpt lat="44.3544179" lon="7.8126793"><ele>513.0</ele><time>2026-04-26T11:28:25.946Z</time></trkpt><trkpt lat="44.3543997" lon="7.8125354"><ele>513.0</ele><time>2026-04-26T11:28:26.945Z</time></trkpt><trkpt lat="44.3543569" lon="7.8123842"><ele>513.0</ele><time>2026-04-26T11:28:27.945Z</time></trkpt><trkpt lat="44.3543007" lon="7.8122223"><ele>513.0</ele><time>2026-04-26T11:28:28.946Z</time></trkpt><trkpt lat="44.3542482" lon="7.812043"><ele>510.0</ele><time>2026-04-26T11:28:29.945Z</time></trkpt><trkpt lat="44.3542055" lon="7.811856"><ele>507.0</ele><time>2026-04-26T11:28:30.946Z</time></trkpt><trkpt lat="44.3541721" lon="7.8116738"><ele>504.0</ele><time>2026-04-26T11:28:31.945Z</time></trkpt><trkpt lat="44.3541516" lon="7.8115129"><ele>501.0</ele><time>2026-04-26T11:28:32.946Z</time></trkpt><trkpt lat="44.3541314" lon="7.8113543"><ele>500.25</ele><time>2026-04-26T11:28:33.945Z</time></trkpt><trkpt lat="44.3541314" lon="7.8111826"><ele>499.5</ele><time>2026-04-26T11:28:34.946Z</time></trkpt><trkpt lat="44.3541612" lon="7.8110067"><ele>498.75</ele><time>2026-04-26T11:28:35.946Z</time></trkpt><trkpt lat="44.3542043" lon="7.8108257"><ele>498.0</ele><time>2026-04-26T11:28:36.946Z</time></trkpt><trkpt lat="44.3542602" lon="7.8106674"><ele>497.0</ele><time>2026-04-26T11:28:37.945Z</time></trkpt><trkpt lat="44.3543186" lon="7.8105166"><ele>496.0</ele><time>2026-04-26T11:28:38.944Z</time></trkpt><trkpt lat="44.3543528" lon="7.8103725"><ele>495.0</ele><time>2026-04-26T11:28:39.946Z</time></trkpt><trkpt lat="44.3543673" lon="7.8102165"><ele>494.0</ele><time>2026-04-26T11:28:40.946Z</time></trkpt><trkpt lat="44.3543848" lon="7.8100335"><ele>492.5</ele><time>2026-04-26T11:28:41.946Z</time></trkpt><trkpt lat="44.3543916" lon="7.8098377"><ele>491.0</ele><time>2026-04-26T11:28:42.946Z</time></trkpt><trkpt lat="44.3544174" lon="7.809631"><ele>489.5</ele><time>2026-04-26T11:28:43.946Z</time></trkpt><trkpt lat="44.3544416" lon="7.8094267"><ele>488.0</ele><time>2026-04-26T11:28:44.945Z</time></trkpt><trkpt lat="44.3544453" lon="7.8092446"><ele>486.5</ele><time>2026-04-26T11:28:45.946Z</time></trkpt><trkpt lat="44.354443" lon="7.8090743"><ele>485.0</ele><time>2026-04-26T11:28:46.946Z</time></trkpt><trkpt lat="44.3544065" lon="7.8088934"><ele>483.5</ele><time>2026-04-26T11:28:47.946Z</time></trkpt><trkpt lat="44.3543617" lon="7.8087254"><ele>482.0</ele><time>2026-04-26T11:28:48.945Z</time></trkpt><trkpt lat="44.3543136" lon="7.808551"><ele>480.25</ele><time>2026-04-26T11:28:49.946Z</time></trkpt><trkpt lat="44.3542837" lon="7.8083792"><ele>478.5</ele><time>2026-04-26T11:28:50.94Z</time></trkpt><trkpt lat="44.3542604" lon="7.808199"><ele>476.75</ele><time>2026-04-26T11:28:51.946Z</time></trkpt><trkpt lat="44.3542443" lon="7.8080143"><ele>475.0</ele><time>2026-04-26T11:28:52.945Z</time></trkpt><trkpt lat="44.3542279" lon="7.807827"><ele>474.25</ele><time>2026-04-26T11:28:53.946Z</time></trkpt><trkpt lat="44.354209" lon="7.8076511"><ele>473.5</ele><time>2026-04-26T11:28:54.945Z</time></trkpt><trkpt lat="44.3541903" lon="7.8074734"><ele>472.75</ele><time>2026-04-26T11:28:55.945Z</time></trkpt><trkpt lat="44.3541761" lon="7.8073263"><ele>472.0</ele><time>2026-04-26T11:28:56.946Z</time></trkpt><trkpt lat="44.354165" lon="7.807197"><ele>472.0</ele><time>2026-04-26T11:28:57.946Z</time></trkpt><trkpt lat="44.3541528" lon="7.8070776"><ele>472.0</ele><time>2026-04-26T11:28:58.945Z</time></trkpt><trkpt lat="44.3541268" lon="7.8069128"><ele>472.0</ele><time>2026-04-26T11:28:59.946Z</time></trkpt><trkpt lat="44.354098" lon="7.8067311"><ele>472.0</ele><time>2026-04-26T11:29:00.945Z</time></trkpt><trkpt lat="44.3540683" lon="7.8065217"><ele>470.0</ele><time>2026-04-26T11:29:01.946Z</time></trkpt><trkpt lat="44.3540353" lon="7.8062999"><ele>468.0</ele><time>2026-04-26T11:29:02.946Z</time></trkpt><trkpt lat="44.3540019" lon="7.8060472"><ele>466.0</ele><time>2026-04-26T11:29:03.946Z</time></trkpt><trkpt lat="44.3539731" lon="7.8057991"><ele>465.6666666666667</ele><time>2026-04-26T11:29:04.946Z</time></trkpt><trkpt lat="44.3539433" lon="7.805537"><ele>465.33333333333337</ele><time>2026-04-26T11:29:05.946Z</time></trkpt><trkpt lat="44.3539107" lon="7.8052535"><ele>465.0</ele><time>2026-04-26T11:29:06.946Z</time></trkpt><trkpt lat="44.353871" lon="7.8049665"><ele>465.0</ele><time>2026-04-26T11:29:07.944Z</time></trkpt><trkpt lat="44.3538195" lon="7.8046736"><ele>465.0</ele><time>2026-04-26T11:29:08.946Z</time></trkpt><trkpt lat="44.3537648" lon="7.8043699"><ele>465.0</ele><time>2026-04-26T11:29:09.945Z</time></trkpt><trkpt lat="44.3536986" lon="7.8040674"><ele>465.0</ele><time>2026-04-26T11:29:10.945Z</time></trkpt><trkpt lat="44.3536246" lon="7.8037672"><ele>465.0</ele><time>2026-04-26T11:29:11.943Z</time></trkpt><trkpt lat="44.3535416" lon="7.8034766"><ele>465.0</ele><time>2026-04-26T11:29:12.943Z</time></trkpt><trkpt lat="44.3534434" lon="7.8031889"><ele>465.0</ele><time>2026-04-26T11:29:13.946Z</time></trkpt><trkpt lat="44.3533383" lon="7.8028956"><ele>464.5</ele><time>2026-04-26T11:29:14.946Z</time></trkpt><trkpt lat="44.3532257" lon="7.8026088"><ele>464.0</ele><time>2026-04-26T11:29:15.945Z</time></trkpt><trkpt lat="44.3531044" lon="7.8023138"><ele>465.0</ele><time>2026-04-26T11:29:16.946Z</time></trkpt><trkpt lat="44.3529868" lon="7.8020209"><ele>466.0</ele><time>2026-04-26T11:29:17.945Z</time></trkpt><trkpt lat="44.3528603" lon="7.8017277"><ele>466.5</ele><time>2026-04-26T11:29:18.946Z</time></trkpt><trkpt lat="44.3527325" lon="7.8014302"><ele>467.0</ele><time>2026-04-26T11:29:19.946Z</time></trkpt><trkpt lat="44.3526045" lon="7.8011306"><ele>466.0</ele><time>2026-04-26T11:29:20.946Z</time></trkpt><trkpt lat="44.3524758" lon="7.8008205"><ele>465.0</ele><time>2026-04-26T11:29:21.946Z</time></trkpt><trkpt lat="44.3523476" lon="7.8005143"><ele>465.0</ele><time>2026-04-26T11:29:22.946Z</time></trkpt><trkpt lat="44.3522191" lon="7.8002103"><ele>465.0</ele><time>2026-04-26T11:29:23.946Z</time></trkpt><trkpt lat="44.3520866" lon="7.7999087"><ele>465.5</ele><time>2026-04-26T11:29:24.945Z</time></trkpt><trkpt lat="44.3519549" lon="7.7996093"><ele>466.0</ele><time>2026-04-26T11:29:25.946Z</time></trkpt><trkpt lat="44.351827" lon="7.7993001"><ele>467.0</ele><time>2026-04-26T11:29:26.945Z</time></trkpt><trkpt lat="44.3516994" lon="7.7989898"><ele>468.0</ele><time>2026-04-26T11:29:27.946Z</time></trkpt><trkpt lat="44.3515679" lon="7.7986867"><ele>468.5</ele><time>2026-04-26T11:29:28.945Z</time></trkpt><trkpt lat="44.3514411" lon="7.7983782"><ele>469.0</ele><time>2026-04-26T11:29:29.946Z</time></trkpt><trkpt lat="44.3513135" lon="7.7980792"><ele>469.0</ele><time>2026-04-26T11:29:30.946Z</time></trkpt><trkpt lat="44.3511884" lon="7.7977792"><ele>469.0</ele><time>2026-04-26T11:29:31.946Z</time></trkpt><trkpt lat="44.3510593" lon="7.7974846"><ele>469.0</ele><time>2026-04-26T11:29:32.946Z</time></trkpt><trkpt lat="44.3509314" lon="7.79718"><ele>469.0</ele><time>2026-04-26T11:29:33.946Z</time></trkpt><trkpt lat="44.3508093" lon="7.7968903"><ele>468.5</ele><time>2026-04-26T11:29:34.946Z</time></trkpt><trkpt lat="44.3506896" lon="7.7965941"><ele>468.0</ele><time>2026-04-26T11:29:35.941Z</time></trkpt><trkpt lat="44.3505656" lon="7.7963034"><ele>468.0</ele><time>2026-04-26T11:29:36.946Z</time></trkpt><trkpt lat="44.3504375" lon="7.7960163"><ele>468.0</ele><time>2026-04-26T11:29:37.946Z</time></trkpt><trkpt lat="44.3503082" lon="7.7957323"><ele>469.0</ele><time>2026-04-26T11:29:38.946Z</time></trkpt><trkpt lat="44.3501744" lon="7.7954429"><ele>470.0</ele><time>2026-04-26T11:29:39.946Z</time></trkpt><trkpt lat="44.3500312" lon="7.7951645"><ele>471.0</ele><time>2026-04-26T11:29:40.943Z</time></trkpt><trkpt lat="44.3498852" lon="7.7948928"><ele>472.0</ele><time>2026-04-26T11:29:41.946Z</time></trkpt><trkpt lat="44.3497307" lon="7.7946226"><ele>472.0</ele><time>2026-04-26T11:29:42.946Z</time></trkpt><trkpt lat="44.3495702" lon="7.794362"><ele>472.0</ele><time>2026-04-26T11:29:43.946Z</time></trkpt><trkpt lat="44.3494037" lon="7.7941021"><ele>472.0</ele><time>2026-04-26T11:29:44.946Z</time></trkpt><trkpt lat="44.3492333" lon="7.7938494"><ele>472.0</ele><time>2026-04-26T11:29:45.945Z</time></trkpt><trkpt lat="44.3490549" lon="7.7936034"><ele>473.0</ele><time>2026-04-26T11:29:46.946Z</time></trkpt><trkpt lat="44.3488734" lon="7.7933655"><ele>474.0</ele><time>2026-04-26T11:29:47.946Z</time></trkpt><trkpt lat="44.3486858" lon="7.7931293"><ele>474.0</ele><time>2026-04-26T11:29:48.946Z</time></trkpt><trkpt lat="44.3484918" lon="7.792902"><ele>474.0</ele><time>2026-04-26T11:29:49.946Z</time></trkpt><trkpt lat="44.3482973" lon="7.7926737"><ele>474.5</ele><time>2026-04-26T11:29:50.946Z</time></trkpt><trkpt lat="44.3481029" lon="7.7924568"><ele>475.0</ele><time>2026-04-26T11:29:51.946Z</time></trkpt><trkpt lat="44.3479007" lon="7.7922422"><ele>475.0</ele><time>2026-04-26T11:29:52.946Z</time></trkpt><trkpt lat="44.3477042" lon="7.7920311"><ele>475.0</ele><time>2026-04-26T11:29:53.945Z</time></trkpt><trkpt lat="44.3475098" lon="7.791822"><ele>476.0</ele><time>2026-04-26T11:29:54.945Z</time></trkpt><trkpt lat="44.3473144" lon="7.791606"><ele>477.0</ele><time>2026-04-26T11:29:55.946Z</time></trkpt><trkpt lat="44.3471195" lon="7.7913848"><ele>478.5</ele><time>2026-04-26T11:29:56.946Z</time></trkpt><trkpt lat="44.3469263" lon="7.7911577"><ele>480.0</ele><time>2026-04-26T11:29:57.946Z</time></trkpt><trkpt lat="44.3467373" lon="7.7909344"><ele>480.0</ele><time>2026-04-26T11:29:58.946Z</time></trkpt><trkpt lat="44.3465556" lon="7.7906968"><ele>480.0</ele><time>2026-04-26T11:29:59.946Z</time></trkpt><trkpt lat="44.3463749" lon="7.7904472"><ele>480.0</ele><time>2026-04-26T11:30:00.941Z</time></trkpt><trkpt lat="44.3462043" lon="7.7901883"><ele>480.0</ele><time>2026-04-26T11:30:01.946Z</time></trkpt><trkpt lat="44.3460427" lon="7.7899195"><ele>480.0</ele><time>2026-04-26T11:30:02.946Z</time></trkpt><trkpt lat="44.3458883" lon="7.7896284"><ele>480.0</ele><time>2026-04-26T11:30:03.945Z</time></trkpt><trkpt lat="44.3457321" lon="7.789342"><ele>480.0</ele><time>2026-04-26T11:30:04.946Z</time></trkpt><trkpt lat="44.3455764" lon="7.789061"><ele>480.0</ele><time>2026-04-26T11:30:05.946Z</time></trkpt><trkpt lat="44.3454233" lon="7.788775"><ele>481.0</ele><time>2026-04-26T11:30:06.946Z</time></trkpt><trkpt lat="44.3452709" lon="7.7884852"><ele>482.0</ele><time>2026-04-26T11:30:07.945Z</time></trkpt><trkpt lat="44.3451194" lon="7.7881978"><ele>482.0</ele><time>2026-04-26T11:30:08.946Z</time></trkpt><trkpt lat="44.3449694" lon="7.7879085"><ele>482.0</ele><time>2026-04-26T11:30:09.946Z</time></trkpt><trkpt lat="44.3448164" lon="7.7876217"><ele>482.5</ele><time>2026-04-26T11:30:10.945Z</time></trkpt><trkpt lat="44.3446595" lon="7.7873293"><ele>483.0</ele><time>2026-04-26T11:30:11.946Z</time></trkpt><trkpt lat="44.3444932" lon="7.7870351"><ele>483.5</ele><time>2026-04-26T11:30:12.945Z</time></trkpt><trkpt lat="44.3443265" lon="7.7867351"><ele>484.0</ele><time>2026-04-26T11:30:13.946Z</time></trkpt><trkpt lat="44.3441584" lon="7.7864246"><ele>484.0</ele><time>2026-04-26T11:30:14.945Z</time></trkpt><trkpt lat="44.3439887" lon="7.7861132"><ele>484.0</ele><time>2026-04-26T11:30:15.946Z</time></trkpt><trkpt lat="44.3438246" lon="7.785792"><ele>485.0</ele><time>2026-04-26T11:30:16.946Z</time></trkpt><trkpt lat="44.3436576" lon="7.7854704"><ele>486.0</ele><time>2026-04-26T11:30:17.944Z</time></trkpt><trkpt lat="44.3434971" lon="7.7851465"><ele>486.5</ele><time>2026-04-26T11:30:18.946Z</time></trkpt><trkpt lat="44.3433388" lon="7.784827"><ele>487.0</ele><time>2026-04-26T11:30:19.946Z</time></trkpt><trkpt lat="44.3431803" lon="7.7845163"><ele>487.5</ele><time>2026-04-26T11:30:20.946Z</time></trkpt><trkpt lat="44.3430239" lon="7.7842071"><ele>488.0</ele><time>2026-04-26T11:30:21.946Z</time></trkpt><trkpt lat="44.3428722" lon="7.7839192"><ele>488.0</ele><time>2026-04-26T11:30:22.946Z</time></trkpt><trkpt lat="44.3427264" lon="7.7836446"><ele>488.0</ele><time>2026-04-26T11:30:23.945Z</time></trkpt><trkpt lat="44.3425837" lon="7.7833759"><ele>489.0</ele><time>2026-04-26T11:30:24.946Z</time></trkpt><trkpt lat="44.3424368" lon="7.7831076"><ele>490.0</ele><time>2026-04-26T11:30:25.946Z</time></trkpt><trkpt lat="44.3422979" lon="7.7828444"><ele>490.5</ele><time>2026-04-26T11:30:26.946Z</time></trkpt><trkpt lat="44.34216" lon="7.7825848"><ele>491.0</ele><time>2026-04-26T11:30:27.946Z</time></trkpt><trkpt lat="44.3420234" lon="7.7823217"><ele>491.0</ele><time>2026-04-26T11:30:28.945Z</time></trkpt><trkpt lat="44.3418791" lon="7.7820592"><ele>491.0</ele><time>2026-04-26T11:30:29.946Z</time></trkpt><trkpt lat="44.3417377" lon="7.7818005"><ele>491.0</ele><time>2026-04-26T11:30:30.945Z</time></trkpt><trkpt lat="44.3415963" lon="7.7815408"><ele>491.0</ele><time>2026-04-26T11:30:31.946Z</time></trkpt><trkpt lat="44.3414582" lon="7.7812748"><ele>490.5</ele><time>2026-04-26T11:30:32.945Z</time></trkpt><trkpt lat="44.3413159" lon="7.7810006"><ele>490.0</ele><time>2026-04-26T11:30:33.946Z</time></trkpt><trkpt lat="44.3411728" lon="7.7807248"><ele>490.0</ele><time>2026-04-26T11:30:34.945Z</time></trkpt><trkpt lat="44.3410274" lon="7.7804481"><ele>490.0</ele><time>2026-04-26T11:30:35.945Z</time></trkpt><trkpt lat="44.3408729" lon="7.7801712"><ele>489.5</ele><time>2026-04-26T11:30:36.946Z</time></trkpt><trkpt lat="44.340724" lon="7.7798948"><ele>489.0</ele><time>2026-04-26T11:30:37.946Z</time></trkpt><trkpt lat="44.3405757" lon="7.7796296"><ele>489.66666666666663</ele><time>2026-04-26T11:30:38.946Z</time></trkpt><trkpt lat="44.3404409" lon="7.7793778"><ele>490.3333333333333</ele><time>2026-04-26T11:30:39.945Z</time></trkpt><trkpt lat="44.3403137" lon="7.7791367"><ele>491.0</ele><time>2026-04-26T11:30:40.945Z</time></trkpt><trkpt lat="44.3402001" lon="7.7789184"><ele>491.25</ele><time>2026-04-26T11:30:41.944Z</time></trkpt><trkpt lat="44.3401072" lon="7.7787307"><ele>491.5</ele><time>2026-04-26T11:30:42.946Z</time></trkpt><trkpt lat="44.3400422" lon="7.7785646"><ele>491.75</ele><time>2026-04-26T11:30:43.946Z</time></trkpt><trkpt lat="44.3400002" lon="7.7784164"><ele>492.0</ele><time>2026-04-26T11:30:44.946Z</time></trkpt><trkpt lat="44.3399922" lon="7.7782655"><ele>492.0</ele><time>2026-04-26T11:30:45.946Z</time></trkpt><trkpt lat="44.3400261" lon="7.7781267"><ele>492.0</ele><time>2026-04-26T11:30:46.946Z</time></trkpt><trkpt lat="44.3401009" lon="7.7780152"><ele>492.0</ele><time>2026-04-26T11:30:47.946Z</time></trkpt><trkpt lat="44.3402135" lon="7.7779365"><ele>492.0</ele><time>2026-04-26T11:30:48.946Z</time></trkpt><trkpt lat="44.3403539" lon="7.7778915"><ele>492.0</ele><time>2026-04-26T11:30:49.946Z</time></trkpt><trkpt lat="44.3405073" lon="7.7778505"><ele>492.0</ele><time>2026-04-26T11:30:50.946Z</time></trkpt><trkpt lat="44.3406745" lon="7.7778104"><ele>492.0</ele><time>2026-04-26T11:30:51.946Z</time></trkpt><trkpt lat="44.3408531" lon="7.7777784"><ele>492.33333333333337</ele><time>2026-04-26T11:30:52.946Z</time></trkpt><trkpt lat="44.3410386" lon="7.7777472"><ele>492.6666666666667</ele><time>2026-04-26T11:30:53.946Z</time></trkpt><trkpt lat="44.3412341" lon="7.7777135"><ele>493.0</ele><time>2026-04-26T11:30:54.946Z</time></trkpt><trkpt lat="44.3414303" lon="7.7776845"><ele>493.0</ele><time>2026-04-26T11:30:55.946Z</time></trkpt><trkpt lat="44.3416342" lon="7.7776553"><ele>493.0</ele><time>2026-04-26T11:30:56.946Z</time></trkpt><trkpt lat="44.3418424" lon="7.7776212"><ele>493.0</ele><time>2026-04-26T11:30:57.946Z</time></trkpt><trkpt lat="44.3420468" lon="7.7775921"><ele>494.0</ele><time>2026-04-26T11:30:58.946Z</time></trkpt><trkpt lat="44.3422464" lon="7.7775673"><ele>495.0</ele><time>2026-04-26T11:30:59.942Z</time></trkpt><trkpt lat="44.3424412" lon="7.7775394"><ele>496.0</ele><time>2026-04-26T11:31:00.944Z</time></trkpt><trkpt lat="44.3426364" lon="7.7775154"><ele>496.0</ele><time>2026-04-26T11:31:01.946Z</time></trkpt><trkpt lat="44.3428176" lon="7.7774806"><ele>496.0</ele><time>2026-04-26T11:31:02.946Z</time></trkpt><trkpt lat="44.3429981" lon="7.7774558"><ele>496.0</ele><time>2026-04-26T11:31:03.946Z</time></trkpt><trkpt lat="44.3431734" lon="7.7774268"><ele>495.6666666666667</ele><time>2026-04-26T11:31:04.945Z</time></trkpt><trkpt lat="44.3433529" lon="7.7773968"><ele>495.33333333333337</ele><time>2026-04-26T11:31:05.945Z</time></trkpt><trkpt lat="44.3435273" lon="7.777355"><ele>495.0</ele><time>2026-04-26T11:31:06.946Z</time></trkpt><trkpt lat="44.3436916" lon="7.7773108"><ele>495.0</ele><time>2026-04-26T11:31:07.946Z</time></trkpt><trkpt lat="44.3438392" lon="7.7772592"><ele>495.0</ele><time>2026-04-26T11:31:08.946Z</time></trkpt><trkpt lat="44.3439781" lon="7.7772005"><ele>495.0</ele><time>2026-04-26T11:31:09.946Z</time></trkpt><trkpt lat="44.3440972" lon="7.7771377"><ele>495.0</ele><time>2026-04-26T11:31:10.945Z</time></trkpt><trkpt lat="44.3442137" lon="7.777074"><ele>495.75</ele><time>2026-04-26T11:31:11.945Z</time></trkpt><trkpt lat="44.3443292" lon="7.7770095"><ele>496.5</ele><time>2026-04-26T11:31:12.94Z</time></trkpt><trkpt lat="44.3444404" lon="7.7769537"><ele>497.25</ele><time>2026-04-26T11:31:13.946Z</time></trkpt><trkpt lat="44.3445472" lon="7.7768848"><ele>498.0</ele><time>2026-04-26T11:31:14.946Z</time></trkpt><trkpt lat="44.344652" lon="7.7768117"><ele>500.0</ele><time>2026-04-26T11:31:15.946Z</time></trkpt><trkpt lat="44.3447534" lon="7.7767387"><ele>502.0</ele><time>2026-04-26T11:31:16.946Z</time></trkpt><trkpt lat="44.3448578" lon="7.7766615"><ele>504.0</ele><time>2026-04-26T11:31:17.945Z</time></trkpt><trkpt lat="44.3449593" lon="7.7765789"><ele>506.0</ele><time>2026-04-26T11:31:18.946Z</time></trkpt><trkpt lat="44.3450633" lon="7.7764885"><ele>506.0</ele><time>2026-04-26T11:31:19.946Z</time></trkpt><trkpt lat="44.3451723" lon="7.7764039"><ele>506.0</ele><time>2026-04-26T11:31:20.946Z</time></trkpt><trkpt lat="44.3452816" lon="7.7763142"><ele>506.0</ele><time>2026-04-26T11:31:21.946Z</time></trkpt><trkpt lat="44.3453888" lon="7.7762204"><ele>506.0</ele><time>2026-04-26T11:31:22.946Z</time></trkpt><trkpt lat="44.3454986" lon="7.7761251"><ele>505.75</ele><time>2026-04-26T11:31:23.94Z</time></trkpt><trkpt lat="44.3456103" lon="7.7760284"><ele>505.5</ele><time>2026-04-26T11:31:24.946Z</time></trkpt><trkpt lat="44.345725" lon="7.775927"><ele>505.25</ele><time>2026-04-26T11:31:25.946Z</time></trkpt><trkpt lat="44.3458356" lon="7.7758208"><ele>505.0</ele><time>2026-04-26T11:31:26.946Z</time></trkpt><trkpt lat="44.3459534" lon="7.7757082"><ele>505.5</ele><time>2026-04-26T11:31:27.946Z</time></trkpt><trkpt lat="44.3460711" lon="7.7755876"><ele>506.0</ele><time>2026-04-26T11:31:28.946Z</time></trkpt><trkpt lat="44.3461835" lon="7.7754567"><ele>506.5</ele><time>2026-04-26T11:31:29.946Z</time></trkpt><trkpt lat="44.346299" lon="7.7753213"><ele>507.0</ele><time>2026-04-26T11:31:30.946Z</time></trkpt><trkpt lat="44.3464143" lon="7.775187"><ele>507.0</ele><time>2026-04-26T11:31:31.945Z</time></trkpt><trkpt lat="44.3465242" lon="7.7750489"><ele>507.0</ele><time>2026-04-26T11:31:32.945Z</time></trkpt><trkpt lat="44.3466219" lon="7.7748975"><ele>507.0</ele><time>2026-04-26T11:31:33.946Z</time></trkpt><trkpt lat="44.3467172" lon="7.7747411"><ele>507.0</ele><time>2026-04-26T11:31:34.945Z</time></trkpt><trkpt lat="44.3468057" lon="7.7745781"><ele>507.0</ele><time>2026-04-26T11:31:35.945Z</time></trkpt><trkpt lat="44.3468852" lon="7.7744114"><ele>507.0</ele><time>2026-04-26T11:31:36.946Z</time></trkpt><trkpt lat="44.3469638" lon="7.7742507"><ele>507.0</ele><time>2026-04-26T11:31:37.946Z</time></trkpt><trkpt lat="44.3470351" lon="7.7740752"><ele>507.0</ele><time>2026-04-26T11:31:38.945Z</time></trkpt><trkpt lat="44.3471065" lon="7.7739038"><ele>507.0</ele><time>2026-04-26T11:31:39.946Z</time></trkpt><trkpt lat="44.3471547" lon="7.7737109"><ele>507.0</ele><time>2026-04-26T11:31:40.946Z</time></trkpt><trkpt lat="44.347211" lon="7.7735261"><ele>507.0</ele><time>2026-04-26T11:31:41.945Z</time></trkpt><trkpt lat="44.3472673" lon="7.7733362"><ele>507.0</ele><time>2026-04-26T11:31:42.946Z</time></trkpt><trkpt lat="44.3473209" lon="7.7731447"><ele>507.0</ele><time>2026-04-26T11:31:43.942Z</time></trkpt><trkpt lat="44.3473755" lon="7.7729517"><ele>507.0</ele><time>2026-04-26T11:31:44.946Z</time></trkpt><trkpt lat="44.3474261" lon="7.7727596"><ele>507.0</ele><time>2026-04-26T11:31:45.946Z</time></trkpt><trkpt lat="44.3474782" lon="7.7725688"><ele>507.0</ele><time>2026-04-26T11:31:46.946Z</time></trkpt><trkpt lat="44.3475334" lon="7.7723783"><ele>507.25</ele><time>2026-04-26T11:31:47.946Z</time></trkpt><trkpt lat="44.3475884" lon="7.7721871"><ele>507.5</ele><time>2026-04-26T11:31:48.945Z</time></trkpt><trkpt lat="44.3476433" lon="7.772006"><ele>507.75</ele><time>2026-04-26T11:31:49.946Z</time></trkpt><trkpt lat="44.3476975" lon="7.7718447"><ele>508.0</ele><time>2026-04-26T11:31:50.946Z</time></trkpt><trkpt lat="44.3477538" lon="7.7717185"><ele>508.1666666666667</ele><time>2026-04-26T11:31:51.946Z</time></trkpt><trkpt lat="44.3478046" lon="7.7716314"><ele>508.33333333333337</ele><time>2026-04-26T11:31:52.946Z</time></trkpt><trkpt lat="44.3478524" lon="7.7715656"><ele>508.5</ele><time>2026-04-26T11:31:53.945Z</time></trkpt><trkpt lat="44.3479261" lon="7.7715215"><ele>508.66666666666663</ele><time>2026-04-26T11:31:54.945Z</time></trkpt><trkpt lat="44.3479895" lon="7.7714514"><ele>508.8333333333333</ele><time>2026-04-26T11:31:55.945Z</time></trkpt><trkpt lat="44.3480268" lon="7.7713522"><ele>509.0</ele><time>2026-04-26T11:31:56.946Z</time></trkpt><trkpt lat="44.3480268" lon="7.7712451"><ele>509.0</ele><time>2026-04-26T11:31:57.946Z</time></trkpt><trkpt lat="44.3479849" lon="7.7711379"><ele>509.0</ele><time>2026-04-26T11:31:58.946Z</time></trkpt><trkpt lat="44.3479168" lon="7.7710297"><ele>509.0</ele><time>2026-04-26T11:31:59.946Z</time></trkpt><trkpt lat="44.3478462" lon="7.7708957"><ele>509.0</ele><time>2026-04-26T11:32:00.945Z</time></trkpt><trkpt lat="44.3477972" lon="7.7707365"><ele>509.0</ele><time>2026-04-26T11:32:01.943Z</time></trkpt><trkpt lat="44.3477669" lon="7.7705537"><ele>510.3333333333333</ele><time>2026-04-26T11:32:02.946Z</time></trkpt><trkpt lat="44.3477625" lon="7.7703496"><ele>511.66666666666663</ele><time>2026-04-26T11:32:03.945Z</time></trkpt><trkpt lat="44.3477816" lon="7.7701386"><ele>513.0</ele><time>2026-04-26T11:32:04.946Z</time></trkpt><trkpt lat="44.3478074" lon="7.769919"><ele>514.0</ele><time>2026-04-26T11:32:05.946Z</time></trkpt><trkpt lat="44.3478363" lon="7.7696964"><ele>515.0</ele><time>2026-04-26T11:32:06.946Z</time></trkpt><trkpt lat="44.3478682" lon="7.7694744"><ele>516.0</ele><time>2026-04-26T11:32:07.943Z</time></trkpt><trkpt lat="44.3479029" lon="7.7692473"><ele>517.0</ele><time>2026-04-26T11:32:08.946Z</time></trkpt><trkpt lat="44.3479342" lon="7.7690125"><ele>518.0</ele><time>2026-04-26T11:32:09.944Z</time></trkpt><trkpt lat="44.3479659" lon="7.7687785"><ele>519.0</ele><time>2026-04-26T11:32:10.946Z</time></trkpt><trkpt lat="44.3480029" lon="7.7685418"><ele>521.0</ele><time>2026-04-26T11:32:11.946Z</time></trkpt><trkpt lat="44.3480487" lon="7.7683149"><ele>523.0</ele><time>2026-04-26T11:32:12.944Z</time></trkpt><trkpt lat="44.3480943" lon="7.7680887"><ele>525.0</ele><time>2026-04-26T11:32:13.945Z</time></trkpt><trkpt lat="44.3481354" lon="7.7678761"><ele>526.0</ele><time>2026-04-26T11:32:14.946Z</time></trkpt><trkpt lat="44.3481689" lon="7.7676914"><ele>527.0</ele><time>2026-04-26T11:32:15.946Z</time></trkpt><trkpt lat="44.348196" lon="7.7675192"><ele>528.0</ele><time>2026-04-26T11:32:16.946Z</time></trkpt><trkpt lat="44.348231" lon="7.767374"><ele>529.0</ele><time>2026-04-26T11:32:17.946Z</time></trkpt><trkpt lat="44.3482759" lon="7.7672579"><ele>529.0</ele><time>2026-04-26T11:32:18.945Z</time></trkpt><trkpt lat="44.3483437" lon="7.7671653"><ele>529.0</ele><time>2026-04-26T11:32:20.946Z</time></trkpt><trkpt lat="44.3483991" lon="7.7671144"><ele>529.0</ele><time>2026-04-26T11:32:22.946Z</time></trkpt><trkpt lat="44.3484525" lon="7.767057"><ele>529.0</ele><time>2026-04-26T11:32:23.946Z</time></trkpt><trkpt lat="44.3484802" lon="7.7668759"><ele>529.0</ele><time>2026-04-26T11:32:25.945Z</time></trkpt><trkpt lat="44.3484582" lon="7.7667468"><ele>529.5</ele><time>2026-04-26T11:32:26.946Z</time></trkpt><trkpt lat="44.3484302" lon="7.7665918"><ele>530.0</ele><time>2026-04-26T11:32:27.945Z</time></trkpt><trkpt lat="44.3484216" lon="7.7664372"><ele>530.5</ele><time>2026-04-26T11:32:28.946Z</time></trkpt><trkpt lat="44.3484175" lon="7.7662678"><ele>531.0</ele><time>2026-04-26T11:32:29.946Z</time></trkpt><trkpt lat="44.3484112" lon="7.7660931"><ele>531.6666666666666</ele><time>2026-04-26T11:32:30.946Z</time></trkpt><trkpt lat="44.3484272" lon="7.7659011"><ele>532.3333333333333</ele><time>2026-04-26T11:32:31.946Z</time></trkpt><trkpt lat="44.3484681" lon="7.7656924"><ele>533.0</ele><time>2026-04-26T11:32:32.946Z</time></trkpt><trkpt lat="44.3485183" lon="7.7654729"><ele>533.0</ele><time>2026-04-26T11:32:33.946Z</time></trkpt><trkpt lat="44.3485571" lon="7.7652517"><ele>533.0</ele><time>2026-04-26T11:32:34.946Z</time></trkpt><trkpt lat="44.3485891" lon="7.7650266"><ele>533.0</ele><time>2026-04-26T11:32:35.946Z</time></trkpt><trkpt lat="44.3486292" lon="7.7647958"><ele>532.6666666666666</ele><time>2026-04-26T11:32:36.945Z</time></trkpt><trkpt lat="44.3486651" lon="7.7645739"><ele>532.3333333333334</ele><time>2026-04-26T11:32:37.945Z</time></trkpt><trkpt lat="44.3486979" lon="7.7643553"><ele>532.0</ele><time>2026-04-26T11:32:38.946Z</time></trkpt><trkpt lat="44.3487297" lon="7.7641444"><ele>532.5</ele><time>2026-04-26T11:32:39.945Z</time></trkpt><trkpt lat="44.3487574" lon="7.7639311"><ele>533.0</ele><time>2026-04-26T11:32:40.946Z</time></trkpt><trkpt lat="44.3487763" lon="7.7637263"><ele>533.5</ele><time>2026-04-26T11:32:41.942Z</time></trkpt><trkpt lat="44.3487834" lon="7.7635219"><ele>534.0</ele><time>2026-04-26T11:32:42.945Z</time></trkpt><trkpt lat="44.3487748" lon="7.7633123"><ele>534.6666666666666</ele><time>2026-04-26T11:32:43.946Z</time></trkpt><trkpt lat="44.3487512" lon="7.7631015"><ele>535.3333333333333</ele><time>2026-04-26T11:32:44.945Z</time></trkpt><trkpt lat="44.3487173" lon="7.762883"><ele>536.0</ele><time>2026-04-26T11:32:45.944Z</time></trkpt><trkpt lat="44.3486683" lon="7.7626669"><ele>537.3333333333333</ele><time>2026-04-26T11:32:46.946Z</time></trkpt><trkpt lat="44.3485976" lon="7.7624562"><ele>538.6666666666666</ele><time>2026-04-26T11:32:47.946Z</time></trkpt><trkpt lat="44.3485185" lon="7.7622513"><ele>540.0</ele><time>2026-04-26T11:32:48.946Z</time></trkpt><trkpt lat="44.348436" lon="7.7620733"><ele>540.0</ele><time>2026-04-26T11:32:49.946Z</time></trkpt><trkpt lat="44.3483525" lon="7.7619233"><ele>540.0</ele><time>2026-04-26T11:32:50.946Z</time></trkpt><trkpt lat="44.3482757" lon="7.7617971"><ele>540.0</ele><time>2026-04-26T11:32:51.946Z</time></trkpt><trkpt lat="44.3482366" lon="7.7616607"><ele>540.0</ele><time>2026-04-26T11:32:52.945Z</time></trkpt><trkpt lat="44.3482283" lon="7.7614925"><ele>540.75</ele><time>2026-04-26T11:32:53.946Z</time></trkpt><trkpt lat="44.3482285" lon="7.7613158"><ele>541.5</ele><time>2026-04-26T11:32:54.943Z</time></trkpt><trkpt lat="44.3481961" lon="7.7611385"><ele>542.25</ele><time>2026-04-26T11:32:55.946Z</time></trkpt><trkpt lat="44.3481345" lon="7.7609546"><ele>543.0</ele><time>2026-04-26T11:32:56.943Z</time></trkpt><trkpt lat="44.3480755" lon="7.7607707"><ele>544.25</ele><time>2026-04-26T11:32:57.946Z</time></trkpt><trkpt lat="44.3480135" lon="7.760575"><ele>545.5</ele><time>2026-04-26T11:32:58.944Z</time></trkpt><trkpt lat="44.3479552" lon="7.760384"><ele>546.75</ele><time>2026-04-26T11:32:59.945Z</time></trkpt><trkpt lat="44.3479199" lon="7.7601891"><ele>548.0</ele><time>2026-04-26T11:33:00.946Z</time></trkpt><trkpt lat="44.3479126" lon="7.7599972"><ele>549.0</ele><time>2026-04-26T11:33:01.944Z</time></trkpt><trkpt lat="44.3479353" lon="7.7598098"><ele>550.0</ele><time>2026-04-26T11:33:02.945Z</time></trkpt><trkpt lat="44.3479884" lon="7.7596214"><ele>551.0</ele><time>2026-04-26T11:33:03.946Z</time></trkpt><trkpt lat="44.3480532" lon="7.7594288"><ele>552.0</ele><time>2026-04-26T11:33:04.945Z</time></trkpt><trkpt lat="44.3481269" lon="7.759223"><ele>556.0</ele><time>2026-04-26T11:33:05.943Z</time></trkpt><trkpt lat="44.3482028" lon="7.7590194"><ele>560.0</ele><time>2026-04-26T11:33:06.945Z</time></trkpt><trkpt lat="44.3482694" lon="7.758813"><ele>564.0</ele><time>2026-04-26T11:33:07.945Z</time></trkpt><trkpt lat="44.3483173" lon="7.7586133"><ele>565.25</ele><time>2026-04-26T11:33:08.946Z</time></trkpt><trkpt lat="44.3483351" lon="7.7584118"><ele>566.5</ele><time>2026-04-26T11:33:09.941Z</time></trkpt><trkpt lat="44.3483187" lon="7.758216"><ele>567.75</ele><time>2026-04-26T11:33:10.946Z</time></trkpt><trkpt lat="44.3482869" lon="7.7580181"><ele>569.0</ele><time>2026-04-26T11:33:11.945Z</time></trkpt><trkpt lat="44.3482588" lon="7.7578216"><ele>571.25</ele><time>2026-04-26T11:33:12.945Z</time></trkpt><trkpt lat="44.3482495" lon="7.7576342"><ele>573.5</ele><time>2026-04-26T11:33:13.94Z</time></trkpt><trkpt lat="44.3482651" lon="7.7574598"><ele>575.75</ele><time>2026-04-26T11:33:14.946Z</time></trkpt><trkpt lat="44.3483047" lon="7.7572995"><ele>578.0</ele><time>2026-04-26T11:33:15.946Z</time></trkpt><trkpt lat="44.3483568" lon="7.7571591"><ele>578.0</ele><time>2026-04-26T11:33:16.946Z</time></trkpt><trkpt lat="44.3484171" lon="7.7570374"><ele>578.0</ele><time>2026-04-26T11:33:17.944Z</time></trkpt><trkpt lat="44.3484915" lon="7.7569332"><ele>578.0</ele><time>2026-04-26T11:33:18.945Z</time></trkpt><trkpt lat="44.3485647" lon="7.7568246"><ele>578.0</ele><time>2026-04-26T11:33:19.944Z</time></trkpt><trkpt lat="44.3486311" lon="7.756705"><ele>578.0</ele><time>2026-04-26T11:33:20.945Z</time></trkpt><trkpt lat="44.3486754" lon="7.7565424"><ele>579.25</ele><time>2026-04-26T11:33:21.939Z</time></trkpt><trkpt lat="44.3487155" lon="7.7563592"><ele>580.5</ele><time>2026-04-26T11:33:22.946Z</time></trkpt><trkpt lat="44.3487484" lon="7.7561619"><ele>581.75</ele><time>2026-04-26T11:33:23.942Z</time></trkpt><trkpt lat="44.3487826" lon="7.7559656"><ele>583.0</ele><time>2026-04-26T11:33:24.946Z</time></trkpt><trkpt lat="44.3488185" lon="7.7557748"><ele>583.0</ele><time>2026-04-26T11:33:25.945Z</time></trkpt><trkpt lat="44.348843" lon="7.7556152"><ele>583.0</ele><time>2026-04-26T11:33:26.945Z</time></trkpt><trkpt lat="44.3488599" lon="7.7555069"><ele>583.0</ele><time>2026-04-26T11:33:27.945Z</time></trkpt><trkpt lat="44.3488723" lon="7.7554198"><ele>583.0</ele><time>2026-04-26T11:33:28.945Z</time></trkpt><trkpt lat="44.3488842" lon="7.7553068"><ele>583.0</ele><time>2026-04-26T11:33:29.946Z</time></trkpt><trkpt lat="44.3488864" lon="7.7551587"><ele>583.0</ele><time>2026-04-26T11:33:30.946Z</time></trkpt><trkpt lat="44.3488867" lon="7.7549887"><ele>583.1999999999999</ele><time>2026-04-26T11:33:31.946Z</time></trkpt><trkpt lat="44.3488799" lon="7.7548168"><ele>583.4</ele><time>2026-04-26T11:33:32.944Z</time></trkpt><trkpt lat="44.3488702" lon="7.7546513"><ele>583.5999999999999</ele><time>2026-04-26T11:33:33.946Z</time></trkpt><trkpt lat="44.3488505" lon="7.75451"><ele>583.8</ele><time>2026-04-26T11:33:34.945Z</time></trkpt><trkpt lat="44.3488192" lon="7.7543721"><ele>584.0</ele><time>2026-04-26T11:33:35.946Z</time></trkpt><trkpt lat="44.3487593" lon="7.7542397"><ele>584.5</ele><time>2026-04-26T11:33:36.946Z</time></trkpt><trkpt lat="44.3486964" lon="7.7541138"><ele>585.0</ele><time>2026-04-26T11:33:37.945Z</time></trkpt><trkpt lat="44.3486467" lon="7.7539804"><ele>585.5</ele><time>2026-04-26T11:33:38.945Z</time></trkpt><trkpt lat="44.3486056" lon="7.7538342"><ele>586.0</ele><time>2026-04-26T11:33:39.945Z</time></trkpt><trkpt lat="44.3485695" lon="7.7536694"><ele>586.5</ele><time>2026-04-26T11:33:40.944Z</time></trkpt><trkpt lat="44.3485331" lon="7.7535063"><ele>587.0</ele><time>2026-04-26T11:33:41.941Z</time></trkpt><trkpt lat="44.3484896" lon="7.753351"><ele>587.5</ele><time>2026-04-26T11:33:42.945Z</time></trkpt><trkpt lat="44.3484554" lon="7.7532009"><ele>588.0</ele><time>2026-04-26T11:33:43.946Z</time></trkpt><trkpt lat="44.3484357" lon="7.7530595"><ele>588.0</ele><time>2026-04-26T11:33:44.946Z</time></trkpt><trkpt lat="44.3484195" lon="7.7529245"><ele>588.0</ele><time>2026-04-26T11:33:45.946Z</time></trkpt><trkpt lat="44.3484094" lon="7.752786"><ele>588.0</ele><time>2026-04-26T11:33:46.945Z</time></trkpt><trkpt lat="44.3483952" lon="7.752662"><ele>588.0</ele><time>2026-04-26T11:33:47.946Z</time></trkpt><trkpt lat="44.3483925" lon="7.7525553"><ele>588.0</ele><time>2026-04-26T11:33:48.946Z</time></trkpt><trkpt lat="44.3484007" lon="7.7524647"><ele>588.0</ele><time>2026-04-26T11:33:49.937Z</time></trkpt><trkpt lat="44.3484361" lon="7.7523625"><ele>588.0</ele><time>2026-04-26T11:33:51.945Z</time></trkpt><trkpt lat="44.3485097" lon="7.7523285"><ele>588.0</ele><time>2026-04-26T11:33:53.946Z</time></trkpt><trkpt lat="44.3485835" lon="7.7523054"><ele>588.0</ele><time>2026-04-26T11:33:54.946Z</time></trkpt><trkpt lat="44.3486814" lon="7.7522826"><ele>588.0</ele><time>2026-04-26T11:33:55.945Z</time></trkpt><trkpt lat="44.3487879" lon="7.7522563"><ele>588.0</ele><time>2026-04-26T11:33:56.946Z</time></trkpt><trkpt lat="44.3488998" lon="7.7522266"><ele>588.25</ele><time>2026-04-26T11:33:57.946Z</time></trkpt><trkpt lat="44.3490252" lon="7.7521986"><ele>588.5</ele><time>2026-04-26T11:33:58.946Z</time></trkpt><trkpt lat="44.3491565" lon="7.7521675"><ele>588.75</ele><time>2026-04-26T11:33:59.945Z</time></trkpt><trkpt lat="44.3492944" lon="7.7521359"><ele>589.0</ele><time>2026-04-26T11:34:00.942Z</time></trkpt><trkpt lat="44.34943" lon="7.7520837"><ele>589.0</ele><time>2026-04-26T11:34:01.945Z</time></trkpt><trkpt lat="44.3495643" lon="7.7520142"><ele>589.0</ele><time>2026-04-26T11:34:02.946Z</time></trkpt><trkpt lat="44.3496946" lon="7.7519366"><ele>589.0</ele><time>2026-04-26T11:34:03.946Z</time></trkpt><trkpt lat="44.3498178" lon="7.7518593"><ele>589.0</ele><time>2026-04-26T11:34:04.946Z</time></trkpt><trkpt lat="44.3499398" lon="7.7517747"><ele>587.3333333333334</ele><time>2026-04-26T11:34:05.945Z</time></trkpt><trkpt lat="44.3500619" lon="7.7516811"><ele>585.6666666666666</ele><time>2026-04-26T11:34:06.945Z</time></trkpt><trkpt lat="44.3501921" lon="7.7515749"><ele>584.0</ele><time>2026-04-26T11:34:07.945Z</time></trkpt><trkpt lat="44.3503296" lon="7.7514592"><ele>584.0</ele><time>2026-04-26T11:34:08.945Z</time></trkpt><trkpt lat="44.3504752" lon="7.7513476"><ele>584.0</ele><time>2026-04-26T11:34:09.946Z</time></trkpt><trkpt lat="44.3506301" lon="7.751235"><ele>584.0</ele><time>2026-04-26T11:34:10.946Z</time></trkpt><trkpt lat="44.3507948" lon="7.7511166"><ele>582.0</ele><time>2026-04-26T11:34:11.946Z</time></trkpt><trkpt lat="44.3509617" lon="7.7509831"><ele>580.0</ele><time>2026-04-26T11:34:12.946Z</time></trkpt><trkpt lat="44.3511323" lon="7.7508434"><ele>578.0</ele><time>2026-04-26T11:34:13.946Z</time></trkpt><trkpt lat="44.3513089" lon="7.7507038"><ele>578.3333333333333</ele><time>2026-04-26T11:34:14.946Z</time></trkpt><trkpt lat="44.3514864" lon="7.7505623"><ele>578.6666666666666</ele><time>2026-04-26T11:34:15.946Z</time></trkpt><trkpt lat="44.3516662" lon="7.7504162"><ele>579.0</ele><time>2026-04-26T11:34:16.945Z</time></trkpt><trkpt lat="44.3518579" lon="7.7502778"><ele>576.6666666666666</ele><time>2026-04-26T11:34:17.946Z</time></trkpt><trkpt lat="44.3520514" lon="7.7501265"><ele>574.3333333333333</ele><time>2026-04-26T11:34:18.946Z</time></trkpt><trkpt lat="44.3522473" lon="7.7499691"><ele>572.0</ele><time>2026-04-26T11:34:19.945Z</time></trkpt><trkpt lat="44.352447" lon="7.7498114"><ele>571.0</ele><time>2026-04-26T11:34:20.945Z</time></trkpt><trkpt lat="44.3526505" lon="7.7496603"><ele>570.0</ele><time>2026-04-26T11:34:21.946Z</time></trkpt><trkpt lat="44.3528559" lon="7.7495126"><ele>569.5</ele><time>2026-04-26T11:34:22.945Z</time></trkpt><trkpt lat="44.3530664" lon="7.7493729"><ele>569.0</ele><time>2026-04-26T11:34:23.945Z</time></trkpt><trkpt lat="44.3532811" lon="7.7492458"><ele>569.0</ele><time>2026-04-26T11:34:24.946Z</time></trkpt><trkpt lat="44.3535049" lon="7.7491329"><ele>569.0</ele><time>2026-04-26T11:34:25.943Z</time></trkpt><trkpt lat="44.3537334" lon="7.7490321"><ele>569.0</ele><time>2026-04-26T11:34:26.946Z</time></trkpt><trkpt lat="44.353962" lon="7.7489333"><ele>569.0</ele><time>2026-04-26T11:34:27.946Z</time></trkpt><trkpt lat="44.3541966" lon="7.7488349"><ele>569.0</ele><time>2026-04-26T11:34:28.946Z</time></trkpt><trkpt lat="44.3544303" lon="7.7487427"><ele>569.0</ele><time>2026-04-26T11:34:29.946Z</time></trkpt><trkpt lat="44.3546562" lon="7.7486354"><ele>569.0</ele><time>2026-04-26T11:34:30.946Z</time></trkpt><trkpt lat="44.3548804" lon="7.7485148"><ele>569.0</ele><time>2026-04-26T11:34:31.945Z</time></trkpt><trkpt lat="44.3551001" lon="7.7483774"><ele>569.0</ele><time>2026-04-26T11:34:32.945Z</time></trkpt><trkpt lat="44.3553155" lon="7.7482215"><ele>569.0</ele><time>2026-04-26T11:34:33.946Z</time></trkpt><trkpt lat="44.3555194" lon="7.7480401"><ele>569.0</ele><time>2026-04-26T11:34:34.946Z</time></trkpt><trkpt lat="44.3557075" lon="7.7478381"><ele>569.0</ele><time>2026-04-26T11:34:35.946Z</time></trkpt><trkpt lat="44.3558781" lon="7.7476115"><ele>567.5</ele><time>2026-04-26T11:34:36.946Z</time></trkpt><trkpt lat="44.3560314" lon="7.7473636"><ele>566.0</ele><time>2026-04-26T11:34:37.946Z</time></trkpt><trkpt lat="44.356176" lon="7.7471002"><ele>565.5</ele><time>2026-04-26T11:34:38.945Z</time></trkpt><trkpt lat="44.3563217" lon="7.7468263"><ele>565.0</ele><time>2026-04-26T11:34:39.945Z</time></trkpt><trkpt lat="44.3564681" lon="7.7465497"><ele>565.0</ele><time>2026-04-26T11:34:40.946Z</time></trkpt><trkpt lat="44.3566137" lon="7.746268"><ele>565.0</ele><time>2026-04-26T11:34:41.943Z</time></trkpt><trkpt lat="44.3567633" lon="7.7459835"><ele>565.0</ele><time>2026-04-26T11:34:42.946Z</time></trkpt><trkpt lat="44.3569098" lon="7.7456985"><ele>565.0</ele><time>2026-04-26T11:34:43.941Z</time></trkpt><trkpt lat="44.357062" lon="7.745409"><ele>564.5</ele><time>2026-04-26T11:34:44.945Z</time></trkpt><trkpt lat="44.357214" lon="7.7451205"><ele>564.0</ele><time>2026-04-26T11:34:45.945Z</time></trkpt><trkpt lat="44.3573661" lon="7.7448338"><ele>564.0</ele><time>2026-04-26T11:34:46.946Z</time></trkpt><trkpt lat="44.3575185" lon="7.7445421"><ele>564.0</ele><time>2026-04-26T11:34:47.946Z</time></trkpt><trkpt lat="44.3576708" lon="7.7442558"><ele>564.0</ele><time>2026-04-26T11:34:48.946Z</time></trkpt><trkpt lat="44.357821" lon="7.7439717"><ele>564.0</ele><time>2026-04-26T11:34:49.944Z</time></trkpt><trkpt lat="44.3579706" lon="7.743686"><ele>564.5</ele><time>2026-04-26T11:34:50.945Z</time></trkpt><trkpt lat="44.3581218" lon="7.7434027"><ele>565.0</ele><time>2026-04-26T11:34:51.946Z</time></trkpt><trkpt lat="44.3582691" lon="7.7431202"><ele>565.0</ele><time>2026-04-26T11:34:52.942Z</time></trkpt><trkpt lat="44.3584159" lon="7.7428384"><ele>565.0</ele><time>2026-04-26T11:34:53.946Z</time></trkpt><trkpt lat="44.3585642" lon="7.7425569"><ele>564.0</ele><time>2026-04-26T11:34:54.942Z</time></trkpt><trkpt lat="44.3587171" lon="7.7422725"><ele>563.0</ele><time>2026-04-26T11:34:55.946Z</time></trkpt><trkpt lat="44.3588586" lon="7.742"><ele>560.0</ele><time>2026-04-26T11:34:56.946Z</time></trkpt><trkpt lat="44.358998" lon="7.7417394"><ele>557.0</ele><time>2026-04-26T11:34:57.946Z</time></trkpt><trkpt lat="44.3591345" lon="7.7414927"><ele>557.0</ele><time>2026-04-26T11:34:58.946Z</time></trkpt><trkpt lat="44.3592584" lon="7.741244"><ele>557.0</ele><time>2026-04-26T11:34:59.946Z</time></trkpt><trkpt lat="44.3593588" lon="7.7409882"><ele>557.0</ele><time>2026-04-26T11:35:00.943Z</time></trkpt><trkpt lat="44.359434" lon="7.7407157"><ele>555.0</ele><time>2026-04-26T11:35:01.943Z</time></trkpt><trkpt lat="44.3594751" lon="7.7404362"><ele>553.0</ele><time>2026-04-26T11:35:02.946Z</time></trkpt><trkpt lat="44.3594816" lon="7.7401678"><ele>551.0</ele><time>2026-04-26T11:35:03.946Z</time></trkpt><trkpt lat="44.3594546" lon="7.7399024"><ele>549.6666666666666</ele><time>2026-04-26T11:35:04.946Z</time></trkpt><trkpt lat="44.3593917" lon="7.7396409"><ele>548.3333333333334</ele><time>2026-04-26T11:35:05.946Z</time></trkpt><trkpt lat="44.3593087" lon="7.7393893"><ele>547.0</ele><time>2026-04-26T11:35:06.944Z</time></trkpt><trkpt lat="44.3592303" lon="7.7391544"><ele>547.0</ele><time>2026-04-26T11:35:07.946Z</time></trkpt><trkpt lat="44.3591626" lon="7.7389363"><ele>547.0</ele><time>2026-04-26T11:35:08.945Z</time></trkpt><trkpt lat="44.359123" lon="7.7387195"><ele>547.0</ele><time>2026-04-26T11:35:09.945Z</time></trkpt><trkpt lat="44.359121" lon="7.7385025"><ele>546.3333333333334</ele><time>2026-04-26T11:35:10.946Z</time></trkpt><trkpt lat="44.3591519" lon="7.7382851"><ele>545.6666666666666</ele><time>2026-04-26T11:35:11.946Z</time></trkpt><trkpt lat="44.3592341" lon="7.7380809"><ele>545.0</ele><time>2026-04-26T11:35:12.943Z</time></trkpt><trkpt lat="44.3593481" lon="7.7378978"><ele>545.0</ele><time>2026-04-26T11:35:13.942Z</time></trkpt><trkpt lat="44.3595047" lon="7.7377443"><ele>545.0</ele><time>2026-04-26T11:35:14.946Z</time></trkpt><trkpt lat="44.3596892" lon="7.7376012"><ele>545.0</ele><time>2026-04-26T11:35:15.945Z</time></trkpt><trkpt lat="44.3598836" lon="7.7374308"><ele>542.5</ele><time>2026-04-26T11:35:16.946Z</time></trkpt><trkpt lat="44.3600783" lon="7.737234"><ele>540.0</ele><time>2026-04-26T11:35:17.946Z</time></trkpt><trkpt lat="44.3602728" lon="7.7370268"><ele>536.5</ele><time>2026-04-26T11:35:18.945Z</time></trkpt><trkpt lat="44.360476" lon="7.7368266"><ele>533.0</ele><time>2026-04-26T11:35:19.946Z</time></trkpt><trkpt lat="44.3606843" lon="7.7366209"><ele>533.0</ele><time>2026-04-26T11:35:20.945Z</time></trkpt><trkpt lat="44.3608866" lon="7.7364088"><ele>533.0</ele><time>2026-04-26T11:35:21.94Z</time></trkpt><trkpt lat="44.361094" lon="7.7361878"><ele>531.0</ele><time>2026-04-26T11:35:22.946Z</time></trkpt><trkpt lat="44.361304" lon="7.7359669"><ele>529.0</ele><time>2026-04-26T11:35:23.946Z</time></trkpt><trkpt lat="44.3615057" lon="7.7357271"><ele>529.0</ele><time>2026-04-26T11:35:24.946Z</time></trkpt><trkpt lat="44.3617111" lon="7.7354815"><ele>529.0</ele><time>2026-04-26T11:35:25.946Z</time></trkpt><trkpt lat="44.3619013" lon="7.7352282"><ele>527.5</ele><time>2026-04-26T11:35:26.945Z</time></trkpt><trkpt lat="44.3620907" lon="7.7349708"><ele>526.0</ele><time>2026-04-26T11:35:27.946Z</time></trkpt><trkpt lat="44.362273" lon="7.7347178"><ele>526.0</ele><time>2026-04-26T11:35:28.945Z</time></trkpt><trkpt lat="44.3624576" lon="7.7344674"><ele>526.0</ele><time>2026-04-26T11:35:29.946Z</time></trkpt><trkpt lat="44.3626511" lon="7.7342444"><ele>523.0</ele><time>2026-04-26T11:35:30.946Z</time></trkpt><trkpt lat="44.3628574" lon="7.7340428"><ele>520.0</ele><time>2026-04-26T11:35:31.945Z</time></trkpt><trkpt lat="44.3630635" lon="7.7338437"><ele>520.0</ele><time>2026-04-26T11:35:32.946Z</time></trkpt><trkpt lat="44.3632722" lon="7.7336415"><ele>520.0</ele><time>2026-04-26T11:35:33.946Z</time></trkpt><trkpt lat="44.3634709" lon="7.7334212"><ele>514.5</ele><time>2026-04-26T11:35:34.946Z</time></trkpt><trkpt lat="44.3636603" lon="7.733189"><ele>509.0</ele><time>2026-04-26T11:35:35.946Z</time></trkpt><trkpt lat="44.3638378" lon="7.7329439"><ele>509.5</ele><time>2026-04-26T11:35:36.946Z</time></trkpt><trkpt lat="44.364004" lon="7.7326725"><ele>510.0</ele><time>2026-04-26T11:35:37.945Z</time></trkpt><trkpt lat="44.3641609" lon="7.7323865"><ele>510.0</ele><time>2026-04-26T11:35:38.945Z</time></trkpt><trkpt lat="44.3643159" lon="7.7320902"><ele>510.0</ele><time>2026-04-26T11:35:39.945Z</time></trkpt><trkpt lat="44.3644724" lon="7.7317967"><ele>512.0</ele><time>2026-04-26T11:35:40.945Z</time></trkpt><trkpt lat="44.3646322" lon="7.7315048"><ele>514.0</ele><time>2026-04-26T11:35:41.944Z</time></trkpt><trkpt lat="44.3647887" lon="7.7312103"><ele>508.0</ele><time>2026-04-26T11:35:42.946Z</time></trkpt><trkpt lat="44.3649431" lon="7.7309159"><ele>502.0</ele><time>2026-04-26T11:35:43.946Z</time></trkpt><trkpt lat="44.3650992" lon="7.7306176"><ele>502.0</ele><time>2026-04-26T11:35:44.946Z</time></trkpt><trkpt lat="44.365247" lon="7.7303105"><ele>502.0</ele><time>2026-04-26T11:35:45.946Z</time></trkpt><trkpt lat="44.3653789" lon="7.7299942"><ele>502.0</ele><time>2026-04-26T11:35:46.945Z</time></trkpt><trkpt lat="44.3654962" lon="7.729668"><ele>502.0</ele><time>2026-04-26T11:35:47.945Z</time></trkpt><trkpt lat="44.3656019" lon="7.7293323"><ele>502.0</ele><time>2026-04-26T11:35:48.939Z</time></trkpt><trkpt lat="44.365705" lon="7.7289975"><ele>502.0</ele><time>2026-04-26T11:35:49.945Z</time></trkpt><trkpt lat="44.3658126" lon="7.7286617"><ele>498.5</ele><time>2026-04-26T11:35:50.946Z</time></trkpt><trkpt lat="44.3659122" lon="7.7283281"><ele>495.0</ele><time>2026-04-26T11:35:51.946Z</time></trkpt><trkpt lat="44.3660196" lon="7.7280113"><ele>492.5</ele><time>2026-04-26T11:35:52.946Z</time></trkpt><trkpt lat="44.366142" lon="7.7277198"><ele>490.0</ele><time>2026-04-26T11:35:53.946Z</time></trkpt><trkpt lat="44.3662803" lon="7.727436"><ele>493.0</ele><time>2026-04-26T11:35:54.943Z</time></trkpt><trkpt lat="44.3664408" lon="7.7271817"><ele>496.0</ele><time>2026-04-26T11:35:55.946Z</time></trkpt><trkpt lat="44.3666316" lon="7.726954"><ele>492.5</ele><time>2026-04-26T11:35:56.945Z</time></trkpt><trkpt lat="44.3668332" lon="7.7267393"><ele>489.0</ele><time>2026-04-26T11:35:57.946Z</time></trkpt><trkpt lat="44.3670386" lon="7.7265162"><ele>493.0</ele><time>2026-04-26T11:35:58.946Z</time></trkpt><trkpt lat="44.3672416" lon="7.7262888"><ele>497.0</ele><time>2026-04-26T11:35:59.946Z</time></trkpt><trkpt lat="44.3674374" lon="7.7260733"><ele>492.0</ele><time>2026-04-26T11:36:00.944Z</time></trkpt><trkpt lat="44.367626" lon="7.7258742"><ele>487.0</ele><time>2026-04-26T11:36:01.946Z</time></trkpt><trkpt lat="44.3677951" lon="7.7256892"><ele>487.0</ele><time>2026-04-26T11:36:02.946Z</time></trkpt><trkpt lat="44.3679477" lon="7.7254898"><ele>487.0</ele><time>2026-04-26T11:36:03.946Z</time></trkpt><trkpt lat="44.3680732" lon="7.7252551"><ele>487.0</ele><time>2026-04-26T11:36:04.946Z</time></trkpt><trkpt lat="44.3681584" lon="7.7250055"><ele>487.33333333333337</ele><time>2026-04-26T11:36:05.946Z</time></trkpt><trkpt lat="44.3681963" lon="7.7247181"><ele>487.66666666666663</ele><time>2026-04-26T11:36:06.945Z</time></trkpt><trkpt lat="44.3682078" lon="7.7244061"><ele>488.0</ele><time>2026-04-26T11:36:07.946Z</time></trkpt><trkpt lat="44.3682174" lon="7.7240825"><ele>485.5</ele><time>2026-04-26T11:36:08.946Z</time></trkpt><trkpt lat="44.3682239" lon="7.7237518"><ele>483.0</ele><time>2026-04-26T11:36:09.945Z</time></trkpt><trkpt lat="44.3682294" lon="7.7234168"><ele>482.5</ele><time>2026-04-26T11:36:10.946Z</time></trkpt><trkpt lat="44.3682348" lon="7.7230937"><ele>482.0</ele><time>2026-04-26T11:36:11.946Z</time></trkpt><trkpt lat="44.3682265" lon="7.7227737"><ele>482.0</ele><time>2026-04-26T11:36:12.946Z</time></trkpt><trkpt lat="44.3681921" lon="7.7224533"><ele>482.0</ele><time>2026-04-26T11:36:13.945Z</time></trkpt><trkpt lat="44.3681205" lon="7.7221364"><ele>486.0</ele><time>2026-04-26T11:36:14.944Z</time></trkpt><trkpt lat="44.368013" lon="7.7218274"><ele>490.0</ele><time>2026-04-26T11:36:15.946Z</time></trkpt><trkpt lat="44.3678887" lon="7.7215282"><ele>490.0</ele><time>2026-04-26T11:36:16.945Z</time></trkpt><trkpt lat="44.3677683" lon="7.7212219"><ele>490.0</ele><time>2026-04-26T11:36:17.946Z</time></trkpt><trkpt lat="44.3676483" lon="7.7209232"><ele>491.5</ele><time>2026-04-26T11:36:18.946Z</time></trkpt><trkpt lat="44.3675362" lon="7.720634"><ele>493.0</ele><time>2026-04-26T11:36:19.945Z</time></trkpt><trkpt lat="44.3674338" lon="7.7203688"><ele>494.6666666666667</ele><time>2026-04-26T11:36:20.946Z</time></trkpt><trkpt lat="44.367352" lon="7.7201176"><ele>496.33333333333337</ele><time>2026-04-26T11:36:21.941Z</time></trkpt><trkpt lat="44.3672958" lon="7.719855"><ele>498.0</ele><time>2026-04-26T11:36:22.945Z</time></trkpt><trkpt lat="44.3672692" lon="7.7195761"><ele>499.33333333333337</ele><time>2026-04-26T11:36:23.943Z</time></trkpt><trkpt lat="44.3672834" lon="7.71928"><ele>500.6666666666667</ele><time>2026-04-26T11:36:24.946Z</time></trkpt><trkpt lat="44.3673255" lon="7.718966"><ele>502.0</ele><time>2026-04-26T11:36:25.946Z</time></trkpt><trkpt lat="44.3673844" lon="7.7186417"><ele>501.5</ele><time>2026-04-26T11:36:26.946Z</time></trkpt><trkpt lat="44.3674506" lon="7.7183166"><ele>501.0</ele><time>2026-04-26T11:36:27.945Z</time></trkpt><trkpt lat="44.367518" lon="7.7179906"><ele>500.0</ele><time>2026-04-26T11:36:28.946Z</time></trkpt><trkpt lat="44.3675893" lon="7.7176548"><ele>499.0</ele><time>2026-04-26T11:36:29.944Z</time></trkpt><trkpt lat="44.3676613" lon="7.7173194"><ele>499.0</ele><time>2026-04-26T11:36:30.945Z</time></trkpt><trkpt lat="44.3677414" lon="7.7169786"><ele>499.0</ele><time>2026-04-26T11:36:31.946Z</time></trkpt><trkpt lat="44.3678211" lon="7.7166365"><ele>499.5</ele><time>2026-04-26T11:36:32.946Z</time></trkpt><trkpt lat="44.3678956" lon="7.7162983"><ele>500.0</ele><time>2026-04-26T11:36:33.945Z</time></trkpt><trkpt lat="44.3679711" lon="7.7159608"><ele>500.0</ele><time>2026-04-26T11:36:34.945Z</time></trkpt><trkpt lat="44.3680426" lon="7.7156313"><ele>500.0</ele><time>2026-04-26T11:36:35.946Z</time></trkpt><trkpt lat="44.3681126" lon="7.7153097"><ele>501.0</ele><time>2026-04-26T11:36:36.946Z</time></trkpt><trkpt lat="44.368182" lon="7.7149986"><ele>502.0</ele><time>2026-04-26T11:36:37.945Z</time></trkpt><trkpt lat="44.3682532" lon="7.7146981"><ele>502.0</ele><time>2026-04-26T11:36:38.945Z</time></trkpt><trkpt lat="44.3683199" lon="7.7144015"><ele>502.0</ele><time>2026-04-26T11:36:39.943Z</time></trkpt><trkpt lat="44.3683831" lon="7.7141073"><ele>502.0</ele><time>2026-04-26T11:36:40.946Z</time></trkpt><trkpt lat="44.3684488" lon="7.7138175"><ele>502.0</ele><time>2026-04-26T11:36:41.939Z</time></trkpt><trkpt lat="44.3685078" lon="7.7135345"><ele>502.0</ele><time>2026-04-26T11:36:42.946Z</time></trkpt><trkpt lat="44.3685709" lon="7.7132506"><ele>502.0</ele><time>2026-04-26T11:36:43.942Z</time></trkpt><trkpt lat="44.3686308" lon="7.7129834"><ele>502.0</ele><time>2026-04-26T11:36:44.946Z</time></trkpt><trkpt lat="44.3686833" lon="7.7127308"><ele>502.0</ele><time>2026-04-26T11:36:45.945Z</time></trkpt><trkpt lat="44.3687384" lon="7.7124998"><ele>502.0</ele><time>2026-04-26T11:36:46.946Z</time></trkpt><trkpt lat="44.3687916" lon="7.7123021"><ele>502.0</ele><time>2026-04-26T11:36:47.946Z</time></trkpt><trkpt lat="44.3688516" lon="7.7121303"><ele>502.0</ele><time>2026-04-26T11:36:48.946Z</time></trkpt><trkpt lat="44.368925" lon="7.7119795"><ele>502.0</ele><time>2026-04-26T11:36:49.943Z</time></trkpt><trkpt lat="44.3689747" lon="7.711819"><ele>502.0</ele><time>2026-04-26T11:36:50.946Z</time></trkpt><trkpt lat="44.3689995" lon="7.7116306"><ele>502.0</ele><time>2026-04-26T11:36:51.944Z</time></trkpt><trkpt lat="44.3690351" lon="7.711441"><ele>502.0</ele><time>2026-04-26T11:36:52.946Z</time></trkpt><trkpt lat="44.3690891" lon="7.7112665"><ele>502.0</ele><time>2026-04-26T11:36:53.946Z</time></trkpt><trkpt lat="44.3691543" lon="7.7111105"><ele>502.0</ele><time>2026-04-26T11:36:54.946Z</time></trkpt><trkpt lat="44.3692253" lon="7.7109581"><ele>502.0</ele><time>2026-04-26T11:36:55.946Z</time></trkpt><trkpt lat="44.3693016" lon="7.7108194"><ele>502.0</ele><time>2026-04-26T11:36:56.946Z</time></trkpt><trkpt lat="44.3693852" lon="7.7106868"><ele>502.0</ele><time>2026-04-26T11:36:57.946Z</time></trkpt><trkpt lat="44.369472" lon="7.7105565"><ele>502.0</ele><time>2026-04-26T11:36:58.946Z</time></trkpt><trkpt lat="44.3695555" lon="7.7104264"><ele>502.0</ele><time>2026-04-26T11:36:59.946Z</time></trkpt><trkpt lat="44.369642" lon="7.7102964"><ele>502.0</ele><time>2026-04-26T11:37:00.946Z</time></trkpt><trkpt lat="44.3697267" lon="7.7101637"><ele>502.0</ele><time>2026-04-26T11:37:01.941Z</time></trkpt><trkpt lat="44.3698081" lon="7.7100341"><ele>502.0</ele><time>2026-04-26T11:37:02.946Z</time></trkpt><trkpt lat="44.3698919" lon="7.7099038"><ele>502.5</ele><time>2026-04-26T11:37:03.945Z</time></trkpt><trkpt lat="44.3699726" lon="7.709775"><ele>503.0</ele><time>2026-04-26T11:37:04.945Z</time></trkpt><trkpt lat="44.3700531" lon="7.709644"><ele>503.5</ele><time>2026-04-26T11:37:05.945Z</time></trkpt><trkpt lat="44.3701268" lon="7.7095039"><ele>504.0</ele><time>2026-04-26T11:37:06.945Z</time></trkpt><trkpt lat="44.3701882" lon="7.7093524"><ele>504.25</ele><time>2026-04-26T11:37:07.946Z</time></trkpt><trkpt lat="44.3702434" lon="7.7091974"><ele>504.5</ele><time>2026-04-26T11:37:08.944Z</time></trkpt><trkpt lat="44.3702915" lon="7.7090324"><ele>504.75</ele><time>2026-04-26T11:37:09.946Z</time></trkpt><trkpt lat="44.3703386" lon="7.7088661"><ele>505.0</ele><time>2026-04-26T11:37:10.946Z</time></trkpt><trkpt lat="44.3703886" lon="7.7087025"><ele>504.5</ele><time>2026-04-26T11:37:11.944Z</time></trkpt><trkpt lat="44.3704344" lon="7.708537"><ele>504.0</ele><time>2026-04-26T11:37:12.943Z</time></trkpt><trkpt lat="44.3704775" lon="7.7083836"><ele>503.5</ele><time>2026-04-26T11:37:13.942Z</time></trkpt><trkpt lat="44.3705193" lon="7.7082431"><ele>503.0</ele><time>2026-04-26T11:37:14.945Z</time></trkpt><trkpt lat="44.3705742" lon="7.7081245"><ele>503.0</ele><time>2026-04-26T11:37:15.94Z</time></trkpt><trkpt lat="44.3706501" lon="7.7080536"><ele>502.99999999999994</ele><time>2026-04-26T11:37:16.945Z</time></trkpt><trkpt lat="44.3707521" lon="7.7080387"><ele>502.99999999999994</ele><time>2026-04-26T11:37:17.945Z</time></trkpt><trkpt lat="44.3708651" lon="7.7080541"><ele>503.0</ele><time>2026-04-26T11:37:18.943Z</time></trkpt><trkpt lat="44.3710006" lon="7.7080781"><ele>503.0</ele><time>2026-04-26T11:37:19.944Z</time></trkpt><trkpt lat="44.3711441" lon="7.7081012"><ele>503.0</ele><time>2026-04-26T11:37:20.945Z</time></trkpt><trkpt lat="44.3712815" lon="7.7081348"><ele>503.0</ele><time>2026-04-26T11:37:21.946Z</time></trkpt><trkpt lat="44.3714218" lon="7.7081951"><ele>503.0</ele><time>2026-04-26T11:37:22.945Z</time></trkpt><trkpt lat="44.3715594" lon="7.7082915"><ele>503.0</ele><time>2026-04-26T11:37:23.942Z</time></trkpt><trkpt lat="44.3716936" lon="7.7083925"><ele>503.0</ele><time>2026-04-26T11:37:24.946Z</time></trkpt><trkpt lat="44.3718323" lon="7.7084917"><ele>503.0</ele><time>2026-04-26T11:37:25.945Z</time></trkpt><trkpt lat="44.3719801" lon="7.7085889"><ele>503.0</ele><time>2026-04-26T11:37:26.946Z</time></trkpt><trkpt lat="44.3721343" lon="7.7086491"><ele>501.66666666666663</ele><time>2026-04-26T11:37:27.946Z</time></trkpt><trkpt lat="44.3722875" lon="7.7086881"><ele>500.33333333333337</ele><time>2026-04-26T11:37:28.944Z</time></trkpt><trkpt lat="44.3724456" lon="7.7087116"><ele>499.0</ele><time>2026-04-26T11:37:29.945Z</time></trkpt><trkpt lat="44.3725971" lon="7.7087075"><ele>499.0</ele><time>2026-04-26T11:37:30.946Z</time></trkpt><trkpt lat="44.3727441" lon="7.7086938"><ele>499.0</ele><time>2026-04-26T11:37:31.946Z</time></trkpt><trkpt lat="44.3728813" lon="7.7086985"><ele>499.0</ele><time>2026-04-26T11:37:32.946Z</time></trkpt><trkpt lat="44.3730093" lon="7.7087177"><ele>499.0</ele><time>2026-04-26T11:37:33.946Z</time></trkpt><trkpt lat="44.3731175" lon="7.7087614"><ele>498.1666666666667</ele><time>2026-04-26T11:37:34.945Z</time></trkpt><trkpt lat="44.3732014" lon="7.7087987"><ele>497.33333333333337</ele><time>2026-04-26T11:37:35.939Z</time></trkpt><trkpt lat="44.373284" lon="7.7088159"><ele>496.5</ele><time>2026-04-26T11:37:36.945Z</time></trkpt><trkpt lat="44.3733498" lon="7.7087907"><ele>495.66666666666663</ele><time>2026-04-26T11:37:37.946Z</time></trkpt><trkpt lat="44.3733636" lon="7.7086957"><ele>494.8333333333333</ele><time>2026-04-26T11:37:38.945Z</time></trkpt><trkpt lat="44.3732823" lon="7.7085709"><ele>494.0</ele><time>2026-04-26T11:37:40.946Z</time></trkpt><trkpt lat="44.3731756" lon="7.708529"><ele>491.5</ele><time>2026-04-26T11:37:41.946Z</time></trkpt><trkpt lat="44.3730547" lon="7.7085005"><ele>489.0</ele><time>2026-04-26T11:37:42.946Z</time></trkpt><trkpt lat="44.3729199" lon="7.7084713"><ele>486.5</ele><time>2026-04-26T11:37:43.944Z</time></trkpt><trkpt lat="44.3727728" lon="7.7084422"><ele>484.0</ele><time>2026-04-26T11:37:44.946Z</time></trkpt><trkpt lat="44.372631" lon="7.7084174"><ele>484.0</ele><time>2026-04-26T11:37:45.945Z</time></trkpt><trkpt lat="44.3725061" lon="7.7083889"><ele>484.0</ele><time>2026-04-26T11:37:46.946Z</time></trkpt><trkpt lat="44.3724045" lon="7.7083712"><ele>484.0</ele><time>2026-04-26T11:37:47.945Z</time></trkpt><trkpt lat="44.3723322" lon="7.708344"><ele>484.0</ele><time>2026-04-26T11:37:48.946Z</time></trkpt><trkpt lat="44.3723155" lon="7.7082427"><ele>484.0</ele><time>2026-04-26T11:37:50.946Z</time></trkpt><trkpt lat="44.3724426" lon="7.7082041"><ele>484.0</ele><time>2026-04-26T11:37:52.938Z</time></trkpt><trkpt lat="44.3725538" lon="7.7082146"><ele>484.0</ele><time>2026-04-26T11:37:53.946Z</time></trkpt><trkpt lat="44.372681" lon="7.7082254"><ele>484.0</ele><time>2026-04-26T11:37:54.946Z</time></trkpt><trkpt lat="44.3728207" lon="7.7082389"><ele>484.0</ele><time>2026-04-26T11:37:55.946Z</time></trkpt><trkpt lat="44.3729678" lon="7.7082507"><ele>483.25</ele><time>2026-04-26T11:37:56.946Z</time></trkpt><trkpt lat="44.3731184" lon="7.7082662"><ele>482.5</ele><time>2026-04-26T11:37:57.945Z</time></trkpt><trkpt lat="44.3732671" lon="7.7082828"><ele>481.75</ele><time>2026-04-26T11:37:58.946Z</time></trkpt><trkpt lat="44.373412" lon="7.7082849"><ele>481.0</ele><time>2026-04-26T11:37:59.946Z</time></trkpt><trkpt lat="44.3735521" lon="7.7082592"><ele>481.0</ele><time>2026-04-26T11:38:00.946Z</time></trkpt><trkpt lat="44.3736978" lon="7.7081852"><ele>481.0</ele><time>2026-04-26T11:38:01.946Z</time></trkpt><trkpt lat="44.3738261" lon="7.7080499"><ele>481.0</ele><time>2026-04-26T11:38:02.946Z</time></trkpt><trkpt lat="44.3739434" lon="7.7078914"><ele>476.75</ele><time>2026-04-26T11:38:03.945Z</time></trkpt><trkpt lat="44.3740421" lon="7.7077237"><ele>472.5</ele><time>2026-04-26T11:38:04.939Z</time></trkpt><trkpt lat="44.3741403" lon="7.7075709"><ele>468.25</ele><time>2026-04-26T11:38:05.945Z</time></trkpt><trkpt lat="44.3742408" lon="7.7074331"><ele>464.0</ele><time>2026-04-26T11:38:06.945Z</time></trkpt><trkpt lat="44.3743405" lon="7.7073121"><ele>464.0</ele><time>2026-04-26T11:38:07.946Z</time></trkpt><trkpt lat="44.3744394" lon="7.7072082"><ele>464.0</ele><time>2026-04-26T11:38:08.945Z</time></trkpt><trkpt lat="44.3745362" lon="7.707137"><ele>464.0</ele><time>2026-04-26T11:38:09.946Z</time></trkpt><trkpt lat="44.3746287" lon="7.7070684"><ele>464.0</ele><time>2026-04-26T11:38:10.946Z</time></trkpt><trkpt lat="44.3747041" lon="7.7069748"><ele>464.0</ele><time>2026-04-26T11:38:11.945Z</time></trkpt><trkpt lat="44.3747554" lon="7.7068606"><ele>463.79999999999995</ele><time>2026-04-26T11:38:12.946Z</time></trkpt><trkpt lat="44.3747778" lon="7.7067327"><ele>463.59999999999997</ele><time>2026-04-26T11:38:13.946Z</time></trkpt><trkpt lat="44.3747976" lon="7.7066123"><ele>463.4</ele><time>2026-04-26T11:38:14.946Z</time></trkpt><trkpt lat="44.3748289" lon="7.7064964"><ele>463.2</ele><time>2026-04-26T11:38:15.946Z</time></trkpt><trkpt lat="44.3748732" lon="7.7063887"><ele>463.0</ele><time>2026-04-26T11:38:16.946Z</time></trkpt><trkpt lat="44.3749286" lon="7.7062699"><ele>463.0</ele><time>2026-04-26T11:38:17.946Z</time></trkpt><trkpt lat="44.3749926" lon="7.7061455"><ele>463.0</ele><time>2026-04-26T11:38:18.942Z</time></trkpt><trkpt lat="44.3750645" lon="7.7060175"><ele>463.0</ele><time>2026-04-26T11:38:19.946Z</time></trkpt><trkpt lat="44.3751468" lon="7.7058797"><ele>463.0</ele><time>2026-04-26T11:38:20.946Z</time></trkpt><trkpt lat="44.3752376" lon="7.7057331"><ele>463.0</ele><time>2026-04-26T11:38:21.942Z</time></trkpt><trkpt lat="44.3753292" lon="7.7055776"><ele>463.0</ele><time>2026-04-26T11:38:22.945Z</time></trkpt><trkpt lat="44.3754227" lon="7.7054225"><ele>463.0</ele><time>2026-04-26T11:38:23.944Z</time></trkpt><trkpt lat="44.3755183" lon="7.7052696"><ele>463.0</ele><time>2026-04-26T11:38:24.946Z</time></trkpt><trkpt lat="44.3756053" lon="7.7051178"><ele>463.75</ele><time>2026-04-26T11:38:25.946Z</time></trkpt><trkpt lat="44.3756813" lon="7.7049646"><ele>464.5</ele><time>2026-04-26T11:38:26.946Z</time></trkpt><trkpt lat="44.3757449" lon="7.7047997"><ele>465.25</ele><time>2026-04-26T11:38:27.942Z</time></trkpt><trkpt lat="44.3757913" lon="7.7046246"><ele>466.0</ele><time>2026-04-26T11:38:28.946Z</time></trkpt><trkpt lat="44.3758261" lon="7.7044473"><ele>467.25</ele><time>2026-04-26T11:38:29.945Z</time></trkpt><trkpt lat="44.3758486" lon="7.7042615"><ele>468.5</ele><time>2026-04-26T11:38:30.946Z</time></trkpt><trkpt lat="44.375861" lon="7.7040728"><ele>469.75</ele><time>2026-04-26T11:38:31.946Z</time></trkpt><trkpt lat="44.3758749" lon="7.703884"><ele>471.0</ele><time>2026-04-26T11:38:32.946Z</time></trkpt><trkpt lat="44.3758884" lon="7.703694"><ele>471.5</ele><time>2026-04-26T11:38:33.94Z</time></trkpt><trkpt lat="44.3759061" lon="7.7035093"><ele>472.0</ele><time>2026-04-26T11:38:34.946Z</time></trkpt><trkpt lat="44.3759187" lon="7.7033267"><ele>472.5</ele><time>2026-04-26T11:38:35.946Z</time></trkpt><trkpt lat="44.3759323" lon="7.703143"><ele>473.0</ele><time>2026-04-26T11:38:36.946Z</time></trkpt><trkpt lat="44.3759461" lon="7.7029567"><ele>473.0</ele><time>2026-04-26T11:38:37.946Z</time></trkpt><trkpt lat="44.3759633" lon="7.7027706"><ele>473.0</ele><time>2026-04-26T11:38:38.942Z</time></trkpt><trkpt lat="44.3759787" lon="7.7025856"><ele>473.0</ele><time>2026-04-26T11:38:39.946Z</time></trkpt><trkpt lat="44.375995" lon="7.7024031"><ele>473.0</ele><time>2026-04-26T11:38:40.946Z</time></trkpt><trkpt lat="44.3760035" lon="7.702212"><ele>473.0</ele><time>2026-04-26T11:38:41.94Z</time></trkpt><trkpt lat="44.3760113" lon="7.7020004"><ele>473.0</ele><time>2026-04-26T11:38:42.945Z</time></trkpt><trkpt lat="44.3760289" lon="7.7017663"><ele>473.0</ele><time>2026-04-26T11:38:43.944Z</time></trkpt><trkpt lat="44.3760494" lon="7.7015313"><ele>473.0</ele><time>2026-04-26T11:38:44.946Z</time></trkpt><trkpt lat="44.3760749" lon="7.7012917"><ele>473.0</ele><time>2026-04-26T11:38:45.946Z</time></trkpt><trkpt lat="44.3760964" lon="7.7010686"><ele>473.0</ele><time>2026-04-26T11:38:46.946Z</time></trkpt><trkpt lat="44.3761215" lon="7.7008471"><ele>472.75</ele><time>2026-04-26T11:38:47.946Z</time></trkpt><trkpt lat="44.3761397" lon="7.7006426"><ele>472.5</ele><time>2026-04-26T11:38:48.946Z</time></trkpt><trkpt lat="44.376157" lon="7.7004493"><ele>472.25</ele><time>2026-04-26T11:38:49.944Z</time></trkpt><trkpt lat="44.3761764" lon="7.7002541"><ele>472.0</ele><time>2026-04-26T11:38:50.946Z</time></trkpt><trkpt lat="44.3761878" lon="7.7000644"><ele>472.0</ele><time>2026-04-26T11:38:51.945Z</time></trkpt><trkpt lat="44.3762041" lon="7.6998829"><ele>472.0</ele><time>2026-04-26T11:38:52.946Z</time></trkpt><trkpt lat="44.3762213" lon="7.6997048"><ele>472.0</ele><time>2026-04-26T11:38:53.946Z</time></trkpt><trkpt lat="44.3762339" lon="7.6995456"><ele>472.0</ele><time>2026-04-26T11:38:54.943Z</time></trkpt><trkpt lat="44.3762492" lon="7.6993849"><ele>472.0</ele><time>2026-04-26T11:38:55.946Z</time></trkpt><trkpt lat="44.376261" lon="7.6992434"><ele>472.00000000000006</ele><time>2026-04-26T11:38:56.946Z</time></trkpt><trkpt lat="44.376285" lon="7.6991057"><ele>472.00000000000006</ele><time>2026-04-26T11:38:57.946Z</time></trkpt><trkpt lat="44.3763236" lon="7.6989855"><ele>472.0</ele><time>2026-04-26T11:38:58.944Z</time></trkpt><trkpt lat="44.3763659" lon="7.698868"><ele>472.0</ele><time>2026-04-26T11:38:59.946Z</time></trkpt><trkpt lat="44.3764248" lon="7.6987747"><ele>471.83333333333337</ele><time>2026-04-26T11:39:00.944Z</time></trkpt><trkpt lat="44.3764886" lon="7.6986964"><ele>471.6666666666667</ele><time>2026-04-26T11:39:01.942Z</time></trkpt><trkpt lat="44.3765598" lon="7.6986373"><ele>471.5</ele><time>2026-04-26T11:39:02.946Z</time></trkpt><trkpt lat="44.3766305" lon="7.6985993"><ele>471.33333333333337</ele><time>2026-04-26T11:39:03.946Z</time></trkpt><trkpt lat="44.3767143" lon="7.6985838"><ele>471.1666666666667</ele><time>2026-04-26T11:39:04.946Z</time></trkpt><trkpt lat="44.376794" lon="7.6985741"><ele>471.0</ele><time>2026-04-26T11:39:05.946Z</time></trkpt><trkpt lat="44.3768723" lon="7.6985433"><ele>471.3333333333333</ele><time>2026-04-26T11:39:06.945Z</time></trkpt><trkpt lat="44.3769383" lon="7.6984778"><ele>471.66666666666663</ele><time>2026-04-26T11:39:07.946Z</time></trkpt><trkpt lat="44.3769926" lon="7.6983891"><ele>472.0</ele><time>2026-04-26T11:39:08.946Z</time></trkpt><trkpt lat="44.3770205" lon="7.6982922"><ele>472.3333333333333</ele><time>2026-04-26T11:39:09.946Z</time></trkpt><trkpt lat="44.3770195" lon="7.6981874"><ele>472.66666666666663</ele><time>2026-04-26T11:39:10.946Z</time></trkpt><trkpt lat="44.3769861" lon="7.698089"><ele>473.0</ele><time>2026-04-26T11:39:11.946Z</time></trkpt><trkpt lat="44.3769352" lon="7.6980065"><ele>473.0</ele><time>2026-04-26T11:39:12.937Z</time></trkpt><trkpt lat="44.3768623" lon="7.6979425"><ele>472.99999999999994</ele><time>2026-04-26T11:39:13.946Z</time></trkpt><trkpt lat="44.3767829" lon="7.697882"><ele>472.99999999999994</ele><time>2026-04-26T11:39:14.946Z</time></trkpt><trkpt lat="44.3767107" lon="7.6978078"><ele>473.0</ele><time>2026-04-26T11:39:15.946Z</time></trkpt><trkpt lat="44.3766528" lon="7.6977002"><ele>473.0</ele><time>2026-04-26T11:39:16.946Z</time></trkpt><trkpt lat="44.3766093" lon="7.6975712"><ele>472.79999999999995</ele><time>2026-04-26T11:39:17.946Z</time></trkpt><trkpt lat="44.3765755" lon="7.6974371"><ele>472.59999999999997</ele><time>2026-04-26T11:39:18.946Z</time></trkpt><trkpt lat="44.3765451" lon="7.6972868"><ele>472.40000000000003</ele><time>2026-04-26T11:39:19.945Z</time></trkpt><trkpt lat="44.3765174" lon="7.6971344"><ele>472.20000000000005</ele><time>2026-04-26T11:39:20.946Z</time></trkpt><trkpt lat="44.3765001" lon="7.6969656"><ele>472.0</ele><time>2026-04-26T11:39:21.945Z</time></trkpt><trkpt lat="44.3764837" lon="7.696784"><ele>471.6666666666667</ele><time>2026-04-26T11:39:22.946Z</time></trkpt><trkpt lat="44.3764806" lon="7.6965898"><ele>471.33333333333337</ele><time>2026-04-26T11:39:23.944Z</time></trkpt><trkpt lat="44.3764817" lon="7.6963897"><ele>471.0</ele><time>2026-04-26T11:39:24.945Z</time></trkpt><trkpt lat="44.3764887" lon="7.6961476"><ele>472.0</ele><time>2026-04-26T11:39:25.942Z</time></trkpt><trkpt lat="44.376499" lon="7.6958837"><ele>473.0</ele><time>2026-04-26T11:39:26.945Z</time></trkpt><trkpt lat="44.376519" lon="7.6956087"><ele>474.0</ele><time>2026-04-26T11:39:27.941Z</time></trkpt><trkpt lat="44.376549" lon="7.6953122"><ele>473.5</ele><time>2026-04-26T11:39:28.946Z</time></trkpt><trkpt lat="44.3765786" lon="7.6949956"><ele>473.0</ele><time>2026-04-26T11:39:29.945Z</time></trkpt><trkpt lat="44.376608" lon="7.6946626"><ele>471.5</ele><time>2026-04-26T11:39:30.946Z</time></trkpt><trkpt lat="44.3766305" lon="7.6943325"><ele>470.0</ele><time>2026-04-26T11:39:31.946Z</time></trkpt><trkpt lat="44.3766537" lon="7.6939922"><ele>470.0</ele><time>2026-04-26T11:39:32.946Z</time></trkpt><trkpt lat="44.3766816" lon="7.6936478"><ele>470.0</ele><time>2026-04-26T11:39:33.944Z</time></trkpt><trkpt lat="44.3767079" lon="7.6933049"><ele>470.0</ele><time>2026-04-26T11:39:34.946Z</time></trkpt><trkpt lat="44.3767372" lon="7.692965"><ele>470.0</ele><time>2026-04-26T11:39:35.945Z</time></trkpt><trkpt lat="44.3767627" lon="7.6926226"><ele>470.0</ele><time>2026-04-26T11:39:36.942Z</time></trkpt><trkpt lat="44.3767901" lon="7.692287"><ele>470.0</ele><time>2026-04-26T11:39:37.946Z</time></trkpt><trkpt lat="44.3768151" lon="7.6919434"><ele>471.0</ele><time>2026-04-26T11:39:38.946Z</time></trkpt><trkpt lat="44.3768462" lon="7.691609"><ele>472.0</ele><time>2026-04-26T11:39:39.946Z</time></trkpt><trkpt lat="44.3768688" lon="7.6912714"><ele>472.0</ele><time>2026-04-26T11:39:40.946Z</time></trkpt><trkpt lat="44.3768945" lon="7.6909324"><ele>472.0</ele><time>2026-04-26T11:39:41.935Z</time></trkpt><trkpt lat="44.3769207" lon="7.6905875"><ele>471.5</ele><time>2026-04-26T11:39:42.946Z</time></trkpt><trkpt lat="44.3769451" lon="7.6902457"><ele>471.0</ele><time>2026-04-26T11:39:43.945Z</time></trkpt><trkpt lat="44.3769744" lon="7.6899096"><ele>471.0</ele><time>2026-04-26T11:39:44.944Z</time></trkpt><trkpt lat="44.376999" lon="7.6895724"><ele>471.0</ele><time>2026-04-26T11:39:45.945Z</time></trkpt><trkpt lat="44.3770271" lon="7.689239"><ele>471.5</ele><time>2026-04-26T11:39:46.946Z</time></trkpt><trkpt lat="44.3770519" lon="7.6889056"><ele>472.0</ele><time>2026-04-26T11:39:47.945Z</time></trkpt><trkpt lat="44.3770748" lon="7.6885746"><ele>472.0</ele><time>2026-04-26T11:39:48.945Z</time></trkpt><trkpt lat="44.3770992" lon="7.6882485"><ele>472.0</ele><time>2026-04-26T11:39:49.946Z</time></trkpt><trkpt lat="44.3771213" lon="7.687921"><ele>472.0</ele><time>2026-04-26T11:39:50.943Z</time></trkpt><trkpt lat="44.3771498" lon="7.6875903"><ele>472.0</ele><time>2026-04-26T11:39:51.946Z</time></trkpt><trkpt lat="44.3771775" lon="7.6872731"><ele>472.0</ele><time>2026-04-26T11:39:52.942Z</time></trkpt><trkpt lat="44.3772029" lon="7.6869683"><ele>472.0</ele><time>2026-04-26T11:39:53.945Z</time></trkpt><trkpt lat="44.3772225" lon="7.6866874"><ele>472.0</ele><time>2026-04-26T11:39:54.946Z</time></trkpt><trkpt lat="44.3772445" lon="7.6864261"><ele>472.0</ele><time>2026-04-26T11:39:55.944Z</time></trkpt><trkpt lat="44.3772679" lon="7.6861851"><ele>472.0</ele><time>2026-04-26T11:39:56.946Z</time></trkpt><trkpt lat="44.3772853" lon="7.685972"><ele>472.0</ele><time>2026-04-26T11:39:57.945Z</time></trkpt><trkpt lat="44.3773039" lon="7.6857937"><ele>472.0</ele><time>2026-04-26T11:39:58.946Z</time></trkpt><trkpt lat="44.3773232" lon="7.6856307"><ele>472.0</ele><time>2026-04-26T11:39:59.943Z</time></trkpt><trkpt lat="44.37736" lon="7.6854742"><ele>472.0</ele><time>2026-04-26T11:40:00.944Z</time></trkpt><trkpt lat="44.3774024" lon="7.6853183"><ele>472.0</ele><time>2026-04-26T11:40:01.946Z</time></trkpt><trkpt lat="44.3774112" lon="7.6851595"><ele>472.33333333333337</ele><time>2026-04-26T11:40:02.944Z</time></trkpt><trkpt lat="44.3773975" lon="7.6849792"><ele>472.66666666666663</ele><time>2026-04-26T11:40:03.946Z</time></trkpt><trkpt lat="44.3773954" lon="7.6847623"><ele>473.0</ele><time>2026-04-26T11:40:04.946Z</time></trkpt><trkpt lat="44.3774026" lon="7.6845245"><ele>473.0</ele><time>2026-04-26T11:40:05.946Z</time></trkpt><trkpt lat="44.3774191" lon="7.6842751"><ele>473.0</ele><time>2026-04-26T11:40:06.946Z</time></trkpt><trkpt lat="44.3774378" lon="7.684011"><ele>473.0</ele><time>2026-04-26T11:40:07.944Z</time></trkpt><trkpt lat="44.3774595" lon="7.6837348"><ele>473.3333333333333</ele><time>2026-04-26T11:40:08.944Z</time></trkpt><trkpt lat="44.3774772" lon="7.6834546"><ele>473.66666666666663</ele><time>2026-04-26T11:40:09.946Z</time></trkpt><trkpt lat="44.3774918" lon="7.6831574"><ele>474.0</ele><time>2026-04-26T11:40:10.943Z</time></trkpt><trkpt lat="44.3774973" lon="7.6828611"><ele>473.66666666666663</ele><time>2026-04-26T11:40:11.946Z</time></trkpt><trkpt lat="44.3774894" lon="7.6825596"><ele>473.3333333333333</ele><time>2026-04-26T11:40:12.946Z</time></trkpt><trkpt lat="44.3774746" lon="7.6822625"><ele>473.0</ele><time>2026-04-26T11:40:13.942Z</time></trkpt><trkpt lat="44.377446" lon="7.6819597"><ele>472.5</ele><time>2026-04-26T11:40:14.946Z</time></trkpt><trkpt lat="44.3774078" lon="7.6816488"><ele>472.0</ele><time>2026-04-26T11:40:15.941Z</time></trkpt><trkpt lat="44.3773544" lon="7.6813358"><ele>470.5</ele><time>2026-04-26T11:40:16.946Z</time></trkpt><trkpt lat="44.3772845" lon="7.6810271"><ele>469.0</ele><time>2026-04-26T11:40:17.946Z</time></trkpt><trkpt lat="44.3772035" lon="7.6807103"><ele>470.0</ele><time>2026-04-26T11:40:18.939Z</time></trkpt><trkpt lat="44.3771144" lon="7.6804026"><ele>471.0</ele><time>2026-04-26T11:40:19.946Z</time></trkpt><trkpt lat="44.3770188" lon="7.6800791"><ele>471.0</ele><time>2026-04-26T11:40:20.946Z</time></trkpt><trkpt lat="44.3769208" lon="7.6797721"><ele>471.0</ele><time>2026-04-26T11:40:21.946Z</time></trkpt><trkpt lat="44.3768242" lon="7.6794488"><ele>469.5</ele><time>2026-04-26T11:40:22.946Z</time></trkpt><trkpt lat="44.3767269" lon="7.6791419"><ele>468.0</ele><time>2026-04-26T11:40:23.944Z</time></trkpt><trkpt lat="44.3766328" lon="7.67883"><ele>467.5</ele><time>2026-04-26T11:40:24.945Z</time></trkpt><trkpt lat="44.376536" lon="7.6785228"><ele>467.0</ele><time>2026-04-26T11:40:25.945Z</time></trkpt><trkpt lat="44.3764342" lon="7.6782134"><ele>468.5</ele><time>2026-04-26T11:40:26.946Z</time></trkpt><trkpt lat="44.3763311" lon="7.6779019"><ele>470.0</ele><time>2026-04-26T11:40:27.946Z</time></trkpt><trkpt lat="44.3762325" lon="7.6775926"><ele>470.0</ele><time>2026-04-26T11:40:28.945Z</time></trkpt><trkpt lat="44.3761353" lon="7.6772822"><ele>470.0</ele><time>2026-04-26T11:40:29.945Z</time></trkpt><trkpt lat="44.3760356" lon="7.6769749"><ele>469.0</ele><time>2026-04-26T11:40:30.946Z</time></trkpt><trkpt lat="44.3759389" lon="7.6766616"><ele>468.0</ele><time>2026-04-26T11:40:31.946Z</time></trkpt><trkpt lat="44.3758367" lon="7.6763451"><ele>468.5</ele><time>2026-04-26T11:40:32.944Z</time></trkpt><trkpt lat="44.3757402" lon="7.676031"><ele>469.0</ele><time>2026-04-26T11:40:33.946Z</time></trkpt><trkpt lat="44.3756447" lon="7.6757167"><ele>469.0</ele><time>2026-04-26T11:40:34.946Z</time></trkpt><trkpt lat="44.375548" lon="7.6754055"><ele>469.0</ele><time>2026-04-26T11:40:35.946Z</time></trkpt><trkpt lat="44.3754481" lon="7.675096"><ele>469.0</ele><time>2026-04-26T11:40:36.946Z</time></trkpt><trkpt lat="44.3753478" lon="7.6747795"><ele>469.0</ele><time>2026-04-26T11:40:37.946Z</time></trkpt><trkpt lat="44.3752472" lon="7.6744686"><ele>468.0</ele><time>2026-04-26T11:40:38.946Z</time></trkpt><trkpt lat="44.3751478" lon="7.6741586"><ele>467.0</ele><time>2026-04-26T11:40:39.945Z</time></trkpt><trkpt lat="44.3750478" lon="7.6738442"><ele>468.5</ele><time>2026-04-26T11:40:40.946Z</time></trkpt><trkpt lat="44.3749517" lon="7.6735331"><ele>470.0</ele><time>2026-04-26T11:40:41.946Z</time></trkpt><trkpt lat="44.3748537" lon="7.6732285"><ele>470.0</ele><time>2026-04-26T11:40:42.945Z</time></trkpt><trkpt lat="44.3747557" lon="7.6729316"><ele>470.0</ele><time>2026-04-26T11:40:43.945Z</time></trkpt><trkpt lat="44.3746458" lon="7.6726378"><ele>471.0</ele><time>2026-04-26T11:40:44.946Z</time></trkpt><trkpt lat="44.3745317" lon="7.6723592"><ele>472.0</ele><time>2026-04-26T11:40:45.946Z</time></trkpt><trkpt lat="44.3744072" lon="7.6720907"><ele>471.6666666666667</ele><time>2026-04-26T11:40:46.946Z</time></trkpt><trkpt lat="44.374278" lon="7.6718312"><ele>471.33333333333337</ele><time>2026-04-26T11:40:47.945Z</time></trkpt><trkpt lat="44.3741416" lon="7.6715892"><ele>471.0</ele><time>2026-04-26T11:40:48.946Z</time></trkpt><trkpt lat="44.3740052" lon="7.6713763"><ele>471.0</ele><time>2026-04-26T11:40:49.945Z</time></trkpt><trkpt lat="44.3738755" lon="7.6711757"><ele>471.0</ele><time>2026-04-26T11:40:50.946Z</time></trkpt><trkpt lat="44.3737471" lon="7.6709811"><ele>471.0</ele><time>2026-04-26T11:40:51.946Z</time></trkpt><trkpt lat="44.3736165" lon="7.670797"><ele>470.66666666666663</ele><time>2026-04-26T11:40:52.946Z</time></trkpt><trkpt lat="44.3734716" lon="7.6706548"><ele>470.3333333333333</ele><time>2026-04-26T11:40:53.946Z</time></trkpt><trkpt lat="44.3733389" lon="7.6704437"><ele>470.0</ele><time>2026-04-26T11:40:54.945Z</time></trkpt><trkpt lat="44.3731957" lon="7.6702372"><ele>470.66666666666663</ele><time>2026-04-26T11:40:55.946Z</time></trkpt><trkpt lat="44.3730457" lon="7.6700136"><ele>471.33333333333337</ele><time>2026-04-26T11:40:56.946Z</time></trkpt><trkpt lat="44.3729004" lon="7.6697981"><ele>472.0</ele><time>2026-04-26T11:40:57.945Z</time></trkpt><trkpt lat="44.3727479" lon="7.6695789"><ele>472.6666666666667</ele><time>2026-04-26T11:40:58.946Z</time></trkpt><trkpt lat="44.3725943" lon="7.6693539"><ele>473.33333333333337</ele><time>2026-04-26T11:40:59.946Z</time></trkpt><trkpt lat="44.3724472" lon="7.6691318"><ele>474.0</ele><time>2026-04-26T11:41:00.945Z</time></trkpt><trkpt lat="44.3722998" lon="7.6689129"><ele>475.33333333333337</ele><time>2026-04-26T11:41:01.94Z</time></trkpt><trkpt lat="44.3721692" lon="7.6687027"><ele>476.6666666666667</ele><time>2026-04-26T11:41:02.945Z</time></trkpt><trkpt lat="44.3720643" lon="7.6685001"><ele>478.0</ele><time>2026-04-26T11:41:03.944Z</time></trkpt><trkpt lat="44.3719927" lon="7.6683001"><ele>478.0</ele><time>2026-04-26T11:41:04.946Z</time></trkpt><trkpt lat="44.3719531" lon="7.6680868"><ele>478.0</ele><time>2026-04-26T11:41:05.946Z</time></trkpt><trkpt lat="44.3719513" lon="7.6678831"><ele>478.0</ele><time>2026-04-26T11:41:06.946Z</time></trkpt><trkpt lat="44.3719836" lon="7.6677014"><ele>478.0</ele><time>2026-04-26T11:41:07.945Z</time></trkpt><trkpt lat="44.3720202" lon="7.6675309"><ele>478.0</ele><time>2026-04-26T11:41:08.94Z</time></trkpt><trkpt lat="44.3720139" lon="7.6673789"><ele>478.0</ele><time>2026-04-26T11:41:09.946Z</time></trkpt><trkpt lat="44.371965" lon="7.6672499"><ele>478.0</ele><time>2026-04-26T11:41:10.945Z</time></trkpt><trkpt lat="44.3718742" lon="7.667142"><ele>478.0</ele><time>2026-04-26T11:41:11.946Z</time></trkpt><trkpt lat="44.3717578" lon="7.6670629"><ele>478.0</ele><time>2026-04-26T11:41:12.946Z</time></trkpt><trkpt lat="44.3716482" lon="7.6669568"><ele>478.0</ele><time>2026-04-26T11:41:13.945Z</time></trkpt><trkpt lat="44.3715695" lon="7.666775"><ele>478.0</ele><time>2026-04-26T11:41:14.946Z</time></trkpt><trkpt lat="44.3715125" lon="7.6665503"><ele>477.33333333333337</ele><time>2026-04-26T11:41:15.942Z</time></trkpt><trkpt lat="44.371466" lon="7.6662952"><ele>476.66666666666663</ele><time>2026-04-26T11:41:16.946Z</time></trkpt><trkpt lat="44.3714274" lon="7.6659986"><ele>476.0</ele><time>2026-04-26T11:41:17.941Z</time></trkpt><trkpt lat="44.3713931" lon="7.665687"><ele>476.0</ele><time>2026-04-26T11:41:18.945Z</time></trkpt><trkpt lat="44.3713565" lon="7.6653617"><ele>476.0</ele><time>2026-04-26T11:41:19.945Z</time></trkpt><trkpt lat="44.3713172" lon="7.6650305"><ele>475.5</ele><time>2026-04-26T11:41:20.946Z</time></trkpt><trkpt lat="44.3712759" lon="7.6647012"><ele>475.0</ele><time>2026-04-26T11:41:21.944Z</time></trkpt><trkpt lat="44.3712336" lon="7.6643762"><ele>475.0</ele><time>2026-04-26T11:41:22.944Z</time></trkpt><trkpt lat="44.3711888" lon="7.6640444"><ele>475.0</ele><time>2026-04-26T11:41:23.946Z</time></trkpt><trkpt lat="44.3711459" lon="7.6637126"><ele>474.0</ele><time>2026-04-26T11:41:24.946Z</time></trkpt><trkpt lat="44.3711054" lon="7.6633795"><ele>473.0</ele><time>2026-04-26T11:41:25.945Z</time></trkpt><trkpt lat="44.3710644" lon="7.6630406"><ele>472.5</ele><time>2026-04-26T11:41:26.943Z</time></trkpt><trkpt lat="44.3710228" lon="7.6627"><ele>472.0</ele><time>2026-04-26T11:41:27.945Z</time></trkpt><trkpt lat="44.3709913" lon="7.662356"><ele>472.0</ele><time>2026-04-26T11:41:28.945Z</time></trkpt><trkpt lat="44.3709775" lon="7.6620139"><ele>472.0</ele><time>2026-04-26T11:41:29.946Z</time></trkpt><trkpt lat="44.3709831" lon="7.6616763"><ele>472.5</ele><time>2026-04-26T11:41:30.946Z</time></trkpt><trkpt lat="44.3710096" lon="7.6613529"><ele>473.0</ele><time>2026-04-26T11:41:31.94Z</time></trkpt><trkpt lat="44.3710502" lon="7.6610383"><ele>473.66666666666663</ele><time>2026-04-26T11:41:32.945Z</time></trkpt><trkpt lat="44.3711051" lon="7.6607435"><ele>474.33333333333337</ele><time>2026-04-26T11:41:33.946Z</time></trkpt><trkpt lat="44.3711596" lon="7.6604464"><ele>475.0</ele><time>2026-04-26T11:41:34.945Z</time></trkpt><trkpt lat="44.3712134" lon="7.6601514"><ele>475.6666666666667</ele><time>2026-04-26T11:41:35.944Z</time></trkpt><trkpt lat="44.371268" lon="7.6598577"><ele>476.33333333333337</ele><time>2026-04-26T11:41:36.946Z</time></trkpt><trkpt lat="44.3713226" lon="7.6595615"><ele>477.0</ele><time>2026-04-26T11:41:37.943Z</time></trkpt><trkpt lat="44.3713808" lon="7.6592711"><ele>477.0</ele><time>2026-04-26T11:41:38.946Z</time></trkpt><trkpt lat="44.3714366" lon="7.6589728"><ele>477.0</ele><time>2026-04-26T11:41:39.946Z</time></trkpt><trkpt lat="44.3714933" lon="7.6586789"><ele>477.0</ele><time>2026-04-26T11:41:40.946Z</time></trkpt><trkpt lat="44.3715462" lon="7.6583844"><ele>477.0</ele><time>2026-04-26T11:41:41.943Z</time></trkpt><trkpt lat="44.3715962" lon="7.6580882"><ele>477.0</ele><time>2026-04-26T11:41:42.946Z</time></trkpt><trkpt lat="44.3716396" lon="7.6577918"><ele>477.0</ele><time>2026-04-26T11:41:43.941Z</time></trkpt><trkpt lat="44.3716811" lon="7.6574927"><ele>477.0</ele><time>2026-04-26T11:41:44.943Z</time></trkpt><trkpt lat="44.3717169" lon="7.6571976"><ele>477.0</ele><time>2026-04-26T11:41:45.946Z</time></trkpt><trkpt lat="44.3717496" lon="7.6569019"><ele>477.0</ele><time>2026-04-26T11:41:46.94Z</time></trkpt><trkpt lat="44.3717749" lon="7.6566005"><ele>477.0</ele><time>2026-04-26T11:41:47.946Z</time></trkpt><trkpt lat="44.3717973" lon="7.6563141"><ele>477.0</ele><time>2026-04-26T11:41:48.946Z</time></trkpt><trkpt lat="44.371815" lon="7.6560253"><ele>477.0</ele><time>2026-04-26T11:41:49.946Z</time></trkpt><trkpt lat="44.3718169" lon="7.6557335"><ele>477.33333333333337</ele><time>2026-04-26T11:41:50.946Z</time></trkpt><trkpt lat="44.3718147" lon="7.6554372"><ele>477.6666666666667</ele><time>2026-04-26T11:41:51.946Z</time></trkpt><trkpt lat="44.3718062" lon="7.6551342"><ele>478.0</ele><time>2026-04-26T11:41:52.946Z</time></trkpt><trkpt lat="44.3717891" lon="7.6548225"><ele>478.0</ele><time>2026-04-26T11:41:53.946Z</time></trkpt><trkpt lat="44.3717665" lon="7.654508"><ele>478.0</ele><time>2026-04-26T11:41:54.944Z</time></trkpt><trkpt lat="44.3717486" lon="7.6541821"><ele>478.5</ele><time>2026-04-26T11:41:55.946Z</time></trkpt><trkpt lat="44.3717293" lon="7.6538504"><ele>479.0</ele><time>2026-04-26T11:41:56.946Z</time></trkpt><trkpt lat="44.371709" lon="7.6535262"><ele>480.0</ele><time>2026-04-26T11:41:57.946Z</time></trkpt><trkpt lat="44.3716916" lon="7.6531885"><ele>481.0</ele><time>2026-04-26T11:41:58.946Z</time></trkpt><trkpt lat="44.3716653" lon="7.6528539"><ele>480.5</ele><time>2026-04-26T11:41:59.946Z</time></trkpt><trkpt lat="44.3716364" lon="7.6525134"><ele>480.0</ele><time>2026-04-26T11:42:00.946Z</time></trkpt><trkpt lat="44.3716059" lon="7.6521655"><ele>480.0</ele><time>2026-04-26T11:42:01.946Z</time></trkpt><trkpt lat="44.3715748" lon="7.6518116"><ele>480.0</ele><time>2026-04-26T11:42:02.946Z</time></trkpt><trkpt lat="44.3715412" lon="7.651459"><ele>481.0</ele><time>2026-04-26T11:42:03.946Z</time></trkpt><trkpt lat="44.3715055" lon="7.651102"><ele>482.0</ele><time>2026-04-26T11:42:04.941Z</time></trkpt><trkpt lat="44.3714728" lon="7.6507448"><ele>482.0</ele><time>2026-04-26T11:42:05.945Z</time></trkpt><trkpt lat="44.3714382" lon="7.6503891"><ele>482.0</ele><time>2026-04-26T11:42:06.945Z</time></trkpt><trkpt lat="44.371408" lon="7.6500336"><ele>482.0</ele><time>2026-04-26T11:42:07.941Z</time></trkpt><trkpt lat="44.3713723" lon="7.6496817"><ele>482.0</ele><time>2026-04-26T11:42:08.945Z</time></trkpt><trkpt lat="44.3713397" lon="7.6493311"><ele>482.0</ele><time>2026-04-26T11:42:09.946Z</time></trkpt><trkpt lat="44.3713096" lon="7.6489916"><ele>482.0</ele><time>2026-04-26T11:42:10.945Z</time></trkpt><trkpt lat="44.3712799" lon="7.6486703"><ele>481.66666666666663</ele><time>2026-04-26T11:42:11.941Z</time></trkpt><trkpt lat="44.3712493" lon="7.6483645"><ele>481.33333333333337</ele><time>2026-04-26T11:42:12.946Z</time></trkpt><trkpt lat="44.3712203" lon="7.6480923"><ele>481.0</ele><time>2026-04-26T11:42:13.946Z</time></trkpt><trkpt lat="44.3711944" lon="7.6478424"><ele>481.75</ele><time>2026-04-26T11:42:14.946Z</time></trkpt><trkpt lat="44.3711697" lon="7.6476299"><ele>482.5</ele><time>2026-04-26T11:42:15.946Z</time></trkpt><trkpt lat="44.3711617" lon="7.6474451"><ele>483.25</ele><time>2026-04-26T11:42:16.946Z</time></trkpt><trkpt lat="44.3711706" lon="7.6472768"><ele>484.0</ele><time>2026-04-26T11:42:17.945Z</time></trkpt><trkpt lat="44.3711888" lon="7.6471158"><ele>484.5</ele><time>2026-04-26T11:42:18.946Z</time></trkpt><trkpt lat="44.3711971" lon="7.6469544"><ele>485.0</ele><time>2026-04-26T11:42:19.945Z</time></trkpt><trkpt lat="44.3711688" lon="7.6468027"><ele>485.5</ele><time>2026-04-26T11:42:20.946Z</time></trkpt><trkpt lat="44.3711008" lon="7.6466489"><ele>486.0</ele><time>2026-04-26T11:42:21.943Z</time></trkpt><trkpt lat="44.3710264" lon="7.6464825"><ele>486.0</ele><time>2026-04-26T11:42:22.945Z</time></trkpt><trkpt lat="44.370977" lon="7.6462747"><ele>486.0</ele><time>2026-04-26T11:42:23.946Z</time></trkpt><trkpt lat="44.3709425" lon="7.6460372"><ele>486.0</ele><time>2026-04-26T11:42:24.943Z</time></trkpt><trkpt lat="44.3709198" lon="7.6457912"><ele>485.66666666666663</ele><time>2026-04-26T11:42:25.945Z</time></trkpt><trkpt lat="44.3709022" lon="7.645529"><ele>485.3333333333333</ele><time>2026-04-26T11:42:26.946Z</time></trkpt><trkpt lat="44.3708821" lon="7.6452501"><ele>485.0</ele><time>2026-04-26T11:42:27.946Z</time></trkpt><trkpt lat="44.3708605" lon="7.6449625"><ele>485.3333333333333</ele><time>2026-04-26T11:42:28.946Z</time></trkpt><trkpt lat="44.3708413" lon="7.6446574"><ele>485.66666666666663</ele><time>2026-04-26T11:42:29.945Z</time></trkpt><trkpt lat="44.37081" lon="7.6443417"><ele>486.0</ele><time>2026-04-26T11:42:30.945Z</time></trkpt><trkpt lat="44.3707742" lon="7.6440177"><ele>486.0</ele><time>2026-04-26T11:42:31.945Z</time></trkpt><trkpt lat="44.370736" lon="7.6436919"><ele>486.0</ele><time>2026-04-26T11:42:32.946Z</time></trkpt><trkpt lat="44.3706931" lon="7.6433714"><ele>486.5</ele><time>2026-04-26T11:42:33.946Z</time></trkpt><trkpt lat="44.370652" lon="7.6430424"><ele>487.0</ele><time>2026-04-26T11:42:34.946Z</time></trkpt><trkpt lat="44.3706062" lon="7.642715"><ele>487.5</ele><time>2026-04-26T11:42:35.945Z</time></trkpt><trkpt lat="44.3705613" lon="7.6423855"><ele>488.0</ele><time>2026-04-26T11:42:36.945Z</time></trkpt><trkpt lat="44.3705198" lon="7.6420545"><ele>488.0</ele><time>2026-04-26T11:42:37.946Z</time></trkpt><trkpt lat="44.3704779" lon="7.6417197"><ele>488.0</ele><time>2026-04-26T11:42:38.943Z</time></trkpt><trkpt lat="44.3704394" lon="7.6413918"><ele>488.5</ele><time>2026-04-26T11:42:39.946Z</time></trkpt><trkpt lat="44.3704025" lon="7.6410459"><ele>489.0</ele><time>2026-04-26T11:42:40.945Z</time></trkpt><trkpt lat="44.3703746" lon="7.6406952"><ele>489.0</ele><time>2026-04-26T11:42:41.946Z</time></trkpt><trkpt lat="44.3703509" lon="7.6403459"><ele>489.0</ele><time>2026-04-26T11:42:42.946Z</time></trkpt><trkpt lat="44.3703264" lon="7.63999"><ele>489.5</ele><time>2026-04-26T11:42:43.945Z</time></trkpt><trkpt lat="44.3703047" lon="7.639632"><ele>490.0</ele><time>2026-04-26T11:42:44.943Z</time></trkpt><trkpt lat="44.3702894" lon="7.639269"><ele>491.0</ele><time>2026-04-26T11:42:45.946Z</time></trkpt><trkpt lat="44.370276" lon="7.6389098"><ele>492.0</ele><time>2026-04-26T11:42:46.939Z</time></trkpt><trkpt lat="44.370259" lon="7.6385559"><ele>492.0</ele><time>2026-04-26T11:42:47.946Z</time></trkpt><trkpt lat="44.3702479" lon="7.6381955"><ele>492.0</ele><time>2026-04-26T11:42:48.944Z</time></trkpt><trkpt lat="44.370235" lon="7.6378374"><ele>491.5</ele><time>2026-04-26T11:42:49.93Z</time></trkpt><trkpt lat="44.3702275" lon="7.6374809"><ele>491.0</ele><time>2026-04-26T11:42:50.946Z</time></trkpt><trkpt lat="44.3702227" lon="7.6371243"><ele>491.0</ele><time>2026-04-26T11:42:51.93Z</time></trkpt><trkpt lat="44.370198" lon="7.6368022"><ele>491.0</ele><time>2026-04-26T11:42:52.946Z</time></trkpt><trkpt lat="44.3701853" lon="7.6364502"><ele>491.5</ele><time>2026-04-26T11:42:53.941Z</time></trkpt><trkpt lat="44.3701796" lon="7.6360962"><ele>492.0</ele><time>2026-04-26T11:42:54.946Z</time></trkpt><trkpt lat="44.3701702" lon="7.6357487"><ele>492.0</ele><time>2026-04-26T11:42:55.94Z</time></trkpt><trkpt lat="44.3701658" lon="7.635403"><ele>492.0</ele><time>2026-04-26T11:42:56.946Z</time></trkpt><trkpt lat="44.3701625" lon="7.6350701"><ele>492.0</ele><time>2026-04-26T11:42:57.943Z</time></trkpt><trkpt lat="44.3701598" lon="7.6347348"><ele>492.0</ele><time>2026-04-26T11:42:58.946Z</time></trkpt><trkpt lat="44.3701597" lon="7.6343876"><ele>493.0</ele><time>2026-04-26T11:42:59.944Z</time></trkpt><trkpt lat="44.3701564" lon="7.6340422"><ele>494.0</ele><time>2026-04-26T11:43:00.946Z</time></trkpt><trkpt lat="44.3701536" lon="7.6336999"><ele>495.0</ele><time>2026-04-26T11:43:01.937Z</time></trkpt><trkpt lat="44.3701587" lon="7.6333348"><ele>496.0</ele><time>2026-04-26T11:43:02.946Z</time></trkpt><trkpt lat="44.3701615" lon="7.6329829"><ele>496.0</ele><time>2026-04-26T11:43:03.94Z</time></trkpt><trkpt lat="44.3701664" lon="7.6326422"><ele>496.0</ele><time>2026-04-26T11:43:04.945Z</time></trkpt><trkpt lat="44.3701717" lon="7.6323173"><ele>496.0</ele><time>2026-04-26T11:43:05.943Z</time></trkpt><trkpt lat="44.3701774" lon="7.6320133"><ele>496.0</ele><time>2026-04-26T11:43:06.946Z</time></trkpt><trkpt lat="44.3701872" lon="7.6317259"><ele>496.0</ele><time>2026-04-26T11:43:07.946Z</time></trkpt><trkpt lat="44.370193" lon="7.6314685"><ele>496.25</ele><time>2026-04-26T11:43:08.945Z</time></trkpt><trkpt lat="44.3701947" lon="7.6312444"><ele>496.5</ele><time>2026-04-26T11:43:09.945Z</time></trkpt><trkpt lat="44.3701969" lon="7.6310445"><ele>496.75</ele><time>2026-04-26T11:43:10.946Z</time></trkpt><trkpt lat="44.3702098" lon="7.6308466"><ele>497.0</ele><time>2026-04-26T11:43:11.937Z</time></trkpt><trkpt lat="44.3702387" lon="7.6306596"><ele>497.25</ele><time>2026-04-26T11:43:12.946Z</time></trkpt><trkpt lat="44.3702907" lon="7.6305023"><ele>497.5</ele><time>2026-04-26T11:43:13.946Z</time></trkpt><trkpt lat="44.3703729" lon="7.6303696"><ele>497.75</ele><time>2026-04-26T11:43:14.946Z</time></trkpt><trkpt lat="44.3704542" lon="7.6302388"><ele>498.0</ele><time>2026-04-26T11:43:15.946Z</time></trkpt><trkpt lat="44.3705057" lon="7.6300977"><ele>498.0</ele><time>2026-04-26T11:43:16.943Z</time></trkpt><trkpt lat="44.3705218" lon="7.629938"><ele>498.0</ele><time>2026-04-26T11:43:17.946Z</time></trkpt><trkpt lat="44.3704965" lon="7.6297839"><ele>498.0</ele><time>2026-04-26T11:43:18.946Z</time></trkpt><trkpt lat="44.3704327" lon="7.6296333"><ele>498.0</ele><time>2026-04-26T11:43:19.946Z</time></trkpt><trkpt lat="44.3703525" lon="7.6294884"><ele>498.0</ele><time>2026-04-26T11:43:20.946Z</time></trkpt><trkpt lat="44.3703011" lon="7.6293192"><ele>498.0</ele><time>2026-04-26T11:43:21.946Z</time></trkpt><trkpt lat="44.3702779" lon="7.6291216"><ele>498.0</ele><time>2026-04-26T11:43:22.946Z</time></trkpt><trkpt lat="44.3702829" lon="7.6288992"><ele>498.0</ele><time>2026-04-26T11:43:23.944Z</time></trkpt><trkpt lat="44.3702987" lon="7.6286614"><ele>498.33333333333337</ele><time>2026-04-26T11:43:24.946Z</time></trkpt><trkpt lat="44.3703141" lon="7.6284218"><ele>498.6666666666667</ele><time>2026-04-26T11:43:25.946Z</time></trkpt><trkpt lat="44.370332" lon="7.6281723"><ele>499.0</ele><time>2026-04-26T11:43:26.94Z</time></trkpt><trkpt lat="44.3703559" lon="7.6279127"><ele>499.0</ele><time>2026-04-26T11:43:27.944Z</time></trkpt><trkpt lat="44.3703834" lon="7.6276444"><ele>499.0</ele><time>2026-04-26T11:43:28.946Z</time></trkpt><trkpt lat="44.3704164" lon="7.6273794"><ele>499.0</ele><time>2026-04-26T11:43:29.946Z</time></trkpt><trkpt lat="44.3704652" lon="7.6271077"><ele>499.33333333333337</ele><time>2026-04-26T11:43:30.946Z</time></trkpt><trkpt lat="44.3705232" lon="7.62684"><ele>499.66666666666663</ele><time>2026-04-26T11:43:31.946Z</time></trkpt><trkpt lat="44.3705931" lon="7.6265808"><ele>500.0</ele><time>2026-04-26T11:43:32.946Z</time></trkpt><trkpt lat="44.370669" lon="7.6263222"><ele>500.0</ele><time>2026-04-26T11:43:33.942Z</time></trkpt><trkpt lat="44.3707495" lon="7.6260677"><ele>500.0</ele><time>2026-04-26T11:43:34.946Z</time></trkpt><trkpt lat="44.3708436" lon="7.6258192"><ele>500.0</ele><time>2026-04-26T11:43:35.94Z</time></trkpt><trkpt lat="44.3709449" lon="7.6255798"><ele>500.0</ele><time>2026-04-26T11:43:36.946Z</time></trkpt><trkpt lat="44.3710579" lon="7.6253505"><ele>500.0</ele><time>2026-04-26T11:43:37.943Z</time></trkpt><trkpt lat="44.3711699" lon="7.6251167"><ele>500.0</ele><time>2026-04-26T11:43:38.946Z</time></trkpt><trkpt lat="44.3712839" lon="7.6248827"><ele>500.0</ele><time>2026-04-26T11:43:39.944Z</time></trkpt><trkpt lat="44.3713969" lon="7.6246489"><ele>500.0</ele><time>2026-04-26T11:43:40.946Z</time></trkpt><trkpt lat="44.3715083" lon="7.6244159"><ele>500.0</ele><time>2026-04-26T11:43:41.944Z</time></trkpt><trkpt lat="44.3716268" lon="7.6241891"><ele>500.3333333333333</ele><time>2026-04-26T11:43:42.946Z</time></trkpt><trkpt lat="44.371727" lon="7.6239501"><ele>500.66666666666663</ele><time>2026-04-26T11:43:43.944Z</time></trkpt><trkpt lat="44.3718259" lon="7.6237105"><ele>501.0</ele><time>2026-04-26T11:43:44.942Z</time></trkpt><trkpt lat="44.3719187" lon="7.6234588"><ele>501.0</ele><time>2026-04-26T11:43:45.946Z</time></trkpt><trkpt lat="44.3720021" lon="7.6232014"><ele>501.0</ele><time>2026-04-26T11:43:46.94Z</time></trkpt><trkpt lat="44.3720784" lon="7.6229409"><ele>501.0</ele><time>2026-04-26T11:43:47.945Z</time></trkpt><trkpt lat="44.3721564" lon="7.6226835"><ele>501.66666666666663</ele><time>2026-04-26T11:43:48.945Z</time></trkpt><trkpt lat="44.3722381" lon="7.6224274"><ele>502.3333333333333</ele><time>2026-04-26T11:43:49.946Z</time></trkpt><trkpt lat="44.3723131" lon="7.6221736"><ele>503.0</ele><time>2026-04-26T11:43:50.946Z</time></trkpt><trkpt lat="44.3723907" lon="7.621921"><ele>503.3333333333333</ele><time>2026-04-26T11:43:51.946Z</time></trkpt><trkpt lat="44.3724671" lon="7.6216664"><ele>503.66666666666663</ele><time>2026-04-26T11:43:52.943Z</time></trkpt><trkpt lat="44.3725457" lon="7.6214177"><ele>504.0</ele><time>2026-04-26T11:43:53.945Z</time></trkpt><trkpt lat="44.3726211" lon="7.6211664"><ele>503.66666666666663</ele><time>2026-04-26T11:43:54.94Z</time></trkpt><trkpt lat="44.3727011" lon="7.6209096"><ele>503.3333333333333</ele><time>2026-04-26T11:43:55.945Z</time></trkpt><trkpt lat="44.3727744" lon="7.6206537"><ele>503.0</ele><time>2026-04-26T11:43:56.94Z</time></trkpt><trkpt lat="44.372847" lon="7.6203978"><ele>503.0</ele><time>2026-04-26T11:43:57.945Z</time></trkpt><trkpt lat="44.3729185" lon="7.6201442"><ele>503.0</ele><time>2026-04-26T11:43:58.946Z</time></trkpt><trkpt lat="44.3729889" lon="7.6198911"><ele>503.0</ele><time>2026-04-26T11:43:59.946Z</time></trkpt><trkpt lat="44.3730647" lon="7.6196452"><ele>503.3333333333333</ele><time>2026-04-26T11:44:00.937Z</time></trkpt><trkpt lat="44.37314" lon="7.6194005"><ele>503.66666666666663</ele><time>2026-04-26T11:44:01.945Z</time></trkpt><trkpt lat="44.3732148" lon="7.6191589"><ele>504.0</ele><time>2026-04-26T11:44:02.945Z</time></trkpt><trkpt lat="44.3732877" lon="7.6189168"><ele>504.0</ele><time>2026-04-26T11:44:03.946Z</time></trkpt><trkpt lat="44.3733577" lon="7.618673"><ele>504.0</ele><time>2026-04-26T11:44:04.946Z</time></trkpt><trkpt lat="44.3734311" lon="7.6184325"><ele>504.0</ele><time>2026-04-26T11:44:05.946Z</time></trkpt><trkpt lat="44.3735013" lon="7.6181852"><ele>503.66666666666663</ele><time>2026-04-26T11:44:06.945Z</time></trkpt><trkpt lat="44.3735738" lon="7.6179311"><ele>503.3333333333333</ele><time>2026-04-26T11:44:07.941Z</time></trkpt><trkpt lat="44.3736536" lon="7.6176835"><ele>503.0</ele><time>2026-04-26T11:44:08.946Z</time></trkpt><trkpt lat="44.3737329" lon="7.6174356"><ele>504.0</ele><time>2026-04-26T11:44:09.945Z</time></trkpt><trkpt lat="44.373808" lon="7.6171798"><ele>505.0</ele><time>2026-04-26T11:44:10.945Z</time></trkpt><trkpt lat="44.3738859" lon="7.6168979"><ele>506.0</ele><time>2026-04-26T11:44:11.946Z</time></trkpt><trkpt lat="44.3739726" lon="7.6166051"><ele>506.0</ele><time>2026-04-26T11:44:12.946Z</time></trkpt><trkpt lat="44.3740653" lon="7.6162945"><ele>506.0</ele><time>2026-04-26T11:44:13.946Z</time></trkpt><trkpt lat="44.3741651" lon="7.6159862"><ele>506.0</ele><time>2026-04-26T11:44:14.946Z</time></trkpt><trkpt lat="44.3742653" lon="7.6156673"><ele>506.0</ele><time>2026-04-26T11:44:15.946Z</time></trkpt><trkpt lat="44.3743688" lon="7.6153436"><ele>506.5</ele><time>2026-04-26T11:44:16.942Z</time></trkpt><trkpt lat="44.3744668" lon="7.6150193"><ele>507.0</ele><time>2026-04-26T11:44:17.945Z</time></trkpt><trkpt lat="44.3745696" lon="7.6146925"><ele>507.5</ele><time>2026-04-26T11:44:18.946Z</time></trkpt><trkpt lat="44.3746665" lon="7.6143769"><ele>508.0</ele><time>2026-04-26T11:44:19.946Z</time></trkpt><trkpt lat="44.3747599" lon="7.6140705"><ele>508.0</ele><time>2026-04-26T11:44:20.946Z</time></trkpt><trkpt lat="44.3748471" lon="7.6137739"><ele>508.0</ele><time>2026-04-26T11:44:21.94Z</time></trkpt><trkpt lat="44.3749338" lon="7.6134915"><ele>508.0</ele><time>2026-04-26T11:44:22.946Z</time></trkpt><trkpt lat="44.3750188" lon="7.6132117"><ele>508.0</ele><time>2026-04-26T11:44:23.939Z</time></trkpt><trkpt lat="44.3750971" lon="7.6129377"><ele>508.0</ele><time>2026-04-26T11:44:24.946Z</time></trkpt><trkpt lat="44.3751788" lon="7.612673"><ele>508.0</ele><time>2026-04-26T11:44:25.938Z</time></trkpt><trkpt lat="44.3752573" lon="7.6124199"><ele>508.0</ele><time>2026-04-26T11:44:26.944Z</time></trkpt><trkpt lat="44.3753334" lon="7.6121798"><ele>508.0</ele><time>2026-04-26T11:44:27.94Z</time></trkpt><trkpt lat="44.375407" lon="7.6119442"><ele>508.0</ele><time>2026-04-26T11:44:28.946Z</time></trkpt><trkpt lat="44.3754767" lon="7.6117087"><ele>508.0</ele><time>2026-04-26T11:44:29.945Z</time></trkpt><trkpt lat="44.3755404" lon="7.611481"><ele>508.0</ele><time>2026-04-26T11:44:30.942Z</time></trkpt><trkpt lat="44.3756057" lon="7.6112541"><ele>508.0</ele><time>2026-04-26T11:44:31.946Z</time></trkpt><trkpt lat="44.3756768" lon="7.6110286"><ele>508.6666666666667</ele><time>2026-04-26T11:44:32.942Z</time></trkpt><trkpt lat="44.3757405" lon="7.6108027"><ele>509.33333333333337</ele><time>2026-04-26T11:44:33.946Z</time></trkpt><trkpt lat="44.3758079" lon="7.6105835"><ele>510.0</ele><time>2026-04-26T11:44:34.946Z</time></trkpt><trkpt lat="44.375882" lon="7.6103593"><ele>510.0</ele><time>2026-04-26T11:44:35.94Z</time></trkpt><trkpt lat="44.3759488" lon="7.6101334"><ele>510.0</ele><time>2026-04-26T11:44:36.946Z</time></trkpt><trkpt lat="44.3760187" lon="7.6099096"><ele>510.0</ele><time>2026-04-26T11:44:37.941Z</time></trkpt><trkpt lat="44.3760906" lon="7.6096951"><ele>510.33333333333337</ele><time>2026-04-26T11:44:38.945Z</time></trkpt><trkpt lat="44.3761649" lon="7.6094795"><ele>510.6666666666667</ele><time>2026-04-26T11:44:39.946Z</time></trkpt><trkpt lat="44.3762443" lon="7.6092684"><ele>511.0</ele><time>2026-04-26T11:44:40.945Z</time></trkpt><trkpt lat="44.3763338" lon="7.6090609"><ele>511.0</ele><time>2026-04-26T11:44:41.946Z</time></trkpt><trkpt lat="44.3764302" lon="7.6088645"><ele>511.0</ele><time>2026-04-26T11:44:42.944Z</time></trkpt><trkpt lat="44.3765294" lon="7.60866"><ele>511.0</ele><time>2026-04-26T11:44:43.946Z</time></trkpt><trkpt lat="44.3766286" lon="7.6084647"><ele>511.33333333333337</ele><time>2026-04-26T11:44:44.945Z</time></trkpt><trkpt lat="44.3767291" lon="7.6082673"><ele>511.66666666666663</ele><time>2026-04-26T11:44:45.941Z</time></trkpt><trkpt lat="44.3768329" lon="7.6080687"><ele>512.0</ele><time>2026-04-26T11:44:46.946Z</time></trkpt><trkpt lat="44.3769337" lon="7.6078735"><ele>511.66666666666663</ele><time>2026-04-26T11:44:47.946Z</time></trkpt><trkpt lat="44.3770325" lon="7.6076747"><ele>511.33333333333337</ele><time>2026-04-26T11:44:48.944Z</time></trkpt><trkpt lat="44.3771321" lon="7.607475"><ele>511.0</ele><time>2026-04-26T11:44:49.946Z</time></trkpt><trkpt lat="44.3772301" lon="7.6072767"><ele>511.0</ele><time>2026-04-26T11:44:50.942Z</time></trkpt><trkpt lat="44.377329" lon="7.6070713"><ele>511.0</ele><time>2026-04-26T11:44:51.946Z</time></trkpt><trkpt lat="44.3774258" lon="7.6068718"><ele>511.0</ele><time>2026-04-26T11:44:52.946Z</time></trkpt><trkpt lat="44.377525" lon="7.606678"><ele>511.33333333333337</ele><time>2026-04-26T11:44:53.945Z</time></trkpt><trkpt lat="44.3776282" lon="7.6064838"><ele>511.66666666666663</ele><time>2026-04-26T11:44:54.946Z</time></trkpt><trkpt lat="44.3777284" lon="7.6062944"><ele>512.0</ele><time>2026-04-26T11:44:55.937Z</time></trkpt><trkpt lat="44.3778235" lon="7.6060992"><ele>512.0</ele><time>2026-04-26T11:44:56.945Z</time></trkpt><trkpt lat="44.3779211" lon="7.6058992"><ele>512.0</ele><time>2026-04-26T11:44:57.94Z</time></trkpt><trkpt lat="44.378018" lon="7.6056949"><ele>512.0</ele><time>2026-04-26T11:44:58.946Z</time></trkpt><trkpt lat="44.3781146" lon="7.6055002"><ele>511.66666666666663</ele><time>2026-04-26T11:44:59.946Z</time></trkpt><trkpt lat="44.3782108" lon="7.605305"><ele>511.33333333333337</ele><time>2026-04-26T11:45:00.939Z</time></trkpt><trkpt lat="44.3783089" lon="7.6051069"><ele>511.0</ele><time>2026-04-26T11:45:01.946Z</time></trkpt><trkpt lat="44.3784067" lon="7.6049096"><ele>511.0</ele><time>2026-04-26T11:45:02.946Z</time></trkpt><trkpt lat="44.3785059" lon="7.6047201"><ele>511.0</ele><time>2026-04-26T11:45:03.946Z</time></trkpt><trkpt lat="44.3785973" lon="7.6045378"><ele>511.0</ele><time>2026-04-26T11:45:04.937Z</time></trkpt><trkpt lat="44.378685" lon="7.604367"><ele>510.8</ele><time>2026-04-26T11:45:05.945Z</time></trkpt><trkpt lat="44.378758" lon="7.6042227"><ele>510.6</ele><time>2026-04-26T11:45:06.941Z</time></trkpt><trkpt lat="44.3788306" lon="7.6041027"><ele>510.4</ele><time>2026-04-26T11:45:07.946Z</time></trkpt><trkpt lat="44.3789209" lon="7.6040239"><ele>510.2</ele><time>2026-04-26T11:45:08.946Z</time></trkpt><trkpt lat="44.379007" lon="7.6039596"><ele>510.0</ele><time>2026-04-26T11:45:09.944Z</time></trkpt><trkpt lat="44.3790738" lon="7.6038596"><ele>510.0</ele><time>2026-04-26T11:45:10.945Z</time></trkpt><trkpt lat="44.3791087" lon="7.6037308"><ele>510.0</ele><time>2026-04-26T11:45:11.94Z</time></trkpt><trkpt lat="44.3791097" lon="7.6035682"><ele>510.0</ele><time>2026-04-26T11:45:12.944Z</time></trkpt><trkpt lat="44.3791209" lon="7.6034046"><ele>510.0</ele><time>2026-04-26T11:45:13.941Z</time></trkpt><trkpt lat="44.3791655" lon="7.6032316"><ele>510.66666666666663</ele><time>2026-04-26T11:45:14.946Z</time></trkpt><trkpt lat="44.3792399" lon="7.6030502"><ele>511.3333333333333</ele><time>2026-04-26T11:45:15.941Z</time></trkpt><trkpt lat="44.3793185" lon="7.6028423"><ele>512.0</ele><time>2026-04-26T11:45:16.942Z</time></trkpt><trkpt lat="44.3793993" lon="7.6026241"><ele>512.0</ele><time>2026-04-26T11:45:17.944Z</time></trkpt><trkpt lat="44.3794713" lon="7.6023951"><ele>512.0</ele><time>2026-04-26T11:45:18.945Z</time></trkpt><trkpt lat="44.3795386" lon="7.6021572"><ele>512.0</ele><time>2026-04-26T11:45:19.946Z</time></trkpt><trkpt lat="44.3795991" lon="7.6019202"><ele>512.0</ele><time>2026-04-26T11:45:20.946Z</time></trkpt><trkpt lat="44.379661" lon="7.6016907"><ele>512.0</ele><time>2026-04-26T11:45:21.939Z</time></trkpt><trkpt lat="44.3797258" lon="7.6014714"><ele>512.0</ele><time>2026-04-26T11:45:22.946Z</time></trkpt><trkpt lat="44.3797823" lon="7.6012463"><ele>512.0</ele><time>2026-04-26T11:45:23.944Z</time></trkpt><trkpt lat="44.3798369" lon="7.6010275"><ele>512.0</ele><time>2026-04-26T11:45:24.946Z</time></trkpt><trkpt lat="44.3798882" lon="7.6008213"><ele>512.0</ele><time>2026-04-26T11:45:25.946Z</time></trkpt><trkpt lat="44.3799429" lon="7.6006226"><ele>512.0</ele><time>2026-04-26T11:45:26.946Z</time></trkpt><trkpt lat="44.3799971" lon="7.6004177"><ele>512.0</ele><time>2026-04-26T11:45:27.946Z</time></trkpt><trkpt lat="44.3800483" lon="7.600221"><ele>512.0</ele><time>2026-04-26T11:45:28.945Z</time></trkpt><trkpt lat="44.3800945" lon="7.600028"><ele>512.25</ele><time>2026-04-26T11:45:29.946Z</time></trkpt><trkpt lat="44.3801424" lon="7.5998416"><ele>512.5</ele><time>2026-04-26T11:45:30.945Z</time></trkpt><trkpt lat="44.3801866" lon="7.5996554"><ele>512.75</ele><time>2026-04-26T11:45:31.946Z</time></trkpt><trkpt lat="44.3802319" lon="7.5994705"><ele>513.0</ele><time>2026-04-26T11:45:32.943Z</time></trkpt><trkpt lat="44.3802756" lon="7.5993002"><ele>513.1999999999999</ele><time>2026-04-26T11:45:33.942Z</time></trkpt><trkpt lat="44.3803175" lon="7.5991424"><ele>513.4</ele><time>2026-04-26T11:45:34.945Z</time></trkpt><trkpt lat="44.3803521" lon="7.5990085"><ele>513.5999999999999</ele><time>2026-04-26T11:45:35.946Z</time></trkpt><trkpt lat="44.3803874" lon="7.5988814"><ele>513.8</ele><time>2026-04-26T11:45:36.946Z</time></trkpt><trkpt lat="44.3804164" lon="7.5987561"><ele>514.0</ele><time>2026-04-26T11:45:37.946Z</time></trkpt><trkpt lat="44.3804516" lon="7.5986327"><ele>514.2</ele><time>2026-04-26T11:45:38.946Z</time></trkpt><trkpt lat="44.3804863" lon="7.5985134"><ele>514.4</ele><time>2026-04-26T11:45:39.941Z</time></trkpt><trkpt lat="44.3805167" lon="7.5983949"><ele>514.6</ele><time>2026-04-26T11:45:40.946Z</time></trkpt><trkpt lat="44.3805496" lon="7.5982655"><ele>514.8</ele><time>2026-04-26T11:45:41.946Z</time></trkpt><trkpt lat="44.3805825" lon="7.5981495"><ele>515.0</ele><time>2026-04-26T11:45:42.94Z</time></trkpt><trkpt lat="44.3806124" lon="7.5980271"><ele>515.0</ele><time>2026-04-26T11:45:43.946Z</time></trkpt><trkpt lat="44.3806421" lon="7.5978985"><ele>515.0</ele><time>2026-04-26T11:45:44.94Z</time></trkpt><trkpt lat="44.3806775" lon="7.5977556"><ele>515.0</ele><time>2026-04-26T11:45:45.946Z</time></trkpt><trkpt lat="44.380715" lon="7.5975956"><ele>515.0</ele><time>2026-04-26T11:45:46.944Z</time></trkpt><trkpt lat="44.3807568" lon="7.5974245"><ele>515.0</ele><time>2026-04-26T11:45:47.946Z</time></trkpt><trkpt lat="44.3808002" lon="7.5972511"><ele>515.0</ele><time>2026-04-26T11:45:48.946Z</time></trkpt><trkpt lat="44.3808485" lon="7.5970757"><ele>515.0</ele><time>2026-04-26T11:45:49.946Z</time></trkpt><trkpt lat="44.380895" lon="7.5968899"><ele>515.0</ele><time>2026-04-26T11:45:50.946Z</time></trkpt><trkpt lat="44.380942" lon="7.5967005"><ele>515.0</ele><time>2026-04-26T11:45:51.941Z</time></trkpt><trkpt lat="44.3809946" lon="7.5965049"><ele>515.0</ele><time>2026-04-26T11:45:52.946Z</time></trkpt><trkpt lat="44.3810524" lon="7.596306"><ele>515.0</ele><time>2026-04-26T11:45:53.945Z</time></trkpt><trkpt lat="44.381105" lon="7.5961006"><ele>515.0</ele><time>2026-04-26T11:45:54.946Z</time></trkpt><trkpt lat="44.3811659" lon="7.5958927"><ele>515.0</ele><time>2026-04-26T11:45:55.944Z</time></trkpt><trkpt lat="44.3812231" lon="7.5956779"><ele>515.0</ele><time>2026-04-26T11:45:56.946Z</time></trkpt><trkpt lat="44.3812738" lon="7.5954656"><ele>515.0</ele><time>2026-04-26T11:45:57.944Z</time></trkpt><trkpt lat="44.3813313" lon="7.5952379"><ele>515.0</ele><time>2026-04-26T11:45:58.946Z</time></trkpt><trkpt lat="44.3813897" lon="7.5950066"><ele>515.0</ele><time>2026-04-26T11:45:59.946Z</time></trkpt><trkpt lat="44.3814492" lon="7.5947801"><ele>515.0</ele><time>2026-04-26T11:46:00.946Z</time></trkpt><trkpt lat="44.3815069" lon="7.5945588"><ele>515.0</ele><time>2026-04-26T11:46:01.946Z</time></trkpt><trkpt lat="44.3815694" lon="7.5943393"><ele>515.0</ele><time>2026-04-26T11:46:02.946Z</time></trkpt><trkpt lat="44.3816357" lon="7.59414"><ele>515.3333333333333</ele><time>2026-04-26T11:46:03.942Z</time></trkpt><trkpt lat="44.3817031" lon="7.5939488"><ele>515.6666666666666</ele><time>2026-04-26T11:46:04.946Z</time></trkpt><trkpt lat="44.3817789" lon="7.5937643"><ele>516.0</ele><time>2026-04-26T11:46:05.946Z</time></trkpt><trkpt lat="44.3818597" lon="7.5935904"><ele>516.6666666666666</ele><time>2026-04-26T11:46:06.94Z</time></trkpt><trkpt lat="44.3819501" lon="7.5934149"><ele>517.3333333333333</ele><time>2026-04-26T11:46:07.946Z</time></trkpt><trkpt lat="44.3820417" lon="7.5932361"><ele>518.0</ele><time>2026-04-26T11:46:08.945Z</time></trkpt><trkpt lat="44.3821445" lon="7.5930614"><ele>517.6666666666666</ele><time>2026-04-26T11:46:09.946Z</time></trkpt><trkpt lat="44.3822472" lon="7.5928942"><ele>517.3333333333334</ele><time>2026-04-26T11:46:10.943Z</time></trkpt><trkpt lat="44.3823547" lon="7.5927277"><ele>517.0</ele><time>2026-04-26T11:46:11.946Z</time></trkpt><trkpt lat="44.3824594" lon="7.59256"><ele>517.6666666666667</ele><time>2026-04-26T11:46:12.94Z</time></trkpt><trkpt lat="44.3825604" lon="7.5923931"><ele>518.3333333333334</ele><time>2026-04-26T11:46:13.946Z</time></trkpt><trkpt lat="44.3826593" lon="7.5922208"><ele>519.0</ele><time>2026-04-26T11:46:14.946Z</time></trkpt><trkpt lat="44.3827585" lon="7.5920442"><ele>519.0</ele><time>2026-04-26T11:46:15.946Z</time></trkpt><trkpt lat="44.3828576" lon="7.5918713"><ele>519.0</ele><time>2026-04-26T11:46:16.945Z</time></trkpt><trkpt lat="44.3829619" lon="7.5917017"><ele>519.0</ele><time>2026-04-26T11:46:17.946Z</time></trkpt><trkpt lat="44.3830619" lon="7.5915316"><ele>518.6666666666666</ele><time>2026-04-26T11:46:18.945Z</time></trkpt><trkpt lat="44.3831636" lon="7.5913535"><ele>518.3333333333333</ele><time>2026-04-26T11:46:19.946Z</time></trkpt><trkpt lat="44.3832683" lon="7.5911709"><ele>518.0</ele><time>2026-04-26T11:46:20.945Z</time></trkpt><trkpt lat="44.3833746" lon="7.5909728"><ele>518.0</ele><time>2026-04-26T11:46:21.94Z</time></trkpt><trkpt lat="44.3834909" lon="7.5907701"><ele>518.0</ele><time>2026-04-26T11:46:22.944Z</time></trkpt><trkpt lat="44.3836105" lon="7.5905672"><ele>518.0</ele><time>2026-04-26T11:46:23.946Z</time></trkpt><trkpt lat="44.3837327" lon="7.5903719"><ele>518.0</ele><time>2026-04-26T11:46:24.942Z</time></trkpt><trkpt lat="44.3838574" lon="7.5901792"><ele>518.0</ele><time>2026-04-26T11:46:25.945Z</time></trkpt><trkpt lat="44.3839801" lon="7.589987"><ele>518.0</ele><time>2026-04-26T11:46:26.946Z</time></trkpt><trkpt lat="44.3840943" lon="7.5897942"><ele>518.0</ele><time>2026-04-26T11:46:27.945Z</time></trkpt><trkpt lat="44.3842087" lon="7.5896003"><ele>518.0</ele><time>2026-04-26T11:46:28.943Z</time></trkpt><trkpt lat="44.3843269" lon="7.5894085"><ele>518.0</ele><time>2026-04-26T11:46:29.946Z</time></trkpt><trkpt lat="44.3844417" lon="7.5892149"><ele>518.0</ele><time>2026-04-26T11:46:30.941Z</time></trkpt><trkpt lat="44.3845611" lon="7.5890178"><ele>518.0</ele><time>2026-04-26T11:46:31.945Z</time></trkpt><trkpt lat="44.384677" lon="7.5888184"><ele>518.0</ele><time>2026-04-26T11:46:32.946Z</time></trkpt><trkpt lat="44.3847982" lon="7.5886129"><ele>518.0</ele><time>2026-04-26T11:46:33.945Z</time></trkpt><trkpt lat="44.3849151" lon="7.5884108"><ele>518.0</ele><time>2026-04-26T11:46:34.943Z</time></trkpt><trkpt lat="44.3850341" lon="7.5882123"><ele>518.0</ele><time>2026-04-26T11:46:35.946Z</time></trkpt><trkpt lat="44.3851525" lon="7.5880121"><ele>518.3333333333333</ele><time>2026-04-26T11:46:36.945Z</time></trkpt><trkpt lat="44.3852687" lon="7.5878156"><ele>518.6666666666666</ele><time>2026-04-26T11:46:37.945Z</time></trkpt><trkpt lat="44.3853858" lon="7.5876135"><ele>519.0</ele><time>2026-04-26T11:46:38.946Z</time></trkpt><trkpt lat="44.3854997" lon="7.587425"><ele>519.0</ele><time>2026-04-26T11:46:39.94Z</time></trkpt><trkpt lat="44.3856098" lon="7.587237"><ele>519.0</ele><time>2026-04-26T11:46:40.946Z</time></trkpt><trkpt lat="44.3857231" lon="7.58705"><ele>519.0</ele><time>2026-04-26T11:46:41.94Z</time></trkpt><trkpt lat="44.3858374" lon="7.5868682"><ele>519.3333333333334</ele><time>2026-04-26T11:46:42.946Z</time></trkpt><trkpt lat="44.3859453" lon="7.5866819"><ele>519.6666666666667</ele><time>2026-04-26T11:46:43.945Z</time></trkpt><trkpt lat="44.386053" lon="7.5864979"><ele>520.0</ele><time>2026-04-26T11:46:44.941Z</time></trkpt><trkpt lat="44.3861647" lon="7.5863088"><ele>519.6666666666667</ele><time>2026-04-26T11:46:45.941Z</time></trkpt><trkpt lat="44.3862707" lon="7.5861251"><ele>519.3333333333334</ele><time>2026-04-26T11:46:46.946Z</time></trkpt><trkpt lat="44.3863807" lon="7.5859292"><ele>519.0</ele><time>2026-04-26T11:46:47.945Z</time></trkpt><trkpt lat="44.3864909" lon="7.5857361"><ele>519.0</ele><time>2026-04-26T11:46:48.946Z</time></trkpt><trkpt lat="44.3866" lon="7.5855481"><ele>519.0</ele><time>2026-04-26T11:46:49.936Z</time></trkpt><trkpt lat="44.3867114" lon="7.5853612"><ele>519.0</ele><time>2026-04-26T11:46:50.946Z</time></trkpt><trkpt lat="44.3868258" lon="7.5851713"><ele>519.3333333333334</ele><time>2026-04-26T11:46:51.945Z</time></trkpt><trkpt lat="44.3869384" lon="7.5849793"><ele>519.6666666666667</ele><time>2026-04-26T11:46:52.946Z</time></trkpt><trkpt lat="44.3870536" lon="7.584791"><ele>520.0</ele><time>2026-04-26T11:46:53.946Z</time></trkpt><trkpt lat="44.3871675" lon="7.5845957"><ele>520.0</ele><time>2026-04-26T11:46:54.946Z</time></trkpt><trkpt lat="44.3872842" lon="7.5844011"><ele>520.0</ele><time>2026-04-26T11:46:55.945Z</time></trkpt><trkpt lat="44.3874006" lon="7.5842075"><ele>520.0</ele><time>2026-04-26T11:46:56.946Z</time></trkpt><trkpt lat="44.3875091" lon="7.5840044"><ele>520.0</ele><time>2026-04-26T11:46:57.945Z</time></trkpt><trkpt lat="44.3876141" lon="7.5837983"><ele>520.0</ele><time>2026-04-26T11:46:58.944Z</time></trkpt><trkpt lat="44.3877181" lon="7.5835978"><ele>520.0</ele><time>2026-04-26T11:46:59.946Z</time></trkpt><trkpt lat="44.3878185" lon="7.5833886"><ele>520.0</ele><time>2026-04-26T11:47:00.946Z</time></trkpt><trkpt lat="44.3879144" lon="7.5831802"><ele>520.0</ele><time>2026-04-26T11:47:01.946Z</time></trkpt><trkpt lat="44.3880137" lon="7.5829808"><ele>520.0</ele><time>2026-04-26T11:47:02.941Z</time></trkpt><trkpt lat="44.3881048" lon="7.5827879"><ele>520.0</ele><time>2026-04-26T11:47:03.946Z</time></trkpt><trkpt lat="44.3881904" lon="7.5826061"><ele>520.0</ele><time>2026-04-26T11:47:04.94Z</time></trkpt><trkpt lat="44.3882704" lon="7.5824491"><ele>520.0</ele><time>2026-04-26T11:47:05.946Z</time></trkpt><trkpt lat="44.3883368" lon="7.5823095"><ele>520.0</ele><time>2026-04-26T11:47:06.94Z</time></trkpt><trkpt lat="44.3884004" lon="7.5822006"><ele>520.0</ele><time>2026-04-26T11:47:07.945Z</time></trkpt><trkpt lat="44.3884742" lon="7.5821328"><ele>520.0</ele><time>2026-04-26T11:47:08.946Z</time></trkpt><trkpt lat="44.3885559" lon="7.5821051"><ele>520.0</ele><time>2026-04-26T11:47:09.943Z</time></trkpt><trkpt lat="44.3886367" lon="7.5820866"><ele>520.0</ele><time>2026-04-26T11:47:10.946Z</time></trkpt><trkpt lat="44.3887038" lon="7.5820224"><ele>520.0</ele><time>2026-04-26T11:47:11.946Z</time></trkpt><trkpt lat="44.3887452" lon="7.5819235"><ele>520.0</ele><time>2026-04-26T11:47:12.946Z</time></trkpt><trkpt lat="44.3887477" lon="7.5818008"><ele>519.75</ele><time>2026-04-26T11:47:13.935Z</time></trkpt><trkpt lat="44.3887346" lon="7.5816407"><ele>519.5</ele><time>2026-04-26T11:47:14.945Z</time></trkpt><trkpt lat="44.3887423" lon="7.5814727"><ele>519.25</ele><time>2026-04-26T11:47:15.946Z</time></trkpt><trkpt lat="44.3887745" lon="7.5812822"><ele>519.0</ele><time>2026-04-26T11:47:16.946Z</time></trkpt><trkpt lat="44.3888098" lon="7.5810724"><ele>518.6666666666666</ele><time>2026-04-26T11:47:17.946Z</time></trkpt><trkpt lat="44.3888538" lon="7.5808515"><ele>518.3333333333333</ele><time>2026-04-26T11:47:18.944Z</time></trkpt><trkpt lat="44.3889046" lon="7.5806176"><ele>518.0</ele><time>2026-04-26T11:47:19.945Z</time></trkpt><trkpt lat="44.3889585" lon="7.580381"><ele>519.0</ele><time>2026-04-26T11:47:20.946Z</time></trkpt><trkpt lat="44.3890173" lon="7.5801317"><ele>520.0</ele><time>2026-04-26T11:47:21.943Z</time></trkpt><trkpt lat="44.3890828" lon="7.5798816"><ele>521.0</ele><time>2026-04-26T11:47:22.94Z</time></trkpt><trkpt lat="44.3891478" lon="7.5796235"><ele>520.6666666666666</ele><time>2026-04-26T11:47:23.946Z</time></trkpt><trkpt lat="44.3892151" lon="7.5793668"><ele>520.3333333333334</ele><time>2026-04-26T11:47:24.946Z</time></trkpt><trkpt lat="44.3892822" lon="7.579108"><ele>520.0</ele><time>2026-04-26T11:47:25.946Z</time></trkpt><trkpt lat="44.3893468" lon="7.578854"><ele>520.0</ele><time>2026-04-26T11:47:26.942Z</time></trkpt><trkpt lat="44.3894132" lon="7.5785974"><ele>520.0</ele><time>2026-04-26T11:47:27.946Z</time></trkpt><trkpt lat="44.3894816" lon="7.578339"><ele>520.0</ele><time>2026-04-26T11:47:28.946Z</time></trkpt><trkpt lat="44.3895469" lon="7.578078"><ele>520.0</ele><time>2026-04-26T11:47:29.946Z</time></trkpt><trkpt lat="44.389615" lon="7.5778163"><ele>520.0</ele><time>2026-04-26T11:47:30.944Z</time></trkpt><trkpt lat="44.3896821" lon="7.5775551"><ele>520.0</ele><time>2026-04-26T11:47:31.945Z</time></trkpt><trkpt lat="44.3897486" lon="7.5772892"><ele>520.3333333333334</ele><time>2026-04-26T11:47:32.943Z</time></trkpt><trkpt lat="44.3898142" lon="7.5770232"><ele>520.6666666666666</ele><time>2026-04-26T11:47:33.946Z</time></trkpt><trkpt lat="44.3898809" lon="7.5767609"><ele>521.0</ele><time>2026-04-26T11:47:34.946Z</time></trkpt><trkpt lat="44.3899495" lon="7.5765093"><ele>521.0</ele><time>2026-04-26T11:47:35.946Z</time></trkpt><trkpt lat="44.3900154" lon="7.576257"><ele>521.0</ele><time>2026-04-26T11:47:36.946Z</time></trkpt><trkpt lat="44.390086" lon="7.5760087"><ele>521.0</ele><time>2026-04-26T11:47:37.941Z</time></trkpt><trkpt lat="44.3901481" lon="7.5757796"><ele>520.6666666666666</ele><time>2026-04-26T11:47:38.945Z</time></trkpt><trkpt lat="44.3902051" lon="7.5755678"><ele>520.3333333333334</ele><time>2026-04-26T11:47:39.944Z</time></trkpt><trkpt lat="44.3902637" lon="7.5753707"><ele>520.0</ele><time>2026-04-26T11:47:40.946Z</time></trkpt><trkpt lat="44.3903292" lon="7.5751911"><ele>520.0</ele><time>2026-04-26T11:47:41.946Z</time></trkpt><trkpt lat="44.3904002" lon="7.5750281"><ele>520.0</ele><time>2026-04-26T11:47:42.946Z</time></trkpt><trkpt lat="44.3904904" lon="7.5748971"><ele>520.0</ele><time>2026-04-26T11:47:43.945Z</time></trkpt><trkpt lat="44.3906022" lon="7.5747942"><ele>520.0</ele><time>2026-04-26T11:47:44.946Z</time></trkpt><trkpt lat="44.390714" lon="7.5747088"><ele>519.75</ele><time>2026-04-26T11:47:45.946Z</time></trkpt><trkpt lat="44.3908125" lon="7.5746037"><ele>519.5</ele><time>2026-04-26T11:47:46.936Z</time></trkpt><trkpt lat="44.3908846" lon="7.5744646"><ele>519.25</ele><time>2026-04-26T11:47:47.945Z</time></trkpt><trkpt lat="44.3909239" lon="7.5742996"><ele>519.0</ele><time>2026-04-26T11:47:48.94Z</time></trkpt><trkpt lat="44.3909326" lon="7.5741209"><ele>518.5</ele><time>2026-04-26T11:47:49.946Z</time></trkpt><trkpt lat="44.3909204" lon="7.5739404"><ele>518.0</ele><time>2026-04-26T11:47:50.946Z</time></trkpt><trkpt lat="44.390916" lon="7.5737553"><ele>517.5</ele><time>2026-04-26T11:47:51.943Z</time></trkpt><trkpt lat="44.3909394" lon="7.5735715"><ele>517.0</ele><time>2026-04-26T11:47:52.945Z</time></trkpt><trkpt lat="44.3909881" lon="7.5733922"><ele>516.0</ele><time>2026-04-26T11:47:53.946Z</time></trkpt><trkpt lat="44.3910512" lon="7.5732108"><ele>515.0</ele><time>2026-04-26T11:47:54.943Z</time></trkpt><trkpt lat="44.3911055" lon="7.5730165"><ele>514.0</ele><time>2026-04-26T11:47:55.944Z</time></trkpt><trkpt lat="44.3911461" lon="7.5728114"><ele>513.0</ele><time>2026-04-26T11:47:56.946Z</time></trkpt><trkpt lat="44.3911784" lon="7.5726006"><ele>513.0</ele><time>2026-04-26T11:47:57.945Z</time></trkpt><trkpt lat="44.3912005" lon="7.5723828"><ele>513.0</ele><time>2026-04-26T11:47:58.946Z</time></trkpt><trkpt lat="44.3912199" lon="7.5721586"><ele>513.0</ele><time>2026-04-26T11:47:59.946Z</time></trkpt><trkpt lat="44.3912349" lon="7.5719367"><ele>513.0</ele><time>2026-04-26T11:48:00.944Z</time></trkpt><trkpt lat="44.3912405" lon="7.571722"><ele>513.0</ele><time>2026-04-26T11:48:01.94Z</time></trkpt><trkpt lat="44.3912493" lon="7.5715084"><ele>513.0</ele><time>2026-04-26T11:48:02.946Z</time></trkpt><trkpt lat="44.3912556" lon="7.571302"><ele>513.0</ele><time>2026-04-26T11:48:03.946Z</time></trkpt><trkpt lat="44.3912618" lon="7.5711013"><ele>513.0</ele><time>2026-04-26T11:48:04.944Z</time></trkpt><trkpt lat="44.3912658" lon="7.5708943"><ele>513.0</ele><time>2026-04-26T11:48:05.946Z</time></trkpt><trkpt lat="44.3912734" lon="7.570683"><ele>513.0</ele><time>2026-04-26T11:48:06.945Z</time></trkpt><trkpt lat="44.3912803" lon="7.5704746"><ele>511.75</ele><time>2026-04-26T11:48:07.944Z</time></trkpt><trkpt lat="44.391293" lon="7.5702681"><ele>510.5</ele><time>2026-04-26T11:48:08.946Z</time></trkpt><trkpt lat="44.3913051" lon="7.5700653"><ele>509.25</ele><time>2026-04-26T11:48:09.944Z</time></trkpt><trkpt lat="44.3913198" lon="7.5698606"><ele>508.0</ele><time>2026-04-26T11:48:10.946Z</time></trkpt><trkpt lat="44.3913341" lon="7.5696578"><ele>507.33333333333337</ele><time>2026-04-26T11:48:11.946Z</time></trkpt><trkpt lat="44.3913461" lon="7.5694491"><ele>506.66666666666663</ele><time>2026-04-26T11:48:12.946Z</time></trkpt><trkpt lat="44.3913612" lon="7.5692372"><ele>506.0</ele><time>2026-04-26T11:48:13.946Z</time></trkpt><trkpt lat="44.3913786" lon="7.5690236"><ele>506.0</ele><time>2026-04-26T11:48:14.946Z</time></trkpt><trkpt lat="44.3914" lon="7.5688102"><ele>506.0</ele><time>2026-04-26T11:48:15.946Z</time></trkpt><trkpt lat="44.3914188" lon="7.568589"><ele>506.0</ele><time>2026-04-26T11:48:16.939Z</time></trkpt><trkpt lat="44.3914364" lon="7.5683675"><ele>506.0</ele><time>2026-04-26T11:48:17.945Z</time></trkpt><trkpt lat="44.3914588" lon="7.5681446"><ele>506.0</ele><time>2026-04-26T11:48:18.943Z</time></trkpt><trkpt lat="44.3914823" lon="7.5679208"><ele>506.0</ele><time>2026-04-26T11:48:19.946Z</time></trkpt><trkpt lat="44.3915007" lon="7.5676722"><ele>506.0</ele><time>2026-04-26T11:48:20.946Z</time></trkpt><trkpt lat="44.3915132" lon="7.5674201"><ele>506.0</ele><time>2026-04-26T11:48:21.944Z</time></trkpt><trkpt lat="44.3915209" lon="7.5671565"><ele>506.0</ele><time>2026-04-26T11:48:22.946Z</time></trkpt><trkpt lat="44.3915169" lon="7.5668915"><ele>505.3333333333333</ele><time>2026-04-26T11:48:23.946Z</time></trkpt><trkpt lat="44.3915067" lon="7.5666254"><ele>504.66666666666663</ele><time>2026-04-26T11:48:24.945Z</time></trkpt><trkpt lat="44.3914907" lon="7.5663603"><ele>504.0</ele><time>2026-04-26T11:48:25.946Z</time></trkpt><trkpt lat="44.3914786" lon="7.5660944"><ele>503.33333333333337</ele><time>2026-04-26T11:48:26.94Z</time></trkpt><trkpt lat="44.3914585" lon="7.5658289"><ele>502.6666666666667</ele><time>2026-04-26T11:48:27.946Z</time></trkpt><trkpt lat="44.3914431" lon="7.5655707"><ele>502.0</ele><time>2026-04-26T11:48:28.946Z</time></trkpt><trkpt lat="44.3914326" lon="7.565308"><ele>502.0</ele><time>2026-04-26T11:48:29.944Z</time></trkpt><trkpt lat="44.3914284" lon="7.5650392"><ele>502.0</ele><time>2026-04-26T11:48:30.946Z</time></trkpt><trkpt lat="44.3914324" lon="7.564782"><ele>502.0</ele><time>2026-04-26T11:48:31.942Z</time></trkpt><trkpt lat="44.391433" lon="7.5645324"><ele>501.6666666666667</ele><time>2026-04-26T11:48:32.945Z</time></trkpt><trkpt lat="44.3914458" lon="7.5643003"><ele>501.33333333333337</ele><time>2026-04-26T11:48:33.945Z</time></trkpt><trkpt lat="44.3914602" lon="7.5640782"><ele>501.0</ele><time>2026-04-26T11:48:34.938Z</time></trkpt><trkpt lat="44.3914726" lon="7.5638758"><ele>501.0</ele><time>2026-04-26T11:48:35.946Z</time></trkpt><trkpt lat="44.3915014" lon="7.5636952"><ele>501.0</ele><time>2026-04-26T11:48:36.946Z</time></trkpt><trkpt lat="44.3915458" lon="7.563536"><ele>501.0</ele><time>2026-04-26T11:48:37.946Z</time></trkpt><trkpt lat="44.3916019" lon="7.5634015"><ele>501.0</ele><time>2026-04-26T11:48:38.942Z</time></trkpt><trkpt lat="44.3916302" lon="7.563296"><ele>501.0</ele><time>2026-04-26T11:48:39.946Z</time></trkpt><trkpt lat="44.3916334" lon="7.5631845"><ele>501.0</ele><time>2026-04-26T11:48:40.946Z</time></trkpt><trkpt lat="44.3916077" lon="7.5630814"><ele>501.0</ele><time>2026-04-26T11:48:41.944Z</time></trkpt><trkpt lat="44.3915487" lon="7.5629848"><ele>501.0</ele><time>2026-04-26T11:48:42.946Z</time></trkpt><trkpt lat="44.3914889" lon="7.562866"><ele>501.0</ele><time>2026-04-26T11:48:43.945Z</time></trkpt><trkpt lat="44.3914403" lon="7.5627246"><ele>501.0</ele><time>2026-04-26T11:48:44.946Z</time></trkpt><trkpt lat="44.3913956" lon="7.5625814"><ele>501.0</ele><time>2026-04-26T11:48:45.946Z</time></trkpt><trkpt lat="44.3913862" lon="7.5623764"><ele>501.0</ele><time>2026-04-26T11:48:46.946Z</time></trkpt><trkpt lat="44.3913753" lon="7.5621686"><ele>501.0</ele><time>2026-04-26T11:48:47.946Z</time></trkpt><trkpt lat="44.3913667" lon="7.5619346"><ele>501.33333333333337</ele><time>2026-04-26T11:48:48.942Z</time></trkpt><trkpt lat="44.3913605" lon="7.5616915"><ele>501.6666666666667</ele><time>2026-04-26T11:48:49.946Z</time></trkpt><trkpt lat="44.3913534" lon="7.5614438"><ele>502.0</ele><time>2026-04-26T11:48:50.946Z</time></trkpt><trkpt lat="44.3913442" lon="7.5611797"><ele>501.6666666666667</ele><time>2026-04-26T11:48:51.946Z</time></trkpt><trkpt lat="44.3913244" lon="7.5609233"><ele>501.33333333333337</ele><time>2026-04-26T11:48:52.94Z</time></trkpt><trkpt lat="44.3913049" lon="7.560661"><ele>501.0</ele><time>2026-04-26T11:48:53.946Z</time></trkpt><trkpt lat="44.3912844" lon="7.5603924"><ele>500.66666666666663</ele><time>2026-04-26T11:48:54.938Z</time></trkpt><trkpt lat="44.3912566" lon="7.5601399"><ele>500.3333333333333</ele><time>2026-04-26T11:48:55.946Z</time></trkpt><trkpt lat="44.3912382" lon="7.5598927"><ele>500.0</ele><time>2026-04-26T11:48:56.94Z</time></trkpt><trkpt lat="44.3912244" lon="7.5596556"><ele>500.66666666666663</ele><time>2026-04-26T11:48:57.945Z</time></trkpt><trkpt lat="44.3912137" lon="7.5594301"><ele>501.33333333333337</ele><time>2026-04-26T11:48:58.945Z</time></trkpt><trkpt lat="44.3912102" lon="7.559218"><ele>502.0</ele><time>2026-04-26T11:48:59.946Z</time></trkpt><trkpt lat="44.3912158" lon="7.5590188"><ele>502.0</ele><time>2026-04-26T11:49:00.946Z</time></trkpt><trkpt lat="44.3912314" lon="7.5588403"><ele>502.0</ele><time>2026-04-26T11:49:01.946Z</time></trkpt><trkpt lat="44.3912516" lon="7.5586782"><ele>502.0</ele><time>2026-04-26T11:49:02.941Z</time></trkpt><trkpt lat="44.3913018" lon="7.5584995"><ele>502.0</ele><time>2026-04-26T11:49:03.946Z</time></trkpt><trkpt lat="44.3913479" lon="7.5583056"><ele>502.33333333333337</ele><time>2026-04-26T11:49:04.943Z</time></trkpt><trkpt lat="44.3914044" lon="7.558104"><ele>502.66666666666663</ele><time>2026-04-26T11:49:05.946Z</time></trkpt><trkpt lat="44.3914662" lon="7.5578985"><ele>503.0</ele><time>2026-04-26T11:49:06.945Z</time></trkpt><trkpt lat="44.3915338" lon="7.5576971"><ele>503.0</ele><time>2026-04-26T11:49:07.945Z</time></trkpt><trkpt lat="44.3916094" lon="7.5574892"><ele>503.0</ele><time>2026-04-26T11:49:08.946Z</time></trkpt><trkpt lat="44.3916954" lon="7.5572704"><ele>503.0</ele><time>2026-04-26T11:49:09.945Z</time></trkpt><trkpt lat="44.3917745" lon="7.5570477"><ele>502.3333333333333</ele><time>2026-04-26T11:49:10.946Z</time></trkpt><trkpt lat="44.3918608" lon="7.5568215"><ele>501.66666666666663</ele><time>2026-04-26T11:49:11.946Z</time></trkpt><trkpt lat="44.3919436" lon="7.5565848"><ele>501.0</ele><time>2026-04-26T11:49:12.94Z</time></trkpt><trkpt lat="44.3920276" lon="7.5563546"><ele>501.66666666666663</ele><time>2026-04-26T11:49:13.945Z</time></trkpt><trkpt lat="44.3921123" lon="7.556125"><ele>502.3333333333333</ele><time>2026-04-26T11:49:14.943Z</time></trkpt><trkpt lat="44.3921883" lon="7.5559141"><ele>503.0</ele><time>2026-04-26T11:49:15.945Z</time></trkpt><trkpt lat="44.3922606" lon="7.5557192"><ele>503.75</ele><time>2026-04-26T11:49:16.937Z</time></trkpt><trkpt lat="44.3923283" lon="7.5555574"><ele>504.5</ele><time>2026-04-26T11:49:17.938Z</time></trkpt><trkpt lat="44.3923853" lon="7.5554203"><ele>505.25</ele><time>2026-04-26T11:49:18.94Z</time></trkpt><trkpt lat="44.3924449" lon="7.5552986"><ele>506.0</ele><time>2026-04-26T11:49:19.946Z</time></trkpt><trkpt lat="44.3925118" lon="7.5551949"><ele>506.66666666666663</ele><time>2026-04-26T11:49:20.946Z</time></trkpt><trkpt lat="44.3925584" lon="7.5550801"><ele>507.3333333333333</ele><time>2026-04-26T11:49:21.944Z</time></trkpt><trkpt lat="44.3925725" lon="7.5549624"><ele>508.0</ele><time>2026-04-26T11:49:22.946Z</time></trkpt><trkpt lat="44.3925458" lon="7.554857"><ele>508.66666666666663</ele><time>2026-04-26T11:49:23.941Z</time></trkpt><trkpt lat="44.3924871" lon="7.5547705"><ele>509.3333333333333</ele><time>2026-04-26T11:49:24.946Z</time></trkpt><trkpt lat="44.3924025" lon="7.554733"><ele>510.0</ele><time>2026-04-26T11:49:25.944Z</time></trkpt><trkpt lat="44.392299" lon="7.5546887"><ele>510.0</ele><time>2026-04-26T11:49:26.946Z</time></trkpt><trkpt lat="44.3921982" lon="7.5545959"><ele>510.0</ele><time>2026-04-26T11:49:27.937Z</time></trkpt><trkpt lat="44.3920992" lon="7.5544881"><ele>510.0</ele><time>2026-04-26T11:49:28.946Z</time></trkpt><trkpt lat="44.3919993" lon="7.5543649"><ele>510.0</ele><time>2026-04-26T11:49:29.943Z</time></trkpt><trkpt lat="44.3918892" lon="7.5542381"><ele>511.0</ele><time>2026-04-26T11:49:30.946Z</time></trkpt><trkpt lat="44.3917644" lon="7.5541064"><ele>512.0</ele><time>2026-04-26T11:49:31.945Z</time></trkpt><trkpt lat="44.3916352" lon="7.55397"><ele>513.0</ele><time>2026-04-26T11:49:32.946Z</time></trkpt><trkpt lat="44.3915043" lon="7.5538354"><ele>515.3333333333334</ele><time>2026-04-26T11:49:33.946Z</time></trkpt><trkpt lat="44.3913739" lon="7.553699"><ele>517.6666666666667</ele><time>2026-04-26T11:49:34.946Z</time></trkpt><trkpt lat="44.3912445" lon="7.553558"><ele>520.0</ele><time>2026-04-26T11:49:35.939Z</time></trkpt><trkpt lat="44.3911097" lon="7.5534306"><ele>520.0</ele><time>2026-04-26T11:49:36.945Z</time></trkpt><trkpt lat="44.3909755" lon="7.5533005"><ele>520.0</ele><time>2026-04-26T11:49:37.945Z</time></trkpt><trkpt lat="44.3908409" lon="7.5531662"><ele>520.0</ele><time>2026-04-26T11:49:38.943Z</time></trkpt><trkpt lat="44.3907097" lon="7.5530214"><ele>520.0</ele><time>2026-04-26T11:49:39.938Z</time></trkpt><trkpt lat="44.3905744" lon="7.5528877"><ele>520.0</ele><time>2026-04-26T11:49:40.946Z</time></trkpt><trkpt lat="44.390436" lon="7.5527529"><ele>520.0</ele><time>2026-04-26T11:49:41.942Z</time></trkpt><trkpt lat="44.3902951" lon="7.5526327"><ele>521.6666666666667</ele><time>2026-04-26T11:49:42.946Z</time></trkpt><trkpt lat="44.3901543" lon="7.5525192"><ele>523.3333333333334</ele><time>2026-04-26T11:49:43.945Z</time></trkpt><trkpt lat="44.3900075" lon="7.5523926"><ele>525.0</ele><time>2026-04-26T11:49:44.946Z</time></trkpt><trkpt lat="44.389864" lon="7.5522575"><ele>525.0</ele><time>2026-04-26T11:49:45.946Z</time></trkpt><trkpt lat="44.3897118" lon="7.5521318"><ele>525.0</ele><time>2026-04-26T11:49:46.943Z</time></trkpt><trkpt lat="44.3895583" lon="7.552008"><ele>525.0</ele><time>2026-04-26T11:49:47.946Z</time></trkpt><trkpt lat="44.3894027" lon="7.5518752"><ele>527.6666666666666</ele><time>2026-04-26T11:49:48.945Z</time></trkpt><trkpt lat="44.3892444" lon="7.5517478"><ele>530.3333333333333</ele><time>2026-04-26T11:49:49.946Z</time></trkpt><trkpt lat="44.389091" lon="7.5516202"><ele>533.0</ele><time>2026-04-26T11:49:50.946Z</time></trkpt><trkpt lat="44.3889361" lon="7.5514863"><ele>534.6666666666666</ele><time>2026-04-26T11:49:51.946Z</time></trkpt><trkpt lat="44.3887781" lon="7.5513605"><ele>536.3333333333334</ele><time>2026-04-26T11:49:52.945Z</time></trkpt><trkpt lat="44.3886217" lon="7.5512241"><ele>538.0</ele><time>2026-04-26T11:49:53.946Z</time></trkpt><trkpt lat="44.3884635" lon="7.5510894"><ele>538.0</ele><time>2026-04-26T11:49:54.945Z</time></trkpt><trkpt lat="44.3883005" lon="7.5509542"><ele>538.0</ele><time>2026-04-26T11:49:55.937Z</time></trkpt><trkpt lat="44.3881441" lon="7.5508171"><ele>538.0</ele><time>2026-04-26T11:49:56.946Z</time></trkpt><trkpt lat="44.3879916" lon="7.5506788"><ele>540.0</ele><time>2026-04-26T11:49:57.938Z</time></trkpt><trkpt lat="44.3878478" lon="7.5505496"><ele>542.0</ele><time>2026-04-26T11:49:58.946Z</time></trkpt><trkpt lat="44.3877172" lon="7.5504416"><ele>544.0</ele><time>2026-04-26T11:49:59.936Z</time></trkpt><trkpt lat="44.3876078" lon="7.5503387"><ele>544.0</ele><time>2026-04-26T11:50:00.946Z</time></trkpt><trkpt lat="44.3875211" lon="7.5502665"><ele>544.0</ele><time>2026-04-26T11:50:01.945Z</time></trkpt><trkpt lat="44.3874592" lon="7.5501828"><ele>544.0</ele><time>2026-04-26T11:50:02.946Z</time></trkpt><trkpt lat="44.3874302" lon="7.5500769"><ele>544.0</ele><time>2026-04-26T11:50:03.944Z</time></trkpt><trkpt lat="44.3874131" lon="7.5499737"><ele>544.0</ele><time>2026-04-26T11:50:04.946Z</time></trkpt><trkpt lat="44.3874744" lon="7.5498477"><ele>544.0</ele><time>2026-04-26T11:50:05.942Z</time></trkpt><trkpt lat="44.3875278" lon="7.5497237"><ele>544.0</ele><time>2026-04-26T11:50:06.944Z</time></trkpt><trkpt lat="44.3875899" lon="7.5495962"><ele>544.0</ele><time>2026-04-26T11:50:07.946Z</time></trkpt><trkpt lat="44.3876517" lon="7.5494684"><ele>544.0</ele><time>2026-04-26T11:50:08.946Z</time></trkpt><trkpt lat="44.3877091" lon="7.5493488"><ele>544.0</ele><time>2026-04-26T11:50:09.945Z</time></trkpt><trkpt lat="44.3877514" lon="7.5492694"><ele>543.9999999999999</ele><time>2026-04-26T11:50:10.941Z</time></trkpt><trkpt lat="44.387806" lon="7.5491925"><ele>544.0</ele><time>2026-04-26T11:50:11.946Z</time></trkpt><trkpt lat="44.3878702" lon="7.5491309"><ele>544.0</ele><time>2026-04-26T11:50:12.945Z</time></trkpt><trkpt lat="44.3879398" lon="7.5490951"><ele>544.0</ele><time>2026-04-26T11:50:13.945Z</time></trkpt><trkpt lat="44.3879977" lon="7.5490351"><ele>544.0</ele><time>2026-04-26T11:50:14.941Z</time></trkpt><trkpt lat="44.3880239" lon="7.5489534"><ele>543.9999999999999</ele><time>2026-04-26T11:50:15.941Z</time></trkpt><trkpt lat="44.38804" lon="7.548857"><ele>544.0</ele><time>2026-04-26T11:50:16.946Z</time></trkpt><trkpt lat="44.3880638" lon="7.5487359"><ele>544.6</ele><time>2026-04-26T11:50:17.944Z</time></trkpt><trkpt lat="44.3881052" lon="7.5486072"><ele>545.2</ele><time>2026-04-26T11:50:18.945Z</time></trkpt><trkpt lat="44.3881608" lon="7.5484708"><ele>545.8000000000001</ele><time>2026-04-26T11:50:19.942Z</time></trkpt><trkpt lat="44.3882251" lon="7.5483484"><ele>546.4</ele><time>2026-04-26T11:50:20.946Z</time></trkpt><trkpt lat="44.3882914" lon="7.5482214"><ele>547.0</ele><time>2026-04-26T11:50:21.945Z</time></trkpt><trkpt lat="44.3883557" lon="7.5481059"><ele>547.0</ele><time>2026-04-26T11:50:22.942Z</time></trkpt><trkpt lat="44.3884157" lon="7.5479896"><ele>547.0</ele><time>2026-04-26T11:50:23.946Z</time></trkpt><trkpt lat="44.3884669" lon="7.5478894"><ele>547.0</ele><time>2026-04-26T11:50:24.938Z</time></trkpt><trkpt lat="44.3885228" lon="7.547785"><ele>547.0</ele><time>2026-04-26T11:50:25.945Z</time></trkpt><trkpt lat="44.3885717" lon="7.5476891"><ele>547.0</ele><time>2026-04-26T11:50:26.928Z</time></trkpt><trkpt lat="44.3886921" lon="7.5476374"><ele>547.0</ele><time>2026-04-26T11:50:28.941Z</time></trkpt><trkpt lat="44.3887742" lon="7.5476716"><ele>547.0</ele><time>2026-04-26T11:50:29.942Z</time></trkpt><trkpt lat="44.3888604" lon="7.5477318"><ele>547.0</ele><time>2026-04-26T11:50:30.944Z</time></trkpt><trkpt lat="44.3889519" lon="7.5478247"><ele>547.0</ele><time>2026-04-26T11:50:31.946Z</time></trkpt><trkpt lat="44.389043" lon="7.5479259"><ele>547.0</ele><time>2026-04-26T11:50:32.946Z</time></trkpt><trkpt lat="44.3891478" lon="7.5480315"><ele>546.0</ele><time>2026-04-26T11:50:33.939Z</time></trkpt><trkpt lat="44.3892561" lon="7.5481429"><ele>545.0</ele><time>2026-04-26T11:50:34.945Z</time></trkpt><trkpt lat="44.3893612" lon="7.5482595"><ele>544.0</ele><time>2026-04-26T11:50:35.946Z</time></trkpt><trkpt lat="44.3894786" lon="7.548376"><ele>543.0</ele><time>2026-04-26T11:50:36.942Z</time></trkpt><trkpt lat="44.3895817" lon="7.5484899"><ele>542.8</ele><time>2026-04-26T11:50:37.945Z</time></trkpt><trkpt lat="44.3896881" lon="7.5485891"><ele>542.5999999999999</ele><time>2026-04-26T11:50:38.944Z</time></trkpt><trkpt lat="44.3897823" lon="7.5486643"><ele>542.4000000000001</ele><time>2026-04-26T11:50:39.946Z</time></trkpt><trkpt lat="44.3898703" lon="7.5486907"><ele>542.2</ele><time>2026-04-26T11:50:40.946Z</time></trkpt><trkpt lat="44.3899545" lon="7.5486859"><ele>542.0</ele><time>2026-04-26T11:50:41.944Z</time></trkpt><trkpt lat="44.3900314" lon="7.5486507"><ele>542.0</ele><time>2026-04-26T11:50:42.944Z</time></trkpt><trkpt lat="44.3900942" lon="7.5485966"><ele>542.0</ele><time>2026-04-26T11:50:43.946Z</time></trkpt><trkpt lat="44.3901483" lon="7.5485362"><ele>542.0</ele><time>2026-04-26T11:50:44.942Z</time></trkpt><trkpt lat="44.3902385" lon="7.5484305"><ele>542.0</ele><time>2026-04-26T11:50:46.941Z</time></trkpt><trkpt lat="44.390341" lon="7.5483176"><ele>542.0</ele><time>2026-04-26T11:50:48.945Z</time></trkpt><trkpt lat="44.3903929" lon="7.5482458"><ele>542.0</ele><time>2026-04-26T11:50:49.945Z</time></trkpt><trkpt lat="44.3904416" lon="7.5481708"><ele>542.0</ele><time>2026-04-26T11:50:50.946Z</time></trkpt><trkpt lat="44.3905128" lon="7.5480461"><ele>542.0</ele><time>2026-04-26T11:50:52.946Z</time></trkpt><trkpt lat="44.390564" lon="7.547962"><ele>542.0</ele><time>2026-04-26T11:50:54.928Z</time></trkpt><trkpt lat="44.3906229" lon="7.5478695"><ele>542.0</ele><time>2026-04-26T11:50:56.928Z</time></trkpt><trkpt lat="44.390664" lon="7.5477702"><ele>542.0</ele><time>2026-04-26T11:50:57.944Z</time></trkpt><trkpt lat="44.3907069" lon="7.5476428"><ele>542.0</ele><time>2026-04-26T11:50:59.945Z</time></trkpt><trkpt lat="44.3907285" lon="7.5475483"><ele>542.0</ele><time>2026-04-26T11:51:00.938Z</time></trkpt><trkpt lat="44.3907928" lon="7.5474705"><ele>542.0</ele><time>2026-04-26T11:51:01.946Z</time></trkpt><trkpt lat="44.3908497" lon="7.5473752"><ele>542.0</ele><time>2026-04-26T11:51:02.944Z</time></trkpt><trkpt lat="44.3909074" lon="7.5472884"><ele>542.0</ele><time>2026-04-26T11:51:03.946Z</time></trkpt><trkpt lat="44.3909877" lon="7.5472021"><ele>542.0</ele><time>2026-04-26T11:51:05.946Z</time></trkpt><trkpt lat="44.3911333" lon="7.5472675"><ele>542.0</ele><time>2026-04-26T11:51:07.944Z</time></trkpt><trkpt lat="44.3912231" lon="7.547363"><ele>542.0</ele><time>2026-04-26T11:51:08.944Z</time></trkpt><trkpt lat="44.3913102" lon="7.5474555"><ele>542.0</ele><time>2026-04-26T11:51:09.946Z</time></trkpt><trkpt lat="44.3913947" lon="7.5475407"><ele>542.0</ele><time>2026-04-26T11:51:10.94Z</time></trkpt><trkpt lat="44.3914733" lon="7.5476086"><ele>542.0</ele><time>2026-04-26T11:51:11.946Z</time></trkpt><trkpt lat="44.3915277" lon="7.5476812"><ele>542.2</ele><time>2026-04-26T11:51:12.946Z</time></trkpt><trkpt lat="44.3915869" lon="7.5478012"><ele>542.4000000000001</ele><time>2026-04-26T11:51:14.946Z</time></trkpt><trkpt lat="44.391525" lon="7.5479848"><ele>542.5999999999999</ele><time>2026-04-26T11:51:16.942Z</time></trkpt><trkpt lat="44.3914781" lon="7.5480872"><ele>542.8</ele><time>2026-04-26T11:51:17.946Z</time></trkpt><trkpt lat="44.3914329" lon="7.5481749"><ele>543.0</ele><time>2026-04-26T11:51:18.946Z</time></trkpt><trkpt lat="44.3913425" lon="7.5482321"><ele>545.0</ele><time>2026-04-26T11:51:20.939Z</time></trkpt><trkpt lat="44.3912672" lon="7.5481848"><ele>546.0</ele><time>2026-04-26T11:51:22.946Z</time></trkpt></trkseg></trk></gpx>